<?xml version="1.0" encoding="UTF-8" standalone="no" ?>
<gpx xmlns="http://www.topografix.com/GPX/1/1" xmlns:xsi="http://www.w3.org/2001/XMLSchema-instance" xsi:schemaLocation="http://www.topografix.com/GPX/1/1 http://www.topografix.com/GPX/1/1/gpx.xsd" version="1.1" creator="VisuGPX - https://www.visugpx.com">
  <metadata>
    <name>HRP2023-J08</name>
    <desc><![CDATA[Metadata:
Name: exp_2022-08-14-sorteny-pas-de-la-case.gpx
Author: (null)
Description: (null)
Metadata:
Name: [HRP-08] Hospitalet - Sorteny
Author: (null)
Description: (null)
Metadata:
Name: [HRP-08]
Author: (null)
Description: (null)
Metadata:
Name: exp_HRP 2020 RV-02 695 km.gpx
Author: Mobile User
Description: (null)
{DC1}End time	: 
Total time	: 0h00:00
Average speed	: -
Average slope	: 14.60 %
Included area	: 1912.7151 ha
Frame bounds	: 42.6242 1.5640 ; 42.5877 1.8006
Détails by segments
distance  |  time    | avg.spd. | max.spd. | d-alt. + | d-alt -
   km     | hh:mn:ss |   km/h   |   km/h   |    m     |    m
    29.04 | -1:26:13 |    -51.6 |      0.0 |     2397 |    -1843{DC2}
Source group : [import]]]></desc>
  </metadata>
  <trk>
    <name><![CDATA[HRP2023-J08]]></name>
    <desc><![CDATA[Metadata:
Name: exp_2022-08-14-sorteny-pas-de-la-case.gpx
Author: (null)
Description: (null)
Metadata:
Name: [HRP-08] Hospitalet - Sorteny
Author: (null)
Description: (null)
Metadata:
Name: [HRP-08]
Author: (null)
Description: (null)
Metadata:
Name: exp_HRP 2020 RV-02 695 km.gpx
Author: Mobile User
Description: (null)
{DC1}End time	: 
Total time	: 0h00:00
Average speed	: -
Average slope	: 14.60 %
Included area	: 1912.7151 ha
Frame bounds	: 42.6242 1.5640 ; 42.5877 1.8006
Détails by segments
distance  |  time    | avg.spd. | max.spd. | d-alt. + | d-alt -
   km     | hh:mn:ss |   km/h   |   km/h   |    m     |    m
    29.04 | -1:26:13 |    -51.6 |      0.0 |     2397 |    -1843{DC2}
Source group : [import]]]></desc>
    <extensions>
      <line xmlns="http://www.topografix.com/GPX/gpx_style/0/2">
        <color>0000FF</color>
        <width>4</width>
      </line>
    </extensions>
    <trkseg>
      <trkpt lat="42.58766" lon="1.79826">
        <ele>1432</ele>
        <time>2023-07-20T04:01:57Z</time>
      </trkpt>
      <trkpt lat="42.58785" lon="1.79848">
        <ele>1431</ele>
        <time>2023-07-20T04:02:34Z</time>
      </trkpt>
      <trkpt lat="42.58812" lon="1.7986">
        <ele>1430</ele>
        <time>2023-07-20T04:03:11Z</time>
      </trkpt>
      <trkpt lat="42.58818" lon="1.79845">
        <ele>1430</ele>
        <time>2023-07-20T04:03:48Z</time>
      </trkpt>
      <trkpt lat="42.58826" lon="1.79835">
        <ele>1429</ele>
        <time>2023-07-20T04:04:25Z</time>
      </trkpt>
      <trkpt lat="42.58836" lon="1.79831">
        <ele>1429</ele>
        <time>2023-07-20T04:05:02Z</time>
      </trkpt>
      <trkpt lat="42.58857" lon="1.79836">
        <ele>1429</ele>
        <time>2023-07-20T04:05:39Z</time>
      </trkpt>
      <trkpt lat="42.58878" lon="1.79867">
        <ele>1428</ele>
        <time>2023-07-20T04:06:16Z</time>
      </trkpt>
      <trkpt lat="42.58876" lon="1.7988">
        <ele>1428</ele>
        <time>2023-07-20T04:06:53Z</time>
      </trkpt>
      <trkpt lat="42.58872" lon="1.79891">
        <ele>1428</ele>
        <time>2023-07-20T04:07:30Z</time>
      </trkpt>
      <trkpt lat="42.58881" lon="1.79901">
        <ele>1428</ele>
        <time>2023-07-20T04:08:07Z</time>
      </trkpt>
      <trkpt lat="42.58907" lon="1.79914">
        <ele>1427</ele>
        <time>2023-07-20T04:08:44Z</time>
      </trkpt>
      <trkpt lat="42.58924" lon="1.79903">
        <ele>1426</ele>
        <time>2023-07-20T04:09:21Z</time>
      </trkpt>
      <trkpt lat="42.58933" lon="1.79902">
        <ele>1426</ele>
        <time>2023-07-20T04:09:58Z</time>
      </trkpt>
      <trkpt lat="42.58937" lon="1.79889">
        <ele>1425</ele>
        <time>2023-07-20T04:10:35Z</time>
      </trkpt>
      <trkpt lat="42.59013" lon="1.79837">
        <ele>1423</ele>
        <time>2023-07-20T04:11:12Z</time>
      </trkpt>
      <trkpt lat="42.59023" lon="1.79838">
        <ele>1421</ele>
        <time>2023-07-20T04:11:49Z</time>
      </trkpt>
      <trkpt lat="42.59037" lon="1.79864">
        <ele>1420</ele>
        <time>2023-07-20T04:12:26Z</time>
      </trkpt>
      <trkpt lat="42.59046" lon="1.79915">
        <ele>1418</ele>
        <time>2023-07-20T04:13:03Z</time>
      </trkpt>
      <trkpt lat="42.5905" lon="1.80059">
        <ele>1416</ele>
        <time>2023-07-20T04:13:40Z</time>
      </trkpt>
      <trkpt lat="42.59071" lon="1.80061">
        <ele>1414</ele>
        <time>2023-07-20T04:14:17Z</time>
      </trkpt>
      <trkpt lat="42.59112" lon="1.80049">
        <ele>1414</ele>
        <time>2023-07-20T04:14:54Z</time>
      </trkpt>
      <trkpt lat="42.59108" lon="1.80003">
        <ele>1415</ele>
        <time>2023-07-20T04:15:31Z</time>
      </trkpt>
      <trkpt lat="42.59081" lon="1.79939">
        <ele>1416</ele>
        <time>2023-07-20T04:16:08Z</time>
      </trkpt>
      <trkpt lat="42.59086" lon="1.79891">
        <ele>1418</ele>
        <time>2023-07-20T04:16:45Z</time>
      </trkpt>
      <trkpt lat="42.59071" lon="1.79865">
        <ele>1419</ele>
        <time>2023-07-20T04:17:22Z</time>
      </trkpt>
      <trkpt lat="42.59053" lon="1.79798">
        <ele>1420</ele>
        <time>2023-07-20T04:17:59Z</time>
      </trkpt>
      <trkpt lat="42.59011" lon="1.79743">
        <ele>1420</ele>
        <time>2023-07-20T04:18:36Z</time>
      </trkpt>
      <trkpt lat="42.58981" lon="1.7967">
        <ele>1423</ele>
        <time>2023-07-20T04:19:13Z</time>
      </trkpt>
      <trkpt lat="42.58979" lon="1.79653">
        <ele>1426</ele>
        <time>2023-07-20T04:19:50Z</time>
      </trkpt>
      <trkpt lat="42.58969" lon="1.79639">
        <ele>1429</ele>
        <time>2023-07-20T04:20:27Z</time>
      </trkpt>
      <trkpt lat="42.58923" lon="1.7962">
        <ele>1431</ele>
        <time>2023-07-20T04:21:04Z</time>
      </trkpt>
      <trkpt lat="42.58904" lon="1.79593">
        <ele>1434</ele>
        <time>2023-07-20T04:21:41Z</time>
      </trkpt>
      <trkpt lat="42.58935" lon="1.79587">
        <ele>1438</ele>
        <time>2023-07-20T04:22:18Z</time>
      </trkpt>
      <trkpt lat="42.58947" lon="1.79581">
        <ele>1442</ele>
        <time>2023-07-20T04:22:55Z</time>
      </trkpt>
      <trkpt lat="42.5892" lon="1.79551">
        <ele>1446</ele>
        <time>2023-07-20T04:23:32Z</time>
      </trkpt>
      <trkpt lat="42.58905" lon="1.79513">
        <ele>1452</ele>
        <time>2023-07-20T04:24:09Z</time>
      </trkpt>
      <trkpt lat="42.58897" lon="1.795">
        <ele>1456</ele>
        <time>2023-07-20T04:24:46Z</time>
      </trkpt>
      <trkpt lat="42.5891" lon="1.79496">
        <ele>1461</ele>
        <time>2023-07-20T04:25:23Z</time>
      </trkpt>
      <trkpt lat="42.58904" lon="1.79473">
        <ele>1465</ele>
        <time>2023-07-20T04:26:00Z</time>
      </trkpt>
      <trkpt lat="42.58894" lon="1.79452">
        <ele>1469</ele>
        <time>2023-07-20T04:26:37Z</time>
      </trkpt>
      <trkpt lat="42.58911" lon="1.79447">
        <ele>1473</ele>
        <time>2023-07-20T04:27:14Z</time>
      </trkpt>
      <trkpt lat="42.58919" lon="1.79441">
        <ele>1478</ele>
        <time>2023-07-20T04:27:51Z</time>
      </trkpt>
      <trkpt lat="42.58924" lon="1.79423">
        <ele>1482</ele>
        <time>2023-07-20T04:28:28Z</time>
      </trkpt>
      <trkpt lat="42.58941" lon="1.79418">
        <ele>1487</ele>
        <time>2023-07-20T04:29:05Z</time>
      </trkpt>
      <trkpt lat="42.58953" lon="1.79428">
        <ele>1491</ele>
        <time>2023-07-20T04:29:42Z</time>
      </trkpt>
      <trkpt lat="42.58965" lon="1.79426">
        <ele>1495</ele>
        <time>2023-07-20T04:30:19Z</time>
      </trkpt>
      <trkpt lat="42.58966" lon="1.79415">
        <ele>1499</ele>
        <time>2023-07-20T04:30:56Z</time>
      </trkpt>
      <trkpt lat="42.58975" lon="1.79404">
        <ele>1503</ele>
        <time>2023-07-20T04:31:33Z</time>
      </trkpt>
      <trkpt lat="42.58989" lon="1.79399">
        <ele>1526</ele>
        <time>2023-07-20T04:32:10Z</time>
      </trkpt>
      <trkpt lat="42.58986" lon="1.79384">
        <ele>1509</ele>
        <time>2023-07-20T04:32:47Z</time>
      </trkpt>
      <trkpt lat="42.59049" lon="1.79349">
        <ele>1518</ele>
        <time>2023-07-20T04:33:24Z</time>
      </trkpt>
      <trkpt lat="42.59068" lon="1.79321">
        <ele>1527</ele>
        <time>2023-07-20T04:34:01Z</time>
      </trkpt>
      <trkpt lat="42.59068" lon="1.79293">
        <ele>1534</ele>
        <time>2023-07-20T04:34:38Z</time>
      </trkpt>
      <trkpt lat="42.59064" lon="1.79271">
        <ele>1563</ele>
        <time>2023-07-20T04:35:15Z</time>
      </trkpt>
      <trkpt lat="42.59067" lon="1.79259">
        <ele>1544</ele>
        <time>2023-07-20T04:35:52Z</time>
      </trkpt>
      <trkpt lat="42.59058" lon="1.7923">
        <ele>1548</ele>
        <time>2023-07-20T04:36:29Z</time>
      </trkpt>
      <trkpt lat="42.59048" lon="1.79213">
        <ele>1567</ele>
        <time>2023-07-20T04:37:06Z</time>
      </trkpt>
      <trkpt lat="42.5905" lon="1.79198">
        <ele>1554</ele>
        <time>2023-07-20T04:37:43Z</time>
      </trkpt>
      <trkpt lat="42.59055" lon="1.79181">
        <ele>1569</ele>
        <time>2023-07-20T04:38:20Z</time>
      </trkpt>
      <trkpt lat="42.59055" lon="1.7917">
        <ele>1570</ele>
        <time>2023-07-20T04:38:57Z</time>
      </trkpt>
      <trkpt lat="42.5905" lon="1.7916">
        <ele>1563</ele>
        <time>2023-07-20T04:39:34Z</time>
      </trkpt>
      <trkpt lat="42.59063" lon="1.79146">
        <ele>1576</ele>
        <time>2023-07-20T04:40:11Z</time>
      </trkpt>
      <trkpt lat="42.59072" lon="1.79151">
        <ele>1584.5999755859</ele>
        <time>2023-07-20T04:41:22.000Z</time>
      </trkpt>
      <trkpt lat="42.5907" lon="1.79149">
        <ele>1584.5999755859</ele>
        <time>2023-07-20T04:41:29.000Z</time>
      </trkpt>
      <trkpt lat="42.59071" lon="1.79147">
        <ele>1584.8000488281</ele>
        <time>2023-07-20T04:41:32.000Z</time>
      </trkpt>
      <trkpt lat="42.59071" lon="1.79146">
        <ele>1585.4000244141</ele>
        <time>2023-07-20T04:41:37.000Z</time>
      </trkpt>
      <trkpt lat="42.59074" lon="1.79147">
        <ele>1585.8000488281</ele>
        <time>2023-07-20T04:41:44.000Z</time>
      </trkpt>
      <trkpt lat="42.59074" lon="1.79147">
        <ele>1586</ele>
        <time>2023-07-20T04:41:45.000Z</time>
      </trkpt>
      <trkpt lat="42.59079" lon="1.79148">
        <ele>1587</ele>
        <time>2023-07-20T04:41:54.000Z</time>
      </trkpt>
      <trkpt lat="42.59082" lon="1.79148">
        <ele>1587.8000488281</ele>
        <time>2023-07-20T04:42:00.000Z</time>
      </trkpt>
      <trkpt lat="42.59084" lon="1.79149">
        <ele>1588</ele>
        <time>2023-07-20T04:42:02.000Z</time>
      </trkpt>
      <trkpt lat="42.59089" lon="1.7915">
        <ele>1588.5999755859</ele>
        <time>2023-07-20T04:42:08.000Z</time>
      </trkpt>
      <trkpt lat="42.5909" lon="1.79151">
        <ele>1589</ele>
        <time>2023-07-20T04:42:11.000Z</time>
      </trkpt>
      <trkpt lat="42.59091" lon="1.79152">
        <ele>1589.4000244141</ele>
        <time>2023-07-20T04:42:14.000Z</time>
      </trkpt>
      <trkpt lat="42.59096" lon="1.7915">
        <ele>1590.1999511719</ele>
        <time>2023-07-20T04:42:21.000Z</time>
      </trkpt>
      <trkpt lat="42.59097" lon="1.79149">
        <ele>1590.4000244141</ele>
        <time>2023-07-20T04:42:23.000Z</time>
      </trkpt>
      <trkpt lat="42.59098" lon="1.79143">
        <ele>1591.1999511719</ele>
        <time>2023-07-20T04:42:31.000Z</time>
      </trkpt>
      <trkpt lat="42.59093" lon="1.79139">
        <ele>1591.1999511719</ele>
        <time>2023-07-20T04:42:32.000Z</time>
      </trkpt>
      <trkpt lat="42.5909" lon="1.79133">
        <ele>1592.1999511719</ele>
        <time>2023-07-20T04:42:37.000Z</time>
      </trkpt>
      <trkpt lat="42.5909" lon="1.7913">
        <ele>1592.4000244141</ele>
        <time>2023-07-20T04:42:39.000Z</time>
      </trkpt>
      <trkpt lat="42.59088" lon="1.79122">
        <ele>1593.4000244141</ele>
        <time>2023-07-20T04:42:47.000Z</time>
      </trkpt>
      <trkpt lat="42.59086" lon="1.79115">
        <ele>1594.1999511719</ele>
        <time>2023-07-20T04:42:55.000Z</time>
      </trkpt>
      <trkpt lat="42.59086" lon="1.79115">
        <ele>1594.4000244141</ele>
        <time>2023-07-20T04:42:56.000Z</time>
      </trkpt>
      <trkpt lat="42.59084" lon="1.79111">
        <ele>1595</ele>
        <time>2023-07-20T04:43:01.000Z</time>
      </trkpt>
      <trkpt lat="42.59082" lon="1.79109">
        <ele>1595.4000244141</ele>
        <time>2023-07-20T04:43:04.000Z</time>
      </trkpt>
      <trkpt lat="42.59078" lon="1.79109">
        <ele>1596.1999511719</ele>
        <time>2023-07-20T04:43:12.000Z</time>
      </trkpt>
      <trkpt lat="42.59077" lon="1.79109">
        <ele>1596.4000244141</ele>
        <time>2023-07-20T04:43:14.000Z</time>
      </trkpt>
      <trkpt lat="42.59074" lon="1.79107">
        <ele>1596.8000488281</ele>
        <time>2023-07-20T04:43:21.000Z</time>
      </trkpt>
      <trkpt lat="42.59068" lon="1.79112">
        <ele>1597.4000244141</ele>
        <time>2023-07-20T04:43:24.000Z</time>
      </trkpt>
      <trkpt lat="42.59066" lon="1.79111">
        <ele>1597.8000488281</ele>
        <time>2023-07-20T04:43:27.000Z</time>
      </trkpt>
      <trkpt lat="42.59062" lon="1.7911">
        <ele>1598.5999755859</ele>
        <time>2023-07-20T04:43:33.000Z</time>
      </trkpt>
      <trkpt lat="42.59061" lon="1.7911">
        <ele>1598.8000488281</ele>
        <time>2023-07-20T04:43:35.000Z</time>
      </trkpt>
      <trkpt lat="42.59061" lon="1.79112">
        <ele>1599.5999755859</ele>
        <time>2023-07-20T04:43:41.000Z</time>
      </trkpt>
      <trkpt lat="42.59061" lon="1.79112">
        <ele>1599.8000488281</ele>
        <time>2023-07-20T04:43:43.000Z</time>
      </trkpt>
      <trkpt lat="42.59061" lon="1.79112">
        <ele>1601.4000244141</ele>
        <time>2023-07-20T04:43:55.000Z</time>
      </trkpt>
      <trkpt lat="42.59063" lon="1.79109">
        <ele>1601.5999755859</ele>
        <time>2023-07-20T04:43:59.000Z</time>
      </trkpt>
      <trkpt lat="42.59064" lon="1.79108">
        <ele>1602</ele>
        <time>2023-07-20T04:44:02.000Z</time>
      </trkpt>
      <trkpt lat="42.59069" lon="1.79105">
        <ele>1602.5999755859</ele>
        <time>2023-07-20T04:44:09.000Z</time>
      </trkpt>
      <trkpt lat="42.5907" lon="1.79105">
        <ele>1602.8000488281</ele>
        <time>2023-07-20T04:44:10.000Z</time>
      </trkpt>
      <trkpt lat="42.59074" lon="1.791">
        <ele>1603.8000488281</ele>
        <time>2023-07-20T04:44:18.000Z</time>
      </trkpt>
      <trkpt lat="42.59074" lon="1.79098">
        <ele>1604</ele>
        <time>2023-07-20T04:44:20.000Z</time>
      </trkpt>
      <trkpt lat="42.59069" lon="1.79096">
        <ele>1604.5999755859</ele>
        <time>2023-07-20T04:44:27.000Z</time>
      </trkpt>
      <trkpt lat="42.59067" lon="1.79094">
        <ele>1604.8000488281</ele>
        <time>2023-07-20T04:44:30.000Z</time>
      </trkpt>
      <trkpt lat="42.59057" lon="1.79083">
        <ele>1607</ele>
        <time>2023-07-20T04:45:04.000Z</time>
      </trkpt>
      <trkpt lat="42.59056" lon="1.79087">
        <ele>1607</ele>
        <time>2023-07-20T04:45:08.000Z</time>
      </trkpt>
      <trkpt lat="42.59057" lon="1.79089">
        <ele>1606.8000488281</ele>
        <time>2023-07-20T04:45:15.000Z</time>
      </trkpt>
      <trkpt lat="42.59056" lon="1.79087">
        <ele>1606.4000244141</ele>
        <time>2023-07-20T04:45:24.000Z</time>
      </trkpt>
      <trkpt lat="42.59057" lon="1.79085">
        <ele>1606.4000244141</ele>
        <time>2023-07-20T04:45:30.000Z</time>
      </trkpt>
      <trkpt lat="42.59061" lon="1.79083">
        <ele>1607</ele>
        <time>2023-07-20T04:45:37.000Z</time>
      </trkpt>
      <trkpt lat="42.59065" lon="1.79078">
        <ele>1608</ele>
        <time>2023-07-20T04:45:46.000Z</time>
      </trkpt>
      <trkpt lat="42.59064" lon="1.79073">
        <ele>1608.5999755859</ele>
        <time>2023-07-20T04:45:52.000Z</time>
      </trkpt>
      <trkpt lat="42.59062" lon="1.79072">
        <ele>1609.1999511719</ele>
        <time>2023-07-20T04:45:55.000Z</time>
      </trkpt>
      <trkpt lat="42.59061" lon="1.79072">
        <ele>1609.5999755859</ele>
        <time>2023-07-20T04:45:58.000Z</time>
      </trkpt>
      <trkpt lat="42.59059" lon="1.79071">
        <ele>1610.4000244141</ele>
        <time>2023-07-20T04:46:03.000Z</time>
      </trkpt>
      <trkpt lat="42.59054" lon="1.79069">
        <ele>1611</ele>
        <time>2023-07-20T04:46:08.000Z</time>
      </trkpt>
      <trkpt lat="42.59053" lon="1.79069">
        <ele>1611.4000244141</ele>
        <time>2023-07-20T04:46:11.000Z</time>
      </trkpt>
      <trkpt lat="42.5905" lon="1.79068">
        <ele>1612</ele>
        <time>2023-07-20T04:46:15.000Z</time>
      </trkpt>
      <trkpt lat="42.59048" lon="1.79066">
        <ele>1612.8000488281</ele>
        <time>2023-07-20T04:46:20.000Z</time>
      </trkpt>
      <trkpt lat="42.59047" lon="1.79066">
        <ele>1613</ele>
        <time>2023-07-20T04:46:22.000Z</time>
      </trkpt>
      <trkpt lat="42.59045" lon="1.79063">
        <ele>1613.8000488281</ele>
        <time>2023-07-20T04:46:28.000Z</time>
      </trkpt>
      <trkpt lat="42.59042" lon="1.79058">
        <ele>1614.5999755859</ele>
        <time>2023-07-20T04:46:36.000Z</time>
      </trkpt>
      <trkpt lat="42.59043" lon="1.79058">
        <ele>1614.8000488281</ele>
        <time>2023-07-20T04:46:37.000Z</time>
      </trkpt>
      <trkpt lat="42.59046" lon="1.79057">
        <ele>1616</ele>
        <time>2023-07-20T04:46:44.000Z</time>
      </trkpt>
      <trkpt lat="42.59047" lon="1.79057">
        <ele>1616.1999511719</ele>
        <time>2023-07-20T04:46:45.000Z</time>
      </trkpt>
      <trkpt lat="42.5905" lon="1.79054">
        <ele>1617.1999511719</ele>
        <time>2023-07-20T04:46:52.000Z</time>
      </trkpt>
      <trkpt lat="42.5905" lon="1.79053">
        <ele>1617.5999755859</ele>
        <time>2023-07-20T04:46:54.000Z</time>
      </trkpt>
      <trkpt lat="42.59054" lon="1.79052">
        <ele>1618.1999511719</ele>
        <time>2023-07-20T04:47:00.000Z</time>
      </trkpt>
      <trkpt lat="42.59055" lon="1.79052">
        <ele>1618.5999755859</ele>
        <time>2023-07-20T04:47:02.000Z</time>
      </trkpt>
      <trkpt lat="42.59058" lon="1.7905">
        <ele>1619.1999511719</ele>
        <time>2023-07-20T04:47:08.000Z</time>
      </trkpt>
      <trkpt lat="42.59059" lon="1.79048">
        <ele>1619.4000244141</ele>
        <time>2023-07-20T04:47:11.000Z</time>
      </trkpt>
      <trkpt lat="42.59062" lon="1.79043">
        <ele>1620.4000244141</ele>
        <time>2023-07-20T04:47:17.000Z</time>
      </trkpt>
      <trkpt lat="42.59063" lon="1.7904">
        <ele>1620.5999755859</ele>
        <time>2023-07-20T04:47:20.000Z</time>
      </trkpt>
      <trkpt lat="42.59067" lon="1.79036">
        <ele>1621.4000244141</ele>
        <time>2023-07-20T04:47:26.000Z</time>
      </trkpt>
      <trkpt lat="42.59068" lon="1.79034">
        <ele>1621.5999755859</ele>
        <time>2023-07-20T04:47:28.000Z</time>
      </trkpt>
      <trkpt lat="42.59069" lon="1.79031">
        <ele>1622.5999755859</ele>
        <time>2023-07-20T04:47:33.000Z</time>
      </trkpt>
      <trkpt lat="42.59069" lon="1.7903">
        <ele>1622.8000488281</ele>
        <time>2023-07-20T04:47:36.000Z</time>
      </trkpt>
      <trkpt lat="42.5907" lon="1.79027">
        <ele>1623.1999511719</ele>
        <time>2023-07-20T04:47:44.000Z</time>
      </trkpt>
      <trkpt lat="42.59074" lon="1.79021">
        <ele>1623.5999755859</ele>
        <time>2023-07-20T04:47:50.000Z</time>
      </trkpt>
      <trkpt lat="42.59075" lon="1.7902">
        <ele>1623.5999755859</ele>
        <time>2023-07-20T04:47:51.000Z</time>
      </trkpt>
      <trkpt lat="42.5908" lon="1.79013">
        <ele>1624.5999755859</ele>
        <time>2023-07-20T04:47:59.000Z</time>
      </trkpt>
      <trkpt lat="42.59081" lon="1.79011">
        <ele>1624.8000488281</ele>
        <time>2023-07-20T04:48:01.000Z</time>
      </trkpt>
      <trkpt lat="42.59083" lon="1.79005">
        <ele>1625.5999755859</ele>
        <time>2023-07-20T04:48:10.000Z</time>
      </trkpt>
      <trkpt lat="42.59083" lon="1.79001">
        <ele>1626.4000244141</ele>
        <time>2023-07-20T04:48:16.000Z</time>
      </trkpt>
      <trkpt lat="42.59084" lon="1.78999">
        <ele>1626.8000488281</ele>
        <time>2023-07-20T04:48:18.000Z</time>
      </trkpt>
      <trkpt lat="42.59085" lon="1.78996">
        <ele>1627.4000244141</ele>
        <time>2023-07-20T04:48:25.000Z</time>
      </trkpt>
      <trkpt lat="42.59085" lon="1.78995">
        <ele>1627.8000488281</ele>
        <time>2023-07-20T04:48:28.000Z</time>
      </trkpt>
      <trkpt lat="42.59085" lon="1.78992">
        <ele>1628.4000244141</ele>
        <time>2023-07-20T04:48:31.000Z</time>
      </trkpt>
      <trkpt lat="42.59085" lon="1.78989">
        <ele>1629</ele>
        <time>2023-07-20T04:48:34.000Z</time>
      </trkpt>
      <trkpt lat="42.59085" lon="1.78989">
        <ele>1629.5999755859</ele>
        <time>2023-07-20T04:48:39.000Z</time>
      </trkpt>
      <trkpt lat="42.59083" lon="1.78987">
        <ele>1630</ele>
        <time>2023-07-20T04:48:43.000Z</time>
      </trkpt>
      <trkpt lat="42.59082" lon="1.78985">
        <ele>1630.5999755859</ele>
        <time>2023-07-20T04:48:47.000Z</time>
      </trkpt>
      <trkpt lat="42.59082" lon="1.78983">
        <ele>1631</ele>
        <time>2023-07-20T04:48:50.000Z</time>
      </trkpt>
      <trkpt lat="42.59084" lon="1.7898">
        <ele>1631.5999755859</ele>
        <time>2023-07-20T04:48:54.000Z</time>
      </trkpt>
      <trkpt lat="42.59086" lon="1.78978">
        <ele>1632</ele>
        <time>2023-07-20T04:48:57.000Z</time>
      </trkpt>
      <trkpt lat="42.59088" lon="1.78972">
        <ele>1633</ele>
        <time>2023-07-20T04:49:03.000Z</time>
      </trkpt>
      <trkpt lat="42.59088" lon="1.78971">
        <ele>1633.1999511719</ele>
        <time>2023-07-20T04:49:05.000Z</time>
      </trkpt>
      <trkpt lat="42.59089" lon="1.78967">
        <ele>1634.4000244141</ele>
        <time>2023-07-20T04:49:12.000Z</time>
      </trkpt>
      <trkpt lat="42.59089" lon="1.78962">
        <ele>1635.4000244141</ele>
        <time>2023-07-20T04:49:19.000Z</time>
      </trkpt>
      <trkpt lat="42.59089" lon="1.78962">
        <ele>1635.5999755859</ele>
        <time>2023-07-20T04:49:20.000Z</time>
      </trkpt>
      <trkpt lat="42.59086" lon="1.78961">
        <ele>1636.5999755859</ele>
        <time>2023-07-20T04:49:26.000Z</time>
      </trkpt>
      <trkpt lat="42.59085" lon="1.78962">
        <ele>1637</ele>
        <time>2023-07-20T04:49:28.000Z</time>
      </trkpt>
      <trkpt lat="42.59083" lon="1.78963">
        <ele>1637.5999755859</ele>
        <time>2023-07-20T04:49:33.000Z</time>
      </trkpt>
      <trkpt lat="42.59083" lon="1.7896">
        <ele>1638.1999511719</ele>
        <time>2023-07-20T04:49:36.000Z</time>
      </trkpt>
      <trkpt lat="42.59084" lon="1.78954">
        <ele>1638.8000488281</ele>
        <time>2023-07-20T04:49:40.000Z</time>
      </trkpt>
      <trkpt lat="42.59084" lon="1.78952">
        <ele>1639.4000244141</ele>
        <time>2023-07-20T04:49:44.000Z</time>
      </trkpt>
      <trkpt lat="42.59084" lon="1.78948">
        <ele>1639.8000488281</ele>
        <time>2023-07-20T04:49:50.000Z</time>
      </trkpt>
      <trkpt lat="42.59085" lon="1.78946">
        <ele>1640.1999511719</ele>
        <time>2023-07-20T04:49:53.000Z</time>
      </trkpt>
      <trkpt lat="42.59086" lon="1.78939">
        <ele>1640.8000488281</ele>
        <time>2023-07-20T04:50:00.000Z</time>
      </trkpt>
      <trkpt lat="42.59087" lon="1.78939">
        <ele>1641.1999511719</ele>
        <time>2023-07-20T04:50:02.000Z</time>
      </trkpt>
      <trkpt lat="42.59088" lon="1.78935">
        <ele>1642</ele>
        <time>2023-07-20T04:50:09.000Z</time>
      </trkpt>
      <trkpt lat="42.59089" lon="1.78935">
        <ele>1642</ele>
        <time>2023-07-20T04:50:11.000Z</time>
      </trkpt>
      <trkpt lat="42.5909" lon="1.78935">
        <ele>1642.1999511719</ele>
        <time>2023-07-20T04:50:19.000Z</time>
      </trkpt>
      <trkpt lat="42.59085" lon="1.78931">
        <ele>1642.1999511719</ele>
        <time>2023-07-20T04:50:29.000Z</time>
      </trkpt>
      <trkpt lat="42.59085" lon="1.78931">
        <ele>1642.4000244141</ele>
        <time>2023-07-20T04:50:35.000Z</time>
      </trkpt>
      <trkpt lat="42.59086" lon="1.78927">
        <ele>1643</ele>
        <time>2023-07-20T04:50:40.000Z</time>
      </trkpt>
      <trkpt lat="42.59086" lon="1.78926">
        <ele>1643.1999511719</ele>
        <time>2023-07-20T04:50:41.000Z</time>
      </trkpt>
      <trkpt lat="42.59086" lon="1.78929">
        <ele>1643.8000488281</ele>
        <time>2023-07-20T04:50:46.000Z</time>
      </trkpt>
      <trkpt lat="42.59086" lon="1.7893">
        <ele>1644</ele>
        <time>2023-07-20T04:50:47.000Z</time>
      </trkpt>
      <trkpt lat="42.59082" lon="1.78934">
        <ele>1645.5999755859</ele>
        <time>2023-07-20T04:50:57.000Z</time>
      </trkpt>
      <trkpt lat="42.59082" lon="1.78934">
        <ele>1646.1999511719</ele>
        <time>2023-07-20T04:51:03.000Z</time>
      </trkpt>
      <trkpt lat="42.59086" lon="1.78932">
        <ele>1646.1999511719</ele>
        <time>2023-07-20T04:51:08.000Z</time>
      </trkpt>
      <trkpt lat="42.59079" lon="1.78931">
        <ele>1647.1999511719</ele>
        <time>2023-07-20T04:51:32.000Z</time>
      </trkpt>
      <trkpt lat="42.59078" lon="1.78928">
        <ele>1648.1999511719</ele>
        <time>2023-07-20T04:51:37.000Z</time>
      </trkpt>
      <trkpt lat="42.59076" lon="1.78927">
        <ele>1648.5999755859</ele>
        <time>2023-07-20T04:51:40.000Z</time>
      </trkpt>
      <trkpt lat="42.59077" lon="1.7893">
        <ele>1649</ele>
        <time>2023-07-20T04:51:46.000Z</time>
      </trkpt>
      <trkpt lat="42.59078" lon="1.7893">
        <ele>1649</ele>
        <time>2023-07-20T04:51:48.000Z</time>
      </trkpt>
      <trkpt lat="42.59081" lon="1.78926">
        <ele>1649</ele>
        <time>2023-07-20T04:51:54.000Z</time>
      </trkpt>
      <trkpt lat="42.59083" lon="1.78922">
        <ele>1649.4000244141</ele>
        <time>2023-07-20T04:52:00.000Z</time>
      </trkpt>
      <trkpt lat="42.59083" lon="1.7892">
        <ele>1649.5999755859</ele>
        <time>2023-07-20T04:52:02.000Z</time>
      </trkpt>
      <trkpt lat="42.59085" lon="1.78915">
        <ele>1650.4000244141</ele>
        <time>2023-07-20T04:52:07.000Z</time>
      </trkpt>
      <trkpt lat="42.59086" lon="1.78913">
        <ele>1650.5999755859</ele>
        <time>2023-07-20T04:52:09.000Z</time>
      </trkpt>
      <trkpt lat="42.59088" lon="1.78908">
        <ele>1651.4000244141</ele>
        <time>2023-07-20T04:52:15.000Z</time>
      </trkpt>
      <trkpt lat="42.59088" lon="1.78907">
        <ele>1651.5999755859</ele>
        <time>2023-07-20T04:52:16.000Z</time>
      </trkpt>
      <trkpt lat="42.59086" lon="1.78903">
        <ele>1652.4000244141</ele>
        <time>2023-07-20T04:52:22.000Z</time>
      </trkpt>
      <trkpt lat="42.59085" lon="1.78903">
        <ele>1652.5999755859</ele>
        <time>2023-07-20T04:52:23.000Z</time>
      </trkpt>
      <trkpt lat="42.59083" lon="1.78905">
        <ele>1653.5999755859</ele>
        <time>2023-07-20T04:52:29.000Z</time>
      </trkpt>
      <trkpt lat="42.59081" lon="1.78905">
        <ele>1654.5999755859</ele>
        <time>2023-07-20T04:52:36.000Z</time>
      </trkpt>
      <trkpt lat="42.59081" lon="1.78904">
        <ele>1654.8000488281</ele>
        <time>2023-07-20T04:52:37.000Z</time>
      </trkpt>
      <trkpt lat="42.5908" lon="1.78906">
        <ele>1655.5999755859</ele>
        <time>2023-07-20T04:52:44.000Z</time>
      </trkpt>
      <trkpt lat="42.5908" lon="1.78907">
        <ele>1655.8000488281</ele>
        <time>2023-07-20T04:52:46.000Z</time>
      </trkpt>
      <trkpt lat="42.59076" lon="1.78907">
        <ele>1657</ele>
        <time>2023-07-20T04:52:52.000Z</time>
      </trkpt>
      <trkpt lat="42.59075" lon="1.78906">
        <ele>1657.1999511719</ele>
        <time>2023-07-20T04:52:54.000Z</time>
      </trkpt>
      <trkpt lat="42.59076" lon="1.78902">
        <ele>1657.8000488281</ele>
        <time>2023-07-20T04:52:59.000Z</time>
      </trkpt>
      <trkpt lat="42.59076" lon="1.78901">
        <ele>1658</ele>
        <time>2023-07-20T04:53:00.000Z</time>
      </trkpt>
      <trkpt lat="42.59076" lon="1.78898">
        <ele>1659</ele>
        <time>2023-07-20T04:53:07.000Z</time>
      </trkpt>
      <trkpt lat="42.59075" lon="1.78896">
        <ele>1659.1999511719</ele>
        <time>2023-07-20T04:53:08.000Z</time>
      </trkpt>
      <trkpt lat="42.59073" lon="1.78894">
        <ele>1660.1999511719</ele>
        <time>2023-07-20T04:53:14.000Z</time>
      </trkpt>
      <trkpt lat="42.59074" lon="1.78893">
        <ele>1660.4000244141</ele>
        <time>2023-07-20T04:53:17.000Z</time>
      </trkpt>
      <trkpt lat="42.59076" lon="1.78887">
        <ele>1661.1999511719</ele>
        <time>2023-07-20T04:53:24.000Z</time>
      </trkpt>
      <trkpt lat="42.59076" lon="1.78887">
        <ele>1661.5999755859</ele>
        <time>2023-07-20T04:53:25.000Z</time>
      </trkpt>
      <trkpt lat="42.59079" lon="1.78884">
        <ele>1662.4000244141</ele>
        <time>2023-07-20T04:53:31.000Z</time>
      </trkpt>
      <trkpt lat="42.5908" lon="1.78882">
        <ele>1662.5999755859</ele>
        <time>2023-07-20T04:53:33.000Z</time>
      </trkpt>
      <trkpt lat="42.59079" lon="1.78878">
        <ele>1663.5999755859</ele>
        <time>2023-07-20T04:53:39.000Z</time>
      </trkpt>
      <trkpt lat="42.59079" lon="1.78876">
        <ele>1663.8000488281</ele>
        <time>2023-07-20T04:53:41.000Z</time>
      </trkpt>
      <trkpt lat="42.59079" lon="1.78874">
        <ele>1664.5999755859</ele>
        <time>2023-07-20T04:53:46.000Z</time>
      </trkpt>
      <trkpt lat="42.59077" lon="1.78871">
        <ele>1665.1999511719</ele>
        <time>2023-07-20T04:53:50.000Z</time>
      </trkpt>
      <trkpt lat="42.59077" lon="1.7887">
        <ele>1665.5999755859</ele>
        <time>2023-07-20T04:53:53.000Z</time>
      </trkpt>
      <trkpt lat="42.59077" lon="1.78869">
        <ele>1666.1999511719</ele>
        <time>2023-07-20T04:53:58.000Z</time>
      </trkpt>
      <trkpt lat="42.59077" lon="1.78865">
        <ele>1666.8000488281</ele>
        <time>2023-07-20T04:54:03.000Z</time>
      </trkpt>
      <trkpt lat="42.59077" lon="1.78865">
        <ele>1667.1999511719</ele>
        <time>2023-07-20T04:54:05.000Z</time>
      </trkpt>
      <trkpt lat="42.59072" lon="1.78863">
        <ele>1668</ele>
        <time>2023-07-20T04:54:10.000Z</time>
      </trkpt>
      <trkpt lat="42.5907" lon="1.78861">
        <ele>1668.4000244141</ele>
        <time>2023-07-20T04:54:13.000Z</time>
      </trkpt>
      <trkpt lat="42.59072" lon="1.78859">
        <ele>1669.1999511719</ele>
        <time>2023-07-20T04:54:18.000Z</time>
      </trkpt>
      <trkpt lat="42.59073" lon="1.78857">
        <ele>1669.5999755859</ele>
        <time>2023-07-20T04:54:21.000Z</time>
      </trkpt>
      <trkpt lat="42.59072" lon="1.78854">
        <ele>1670.1999511719</ele>
        <time>2023-07-20T04:54:26.000Z</time>
      </trkpt>
      <trkpt lat="42.59072" lon="1.78854">
        <ele>1670.5999755859</ele>
        <time>2023-07-20T04:54:28.000Z</time>
      </trkpt>
      <trkpt lat="42.59072" lon="1.78854">
        <ele>1671.4000244141</ele>
        <time>2023-07-20T04:54:32.000Z</time>
      </trkpt>
      <trkpt lat="42.59071" lon="1.78853">
        <ele>1671.8000488281</ele>
        <time>2023-07-20T04:54:35.000Z</time>
      </trkpt>
      <trkpt lat="42.59067" lon="1.7885">
        <ele>1672.4000244141</ele>
        <time>2023-07-20T04:54:40.000Z</time>
      </trkpt>
      <trkpt lat="42.59067" lon="1.7885">
        <ele>1672.5999755859</ele>
        <time>2023-07-20T04:54:41.000Z</time>
      </trkpt>
      <trkpt lat="42.59062" lon="1.78853">
        <ele>1673.5999755859</ele>
        <time>2023-07-20T04:54:48.000Z</time>
      </trkpt>
      <trkpt lat="42.59061" lon="1.78853">
        <ele>1673.5999755859</ele>
        <time>2023-07-20T04:54:49.000Z</time>
      </trkpt>
      <trkpt lat="42.59059" lon="1.78858">
        <ele>1674.8000488281</ele>
        <time>2023-07-20T04:54:58.000Z</time>
      </trkpt>
      <trkpt lat="42.59058" lon="1.78863">
        <ele>1675.4000244141</ele>
        <time>2023-07-20T04:55:05.000Z</time>
      </trkpt>
      <trkpt lat="42.59057" lon="1.78863">
        <ele>1675.8000488281</ele>
        <time>2023-07-20T04:55:08.000Z</time>
      </trkpt>
      <trkpt lat="42.59058" lon="1.78863">
        <ele>1676</ele>
        <time>2023-07-20T04:55:12.000Z</time>
      </trkpt>
      <trkpt lat="42.59054" lon="1.78864">
        <ele>1675.8000488281</ele>
        <time>2023-07-20T04:55:20.000Z</time>
      </trkpt>
      <trkpt lat="42.5905" lon="1.78868">
        <ele>1676</ele>
        <time>2023-07-20T04:55:29.000Z</time>
      </trkpt>
      <trkpt lat="42.59048" lon="1.78877">
        <ele>1676.8000488281</ele>
        <time>2023-07-20T04:55:37.000Z</time>
      </trkpt>
      <trkpt lat="42.59048" lon="1.78872">
        <ele>1677.5999755859</ele>
        <time>2023-07-20T04:55:43.000Z</time>
      </trkpt>
      <trkpt lat="42.59048" lon="1.78869">
        <ele>1678</ele>
        <time>2023-07-20T04:55:46.000Z</time>
      </trkpt>
      <trkpt lat="42.59047" lon="1.78864">
        <ele>1678.8000488281</ele>
        <time>2023-07-20T04:55:52.000Z</time>
      </trkpt>
      <trkpt lat="42.59047" lon="1.78863">
        <ele>1679</ele>
        <time>2023-07-20T04:55:54.000Z</time>
      </trkpt>
      <trkpt lat="42.59047" lon="1.78859">
        <ele>1680.1999511719</ele>
        <time>2023-07-20T04:56:00.000Z</time>
      </trkpt>
      <trkpt lat="42.59047" lon="1.78859">
        <ele>1680.1999511719</ele>
        <time>2023-07-20T04:56:01.000Z</time>
      </trkpt>
      <trkpt lat="42.59047" lon="1.78858">
        <ele>1681.1999511719</ele>
        <time>2023-07-20T04:56:07.000Z</time>
      </trkpt>
      <trkpt lat="42.59047" lon="1.78857">
        <ele>1681.4000244141</ele>
        <time>2023-07-20T04:56:08.000Z</time>
      </trkpt>
      <trkpt lat="42.59044" lon="1.78851">
        <ele>1682.1999511719</ele>
        <time>2023-07-20T04:56:16.000Z</time>
      </trkpt>
      <trkpt lat="42.59044" lon="1.7885">
        <ele>1682.4000244141</ele>
        <time>2023-07-20T04:56:18.000Z</time>
      </trkpt>
      <trkpt lat="42.59043" lon="1.78846">
        <ele>1683.4000244141</ele>
        <time>2023-07-20T04:56:24.000Z</time>
      </trkpt>
      <trkpt lat="42.59042" lon="1.78845">
        <ele>1683.5999755859</ele>
        <time>2023-07-20T04:56:25.000Z</time>
      </trkpt>
      <trkpt lat="42.59039" lon="1.7884">
        <ele>1684.4000244141</ele>
        <time>2023-07-20T04:56:33.000Z</time>
      </trkpt>
      <trkpt lat="42.5904" lon="1.78839">
        <ele>1684.8000488281</ele>
        <time>2023-07-20T04:56:35.000Z</time>
      </trkpt>
      <trkpt lat="42.59039" lon="1.78833">
        <ele>1685.5999755859</ele>
        <time>2023-07-20T04:56:41.000Z</time>
      </trkpt>
      <trkpt lat="42.59039" lon="1.78831">
        <ele>1685.8000488281</ele>
        <time>2023-07-20T04:56:43.000Z</time>
      </trkpt>
      <trkpt lat="42.59039" lon="1.78827">
        <ele>1686.5999755859</ele>
        <time>2023-07-20T04:56:50.000Z</time>
      </trkpt>
      <trkpt lat="42.59039" lon="1.78826">
        <ele>1687</ele>
        <time>2023-07-20T04:56:52.000Z</time>
      </trkpt>
      <trkpt lat="42.59038" lon="1.78825">
        <ele>1688</ele>
        <time>2023-07-20T04:56:59.000Z</time>
      </trkpt>
      <trkpt lat="42.59038" lon="1.78824">
        <ele>1688</ele>
        <time>2023-07-20T04:57:00.000Z</time>
      </trkpt>
      <trkpt lat="42.59037" lon="1.78819">
        <ele>1689</ele>
        <time>2023-07-20T04:57:07.000Z</time>
      </trkpt>
      <trkpt lat="42.59037" lon="1.78818">
        <ele>1689.1999511719</ele>
        <time>2023-07-20T04:57:08.000Z</time>
      </trkpt>
      <trkpt lat="42.59035" lon="1.78812">
        <ele>1689.8000488281</ele>
        <time>2023-07-20T04:57:18.000Z</time>
      </trkpt>
      <trkpt lat="42.59035" lon="1.78811">
        <ele>1690.1999511719</ele>
        <time>2023-07-20T04:57:20.000Z</time>
      </trkpt>
      <trkpt lat="42.59034" lon="1.78804">
        <ele>1690.5999755859</ele>
        <time>2023-07-20T04:57:26.000Z</time>
      </trkpt>
      <trkpt lat="42.59034" lon="1.78803">
        <ele>1691.1999511719</ele>
        <time>2023-07-20T04:57:30.000Z</time>
      </trkpt>
      <trkpt lat="42.59033" lon="1.78801">
        <ele>1691.5999755859</ele>
        <time>2023-07-20T04:57:34.000Z</time>
      </trkpt>
      <trkpt lat="42.59036" lon="1.78798">
        <ele>1692.1999511719</ele>
        <time>2023-07-20T04:57:40.000Z</time>
      </trkpt>
      <trkpt lat="42.59037" lon="1.78797">
        <ele>1692.5999755859</ele>
        <time>2023-07-20T04:57:42.000Z</time>
      </trkpt>
      <trkpt lat="42.59037" lon="1.78794">
        <ele>1693.4000244141</ele>
        <time>2023-07-20T04:57:48.000Z</time>
      </trkpt>
      <trkpt lat="42.59035" lon="1.78794">
        <ele>1693.4000244141</ele>
        <time>2023-07-20T04:57:50.000Z</time>
      </trkpt>
      <trkpt lat="42.59029" lon="1.78796">
        <ele>1693.8000488281</ele>
        <time>2023-07-20T04:57:56.000Z</time>
      </trkpt>
      <trkpt lat="42.59024" lon="1.78802">
        <ele>1694.4000244141</ele>
        <time>2023-07-20T04:58:04.000Z</time>
      </trkpt>
      <trkpt lat="42.59023" lon="1.78803">
        <ele>1694.5999755859</ele>
        <time>2023-07-20T04:58:05.000Z</time>
      </trkpt>
      <trkpt lat="42.59019" lon="1.7881">
        <ele>1695.5999755859</ele>
        <time>2023-07-20T04:58:13.000Z</time>
      </trkpt>
      <trkpt lat="42.59018" lon="1.78816">
        <ele>1696.5999755859</ele>
        <time>2023-07-20T04:58:22.000Z</time>
      </trkpt>
      <trkpt lat="42.59019" lon="1.78817">
        <ele>1696.8000488281</ele>
        <time>2023-07-20T04:58:30.000Z</time>
      </trkpt>
      <trkpt lat="42.59017" lon="1.78819">
        <ele>1696.8000488281</ele>
        <time>2023-07-20T04:58:38.000Z</time>
      </trkpt>
      <trkpt lat="42.59017" lon="1.78817">
        <ele>1696.8000488281</ele>
        <time>2023-07-20T04:58:45.000Z</time>
      </trkpt>
      <trkpt lat="42.59017" lon="1.78809">
        <ele>1697.8000488281</ele>
        <time>2023-07-20T04:58:53.000Z</time>
      </trkpt>
      <trkpt lat="42.59017" lon="1.78807">
        <ele>1697.8000488281</ele>
        <time>2023-07-20T04:58:54.000Z</time>
      </trkpt>
      <trkpt lat="42.59017" lon="1.78799">
        <ele>1698.5999755859</ele>
        <time>2023-07-20T04:59:02.000Z</time>
      </trkpt>
      <trkpt lat="42.59017" lon="1.78799">
        <ele>1698.8000488281</ele>
        <time>2023-07-20T04:59:04.000Z</time>
      </trkpt>
      <trkpt lat="42.59019" lon="1.788">
        <ele>1699</ele>
        <time>2023-07-20T04:59:10.000Z</time>
      </trkpt>
      <trkpt lat="42.59017" lon="1.78798">
        <ele>1699</ele>
        <time>2023-07-20T04:59:17.000Z</time>
      </trkpt>
      <trkpt lat="42.59017" lon="1.7879">
        <ele>1699.5999755859</ele>
        <time>2023-07-20T04:59:24.000Z</time>
      </trkpt>
      <trkpt lat="42.59017" lon="1.78787">
        <ele>1700</ele>
        <time>2023-07-20T04:59:27.000Z</time>
      </trkpt>
      <trkpt lat="42.59018" lon="1.78785">
        <ele>1700.5999755859</ele>
        <time>2023-07-20T04:59:31.000Z</time>
      </trkpt>
      <trkpt lat="42.59019" lon="1.78783">
        <ele>1701</ele>
        <time>2023-07-20T04:59:36.000Z</time>
      </trkpt>
      <trkpt lat="42.5902" lon="1.78781">
        <ele>1701.1999511719</ele>
        <time>2023-07-20T04:59:38.000Z</time>
      </trkpt>
      <trkpt lat="42.59022" lon="1.78775">
        <ele>1702</ele>
        <time>2023-07-20T04:59:44.000Z</time>
      </trkpt>
      <trkpt lat="42.59022" lon="1.78773">
        <ele>1702.4000244141</ele>
        <time>2023-07-20T04:59:47.000Z</time>
      </trkpt>
      <trkpt lat="42.59022" lon="1.7877">
        <ele>1703.1999511719</ele>
        <time>2023-07-20T04:59:51.000Z</time>
      </trkpt>
      <trkpt lat="42.5902" lon="1.78768">
        <ele>1703.8000488281</ele>
        <time>2023-07-20T04:59:55.000Z</time>
      </trkpt>
      <trkpt lat="42.59019" lon="1.78766">
        <ele>1704.1999511719</ele>
        <time>2023-07-20T04:59:59.000Z</time>
      </trkpt>
      <trkpt lat="42.59019" lon="1.78762">
        <ele>1705.4000244141</ele>
        <time>2023-07-20T05:00:06.000Z</time>
      </trkpt>
      <trkpt lat="42.5902" lon="1.78762">
        <ele>1705.4000244141</ele>
        <time>2023-07-20T05:00:07.000Z</time>
      </trkpt>
      <trkpt lat="42.59023" lon="1.7876">
        <ele>1706.4000244141</ele>
        <time>2023-07-20T05:00:14.000Z</time>
      </trkpt>
      <trkpt lat="42.59023" lon="1.7876">
        <ele>1706.4000244141</ele>
        <time>2023-07-20T05:00:15.000Z</time>
      </trkpt>
      <trkpt lat="42.5902" lon="1.78754">
        <ele>1707.4000244141</ele>
        <time>2023-07-20T05:00:23.000Z</time>
      </trkpt>
      <trkpt lat="42.5902" lon="1.78751">
        <ele>1708</ele>
        <time>2023-07-20T05:00:27.000Z</time>
      </trkpt>
      <trkpt lat="42.59021" lon="1.78748">
        <ele>1708.4000244141</ele>
        <time>2023-07-20T05:00:30.000Z</time>
      </trkpt>
      <trkpt lat="42.59021" lon="1.78746">
        <ele>1708.5999755859</ele>
        <time>2023-07-20T05:00:32.000Z</time>
      </trkpt>
      <trkpt lat="42.59018" lon="1.78744">
        <ele>1709.5999755859</ele>
        <time>2023-07-20T05:00:39.000Z</time>
      </trkpt>
      <trkpt lat="42.59018" lon="1.78743">
        <ele>1709.8000488281</ele>
        <time>2023-07-20T05:00:40.000Z</time>
      </trkpt>
      <trkpt lat="42.59019" lon="1.78741">
        <ele>1710.8000488281</ele>
        <time>2023-07-20T05:00:47.000Z</time>
      </trkpt>
      <trkpt lat="42.5902" lon="1.78741">
        <ele>1711</ele>
        <time>2023-07-20T05:00:48.000Z</time>
      </trkpt>
      <trkpt lat="42.59022" lon="1.78733">
        <ele>1711.4000244141</ele>
        <time>2023-07-20T05:00:56.000Z</time>
      </trkpt>
      <trkpt lat="42.5902" lon="1.78723">
        <ele>1711.5999755859</ele>
        <time>2023-07-20T05:01:05.000Z</time>
      </trkpt>
      <trkpt lat="42.5902" lon="1.78715">
        <ele>1711.4000244141</ele>
        <time>2023-07-20T05:01:13.000Z</time>
      </trkpt>
      <trkpt lat="42.59019" lon="1.78708">
        <ele>1711.4000244141</ele>
        <time>2023-07-20T05:01:19.000Z</time>
      </trkpt>
      <trkpt lat="42.59018" lon="1.78703">
        <ele>1711.8000488281</ele>
        <time>2023-07-20T05:01:26.000Z</time>
      </trkpt>
      <trkpt lat="42.59016" lon="1.78693">
        <ele>1712.4000244141</ele>
        <time>2023-07-20T05:01:34.000Z</time>
      </trkpt>
      <trkpt lat="42.59013" lon="1.78686">
        <ele>1713</ele>
        <time>2023-07-20T05:01:40.000Z</time>
      </trkpt>
      <trkpt lat="42.59013" lon="1.78684">
        <ele>1713</ele>
        <time>2023-07-20T05:01:43.000Z</time>
      </trkpt>
      <trkpt lat="42.59012" lon="1.78679">
        <ele>1714</ele>
        <time>2023-07-20T05:01:51.000Z</time>
      </trkpt>
      <trkpt lat="42.59011" lon="1.78679">
        <ele>1714.1999511719</ele>
        <time>2023-07-20T05:01:52.000Z</time>
      </trkpt>
      <trkpt lat="42.59008" lon="1.78673">
        <ele>1714.5999755859</ele>
        <time>2023-07-20T05:01:58.000Z</time>
      </trkpt>
      <trkpt lat="42.59006" lon="1.78667">
        <ele>1715.1999511719</ele>
        <time>2023-07-20T05:02:05.000Z</time>
      </trkpt>
      <trkpt lat="42.59006" lon="1.78659">
        <ele>1715.5999755859</ele>
        <time>2023-07-20T05:02:13.000Z</time>
      </trkpt>
      <trkpt lat="42.59007" lon="1.78655">
        <ele>1716.1999511719</ele>
        <time>2023-07-20T05:02:18.000Z</time>
      </trkpt>
      <trkpt lat="42.59006" lon="1.7865">
        <ele>1716.5999755859</ele>
        <time>2023-07-20T05:02:23.000Z</time>
      </trkpt>
      <trkpt lat="42.59005" lon="1.78645">
        <ele>1717.1999511719</ele>
        <time>2023-07-20T05:02:30.000Z</time>
      </trkpt>
      <trkpt lat="42.59005" lon="1.78638">
        <ele>1718</ele>
        <time>2023-07-20T05:02:38.000Z</time>
      </trkpt>
      <trkpt lat="42.59005" lon="1.78635">
        <ele>1718.4000244141</ele>
        <time>2023-07-20T05:02:40.000Z</time>
      </trkpt>
      <trkpt lat="42.59005" lon="1.78632">
        <ele>1719.1999511719</ele>
        <time>2023-07-20T05:02:45.000Z</time>
      </trkpt>
      <trkpt lat="42.59005" lon="1.7863">
        <ele>1719.4000244141</ele>
        <time>2023-07-20T05:02:48.000Z</time>
      </trkpt>
      <trkpt lat="42.59002" lon="1.78627">
        <ele>1720</ele>
        <time>2023-07-20T05:02:52.000Z</time>
      </trkpt>
      <trkpt lat="42.59" lon="1.78623">
        <ele>1720.4000244141</ele>
        <time>2023-07-20T05:02:57.000Z</time>
      </trkpt>
      <trkpt lat="42.58998" lon="1.78618">
        <ele>1720.8000488281</ele>
        <time>2023-07-20T05:03:01.000Z</time>
      </trkpt>
      <trkpt lat="42.58996" lon="1.78611">
        <ele>1720.8000488281</ele>
        <time>2023-07-20T05:03:08.000Z</time>
      </trkpt>
      <trkpt lat="42.58997" lon="1.78599">
        <ele>1721.1999511719</ele>
        <time>2023-07-20T05:03:17.000Z</time>
      </trkpt>
      <trkpt lat="42.58996" lon="1.78591">
        <ele>1721.5999755859</ele>
        <time>2023-07-20T05:03:23.000Z</time>
      </trkpt>
      <trkpt lat="42.58996" lon="1.7859">
        <ele>1721.8000488281</ele>
        <time>2023-07-20T05:03:25.000Z</time>
      </trkpt>
      <trkpt lat="42.58997" lon="1.78583">
        <ele>1722.5999755859</ele>
        <time>2023-07-20T05:03:33.000Z</time>
      </trkpt>
      <trkpt lat="42.58998" lon="1.78581">
        <ele>1722.8000488281</ele>
        <time>2023-07-20T05:03:34.000Z</time>
      </trkpt>
      <trkpt lat="42.58996" lon="1.78575">
        <ele>1723.8000488281</ele>
        <time>2023-07-20T05:03:41.000Z</time>
      </trkpt>
      <trkpt lat="42.58995" lon="1.78573">
        <ele>1724</ele>
        <time>2023-07-20T05:03:43.000Z</time>
      </trkpt>
      <trkpt lat="42.58993" lon="1.78566">
        <ele>1724.8000488281</ele>
        <time>2023-07-20T05:03:50.000Z</time>
      </trkpt>
      <trkpt lat="42.58993" lon="1.78565">
        <ele>1724.8000488281</ele>
        <time>2023-07-20T05:03:51.000Z</time>
      </trkpt>
      <trkpt lat="42.58989" lon="1.78557">
        <ele>1725.5999755859</ele>
        <time>2023-07-20T05:03:59.000Z</time>
      </trkpt>
      <trkpt lat="42.58988" lon="1.78555">
        <ele>1726</ele>
        <time>2023-07-20T05:04:03.000Z</time>
      </trkpt>
      <trkpt lat="42.58985" lon="1.7855">
        <ele>1726.5999755859</ele>
        <time>2023-07-20T05:04:08.000Z</time>
      </trkpt>
      <trkpt lat="42.5898" lon="1.78545">
        <ele>1727</ele>
        <time>2023-07-20T05:04:13.000Z</time>
      </trkpt>
      <trkpt lat="42.58979" lon="1.78544">
        <ele>1727.4000244141</ele>
        <time>2023-07-20T05:04:15.000Z</time>
      </trkpt>
      <trkpt lat="42.58978" lon="1.78543">
        <ele>1728.1999511719</ele>
        <time>2023-07-20T05:04:21.000Z</time>
      </trkpt>
      <trkpt lat="42.58977" lon="1.78542">
        <ele>1728.5999755859</ele>
        <time>2023-07-20T05:04:24.000Z</time>
      </trkpt>
      <trkpt lat="42.58975" lon="1.78539">
        <ele>1729.4000244141</ele>
        <time>2023-07-20T05:04:29.000Z</time>
      </trkpt>
      <trkpt lat="42.58975" lon="1.78536">
        <ele>1730</ele>
        <time>2023-07-20T05:04:34.000Z</time>
      </trkpt>
      <trkpt lat="42.58975" lon="1.78535">
        <ele>1730.4000244141</ele>
        <time>2023-07-20T05:04:37.000Z</time>
      </trkpt>
      <trkpt lat="42.58973" lon="1.78533">
        <ele>1731</ele>
        <time>2023-07-20T05:04:43.000Z</time>
      </trkpt>
      <trkpt lat="42.58971" lon="1.7853">
        <ele>1731.4000244141</ele>
        <time>2023-07-20T05:04:47.000Z</time>
      </trkpt>
      <trkpt lat="42.58968" lon="1.78529">
        <ele>1732</ele>
        <time>2023-07-20T05:04:52.000Z</time>
      </trkpt>
      <trkpt lat="42.58965" lon="1.78528">
        <ele>1732.5999755859</ele>
        <time>2023-07-20T05:04:57.000Z</time>
      </trkpt>
      <trkpt lat="42.58964" lon="1.78527">
        <ele>1732.5999755859</ele>
        <time>2023-07-20T05:04:59.000Z</time>
      </trkpt>
      <trkpt lat="42.5896" lon="1.78522">
        <ele>1733.5999755859</ele>
        <time>2023-07-20T05:05:05.000Z</time>
      </trkpt>
      <trkpt lat="42.58959" lon="1.78522">
        <ele>1733.8000488281</ele>
        <time>2023-07-20T05:05:06.000Z</time>
      </trkpt>
      <trkpt lat="42.58955" lon="1.78516">
        <ele>1734.5999755859</ele>
        <time>2023-07-20T05:05:14.000Z</time>
      </trkpt>
      <trkpt lat="42.58955" lon="1.78516">
        <ele>1734.5999755859</ele>
        <time>2023-07-20T05:05:15.000Z</time>
      </trkpt>
      <trkpt lat="42.58952" lon="1.78512">
        <ele>1735.8000488281</ele>
        <time>2023-07-20T05:05:22.000Z</time>
      </trkpt>
      <trkpt lat="42.5895" lon="1.78506">
        <ele>1735.8000488281</ele>
        <time>2023-07-20T05:05:27.000Z</time>
      </trkpt>
      <trkpt lat="42.58949" lon="1.785">
        <ele>1735.8000488281</ele>
        <time>2023-07-20T05:05:33.000Z</time>
      </trkpt>
      <trkpt lat="42.58944" lon="1.78492">
        <ele>1736</ele>
        <time>2023-07-20T05:05:41.000Z</time>
      </trkpt>
      <trkpt lat="42.58943" lon="1.78484">
        <ele>1735.8000488281</ele>
        <time>2023-07-20T05:05:47.000Z</time>
      </trkpt>
      <trkpt lat="42.5894" lon="1.78475">
        <ele>1736.1999511719</ele>
        <time>2023-07-20T05:05:55.000Z</time>
      </trkpt>
      <trkpt lat="42.58938" lon="1.78467">
        <ele>1736.4000244141</ele>
        <time>2023-07-20T05:06:03.000Z</time>
      </trkpt>
      <trkpt lat="42.58937" lon="1.78463">
        <ele>1736</ele>
        <time>2023-07-20T05:06:10.000Z</time>
      </trkpt>
      <trkpt lat="42.58939" lon="1.78453">
        <ele>1735.8000488281</ele>
        <time>2023-07-20T05:06:20.000Z</time>
      </trkpt>
      <trkpt lat="42.58936" lon="1.78451">
        <ele>1735.8000488281</ele>
        <time>2023-07-20T05:06:27.000Z</time>
      </trkpt>
      <trkpt lat="42.58939" lon="1.78454">
        <ele>1736.4000244141</ele>
        <time>2023-07-20T05:06:33.000Z</time>
      </trkpt>
      <trkpt lat="42.58943" lon="1.78447">
        <ele>1736.1999511719</ele>
        <time>2023-07-20T05:06:40.000Z</time>
      </trkpt>
      <trkpt lat="42.58945" lon="1.78442">
        <ele>1736.8000488281</ele>
        <time>2023-07-20T05:06:46.000Z</time>
      </trkpt>
      <trkpt lat="42.58946" lon="1.78438">
        <ele>1737.1999511719</ele>
        <time>2023-07-20T05:06:49.000Z</time>
      </trkpt>
      <trkpt lat="42.58946" lon="1.78437">
        <ele>1737.8000488281</ele>
        <time>2023-07-20T05:06:53.000Z</time>
      </trkpt>
      <trkpt lat="42.58945" lon="1.78436">
        <ele>1738</ele>
        <time>2023-07-20T05:06:56.000Z</time>
      </trkpt>
      <trkpt lat="42.58942" lon="1.78435">
        <ele>1738.5999755859</ele>
        <time>2023-07-20T05:07:02.000Z</time>
      </trkpt>
      <trkpt lat="42.58944" lon="1.78429">
        <ele>1738.8000488281</ele>
        <time>2023-07-20T05:07:08.000Z</time>
      </trkpt>
      <trkpt lat="42.58946" lon="1.78428">
        <ele>1739</ele>
        <time>2023-07-20T05:07:12.000Z</time>
      </trkpt>
      <trkpt lat="42.58947" lon="1.78426">
        <ele>1739.4000244141</ele>
        <time>2023-07-20T05:07:16.000Z</time>
      </trkpt>
      <trkpt lat="42.58948" lon="1.78423">
        <ele>1740</ele>
        <time>2023-07-20T05:07:20.000Z</time>
      </trkpt>
      <trkpt lat="42.58949" lon="1.78421">
        <ele>1740.1999511719</ele>
        <time>2023-07-20T05:07:23.000Z</time>
      </trkpt>
      <trkpt lat="42.58954" lon="1.78417">
        <ele>1740.8000488281</ele>
        <time>2023-07-20T05:07:30.000Z</time>
      </trkpt>
      <trkpt lat="42.58955" lon="1.78416">
        <ele>1741</ele>
        <time>2023-07-20T05:07:31.000Z</time>
      </trkpt>
      <trkpt lat="42.5896" lon="1.7841">
        <ele>1741.4000244141</ele>
        <time>2023-07-20T05:07:38.000Z</time>
      </trkpt>
      <trkpt lat="42.58964" lon="1.78404">
        <ele>1741.1999511719</ele>
        <time>2023-07-20T05:07:47.000Z</time>
      </trkpt>
      <trkpt lat="42.58966" lon="1.78399">
        <ele>1741</ele>
        <time>2023-07-20T05:07:54.000Z</time>
      </trkpt>
      <trkpt lat="42.58964" lon="1.78397">
        <ele>1741.1999511719</ele>
        <time>2023-07-20T05:08:01.000Z</time>
      </trkpt>
      <trkpt lat="42.58965" lon="1.78396">
        <ele>1741</ele>
        <time>2023-07-20T05:08:10.000Z</time>
      </trkpt>
      <trkpt lat="42.58964" lon="1.78395">
        <ele>1741</ele>
        <time>2023-07-20T05:08:16.000Z</time>
      </trkpt>
      <trkpt lat="42.58958" lon="1.78397">
        <ele>1741</ele>
        <time>2023-07-20T05:08:22.000Z</time>
      </trkpt>
      <trkpt lat="42.58961" lon="1.78398">
        <ele>1741</ele>
        <time>2023-07-20T05:08:31.000Z</time>
      </trkpt>
      <trkpt lat="42.58958" lon="1.78399">
        <ele>1741</ele>
        <time>2023-07-20T05:08:38.000Z</time>
      </trkpt>
      <trkpt lat="42.58959" lon="1.78401">
        <ele>1741</ele>
        <time>2023-07-20T05:08:45.000Z</time>
      </trkpt>
      <trkpt lat="42.58962" lon="1.78401">
        <ele>1740.8000488281</ele>
        <time>2023-07-20T05:08:53.000Z</time>
      </trkpt>
      <trkpt lat="42.58962" lon="1.78401">
        <ele>1740.8000488281</ele>
        <time>2023-07-20T05:09:01.000Z</time>
      </trkpt>
      <trkpt lat="42.58959" lon="1.78396">
        <ele>1740.5999755859</ele>
        <time>2023-07-20T05:09:09.000Z</time>
      </trkpt>
      <trkpt lat="42.58957" lon="1.7839">
        <ele>1741</ele>
        <time>2023-07-20T05:09:15.000Z</time>
      </trkpt>
      <trkpt lat="42.58958" lon="1.78381">
        <ele>1741.5999755859</ele>
        <time>2023-07-20T05:09:23.000Z</time>
      </trkpt>
      <trkpt lat="42.5896" lon="1.78379">
        <ele>1742</ele>
        <time>2023-07-20T05:09:26.000Z</time>
      </trkpt>
      <trkpt lat="42.58962" lon="1.78378">
        <ele>1742.1999511719</ele>
        <time>2023-07-20T05:09:30.000Z</time>
      </trkpt>
      <trkpt lat="42.58962" lon="1.78377">
        <ele>1742.1999511719</ele>
        <time>2023-07-20T05:09:37.000Z</time>
      </trkpt>
      <trkpt lat="42.58962" lon="1.78377">
        <ele>1742.4000244141</ele>
        <time>2023-07-20T05:09:46.000Z</time>
      </trkpt>
      <trkpt lat="42.58963" lon="1.78374">
        <ele>1742.1999511719</ele>
        <time>2023-07-20T05:09:56.000Z</time>
      </trkpt>
      <trkpt lat="42.58963" lon="1.78379">
        <ele>1742.1999511719</ele>
        <time>2023-07-20T05:10:05.000Z</time>
      </trkpt>
      <trkpt lat="42.58962" lon="1.78378">
        <ele>1742.1999511719</ele>
        <time>2023-07-20T05:10:15.000Z</time>
      </trkpt>
      <trkpt lat="42.5896" lon="1.78378">
        <ele>1742.1999511719</ele>
        <time>2023-07-20T05:10:23.000Z</time>
      </trkpt>
      <trkpt lat="42.58968" lon="1.78382">
        <ele>1742.5999755859</ele>
        <time>2023-07-20T05:10:31.000Z</time>
      </trkpt>
      <trkpt lat="42.58971" lon="1.78383">
        <ele>1743</ele>
        <time>2023-07-20T05:10:33.000Z</time>
      </trkpt>
      <trkpt lat="42.58975" lon="1.78381">
        <ele>1744</ele>
        <time>2023-07-20T05:10:39.000Z</time>
      </trkpt>
      <trkpt lat="42.58975" lon="1.78381">
        <ele>1744.1999511719</ele>
        <time>2023-07-20T05:10:40.000Z</time>
      </trkpt>
      <trkpt lat="42.58978" lon="1.78384">
        <ele>1745.1999511719</ele>
        <time>2023-07-20T05:10:47.000Z</time>
      </trkpt>
      <trkpt lat="42.5898" lon="1.78385">
        <ele>1745.4000244141</ele>
        <time>2023-07-20T05:10:48.000Z</time>
      </trkpt>
      <trkpt lat="42.58982" lon="1.78388">
        <ele>1746.4000244141</ele>
        <time>2023-07-20T05:10:55.000Z</time>
      </trkpt>
      <trkpt lat="42.58987" lon="1.78391">
        <ele>1746.8000488281</ele>
        <time>2023-07-20T05:11:01.000Z</time>
      </trkpt>
      <trkpt lat="42.58993" lon="1.78393">
        <ele>1747</ele>
        <time>2023-07-20T05:11:09.000Z</time>
      </trkpt>
      <trkpt lat="42.58997" lon="1.78396">
        <ele>1747.5999755859</ele>
        <time>2023-07-20T05:11:14.000Z</time>
      </trkpt>
      <trkpt lat="42.58998" lon="1.78397">
        <ele>1747.5999755859</ele>
        <time>2023-07-20T05:11:15.000Z</time>
      </trkpt>
      <trkpt lat="42.59001" lon="1.78403">
        <ele>1748</ele>
        <time>2023-07-20T05:11:22.000Z</time>
      </trkpt>
      <trkpt lat="42.59008" lon="1.78407">
        <ele>1748.4000244141</ele>
        <time>2023-07-20T05:11:30.000Z</time>
      </trkpt>
      <trkpt lat="42.59012" lon="1.78414">
        <ele>1748.4000244141</ele>
        <time>2023-07-20T05:11:37.000Z</time>
      </trkpt>
      <trkpt lat="42.59013" lon="1.78416">
        <ele>1748.5999755859</ele>
        <time>2023-07-20T05:11:39.000Z</time>
      </trkpt>
      <trkpt lat="42.59019" lon="1.78421">
        <ele>1748.8000488281</ele>
        <time>2023-07-20T05:11:48.000Z</time>
      </trkpt>
      <trkpt lat="42.5902" lon="1.78421">
        <ele>1749</ele>
        <time>2023-07-20T05:11:50.000Z</time>
      </trkpt>
      <trkpt lat="42.59023" lon="1.78421">
        <ele>1749</ele>
        <time>2023-07-20T05:11:54.000Z</time>
      </trkpt>
      <trkpt lat="42.59025" lon="1.78421">
        <ele>1749.4000244141</ele>
        <time>2023-07-20T05:12:02.000Z</time>
      </trkpt>
      <trkpt lat="42.59025" lon="1.78422">
        <ele>1749.1999511719</ele>
        <time>2023-07-20T05:12:11.000Z</time>
      </trkpt>
      <trkpt lat="42.59025" lon="1.78423">
        <ele>1749.1999511719</ele>
        <time>2023-07-20T05:12:18.000Z</time>
      </trkpt>
      <trkpt lat="42.59026" lon="1.78424">
        <ele>1749.1999511719</ele>
        <time>2023-07-20T05:12:27.000Z</time>
      </trkpt>
      <trkpt lat="42.59024" lon="1.7842">
        <ele>1749.1999511719</ele>
        <time>2023-07-20T05:12:38.000Z</time>
      </trkpt>
      <trkpt lat="42.59025" lon="1.78419">
        <ele>1749.1999511719</ele>
        <time>2023-07-20T05:12:47.000Z</time>
      </trkpt>
      <trkpt lat="42.59028" lon="1.7842">
        <ele>1749.1999511719</ele>
        <time>2023-07-20T05:12:57.000Z</time>
      </trkpt>
      <trkpt lat="42.59028" lon="1.78421">
        <ele>1749.1999511719</ele>
        <time>2023-07-20T05:13:04.000Z</time>
      </trkpt>
      <trkpt lat="42.59033" lon="1.78426">
        <ele>1749.1999511719</ele>
        <time>2023-07-20T05:13:11.000Z</time>
      </trkpt>
      <trkpt lat="42.59039" lon="1.78429">
        <ele>1749.4000244141</ele>
        <time>2023-07-20T05:13:18.000Z</time>
      </trkpt>
      <trkpt lat="42.5904" lon="1.78429">
        <ele>1749.5999755859</ele>
        <time>2023-07-20T05:13:19.000Z</time>
      </trkpt>
      <trkpt lat="42.59045" lon="1.78432">
        <ele>1750</ele>
        <time>2023-07-20T05:13:27.000Z</time>
      </trkpt>
      <trkpt lat="42.59049" lon="1.78437">
        <ele>1750.1999511719</ele>
        <time>2023-07-20T05:13:35.000Z</time>
      </trkpt>
      <trkpt lat="42.59052" lon="1.78443">
        <ele>1750</ele>
        <time>2023-07-20T05:13:43.000Z</time>
      </trkpt>
      <trkpt lat="42.59058" lon="1.78453">
        <ele>1750.1999511719</ele>
        <time>2023-07-20T05:13:53.000Z</time>
      </trkpt>
      <trkpt lat="42.59063" lon="1.78457">
        <ele>1750.5999755859</ele>
        <time>2023-07-20T05:14:02.000Z</time>
      </trkpt>
      <trkpt lat="42.59064" lon="1.78457">
        <ele>1750.5999755859</ele>
        <time>2023-07-20T05:14:03.000Z</time>
      </trkpt>
      <trkpt lat="42.59068" lon="1.78461">
        <ele>1751.1999511719</ele>
        <time>2023-07-20T05:14:09.000Z</time>
      </trkpt>
      <trkpt lat="42.59072" lon="1.78467">
        <ele>1751.5999755859</ele>
        <time>2023-07-20T05:14:14.000Z</time>
      </trkpt>
      <trkpt lat="42.59073" lon="1.78469">
        <ele>1751.8000488281</ele>
        <time>2023-07-20T05:14:17.000Z</time>
      </trkpt>
      <trkpt lat="42.59077" lon="1.78473">
        <ele>1752.8000488281</ele>
        <time>2023-07-20T05:14:24.000Z</time>
      </trkpt>
      <trkpt lat="42.5908" lon="1.78477">
        <ele>1753</ele>
        <time>2023-07-20T05:14:29.000Z</time>
      </trkpt>
      <trkpt lat="42.59086" lon="1.78485">
        <ele>1753.5999755859</ele>
        <time>2023-07-20T05:14:40.000Z</time>
      </trkpt>
      <trkpt lat="42.59091" lon="1.78489">
        <ele>1753.5999755859</ele>
        <time>2023-07-20T05:14:47.000Z</time>
      </trkpt>
      <trkpt lat="42.59099" lon="1.78498">
        <ele>1753.5999755859</ele>
        <time>2023-07-20T05:14:58.000Z</time>
      </trkpt>
      <trkpt lat="42.591" lon="1.78498">
        <ele>1753.8000488281</ele>
        <time>2023-07-20T05:14:59.000Z</time>
      </trkpt>
      <trkpt lat="42.59107" lon="1.78508">
        <ele>1753.8000488281</ele>
        <time>2023-07-20T05:15:11.000Z</time>
      </trkpt>
      <trkpt lat="42.59111" lon="1.78514">
        <ele>1754.8000488281</ele>
        <time>2023-07-20T05:15:18.000Z</time>
      </trkpt>
      <trkpt lat="42.59112" lon="1.78515">
        <ele>1755.1999511719</ele>
        <time>2023-07-20T05:15:20.000Z</time>
      </trkpt>
      <trkpt lat="42.59115" lon="1.78514">
        <ele>1756</ele>
        <time>2023-07-20T05:15:25.000Z</time>
      </trkpt>
      <trkpt lat="42.59117" lon="1.78513">
        <ele>1756.1999511719</ele>
        <time>2023-07-20T05:15:27.000Z</time>
      </trkpt>
      <trkpt lat="42.59122" lon="1.78513">
        <ele>1757</ele>
        <time>2023-07-20T05:15:31.000Z</time>
      </trkpt>
      <trkpt lat="42.59124" lon="1.78514">
        <ele>1757.5999755859</ele>
        <time>2023-07-20T05:15:35.000Z</time>
      </trkpt>
      <trkpt lat="42.59124" lon="1.78515">
        <ele>1758</ele>
        <time>2023-07-20T05:15:38.000Z</time>
      </trkpt>
      <trkpt lat="42.59125" lon="1.78518">
        <ele>1758.4000244141</ele>
        <time>2023-07-20T05:15:41.000Z</time>
      </trkpt>
      <trkpt lat="42.59125" lon="1.7852">
        <ele>1758.4000244141</ele>
        <time>2023-07-20T05:15:48.000Z</time>
      </trkpt>
      <trkpt lat="42.59129" lon="1.78524">
        <ele>1758.5999755859</ele>
        <time>2023-07-20T05:15:55.000Z</time>
      </trkpt>
      <trkpt lat="42.59133" lon="1.78528">
        <ele>1759.1999511719</ele>
        <time>2023-07-20T05:16:01.000Z</time>
      </trkpt>
      <trkpt lat="42.59135" lon="1.78528">
        <ele>1759.4000244141</ele>
        <time>2023-07-20T05:16:04.000Z</time>
      </trkpt>
      <trkpt lat="42.59139" lon="1.78531">
        <ele>1759.8000488281</ele>
        <time>2023-07-20T05:16:10.000Z</time>
      </trkpt>
      <trkpt lat="42.59143" lon="1.78536">
        <ele>1760.1999511719</ele>
        <time>2023-07-20T05:16:18.000Z</time>
      </trkpt>
      <trkpt lat="42.59151" lon="1.78542">
        <ele>1760.4000244141</ele>
        <time>2023-07-20T05:16:28.000Z</time>
      </trkpt>
      <trkpt lat="42.59158" lon="1.78542">
        <ele>1761</ele>
        <time>2023-07-20T05:16:36.000Z</time>
      </trkpt>
      <trkpt lat="42.5916" lon="1.78542">
        <ele>1761.4000244141</ele>
        <time>2023-07-20T05:16:39.000Z</time>
      </trkpt>
      <trkpt lat="42.59164" lon="1.78546">
        <ele>1762</ele>
        <time>2023-07-20T05:16:46.000Z</time>
      </trkpt>
      <trkpt lat="42.59166" lon="1.7855">
        <ele>1761.5999755859</ele>
        <time>2023-07-20T05:16:52.000Z</time>
      </trkpt>
      <trkpt lat="42.59172" lon="1.78556">
        <ele>1761.1999511719</ele>
        <time>2023-07-20T05:16:59.000Z</time>
      </trkpt>
      <trkpt lat="42.59177" lon="1.78559">
        <ele>1761.5999755859</ele>
        <time>2023-07-20T05:17:05.000Z</time>
      </trkpt>
      <trkpt lat="42.59182" lon="1.78564">
        <ele>1761.8000488281</ele>
        <time>2023-07-20T05:17:13.000Z</time>
      </trkpt>
      <trkpt lat="42.59184" lon="1.78564">
        <ele>1762.4000244141</ele>
        <time>2023-07-20T05:17:16.000Z</time>
      </trkpt>
      <trkpt lat="42.59189" lon="1.78567">
        <ele>1763</ele>
        <time>2023-07-20T05:17:22.000Z</time>
      </trkpt>
      <trkpt lat="42.59194" lon="1.78569">
        <ele>1763.1999511719</ele>
        <time>2023-07-20T05:17:29.000Z</time>
      </trkpt>
      <trkpt lat="42.59195" lon="1.7857">
        <ele>1763.4000244141</ele>
        <time>2023-07-20T05:17:30.000Z</time>
      </trkpt>
      <trkpt lat="42.59198" lon="1.78572">
        <ele>1764.4000244141</ele>
        <time>2023-07-20T05:17:36.000Z</time>
      </trkpt>
      <trkpt lat="42.59199" lon="1.78572">
        <ele>1764.4000244141</ele>
        <time>2023-07-20T05:17:37.000Z</time>
      </trkpt>
      <trkpt lat="42.59206" lon="1.78574">
        <ele>1764.5999755859</ele>
        <time>2023-07-20T05:17:44.000Z</time>
      </trkpt>
      <trkpt lat="42.59206" lon="1.78577">
        <ele>1765.5999755859</ele>
        <time>2023-07-20T05:17:52.000Z</time>
      </trkpt>
      <trkpt lat="42.59205" lon="1.78578">
        <ele>1765.5999755859</ele>
        <time>2023-07-20T05:17:53.000Z</time>
      </trkpt>
      <trkpt lat="42.59208" lon="1.78584">
        <ele>1766.5999755859</ele>
        <time>2023-07-20T05:18:02.000Z</time>
      </trkpt>
      <trkpt lat="42.59212" lon="1.78588">
        <ele>1766.4000244141</ele>
        <time>2023-07-20T05:18:09.000Z</time>
      </trkpt>
      <trkpt lat="42.59214" lon="1.78588">
        <ele>1766.5999755859</ele>
        <time>2023-07-20T05:18:11.000Z</time>
      </trkpt>
      <trkpt lat="42.59222" lon="1.78589">
        <ele>1766.8000488281</ele>
        <time>2023-07-20T05:18:17.000Z</time>
      </trkpt>
      <trkpt lat="42.5923" lon="1.78593">
        <ele>1767.5999755859</ele>
        <time>2023-07-20T05:18:25.000Z</time>
      </trkpt>
      <trkpt lat="42.5923" lon="1.78594">
        <ele>1767.5999755859</ele>
        <time>2023-07-20T05:18:26.000Z</time>
      </trkpt>
      <trkpt lat="42.59235" lon="1.78598">
        <ele>1768.5999755859</ele>
        <time>2023-07-20T05:18:35.000Z</time>
      </trkpt>
      <trkpt lat="42.59236" lon="1.78598">
        <ele>1768.8000488281</ele>
        <time>2023-07-20T05:18:37.000Z</time>
      </trkpt>
      <trkpt lat="42.59233" lon="1.78601">
        <ele>1768.8000488281</ele>
        <time>2023-07-20T05:18:43.000Z</time>
      </trkpt>
      <trkpt lat="42.59233" lon="1.78605">
        <ele>1768.8000488281</ele>
        <time>2023-07-20T05:18:51.000Z</time>
      </trkpt>
      <trkpt lat="42.59234" lon="1.786">
        <ele>1768.8000488281</ele>
        <time>2023-07-20T05:19:00.000Z</time>
      </trkpt>
      <trkpt lat="42.59235" lon="1.786">
        <ele>1769</ele>
        <time>2023-07-20T05:19:08.000Z</time>
      </trkpt>
      <trkpt lat="42.59236" lon="1.78602">
        <ele>1769.1999511719</ele>
        <time>2023-07-20T05:19:15.000Z</time>
      </trkpt>
      <trkpt lat="42.59238" lon="1.78606">
        <ele>1769.8000488281</ele>
        <time>2023-07-20T05:19:21.000Z</time>
      </trkpt>
      <trkpt lat="42.59238" lon="1.78607">
        <ele>1769.5999755859</ele>
        <time>2023-07-20T05:19:23.000Z</time>
      </trkpt>
      <trkpt lat="42.59242" lon="1.7861">
        <ele>1769.8000488281</ele>
        <time>2023-07-20T05:19:31.000Z</time>
      </trkpt>
      <trkpt lat="42.59246" lon="1.78612">
        <ele>1770.1999511719</ele>
        <time>2023-07-20T05:19:39.000Z</time>
      </trkpt>
      <trkpt lat="42.59246" lon="1.7861">
        <ele>1770.5999755859</ele>
        <time>2023-07-20T05:19:47.000Z</time>
      </trkpt>
      <trkpt lat="42.59245" lon="1.7861">
        <ele>1770.4000244141</ele>
        <time>2023-07-20T05:19:54.000Z</time>
      </trkpt>
      <trkpt lat="42.59247" lon="1.7861">
        <ele>1770.5999755859</ele>
        <time>2023-07-20T05:20:01.000Z</time>
      </trkpt>
      <trkpt lat="42.59247" lon="1.78611">
        <ele>1770.8000488281</ele>
        <time>2023-07-20T05:20:03.000Z</time>
      </trkpt>
      <trkpt lat="42.59249" lon="1.78614">
        <ele>1772</ele>
        <time>2023-07-20T05:20:09.000Z</time>
      </trkpt>
      <trkpt lat="42.59251" lon="1.78617">
        <ele>1772.1999511719</ele>
        <time>2023-07-20T05:20:12.000Z</time>
      </trkpt>
      <trkpt lat="42.59255" lon="1.7862">
        <ele>1772.8000488281</ele>
        <time>2023-07-20T05:20:18.000Z</time>
      </trkpt>
      <trkpt lat="42.59257" lon="1.78621">
        <ele>1773</ele>
        <time>2023-07-20T05:20:20.000Z</time>
      </trkpt>
      <trkpt lat="42.59261" lon="1.78622">
        <ele>1774</ele>
        <time>2023-07-20T05:20:27.000Z</time>
      </trkpt>
      <trkpt lat="42.59263" lon="1.78622">
        <ele>1774</ele>
        <time>2023-07-20T05:20:28.000Z</time>
      </trkpt>
      <trkpt lat="42.5927" lon="1.78621">
        <ele>1775.1999511719</ele>
        <time>2023-07-20T05:20:35.000Z</time>
      </trkpt>
      <trkpt lat="42.5927" lon="1.78621">
        <ele>1775.4000244141</ele>
        <time>2023-07-20T05:20:36.000Z</time>
      </trkpt>
      <trkpt lat="42.59275" lon="1.78624">
        <ele>1776.4000244141</ele>
        <time>2023-07-20T05:20:43.000Z</time>
      </trkpt>
      <trkpt lat="42.59275" lon="1.78624">
        <ele>1776.4000244141</ele>
        <time>2023-07-20T05:20:44.000Z</time>
      </trkpt>
      <trkpt lat="42.59278" lon="1.78625">
        <ele>1777.4000244141</ele>
        <time>2023-07-20T05:20:50.000Z</time>
      </trkpt>
      <trkpt lat="42.59278" lon="1.78625">
        <ele>1777.8000488281</ele>
        <time>2023-07-20T05:20:52.000Z</time>
      </trkpt>
      <trkpt lat="42.59281" lon="1.78625">
        <ele>1778.5999755859</ele>
        <time>2023-07-20T05:20:57.000Z</time>
      </trkpt>
      <trkpt lat="42.59282" lon="1.78625">
        <ele>1778.8000488281</ele>
        <time>2023-07-20T05:20:59.000Z</time>
      </trkpt>
      <trkpt lat="42.59286" lon="1.78626">
        <ele>1779.5999755859</ele>
        <time>2023-07-20T05:21:04.000Z</time>
      </trkpt>
      <trkpt lat="42.59287" lon="1.78626">
        <ele>1780</ele>
        <time>2023-07-20T05:21:06.000Z</time>
      </trkpt>
      <trkpt lat="42.59288" lon="1.78626">
        <ele>1780.8000488281</ele>
        <time>2023-07-20T05:21:11.000Z</time>
      </trkpt>
      <trkpt lat="42.59289" lon="1.78626">
        <ele>1781.1999511719</ele>
        <time>2023-07-20T05:21:14.000Z</time>
      </trkpt>
      <trkpt lat="42.59291" lon="1.78628">
        <ele>1781.8000488281</ele>
        <time>2023-07-20T05:21:18.000Z</time>
      </trkpt>
      <trkpt lat="42.59292" lon="1.78629">
        <ele>1782.4000244141</ele>
        <time>2023-07-20T05:21:22.000Z</time>
      </trkpt>
      <trkpt lat="42.59293" lon="1.7863">
        <ele>1782.8000488281</ele>
        <time>2023-07-20T05:21:25.000Z</time>
      </trkpt>
      <trkpt lat="42.59294" lon="1.78631">
        <ele>1783.5999755859</ele>
        <time>2023-07-20T05:21:30.000Z</time>
      </trkpt>
      <trkpt lat="42.59295" lon="1.78631">
        <ele>1784</ele>
        <time>2023-07-20T05:21:32.000Z</time>
      </trkpt>
      <trkpt lat="42.59297" lon="1.78628">
        <ele>1785</ele>
        <time>2023-07-20T05:21:38.000Z</time>
      </trkpt>
      <trkpt lat="42.59298" lon="1.78628">
        <ele>1785</ele>
        <time>2023-07-20T05:21:39.000Z</time>
      </trkpt>
      <trkpt lat="42.59301" lon="1.78631">
        <ele>1786</ele>
        <time>2023-07-20T05:21:46.000Z</time>
      </trkpt>
      <trkpt lat="42.59301" lon="1.78631">
        <ele>1786.1999511719</ele>
        <time>2023-07-20T05:21:47.000Z</time>
      </trkpt>
      <trkpt lat="42.59303" lon="1.78632">
        <ele>1787</ele>
        <time>2023-07-20T05:21:53.000Z</time>
      </trkpt>
      <trkpt lat="42.59304" lon="1.78632">
        <ele>1787.1999511719</ele>
        <time>2023-07-20T05:21:54.000Z</time>
      </trkpt>
      <trkpt lat="42.5931" lon="1.78635">
        <ele>1788</ele>
        <time>2023-07-20T05:22:02.000Z</time>
      </trkpt>
      <trkpt lat="42.59315" lon="1.78636">
        <ele>1788.1999511719</ele>
        <time>2023-07-20T05:22:11.000Z</time>
      </trkpt>
      <trkpt lat="42.59322" lon="1.7864">
        <ele>1789.1999511719</ele>
        <time>2023-07-20T05:22:20.000Z</time>
      </trkpt>
      <trkpt lat="42.59323" lon="1.7864">
        <ele>1789.4000244141</ele>
        <time>2023-07-20T05:22:21.000Z</time>
      </trkpt>
      <trkpt lat="42.59327" lon="1.78642">
        <ele>1789.8000488281</ele>
        <time>2023-07-20T05:22:26.000Z</time>
      </trkpt>
      <trkpt lat="42.59329" lon="1.78643">
        <ele>1790.4000244141</ele>
        <time>2023-07-20T05:22:30.000Z</time>
      </trkpt>
      <trkpt lat="42.59327" lon="1.78642">
        <ele>1790.8000488281</ele>
        <time>2023-07-20T05:22:34.000Z</time>
      </trkpt>
      <trkpt lat="42.5933" lon="1.78642">
        <ele>1791.4000244141</ele>
        <time>2023-07-20T05:22:39.000Z</time>
      </trkpt>
      <trkpt lat="42.59332" lon="1.78641">
        <ele>1791.5999755859</ele>
        <time>2023-07-20T05:22:42.000Z</time>
      </trkpt>
      <trkpt lat="42.59335" lon="1.78642">
        <ele>1792.5999755859</ele>
        <time>2023-07-20T05:22:48.000Z</time>
      </trkpt>
      <trkpt lat="42.59336" lon="1.78641">
        <ele>1792.8000488281</ele>
        <time>2023-07-20T05:22:49.000Z</time>
      </trkpt>
      <trkpt lat="42.59339" lon="1.78642">
        <ele>1793.5999755859</ele>
        <time>2023-07-20T05:22:55.000Z</time>
      </trkpt>
      <trkpt lat="42.5934" lon="1.78643">
        <ele>1793.8000488281</ele>
        <time>2023-07-20T05:22:56.000Z</time>
      </trkpt>
      <trkpt lat="42.59345" lon="1.78647">
        <ele>1794.5999755859</ele>
        <time>2023-07-20T05:23:05.000Z</time>
      </trkpt>
      <trkpt lat="42.59349" lon="1.78653">
        <ele>1795.4000244141</ele>
        <time>2023-07-20T05:23:15.000Z</time>
      </trkpt>
      <trkpt lat="42.5935" lon="1.78654">
        <ele>1795.8000488281</ele>
        <time>2023-07-20T05:23:17.000Z</time>
      </trkpt>
      <trkpt lat="42.59351" lon="1.78652">
        <ele>1796.4000244141</ele>
        <time>2023-07-20T05:23:22.000Z</time>
      </trkpt>
      <trkpt lat="42.59352" lon="1.78651">
        <ele>1796.5999755859</ele>
        <time>2023-07-20T05:23:24.000Z</time>
      </trkpt>
      <trkpt lat="42.59354" lon="1.78652">
        <ele>1796.8000488281</ele>
        <time>2023-07-20T05:23:26.000Z</time>
      </trkpt>
      <trkpt lat="42.59356" lon="1.78655">
        <ele>1797.5999755859</ele>
        <time>2023-07-20T05:23:32.000Z</time>
      </trkpt>
      <trkpt lat="42.59356" lon="1.78656">
        <ele>1797.8000488281</ele>
        <time>2023-07-20T05:23:33.000Z</time>
      </trkpt>
      <trkpt lat="42.59356" lon="1.78656">
        <ele>1798.4000244141</ele>
        <time>2023-07-20T05:23:39.000Z</time>
      </trkpt>
      <trkpt lat="42.59357" lon="1.78652">
        <ele>1799</ele>
        <time>2023-07-20T05:23:46.000Z</time>
      </trkpt>
      <trkpt lat="42.59357" lon="1.78651">
        <ele>1799.1999511719</ele>
        <time>2023-07-20T05:23:48.000Z</time>
      </trkpt>
      <trkpt lat="42.59356" lon="1.78646">
        <ele>1800</ele>
        <time>2023-07-20T05:23:55.000Z</time>
      </trkpt>
      <trkpt lat="42.59355" lon="1.78645">
        <ele>1800.1999511719</ele>
        <time>2023-07-20T05:23:57.000Z</time>
      </trkpt>
      <trkpt lat="42.59355" lon="1.78641">
        <ele>1801</ele>
        <time>2023-07-20T05:24:02.000Z</time>
      </trkpt>
      <trkpt lat="42.59354" lon="1.78638">
        <ele>1801.4000244141</ele>
        <time>2023-07-20T05:24:05.000Z</time>
      </trkpt>
      <trkpt lat="42.59355" lon="1.78634">
        <ele>1802.1999511719</ele>
        <time>2023-07-20T05:24:10.000Z</time>
      </trkpt>
      <trkpt lat="42.59354" lon="1.78633">
        <ele>1802.5999755859</ele>
        <time>2023-07-20T05:24:12.000Z</time>
      </trkpt>
      <trkpt lat="42.59354" lon="1.7863">
        <ele>1803.1999511719</ele>
        <time>2023-07-20T05:24:17.000Z</time>
      </trkpt>
      <trkpt lat="42.59354" lon="1.78628">
        <ele>1803.5999755859</ele>
        <time>2023-07-20T05:24:20.000Z</time>
      </trkpt>
      <trkpt lat="42.59355" lon="1.78629">
        <ele>1804.4000244141</ele>
        <time>2023-07-20T05:24:25.000Z</time>
      </trkpt>
      <trkpt lat="42.59355" lon="1.78628">
        <ele>1804.4000244141</ele>
        <time>2023-07-20T05:24:26.000Z</time>
      </trkpt>
      <trkpt lat="42.59355" lon="1.78624">
        <ele>1804.8000488281</ele>
        <time>2023-07-20T05:24:32.000Z</time>
      </trkpt>
      <trkpt lat="42.59356" lon="1.78623">
        <ele>1805.5999755859</ele>
        <time>2023-07-20T05:24:35.000Z</time>
      </trkpt>
      <trkpt lat="42.59358" lon="1.78627">
        <ele>1806.1999511719</ele>
        <time>2023-07-20T05:24:40.000Z</time>
      </trkpt>
      <trkpt lat="42.5936" lon="1.7863">
        <ele>1806.5999755859</ele>
        <time>2023-07-20T05:24:43.000Z</time>
      </trkpt>
      <trkpt lat="42.59361" lon="1.78632">
        <ele>1806.8000488281</ele>
        <time>2023-07-20T05:24:46.000Z</time>
      </trkpt>
      <trkpt lat="42.59363" lon="1.78633">
        <ele>1807.5999755859</ele>
        <time>2023-07-20T05:24:52.000Z</time>
      </trkpt>
      <trkpt lat="42.59364" lon="1.78633">
        <ele>1807.8000488281</ele>
        <time>2023-07-20T05:24:53.000Z</time>
      </trkpt>
      <trkpt lat="42.59368" lon="1.78634">
        <ele>1808.5999755859</ele>
        <time>2023-07-20T05:25:00.000Z</time>
      </trkpt>
      <trkpt lat="42.59369" lon="1.78635">
        <ele>1809</ele>
        <time>2023-07-20T05:25:02.000Z</time>
      </trkpt>
      <trkpt lat="42.59374" lon="1.78639">
        <ele>1809.5999755859</ele>
        <time>2023-07-20T05:25:09.000Z</time>
      </trkpt>
      <trkpt lat="42.59374" lon="1.78639">
        <ele>1809.8000488281</ele>
        <time>2023-07-20T05:25:10.000Z</time>
      </trkpt>
      <trkpt lat="42.59376" lon="1.7864">
        <ele>1810.8000488281</ele>
        <time>2023-07-20T05:25:16.000Z</time>
      </trkpt>
      <trkpt lat="42.59377" lon="1.78641">
        <ele>1811.1999511719</ele>
        <time>2023-07-20T05:25:18.000Z</time>
      </trkpt>
      <trkpt lat="42.59378" lon="1.78643">
        <ele>1812</ele>
        <time>2023-07-20T05:25:24.000Z</time>
      </trkpt>
      <trkpt lat="42.5938" lon="1.78647">
        <ele>1812.5999755859</ele>
        <time>2023-07-20T05:25:30.000Z</time>
      </trkpt>
      <trkpt lat="42.59381" lon="1.78647">
        <ele>1813</ele>
        <time>2023-07-20T05:25:33.000Z</time>
      </trkpt>
      <trkpt lat="42.59383" lon="1.78648">
        <ele>1813.4000244141</ele>
        <time>2023-07-20T05:25:39.000Z</time>
      </trkpt>
      <trkpt lat="42.59385" lon="1.7865">
        <ele>1814</ele>
        <time>2023-07-20T05:25:43.000Z</time>
      </trkpt>
      <trkpt lat="42.59388" lon="1.7865">
        <ele>1814.4000244141</ele>
        <time>2023-07-20T05:25:47.000Z</time>
      </trkpt>
      <trkpt lat="42.59394" lon="1.7865">
        <ele>1815.1999511719</ele>
        <time>2023-07-20T05:25:54.000Z</time>
      </trkpt>
      <trkpt lat="42.59393" lon="1.78656">
        <ele>1815.4000244141</ele>
        <time>2023-07-20T05:26:02.000Z</time>
      </trkpt>
      <trkpt lat="42.59396" lon="1.78657">
        <ele>1815.8000488281</ele>
        <time>2023-07-20T05:26:09.000Z</time>
      </trkpt>
      <trkpt lat="42.59397" lon="1.78659">
        <ele>1816.1999511719</ele>
        <time>2023-07-20T05:26:11.000Z</time>
      </trkpt>
      <trkpt lat="42.59398" lon="1.7866">
        <ele>1817.1999511719</ele>
        <time>2023-07-20T05:26:19.000Z</time>
      </trkpt>
      <trkpt lat="42.59402" lon="1.78664">
        <ele>1818.1999511719</ele>
        <time>2023-07-20T05:26:26.000Z</time>
      </trkpt>
      <trkpt lat="42.59403" lon="1.78664">
        <ele>1818.4000244141</ele>
        <time>2023-07-20T05:26:27.000Z</time>
      </trkpt>
      <trkpt lat="42.59404" lon="1.78666">
        <ele>1819.4000244141</ele>
        <time>2023-07-20T05:26:34.000Z</time>
      </trkpt>
      <trkpt lat="42.59407" lon="1.7867">
        <ele>1820.1999511719</ele>
        <time>2023-07-20T05:26:40.000Z</time>
      </trkpt>
      <trkpt lat="42.5941" lon="1.78674">
        <ele>1820.4000244141</ele>
        <time>2023-07-20T05:26:44.000Z</time>
      </trkpt>
      <trkpt lat="42.59412" lon="1.78676">
        <ele>1820.8000488281</ele>
        <time>2023-07-20T05:26:48.000Z</time>
      </trkpt>
      <trkpt lat="42.59413" lon="1.78677">
        <ele>1821.5999755859</ele>
        <time>2023-07-20T05:26:54.000Z</time>
      </trkpt>
      <trkpt lat="42.59414" lon="1.78677">
        <ele>1821.8000488281</ele>
        <time>2023-07-20T05:26:55.000Z</time>
      </trkpt>
      <trkpt lat="42.59417" lon="1.78681">
        <ele>1822.4000244141</ele>
        <time>2023-07-20T05:27:02.000Z</time>
      </trkpt>
      <trkpt lat="42.59417" lon="1.78683">
        <ele>1822.8000488281</ele>
        <time>2023-07-20T05:27:05.000Z</time>
      </trkpt>
      <trkpt lat="42.59419" lon="1.78686">
        <ele>1823.4000244141</ele>
        <time>2023-07-20T05:27:10.000Z</time>
      </trkpt>
      <trkpt lat="42.5942" lon="1.78688">
        <ele>1823.8000488281</ele>
        <time>2023-07-20T05:27:14.000Z</time>
      </trkpt>
      <trkpt lat="42.59421" lon="1.78689">
        <ele>1824.1999511719</ele>
        <time>2023-07-20T05:27:18.000Z</time>
      </trkpt>
      <trkpt lat="42.59423" lon="1.78693">
        <ele>1824.8000488281</ele>
        <time>2023-07-20T05:27:23.000Z</time>
      </trkpt>
      <trkpt lat="42.59426" lon="1.78695">
        <ele>1825</ele>
        <time>2023-07-20T05:27:26.000Z</time>
      </trkpt>
      <trkpt lat="42.59429" lon="1.78698">
        <ele>1825.4000244141</ele>
        <time>2023-07-20T05:27:33.000Z</time>
      </trkpt>
      <trkpt lat="42.59433" lon="1.78701">
        <ele>1825.8000488281</ele>
        <time>2023-07-20T05:27:40.000Z</time>
      </trkpt>
      <trkpt lat="42.59433" lon="1.78702">
        <ele>1826</ele>
        <time>2023-07-20T05:27:42.000Z</time>
      </trkpt>
      <trkpt lat="42.59439" lon="1.78708">
        <ele>1826.4000244141</ele>
        <time>2023-07-20T05:27:49.000Z</time>
      </trkpt>
      <trkpt lat="42.59441" lon="1.78716">
        <ele>1826.8000488281</ele>
        <time>2023-07-20T05:27:58.000Z</time>
      </trkpt>
      <trkpt lat="42.59441" lon="1.78716">
        <ele>1826.8000488281</ele>
        <time>2023-07-20T05:27:59.000Z</time>
      </trkpt>
      <trkpt lat="42.59442" lon="1.7872">
        <ele>1827.4000244141</ele>
        <time>2023-07-20T05:28:06.000Z</time>
      </trkpt>
      <trkpt lat="42.5944" lon="1.78731">
        <ele>1827.5999755859</ele>
        <time>2023-07-20T05:28:14.000Z</time>
      </trkpt>
      <trkpt lat="42.59439" lon="1.78735">
        <ele>1827.8000488281</ele>
        <time>2023-07-20T05:28:17.000Z</time>
      </trkpt>
      <trkpt lat="42.59439" lon="1.78739">
        <ele>1828</ele>
        <time>2023-07-20T05:28:20.000Z</time>
      </trkpt>
      <trkpt lat="42.5944" lon="1.78743">
        <ele>1828.8000488281</ele>
        <time>2023-07-20T05:28:28.000Z</time>
      </trkpt>
      <trkpt lat="42.5944" lon="1.78744">
        <ele>1829</ele>
        <time>2023-07-20T05:28:29.000Z</time>
      </trkpt>
      <trkpt lat="42.59443" lon="1.78746">
        <ele>1830</ele>
        <time>2023-07-20T05:28:35.000Z</time>
      </trkpt>
      <trkpt lat="42.59444" lon="1.78745">
        <ele>1830.1999511719</ele>
        <time>2023-07-20T05:28:37.000Z</time>
      </trkpt>
      <trkpt lat="42.59449" lon="1.78742">
        <ele>1831</ele>
        <time>2023-07-20T05:28:43.000Z</time>
      </trkpt>
      <trkpt lat="42.5945" lon="1.78742">
        <ele>1831.1999511719</ele>
        <time>2023-07-20T05:28:45.000Z</time>
      </trkpt>
      <trkpt lat="42.59454" lon="1.78742">
        <ele>1832</ele>
        <time>2023-07-20T05:28:51.000Z</time>
      </trkpt>
      <trkpt lat="42.59454" lon="1.78745">
        <ele>1833</ele>
        <time>2023-07-20T05:28:58.000Z</time>
      </trkpt>
      <trkpt lat="42.59454" lon="1.78746">
        <ele>1833</ele>
        <time>2023-07-20T05:28:59.000Z</time>
      </trkpt>
      <trkpt lat="42.59455" lon="1.78745">
        <ele>1834</ele>
        <time>2023-07-20T05:29:05.000Z</time>
      </trkpt>
      <trkpt lat="42.59456" lon="1.78745">
        <ele>1834.1999511719</ele>
        <time>2023-07-20T05:29:06.000Z</time>
      </trkpt>
      <trkpt lat="42.59456" lon="1.78749">
        <ele>1835.1999511719</ele>
        <time>2023-07-20T05:29:14.000Z</time>
      </trkpt>
      <trkpt lat="42.59456" lon="1.78749">
        <ele>1835.4000244141</ele>
        <time>2023-07-20T05:29:15.000Z</time>
      </trkpt>
      <trkpt lat="42.59459" lon="1.78757">
        <ele>1836.1999511719</ele>
        <time>2023-07-20T05:29:23.000Z</time>
      </trkpt>
      <trkpt lat="42.59462" lon="1.78759">
        <ele>1837.1999511719</ele>
        <time>2023-07-20T05:29:32.000Z</time>
      </trkpt>
      <trkpt lat="42.59464" lon="1.7876">
        <ele>1837.4000244141</ele>
        <time>2023-07-20T05:29:33.000Z</time>
      </trkpt>
      <trkpt lat="42.59471" lon="1.78759">
        <ele>1838.1999511719</ele>
        <time>2023-07-20T05:29:40.000Z</time>
      </trkpt>
      <trkpt lat="42.59472" lon="1.78758">
        <ele>1838.4000244141</ele>
        <time>2023-07-20T05:29:43.000Z</time>
      </trkpt>
      <trkpt lat="42.59473" lon="1.78757">
        <ele>1839.1999511719</ele>
        <time>2023-07-20T05:29:47.000Z</time>
      </trkpt>
      <trkpt lat="42.59474" lon="1.78757">
        <ele>1839.5999755859</ele>
        <time>2023-07-20T05:29:49.000Z</time>
      </trkpt>
      <trkpt lat="42.59478" lon="1.78759">
        <ele>1840.1999511719</ele>
        <time>2023-07-20T05:29:55.000Z</time>
      </trkpt>
      <trkpt lat="42.59479" lon="1.78759">
        <ele>1840.8000488281</ele>
        <time>2023-07-20T05:29:58.000Z</time>
      </trkpt>
      <trkpt lat="42.59481" lon="1.78757">
        <ele>1841.4000244141</ele>
        <time>2023-07-20T05:30:03.000Z</time>
      </trkpt>
      <trkpt lat="42.59482" lon="1.78756">
        <ele>1841.8000488281</ele>
        <time>2023-07-20T05:30:06.000Z</time>
      </trkpt>
      <trkpt lat="42.59482" lon="1.78755">
        <ele>1842.4000244141</ele>
        <time>2023-07-20T05:30:11.000Z</time>
      </trkpt>
      <trkpt lat="42.59481" lon="1.78755">
        <ele>1842.8000488281</ele>
        <time>2023-07-20T05:30:14.000Z</time>
      </trkpt>
      <trkpt lat="42.59481" lon="1.78759">
        <ele>1843</ele>
        <time>2023-07-20T05:30:20.000Z</time>
      </trkpt>
      <trkpt lat="42.59483" lon="1.78766">
        <ele>1843.5999755859</ele>
        <time>2023-07-20T05:30:28.000Z</time>
      </trkpt>
      <trkpt lat="42.59485" lon="1.78767">
        <ele>1843.8000488281</ele>
        <time>2023-07-20T05:30:30.000Z</time>
      </trkpt>
      <trkpt lat="42.59486" lon="1.78767">
        <ele>1843.8000488281</ele>
        <time>2023-07-20T05:30:31.000Z</time>
      </trkpt>
      <trkpt lat="42.59488" lon="1.78766">
        <ele>1844.1999511719</ele>
        <time>2023-07-20T05:30:34.000Z</time>
      </trkpt>
      <trkpt lat="42.59489" lon="1.78765">
        <ele>1845</ele>
        <time>2023-07-20T05:30:39.000Z</time>
      </trkpt>
      <trkpt lat="42.59491" lon="1.78765">
        <ele>1845.1999511719</ele>
        <time>2023-07-20T05:30:42.000Z</time>
      </trkpt>
      <trkpt lat="42.59496" lon="1.78764">
        <ele>1846</ele>
        <time>2023-07-20T05:30:47.000Z</time>
      </trkpt>
      <trkpt lat="42.59498" lon="1.78765">
        <ele>1846.4000244141</ele>
        <time>2023-07-20T05:30:51.000Z</time>
      </trkpt>
      <trkpt lat="42.59501" lon="1.78763">
        <ele>1847</ele>
        <time>2023-07-20T05:30:57.000Z</time>
      </trkpt>
      <trkpt lat="42.59502" lon="1.78763">
        <ele>1847.1999511719</ele>
        <time>2023-07-20T05:30:58.000Z</time>
      </trkpt>
      <trkpt lat="42.59504" lon="1.78763">
        <ele>1847.5999755859</ele>
        <time>2023-07-20T05:31:05.000Z</time>
      </trkpt>
      <trkpt lat="42.59506" lon="1.78761">
        <ele>1848.1999511719</ele>
        <time>2023-07-20T05:31:11.000Z</time>
      </trkpt>
      <trkpt lat="42.59508" lon="1.78761">
        <ele>1848.4000244141</ele>
        <time>2023-07-20T05:31:13.000Z</time>
      </trkpt>
      <trkpt lat="42.5951" lon="1.7876">
        <ele>1849.1999511719</ele>
        <time>2023-07-20T05:31:19.000Z</time>
      </trkpt>
      <trkpt lat="42.5951" lon="1.78761">
        <ele>1849.4000244141</ele>
        <time>2023-07-20T05:31:21.000Z</time>
      </trkpt>
      <trkpt lat="42.59509" lon="1.78764">
        <ele>1850.1999511719</ele>
        <time>2023-07-20T05:31:27.000Z</time>
      </trkpt>
      <trkpt lat="42.59509" lon="1.78765">
        <ele>1850.1999511719</ele>
        <time>2023-07-20T05:31:28.000Z</time>
      </trkpt>
      <trkpt lat="42.59506" lon="1.78772">
        <ele>1851.1999511719</ele>
        <time>2023-07-20T05:31:35.000Z</time>
      </trkpt>
      <trkpt lat="42.59504" lon="1.78772">
        <ele>1851.5999755859</ele>
        <time>2023-07-20T05:31:39.000Z</time>
      </trkpt>
      <trkpt lat="42.59503" lon="1.78775">
        <ele>1852.4000244141</ele>
        <time>2023-07-20T05:31:46.000Z</time>
      </trkpt>
      <trkpt lat="42.59502" lon="1.78775">
        <ele>1852.5999755859</ele>
        <time>2023-07-20T05:31:47.000Z</time>
      </trkpt>
      <trkpt lat="42.59503" lon="1.78777">
        <ele>1853.4000244141</ele>
        <time>2023-07-20T05:31:55.000Z</time>
      </trkpt>
      <trkpt lat="42.59509" lon="1.78777">
        <ele>1854.5999755859</ele>
        <time>2023-07-20T05:32:03.000Z</time>
      </trkpt>
      <trkpt lat="42.5951" lon="1.78777">
        <ele>1854.5999755859</ele>
        <time>2023-07-20T05:32:04.000Z</time>
      </trkpt>
      <trkpt lat="42.59516" lon="1.78775">
        <ele>1855.5999755859</ele>
        <time>2023-07-20T05:32:12.000Z</time>
      </trkpt>
      <trkpt lat="42.59517" lon="1.78774">
        <ele>1855.8000488281</ele>
        <time>2023-07-20T05:32:13.000Z</time>
      </trkpt>
      <trkpt lat="42.5952" lon="1.78775">
        <ele>1856.5999755859</ele>
        <time>2023-07-20T05:32:19.000Z</time>
      </trkpt>
      <trkpt lat="42.59522" lon="1.78775">
        <ele>1857</ele>
        <time>2023-07-20T05:32:22.000Z</time>
      </trkpt>
      <trkpt lat="42.59524" lon="1.78773">
        <ele>1857.8000488281</ele>
        <time>2023-07-20T05:32:27.000Z</time>
      </trkpt>
      <trkpt lat="42.59525" lon="1.7877">
        <ele>1858.1999511719</ele>
        <time>2023-07-20T05:32:31.000Z</time>
      </trkpt>
      <trkpt lat="42.59525" lon="1.78765">
        <ele>1858.8000488281</ele>
        <time>2023-07-20T05:32:36.000Z</time>
      </trkpt>
      <trkpt lat="42.59525" lon="1.78763">
        <ele>1859</ele>
        <time>2023-07-20T05:32:38.000Z</time>
      </trkpt>
      <trkpt lat="42.59527" lon="1.78757">
        <ele>1859.8000488281</ele>
        <time>2023-07-20T05:32:46.000Z</time>
      </trkpt>
      <trkpt lat="42.59528" lon="1.78757">
        <ele>1859.8000488281</ele>
        <time>2023-07-20T05:32:47.000Z</time>
      </trkpt>
      <trkpt lat="42.59529" lon="1.78758">
        <ele>1860</ele>
        <time>2023-07-20T05:32:50.000Z</time>
      </trkpt>
      <trkpt lat="42.59531" lon="1.78758">
        <ele>1860.4000244141</ele>
        <time>2023-07-20T05:32:54.000Z</time>
      </trkpt>
      <trkpt lat="42.59533" lon="1.78757">
        <ele>1861</ele>
        <time>2023-07-20T05:32:57.000Z</time>
      </trkpt>
      <trkpt lat="42.59535" lon="1.78755">
        <ele>1862</ele>
        <time>2023-07-20T05:33:03.000Z</time>
      </trkpt>
      <trkpt lat="42.59535" lon="1.78755">
        <ele>1862</ele>
        <time>2023-07-20T05:33:04.000Z</time>
      </trkpt>
      <trkpt lat="42.59535" lon="1.78754">
        <ele>1862.8000488281</ele>
        <time>2023-07-20T05:33:12.000Z</time>
      </trkpt>
      <trkpt lat="42.59536" lon="1.78753">
        <ele>1863</ele>
        <time>2023-07-20T05:33:13.000Z</time>
      </trkpt>
      <trkpt lat="42.59541" lon="1.78752">
        <ele>1863.8000488281</ele>
        <time>2023-07-20T05:33:20.000Z</time>
      </trkpt>
      <trkpt lat="42.59542" lon="1.78751">
        <ele>1864</ele>
        <time>2023-07-20T05:33:22.000Z</time>
      </trkpt>
      <trkpt lat="42.59545" lon="1.78748">
        <ele>1864.8000488281</ele>
        <time>2023-07-20T05:33:28.000Z</time>
      </trkpt>
      <trkpt lat="42.59543" lon="1.78748">
        <ele>1864.8000488281</ele>
        <time>2023-07-20T05:33:36.000Z</time>
      </trkpt>
      <trkpt lat="42.59547" lon="1.7875">
        <ele>1864.5999755859</ele>
        <time>2023-07-20T05:33:46.000Z</time>
      </trkpt>
      <trkpt lat="42.59547" lon="1.78751">
        <ele>1864.5999755859</ele>
        <time>2023-07-20T05:33:53.000Z</time>
      </trkpt>
      <trkpt lat="42.59549" lon="1.78747">
        <ele>1865.1999511719</ele>
        <time>2023-07-20T05:33:59.000Z</time>
      </trkpt>
      <trkpt lat="42.59551" lon="1.78747">
        <ele>1865.4000244141</ele>
        <time>2023-07-20T05:34:01.000Z</time>
      </trkpt>
      <trkpt lat="42.59554" lon="1.78747">
        <ele>1866.1999511719</ele>
        <time>2023-07-20T05:34:06.000Z</time>
      </trkpt>
      <trkpt lat="42.59555" lon="1.78746">
        <ele>1866.5999755859</ele>
        <time>2023-07-20T05:34:08.000Z</time>
      </trkpt>
      <trkpt lat="42.59556" lon="1.78744">
        <ele>1867.4000244141</ele>
        <time>2023-07-20T05:34:12.000Z</time>
      </trkpt>
      <trkpt lat="42.59558" lon="1.78743">
        <ele>1867.8000488281</ele>
        <time>2023-07-20T05:34:15.000Z</time>
      </trkpt>
      <trkpt lat="42.59561" lon="1.78741">
        <ele>1868.4000244141</ele>
        <time>2023-07-20T05:34:21.000Z</time>
      </trkpt>
      <trkpt lat="42.59562" lon="1.78741">
        <ele>1868.5999755859</ele>
        <time>2023-07-20T05:34:22.000Z</time>
      </trkpt>
      <trkpt lat="42.59565" lon="1.7874">
        <ele>1869.5999755859</ele>
        <time>2023-07-20T05:34:28.000Z</time>
      </trkpt>
      <trkpt lat="42.59565" lon="1.7874">
        <ele>1870</ele>
        <time>2023-07-20T05:34:30.000Z</time>
      </trkpt>
      <trkpt lat="42.59568" lon="1.78741">
        <ele>1870.5999755859</ele>
        <time>2023-07-20T05:34:35.000Z</time>
      </trkpt>
      <trkpt lat="42.59569" lon="1.7874">
        <ele>1871</ele>
        <time>2023-07-20T05:34:38.000Z</time>
      </trkpt>
      <trkpt lat="42.59572" lon="1.78739">
        <ele>1871.8000488281</ele>
        <time>2023-07-20T05:34:42.000Z</time>
      </trkpt>
      <trkpt lat="42.59576" lon="1.78737">
        <ele>1872.4000244141</ele>
        <time>2023-07-20T05:34:48.000Z</time>
      </trkpt>
      <trkpt lat="42.59577" lon="1.78736">
        <ele>1872.8000488281</ele>
        <time>2023-07-20T05:34:51.000Z</time>
      </trkpt>
      <trkpt lat="42.59579" lon="1.78737">
        <ele>1873.4000244141</ele>
        <time>2023-07-20T05:34:57.000Z</time>
      </trkpt>
      <trkpt lat="42.59582" lon="1.78735">
        <ele>1873.8000488281</ele>
        <time>2023-07-20T05:35:01.000Z</time>
      </trkpt>
      <trkpt lat="42.59585" lon="1.78732">
        <ele>1874.4000244141</ele>
        <time>2023-07-20T05:35:07.000Z</time>
      </trkpt>
      <trkpt lat="42.59587" lon="1.78729">
        <ele>1874.8000488281</ele>
        <time>2023-07-20T05:35:11.000Z</time>
      </trkpt>
      <trkpt lat="42.59589" lon="1.78729">
        <ele>1875</ele>
        <time>2023-07-20T05:35:14.000Z</time>
      </trkpt>
      <trkpt lat="42.59592" lon="1.78729">
        <ele>1876</ele>
        <time>2023-07-20T05:35:20.000Z</time>
      </trkpt>
      <trkpt lat="42.59593" lon="1.78728">
        <ele>1876.1999511719</ele>
        <time>2023-07-20T05:35:21.000Z</time>
      </trkpt>
      <trkpt lat="42.59595" lon="1.78727">
        <ele>1877</ele>
        <time>2023-07-20T05:35:27.000Z</time>
      </trkpt>
      <trkpt lat="42.59596" lon="1.78728">
        <ele>1877.4000244141</ele>
        <time>2023-07-20T05:35:30.000Z</time>
      </trkpt>
      <trkpt lat="42.59597" lon="1.7873">
        <ele>1878</ele>
        <time>2023-07-20T05:35:36.000Z</time>
      </trkpt>
      <trkpt lat="42.59599" lon="1.78731">
        <ele>1878.1999511719</ele>
        <time>2023-07-20T05:35:38.000Z</time>
      </trkpt>
      <trkpt lat="42.59603" lon="1.78734">
        <ele>1878.8000488281</ele>
        <time>2023-07-20T05:35:46.000Z</time>
      </trkpt>
      <trkpt lat="42.59608" lon="1.78737">
        <ele>1879.1999511719</ele>
        <time>2023-07-20T05:35:51.000Z</time>
      </trkpt>
      <trkpt lat="42.5961" lon="1.78739">
        <ele>1879.1999511719</ele>
        <time>2023-07-20T05:35:53.000Z</time>
      </trkpt>
      <trkpt lat="42.59615" lon="1.78741">
        <ele>1879.8000488281</ele>
        <time>2023-07-20T05:36:01.000Z</time>
      </trkpt>
      <trkpt lat="42.59617" lon="1.78741">
        <ele>1880.1999511719</ele>
        <time>2023-07-20T05:36:04.000Z</time>
      </trkpt>
      <trkpt lat="42.59623" lon="1.78741">
        <ele>1880.5999755859</ele>
        <time>2023-07-20T05:36:10.000Z</time>
      </trkpt>
      <trkpt lat="42.59627" lon="1.78741">
        <ele>1881</ele>
        <time>2023-07-20T05:36:18.000Z</time>
      </trkpt>
      <trkpt lat="42.5963" lon="1.7874">
        <ele>1881.4000244141</ele>
        <time>2023-07-20T05:36:24.000Z</time>
      </trkpt>
      <trkpt lat="42.59633" lon="1.7874">
        <ele>1882.4000244141</ele>
        <time>2023-07-20T05:36:32.000Z</time>
      </trkpt>
      <trkpt lat="42.59634" lon="1.7874">
        <ele>1882.5999755859</ele>
        <time>2023-07-20T05:36:34.000Z</time>
      </trkpt>
      <trkpt lat="42.59637" lon="1.7874">
        <ele>1883.4000244141</ele>
        <time>2023-07-20T05:36:38.000Z</time>
      </trkpt>
      <trkpt lat="42.59638" lon="1.78741">
        <ele>1883.8000488281</ele>
        <time>2023-07-20T05:36:40.000Z</time>
      </trkpt>
      <trkpt lat="42.5964" lon="1.78742">
        <ele>1884.4000244141</ele>
        <time>2023-07-20T05:36:44.000Z</time>
      </trkpt>
      <trkpt lat="42.59642" lon="1.78745">
        <ele>1885.1999511719</ele>
        <time>2023-07-20T05:36:50.000Z</time>
      </trkpt>
      <trkpt lat="42.59643" lon="1.78745">
        <ele>1885.5999755859</ele>
        <time>2023-07-20T05:36:52.000Z</time>
      </trkpt>
      <trkpt lat="42.59645" lon="1.78743">
        <ele>1886.1999511719</ele>
        <time>2023-07-20T05:36:57.000Z</time>
      </trkpt>
      <trkpt lat="42.59646" lon="1.78742">
        <ele>1886.5999755859</ele>
        <time>2023-07-20T05:37:01.000Z</time>
      </trkpt>
      <trkpt lat="42.59647" lon="1.7874">
        <ele>1887.1999511719</ele>
        <time>2023-07-20T05:37:07.000Z</time>
      </trkpt>
      <trkpt lat="42.59648" lon="1.78739">
        <ele>1887.5999755859</ele>
        <time>2023-07-20T05:37:09.000Z</time>
      </trkpt>
      <trkpt lat="42.59653" lon="1.78736">
        <ele>1888.8000488281</ele>
        <time>2023-07-20T05:37:17.000Z</time>
      </trkpt>
      <trkpt lat="42.59655" lon="1.78733">
        <ele>1889.5999755859</ele>
        <time>2023-07-20T05:37:24.000Z</time>
      </trkpt>
      <trkpt lat="42.59655" lon="1.78733">
        <ele>1889.8000488281</ele>
        <time>2023-07-20T05:37:26.000Z</time>
      </trkpt>
      <trkpt lat="42.59657" lon="1.78731">
        <ele>1890.8000488281</ele>
        <time>2023-07-20T05:37:34.000Z</time>
      </trkpt>
      <trkpt lat="42.59658" lon="1.7873">
        <ele>1891</ele>
        <time>2023-07-20T05:37:36.000Z</time>
      </trkpt>
      <trkpt lat="42.5966" lon="1.7873">
        <ele>1891.5999755859</ele>
        <time>2023-07-20T05:37:42.000Z</time>
      </trkpt>
      <trkpt lat="42.59661" lon="1.7873">
        <ele>1892</ele>
        <time>2023-07-20T05:37:44.000Z</time>
      </trkpt>
      <trkpt lat="42.59663" lon="1.78729">
        <ele>1892.8000488281</ele>
        <time>2023-07-20T05:37:50.000Z</time>
      </trkpt>
      <trkpt lat="42.59666" lon="1.78728">
        <ele>1893</ele>
        <time>2023-07-20T05:37:53.000Z</time>
      </trkpt>
      <trkpt lat="42.59669" lon="1.78724">
        <ele>1893.5999755859</ele>
        <time>2023-07-20T05:37:58.000Z</time>
      </trkpt>
      <trkpt lat="42.5967" lon="1.78722">
        <ele>1894</ele>
        <time>2023-07-20T05:38:01.000Z</time>
      </trkpt>
      <trkpt lat="42.59672" lon="1.78719">
        <ele>1894.8000488281</ele>
        <time>2023-07-20T05:38:06.000Z</time>
      </trkpt>
      <trkpt lat="42.59673" lon="1.78718">
        <ele>1895</ele>
        <time>2023-07-20T05:38:08.000Z</time>
      </trkpt>
      <trkpt lat="42.59674" lon="1.78716">
        <ele>1895.5999755859</ele>
        <time>2023-07-20T05:38:14.000Z</time>
      </trkpt>
      <trkpt lat="42.59674" lon="1.78713">
        <ele>1895.8000488281</ele>
        <time>2023-07-20T05:38:19.000Z</time>
      </trkpt>
      <trkpt lat="42.59678" lon="1.78708">
        <ele>1896</ele>
        <time>2023-07-20T05:38:27.000Z</time>
      </trkpt>
      <trkpt lat="42.59678" lon="1.78708">
        <ele>1896.1999511719</ele>
        <time>2023-07-20T05:38:28.000Z</time>
      </trkpt>
      <trkpt lat="42.59686" lon="1.78706">
        <ele>1897</ele>
        <time>2023-07-20T05:38:36.000Z</time>
      </trkpt>
      <trkpt lat="42.59687" lon="1.78703">
        <ele>1897.1999511719</ele>
        <time>2023-07-20T05:38:40.000Z</time>
      </trkpt>
      <trkpt lat="42.59688" lon="1.78698">
        <ele>1897.4000244141</ele>
        <time>2023-07-20T05:38:44.000Z</time>
      </trkpt>
      <trkpt lat="42.59692" lon="1.78693">
        <ele>1897.8000488281</ele>
        <time>2023-07-20T05:38:52.000Z</time>
      </trkpt>
      <trkpt lat="42.59695" lon="1.78691">
        <ele>1898.1999511719</ele>
        <time>2023-07-20T05:38:56.000Z</time>
      </trkpt>
      <trkpt lat="42.59697" lon="1.78687">
        <ele>1898.8000488281</ele>
        <time>2023-07-20T05:39:02.000Z</time>
      </trkpt>
      <trkpt lat="42.59699" lon="1.78686">
        <ele>1899.4000244141</ele>
        <time>2023-07-20T05:39:05.000Z</time>
      </trkpt>
      <trkpt lat="42.59702" lon="1.78685">
        <ele>1900</ele>
        <time>2023-07-20T05:39:10.000Z</time>
      </trkpt>
      <trkpt lat="42.59704" lon="1.78684">
        <ele>1900.4000244141</ele>
        <time>2023-07-20T05:39:13.000Z</time>
      </trkpt>
      <trkpt lat="42.59708" lon="1.78683">
        <ele>1901.1999511719</ele>
        <time>2023-07-20T05:39:19.000Z</time>
      </trkpt>
      <trkpt lat="42.5971" lon="1.78681">
        <ele>1901.5999755859</ele>
        <time>2023-07-20T05:39:22.000Z</time>
      </trkpt>
      <trkpt lat="42.5971" lon="1.78679">
        <ele>1902</ele>
        <time>2023-07-20T05:39:25.000Z</time>
      </trkpt>
      <trkpt lat="42.59711" lon="1.78674">
        <ele>1902.5999755859</ele>
        <time>2023-07-20T05:39:30.000Z</time>
      </trkpt>
      <trkpt lat="42.59712" lon="1.78672">
        <ele>1903</ele>
        <time>2023-07-20T05:39:33.000Z</time>
      </trkpt>
      <trkpt lat="42.59715" lon="1.78669">
        <ele>1903.8000488281</ele>
        <time>2023-07-20T05:39:38.000Z</time>
      </trkpt>
      <trkpt lat="42.59716" lon="1.78666">
        <ele>1904</ele>
        <time>2023-07-20T05:39:41.000Z</time>
      </trkpt>
      <trkpt lat="42.59717" lon="1.78663">
        <ele>1904.8000488281</ele>
        <time>2023-07-20T05:39:46.000Z</time>
      </trkpt>
      <trkpt lat="42.5972" lon="1.78664">
        <ele>1905.4000244141</ele>
        <time>2023-07-20T05:39:50.000Z</time>
      </trkpt>
      <trkpt lat="42.59722" lon="1.78665">
        <ele>1905.8000488281</ele>
        <time>2023-07-20T05:39:54.000Z</time>
      </trkpt>
      <trkpt lat="42.59726" lon="1.78664">
        <ele>1907</ele>
        <time>2023-07-20T05:40:00.000Z</time>
      </trkpt>
      <trkpt lat="42.59728" lon="1.78662">
        <ele>1908</ele>
        <time>2023-07-20T05:40:06.000Z</time>
      </trkpt>
      <trkpt lat="42.59729" lon="1.78655">
        <ele>1909</ele>
        <time>2023-07-20T05:40:14.000Z</time>
      </trkpt>
      <trkpt lat="42.5973" lon="1.78655">
        <ele>1909</ele>
        <time>2023-07-20T05:40:15.000Z</time>
      </trkpt>
      <trkpt lat="42.59731" lon="1.78655">
        <ele>1910</ele>
        <time>2023-07-20T05:40:23.000Z</time>
      </trkpt>
      <trkpt lat="42.59732" lon="1.78655">
        <ele>1910.1999511719</ele>
        <time>2023-07-20T05:40:24.000Z</time>
      </trkpt>
      <trkpt lat="42.59735" lon="1.78655">
        <ele>1911</ele>
        <time>2023-07-20T05:40:30.000Z</time>
      </trkpt>
      <trkpt lat="42.59735" lon="1.78655">
        <ele>1911.1999511719</ele>
        <time>2023-07-20T05:40:32.000Z</time>
      </trkpt>
      <trkpt lat="42.59739" lon="1.78657">
        <ele>1912</ele>
        <time>2023-07-20T05:40:39.000Z</time>
      </trkpt>
      <trkpt lat="42.59742" lon="1.78659">
        <ele>1912.1999511719</ele>
        <time>2023-07-20T05:40:44.000Z</time>
      </trkpt>
      <trkpt lat="42.59746" lon="1.7866">
        <ele>1912.5999755859</ele>
        <time>2023-07-20T05:40:48.000Z</time>
      </trkpt>
      <trkpt lat="42.59748" lon="1.78662">
        <ele>1913.1999511719</ele>
        <time>2023-07-20T05:40:52.000Z</time>
      </trkpt>
      <trkpt lat="42.5975" lon="1.78663">
        <ele>1913.8000488281</ele>
        <time>2023-07-20T05:40:56.000Z</time>
      </trkpt>
      <trkpt lat="42.59752" lon="1.78664">
        <ele>1914.4000244141</ele>
        <time>2023-07-20T05:40:59.000Z</time>
      </trkpt>
      <trkpt lat="42.59755" lon="1.78663">
        <ele>1915.4000244141</ele>
        <time>2023-07-20T05:41:05.000Z</time>
      </trkpt>
      <trkpt lat="42.59756" lon="1.78663">
        <ele>1915.4000244141</ele>
        <time>2023-07-20T05:41:06.000Z</time>
      </trkpt>
      <trkpt lat="42.59758" lon="1.78659">
        <ele>1916.5999755859</ele>
        <time>2023-07-20T05:41:11.000Z</time>
      </trkpt>
      <trkpt lat="42.59759" lon="1.78657">
        <ele>1917</ele>
        <time>2023-07-20T05:41:15.000Z</time>
      </trkpt>
      <trkpt lat="42.5976" lon="1.78657">
        <ele>1917.5999755859</ele>
        <time>2023-07-20T05:41:18.000Z</time>
      </trkpt>
      <trkpt lat="42.59763" lon="1.78656">
        <ele>1918.1999511719</ele>
        <time>2023-07-20T05:41:24.000Z</time>
      </trkpt>
      <trkpt lat="42.59762" lon="1.78655">
        <ele>1918.4000244141</ele>
        <time>2023-07-20T05:41:26.000Z</time>
      </trkpt>
      <trkpt lat="42.59761" lon="1.78653">
        <ele>1918.8000488281</ele>
        <time>2023-07-20T05:41:29.000Z</time>
      </trkpt>
      <trkpt lat="42.59761" lon="1.7865">
        <ele>1919.1999511719</ele>
        <time>2023-07-20T05:41:31.000Z</time>
      </trkpt>
      <trkpt lat="42.59764" lon="1.78648">
        <ele>1919.8000488281</ele>
        <time>2023-07-20T05:41:36.000Z</time>
      </trkpt>
      <trkpt lat="42.59767" lon="1.78647">
        <ele>1920.1999511719</ele>
        <time>2023-07-20T05:41:39.000Z</time>
      </trkpt>
      <trkpt lat="42.59772" lon="1.78644">
        <ele>1920.8000488281</ele>
        <time>2023-07-20T05:41:45.000Z</time>
      </trkpt>
      <trkpt lat="42.59772" lon="1.78644">
        <ele>1921.1999511719</ele>
        <time>2023-07-20T05:41:47.000Z</time>
      </trkpt>
      <trkpt lat="42.59775" lon="1.78644">
        <ele>1922</ele>
        <time>2023-07-20T05:41:52.000Z</time>
      </trkpt>
      <trkpt lat="42.59776" lon="1.78643">
        <ele>1922.4000244141</ele>
        <time>2023-07-20T05:41:56.000Z</time>
      </trkpt>
      <trkpt lat="42.59777" lon="1.78641">
        <ele>1923</ele>
        <time>2023-07-20T05:42:00.000Z</time>
      </trkpt>
      <trkpt lat="42.59778" lon="1.78638">
        <ele>1923.4000244141</ele>
        <time>2023-07-20T05:42:03.000Z</time>
      </trkpt>
      <trkpt lat="42.59778" lon="1.78634">
        <ele>1924.1999511719</ele>
        <time>2023-07-20T05:42:07.000Z</time>
      </trkpt>
      <trkpt lat="42.59778" lon="1.7863">
        <ele>1924.8000488281</ele>
        <time>2023-07-20T05:42:12.000Z</time>
      </trkpt>
      <trkpt lat="42.59779" lon="1.78629">
        <ele>1925.1999511719</ele>
        <time>2023-07-20T05:42:15.000Z</time>
      </trkpt>
      <trkpt lat="42.59779" lon="1.78624">
        <ele>1925.8000488281</ele>
        <time>2023-07-20T05:42:20.000Z</time>
      </trkpt>
      <trkpt lat="42.5978" lon="1.7862">
        <ele>1926.4000244141</ele>
        <time>2023-07-20T05:42:23.000Z</time>
      </trkpt>
      <trkpt lat="42.59781" lon="1.78617">
        <ele>1927</ele>
        <time>2023-07-20T05:42:29.000Z</time>
      </trkpt>
      <trkpt lat="42.59781" lon="1.78617">
        <ele>1927.4000244141</ele>
        <time>2023-07-20T05:42:31.000Z</time>
      </trkpt>
      <trkpt lat="42.59783" lon="1.78614">
        <ele>1928</ele>
        <time>2023-07-20T05:42:37.000Z</time>
      </trkpt>
      <trkpt lat="42.59784" lon="1.78612">
        <ele>1928.4000244141</ele>
        <time>2023-07-20T05:42:39.000Z</time>
      </trkpt>
      <trkpt lat="42.59783" lon="1.7861">
        <ele>1929</ele>
        <time>2023-07-20T05:42:45.000Z</time>
      </trkpt>
      <trkpt lat="42.59781" lon="1.78609">
        <ele>1929.4000244141</ele>
        <time>2023-07-20T05:42:48.000Z</time>
      </trkpt>
      <trkpt lat="42.5978" lon="1.78608">
        <ele>1930.4000244141</ele>
        <time>2023-07-20T05:42:55.000Z</time>
      </trkpt>
      <trkpt lat="42.5978" lon="1.78607">
        <ele>1930.5999755859</ele>
        <time>2023-07-20T05:42:56.000Z</time>
      </trkpt>
      <trkpt lat="42.59781" lon="1.78603">
        <ele>1931.4000244141</ele>
        <time>2023-07-20T05:43:03.000Z</time>
      </trkpt>
      <trkpt lat="42.59781" lon="1.78602">
        <ele>1931.5999755859</ele>
        <time>2023-07-20T05:43:04.000Z</time>
      </trkpt>
      <trkpt lat="42.59784" lon="1.78597">
        <ele>1932.1999511719</ele>
        <time>2023-07-20T05:43:11.000Z</time>
      </trkpt>
      <trkpt lat="42.59784" lon="1.78596">
        <ele>1932.5999755859</ele>
        <time>2023-07-20T05:43:14.000Z</time>
      </trkpt>
      <trkpt lat="42.59784" lon="1.78596">
        <ele>1932.8000488281</ele>
        <time>2023-07-20T05:43:15.000Z</time>
      </trkpt>
      <trkpt lat="42.59782" lon="1.78597">
        <ele>1933.4000244141</ele>
        <time>2023-07-20T05:43:20.000Z</time>
      </trkpt>
      <trkpt lat="42.59781" lon="1.78598">
        <ele>1933.8000488281</ele>
        <time>2023-07-20T05:43:24.000Z</time>
      </trkpt>
      <trkpt lat="42.5978" lon="1.78597">
        <ele>1934.1999511719</ele>
        <time>2023-07-20T05:43:27.000Z</time>
      </trkpt>
      <trkpt lat="42.59777" lon="1.78597">
        <ele>1934.8000488281</ele>
        <time>2023-07-20T05:43:32.000Z</time>
      </trkpt>
      <trkpt lat="42.59775" lon="1.78598">
        <ele>1935</ele>
        <time>2023-07-20T05:43:34.000Z</time>
      </trkpt>
      <trkpt lat="42.59773" lon="1.78593">
        <ele>1936</ele>
        <time>2023-07-20T05:43:42.000Z</time>
      </trkpt>
      <trkpt lat="42.59773" lon="1.78591">
        <ele>1936.1999511719</ele>
        <time>2023-07-20T05:43:44.000Z</time>
      </trkpt>
      <trkpt lat="42.59774" lon="1.78589">
        <ele>1937</ele>
        <time>2023-07-20T05:43:50.000Z</time>
      </trkpt>
      <trkpt lat="42.59774" lon="1.7859">
        <ele>1937</ele>
        <time>2023-07-20T05:43:52.000Z</time>
      </trkpt>
      <trkpt lat="42.59778" lon="1.78587">
        <ele>1937.5999755859</ele>
        <time>2023-07-20T05:43:59.000Z</time>
      </trkpt>
      <trkpt lat="42.59781" lon="1.78587">
        <ele>1938</ele>
        <time>2023-07-20T05:44:04.000Z</time>
      </trkpt>
      <trkpt lat="42.59782" lon="1.78587">
        <ele>1938.4000244141</ele>
        <time>2023-07-20T05:44:07.000Z</time>
      </trkpt>
      <trkpt lat="42.59784" lon="1.78585">
        <ele>1939.1999511719</ele>
        <time>2023-07-20T05:44:12.000Z</time>
      </trkpt>
      <trkpt lat="42.59784" lon="1.78583">
        <ele>1939.5999755859</ele>
        <time>2023-07-20T05:44:15.000Z</time>
      </trkpt>
      <trkpt lat="42.59781" lon="1.7858">
        <ele>1940.1999511719</ele>
        <time>2023-07-20T05:44:19.000Z</time>
      </trkpt>
      <trkpt lat="42.59779" lon="1.78578">
        <ele>1940.5999755859</ele>
        <time>2023-07-20T05:44:22.000Z</time>
      </trkpt>
      <trkpt lat="42.59778" lon="1.78574">
        <ele>1941.1999511719</ele>
        <time>2023-07-20T05:44:27.000Z</time>
      </trkpt>
      <trkpt lat="42.59777" lon="1.78574">
        <ele>1941.5999755859</ele>
        <time>2023-07-20T05:44:30.000Z</time>
      </trkpt>
      <trkpt lat="42.59777" lon="1.78571">
        <ele>1942.1999511719</ele>
        <time>2023-07-20T05:44:34.000Z</time>
      </trkpt>
      <trkpt lat="42.59777" lon="1.7857">
        <ele>1942.5999755859</ele>
        <time>2023-07-20T05:44:37.000Z</time>
      </trkpt>
      <trkpt lat="42.59777" lon="1.78566">
        <ele>1943.4000244141</ele>
        <time>2023-07-20T05:44:42.000Z</time>
      </trkpt>
      <trkpt lat="42.59777" lon="1.78563">
        <ele>1944</ele>
        <time>2023-07-20T05:44:46.000Z</time>
      </trkpt>
      <trkpt lat="42.59778" lon="1.78562">
        <ele>1944.4000244141</ele>
        <time>2023-07-20T05:44:49.000Z</time>
      </trkpt>
      <trkpt lat="42.5978" lon="1.78559">
        <ele>1945.1999511719</ele>
        <time>2023-07-20T05:44:55.000Z</time>
      </trkpt>
      <trkpt lat="42.59781" lon="1.78556">
        <ele>1945.5999755859</ele>
        <time>2023-07-20T05:44:58.000Z</time>
      </trkpt>
      <trkpt lat="42.59785" lon="1.78552">
        <ele>1946.4000244141</ele>
        <time>2023-07-20T05:45:05.000Z</time>
      </trkpt>
      <trkpt lat="42.59786" lon="1.7855">
        <ele>1946.5999755859</ele>
        <time>2023-07-20T05:45:07.000Z</time>
      </trkpt>
      <trkpt lat="42.59789" lon="1.78547">
        <ele>1947.1999511719</ele>
        <time>2023-07-20T05:45:13.000Z</time>
      </trkpt>
      <trkpt lat="42.59791" lon="1.78546">
        <ele>1947.8000488281</ele>
        <time>2023-07-20T05:45:16.000Z</time>
      </trkpt>
      <trkpt lat="42.59795" lon="1.78544">
        <ele>1948.1999511719</ele>
        <time>2023-07-20T05:45:21.000Z</time>
      </trkpt>
      <trkpt lat="42.598" lon="1.78542">
        <ele>1948.8000488281</ele>
        <time>2023-07-20T05:45:27.000Z</time>
      </trkpt>
      <trkpt lat="42.59803" lon="1.7854">
        <ele>1949.1999511719</ele>
        <time>2023-07-20T05:45:31.000Z</time>
      </trkpt>
      <trkpt lat="42.59806" lon="1.78536">
        <ele>1949.8000488281</ele>
        <time>2023-07-20T05:45:36.000Z</time>
      </trkpt>
      <trkpt lat="42.59807" lon="1.78534">
        <ele>1950.4000244141</ele>
        <time>2023-07-20T05:45:39.000Z</time>
      </trkpt>
      <trkpt lat="42.59809" lon="1.78532">
        <ele>1951</ele>
        <time>2023-07-20T05:45:43.000Z</time>
      </trkpt>
      <trkpt lat="42.59812" lon="1.78531">
        <ele>1951.5999755859</ele>
        <time>2023-07-20T05:45:48.000Z</time>
      </trkpt>
      <trkpt lat="42.59813" lon="1.7853">
        <ele>1952</ele>
        <time>2023-07-20T05:45:50.000Z</time>
      </trkpt>
      <trkpt lat="42.59815" lon="1.78526">
        <ele>1953</ele>
        <time>2023-07-20T05:45:56.000Z</time>
      </trkpt>
      <trkpt lat="42.59815" lon="1.78526">
        <ele>1953.1999511719</ele>
        <time>2023-07-20T05:45:57.000Z</time>
      </trkpt>
      <trkpt lat="42.59818" lon="1.78523">
        <ele>1954.1999511719</ele>
        <time>2023-07-20T05:46:03.000Z</time>
      </trkpt>
      <trkpt lat="42.59819" lon="1.78523">
        <ele>1954.4000244141</ele>
        <time>2023-07-20T05:46:05.000Z</time>
      </trkpt>
      <trkpt lat="42.59821" lon="1.7852">
        <ele>1955.4000244141</ele>
        <time>2023-07-20T05:46:11.000Z</time>
      </trkpt>
      <trkpt lat="42.5982" lon="1.78514">
        <ele>1956.1999511719</ele>
        <time>2023-07-20T05:46:19.000Z</time>
      </trkpt>
      <trkpt lat="42.5982" lon="1.78513">
        <ele>1956.4000244141</ele>
        <time>2023-07-20T05:46:20.000Z</time>
      </trkpt>
      <trkpt lat="42.59821" lon="1.78511">
        <ele>1957.4000244141</ele>
        <time>2023-07-20T05:46:27.000Z</time>
      </trkpt>
      <trkpt lat="42.59821" lon="1.78511">
        <ele>1957.4000244141</ele>
        <time>2023-07-20T05:46:28.000Z</time>
      </trkpt>
      <trkpt lat="42.59821" lon="1.78511">
        <ele>1957.4000244141</ele>
        <time>2023-07-20T05:46:33.000Z</time>
      </trkpt>
      <trkpt lat="42.59818" lon="1.78511">
        <ele>1957.8000488281</ele>
        <time>2023-07-20T05:46:40.000Z</time>
      </trkpt>
      <trkpt lat="42.5982" lon="1.78508">
        <ele>1958.4000244141</ele>
        <time>2023-07-20T05:46:46.000Z</time>
      </trkpt>
      <trkpt lat="42.59821" lon="1.78507">
        <ele>1958.4000244141</ele>
        <time>2023-07-20T05:46:47.000Z</time>
      </trkpt>
      <trkpt lat="42.59823" lon="1.78502">
        <ele>1959.5999755859</ele>
        <time>2023-07-20T05:46:55.000Z</time>
      </trkpt>
      <trkpt lat="42.59826" lon="1.78496">
        <ele>1960.4000244141</ele>
        <time>2023-07-20T05:47:02.000Z</time>
      </trkpt>
      <trkpt lat="42.59827" lon="1.78494">
        <ele>1960.5999755859</ele>
        <time>2023-07-20T05:47:05.000Z</time>
      </trkpt>
      <trkpt lat="42.5983" lon="1.78491">
        <ele>1960.8000488281</ele>
        <time>2023-07-20T05:47:09.000Z</time>
      </trkpt>
      <trkpt lat="42.59838" lon="1.78485">
        <ele>1961</ele>
        <time>2023-07-20T05:47:17.000Z</time>
      </trkpt>
      <trkpt lat="42.59846" lon="1.78477">
        <ele>1961.4000244141</ele>
        <time>2023-07-20T05:47:26.000Z</time>
      </trkpt>
      <trkpt lat="42.59851" lon="1.78476">
        <ele>1961.5999755859</ele>
        <time>2023-07-20T05:47:30.000Z</time>
      </trkpt>
      <trkpt lat="42.59853" lon="1.78476">
        <ele>1961.8000488281</ele>
        <time>2023-07-20T05:47:34.000Z</time>
      </trkpt>
      <trkpt lat="42.59861" lon="1.78474">
        <ele>1962.5999755859</ele>
        <time>2023-07-20T05:47:43.000Z</time>
      </trkpt>
      <trkpt lat="42.59867" lon="1.78474">
        <ele>1963.1999511719</ele>
        <time>2023-07-20T05:47:51.000Z</time>
      </trkpt>
      <trkpt lat="42.59875" lon="1.78474">
        <ele>1963.5999755859</ele>
        <time>2023-07-20T05:47:59.000Z</time>
      </trkpt>
      <trkpt lat="42.59877" lon="1.78474">
        <ele>1963.8000488281</ele>
        <time>2023-07-20T05:48:01.000Z</time>
      </trkpt>
      <trkpt lat="42.59881" lon="1.78472">
        <ele>1964.1999511719</ele>
        <time>2023-07-20T05:48:07.000Z</time>
      </trkpt>
      <trkpt lat="42.59885" lon="1.78467">
        <ele>1964.8000488281</ele>
        <time>2023-07-20T05:48:13.000Z</time>
      </trkpt>
      <trkpt lat="42.59887" lon="1.78466">
        <ele>1964.8000488281</ele>
        <time>2023-07-20T05:48:15.000Z</time>
      </trkpt>
      <trkpt lat="42.59895" lon="1.78462">
        <ele>1964.8000488281</ele>
        <time>2023-07-20T05:48:23.000Z</time>
      </trkpt>
      <trkpt lat="42.599" lon="1.78454">
        <ele>1965</ele>
        <time>2023-07-20T05:48:31.000Z</time>
      </trkpt>
      <trkpt lat="42.59905" lon="1.78449">
        <ele>1965.5999755859</ele>
        <time>2023-07-20T05:48:39.000Z</time>
      </trkpt>
      <trkpt lat="42.59908" lon="1.78446">
        <ele>1965.8000488281</ele>
        <time>2023-07-20T05:48:43.000Z</time>
      </trkpt>
      <trkpt lat="42.59915" lon="1.7844">
        <ele>1965.8000488281</ele>
        <time>2023-07-20T05:48:50.000Z</time>
      </trkpt>
      <trkpt lat="42.59919" lon="1.78441">
        <ele>1966.4000244141</ele>
        <time>2023-07-20T05:48:57.000Z</time>
      </trkpt>
      <trkpt lat="42.59926" lon="1.78438">
        <ele>1966.8000488281</ele>
        <time>2023-07-20T05:49:04.000Z</time>
      </trkpt>
      <trkpt lat="42.59927" lon="1.78436">
        <ele>1966.8000488281</ele>
        <time>2023-07-20T05:49:06.000Z</time>
      </trkpt>
      <trkpt lat="42.59932" lon="1.78428">
        <ele>1967.1999511719</ele>
        <time>2023-07-20T05:49:14.000Z</time>
      </trkpt>
      <trkpt lat="42.59938" lon="1.78422">
        <ele>1967.8000488281</ele>
        <time>2023-07-20T05:49:22.000Z</time>
      </trkpt>
      <trkpt lat="42.59939" lon="1.78421">
        <ele>1967.8000488281</ele>
        <time>2023-07-20T05:49:23.000Z</time>
      </trkpt>
      <trkpt lat="42.59945" lon="1.78417">
        <ele>1968</ele>
        <time>2023-07-20T05:49:29.000Z</time>
      </trkpt>
      <trkpt lat="42.59948" lon="1.78414">
        <ele>1968.5999755859</ele>
        <time>2023-07-20T05:49:36.000Z</time>
      </trkpt>
      <trkpt lat="42.5995" lon="1.78412">
        <ele>1968.8000488281</ele>
        <time>2023-07-20T05:49:41.000Z</time>
      </trkpt>
      <trkpt lat="42.59954" lon="1.78408">
        <ele>1969.4000244141</ele>
        <time>2023-07-20T05:49:47.000Z</time>
      </trkpt>
      <trkpt lat="42.59958" lon="1.78405">
        <ele>1969.8000488281</ele>
        <time>2023-07-20T05:49:53.000Z</time>
      </trkpt>
      <trkpt lat="42.59959" lon="1.78403">
        <ele>1970.1999511719</ele>
        <time>2023-07-20T05:49:56.000Z</time>
      </trkpt>
      <trkpt lat="42.59963" lon="1.78395">
        <ele>1970.1999511719</ele>
        <time>2023-07-20T05:50:03.000Z</time>
      </trkpt>
      <trkpt lat="42.59966" lon="1.78391">
        <ele>1970.8000488281</ele>
        <time>2023-07-20T05:50:09.000Z</time>
      </trkpt>
      <trkpt lat="42.59967" lon="1.7839">
        <ele>1971</ele>
        <time>2023-07-20T05:50:10.000Z</time>
      </trkpt>
      <trkpt lat="42.59971" lon="1.78388">
        <ele>1972</ele>
        <time>2023-07-20T05:50:17.000Z</time>
      </trkpt>
      <trkpt lat="42.59972" lon="1.78387">
        <ele>1972</ele>
        <time>2023-07-20T05:50:18.000Z</time>
      </trkpt>
      <trkpt lat="42.59979" lon="1.78381">
        <ele>1972.4000244141</ele>
        <time>2023-07-20T05:50:25.000Z</time>
      </trkpt>
      <trkpt lat="42.59987" lon="1.78378">
        <ele>1972</ele>
        <time>2023-07-20T05:50:34.000Z</time>
      </trkpt>
      <trkpt lat="42.59993" lon="1.78376">
        <ele>1971.5999755859</ele>
        <time>2023-07-20T05:50:41.000Z</time>
      </trkpt>
      <trkpt lat="42.59999" lon="1.78373">
        <ele>1971.4000244141</ele>
        <time>2023-07-20T05:50:48.000Z</time>
      </trkpt>
      <trkpt lat="42.60003" lon="1.78368">
        <ele>1971.5999755859</ele>
        <time>2023-07-20T05:50:58.000Z</time>
      </trkpt>
      <trkpt lat="42.60009" lon="1.78359">
        <ele>1972.1999511719</ele>
        <time>2023-07-20T05:51:06.000Z</time>
      </trkpt>
      <trkpt lat="42.60013" lon="1.78352">
        <ele>1973.1999511719</ele>
        <time>2023-07-20T05:51:13.000Z</time>
      </trkpt>
      <trkpt lat="42.60013" lon="1.78352">
        <ele>1973.1999511719</ele>
        <time>2023-07-20T05:51:14.000Z</time>
      </trkpt>
      <trkpt lat="42.60014" lon="1.7835">
        <ele>1974.1999511719</ele>
        <time>2023-07-20T05:51:22.000Z</time>
      </trkpt>
      <trkpt lat="42.60014" lon="1.78351">
        <ele>1974.1999511719</ele>
        <time>2023-07-20T05:51:23.000Z</time>
      </trkpt>
      <trkpt lat="42.60014" lon="1.78351">
        <ele>1974.1999511719</ele>
        <time>2023-07-20T05:51:30.000Z</time>
      </trkpt>
      <trkpt lat="42.60018" lon="1.78346">
        <ele>1975.1999511719</ele>
        <time>2023-07-20T05:51:37.000Z</time>
      </trkpt>
      <trkpt lat="42.60022" lon="1.78344">
        <ele>1976.1999511719</ele>
        <time>2023-07-20T05:51:45.000Z</time>
      </trkpt>
      <trkpt lat="42.60023" lon="1.78345">
        <ele>1976.1999511719</ele>
        <time>2023-07-20T05:51:46.000Z</time>
      </trkpt>
      <trkpt lat="42.60027" lon="1.78345">
        <ele>1977.1999511719</ele>
        <time>2023-07-20T05:51:52.000Z</time>
      </trkpt>
      <trkpt lat="42.60027" lon="1.78345">
        <ele>1977.4000244141</ele>
        <time>2023-07-20T05:51:54.000Z</time>
      </trkpt>
      <trkpt lat="42.60028" lon="1.78342">
        <ele>1978.1999511719</ele>
        <time>2023-07-20T05:51:59.000Z</time>
      </trkpt>
      <trkpt lat="42.60029" lon="1.7834">
        <ele>1978.4000244141</ele>
        <time>2023-07-20T05:52:02.000Z</time>
      </trkpt>
      <trkpt lat="42.60031" lon="1.78338">
        <ele>1978.5999755859</ele>
        <time>2023-07-20T05:52:06.000Z</time>
      </trkpt>
      <trkpt lat="42.60034" lon="1.78332">
        <ele>1979.5999755859</ele>
        <time>2023-07-20T05:52:14.000Z</time>
      </trkpt>
      <trkpt lat="42.60034" lon="1.78331">
        <ele>1979.8000488281</ele>
        <time>2023-07-20T05:52:16.000Z</time>
      </trkpt>
      <trkpt lat="42.60036" lon="1.78327">
        <ele>1980.5999755859</ele>
        <time>2023-07-20T05:52:21.000Z</time>
      </trkpt>
      <trkpt lat="42.60038" lon="1.78326">
        <ele>1981.1999511719</ele>
        <time>2023-07-20T05:52:25.000Z</time>
      </trkpt>
      <trkpt lat="42.60039" lon="1.78322">
        <ele>1981.5999755859</ele>
        <time>2023-07-20T05:52:28.000Z</time>
      </trkpt>
      <trkpt lat="42.60042" lon="1.78317">
        <ele>1982.1999511719</ele>
        <time>2023-07-20T05:52:33.000Z</time>
      </trkpt>
      <trkpt lat="42.60043" lon="1.78315">
        <ele>1982.5999755859</ele>
        <time>2023-07-20T05:52:37.000Z</time>
      </trkpt>
      <trkpt lat="42.60045" lon="1.78313">
        <ele>1983.8000488281</ele>
        <time>2023-07-20T05:52:44.000Z</time>
      </trkpt>
      <trkpt lat="42.60046" lon="1.78308">
        <ele>1984.8000488281</ele>
        <time>2023-07-20T05:52:50.000Z</time>
      </trkpt>
      <trkpt lat="42.60047" lon="1.78308">
        <ele>1985</ele>
        <time>2023-07-20T05:52:52.000Z</time>
      </trkpt>
      <trkpt lat="42.60047" lon="1.78304">
        <ele>1986</ele>
        <time>2023-07-20T05:52:58.000Z</time>
      </trkpt>
      <trkpt lat="42.60048" lon="1.78304">
        <ele>1986.1999511719</ele>
        <time>2023-07-20T05:52:59.000Z</time>
      </trkpt>
      <trkpt lat="42.60049" lon="1.78301">
        <ele>1987.1999511719</ele>
        <time>2023-07-20T05:53:05.000Z</time>
      </trkpt>
      <trkpt lat="42.60051" lon="1.78299">
        <ele>1987.8000488281</ele>
        <time>2023-07-20T05:53:09.000Z</time>
      </trkpt>
      <trkpt lat="42.60055" lon="1.78296">
        <ele>1988.4000244141</ele>
        <time>2023-07-20T05:53:13.000Z</time>
      </trkpt>
      <trkpt lat="42.60054" lon="1.78298">
        <ele>1988.4000244141</ele>
        <time>2023-07-20T05:53:15.000Z</time>
      </trkpt>
      <trkpt lat="42.60056" lon="1.783">
        <ele>1988.5999755859</ele>
        <time>2023-07-20T05:53:22.000Z</time>
      </trkpt>
      <trkpt lat="42.60055" lon="1.78297">
        <ele>1988.5999755859</ele>
        <time>2023-07-20T05:53:30.000Z</time>
      </trkpt>
      <trkpt lat="42.60056" lon="1.78298">
        <ele>1989</ele>
        <time>2023-07-20T05:53:42.000Z</time>
      </trkpt>
      <trkpt lat="42.60055" lon="1.78294">
        <ele>1989.1999511719</ele>
        <time>2023-07-20T05:53:51.000Z</time>
      </trkpt>
      <trkpt lat="42.60056" lon="1.7829">
        <ele>1989.4000244141</ele>
        <time>2023-07-20T05:53:55.000Z</time>
      </trkpt>
      <trkpt lat="42.60057" lon="1.78286">
        <ele>1990</ele>
        <time>2023-07-20T05:53:59.000Z</time>
      </trkpt>
      <trkpt lat="42.60058" lon="1.78283">
        <ele>1990.5999755859</ele>
        <time>2023-07-20T05:54:02.000Z</time>
      </trkpt>
      <trkpt lat="42.6006" lon="1.78281">
        <ele>1990.5999755859</ele>
        <time>2023-07-20T05:54:05.000Z</time>
      </trkpt>
      <trkpt lat="42.60064" lon="1.78274">
        <ele>1990.5999755859</ele>
        <time>2023-07-20T05:54:12.000Z</time>
      </trkpt>
      <trkpt lat="42.60067" lon="1.78269">
        <ele>1990.5999755859</ele>
        <time>2023-07-20T05:54:20.000Z</time>
      </trkpt>
      <trkpt lat="42.60072" lon="1.78263">
        <ele>1990.4000244141</ele>
        <time>2023-07-20T05:54:28.000Z</time>
      </trkpt>
      <trkpt lat="42.60078" lon="1.78258">
        <ele>1991</ele>
        <time>2023-07-20T05:54:35.000Z</time>
      </trkpt>
      <trkpt lat="42.6008" lon="1.78254">
        <ele>1991.4000244141</ele>
        <time>2023-07-20T05:54:43.000Z</time>
      </trkpt>
      <trkpt lat="42.60085" lon="1.7825">
        <ele>1991.4000244141</ele>
        <time>2023-07-20T05:54:49.000Z</time>
      </trkpt>
      <trkpt lat="42.60088" lon="1.7825">
        <ele>1991.5999755859</ele>
        <time>2023-07-20T05:54:53.000Z</time>
      </trkpt>
      <trkpt lat="42.60091" lon="1.78249">
        <ele>1992.1999511719</ele>
        <time>2023-07-20T05:54:56.000Z</time>
      </trkpt>
      <trkpt lat="42.60092" lon="1.78243">
        <ele>1992.1999511719</ele>
        <time>2023-07-20T05:55:03.000Z</time>
      </trkpt>
      <trkpt lat="42.60096" lon="1.78235">
        <ele>1992.1999511719</ele>
        <time>2023-07-20T05:55:09.000Z</time>
      </trkpt>
      <trkpt lat="42.60099" lon="1.78232">
        <ele>1992.8000488281</ele>
        <time>2023-07-20T05:55:14.000Z</time>
      </trkpt>
      <trkpt lat="42.601" lon="1.78231">
        <ele>1993</ele>
        <time>2023-07-20T05:55:17.000Z</time>
      </trkpt>
      <trkpt lat="42.60103" lon="1.78227">
        <ele>1993.8000488281</ele>
        <time>2023-07-20T05:55:22.000Z</time>
      </trkpt>
      <trkpt lat="42.60106" lon="1.78226">
        <ele>1994</ele>
        <time>2023-07-20T05:55:24.000Z</time>
      </trkpt>
      <trkpt lat="42.60112" lon="1.78222">
        <ele>1995</ele>
        <time>2023-07-20T05:55:31.000Z</time>
      </trkpt>
      <trkpt lat="42.60112" lon="1.78222">
        <ele>1995.1999511719</ele>
        <time>2023-07-20T05:55:33.000Z</time>
      </trkpt>
      <trkpt lat="42.60116" lon="1.78214">
        <ele>1995.1999511719</ele>
        <time>2023-07-20T05:55:41.000Z</time>
      </trkpt>
      <trkpt lat="42.60117" lon="1.7821">
        <ele>1994.8000488281</ele>
        <time>2023-07-20T05:55:47.000Z</time>
      </trkpt>
      <trkpt lat="42.60123" lon="1.78206">
        <ele>1994.1999511719</ele>
        <time>2023-07-20T05:55:54.000Z</time>
      </trkpt>
      <trkpt lat="42.60124" lon="1.78204">
        <ele>1993.8000488281</ele>
        <time>2023-07-20T05:55:57.000Z</time>
      </trkpt>
      <trkpt lat="42.60125" lon="1.78201">
        <ele>1993.1999511719</ele>
        <time>2023-07-20T05:56:01.000Z</time>
      </trkpt>
      <trkpt lat="42.60127" lon="1.78198">
        <ele>1992.5999755859</ele>
        <time>2023-07-20T05:56:05.000Z</time>
      </trkpt>
      <trkpt lat="42.60129" lon="1.78196">
        <ele>1992</ele>
        <time>2023-07-20T05:56:08.000Z</time>
      </trkpt>
      <trkpt lat="42.60132" lon="1.78193">
        <ele>1991.4000244141</ele>
        <time>2023-07-20T05:56:13.000Z</time>
      </trkpt>
      <trkpt lat="42.60136" lon="1.78188">
        <ele>1991.1999511719</ele>
        <time>2023-07-20T05:56:16.000Z</time>
      </trkpt>
      <trkpt lat="42.60141" lon="1.78181">
        <ele>1990.4000244141</ele>
        <time>2023-07-20T05:56:24.000Z</time>
      </trkpt>
      <trkpt lat="42.60141" lon="1.7818">
        <ele>1990.4000244141</ele>
        <time>2023-07-20T05:56:25.000Z</time>
      </trkpt>
      <trkpt lat="42.60144" lon="1.78173">
        <ele>1989.8000488281</ele>
        <time>2023-07-20T05:56:32.000Z</time>
      </trkpt>
      <trkpt lat="42.60147" lon="1.78168">
        <ele>1989.4000244141</ele>
        <time>2023-07-20T05:56:39.000Z</time>
      </trkpt>
      <trkpt lat="42.6015" lon="1.78161">
        <ele>1989.1999511719</ele>
        <time>2023-07-20T05:56:46.000Z</time>
      </trkpt>
      <trkpt lat="42.60153" lon="1.78152">
        <ele>1989</ele>
        <time>2023-07-20T05:56:53.000Z</time>
      </trkpt>
      <trkpt lat="42.60155" lon="1.78152">
        <ele>1988.1999511719</ele>
        <time>2023-07-20T05:56:57.000Z</time>
      </trkpt>
      <trkpt lat="42.60156" lon="1.78151">
        <ele>1988.1999511719</ele>
        <time>2023-07-20T05:56:58.000Z</time>
      </trkpt>
      <trkpt lat="42.6016" lon="1.78149">
        <ele>1988.4000244141</ele>
        <time>2023-07-20T05:57:05.000Z</time>
      </trkpt>
      <trkpt lat="42.60163" lon="1.78146">
        <ele>1989</ele>
        <time>2023-07-20T05:57:13.000Z</time>
      </trkpt>
      <trkpt lat="42.60167" lon="1.78144">
        <ele>1989.1999511719</ele>
        <time>2023-07-20T05:57:20.000Z</time>
      </trkpt>
      <trkpt lat="42.60168" lon="1.78144">
        <ele>1989.4000244141</ele>
        <time>2023-07-20T05:57:21.000Z</time>
      </trkpt>
      <trkpt lat="42.60171" lon="1.78141">
        <ele>1990</ele>
        <time>2023-07-20T05:57:28.000Z</time>
      </trkpt>
      <trkpt lat="42.60177" lon="1.78135">
        <ele>1989.5999755859</ele>
        <time>2023-07-20T05:57:37.000Z</time>
      </trkpt>
      <trkpt lat="42.6018" lon="1.78131">
        <ele>1989</ele>
        <time>2023-07-20T05:57:45.000Z</time>
      </trkpt>
      <trkpt lat="42.60181" lon="1.7813">
        <ele>1988.4000244141</ele>
        <time>2023-07-20T05:57:50.000Z</time>
      </trkpt>
      <trkpt lat="42.60182" lon="1.78129">
        <ele>1988.1999511719</ele>
        <time>2023-07-20T05:57:51.000Z</time>
      </trkpt>
      <trkpt lat="42.60186" lon="1.78124">
        <ele>1988.5999755859</ele>
        <time>2023-07-20T05:57:57.000Z</time>
      </trkpt>
      <trkpt lat="42.60189" lon="1.7812">
        <ele>1989.4000244141</ele>
        <time>2023-07-20T05:58:02.000Z</time>
      </trkpt>
      <trkpt lat="42.6019" lon="1.78118">
        <ele>1989.5999755859</ele>
        <time>2023-07-20T05:58:04.000Z</time>
      </trkpt>
      <trkpt lat="42.60194" lon="1.78114">
        <ele>1990.5999755859</ele>
        <time>2023-07-20T05:58:09.000Z</time>
      </trkpt>
      <trkpt lat="42.60195" lon="1.78113">
        <ele>1990.5999755859</ele>
        <time>2023-07-20T05:58:11.000Z</time>
      </trkpt>
      <trkpt lat="42.60203" lon="1.78111">
        <ele>1991.4000244141</ele>
        <time>2023-07-20T05:58:20.000Z</time>
      </trkpt>
      <trkpt lat="42.60203" lon="1.78111">
        <ele>1991.5999755859</ele>
        <time>2023-07-20T05:58:21.000Z</time>
      </trkpt>
      <trkpt lat="42.60209" lon="1.78112">
        <ele>1992.4000244141</ele>
        <time>2023-07-20T05:58:28.000Z</time>
      </trkpt>
      <trkpt lat="42.6021" lon="1.78112">
        <ele>1992.5999755859</ele>
        <time>2023-07-20T05:58:30.000Z</time>
      </trkpt>
      <trkpt lat="42.60211" lon="1.7811">
        <ele>1993</ele>
        <time>2023-07-20T05:58:34.000Z</time>
      </trkpt>
      <trkpt lat="42.60214" lon="1.78104">
        <ele>1993</ele>
        <time>2023-07-20T05:58:39.000Z</time>
      </trkpt>
      <trkpt lat="42.60215" lon="1.78097">
        <ele>1993.1999511719</ele>
        <time>2023-07-20T05:58:45.000Z</time>
      </trkpt>
      <trkpt lat="42.60217" lon="1.78093">
        <ele>1993.8000488281</ele>
        <time>2023-07-20T05:58:50.000Z</time>
      </trkpt>
      <trkpt lat="42.60218" lon="1.78092">
        <ele>1994.1999511719</ele>
        <time>2023-07-20T05:58:54.000Z</time>
      </trkpt>
      <trkpt lat="42.60221" lon="1.78089">
        <ele>1994.8000488281</ele>
        <time>2023-07-20T05:58:58.000Z</time>
      </trkpt>
      <trkpt lat="42.60223" lon="1.7809">
        <ele>1995.1999511719</ele>
        <time>2023-07-20T05:59:02.000Z</time>
      </trkpt>
      <trkpt lat="42.60224" lon="1.78085">
        <ele>1995.5999755859</ele>
        <time>2023-07-20T05:59:08.000Z</time>
      </trkpt>
      <trkpt lat="42.60224" lon="1.78086">
        <ele>1995.8000488281</ele>
        <time>2023-07-20T05:59:10.000Z</time>
      </trkpt>
      <trkpt lat="42.60222" lon="1.78082">
        <ele>1996.4000244141</ele>
        <time>2023-07-20T05:59:15.000Z</time>
      </trkpt>
      <trkpt lat="42.60223" lon="1.78075">
        <ele>1996.8000488281</ele>
        <time>2023-07-20T05:59:23.000Z</time>
      </trkpt>
      <trkpt lat="42.60224" lon="1.78074">
        <ele>1997</ele>
        <time>2023-07-20T05:59:24.000Z</time>
      </trkpt>
      <trkpt lat="42.60228" lon="1.7807">
        <ele>1997.4000244141</ele>
        <time>2023-07-20T05:59:29.000Z</time>
      </trkpt>
      <trkpt lat="42.60232" lon="1.78066">
        <ele>1998</ele>
        <time>2023-07-20T05:59:34.000Z</time>
      </trkpt>
      <trkpt lat="42.60233" lon="1.78064">
        <ele>1998</ele>
        <time>2023-07-20T05:59:36.000Z</time>
      </trkpt>
      <trkpt lat="42.60237" lon="1.78056">
        <ele>1998.8000488281</ele>
        <time>2023-07-20T05:59:44.000Z</time>
      </trkpt>
      <trkpt lat="42.60239" lon="1.78055">
        <ele>1999</ele>
        <time>2023-07-20T05:59:46.000Z</time>
      </trkpt>
      <trkpt lat="42.60243" lon="1.78052">
        <ele>1999.4000244141</ele>
        <time>2023-07-20T05:59:51.000Z</time>
      </trkpt>
      <trkpt lat="42.60248" lon="1.78049">
        <ele>1999.5999755859</ele>
        <time>2023-07-20T05:59:58.000Z</time>
      </trkpt>
      <trkpt lat="42.60248" lon="1.78049">
        <ele>2000</ele>
        <time>2023-07-20T06:00:02.000Z</time>
      </trkpt>
      <trkpt lat="42.60252" lon="1.78045">
        <ele>2001</ele>
        <time>2023-07-20T06:00:07.000Z</time>
      </trkpt>
      <trkpt lat="42.60252" lon="1.78043">
        <ele>2001.1999511719</ele>
        <time>2023-07-20T06:00:09.000Z</time>
      </trkpt>
      <trkpt lat="42.60256" lon="1.78039">
        <ele>2002</ele>
        <time>2023-07-20T06:00:16.000Z</time>
      </trkpt>
      <trkpt lat="42.60257" lon="1.78039">
        <ele>2002.1999511719</ele>
        <time>2023-07-20T06:00:17.000Z</time>
      </trkpt>
      <trkpt lat="42.60261" lon="1.78038">
        <ele>2003</ele>
        <time>2023-07-20T06:00:23.000Z</time>
      </trkpt>
      <trkpt lat="42.60261" lon="1.78038">
        <ele>2003.1999511719</ele>
        <time>2023-07-20T06:00:24.000Z</time>
      </trkpt>
      <trkpt lat="42.60265" lon="1.78034">
        <ele>2004</ele>
        <time>2023-07-20T06:00:31.000Z</time>
      </trkpt>
      <trkpt lat="42.60266" lon="1.78033">
        <ele>2004.4000244141</ele>
        <time>2023-07-20T06:00:33.000Z</time>
      </trkpt>
      <trkpt lat="42.6027" lon="1.78029">
        <ele>2004.8000488281</ele>
        <time>2023-07-20T06:00:39.000Z</time>
      </trkpt>
      <trkpt lat="42.60274" lon="1.78027">
        <ele>2004.8000488281</ele>
        <time>2023-07-20T06:00:47.000Z</time>
      </trkpt>
      <trkpt lat="42.60275" lon="1.78025">
        <ele>2004.8000488281</ele>
        <time>2023-07-20T06:00:51.000Z</time>
      </trkpt>
      <trkpt lat="42.60278" lon="1.78019">
        <ele>2005.1999511719</ele>
        <time>2023-07-20T06:00:58.000Z</time>
      </trkpt>
      <trkpt lat="42.60278" lon="1.78017">
        <ele>2005.4000244141</ele>
        <time>2023-07-20T06:01:00.000Z</time>
      </trkpt>
      <trkpt lat="42.60279" lon="1.78014">
        <ele>2006</ele>
        <time>2023-07-20T06:01:04.000Z</time>
      </trkpt>
      <trkpt lat="42.60281" lon="1.78012">
        <ele>2006.5999755859</ele>
        <time>2023-07-20T06:01:08.000Z</time>
      </trkpt>
      <trkpt lat="42.60282" lon="1.78011">
        <ele>2007</ele>
        <time>2023-07-20T06:01:12.000Z</time>
      </trkpt>
      <trkpt lat="42.60288" lon="1.78011">
        <ele>2007</ele>
        <time>2023-07-20T06:01:22.000Z</time>
      </trkpt>
      <trkpt lat="42.60293" lon="1.78001">
        <ele>2006.8000488281</ele>
        <time>2023-07-20T06:01:28.000Z</time>
      </trkpt>
      <trkpt lat="42.60293" lon="1.77995">
        <ele>2007</ele>
        <time>2023-07-20T06:01:33.000Z</time>
      </trkpt>
      <trkpt lat="42.60295" lon="1.77995">
        <ele>2007.1999511719</ele>
        <time>2023-07-20T06:01:37.000Z</time>
      </trkpt>
      <trkpt lat="42.60296" lon="1.77996">
        <ele>2007.5999755859</ele>
        <time>2023-07-20T06:01:39.000Z</time>
      </trkpt>
      <trkpt lat="42.60304" lon="1.77992">
        <ele>2008</ele>
        <time>2023-07-20T06:01:48.000Z</time>
      </trkpt>
      <trkpt lat="42.60311" lon="1.77988">
        <ele>2008</ele>
        <time>2023-07-20T06:01:55.000Z</time>
      </trkpt>
      <trkpt lat="42.60315" lon="1.77987">
        <ele>2008.5999755859</ele>
        <time>2023-07-20T06:02:02.000Z</time>
      </trkpt>
      <trkpt lat="42.60316" lon="1.77986">
        <ele>2008.8000488281</ele>
        <time>2023-07-20T06:02:03.000Z</time>
      </trkpt>
      <trkpt lat="42.6032" lon="1.77987">
        <ele>2009.1999511719</ele>
        <time>2023-07-20T06:02:10.000Z</time>
      </trkpt>
      <trkpt lat="42.60321" lon="1.77989">
        <ele>2009.8000488281</ele>
        <time>2023-07-20T06:02:14.000Z</time>
      </trkpt>
      <trkpt lat="42.60323" lon="1.7799">
        <ele>2010.4000244141</ele>
        <time>2023-07-20T06:02:17.000Z</time>
      </trkpt>
      <trkpt lat="42.60328" lon="1.7799">
        <ele>2011</ele>
        <time>2023-07-20T06:02:22.000Z</time>
      </trkpt>
      <trkpt lat="42.60329" lon="1.7799">
        <ele>2011.1999511719</ele>
        <time>2023-07-20T06:02:23.000Z</time>
      </trkpt>
      <trkpt lat="42.60332" lon="1.77991">
        <ele>2012.1999511719</ele>
        <time>2023-07-20T06:02:30.000Z</time>
      </trkpt>
      <trkpt lat="42.60331" lon="1.77992">
        <ele>2012.1999511719</ele>
        <time>2023-07-20T06:02:31.000Z</time>
      </trkpt>
      <trkpt lat="42.60334" lon="1.77999">
        <ele>2013.1999511719</ele>
        <time>2023-07-20T06:02:39.000Z</time>
      </trkpt>
      <trkpt lat="42.60334" lon="1.77999">
        <ele>2013.4000244141</ele>
        <time>2023-07-20T06:02:40.000Z</time>
      </trkpt>
      <trkpt lat="42.6034" lon="1.78006">
        <ele>2013.8000488281</ele>
        <time>2023-07-20T06:02:47.000Z</time>
      </trkpt>
      <trkpt lat="42.60345" lon="1.78003">
        <ele>2014</ele>
        <time>2023-07-20T06:02:53.000Z</time>
      </trkpt>
      <trkpt lat="42.60347" lon="1.78001">
        <ele>2014</ele>
        <time>2023-07-20T06:02:55.000Z</time>
      </trkpt>
      <trkpt lat="42.60348" lon="1.78">
        <ele>2014.1999511719</ele>
        <time>2023-07-20T06:02:57.000Z</time>
      </trkpt>
      <trkpt lat="42.60349" lon="1.77999">
        <ele>2014.4000244141</ele>
        <time>2023-07-20T06:02:59.000Z</time>
      </trkpt>
      <trkpt lat="42.60352" lon="1.78">
        <ele>2015.1999511719</ele>
        <time>2023-07-20T06:03:04.000Z</time>
      </trkpt>
      <trkpt lat="42.60353" lon="1.78002">
        <ele>2015.4000244141</ele>
        <time>2023-07-20T06:03:06.000Z</time>
      </trkpt>
      <trkpt lat="42.60353" lon="1.78003">
        <ele>2015.5999755859</ele>
        <time>2023-07-20T06:03:09.000Z</time>
      </trkpt>
      <trkpt lat="42.60354" lon="1.78003">
        <ele>2015.5999755859</ele>
        <time>2023-07-20T06:03:11.000Z</time>
      </trkpt>
      <trkpt lat="42.60354" lon="1.78003">
        <ele>2015.5999755859</ele>
        <time>2023-07-20T06:03:12.000Z</time>
      </trkpt>
      <trkpt lat="42.60357" lon="1.78003">
        <ele>2016.1999511719</ele>
        <time>2023-07-20T06:03:19.000Z</time>
      </trkpt>
      <trkpt lat="42.60362" lon="1.77996">
        <ele>2016.4000244141</ele>
        <time>2023-07-20T06:03:25.000Z</time>
      </trkpt>
      <trkpt lat="42.60364" lon="1.77994">
        <ele>2016.5999755859</ele>
        <time>2023-07-20T06:03:27.000Z</time>
      </trkpt>
      <trkpt lat="42.6037" lon="1.77993">
        <ele>2017.4000244141</ele>
        <time>2023-07-20T06:03:32.000Z</time>
      </trkpt>
      <trkpt lat="42.60371" lon="1.77995">
        <ele>2017.5999755859</ele>
        <time>2023-07-20T06:03:34.000Z</time>
      </trkpt>
      <trkpt lat="42.60375" lon="1.78004">
        <ele>2018.1999511719</ele>
        <time>2023-07-20T06:03:43.000Z</time>
      </trkpt>
      <trkpt lat="42.60376" lon="1.78005">
        <ele>2018.5999755859</ele>
        <time>2023-07-20T06:03:45.000Z</time>
      </trkpt>
      <trkpt lat="42.60378" lon="1.78007">
        <ele>2018.8000488281</ele>
        <time>2023-07-20T06:03:48.000Z</time>
      </trkpt>
      <trkpt lat="42.6038" lon="1.78011">
        <ele>2019.8000488281</ele>
        <time>2023-07-20T06:03:55.000Z</time>
      </trkpt>
      <trkpt lat="42.60382" lon="1.78014">
        <ele>2020</ele>
        <time>2023-07-20T06:03:58.000Z</time>
      </trkpt>
      <trkpt lat="42.60384" lon="1.78019">
        <ele>2020.8000488281</ele>
        <time>2023-07-20T06:04:04.000Z</time>
      </trkpt>
      <trkpt lat="42.60385" lon="1.7802">
        <ele>2021</ele>
        <time>2023-07-20T06:04:06.000Z</time>
      </trkpt>
      <trkpt lat="42.60389" lon="1.78019">
        <ele>2021.5999755859</ele>
        <time>2023-07-20T06:04:11.000Z</time>
      </trkpt>
      <trkpt lat="42.60392" lon="1.78019">
        <ele>2021.8000488281</ele>
        <time>2023-07-20T06:04:13.000Z</time>
      </trkpt>
      <trkpt lat="42.60392" lon="1.78019">
        <ele>2021.8000488281</ele>
        <time>2023-07-20T06:04:14.000Z</time>
      </trkpt>
      <trkpt lat="42.60396" lon="1.7802">
        <ele>2022.4000244141</ele>
        <time>2023-07-20T06:04:20.000Z</time>
      </trkpt>
      <trkpt lat="42.604" lon="1.78021">
        <ele>2022.8000488281</ele>
        <time>2023-07-20T06:04:26.000Z</time>
      </trkpt>
      <trkpt lat="42.60401" lon="1.78022">
        <ele>2023.1999511719</ele>
        <time>2023-07-20T06:04:29.000Z</time>
      </trkpt>
      <trkpt lat="42.60405" lon="1.7803">
        <ele>2023.8000488281</ele>
        <time>2023-07-20T06:04:37.000Z</time>
      </trkpt>
      <trkpt lat="42.60405" lon="1.78031">
        <ele>2024</ele>
        <time>2023-07-20T06:04:38.000Z</time>
      </trkpt>
      <trkpt lat="42.6041" lon="1.78035">
        <ele>2024.5999755859</ele>
        <time>2023-07-20T06:04:46.000Z</time>
      </trkpt>
      <trkpt lat="42.60417" lon="1.78037">
        <ele>2025</ele>
        <time>2023-07-20T06:04:52.000Z</time>
      </trkpt>
      <trkpt lat="42.60418" lon="1.78037">
        <ele>2025</ele>
        <time>2023-07-20T06:04:53.000Z</time>
      </trkpt>
      <trkpt lat="42.60426" lon="1.78042">
        <ele>2025</ele>
        <time>2023-07-20T06:05:01.000Z</time>
      </trkpt>
      <trkpt lat="42.60431" lon="1.78046">
        <ele>2025</ele>
        <time>2023-07-20T06:05:09.000Z</time>
      </trkpt>
      <trkpt lat="42.60438" lon="1.7805">
        <ele>2025.1999511719</ele>
        <time>2023-07-20T06:05:18.000Z</time>
      </trkpt>
      <trkpt lat="42.60444" lon="1.78054">
        <ele>2025.1999511719</ele>
        <time>2023-07-20T06:05:25.000Z</time>
      </trkpt>
      <trkpt lat="42.60447" lon="1.78053">
        <ele>2025.4000244141</ele>
        <time>2023-07-20T06:05:30.000Z</time>
      </trkpt>
      <trkpt lat="42.60447" lon="1.78051">
        <ele>2025.4000244141</ele>
        <time>2023-07-20T06:05:31.000Z</time>
      </trkpt>
      <trkpt lat="42.60452" lon="1.78043">
        <ele>2025</ele>
        <time>2023-07-20T06:05:39.000Z</time>
      </trkpt>
      <trkpt lat="42.60463" lon="1.78038">
        <ele>2025</ele>
        <time>2023-07-20T06:05:49.000Z</time>
      </trkpt>
      <trkpt lat="42.60467" lon="1.78031">
        <ele>2025.4000244141</ele>
        <time>2023-07-20T06:05:57.000Z</time>
      </trkpt>
      <trkpt lat="42.60468" lon="1.78026">
        <ele>2026.1999511719</ele>
        <time>2023-07-20T06:06:03.000Z</time>
      </trkpt>
      <trkpt lat="42.60469" lon="1.78023">
        <ele>2027.1999511719</ele>
        <time>2023-07-20T06:06:09.000Z</time>
      </trkpt>
      <trkpt lat="42.60469" lon="1.78021">
        <ele>2027.4000244141</ele>
        <time>2023-07-20T06:06:10.000Z</time>
      </trkpt>
      <trkpt lat="42.60467" lon="1.78011">
        <ele>2027.8000488281</ele>
        <time>2023-07-20T06:06:18.000Z</time>
      </trkpt>
      <trkpt lat="42.60468" lon="1.7801">
        <ele>2028.4000244141</ele>
        <time>2023-07-20T06:06:22.000Z</time>
      </trkpt>
      <trkpt lat="42.6047" lon="1.78013">
        <ele>2029</ele>
        <time>2023-07-20T06:06:25.000Z</time>
      </trkpt>
      <trkpt lat="42.60472" lon="1.78015">
        <ele>2029.5999755859</ele>
        <time>2023-07-20T06:06:29.000Z</time>
      </trkpt>
      <trkpt lat="42.60474" lon="1.78014">
        <ele>2030.1999511719</ele>
        <time>2023-07-20T06:06:32.000Z</time>
      </trkpt>
      <trkpt lat="42.60477" lon="1.78013">
        <ele>2030.5999755859</ele>
        <time>2023-07-20T06:06:35.000Z</time>
      </trkpt>
      <trkpt lat="42.6048" lon="1.78013">
        <ele>2030.5999755859</ele>
        <time>2023-07-20T06:06:39.000Z</time>
      </trkpt>
      <trkpt lat="42.60488" lon="1.78009">
        <ele>2031.1999511719</ele>
        <time>2023-07-20T06:06:48.000Z</time>
      </trkpt>
      <trkpt lat="42.60493" lon="1.78009">
        <ele>2031.5999755859</ele>
        <time>2023-07-20T06:06:56.000Z</time>
      </trkpt>
      <trkpt lat="42.60495" lon="1.78009">
        <ele>2031.5999755859</ele>
        <time>2023-07-20T06:06:57.000Z</time>
      </trkpt>
      <trkpt lat="42.60498" lon="1.78007">
        <ele>2032.4000244141</ele>
        <time>2023-07-20T06:07:03.000Z</time>
      </trkpt>
      <trkpt lat="42.60505" lon="1.78006">
        <ele>2032.5999755859</ele>
        <time>2023-07-20T06:07:11.000Z</time>
      </trkpt>
      <trkpt lat="42.60505" lon="1.78007">
        <ele>2032.8000488281</ele>
        <time>2023-07-20T06:07:12.000Z</time>
      </trkpt>
      <trkpt lat="42.6051" lon="1.78008">
        <ele>2033.8000488281</ele>
        <time>2023-07-20T06:07:18.000Z</time>
      </trkpt>
      <trkpt lat="42.6051" lon="1.78008">
        <ele>2034</ele>
        <time>2023-07-20T06:07:20.000Z</time>
      </trkpt>
      <trkpt lat="42.60516" lon="1.78008">
        <ele>2034.8000488281</ele>
        <time>2023-07-20T06:07:26.000Z</time>
      </trkpt>
      <trkpt lat="42.60517" lon="1.78008">
        <ele>2035.5999755859</ele>
        <time>2023-07-20T06:07:32.000Z</time>
      </trkpt>
      <trkpt lat="42.60522" lon="1.78006">
        <ele>2036</ele>
        <time>2023-07-20T06:07:37.000Z</time>
      </trkpt>
      <trkpt lat="42.60525" lon="1.78005">
        <ele>2036.4000244141</ele>
        <time>2023-07-20T06:07:41.000Z</time>
      </trkpt>
      <trkpt lat="42.6052" lon="1.78009">
        <ele>2036.5999755859</ele>
        <time>2023-07-20T06:07:48.000Z</time>
      </trkpt>
      <trkpt lat="42.60522" lon="1.7801">
        <ele>2037</ele>
        <time>2023-07-20T06:07:52.000Z</time>
      </trkpt>
      <trkpt lat="42.60524" lon="1.78012">
        <ele>2037.4000244141</ele>
        <time>2023-07-20T06:07:55.000Z</time>
      </trkpt>
      <trkpt lat="42.60527" lon="1.7801">
        <ele>2038.1999511719</ele>
        <time>2023-07-20T06:08:00.000Z</time>
      </trkpt>
      <trkpt lat="42.60528" lon="1.78009">
        <ele>2038.1999511719</ele>
        <time>2023-07-20T06:08:02.000Z</time>
      </trkpt>
      <trkpt lat="42.60523" lon="1.7801">
        <ele>2038.1999511719</ele>
        <time>2023-07-20T06:08:09.000Z</time>
      </trkpt>
      <trkpt lat="42.60524" lon="1.78007">
        <ele>2037.4000244141</ele>
        <time>2023-07-20T06:08:15.000Z</time>
      </trkpt>
      <trkpt lat="42.60529" lon="1.78001">
        <ele>2037.5999755859</ele>
        <time>2023-07-20T06:08:23.000Z</time>
      </trkpt>
      <trkpt lat="42.60537" lon="1.78">
        <ele>2038</ele>
        <time>2023-07-20T06:08:31.000Z</time>
      </trkpt>
      <trkpt lat="42.60541" lon="1.77997">
        <ele>2038.4000244141</ele>
        <time>2023-07-20T06:08:39.000Z</time>
      </trkpt>
      <trkpt lat="42.60546" lon="1.77993">
        <ele>2038.8000488281</ele>
        <time>2023-07-20T06:08:45.000Z</time>
      </trkpt>
      <trkpt lat="42.60549" lon="1.7799">
        <ele>2039.1999511719</ele>
        <time>2023-07-20T06:08:48.000Z</time>
      </trkpt>
      <trkpt lat="42.60551" lon="1.77989">
        <ele>2039.4000244141</ele>
        <time>2023-07-20T06:08:51.000Z</time>
      </trkpt>
      <trkpt lat="42.60557" lon="1.77989">
        <ele>2039.5999755859</ele>
        <time>2023-07-20T06:08:59.000Z</time>
      </trkpt>
      <trkpt lat="42.60563" lon="1.77988">
        <ele>2039.5999755859</ele>
        <time>2023-07-20T06:09:06.000Z</time>
      </trkpt>
      <trkpt lat="42.60569" lon="1.77981">
        <ele>2039.4000244141</ele>
        <time>2023-07-20T06:09:13.000Z</time>
      </trkpt>
      <trkpt lat="42.60569" lon="1.77979">
        <ele>2040.1999511719</ele>
        <time>2023-07-20T06:09:20.000Z</time>
      </trkpt>
      <trkpt lat="42.60569" lon="1.77978">
        <ele>2040.4000244141</ele>
        <time>2023-07-20T06:09:23.000Z</time>
      </trkpt>
      <trkpt lat="42.60572" lon="1.77974">
        <ele>2040.4000244141</ele>
        <time>2023-07-20T06:09:27.000Z</time>
      </trkpt>
      <trkpt lat="42.60577" lon="1.77969">
        <ele>2040.8000488281</ele>
        <time>2023-07-20T06:09:35.000Z</time>
      </trkpt>
      <trkpt lat="42.60582" lon="1.77963">
        <ele>2041</ele>
        <time>2023-07-20T06:09:42.000Z</time>
      </trkpt>
      <trkpt lat="42.60584" lon="1.77961">
        <ele>2041.1999511719</ele>
        <time>2023-07-20T06:09:45.000Z</time>
      </trkpt>
      <trkpt lat="42.60587" lon="1.77962">
        <ele>2041.5999755859</ele>
        <time>2023-07-20T06:09:50.000Z</time>
      </trkpt>
      <trkpt lat="42.60594" lon="1.77963">
        <ele>2042</ele>
        <time>2023-07-20T06:09:58.000Z</time>
      </trkpt>
      <trkpt lat="42.60596" lon="1.77963">
        <ele>2041.8000488281</ele>
        <time>2023-07-20T06:10:05.000Z</time>
      </trkpt>
      <trkpt lat="42.60605" lon="1.77962">
        <ele>2042.1999511719</ele>
        <time>2023-07-20T06:10:13.000Z</time>
      </trkpt>
      <trkpt lat="42.60607" lon="1.77962">
        <ele>2042.4000244141</ele>
        <time>2023-07-20T06:10:15.000Z</time>
      </trkpt>
      <trkpt lat="42.60609" lon="1.77959">
        <ele>2043</ele>
        <time>2023-07-20T06:10:20.000Z</time>
      </trkpt>
      <trkpt lat="42.60613" lon="1.77956">
        <ele>2043.4000244141</ele>
        <time>2023-07-20T06:10:25.000Z</time>
      </trkpt>
      <trkpt lat="42.60614" lon="1.77955">
        <ele>2043.5999755859</ele>
        <time>2023-07-20T06:10:27.000Z</time>
      </trkpt>
      <trkpt lat="42.60619" lon="1.77953">
        <ele>2044.1999511719</ele>
        <time>2023-07-20T06:10:34.000Z</time>
      </trkpt>
      <trkpt lat="42.60621" lon="1.7795">
        <ele>2044.5999755859</ele>
        <time>2023-07-20T06:10:37.000Z</time>
      </trkpt>
      <trkpt lat="42.60624" lon="1.77947">
        <ele>2044.8000488281</ele>
        <time>2023-07-20T06:10:41.000Z</time>
      </trkpt>
      <trkpt lat="42.60629" lon="1.77944">
        <ele>2045</ele>
        <time>2023-07-20T06:10:47.000Z</time>
      </trkpt>
      <trkpt lat="42.60632" lon="1.77942">
        <ele>2045.1999511719</ele>
        <time>2023-07-20T06:10:52.000Z</time>
      </trkpt>
      <trkpt lat="42.60635" lon="1.77943">
        <ele>2045.5999755859</ele>
        <time>2023-07-20T06:10:55.000Z</time>
      </trkpt>
      <trkpt lat="42.60639" lon="1.77943">
        <ele>2046</ele>
        <time>2023-07-20T06:11:00.000Z</time>
      </trkpt>
      <trkpt lat="42.60641" lon="1.77941">
        <ele>2046.5999755859</ele>
        <time>2023-07-20T06:11:08.000Z</time>
      </trkpt>
      <trkpt lat="42.60644" lon="1.77941">
        <ele>2046.5999755859</ele>
        <time>2023-07-20T06:11:17.000Z</time>
      </trkpt>
      <trkpt lat="42.6065" lon="1.77942">
        <ele>2047.4000244141</ele>
        <time>2023-07-20T06:11:25.000Z</time>
      </trkpt>
      <trkpt lat="42.60651" lon="1.77942">
        <ele>2047.5999755859</ele>
        <time>2023-07-20T06:11:27.000Z</time>
      </trkpt>
      <trkpt lat="42.60656" lon="1.77941">
        <ele>2048.6000976562</ele>
        <time>2023-07-20T06:11:33.000Z</time>
      </trkpt>
      <trkpt lat="42.60657" lon="1.7794">
        <ele>2048.8000488281</ele>
        <time>2023-07-20T06:11:34.000Z</time>
      </trkpt>
      <trkpt lat="42.60662" lon="1.77936">
        <ele>2049.3999023438</ele>
        <time>2023-07-20T06:11:40.000Z</time>
      </trkpt>
      <trkpt lat="42.60664" lon="1.77934">
        <ele>2049.8000488281</ele>
        <time>2023-07-20T06:11:43.000Z</time>
      </trkpt>
      <trkpt lat="42.60669" lon="1.77929">
        <ele>2050.6000976562</ele>
        <time>2023-07-20T06:11:48.000Z</time>
      </trkpt>
      <trkpt lat="42.60669" lon="1.77929">
        <ele>2051</ele>
        <time>2023-07-20T06:11:49.000Z</time>
      </trkpt>
      <trkpt lat="42.60675" lon="1.77927">
        <ele>2051.8000488281</ele>
        <time>2023-07-20T06:11:57.000Z</time>
      </trkpt>
      <trkpt lat="42.60677" lon="1.77927">
        <ele>2052</ele>
        <time>2023-07-20T06:11:59.000Z</time>
      </trkpt>
      <trkpt lat="42.60684" lon="1.77929">
        <ele>2052.3999023438</ele>
        <time>2023-07-20T06:12:05.000Z</time>
      </trkpt>
      <trkpt lat="42.6069" lon="1.77929">
        <ele>2052.6000976562</ele>
        <time>2023-07-20T06:12:11.000Z</time>
      </trkpt>
      <trkpt lat="42.60692" lon="1.77928">
        <ele>2053</ele>
        <time>2023-07-20T06:12:13.000Z</time>
      </trkpt>
      <trkpt lat="42.60697" lon="1.77926">
        <ele>2053.6000976562</ele>
        <time>2023-07-20T06:12:19.000Z</time>
      </trkpt>
      <trkpt lat="42.60702" lon="1.77929">
        <ele>2053</ele>
        <time>2023-07-20T06:12:26.000Z</time>
      </trkpt>
      <trkpt lat="42.60704" lon="1.77931">
        <ele>2053</ele>
        <time>2023-07-20T06:12:33.000Z</time>
      </trkpt>
      <trkpt lat="42.60703" lon="1.77933">
        <ele>2052.3999023438</ele>
        <time>2023-07-20T06:12:39.000Z</time>
      </trkpt>
      <trkpt lat="42.60703" lon="1.77934">
        <ele>2052.8000488281</ele>
        <time>2023-07-20T06:12:47.000Z</time>
      </trkpt>
      <trkpt lat="42.60703" lon="1.77937">
        <ele>2052.8000488281</ele>
        <time>2023-07-20T06:12:55.000Z</time>
      </trkpt>
      <trkpt lat="42.60702" lon="1.77936">
        <ele>2053</ele>
        <time>2023-07-20T06:13:01.000Z</time>
      </trkpt>
      <trkpt lat="42.60702" lon="1.77934">
        <ele>2052.6000976562</ele>
        <time>2023-07-20T06:13:10.000Z</time>
      </trkpt>
      <trkpt lat="42.60707" lon="1.77931">
        <ele>2052.8000488281</ele>
        <time>2023-07-20T06:13:16.000Z</time>
      </trkpt>
      <trkpt lat="42.60713" lon="1.77934">
        <ele>2053</ele>
        <time>2023-07-20T06:13:24.000Z</time>
      </trkpt>
      <trkpt lat="42.60716" lon="1.77939">
        <ele>2054.1999511719</ele>
        <time>2023-07-20T06:13:28.000Z</time>
      </trkpt>
      <trkpt lat="42.60716" lon="1.7794">
        <ele>2054.1999511719</ele>
        <time>2023-07-20T06:13:31.000Z</time>
      </trkpt>
      <trkpt lat="42.60714" lon="1.77939">
        <ele>2054.1999511719</ele>
        <time>2023-07-20T06:13:39.000Z</time>
      </trkpt>
      <trkpt lat="42.60714" lon="1.77943">
        <ele>2054.1999511719</ele>
        <time>2023-07-20T06:13:48.000Z</time>
      </trkpt>
      <trkpt lat="42.60716" lon="1.77952">
        <ele>2054.8000488281</ele>
        <time>2023-07-20T06:13:55.000Z</time>
      </trkpt>
      <trkpt lat="42.60722" lon="1.77958">
        <ele>2055.1999511719</ele>
        <time>2023-07-20T06:14:02.000Z</time>
      </trkpt>
      <trkpt lat="42.60733" lon="1.77959">
        <ele>2055.3999023438</ele>
        <time>2023-07-20T06:14:10.000Z</time>
      </trkpt>
      <trkpt lat="42.60743" lon="1.77961">
        <ele>2055.6000976562</ele>
        <time>2023-07-20T06:14:18.000Z</time>
      </trkpt>
      <trkpt lat="42.6075" lon="1.77962">
        <ele>2056</ele>
        <time>2023-07-20T06:14:27.000Z</time>
      </trkpt>
      <trkpt lat="42.6076" lon="1.77956">
        <ele>2055.1999511719</ele>
        <time>2023-07-20T06:14:35.000Z</time>
      </trkpt>
      <trkpt lat="42.60768" lon="1.77953">
        <ele>2054.8000488281</ele>
        <time>2023-07-20T06:14:42.000Z</time>
      </trkpt>
      <trkpt lat="42.60778" lon="1.77958">
        <ele>2055.1999511719</ele>
        <time>2023-07-20T06:14:50.000Z</time>
      </trkpt>
      <trkpt lat="42.60783" lon="1.77959">
        <ele>2055</ele>
        <time>2023-07-20T06:14:59.000Z</time>
      </trkpt>
      <trkpt lat="42.60789" lon="1.77955">
        <ele>2055.1999511719</ele>
        <time>2023-07-20T06:15:05.000Z</time>
      </trkpt>
      <trkpt lat="42.60799" lon="1.77949">
        <ele>2055.8000488281</ele>
        <time>2023-07-20T06:15:15.000Z</time>
      </trkpt>
      <trkpt lat="42.60809" lon="1.77945">
        <ele>2056.1999511719</ele>
        <time>2023-07-20T06:15:24.000Z</time>
      </trkpt>
      <trkpt lat="42.60818" lon="1.77942">
        <ele>2056.1999511719</ele>
        <time>2023-07-20T06:15:32.000Z</time>
      </trkpt>
      <trkpt lat="42.60826" lon="1.77938">
        <ele>2057</ele>
        <time>2023-07-20T06:15:41.000Z</time>
      </trkpt>
      <trkpt lat="42.60828" lon="1.77931">
        <ele>2057.1999511719</ele>
        <time>2023-07-20T06:15:46.000Z</time>
      </trkpt>
      <trkpt lat="42.60829" lon="1.7793">
        <ele>2057.1999511719</ele>
        <time>2023-07-20T06:15:47.000Z</time>
      </trkpt>
      <trkpt lat="42.60839" lon="1.77921">
        <ele>2056.8000488281</ele>
        <time>2023-07-20T06:15:56.000Z</time>
      </trkpt>
      <trkpt lat="42.60847" lon="1.7791">
        <ele>2058</ele>
        <time>2023-07-20T06:16:06.000Z</time>
      </trkpt>
      <trkpt lat="42.60849" lon="1.77908">
        <ele>2058.3999023438</ele>
        <time>2023-07-20T06:16:08.000Z</time>
      </trkpt>
      <trkpt lat="42.60856" lon="1.77902">
        <ele>2058.8000488281</ele>
        <time>2023-07-20T06:16:15.000Z</time>
      </trkpt>
      <trkpt lat="42.6086" lon="1.77896">
        <ele>2058.8000488281</ele>
        <time>2023-07-20T06:16:23.000Z</time>
      </trkpt>
      <trkpt lat="42.60867" lon="1.77888">
        <ele>2059.3999023438</ele>
        <time>2023-07-20T06:16:31.000Z</time>
      </trkpt>
      <trkpt lat="42.60868" lon="1.77888">
        <ele>2059.3999023438</ele>
        <time>2023-07-20T06:16:32.000Z</time>
      </trkpt>
      <trkpt lat="42.60873" lon="1.77889">
        <ele>2059.3999023438</ele>
        <time>2023-07-20T06:16:37.000Z</time>
      </trkpt>
      <trkpt lat="42.60877" lon="1.77889">
        <ele>2060.6000976562</ele>
        <time>2023-07-20T06:16:44.000Z</time>
      </trkpt>
      <trkpt lat="42.60878" lon="1.77888">
        <ele>2060.6000976562</ele>
        <time>2023-07-20T06:16:45.000Z</time>
      </trkpt>
      <trkpt lat="42.60885" lon="1.77881">
        <ele>2061.1999511719</ele>
        <time>2023-07-20T06:16:53.000Z</time>
      </trkpt>
      <trkpt lat="42.60888" lon="1.7788">
        <ele>2061.6000976562</ele>
        <time>2023-07-20T06:16:58.000Z</time>
      </trkpt>
      <trkpt lat="42.60888" lon="1.7788">
        <ele>2062</ele>
        <time>2023-07-20T06:17:01.000Z</time>
      </trkpt>
      <trkpt lat="42.60891" lon="1.77871">
        <ele>2062.6000976562</ele>
        <time>2023-07-20T06:17:09.000Z</time>
      </trkpt>
      <trkpt lat="42.60898" lon="1.77866">
        <ele>2062.6000976562</ele>
        <time>2023-07-20T06:17:15.000Z</time>
      </trkpt>
      <trkpt lat="42.60902" lon="1.77866">
        <ele>2062.6000976562</ele>
        <time>2023-07-20T06:17:19.000Z</time>
      </trkpt>
      <trkpt lat="42.60904" lon="1.77867">
        <ele>2062.8000488281</ele>
        <time>2023-07-20T06:17:22.000Z</time>
      </trkpt>
      <trkpt lat="42.60907" lon="1.77866">
        <ele>2063.8000488281</ele>
        <time>2023-07-20T06:17:28.000Z</time>
      </trkpt>
      <trkpt lat="42.60907" lon="1.77865">
        <ele>2063.8000488281</ele>
        <time>2023-07-20T06:17:29.000Z</time>
      </trkpt>
      <trkpt lat="42.60914" lon="1.77862">
        <ele>2064.8000488281</ele>
        <time>2023-07-20T06:17:36.000Z</time>
      </trkpt>
      <trkpt lat="42.60923" lon="1.77861">
        <ele>2065.6000976562</ele>
        <time>2023-07-20T06:17:45.000Z</time>
      </trkpt>
      <trkpt lat="42.60924" lon="1.77861">
        <ele>2065.8000488281</ele>
        <time>2023-07-20T06:17:47.000Z</time>
      </trkpt>
      <trkpt lat="42.60925" lon="1.77861">
        <ele>2066.6000976562</ele>
        <time>2023-07-20T06:17:52.000Z</time>
      </trkpt>
      <trkpt lat="42.60925" lon="1.77861">
        <ele>2067</ele>
        <time>2023-07-20T06:17:55.000Z</time>
      </trkpt>
      <trkpt lat="42.60925" lon="1.77861">
        <ele>2066.6000976562</ele>
        <time>2023-07-20T06:18:00.000Z</time>
      </trkpt>
      <trkpt lat="42.60927" lon="1.77859">
        <ele>2066.8000488281</ele>
        <time>2023-07-20T06:18:06.000Z</time>
      </trkpt>
      <trkpt lat="42.60924" lon="1.7786">
        <ele>2066.8000488281</ele>
        <time>2023-07-20T06:18:12.000Z</time>
      </trkpt>
      <trkpt lat="42.60917" lon="1.77862">
        <ele>2066</ele>
        <time>2023-07-20T06:18:20.000Z</time>
      </trkpt>
      <trkpt lat="42.60916" lon="1.77862">
        <ele>2065.6000976562</ele>
        <time>2023-07-20T06:18:21.000Z</time>
      </trkpt>
      <trkpt lat="42.60913" lon="1.77862">
        <ele>2064.8000488281</ele>
        <time>2023-07-20T06:18:28.000Z</time>
      </trkpt>
      <trkpt lat="42.6091" lon="1.77863">
        <ele>2064.6000976562</ele>
        <time>2023-07-20T06:18:31.000Z</time>
      </trkpt>
      <trkpt lat="42.60907" lon="1.77865">
        <ele>2064.1999511719</ele>
        <time>2023-07-20T06:18:35.000Z</time>
      </trkpt>
      <trkpt lat="42.60905" lon="1.77867">
        <ele>2063.8000488281</ele>
        <time>2023-07-20T06:18:42.000Z</time>
      </trkpt>
      <trkpt lat="42.60903" lon="1.77869">
        <ele>2063.6000976562</ele>
        <time>2023-07-20T06:18:48.000Z</time>
      </trkpt>
      <trkpt lat="42.60896" lon="1.7787">
        <ele>2062.6000976562</ele>
        <time>2023-07-20T06:18:54.000Z</time>
      </trkpt>
      <trkpt lat="42.60894" lon="1.77873">
        <ele>2062.6000976562</ele>
        <time>2023-07-20T06:19:01.000Z</time>
      </trkpt>
      <trkpt lat="42.60894" lon="1.77874">
        <ele>2062.3999023438</ele>
        <time>2023-07-20T06:19:02.000Z</time>
      </trkpt>
      <trkpt lat="42.60892" lon="1.77875">
        <ele>2062.6000976562</ele>
        <time>2023-07-20T06:19:09.000Z</time>
      </trkpt>
      <trkpt lat="42.60892" lon="1.77876">
        <ele>2062.3999023438</ele>
        <time>2023-07-20T06:19:18.000Z</time>
      </trkpt>
      <trkpt lat="42.60892" lon="1.77874">
        <ele>2062.6000976562</ele>
        <time>2023-07-20T06:19:25.000Z</time>
      </trkpt>
      <trkpt lat="42.60892" lon="1.77873">
        <ele>2062.1999511719</ele>
        <time>2023-07-20T06:19:33.000Z</time>
      </trkpt>
      <trkpt lat="42.609" lon="1.77872">
        <ele>2062.6000976562</ele>
        <time>2023-07-20T06:19:40.000Z</time>
      </trkpt>
      <trkpt lat="42.60905" lon="1.7787">
        <ele>2062.8000488281</ele>
        <time>2023-07-20T06:19:47.000Z</time>
      </trkpt>
      <trkpt lat="42.60907" lon="1.77868">
        <ele>2063.6000976562</ele>
        <time>2023-07-20T06:19:51.000Z</time>
      </trkpt>
      <trkpt lat="42.60908" lon="1.77866">
        <ele>2063.6000976562</ele>
        <time>2023-07-20T06:19:55.000Z</time>
      </trkpt>
      <trkpt lat="42.60912" lon="1.7786">
        <ele>2064.3999023438</ele>
        <time>2023-07-20T06:20:03.000Z</time>
      </trkpt>
      <trkpt lat="42.60917" lon="1.77861">
        <ele>2064.6000976562</ele>
        <time>2023-07-20T06:20:11.000Z</time>
      </trkpt>
      <trkpt lat="42.60917" lon="1.77861">
        <ele>2064.8000488281</ele>
        <time>2023-07-20T06:20:12.000Z</time>
      </trkpt>
      <trkpt lat="42.60919" lon="1.7786">
        <ele>2065.6000976562</ele>
        <time>2023-07-20T06:20:18.000Z</time>
      </trkpt>
      <trkpt lat="42.60921" lon="1.77858">
        <ele>2066</ele>
        <time>2023-07-20T06:20:21.000Z</time>
      </trkpt>
      <trkpt lat="42.60924" lon="1.77854">
        <ele>2067</ele>
        <time>2023-07-20T06:20:27.000Z</time>
      </trkpt>
      <trkpt lat="42.60923" lon="1.77854">
        <ele>2067</ele>
        <time>2023-07-20T06:20:28.000Z</time>
      </trkpt>
      <trkpt lat="42.60921" lon="1.77852">
        <ele>2067</ele>
        <time>2023-07-20T06:20:32.000Z</time>
      </trkpt>
      <trkpt lat="42.60921" lon="1.7785">
        <ele>2067.1999511719</ele>
        <time>2023-07-20T06:20:39.000Z</time>
      </trkpt>
      <trkpt lat="42.60923" lon="1.77847">
        <ele>2067.3999023438</ele>
        <time>2023-07-20T06:20:45.000Z</time>
      </trkpt>
      <trkpt lat="42.60926" lon="1.77842">
        <ele>2068</ele>
        <time>2023-07-20T06:20:53.000Z</time>
      </trkpt>
      <trkpt lat="42.60926" lon="1.77842">
        <ele>2068</ele>
        <time>2023-07-20T06:20:55.000Z</time>
      </trkpt>
      <trkpt lat="42.60925" lon="1.77841">
        <ele>2068</ele>
        <time>2023-07-20T06:21:01.000Z</time>
      </trkpt>
      <trkpt lat="42.60929" lon="1.77836">
        <ele>2068.1999511719</ele>
        <time>2023-07-20T06:21:09.000Z</time>
      </trkpt>
      <trkpt lat="42.60928" lon="1.77834">
        <ele>2069</ele>
        <time>2023-07-20T06:21:15.000Z</time>
      </trkpt>
      <trkpt lat="42.60931" lon="1.77831">
        <ele>2069</ele>
        <time>2023-07-20T06:21:21.000Z</time>
      </trkpt>
      <trkpt lat="42.60931" lon="1.77832">
        <ele>2069.1999511719</ele>
        <time>2023-07-20T06:21:23.000Z</time>
      </trkpt>
      <trkpt lat="42.60935" lon="1.77834">
        <ele>2070</ele>
        <time>2023-07-20T06:21:29.000Z</time>
      </trkpt>
      <trkpt lat="42.60935" lon="1.77834">
        <ele>2070.1999511719</ele>
        <time>2023-07-20T06:21:30.000Z</time>
      </trkpt>
      <trkpt lat="42.60935" lon="1.77833">
        <ele>2070.6000976562</ele>
        <time>2023-07-20T06:21:38.000Z</time>
      </trkpt>
      <trkpt lat="42.60937" lon="1.77828">
        <ele>2071</ele>
        <time>2023-07-20T06:21:46.000Z</time>
      </trkpt>
      <trkpt lat="42.60942" lon="1.77826">
        <ele>2071.3999023438</ele>
        <time>2023-07-20T06:21:53.000Z</time>
      </trkpt>
      <trkpt lat="42.60946" lon="1.77825">
        <ele>2072</ele>
        <time>2023-07-20T06:21:59.000Z</time>
      </trkpt>
      <trkpt lat="42.60949" lon="1.77825">
        <ele>2072.3999023438</ele>
        <time>2023-07-20T06:22:04.000Z</time>
      </trkpt>
      <trkpt lat="42.6095" lon="1.77825">
        <ele>2072.6000976562</ele>
        <time>2023-07-20T06:22:05.000Z</time>
      </trkpt>
      <trkpt lat="42.60953" lon="1.77825">
        <ele>2073.6000976562</ele>
        <time>2023-07-20T06:22:11.000Z</time>
      </trkpt>
      <trkpt lat="42.60957" lon="1.77829">
        <ele>2074.6000976562</ele>
        <time>2023-07-20T06:22:17.000Z</time>
      </trkpt>
      <trkpt lat="42.60959" lon="1.77829">
        <ele>2075.3999023438</ele>
        <time>2023-07-20T06:22:24.000Z</time>
      </trkpt>
      <trkpt lat="42.6096" lon="1.77828">
        <ele>2075.6000976562</ele>
        <time>2023-07-20T06:22:26.000Z</time>
      </trkpt>
      <trkpt lat="42.60961" lon="1.77823">
        <ele>2076.6000976562</ele>
        <time>2023-07-20T06:22:33.000Z</time>
      </trkpt>
      <trkpt lat="42.60961" lon="1.77822">
        <ele>2076.8000488281</ele>
        <time>2023-07-20T06:22:34.000Z</time>
      </trkpt>
      <trkpt lat="42.60961" lon="1.77814">
        <ele>2077.6000976562</ele>
        <time>2023-07-20T06:22:39.000Z</time>
      </trkpt>
      <trkpt lat="42.60961" lon="1.7781">
        <ele>2077.8000488281</ele>
        <time>2023-07-20T06:22:47.000Z</time>
      </trkpt>
      <trkpt lat="42.60961" lon="1.7781">
        <ele>2077.8000488281</ele>
        <time>2023-07-20T06:22:48.000Z</time>
      </trkpt>
      <trkpt lat="42.60962" lon="1.77807">
        <ele>2078.1999511719</ele>
        <time>2023-07-20T06:22:54.000Z</time>
      </trkpt>
      <trkpt lat="42.60963" lon="1.77804">
        <ele>2078.6000976562</ele>
        <time>2023-07-20T06:22:59.000Z</time>
      </trkpt>
      <trkpt lat="42.60965" lon="1.77802">
        <ele>2079</ele>
        <time>2023-07-20T06:23:03.000Z</time>
      </trkpt>
      <trkpt lat="42.60965" lon="1.77802">
        <ele>2079.6000976562</ele>
        <time>2023-07-20T06:23:07.000Z</time>
      </trkpt>
      <trkpt lat="42.60969" lon="1.77799">
        <ele>2080</ele>
        <time>2023-07-20T06:23:12.000Z</time>
      </trkpt>
      <trkpt lat="42.60971" lon="1.77798">
        <ele>2080.1999511719</ele>
        <time>2023-07-20T06:23:15.000Z</time>
      </trkpt>
      <trkpt lat="42.60974" lon="1.778">
        <ele>2081</ele>
        <time>2023-07-20T06:23:20.000Z</time>
      </trkpt>
      <trkpt lat="42.60976" lon="1.778">
        <ele>2081.6000976562</ele>
        <time>2023-07-20T06:23:23.000Z</time>
      </trkpt>
      <trkpt lat="42.60978" lon="1.77798">
        <ele>2082</ele>
        <time>2023-07-20T06:23:27.000Z</time>
      </trkpt>
      <trkpt lat="42.60983" lon="1.77793">
        <ele>2082.6000976562</ele>
        <time>2023-07-20T06:23:31.000Z</time>
      </trkpt>
      <trkpt lat="42.60986" lon="1.77788">
        <ele>2083.1999511719</ele>
        <time>2023-07-20T06:23:36.000Z</time>
      </trkpt>
      <trkpt lat="42.60986" lon="1.77788">
        <ele>2083.1999511719</ele>
        <time>2023-07-20T06:23:37.000Z</time>
      </trkpt>
      <trkpt lat="42.60983" lon="1.77784">
        <ele>2083.8000488281</ele>
        <time>2023-07-20T06:23:45.000Z</time>
      </trkpt>
      <trkpt lat="42.60983" lon="1.77777">
        <ele>2084</ele>
        <time>2023-07-20T06:23:53.000Z</time>
      </trkpt>
      <trkpt lat="42.60986" lon="1.77774">
        <ele>2084</ele>
        <time>2023-07-20T06:23:59.000Z</time>
      </trkpt>
      <trkpt lat="42.60987" lon="1.77774">
        <ele>2084.1999511719</ele>
        <time>2023-07-20T06:24:00.000Z</time>
      </trkpt>
      <trkpt lat="42.60989" lon="1.77774">
        <ele>2084.8000488281</ele>
        <time>2023-07-20T06:24:05.000Z</time>
      </trkpt>
      <trkpt lat="42.60989" lon="1.77772">
        <ele>2085</ele>
        <time>2023-07-20T06:24:07.000Z</time>
      </trkpt>
      <trkpt lat="42.60989" lon="1.7777">
        <ele>2085.3999023438</ele>
        <time>2023-07-20T06:24:09.000Z</time>
      </trkpt>
      <trkpt lat="42.60991" lon="1.77766">
        <ele>2085.8000488281</ele>
        <time>2023-07-20T06:24:13.000Z</time>
      </trkpt>
      <trkpt lat="42.60995" lon="1.77763">
        <ele>2086.3999023438</ele>
        <time>2023-07-20T06:24:17.000Z</time>
      </trkpt>
      <trkpt lat="42.60997" lon="1.77761">
        <ele>2086.3999023438</ele>
        <time>2023-07-20T06:24:21.000Z</time>
      </trkpt>
      <trkpt lat="42.61" lon="1.77754">
        <ele>2085.6000976562</ele>
        <time>2023-07-20T06:24:28.000Z</time>
      </trkpt>
      <trkpt lat="42.61" lon="1.77747">
        <ele>2085.8000488281</ele>
        <time>2023-07-20T06:24:35.000Z</time>
      </trkpt>
      <trkpt lat="42.61004" lon="1.77738">
        <ele>2085.6000976562</ele>
        <time>2023-07-20T06:24:42.000Z</time>
      </trkpt>
      <trkpt lat="42.61007" lon="1.77729">
        <ele>2085.8000488281</ele>
        <time>2023-07-20T06:24:51.000Z</time>
      </trkpt>
      <trkpt lat="42.61008" lon="1.77722">
        <ele>2086.6000976562</ele>
        <time>2023-07-20T06:24:58.000Z</time>
      </trkpt>
      <trkpt lat="42.6101" lon="1.77719">
        <ele>2087.6000976562</ele>
        <time>2023-07-20T06:25:02.000Z</time>
      </trkpt>
      <trkpt lat="42.6101" lon="1.77718">
        <ele>2087.6000976562</ele>
        <time>2023-07-20T06:25:08.000Z</time>
      </trkpt>
      <trkpt lat="42.61007" lon="1.77721">
        <ele>2087.8000488281</ele>
        <time>2023-07-20T06:25:16.000Z</time>
      </trkpt>
      <trkpt lat="42.61011" lon="1.77721">
        <ele>2087.3999023438</ele>
        <time>2023-07-20T06:25:25.000Z</time>
      </trkpt>
      <trkpt lat="42.61019" lon="1.77721">
        <ele>2088.6000976562</ele>
        <time>2023-07-20T06:25:34.000Z</time>
      </trkpt>
      <trkpt lat="42.61026" lon="1.77719">
        <ele>2089.6000976562</ele>
        <time>2023-07-20T06:25:42.000Z</time>
      </trkpt>
      <trkpt lat="42.61028" lon="1.77718">
        <ele>2089.6000976562</ele>
        <time>2023-07-20T06:25:44.000Z</time>
      </trkpt>
      <trkpt lat="42.61035" lon="1.77716">
        <ele>2089.8000488281</ele>
        <time>2023-07-20T06:25:49.000Z</time>
      </trkpt>
      <trkpt lat="42.61043" lon="1.77713">
        <ele>2089.8000488281</ele>
        <time>2023-07-20T06:25:56.000Z</time>
      </trkpt>
      <trkpt lat="42.61049" lon="1.77707">
        <ele>2090.3999023438</ele>
        <time>2023-07-20T06:26:03.000Z</time>
      </trkpt>
      <trkpt lat="42.61051" lon="1.77706">
        <ele>2091</ele>
        <time>2023-07-20T06:26:05.000Z</time>
      </trkpt>
      <trkpt lat="42.61055" lon="1.77705">
        <ele>2091.3999023438</ele>
        <time>2023-07-20T06:26:11.000Z</time>
      </trkpt>
      <trkpt lat="42.61055" lon="1.77702">
        <ele>2091.8000488281</ele>
        <time>2023-07-20T06:26:17.000Z</time>
      </trkpt>
      <trkpt lat="42.61056" lon="1.77701">
        <ele>2091.8000488281</ele>
        <time>2023-07-20T06:26:20.000Z</time>
      </trkpt>
      <trkpt lat="42.61059" lon="1.77698">
        <ele>2091.8000488281</ele>
        <time>2023-07-20T06:26:23.000Z</time>
      </trkpt>
      <trkpt lat="42.61066" lon="1.77692">
        <ele>2092</ele>
        <time>2023-07-20T06:26:30.000Z</time>
      </trkpt>
      <trkpt lat="42.61067" lon="1.77692">
        <ele>2092</ele>
        <time>2023-07-20T06:26:31.000Z</time>
      </trkpt>
      <trkpt lat="42.61071" lon="1.77691">
        <ele>2092.1999511719</ele>
        <time>2023-07-20T06:26:38.000Z</time>
      </trkpt>
      <trkpt lat="42.6107" lon="1.77689">
        <ele>2092.3999023438</ele>
        <time>2023-07-20T06:26:46.000Z</time>
      </trkpt>
      <trkpt lat="42.61075" lon="1.77691">
        <ele>2092.3999023438</ele>
        <time>2023-07-20T06:26:51.000Z</time>
      </trkpt>
      <trkpt lat="42.61079" lon="1.77689">
        <ele>2093.1999511719</ele>
        <time>2023-07-20T06:26:57.000Z</time>
      </trkpt>
      <trkpt lat="42.6108" lon="1.77688">
        <ele>2093.6000976562</ele>
        <time>2023-07-20T06:26:59.000Z</time>
      </trkpt>
      <trkpt lat="42.61081" lon="1.77688">
        <ele>2094.1999511719</ele>
        <time>2023-07-20T06:27:02.000Z</time>
      </trkpt>
      <trkpt lat="42.61084" lon="1.77689">
        <ele>2095.1999511719</ele>
        <time>2023-07-20T06:27:08.000Z</time>
      </trkpt>
      <trkpt lat="42.61085" lon="1.77689">
        <ele>2095.6000976562</ele>
        <time>2023-07-20T06:27:10.000Z</time>
      </trkpt>
      <trkpt lat="42.61086" lon="1.77687">
        <ele>2096.1999511719</ele>
        <time>2023-07-20T06:27:15.000Z</time>
      </trkpt>
      <trkpt lat="42.61087" lon="1.77685">
        <ele>2096.6000976562</ele>
        <time>2023-07-20T06:27:17.000Z</time>
      </trkpt>
      <trkpt lat="42.61091" lon="1.77681">
        <ele>2096.8000488281</ele>
        <time>2023-07-20T06:27:23.000Z</time>
      </trkpt>
      <trkpt lat="42.61094" lon="1.7768">
        <ele>2097.1999511719</ele>
        <time>2023-07-20T06:27:30.000Z</time>
      </trkpt>
      <trkpt lat="42.61095" lon="1.77681">
        <ele>2097.3999023438</ele>
        <time>2023-07-20T06:27:33.000Z</time>
      </trkpt>
      <trkpt lat="42.61097" lon="1.77679">
        <ele>2097.8000488281</ele>
        <time>2023-07-20T06:27:38.000Z</time>
      </trkpt>
      <trkpt lat="42.611" lon="1.77675">
        <ele>2098.1999511719</ele>
        <time>2023-07-20T06:27:44.000Z</time>
      </trkpt>
      <trkpt lat="42.61101" lon="1.77675">
        <ele>2098.3999023438</ele>
        <time>2023-07-20T06:27:46.000Z</time>
      </trkpt>
      <trkpt lat="42.61101" lon="1.77672">
        <ele>2099.3999023438</ele>
        <time>2023-07-20T06:27:52.000Z</time>
      </trkpt>
      <trkpt lat="42.61101" lon="1.7767">
        <ele>2099.6000976562</ele>
        <time>2023-07-20T06:27:54.000Z</time>
      </trkpt>
      <trkpt lat="42.61103" lon="1.77666">
        <ele>2100.6000976562</ele>
        <time>2023-07-20T06:28:00.000Z</time>
      </trkpt>
      <trkpt lat="42.61103" lon="1.77665">
        <ele>2100.8000488281</ele>
        <time>2023-07-20T06:28:01.000Z</time>
      </trkpt>
      <trkpt lat="42.61107" lon="1.77665">
        <ele>2101.6000976562</ele>
        <time>2023-07-20T06:28:08.000Z</time>
      </trkpt>
      <trkpt lat="42.61108" lon="1.77664">
        <ele>2101.8000488281</ele>
        <time>2023-07-20T06:28:09.000Z</time>
      </trkpt>
      <trkpt lat="42.61112" lon="1.77661">
        <ele>2102.6000976562</ele>
        <time>2023-07-20T06:28:16.000Z</time>
      </trkpt>
      <trkpt lat="42.61112" lon="1.77661">
        <ele>2102.8000488281</ele>
        <time>2023-07-20T06:28:17.000Z</time>
      </trkpt>
      <trkpt lat="42.61113" lon="1.7766">
        <ele>2104</ele>
        <time>2023-07-20T06:28:23.000Z</time>
      </trkpt>
      <trkpt lat="42.61116" lon="1.77659">
        <ele>2105</ele>
        <time>2023-07-20T06:28:29.000Z</time>
      </trkpt>
      <trkpt lat="42.61116" lon="1.77658">
        <ele>2105.8000488281</ele>
        <time>2023-07-20T06:28:33.000Z</time>
      </trkpt>
      <trkpt lat="42.61118" lon="1.77658">
        <ele>2106.1999511719</ele>
        <time>2023-07-20T06:28:35.000Z</time>
      </trkpt>
      <trkpt lat="42.61118" lon="1.77656">
        <ele>2106.8000488281</ele>
        <time>2023-07-20T06:28:39.000Z</time>
      </trkpt>
      <trkpt lat="42.61117" lon="1.77654">
        <ele>2107.1999511719</ele>
        <time>2023-07-20T06:28:44.000Z</time>
      </trkpt>
      <trkpt lat="42.61117" lon="1.77653">
        <ele>2107.3999023438</ele>
        <time>2023-07-20T06:28:47.000Z</time>
      </trkpt>
      <trkpt lat="42.61121" lon="1.77649">
        <ele>2107.6000976562</ele>
        <time>2023-07-20T06:28:54.000Z</time>
      </trkpt>
      <trkpt lat="42.61122" lon="1.7765">
        <ele>2108.3999023438</ele>
        <time>2023-07-20T06:28:57.000Z</time>
      </trkpt>
      <trkpt lat="42.61123" lon="1.77652">
        <ele>2108.8000488281</ele>
        <time>2023-07-20T06:29:01.000Z</time>
      </trkpt>
      <trkpt lat="42.61125" lon="1.77652">
        <ele>2109.6000976562</ele>
        <time>2023-07-20T06:29:06.000Z</time>
      </trkpt>
      <trkpt lat="42.61125" lon="1.77651">
        <ele>2109.6000976562</ele>
        <time>2023-07-20T06:29:08.000Z</time>
      </trkpt>
      <trkpt lat="42.61126" lon="1.77651">
        <ele>2110.6000976562</ele>
        <time>2023-07-20T06:29:14.000Z</time>
      </trkpt>
      <trkpt lat="42.61126" lon="1.77651">
        <ele>2111</ele>
        <time>2023-07-20T06:29:15.000Z</time>
      </trkpt>
      <trkpt lat="42.61126" lon="1.77647">
        <ele>2111.8000488281</ele>
        <time>2023-07-20T06:29:20.000Z</time>
      </trkpt>
      <trkpt lat="42.61126" lon="1.77646">
        <ele>2112</ele>
        <time>2023-07-20T06:29:23.000Z</time>
      </trkpt>
      <trkpt lat="42.6113" lon="1.77646">
        <ele>2112.8000488281</ele>
        <time>2023-07-20T06:29:30.000Z</time>
      </trkpt>
      <trkpt lat="42.61131" lon="1.77647">
        <ele>2113.1999511719</ele>
        <time>2023-07-20T06:29:32.000Z</time>
      </trkpt>
      <trkpt lat="42.61133" lon="1.77645">
        <ele>2114</ele>
        <time>2023-07-20T06:29:37.000Z</time>
      </trkpt>
      <trkpt lat="42.61132" lon="1.77645">
        <ele>2114.3999023438</ele>
        <time>2023-07-20T06:29:39.000Z</time>
      </trkpt>
      <trkpt lat="42.61134" lon="1.77644">
        <ele>2115</ele>
        <time>2023-07-20T06:29:42.000Z</time>
      </trkpt>
      <trkpt lat="42.61135" lon="1.77642">
        <ele>2116</ele>
        <time>2023-07-20T06:29:47.000Z</time>
      </trkpt>
      <trkpt lat="42.61135" lon="1.77641">
        <ele>2116.1999511719</ele>
        <time>2023-07-20T06:29:48.000Z</time>
      </trkpt>
      <trkpt lat="42.61135" lon="1.77638">
        <ele>2117</ele>
        <time>2023-07-20T06:29:52.000Z</time>
      </trkpt>
      <trkpt lat="42.61137" lon="1.77637">
        <ele>2118</ele>
        <time>2023-07-20T06:29:58.000Z</time>
      </trkpt>
      <trkpt lat="42.61138" lon="1.77637">
        <ele>2118.1999511719</ele>
        <time>2023-07-20T06:30:00.000Z</time>
      </trkpt>
      <trkpt lat="42.61141" lon="1.77635">
        <ele>2119</ele>
        <time>2023-07-20T06:30:06.000Z</time>
      </trkpt>
      <trkpt lat="42.61141" lon="1.77634">
        <ele>2119.3999023438</ele>
        <time>2023-07-20T06:30:08.000Z</time>
      </trkpt>
      <trkpt lat="42.61143" lon="1.77632">
        <ele>2120.1999511719</ele>
        <time>2023-07-20T06:30:14.000Z</time>
      </trkpt>
      <trkpt lat="42.61144" lon="1.77632">
        <ele>2120.3999023438</ele>
        <time>2023-07-20T06:30:16.000Z</time>
      </trkpt>
      <trkpt lat="42.61148" lon="1.77633">
        <ele>2121.3999023438</ele>
        <time>2023-07-20T06:30:23.000Z</time>
      </trkpt>
      <trkpt lat="42.61149" lon="1.77632">
        <ele>2121.6000976562</ele>
        <time>2023-07-20T06:30:24.000Z</time>
      </trkpt>
      <trkpt lat="42.6115" lon="1.77633">
        <ele>2122.3999023438</ele>
        <time>2023-07-20T06:30:30.000Z</time>
      </trkpt>
      <trkpt lat="42.61151" lon="1.77633">
        <ele>2122.8000488281</ele>
        <time>2023-07-20T06:30:32.000Z</time>
      </trkpt>
      <trkpt lat="42.61153" lon="1.77633">
        <ele>2123.8000488281</ele>
        <time>2023-07-20T06:30:37.000Z</time>
      </trkpt>
      <trkpt lat="42.61153" lon="1.77632">
        <ele>2124.1999511719</ele>
        <time>2023-07-20T06:30:39.000Z</time>
      </trkpt>
      <trkpt lat="42.61154" lon="1.77631">
        <ele>2125</ele>
        <time>2023-07-20T06:30:42.000Z</time>
      </trkpt>
      <trkpt lat="42.61155" lon="1.77629">
        <ele>2125.8000488281</ele>
        <time>2023-07-20T06:30:47.000Z</time>
      </trkpt>
      <trkpt lat="42.61155" lon="1.77629">
        <ele>2126</ele>
        <time>2023-07-20T06:30:48.000Z</time>
      </trkpt>
      <trkpt lat="42.61157" lon="1.77625">
        <ele>2126.6000976562</ele>
        <time>2023-07-20T06:30:54.000Z</time>
      </trkpt>
      <trkpt lat="42.61158" lon="1.77625">
        <ele>2127.1999511719</ele>
        <time>2023-07-20T06:30:57.000Z</time>
      </trkpt>
      <trkpt lat="42.61161" lon="1.77624">
        <ele>2128.1999511719</ele>
        <time>2023-07-20T06:31:03.000Z</time>
      </trkpt>
      <trkpt lat="42.61162" lon="1.77624">
        <ele>2128.6000976562</ele>
        <time>2023-07-20T06:31:04.000Z</time>
      </trkpt>
      <trkpt lat="42.61162" lon="1.77622">
        <ele>2129.3999023438</ele>
        <time>2023-07-20T06:31:08.000Z</time>
      </trkpt>
      <trkpt lat="42.61162" lon="1.7762">
        <ele>2130</ele>
        <time>2023-07-20T06:31:11.000Z</time>
      </trkpt>
      <trkpt lat="42.61162" lon="1.77621">
        <ele>2130.3999023438</ele>
        <time>2023-07-20T06:31:14.000Z</time>
      </trkpt>
      <trkpt lat="42.61162" lon="1.7762">
        <ele>2131</ele>
        <time>2023-07-20T06:31:18.000Z</time>
      </trkpt>
      <trkpt lat="42.61163" lon="1.77617">
        <ele>2131.6000976562</ele>
        <time>2023-07-20T06:31:22.000Z</time>
      </trkpt>
      <trkpt lat="42.61166" lon="1.77616">
        <ele>2132.1999511719</ele>
        <time>2023-07-20T06:31:28.000Z</time>
      </trkpt>
      <trkpt lat="42.61167" lon="1.77615">
        <ele>2132.6000976562</ele>
        <time>2023-07-20T06:31:30.000Z</time>
      </trkpt>
      <trkpt lat="42.61169" lon="1.7761">
        <ele>2133.3999023438</ele>
        <time>2023-07-20T06:31:36.000Z</time>
      </trkpt>
      <trkpt lat="42.61171" lon="1.77607">
        <ele>2133.6000976562</ele>
        <time>2023-07-20T06:31:40.000Z</time>
      </trkpt>
      <trkpt lat="42.61172" lon="1.77605">
        <ele>2134.1999511719</ele>
        <time>2023-07-20T06:31:44.000Z</time>
      </trkpt>
      <trkpt lat="42.61175" lon="1.77602">
        <ele>2134.8000488281</ele>
        <time>2023-07-20T06:31:49.000Z</time>
      </trkpt>
      <trkpt lat="42.61176" lon="1.77602">
        <ele>2135</ele>
        <time>2023-07-20T06:31:51.000Z</time>
      </trkpt>
      <trkpt lat="42.61178" lon="1.77598">
        <ele>2135.8000488281</ele>
        <time>2023-07-20T06:31:57.000Z</time>
      </trkpt>
      <trkpt lat="42.61178" lon="1.77597">
        <ele>2135.8000488281</ele>
        <time>2023-07-20T06:31:58.000Z</time>
      </trkpt>
      <trkpt lat="42.61181" lon="1.77593">
        <ele>2136.8000488281</ele>
        <time>2023-07-20T06:32:04.000Z</time>
      </trkpt>
      <trkpt lat="42.61181" lon="1.77593">
        <ele>2137.1999511719</ele>
        <time>2023-07-20T06:32:06.000Z</time>
      </trkpt>
      <trkpt lat="42.61179" lon="1.7759">
        <ele>2137.8000488281</ele>
        <time>2023-07-20T06:32:11.000Z</time>
      </trkpt>
      <trkpt lat="42.6118" lon="1.77587">
        <ele>2138.1999511719</ele>
        <time>2023-07-20T06:32:13.000Z</time>
      </trkpt>
      <trkpt lat="42.6118" lon="1.77581">
        <ele>2139</ele>
        <time>2023-07-20T06:32:18.000Z</time>
      </trkpt>
      <trkpt lat="42.61179" lon="1.7758">
        <ele>2139.3999023438</ele>
        <time>2023-07-20T06:32:21.000Z</time>
      </trkpt>
      <trkpt lat="42.6118" lon="1.77578">
        <ele>2140.1999511719</ele>
        <time>2023-07-20T06:32:25.000Z</time>
      </trkpt>
      <trkpt lat="42.6118" lon="1.77578">
        <ele>2140.1999511719</ele>
        <time>2023-07-20T06:32:26.000Z</time>
      </trkpt>
      <trkpt lat="42.61181" lon="1.77576">
        <ele>2141.1999511719</ele>
        <time>2023-07-20T06:32:32.000Z</time>
      </trkpt>
      <trkpt lat="42.61182" lon="1.77574">
        <ele>2142.1999511719</ele>
        <time>2023-07-20T06:32:36.000Z</time>
      </trkpt>
      <trkpt lat="42.61182" lon="1.77573">
        <ele>2142.3999023438</ele>
        <time>2023-07-20T06:32:37.000Z</time>
      </trkpt>
      <trkpt lat="42.61186" lon="1.77572">
        <ele>2143.3999023438</ele>
        <time>2023-07-20T06:32:44.000Z</time>
      </trkpt>
      <trkpt lat="42.61186" lon="1.77571">
        <ele>2143.6000976562</ele>
        <time>2023-07-20T06:32:45.000Z</time>
      </trkpt>
      <trkpt lat="42.61187" lon="1.77569">
        <ele>2144.1999511719</ele>
        <time>2023-07-20T06:32:50.000Z</time>
      </trkpt>
      <trkpt lat="42.61187" lon="1.77567">
        <ele>2144.6000976562</ele>
        <time>2023-07-20T06:32:53.000Z</time>
      </trkpt>
      <trkpt lat="42.61187" lon="1.77565">
        <ele>2145</ele>
        <time>2023-07-20T06:32:56.000Z</time>
      </trkpt>
      <trkpt lat="42.61188" lon="1.7757">
        <ele>2145</ele>
        <time>2023-07-20T06:33:05.000Z</time>
      </trkpt>
      <trkpt lat="42.6119" lon="1.77568">
        <ele>2144.8000488281</ele>
        <time>2023-07-20T06:33:12.000Z</time>
      </trkpt>
      <trkpt lat="42.61186" lon="1.77565">
        <ele>2144.6000976562</ele>
        <time>2023-07-20T06:33:21.000Z</time>
      </trkpt>
      <trkpt lat="42.61186" lon="1.77565">
        <ele>2144.6000976562</ele>
        <time>2023-07-20T06:33:28.000Z</time>
      </trkpt>
      <trkpt lat="42.61191" lon="1.77561">
        <ele>2145.1999511719</ele>
        <time>2023-07-20T06:33:35.000Z</time>
      </trkpt>
      <trkpt lat="42.61193" lon="1.77561">
        <ele>2145.8000488281</ele>
        <time>2023-07-20T06:33:37.000Z</time>
      </trkpt>
      <trkpt lat="42.61196" lon="1.77561">
        <ele>2146.6000976562</ele>
        <time>2023-07-20T06:33:43.000Z</time>
      </trkpt>
      <trkpt lat="42.61196" lon="1.7756">
        <ele>2146.8000488281</ele>
        <time>2023-07-20T06:33:44.000Z</time>
      </trkpt>
      <trkpt lat="42.61196" lon="1.77557">
        <ele>2146.8000488281</ele>
        <time>2023-07-20T06:33:49.000Z</time>
      </trkpt>
      <trkpt lat="42.61198" lon="1.7755">
        <ele>2147.3999023438</ele>
        <time>2023-07-20T06:33:56.000Z</time>
      </trkpt>
      <trkpt lat="42.61199" lon="1.77549">
        <ele>2147.8000488281</ele>
        <time>2023-07-20T06:33:59.000Z</time>
      </trkpt>
      <trkpt lat="42.61201" lon="1.77546">
        <ele>2148.8000488281</ele>
        <time>2023-07-20T06:34:04.000Z</time>
      </trkpt>
      <trkpt lat="42.61201" lon="1.77545">
        <ele>2148.8000488281</ele>
        <time>2023-07-20T06:34:05.000Z</time>
      </trkpt>
      <trkpt lat="42.61201" lon="1.77538">
        <ele>2149.1999511719</ele>
        <time>2023-07-20T06:34:12.000Z</time>
      </trkpt>
      <trkpt lat="42.61201" lon="1.77531">
        <ele>2149</ele>
        <time>2023-07-20T06:34:17.000Z</time>
      </trkpt>
      <trkpt lat="42.61203" lon="1.77526">
        <ele>2148.8000488281</ele>
        <time>2023-07-20T06:34:24.000Z</time>
      </trkpt>
      <trkpt lat="42.61203" lon="1.77521">
        <ele>2148.6000976562</ele>
        <time>2023-07-20T06:34:31.000Z</time>
      </trkpt>
      <trkpt lat="42.61202" lon="1.77516">
        <ele>2148.6000976562</ele>
        <time>2023-07-20T06:34:39.000Z</time>
      </trkpt>
      <trkpt lat="42.61201" lon="1.77504">
        <ele>2147.8000488281</ele>
        <time>2023-07-20T06:34:49.000Z</time>
      </trkpt>
      <trkpt lat="42.61203" lon="1.77497">
        <ele>2148.1999511719</ele>
        <time>2023-07-20T06:34:56.000Z</time>
      </trkpt>
      <trkpt lat="42.61207" lon="1.77487">
        <ele>2149.3999023438</ele>
        <time>2023-07-20T06:35:05.000Z</time>
      </trkpt>
      <trkpt lat="42.61208" lon="1.77482">
        <ele>2150</ele>
        <time>2023-07-20T06:35:09.000Z</time>
      </trkpt>
      <trkpt lat="42.61211" lon="1.77477">
        <ele>2150.8000488281</ele>
        <time>2023-07-20T06:35:14.000Z</time>
      </trkpt>
      <trkpt lat="42.61212" lon="1.77476">
        <ele>2151</ele>
        <time>2023-07-20T06:35:16.000Z</time>
      </trkpt>
      <trkpt lat="42.61217" lon="1.77472">
        <ele>2152</ele>
        <time>2023-07-20T06:35:23.000Z</time>
      </trkpt>
      <trkpt lat="42.61218" lon="1.77472">
        <ele>2152</ele>
        <time>2023-07-20T06:35:24.000Z</time>
      </trkpt>
      <trkpt lat="42.61223" lon="1.77468">
        <ele>2153</ele>
        <time>2023-07-20T06:35:31.000Z</time>
      </trkpt>
      <trkpt lat="42.61225" lon="1.77466">
        <ele>2153.1999511719</ele>
        <time>2023-07-20T06:35:33.000Z</time>
      </trkpt>
      <trkpt lat="42.6123" lon="1.77462">
        <ele>2153.1999511719</ele>
        <time>2023-07-20T06:35:40.000Z</time>
      </trkpt>
      <trkpt lat="42.61234" lon="1.77456">
        <ele>2153.3999023438</ele>
        <time>2023-07-20T06:35:46.000Z</time>
      </trkpt>
      <trkpt lat="42.61239" lon="1.77447">
        <ele>2153.3999023438</ele>
        <time>2023-07-20T06:35:57.000Z</time>
      </trkpt>
      <trkpt lat="42.61245" lon="1.77441">
        <ele>2154.1999511719</ele>
        <time>2023-07-20T06:36:04.000Z</time>
      </trkpt>
      <trkpt lat="42.6125" lon="1.77435">
        <ele>2154.8000488281</ele>
        <time>2023-07-20T06:36:12.000Z</time>
      </trkpt>
      <trkpt lat="42.61254" lon="1.77424">
        <ele>2155.1999511719</ele>
        <time>2023-07-20T06:36:20.000Z</time>
      </trkpt>
      <trkpt lat="42.61254" lon="1.77422">
        <ele>2155.1999511719</ele>
        <time>2023-07-20T06:36:22.000Z</time>
      </trkpt>
      <trkpt lat="42.61255" lon="1.77419">
        <ele>2155.8000488281</ele>
        <time>2023-07-20T06:36:27.000Z</time>
      </trkpt>
      <trkpt lat="42.61256" lon="1.77417">
        <ele>2156.1999511719</ele>
        <time>2023-07-20T06:36:31.000Z</time>
      </trkpt>
      <trkpt lat="42.61257" lon="1.77414">
        <ele>2156.8000488281</ele>
        <time>2023-07-20T06:36:35.000Z</time>
      </trkpt>
      <trkpt lat="42.61257" lon="1.7741">
        <ele>2157.3999023438</ele>
        <time>2023-07-20T06:36:38.000Z</time>
      </trkpt>
      <trkpt lat="42.61258" lon="1.77407">
        <ele>2157.8000488281</ele>
        <time>2023-07-20T06:36:42.000Z</time>
      </trkpt>
      <trkpt lat="42.61258" lon="1.77403">
        <ele>2158.3999023438</ele>
        <time>2023-07-20T06:36:46.000Z</time>
      </trkpt>
      <trkpt lat="42.61259" lon="1.77402">
        <ele>2159</ele>
        <time>2023-07-20T06:36:51.000Z</time>
      </trkpt>
      <trkpt lat="42.6126" lon="1.77401">
        <ele>2159.3999023438</ele>
        <time>2023-07-20T06:36:54.000Z</time>
      </trkpt>
      <trkpt lat="42.61262" lon="1.77399">
        <ele>2160</ele>
        <time>2023-07-20T06:36:57.000Z</time>
      </trkpt>
      <trkpt lat="42.61263" lon="1.77396">
        <ele>2160.3999023438</ele>
        <time>2023-07-20T06:37:01.000Z</time>
      </trkpt>
      <trkpt lat="42.61264" lon="1.77393">
        <ele>2161.1999511719</ele>
        <time>2023-07-20T06:37:05.000Z</time>
      </trkpt>
      <trkpt lat="42.61265" lon="1.7739">
        <ele>2161.3999023438</ele>
        <time>2023-07-20T06:37:08.000Z</time>
      </trkpt>
      <trkpt lat="42.61267" lon="1.77388">
        <ele>2162.3999023438</ele>
        <time>2023-07-20T06:37:13.000Z</time>
      </trkpt>
      <trkpt lat="42.61268" lon="1.77388">
        <ele>2162.6000976562</ele>
        <time>2023-07-20T06:37:14.000Z</time>
      </trkpt>
      <trkpt lat="42.61272" lon="1.7738">
        <ele>2163</ele>
        <time>2023-07-20T06:37:22.000Z</time>
      </trkpt>
      <trkpt lat="42.61273" lon="1.77376">
        <ele>2163.3999023438</ele>
        <time>2023-07-20T06:37:29.000Z</time>
      </trkpt>
      <trkpt lat="42.61273" lon="1.77376">
        <ele>2163.6000976562</ele>
        <time>2023-07-20T06:37:32.000Z</time>
      </trkpt>
      <trkpt lat="42.61273" lon="1.77373">
        <ele>2164.3999023438</ele>
        <time>2023-07-20T06:37:37.000Z</time>
      </trkpt>
      <trkpt lat="42.61272" lon="1.7737">
        <ele>2164.6000976562</ele>
        <time>2023-07-20T06:37:39.000Z</time>
      </trkpt>
      <trkpt lat="42.61274" lon="1.77366">
        <ele>2165</ele>
        <time>2023-07-20T06:37:46.000Z</time>
      </trkpt>
      <trkpt lat="42.61275" lon="1.77363">
        <ele>2165.6000976562</ele>
        <time>2023-07-20T06:37:50.000Z</time>
      </trkpt>
      <trkpt lat="42.61276" lon="1.7736">
        <ele>2166.3999023438</ele>
        <time>2023-07-20T06:37:54.000Z</time>
      </trkpt>
      <trkpt lat="42.61276" lon="1.77357">
        <ele>2166.8000488281</ele>
        <time>2023-07-20T06:37:57.000Z</time>
      </trkpt>
      <trkpt lat="42.61277" lon="1.77352">
        <ele>2167.6000976562</ele>
        <time>2023-07-20T06:38:01.000Z</time>
      </trkpt>
      <trkpt lat="42.61278" lon="1.77348">
        <ele>2168</ele>
        <time>2023-07-20T06:38:04.000Z</time>
      </trkpt>
      <trkpt lat="42.6128" lon="1.77345">
        <ele>2168.1999511719</ele>
        <time>2023-07-20T06:38:08.000Z</time>
      </trkpt>
      <trkpt lat="42.61282" lon="1.77336">
        <ele>2169</ele>
        <time>2023-07-20T06:38:16.000Z</time>
      </trkpt>
      <trkpt lat="42.61282" lon="1.77327">
        <ele>2168.8000488281</ele>
        <time>2023-07-20T06:38:23.000Z</time>
      </trkpt>
      <trkpt lat="42.61285" lon="1.77317">
        <ele>2168.1999511719</ele>
        <time>2023-07-20T06:38:31.000Z</time>
      </trkpt>
      <trkpt lat="42.61287" lon="1.77314">
        <ele>2167.8000488281</ele>
        <time>2023-07-20T06:38:35.000Z</time>
      </trkpt>
      <trkpt lat="42.6129" lon="1.77309">
        <ele>2167.6000976562</ele>
        <time>2023-07-20T06:38:39.000Z</time>
      </trkpt>
      <trkpt lat="42.61293" lon="1.77299">
        <ele>2168</ele>
        <time>2023-07-20T06:38:47.000Z</time>
      </trkpt>
      <trkpt lat="42.61295" lon="1.77293">
        <ele>2168.8000488281</ele>
        <time>2023-07-20T06:38:53.000Z</time>
      </trkpt>
      <trkpt lat="42.61298" lon="1.77287">
        <ele>2169</ele>
        <time>2023-07-20T06:38:58.000Z</time>
      </trkpt>
      <trkpt lat="42.61299" lon="1.77282">
        <ele>2169</ele>
        <time>2023-07-20T06:39:03.000Z</time>
      </trkpt>
      <trkpt lat="42.613" lon="1.77275">
        <ele>2168.3999023438</ele>
        <time>2023-07-20T06:39:09.000Z</time>
      </trkpt>
      <trkpt lat="42.61303" lon="1.7727">
        <ele>2168.8000488281</ele>
        <time>2023-07-20T06:39:17.000Z</time>
      </trkpt>
      <trkpt lat="42.61303" lon="1.77264">
        <ele>2169.6000976562</ele>
        <time>2023-07-20T06:39:25.000Z</time>
      </trkpt>
      <trkpt lat="42.61304" lon="1.77255">
        <ele>2169.3999023438</ele>
        <time>2023-07-20T06:39:33.000Z</time>
      </trkpt>
      <trkpt lat="42.6131" lon="1.77246">
        <ele>2169.3999023438</ele>
        <time>2023-07-20T06:39:41.000Z</time>
      </trkpt>
      <trkpt lat="42.61312" lon="1.7724">
        <ele>2169.6000976562</ele>
        <time>2023-07-20T06:39:48.000Z</time>
      </trkpt>
      <trkpt lat="42.61314" lon="1.77233">
        <ele>2169.6000976562</ele>
        <time>2023-07-20T06:39:55.000Z</time>
      </trkpt>
      <trkpt lat="42.61315" lon="1.77222">
        <ele>2169</ele>
        <time>2023-07-20T06:40:03.000Z</time>
      </trkpt>
      <trkpt lat="42.61313" lon="1.77215">
        <ele>2168</ele>
        <time>2023-07-20T06:40:10.000Z</time>
      </trkpt>
      <trkpt lat="42.61313" lon="1.77215">
        <ele>2167.8000488281</ele>
        <time>2023-07-20T06:40:12.000Z</time>
      </trkpt>
      <trkpt lat="42.61313" lon="1.77215">
        <ele>2167.6000976562</ele>
        <time>2023-07-20T06:40:19.000Z</time>
      </trkpt>
      <trkpt lat="42.61313" lon="1.77217">
        <ele>2167.8000488281</ele>
        <time>2023-07-20T06:40:28.000Z</time>
      </trkpt>
      <trkpt lat="42.61313" lon="1.77216">
        <ele>2168</ele>
        <time>2023-07-20T06:40:36.000Z</time>
      </trkpt>
      <trkpt lat="42.61314" lon="1.77208">
        <ele>2167.6000976562</ele>
        <time>2023-07-20T06:40:44.000Z</time>
      </trkpt>
      <trkpt lat="42.61312" lon="1.772">
        <ele>2166.6000976562</ele>
        <time>2023-07-20T06:40:51.000Z</time>
      </trkpt>
      <trkpt lat="42.61311" lon="1.77197">
        <ele>2166.3999023438</ele>
        <time>2023-07-20T06:40:53.000Z</time>
      </trkpt>
      <trkpt lat="42.6131" lon="1.77186">
        <ele>2166.6000976562</ele>
        <time>2023-07-20T06:41:01.000Z</time>
      </trkpt>
      <trkpt lat="42.61312" lon="1.77173">
        <ele>2167.6000976562</ele>
        <time>2023-07-20T06:41:09.000Z</time>
      </trkpt>
      <trkpt lat="42.61312" lon="1.77172">
        <ele>2167.8000488281</ele>
        <time>2023-07-20T06:41:10.000Z</time>
      </trkpt>
      <trkpt lat="42.61312" lon="1.77167">
        <ele>2168.3999023438</ele>
        <time>2023-07-20T06:41:14.000Z</time>
      </trkpt>
      <trkpt lat="42.61311" lon="1.77164">
        <ele>2168.8000488281</ele>
        <time>2023-07-20T06:41:17.000Z</time>
      </trkpt>
      <trkpt lat="42.6131" lon="1.7716">
        <ele>2168.8000488281</ele>
        <time>2023-07-20T06:41:20.000Z</time>
      </trkpt>
      <trkpt lat="42.6131" lon="1.77153">
        <ele>2169</ele>
        <time>2023-07-20T06:41:27.000Z</time>
      </trkpt>
      <trkpt lat="42.6131" lon="1.77143">
        <ele>2168.8000488281</ele>
        <time>2023-07-20T06:41:36.000Z</time>
      </trkpt>
      <trkpt lat="42.6131" lon="1.77142">
        <ele>2168.3999023438</ele>
        <time>2023-07-20T06:41:44.000Z</time>
      </trkpt>
      <trkpt lat="42.61309" lon="1.77147">
        <ele>2168.3999023438</ele>
        <time>2023-07-20T06:41:55.000Z</time>
      </trkpt>
      <trkpt lat="42.61309" lon="1.77145">
        <ele>2168.3999023438</ele>
        <time>2023-07-20T06:42:03.000Z</time>
      </trkpt>
      <trkpt lat="42.61311" lon="1.77146">
        <ele>2168.3999023438</ele>
        <time>2023-07-20T06:42:12.000Z</time>
      </trkpt>
      <trkpt lat="42.61308" lon="1.7715">
        <ele>2168.3999023438</ele>
        <time>2023-07-20T06:42:21.000Z</time>
      </trkpt>
      <trkpt lat="42.61303" lon="1.77146">
        <ele>2169</ele>
        <time>2023-07-20T06:42:27.000Z</time>
      </trkpt>
      <trkpt lat="42.61304" lon="1.77145">
        <ele>2169</ele>
        <time>2023-07-20T06:42:34.000Z</time>
      </trkpt>
      <trkpt lat="42.61304" lon="1.77147">
        <ele>2168.8000488281</ele>
        <time>2023-07-20T06:42:42.000Z</time>
      </trkpt>
      <trkpt lat="42.61304" lon="1.77148">
        <ele>2168.8000488281</ele>
        <time>2023-07-20T06:42:48.000Z</time>
      </trkpt>
      <trkpt lat="42.61306" lon="1.77147">
        <ele>2168.6000976562</ele>
        <time>2023-07-20T06:42:58.000Z</time>
      </trkpt>
      <trkpt lat="42.61305" lon="1.77145">
        <ele>2168.3999023438</ele>
        <time>2023-07-20T06:43:05.000Z</time>
      </trkpt>
      <trkpt lat="42.61305" lon="1.77146">
        <ele>2168.3999023438</ele>
        <time>2023-07-20T06:43:14.000Z</time>
      </trkpt>
      <trkpt lat="42.61305" lon="1.77148">
        <ele>2168.6000976562</ele>
        <time>2023-07-20T06:43:25.000Z</time>
      </trkpt>
      <trkpt lat="42.61307" lon="1.77145">
        <ele>2168.1999511719</ele>
        <time>2023-07-20T06:43:32.000Z</time>
      </trkpt>
      <trkpt lat="42.61305" lon="1.77143">
        <ele>2168</ele>
        <time>2023-07-20T06:43:40.000Z</time>
      </trkpt>
      <trkpt lat="42.61302" lon="1.77143">
        <ele>2168</ele>
        <time>2023-07-20T06:43:48.000Z</time>
      </trkpt>
      <trkpt lat="42.61303" lon="1.77145">
        <ele>2167.6000976562</ele>
        <time>2023-07-20T06:43:56.000Z</time>
      </trkpt>
      <trkpt lat="42.61304" lon="1.77146">
        <ele>2167.3999023438</ele>
        <time>2023-07-20T06:44:04.000Z</time>
      </trkpt>
      <trkpt lat="42.61301" lon="1.77143">
        <ele>2167.3999023438</ele>
        <time>2023-07-20T06:44:09.000Z</time>
      </trkpt>
      <trkpt lat="42.61302" lon="1.77145">
        <ele>2167.1999511719</ele>
        <time>2023-07-20T06:44:15.000Z</time>
      </trkpt>
      <trkpt lat="42.61304" lon="1.77145">
        <ele>2167.1999511719</ele>
        <time>2023-07-20T06:44:23.000Z</time>
      </trkpt>
      <trkpt lat="42.61305" lon="1.77146">
        <ele>2167</ele>
        <time>2023-07-20T06:44:31.000Z</time>
      </trkpt>
      <trkpt lat="42.61307" lon="1.77149">
        <ele>2167.1999511719</ele>
        <time>2023-07-20T06:44:42.000Z</time>
      </trkpt>
      <trkpt lat="42.61307" lon="1.7715">
        <ele>2167</ele>
        <time>2023-07-20T06:44:51.000Z</time>
      </trkpt>
      <trkpt lat="42.61305" lon="1.77148">
        <ele>2167</ele>
        <time>2023-07-20T06:44:58.000Z</time>
      </trkpt>
      <trkpt lat="42.61301" lon="1.77147">
        <ele>2167.3999023438</ele>
        <time>2023-07-20T06:45:08.000Z</time>
      </trkpt>
      <trkpt lat="42.613" lon="1.77149">
        <ele>2167.3999023438</ele>
        <time>2023-07-20T06:45:14.000Z</time>
      </trkpt>
      <trkpt lat="42.61304" lon="1.77145">
        <ele>2167.3999023438</ele>
        <time>2023-07-20T06:45:21.000Z</time>
      </trkpt>
      <trkpt lat="42.61304" lon="1.77147">
        <ele>2167.3999023438</ele>
        <time>2023-07-20T06:45:29.000Z</time>
      </trkpt>
      <trkpt lat="42.61304" lon="1.77148">
        <ele>2167.6000976562</ele>
        <time>2023-07-20T06:45:40.000Z</time>
      </trkpt>
      <trkpt lat="42.61305" lon="1.77148">
        <ele>2167.8000488281</ele>
        <time>2023-07-20T06:45:51.000Z</time>
      </trkpt>
      <trkpt lat="42.61304" lon="1.77147">
        <ele>2168</ele>
        <time>2023-07-20T06:45:59.000Z</time>
      </trkpt>
      <trkpt lat="42.61304" lon="1.77144">
        <ele>2168.3999023438</ele>
        <time>2023-07-20T06:46:07.000Z</time>
      </trkpt>
      <trkpt lat="42.61303" lon="1.77147">
        <ele>2168</ele>
        <time>2023-07-20T06:46:15.000Z</time>
      </trkpt>
      <trkpt lat="42.61303" lon="1.77145">
        <ele>2167.6000976562</ele>
        <time>2023-07-20T06:46:24.000Z</time>
      </trkpt>
      <trkpt lat="42.61303" lon="1.77147">
        <ele>2167.6000976562</ele>
        <time>2023-07-20T06:46:30.000Z</time>
      </trkpt>
      <trkpt lat="42.61301" lon="1.77147">
        <ele>2167.3999023438</ele>
        <time>2023-07-20T06:46:40.000Z</time>
      </trkpt>
      <trkpt lat="42.61303" lon="1.77149">
        <ele>2167.1999511719</ele>
        <time>2023-07-20T06:46:49.000Z</time>
      </trkpt>
      <trkpt lat="42.61306" lon="1.7715">
        <ele>2167</ele>
        <time>2023-07-20T06:46:57.000Z</time>
      </trkpt>
      <trkpt lat="42.61306" lon="1.77147">
        <ele>2166.8000488281</ele>
        <time>2023-07-20T06:47:09.000Z</time>
      </trkpt>
      <trkpt lat="42.61305" lon="1.77144">
        <ele>2166.8000488281</ele>
        <time>2023-07-20T06:47:18.000Z</time>
      </trkpt>
      <trkpt lat="42.61302" lon="1.77147">
        <ele>2166.8000488281</ele>
        <time>2023-07-20T06:47:27.000Z</time>
      </trkpt>
      <trkpt lat="42.61301" lon="1.77147">
        <ele>2166.6000976562</ele>
        <time>2023-07-20T06:47:29.000Z</time>
      </trkpt>
      <trkpt lat="42.61301" lon="1.77146">
        <ele>2166.6000976562</ele>
        <time>2023-07-20T06:47:35.000Z</time>
      </trkpt>
      <trkpt lat="42.61302" lon="1.77148">
        <ele>2167</ele>
        <time>2023-07-20T06:47:43.000Z</time>
      </trkpt>
      <trkpt lat="42.61304" lon="1.77149">
        <ele>2167</ele>
        <time>2023-07-20T06:47:51.000Z</time>
      </trkpt>
      <trkpt lat="42.61304" lon="1.7715">
        <ele>2167</ele>
        <time>2023-07-20T06:47:54.000Z</time>
      </trkpt>
      <trkpt lat="42.61304" lon="1.77149">
        <ele>2166.8000488281</ele>
        <time>2023-07-20T06:47:56.000Z</time>
      </trkpt>
      <trkpt lat="42.61307" lon="1.77148">
        <ele>2167</ele>
        <time>2023-07-20T06:48:02.000Z</time>
      </trkpt>
      <trkpt lat="42.61307" lon="1.7715">
        <ele>2167.1999511719</ele>
        <time>2023-07-20T06:48:10.000Z</time>
      </trkpt>
      <trkpt lat="42.61308" lon="1.77152">
        <ele>2167</ele>
        <time>2023-07-20T06:48:16.000Z</time>
      </trkpt>
      <trkpt lat="42.61307" lon="1.77148">
        <ele>2166.8000488281</ele>
        <time>2023-07-20T06:48:23.000Z</time>
      </trkpt>
      <trkpt lat="42.61306" lon="1.77149">
        <ele>2167</ele>
        <time>2023-07-20T06:48:33.000Z</time>
      </trkpt>
      <trkpt lat="42.61305" lon="1.77146">
        <ele>2167.1999511719</ele>
        <time>2023-07-20T06:48:40.000Z</time>
      </trkpt>
      <trkpt lat="42.61307" lon="1.77147">
        <ele>2166.8000488281</ele>
        <time>2023-07-20T06:48:46.000Z</time>
      </trkpt>
      <trkpt lat="42.61305" lon="1.77147">
        <ele>2166.8000488281</ele>
        <time>2023-07-20T06:48:52.000Z</time>
      </trkpt>
      <trkpt lat="42.61304" lon="1.77146">
        <ele>2166.8000488281</ele>
        <time>2023-07-20T06:49:02.000Z</time>
      </trkpt>
      <trkpt lat="42.61302" lon="1.77146">
        <ele>2166.6000976562</ele>
        <time>2023-07-20T06:49:11.000Z</time>
      </trkpt>
      <trkpt lat="42.61306" lon="1.77148">
        <ele>2167</ele>
        <time>2023-07-20T06:49:19.000Z</time>
      </trkpt>
      <trkpt lat="42.61307" lon="1.77148">
        <ele>2167</ele>
        <time>2023-07-20T06:49:27.000Z</time>
      </trkpt>
      <trkpt lat="42.61304" lon="1.77147">
        <ele>2167</ele>
        <time>2023-07-20T06:49:36.000Z</time>
      </trkpt>
      <trkpt lat="42.61304" lon="1.77149">
        <ele>2167</ele>
        <time>2023-07-20T06:49:43.000Z</time>
      </trkpt>
      <trkpt lat="42.61304" lon="1.77149">
        <ele>2167</ele>
        <time>2023-07-20T06:49:49.000Z</time>
      </trkpt>
      <trkpt lat="42.61304" lon="1.77148">
        <ele>2166.8000488281</ele>
        <time>2023-07-20T06:49:56.000Z</time>
      </trkpt>
      <trkpt lat="42.61303" lon="1.77147">
        <ele>2167.1999511719</ele>
        <time>2023-07-20T06:50:08.000Z</time>
      </trkpt>
      <trkpt lat="42.61302" lon="1.77149">
        <ele>2167.1999511719</ele>
        <time>2023-07-20T06:50:16.000Z</time>
      </trkpt>
      <trkpt lat="42.61303" lon="1.7715">
        <ele>2167.3999023438</ele>
        <time>2023-07-20T06:50:24.000Z</time>
      </trkpt>
      <trkpt lat="42.61303" lon="1.77148">
        <ele>2167.8000488281</ele>
        <time>2023-07-20T06:50:29.000Z</time>
      </trkpt>
      <trkpt lat="42.61303" lon="1.77146">
        <ele>2167.8000488281</ele>
        <time>2023-07-20T06:50:35.000Z</time>
      </trkpt>
      <trkpt lat="42.61304" lon="1.77145">
        <ele>2167.8000488281</ele>
        <time>2023-07-20T06:50:44.000Z</time>
      </trkpt>
      <trkpt lat="42.61301" lon="1.77144">
        <ele>2167.3999023438</ele>
        <time>2023-07-20T06:50:53.000Z</time>
      </trkpt>
      <trkpt lat="42.61301" lon="1.77148">
        <ele>2168.6000976562</ele>
        <time>2023-07-20T06:51:00.000Z</time>
      </trkpt>
      <trkpt lat="42.61303" lon="1.7715">
        <ele>2168.1999511719</ele>
        <time>2023-07-20T06:51:08.000Z</time>
      </trkpt>
      <trkpt lat="42.61306" lon="1.77146">
        <ele>2167.6000976562</ele>
        <time>2023-07-20T06:51:16.000Z</time>
      </trkpt>
      <trkpt lat="42.61304" lon="1.77147">
        <ele>2167.3999023438</ele>
        <time>2023-07-20T06:51:24.000Z</time>
      </trkpt>
      <trkpt lat="42.61306" lon="1.77144">
        <ele>2167.8000488281</ele>
        <time>2023-07-20T06:51:33.000Z</time>
      </trkpt>
      <trkpt lat="42.61304" lon="1.77143">
        <ele>2167.1999511719</ele>
        <time>2023-07-20T06:51:40.000Z</time>
      </trkpt>
      <trkpt lat="42.61307" lon="1.77153">
        <ele>2167</ele>
        <time>2023-07-20T06:51:46.000Z</time>
      </trkpt>
      <trkpt lat="42.61312" lon="1.77165">
        <ele>2167</ele>
        <time>2023-07-20T06:51:54.000Z</time>
      </trkpt>
      <trkpt lat="42.61315" lon="1.77172">
        <ele>2166.8000488281</ele>
        <time>2023-07-20T06:52:00.000Z</time>
      </trkpt>
      <trkpt lat="42.61316" lon="1.77173">
        <ele>2166.8000488281</ele>
        <time>2023-07-20T06:52:01.000Z</time>
      </trkpt>
      <trkpt lat="42.6132" lon="1.77179">
        <ele>2166.3999023438</ele>
        <time>2023-07-20T06:52:06.000Z</time>
      </trkpt>
      <trkpt lat="42.61325" lon="1.77183">
        <ele>2166.3999023438</ele>
        <time>2023-07-20T06:52:12.000Z</time>
      </trkpt>
      <trkpt lat="42.61327" lon="1.77187">
        <ele>2167.6000976562</ele>
        <time>2023-07-20T06:52:19.000Z</time>
      </trkpt>
      <trkpt lat="42.61326" lon="1.77186">
        <ele>2167.6000976562</ele>
        <time>2023-07-20T06:52:27.000Z</time>
      </trkpt>
      <trkpt lat="42.61329" lon="1.77191">
        <ele>2167.3999023438</ele>
        <time>2023-07-20T06:52:35.000Z</time>
      </trkpt>
      <trkpt lat="42.61331" lon="1.77193">
        <ele>2167</ele>
        <time>2023-07-20T06:52:43.000Z</time>
      </trkpt>
      <trkpt lat="42.61336" lon="1.77202">
        <ele>2166.6000976562</ele>
        <time>2023-07-20T06:52:52.000Z</time>
      </trkpt>
      <trkpt lat="42.6134" lon="1.77212">
        <ele>2166.8000488281</ele>
        <time>2023-07-20T06:53:03.000Z</time>
      </trkpt>
      <trkpt lat="42.61344" lon="1.77221">
        <ele>2167.8000488281</ele>
        <time>2023-07-20T06:53:11.000Z</time>
      </trkpt>
      <trkpt lat="42.61346" lon="1.77223">
        <ele>2167.8000488281</ele>
        <time>2023-07-20T06:53:13.000Z</time>
      </trkpt>
      <trkpt lat="42.61349" lon="1.77227">
        <ele>2168.8000488281</ele>
        <time>2023-07-20T06:53:19.000Z</time>
      </trkpt>
      <trkpt lat="42.6135" lon="1.77227">
        <ele>2169</ele>
        <time>2023-07-20T06:53:20.000Z</time>
      </trkpt>
      <trkpt lat="42.61351" lon="1.77228">
        <ele>2169.1999511719</ele>
        <time>2023-07-20T06:53:30.000Z</time>
      </trkpt>
      <trkpt lat="42.61351" lon="1.7723">
        <ele>2169.1999511719</ele>
        <time>2023-07-20T06:53:39.000Z</time>
      </trkpt>
      <trkpt lat="42.61355" lon="1.7723">
        <ele>2169.3999023438</ele>
        <time>2023-07-20T06:53:48.000Z</time>
      </trkpt>
      <trkpt lat="42.61358" lon="1.77227">
        <ele>2169.8000488281</ele>
        <time>2023-07-20T06:53:54.000Z</time>
      </trkpt>
      <trkpt lat="42.6136" lon="1.77225">
        <ele>2170.1999511719</ele>
        <time>2023-07-20T06:53:56.000Z</time>
      </trkpt>
      <trkpt lat="42.61365" lon="1.77223">
        <ele>2171</ele>
        <time>2023-07-20T06:54:05.000Z</time>
      </trkpt>
      <trkpt lat="42.61372" lon="1.77224">
        <ele>2171.8000488281</ele>
        <time>2023-07-20T06:54:13.000Z</time>
      </trkpt>
      <trkpt lat="42.61374" lon="1.77224">
        <ele>2172</ele>
        <time>2023-07-20T06:54:15.000Z</time>
      </trkpt>
      <trkpt lat="42.61381" lon="1.7722">
        <ele>2172.8000488281</ele>
        <time>2023-07-20T06:54:23.000Z</time>
      </trkpt>
      <trkpt lat="42.61382" lon="1.77219">
        <ele>2173</ele>
        <time>2023-07-20T06:54:25.000Z</time>
      </trkpt>
      <trkpt lat="42.61384" lon="1.77219">
        <ele>2173.6000976562</ele>
        <time>2023-07-20T06:54:29.000Z</time>
      </trkpt>
      <trkpt lat="42.61387" lon="1.77218">
        <ele>2174.1999511719</ele>
        <time>2023-07-20T06:54:33.000Z</time>
      </trkpt>
      <trkpt lat="42.61389" lon="1.77218">
        <ele>2174.6000976562</ele>
        <time>2023-07-20T06:54:36.000Z</time>
      </trkpt>
      <trkpt lat="42.61392" lon="1.77218">
        <ele>2175.1999511719</ele>
        <time>2023-07-20T06:54:41.000Z</time>
      </trkpt>
      <trkpt lat="42.61394" lon="1.77218">
        <ele>2175.6000976562</ele>
        <time>2023-07-20T06:54:43.000Z</time>
      </trkpt>
      <trkpt lat="42.61395" lon="1.77217">
        <ele>2176.3999023438</ele>
        <time>2023-07-20T06:54:48.000Z</time>
      </trkpt>
      <trkpt lat="42.61396" lon="1.77217">
        <ele>2176.6000976562</ele>
        <time>2023-07-20T06:54:51.000Z</time>
      </trkpt>
      <trkpt lat="42.61397" lon="1.77219">
        <ele>2177.3999023438</ele>
        <time>2023-07-20T06:54:55.000Z</time>
      </trkpt>
      <trkpt lat="42.61398" lon="1.7722">
        <ele>2178.1999511719</ele>
        <time>2023-07-20T06:54:59.000Z</time>
      </trkpt>
      <trkpt lat="42.61399" lon="1.77221">
        <ele>2178.6000976562</ele>
        <time>2023-07-20T06:55:02.000Z</time>
      </trkpt>
      <trkpt lat="42.61399" lon="1.7722">
        <ele>2179.1999511719</ele>
        <time>2023-07-20T06:55:06.000Z</time>
      </trkpt>
      <trkpt lat="42.61401" lon="1.77218">
        <ele>2179.8000488281</ele>
        <time>2023-07-20T06:55:09.000Z</time>
      </trkpt>
      <trkpt lat="42.61404" lon="1.77214">
        <ele>2180.6000976562</ele>
        <time>2023-07-20T06:55:15.000Z</time>
      </trkpt>
      <trkpt lat="42.61404" lon="1.77213">
        <ele>2180.8000488281</ele>
        <time>2023-07-20T06:55:16.000Z</time>
      </trkpt>
      <trkpt lat="42.61406" lon="1.77207">
        <ele>2181.6000976562</ele>
        <time>2023-07-20T06:55:23.000Z</time>
      </trkpt>
      <trkpt lat="42.61408" lon="1.77205">
        <ele>2181.8000488281</ele>
        <time>2023-07-20T06:55:26.000Z</time>
      </trkpt>
      <trkpt lat="42.6141" lon="1.77202">
        <ele>2182.6000976562</ele>
        <time>2023-07-20T06:55:31.000Z</time>
      </trkpt>
      <trkpt lat="42.61411" lon="1.77201">
        <ele>2183</ele>
        <time>2023-07-20T06:55:34.000Z</time>
      </trkpt>
      <trkpt lat="42.61413" lon="1.772">
        <ele>2183.3999023438</ele>
        <time>2023-07-20T06:55:39.000Z</time>
      </trkpt>
      <trkpt lat="42.61414" lon="1.77199">
        <ele>2184</ele>
        <time>2023-07-20T06:55:43.000Z</time>
      </trkpt>
      <trkpt lat="42.61415" lon="1.77199">
        <ele>2184</ele>
        <time>2023-07-20T06:55:46.000Z</time>
      </trkpt>
      <trkpt lat="42.61415" lon="1.77198">
        <ele>2183.8000488281</ele>
        <time>2023-07-20T06:55:55.000Z</time>
      </trkpt>
      <trkpt lat="42.61414" lon="1.77195">
        <ele>2183.8000488281</ele>
        <time>2023-07-20T06:56:03.000Z</time>
      </trkpt>
      <trkpt lat="42.61416" lon="1.77196">
        <ele>2184</ele>
        <time>2023-07-20T06:56:11.000Z</time>
      </trkpt>
      <trkpt lat="42.61421" lon="1.77195">
        <ele>2184.3999023438</ele>
        <time>2023-07-20T06:56:19.000Z</time>
      </trkpt>
      <trkpt lat="42.61424" lon="1.77194">
        <ele>2185</ele>
        <time>2023-07-20T06:56:23.000Z</time>
      </trkpt>
      <trkpt lat="42.61425" lon="1.77194">
        <ele>2185.6000976562</ele>
        <time>2023-07-20T06:56:26.000Z</time>
      </trkpt>
      <trkpt lat="42.61426" lon="1.77191">
        <ele>2186.1999511719</ele>
        <time>2023-07-20T06:56:30.000Z</time>
      </trkpt>
      <trkpt lat="42.61427" lon="1.77188">
        <ele>2186.3999023438</ele>
        <time>2023-07-20T06:56:33.000Z</time>
      </trkpt>
      <trkpt lat="42.61429" lon="1.77183">
        <ele>2187.1999511719</ele>
        <time>2023-07-20T06:56:41.000Z</time>
      </trkpt>
      <trkpt lat="42.61433" lon="1.77178">
        <ele>2187.8000488281</ele>
        <time>2023-07-20T06:56:48.000Z</time>
      </trkpt>
      <trkpt lat="42.61435" lon="1.77175">
        <ele>2188.1999511719</ele>
        <time>2023-07-20T06:56:52.000Z</time>
      </trkpt>
      <trkpt lat="42.61437" lon="1.77172">
        <ele>2188.6000976562</ele>
        <time>2023-07-20T06:56:56.000Z</time>
      </trkpt>
      <trkpt lat="42.61441" lon="1.77169">
        <ele>2189.1999511719</ele>
        <time>2023-07-20T06:57:02.000Z</time>
      </trkpt>
      <trkpt lat="42.6144" lon="1.77168">
        <ele>2189.6000976562</ele>
        <time>2023-07-20T06:57:05.000Z</time>
      </trkpt>
      <trkpt lat="42.61443" lon="1.77163">
        <ele>2190.1999511719</ele>
        <time>2023-07-20T06:57:12.000Z</time>
      </trkpt>
      <trkpt lat="42.61444" lon="1.77162">
        <ele>2190.3999023438</ele>
        <time>2023-07-20T06:57:14.000Z</time>
      </trkpt>
      <trkpt lat="42.61448" lon="1.77157">
        <ele>2190.6000976562</ele>
        <time>2023-07-20T06:57:20.000Z</time>
      </trkpt>
      <trkpt lat="42.6145" lon="1.77151">
        <ele>2191.3999023438</ele>
        <time>2023-07-20T06:57:25.000Z</time>
      </trkpt>
      <trkpt lat="42.61451" lon="1.77148">
        <ele>2191.6000976562</ele>
        <time>2023-07-20T06:57:27.000Z</time>
      </trkpt>
      <trkpt lat="42.61451" lon="1.77145">
        <ele>2192.3999023438</ele>
        <time>2023-07-20T06:57:33.000Z</time>
      </trkpt>
      <trkpt lat="42.61452" lon="1.77143">
        <ele>2192.8000488281</ele>
        <time>2023-07-20T06:57:36.000Z</time>
      </trkpt>
      <trkpt lat="42.61454" lon="1.7714">
        <ele>2193.6000976562</ele>
        <time>2023-07-20T06:57:41.000Z</time>
      </trkpt>
      <trkpt lat="42.61457" lon="1.77136">
        <ele>2194</ele>
        <time>2023-07-20T06:57:46.000Z</time>
      </trkpt>
      <trkpt lat="42.6146" lon="1.77129">
        <ele>2194.6000976562</ele>
        <time>2023-07-20T06:57:52.000Z</time>
      </trkpt>
      <trkpt lat="42.61461" lon="1.77126">
        <ele>2194.8000488281</ele>
        <time>2023-07-20T06:57:54.000Z</time>
      </trkpt>
      <trkpt lat="42.61465" lon="1.77123">
        <ele>2195.3999023438</ele>
        <time>2023-07-20T06:58:02.000Z</time>
      </trkpt>
      <trkpt lat="42.61465" lon="1.77122">
        <ele>2195.6000976562</ele>
        <time>2023-07-20T06:58:03.000Z</time>
      </trkpt>
      <trkpt lat="42.61469" lon="1.77117">
        <ele>2196.6000976562</ele>
        <time>2023-07-20T06:58:10.000Z</time>
      </trkpt>
      <trkpt lat="42.61474" lon="1.7711">
        <ele>2197.6000976562</ele>
        <time>2023-07-20T06:58:19.000Z</time>
      </trkpt>
      <trkpt lat="42.61477" lon="1.77109">
        <ele>2198.1999511719</ele>
        <time>2023-07-20T06:58:25.000Z</time>
      </trkpt>
      <trkpt lat="42.61479" lon="1.77108">
        <ele>2198.8000488281</ele>
        <time>2023-07-20T06:58:29.000Z</time>
      </trkpt>
      <trkpt lat="42.61481" lon="1.77107">
        <ele>2199</ele>
        <time>2023-07-20T06:58:32.000Z</time>
      </trkpt>
      <trkpt lat="42.61485" lon="1.77101">
        <ele>2199.8000488281</ele>
        <time>2023-07-20T06:58:40.000Z</time>
      </trkpt>
      <trkpt lat="42.61485" lon="1.771">
        <ele>2200</ele>
        <time>2023-07-20T06:58:41.000Z</time>
      </trkpt>
      <trkpt lat="42.61488" lon="1.77098">
        <ele>2200.8000488281</ele>
        <time>2023-07-20T06:58:48.000Z</time>
      </trkpt>
      <trkpt lat="42.61488" lon="1.77098">
        <ele>2201</ele>
        <time>2023-07-20T06:58:50.000Z</time>
      </trkpt>
      <trkpt lat="42.6149" lon="1.771">
        <ele>2201.8000488281</ele>
        <time>2023-07-20T06:58:56.000Z</time>
      </trkpt>
      <trkpt lat="42.61492" lon="1.77101">
        <ele>2202</ele>
        <time>2023-07-20T06:58:58.000Z</time>
      </trkpt>
      <trkpt lat="42.61492" lon="1.771">
        <ele>2202.8000488281</ele>
        <time>2023-07-20T06:59:02.000Z</time>
      </trkpt>
      <trkpt lat="42.61495" lon="1.77098">
        <ele>2203.1999511719</ele>
        <time>2023-07-20T06:59:06.000Z</time>
      </trkpt>
      <trkpt lat="42.61496" lon="1.77094">
        <ele>2203.6000976562</ele>
        <time>2023-07-20T06:59:11.000Z</time>
      </trkpt>
      <trkpt lat="42.61495" lon="1.77091">
        <ele>2204.1999511719</ele>
        <time>2023-07-20T06:59:18.000Z</time>
      </trkpt>
      <trkpt lat="42.61495" lon="1.7709">
        <ele>2204.3999023438</ele>
        <time>2023-07-20T06:59:19.000Z</time>
      </trkpt>
      <trkpt lat="42.61493" lon="1.77085">
        <ele>2205</ele>
        <time>2023-07-20T06:59:26.000Z</time>
      </trkpt>
      <trkpt lat="42.61493" lon="1.77083">
        <ele>2205</ele>
        <time>2023-07-20T06:59:28.000Z</time>
      </trkpt>
      <trkpt lat="42.61495" lon="1.77082">
        <ele>2205.1999511719</ele>
        <time>2023-07-20T06:59:33.000Z</time>
      </trkpt>
      <trkpt lat="42.61495" lon="1.77081">
        <ele>2205.3999023438</ele>
        <time>2023-07-20T06:59:34.000Z</time>
      </trkpt>
      <trkpt lat="42.61497" lon="1.77075">
        <ele>2206.1999511719</ele>
        <time>2023-07-20T06:59:39.000Z</time>
      </trkpt>
      <trkpt lat="42.61498" lon="1.77074">
        <ele>2206.3999023438</ele>
        <time>2023-07-20T06:59:41.000Z</time>
      </trkpt>
      <trkpt lat="42.615" lon="1.77067">
        <ele>2207.1999511719</ele>
        <time>2023-07-20T06:59:51.000Z</time>
      </trkpt>
      <trkpt lat="42.61503" lon="1.77062">
        <ele>2207.1999511719</ele>
        <time>2023-07-20T06:59:56.000Z</time>
      </trkpt>
      <trkpt lat="42.61503" lon="1.7706">
        <ele>2207.3999023438</ele>
        <time>2023-07-20T06:59:58.000Z</time>
      </trkpt>
      <trkpt lat="42.61504" lon="1.77054">
        <ele>2207.6000976562</ele>
        <time>2023-07-20T07:00:03.000Z</time>
      </trkpt>
      <trkpt lat="42.61506" lon="1.7705">
        <ele>2208</ele>
        <time>2023-07-20T07:00:10.000Z</time>
      </trkpt>
      <trkpt lat="42.61507" lon="1.77048">
        <ele>2208.3999023438</ele>
        <time>2023-07-20T07:00:12.000Z</time>
      </trkpt>
      <trkpt lat="42.61507" lon="1.77046">
        <ele>2208.8000488281</ele>
        <time>2023-07-20T07:00:15.000Z</time>
      </trkpt>
      <trkpt lat="42.61507" lon="1.77044">
        <ele>2209.1999511719</ele>
        <time>2023-07-20T07:00:22.000Z</time>
      </trkpt>
      <trkpt lat="42.61507" lon="1.77042">
        <ele>2209.6000976562</ele>
        <time>2023-07-20T07:00:24.000Z</time>
      </trkpt>
      <trkpt lat="42.61508" lon="1.77039">
        <ele>2210.1999511719</ele>
        <time>2023-07-20T07:00:28.000Z</time>
      </trkpt>
      <trkpt lat="42.61508" lon="1.77037">
        <ele>2210.6000976562</ele>
        <time>2023-07-20T07:00:30.000Z</time>
      </trkpt>
      <trkpt lat="42.61508" lon="1.77029">
        <ele>2211.3999023438</ele>
        <time>2023-07-20T07:00:36.000Z</time>
      </trkpt>
      <trkpt lat="42.6151" lon="1.77025">
        <ele>2211.1999511719</ele>
        <time>2023-07-20T07:00:44.000Z</time>
      </trkpt>
      <trkpt lat="42.6151" lon="1.77027">
        <ele>2211</ele>
        <time>2023-07-20T07:00:48.000Z</time>
      </trkpt>
      <trkpt lat="42.61511" lon="1.77029">
        <ele>2210.8000488281</ele>
        <time>2023-07-20T07:00:54.000Z</time>
      </trkpt>
      <trkpt lat="42.61511" lon="1.77025">
        <ele>2211</ele>
        <time>2023-07-20T07:01:02.000Z</time>
      </trkpt>
      <trkpt lat="42.61514" lon="1.77013">
        <ele>2210.8000488281</ele>
        <time>2023-07-20T07:01:10.000Z</time>
      </trkpt>
      <trkpt lat="42.61517" lon="1.77001">
        <ele>2211</ele>
        <time>2023-07-20T07:01:17.000Z</time>
      </trkpt>
      <trkpt lat="42.61521" lon="1.76991">
        <ele>2211.1999511719</ele>
        <time>2023-07-20T07:01:23.000Z</time>
      </trkpt>
      <trkpt lat="42.61525" lon="1.76981">
        <ele>2211.1999511719</ele>
        <time>2023-07-20T07:01:30.000Z</time>
      </trkpt>
      <trkpt lat="42.61534" lon="1.76967">
        <ele>2211</ele>
        <time>2023-07-20T07:01:40.000Z</time>
      </trkpt>
      <trkpt lat="42.61541" lon="1.76958">
        <ele>2211.3999023438</ele>
        <time>2023-07-20T07:01:48.000Z</time>
      </trkpt>
      <trkpt lat="42.61542" lon="1.76951">
        <ele>2211.8000488281</ele>
        <time>2023-07-20T07:01:52.000Z</time>
      </trkpt>
      <trkpt lat="42.61541" lon="1.76945">
        <ele>2212</ele>
        <time>2023-07-20T07:01:55.000Z</time>
      </trkpt>
      <trkpt lat="42.61541" lon="1.76941">
        <ele>2212</ele>
        <time>2023-07-20T07:02:02.000Z</time>
      </trkpt>
      <trkpt lat="42.61544" lon="1.76935">
        <ele>2211.8000488281</ele>
        <time>2023-07-20T07:02:08.000Z</time>
      </trkpt>
      <trkpt lat="42.61542" lon="1.76927">
        <ele>2211.3999023438</ele>
        <time>2023-07-20T07:02:14.000Z</time>
      </trkpt>
      <trkpt lat="42.61541" lon="1.76923">
        <ele>2211.3999023438</ele>
        <time>2023-07-20T07:02:23.000Z</time>
      </trkpt>
      <trkpt lat="42.6154" lon="1.76916">
        <ele>2211.3999023438</ele>
        <time>2023-07-20T07:02:29.000Z</time>
      </trkpt>
      <trkpt lat="42.61543" lon="1.76907">
        <ele>2211.6000976562</ele>
        <time>2023-07-20T07:02:36.000Z</time>
      </trkpt>
      <trkpt lat="42.61545" lon="1.76909">
        <ele>2212</ele>
        <time>2023-07-20T07:02:40.000Z</time>
      </trkpt>
      <trkpt lat="42.61546" lon="1.7691">
        <ele>2212.1999511719</ele>
        <time>2023-07-20T07:02:42.000Z</time>
      </trkpt>
      <trkpt lat="42.61548" lon="1.76909">
        <ele>2212.1999511719</ele>
        <time>2023-07-20T07:02:48.000Z</time>
      </trkpt>
      <trkpt lat="42.61544" lon="1.769">
        <ele>2212.3999023438</ele>
        <time>2023-07-20T07:02:55.000Z</time>
      </trkpt>
      <trkpt lat="42.61543" lon="1.769">
        <ele>2212</ele>
        <time>2023-07-20T07:03:00.000Z</time>
      </trkpt>
      <trkpt lat="42.61545" lon="1.76904">
        <ele>2212</ele>
        <time>2023-07-20T07:03:04.000Z</time>
      </trkpt>
      <trkpt lat="42.61546" lon="1.76905">
        <ele>2212.1999511719</ele>
        <time>2023-07-20T07:03:06.000Z</time>
      </trkpt>
      <trkpt lat="42.61545" lon="1.76898">
        <ele>2212.3999023438</ele>
        <time>2023-07-20T07:03:12.000Z</time>
      </trkpt>
      <trkpt lat="42.61542" lon="1.7689">
        <ele>2212.8000488281</ele>
        <time>2023-07-20T07:03:19.000Z</time>
      </trkpt>
      <trkpt lat="42.61541" lon="1.7689">
        <ele>2212.8000488281</ele>
        <time>2023-07-20T07:03:22.000Z</time>
      </trkpt>
      <trkpt lat="42.61542" lon="1.76893">
        <ele>2212.8000488281</ele>
        <time>2023-07-20T07:03:28.000Z</time>
      </trkpt>
      <trkpt lat="42.61543" lon="1.76892">
        <ele>2213</ele>
        <time>2023-07-20T07:03:37.000Z</time>
      </trkpt>
      <trkpt lat="42.61543" lon="1.76905">
        <ele>2213</ele>
        <time>2023-07-20T07:03:43.000Z</time>
      </trkpt>
      <trkpt lat="42.61545" lon="1.76918">
        <ele>2213.1999511719</ele>
        <time>2023-07-20T07:03:51.000Z</time>
      </trkpt>
      <trkpt lat="42.61545" lon="1.76927">
        <ele>2213.3999023438</ele>
        <time>2023-07-20T07:03:58.000Z</time>
      </trkpt>
      <trkpt lat="42.61544" lon="1.76934">
        <ele>2213.6000976562</ele>
        <time>2023-07-20T07:04:05.000Z</time>
      </trkpt>
      <trkpt lat="42.61541" lon="1.76938">
        <ele>2214</ele>
        <time>2023-07-20T07:04:09.000Z</time>
      </trkpt>
      <trkpt lat="42.61539" lon="1.76944">
        <ele>2214</ele>
        <time>2023-07-20T07:04:12.000Z</time>
      </trkpt>
      <trkpt lat="42.61542" lon="1.76952">
        <ele>2213.8000488281</ele>
        <time>2023-07-20T07:04:18.000Z</time>
      </trkpt>
      <trkpt lat="42.61539" lon="1.76962">
        <ele>2213.8000488281</ele>
        <time>2023-07-20T07:04:25.000Z</time>
      </trkpt>
      <trkpt lat="42.6153" lon="1.76973">
        <ele>2213.6000976562</ele>
        <time>2023-07-20T07:04:33.000Z</time>
      </trkpt>
      <trkpt lat="42.61524" lon="1.76987">
        <ele>2213.1999511719</ele>
        <time>2023-07-20T07:04:42.000Z</time>
      </trkpt>
      <trkpt lat="42.61516" lon="1.76999">
        <ele>2213.1999511719</ele>
        <time>2023-07-20T07:04:51.000Z</time>
      </trkpt>
      <trkpt lat="42.61515" lon="1.77003">
        <ele>2212.6000976562</ele>
        <time>2023-07-20T07:04:54.000Z</time>
      </trkpt>
      <trkpt lat="42.61513" lon="1.77008">
        <ele>2212.6000976562</ele>
        <time>2023-07-20T07:04:58.000Z</time>
      </trkpt>
      <trkpt lat="42.6151" lon="1.77018">
        <ele>2212.8000488281</ele>
        <time>2023-07-20T07:05:04.000Z</time>
      </trkpt>
      <trkpt lat="42.61508" lon="1.7703">
        <ele>2212.8000488281</ele>
        <time>2023-07-20T07:05:12.000Z</time>
      </trkpt>
      <trkpt lat="42.61509" lon="1.77037">
        <ele>2212.6000976562</ele>
        <time>2023-07-20T07:05:18.000Z</time>
      </trkpt>
      <trkpt lat="42.61511" lon="1.77038">
        <ele>2212.3999023438</ele>
        <time>2023-07-20T07:05:26.000Z</time>
      </trkpt>
      <trkpt lat="42.61511" lon="1.7704">
        <ele>2212.1999511719</ele>
        <time>2023-07-20T07:05:35.000Z</time>
      </trkpt>
      <trkpt lat="42.61512" lon="1.77037">
        <ele>2212.1999511719</ele>
        <time>2023-07-20T07:05:43.000Z</time>
      </trkpt>
      <trkpt lat="42.61514" lon="1.77025">
        <ele>2212</ele>
        <time>2023-07-20T07:05:50.000Z</time>
      </trkpt>
      <trkpt lat="42.61515" lon="1.77013">
        <ele>2212</ele>
        <time>2023-07-20T07:05:57.000Z</time>
      </trkpt>
      <trkpt lat="42.61517" lon="1.77">
        <ele>2212.3999023438</ele>
        <time>2023-07-20T07:06:06.000Z</time>
      </trkpt>
      <trkpt lat="42.6152" lon="1.76989">
        <ele>2212.1999511719</ele>
        <time>2023-07-20T07:06:13.000Z</time>
      </trkpt>
      <trkpt lat="42.61528" lon="1.76977">
        <ele>2212</ele>
        <time>2023-07-20T07:06:22.000Z</time>
      </trkpt>
      <trkpt lat="42.61533" lon="1.76966">
        <ele>2212.1999511719</ele>
        <time>2023-07-20T07:06:30.000Z</time>
      </trkpt>
      <trkpt lat="42.61539" lon="1.76964">
        <ele>2212.3999023438</ele>
        <time>2023-07-20T07:06:37.000Z</time>
      </trkpt>
      <trkpt lat="42.61539" lon="1.76965">
        <ele>2212.6000976562</ele>
        <time>2023-07-20T07:06:38.000Z</time>
      </trkpt>
      <trkpt lat="42.6154" lon="1.76966">
        <ele>2212.8000488281</ele>
        <time>2023-07-20T07:06:40.000Z</time>
      </trkpt>
      <trkpt lat="42.61539" lon="1.76964">
        <ele>2212.8000488281</ele>
        <time>2023-07-20T07:06:44.000Z</time>
      </trkpt>
      <trkpt lat="42.61539" lon="1.76963">
        <ele>2212.6000976562</ele>
        <time>2023-07-20T07:06:45.000Z</time>
      </trkpt>
      <trkpt lat="42.61541" lon="1.76959">
        <ele>2212.8000488281</ele>
        <time>2023-07-20T07:06:54.000Z</time>
      </trkpt>
      <trkpt lat="42.61547" lon="1.76957">
        <ele>2213</ele>
        <time>2023-07-20T07:07:03.000Z</time>
      </trkpt>
      <trkpt lat="42.61549" lon="1.76955">
        <ele>2213.8000488281</ele>
        <time>2023-07-20T07:07:07.000Z</time>
      </trkpt>
      <trkpt lat="42.61551" lon="1.76952">
        <ele>2214.3999023438</ele>
        <time>2023-07-20T07:07:11.000Z</time>
      </trkpt>
      <trkpt lat="42.61551" lon="1.7695">
        <ele>2214.8000488281</ele>
        <time>2023-07-20T07:07:13.000Z</time>
      </trkpt>
      <trkpt lat="42.61552" lon="1.76945">
        <ele>2216</ele>
        <time>2023-07-20T07:07:17.000Z</time>
      </trkpt>
      <trkpt lat="42.61552" lon="1.76943">
        <ele>2216.3999023438</ele>
        <time>2023-07-20T07:07:20.000Z</time>
      </trkpt>
      <trkpt lat="42.61554" lon="1.76946">
        <ele>2217</ele>
        <time>2023-07-20T07:07:24.000Z</time>
      </trkpt>
      <trkpt lat="42.61555" lon="1.76948">
        <ele>2217.6000976562</ele>
        <time>2023-07-20T07:07:27.000Z</time>
      </trkpt>
      <trkpt lat="42.61556" lon="1.7695">
        <ele>2218</ele>
        <time>2023-07-20T07:07:29.000Z</time>
      </trkpt>
      <trkpt lat="42.61558" lon="1.7695">
        <ele>2218.6000976562</ele>
        <time>2023-07-20T07:07:34.000Z</time>
      </trkpt>
      <trkpt lat="42.61559" lon="1.7695">
        <ele>2218.6000976562</ele>
        <time>2023-07-20T07:07:35.000Z</time>
      </trkpt>
      <trkpt lat="42.61562" lon="1.76946">
        <ele>2219</ele>
        <time>2023-07-20T07:07:42.000Z</time>
      </trkpt>
      <trkpt lat="42.61565" lon="1.76944">
        <ele>2220</ele>
        <time>2023-07-20T07:07:49.000Z</time>
      </trkpt>
      <trkpt lat="42.61565" lon="1.76944">
        <ele>2220.1999511719</ele>
        <time>2023-07-20T07:07:51.000Z</time>
      </trkpt>
      <trkpt lat="42.61566" lon="1.76945">
        <ele>2220.3999023438</ele>
        <time>2023-07-20T07:07:52.000Z</time>
      </trkpt>
      <trkpt lat="42.61566" lon="1.76944">
        <ele>2221.3999023438</ele>
        <time>2023-07-20T07:07:56.000Z</time>
      </trkpt>
      <trkpt lat="42.61566" lon="1.76944">
        <ele>2221.8000488281</ele>
        <time>2023-07-20T07:07:57.000Z</time>
      </trkpt>
      <trkpt lat="42.61566" lon="1.76943">
        <ele>2222.6000976562</ele>
        <time>2023-07-20T07:08:00.000Z</time>
      </trkpt>
      <trkpt lat="42.61568" lon="1.76942">
        <ele>2222.6000976562</ele>
        <time>2023-07-20T07:08:03.000Z</time>
      </trkpt>
      <trkpt lat="42.61573" lon="1.76943">
        <ele>2223.6000976562</ele>
        <time>2023-07-20T07:08:09.000Z</time>
      </trkpt>
      <trkpt lat="42.61573" lon="1.76943">
        <ele>2224.1999511719</ele>
        <time>2023-07-20T07:08:12.000Z</time>
      </trkpt>
      <trkpt lat="42.61575" lon="1.76941">
        <ele>2224.6000976562</ele>
        <time>2023-07-20T07:08:15.000Z</time>
      </trkpt>
      <trkpt lat="42.61575" lon="1.76939">
        <ele>2225</ele>
        <time>2023-07-20T07:08:18.000Z</time>
      </trkpt>
      <trkpt lat="42.61575" lon="1.76936">
        <ele>2225.8000488281</ele>
        <time>2023-07-20T07:08:23.000Z</time>
      </trkpt>
      <trkpt lat="42.61575" lon="1.76937">
        <ele>2226</ele>
        <time>2023-07-20T07:08:24.000Z</time>
      </trkpt>
      <trkpt lat="42.61574" lon="1.76932">
        <ele>2226.8000488281</ele>
        <time>2023-07-20T07:08:30.000Z</time>
      </trkpt>
      <trkpt lat="42.61574" lon="1.7693">
        <ele>2227</ele>
        <time>2023-07-20T07:08:32.000Z</time>
      </trkpt>
      <trkpt lat="42.61572" lon="1.76924">
        <ele>2228</ele>
        <time>2023-07-20T07:08:39.000Z</time>
      </trkpt>
      <trkpt lat="42.61572" lon="1.76921">
        <ele>2228.3999023438</ele>
        <time>2023-07-20T07:08:42.000Z</time>
      </trkpt>
      <trkpt lat="42.61572" lon="1.76919">
        <ele>2229</ele>
        <time>2023-07-20T07:08:47.000Z</time>
      </trkpt>
      <trkpt lat="42.61572" lon="1.76919">
        <ele>2229.3999023438</ele>
        <time>2023-07-20T07:08:50.000Z</time>
      </trkpt>
      <trkpt lat="42.61572" lon="1.76918">
        <ele>2230.1999511719</ele>
        <time>2023-07-20T07:08:53.000Z</time>
      </trkpt>
      <trkpt lat="42.61572" lon="1.76915">
        <ele>2231.1999511719</ele>
        <time>2023-07-20T07:08:58.000Z</time>
      </trkpt>
      <trkpt lat="42.61572" lon="1.76915">
        <ele>2231.1999511719</ele>
        <time>2023-07-20T07:08:59.000Z</time>
      </trkpt>
      <trkpt lat="42.61575" lon="1.76912">
        <ele>2231.3999023438</ele>
        <time>2023-07-20T07:09:06.000Z</time>
      </trkpt>
      <trkpt lat="42.61576" lon="1.76911">
        <ele>2232.1999511719</ele>
        <time>2023-07-20T07:09:10.000Z</time>
      </trkpt>
      <trkpt lat="42.61576" lon="1.7691">
        <ele>2233</ele>
        <time>2023-07-20T07:09:13.000Z</time>
      </trkpt>
      <trkpt lat="42.61576" lon="1.76908">
        <ele>2233.3999023438</ele>
        <time>2023-07-20T07:09:15.000Z</time>
      </trkpt>
      <trkpt lat="42.61575" lon="1.76906">
        <ele>2234</ele>
        <time>2023-07-20T07:09:18.000Z</time>
      </trkpt>
      <trkpt lat="42.61574" lon="1.76906">
        <ele>2234.3999023438</ele>
        <time>2023-07-20T07:09:20.000Z</time>
      </trkpt>
      <trkpt lat="42.61572" lon="1.76907">
        <ele>2235</ele>
        <time>2023-07-20T07:09:24.000Z</time>
      </trkpt>
      <trkpt lat="42.61573" lon="1.76906">
        <ele>2235.6000976562</ele>
        <time>2023-07-20T07:09:26.000Z</time>
      </trkpt>
      <trkpt lat="42.61575" lon="1.76905">
        <ele>2235.8000488281</ele>
        <time>2023-07-20T07:09:31.000Z</time>
      </trkpt>
      <trkpt lat="42.61578" lon="1.76905">
        <ele>2236.6000976562</ele>
        <time>2023-07-20T07:09:36.000Z</time>
      </trkpt>
      <trkpt lat="42.6158" lon="1.76904">
        <ele>2237.1999511719</ele>
        <time>2023-07-20T07:09:39.000Z</time>
      </trkpt>
      <trkpt lat="42.61579" lon="1.76904">
        <ele>2237.8000488281</ele>
        <time>2023-07-20T07:09:43.000Z</time>
      </trkpt>
      <trkpt lat="42.61579" lon="1.76903">
        <ele>2237.8000488281</ele>
        <time>2023-07-20T07:09:46.000Z</time>
      </trkpt>
      <trkpt lat="42.61574" lon="1.76899">
        <ele>2238.8000488281</ele>
        <time>2023-07-20T07:09:53.000Z</time>
      </trkpt>
      <trkpt lat="42.61573" lon="1.76899">
        <ele>2238.8000488281</ele>
        <time>2023-07-20T07:09:54.000Z</time>
      </trkpt>
      <trkpt lat="42.61572" lon="1.76892">
        <ele>2239.3999023438</ele>
        <time>2023-07-20T07:10:02.000Z</time>
      </trkpt>
      <trkpt lat="42.61573" lon="1.76889">
        <ele>2239.8000488281</ele>
        <time>2023-07-20T07:10:05.000Z</time>
      </trkpt>
      <trkpt lat="42.61574" lon="1.76886">
        <ele>2240.3999023438</ele>
        <time>2023-07-20T07:10:10.000Z</time>
      </trkpt>
      <trkpt lat="42.61574" lon="1.76882">
        <ele>2241</ele>
        <time>2023-07-20T07:10:14.000Z</time>
      </trkpt>
      <trkpt lat="42.61574" lon="1.76881">
        <ele>2241</ele>
        <time>2023-07-20T07:10:17.000Z</time>
      </trkpt>
      <trkpt lat="42.61573" lon="1.76873">
        <ele>2240.8000488281</ele>
        <time>2023-07-20T07:10:23.000Z</time>
      </trkpt>
      <trkpt lat="42.61569" lon="1.76866">
        <ele>2240.8000488281</ele>
        <time>2023-07-20T07:10:30.000Z</time>
      </trkpt>
      <trkpt lat="42.61568" lon="1.76861">
        <ele>2241.6000976562</ele>
        <time>2023-07-20T07:10:38.000Z</time>
      </trkpt>
      <trkpt lat="42.61567" lon="1.7686">
        <ele>2241.3999023438</ele>
        <time>2023-07-20T07:10:45.000Z</time>
      </trkpt>
      <trkpt lat="42.61567" lon="1.76862">
        <ele>2241.1999511719</ele>
        <time>2023-07-20T07:10:52.000Z</time>
      </trkpt>
      <trkpt lat="42.61567" lon="1.76861">
        <ele>2241.1999511719</ele>
        <time>2023-07-20T07:11:01.000Z</time>
      </trkpt>
      <trkpt lat="42.61572" lon="1.76859">
        <ele>2241.3999023438</ele>
        <time>2023-07-20T07:11:09.000Z</time>
      </trkpt>
      <trkpt lat="42.61574" lon="1.76857">
        <ele>2242</ele>
        <time>2023-07-20T07:11:13.000Z</time>
      </trkpt>
      <trkpt lat="42.61577" lon="1.76856">
        <ele>2242.3999023438</ele>
        <time>2023-07-20T07:11:17.000Z</time>
      </trkpt>
      <trkpt lat="42.61587" lon="1.76848">
        <ele>2242.6000976562</ele>
        <time>2023-07-20T07:11:29.000Z</time>
      </trkpt>
      <trkpt lat="42.61589" lon="1.76844">
        <ele>2243</ele>
        <time>2023-07-20T07:11:35.000Z</time>
      </trkpt>
      <trkpt lat="42.6159" lon="1.76843">
        <ele>2243.3999023438</ele>
        <time>2023-07-20T07:11:37.000Z</time>
      </trkpt>
      <trkpt lat="42.61591" lon="1.76841">
        <ele>2244.1999511719</ele>
        <time>2023-07-20T07:11:41.000Z</time>
      </trkpt>
      <trkpt lat="42.61592" lon="1.76837">
        <ele>2245.1999511719</ele>
        <time>2023-07-20T07:11:46.000Z</time>
      </trkpt>
      <trkpt lat="42.61592" lon="1.76836">
        <ele>2245.1999511719</ele>
        <time>2023-07-20T07:11:48.000Z</time>
      </trkpt>
      <trkpt lat="42.6159" lon="1.76827">
        <ele>2246.3999023438</ele>
        <time>2023-07-20T07:11:54.000Z</time>
      </trkpt>
      <trkpt lat="42.61587" lon="1.7682">
        <ele>2246.6000976562</ele>
        <time>2023-07-20T07:12:00.000Z</time>
      </trkpt>
      <trkpt lat="42.61581" lon="1.76809">
        <ele>2247.1999511719</ele>
        <time>2023-07-20T07:12:09.000Z</time>
      </trkpt>
      <trkpt lat="42.6158" lon="1.76807">
        <ele>2247.3999023438</ele>
        <time>2023-07-20T07:12:11.000Z</time>
      </trkpt>
      <trkpt lat="42.61576" lon="1.76802">
        <ele>2247.6000976562</ele>
        <time>2023-07-20T07:12:17.000Z</time>
      </trkpt>
      <trkpt lat="42.61574" lon="1.76798">
        <ele>2247.6000976562</ele>
        <time>2023-07-20T07:12:23.000Z</time>
      </trkpt>
      <trkpt lat="42.61575" lon="1.76793">
        <ele>2247.6000976562</ele>
        <time>2023-07-20T07:12:31.000Z</time>
      </trkpt>
      <trkpt lat="42.61573" lon="1.76787">
        <ele>2247.3999023438</ele>
        <time>2023-07-20T07:12:38.000Z</time>
      </trkpt>
      <trkpt lat="42.61571" lon="1.76775">
        <ele>2246.8000488281</ele>
        <time>2023-07-20T07:12:46.000Z</time>
      </trkpt>
      <trkpt lat="42.61568" lon="1.7676">
        <ele>2246.8000488281</ele>
        <time>2023-07-20T07:12:55.000Z</time>
      </trkpt>
      <trkpt lat="42.61565" lon="1.76749">
        <ele>2247</ele>
        <time>2023-07-20T07:13:03.000Z</time>
      </trkpt>
      <trkpt lat="42.61563" lon="1.76742">
        <ele>2247.8000488281</ele>
        <time>2023-07-20T07:13:12.000Z</time>
      </trkpt>
      <trkpt lat="42.61561" lon="1.7673">
        <ele>2247.6000976562</ele>
        <time>2023-07-20T07:13:19.000Z</time>
      </trkpt>
      <trkpt lat="42.61559" lon="1.7672">
        <ele>2247.6000976562</ele>
        <time>2023-07-20T07:13:27.000Z</time>
      </trkpt>
      <trkpt lat="42.61558" lon="1.76712">
        <ele>2248.6000976562</ele>
        <time>2023-07-20T07:13:34.000Z</time>
      </trkpt>
      <trkpt lat="42.61557" lon="1.76708">
        <ele>2249.1999511719</ele>
        <time>2023-07-20T07:13:37.000Z</time>
      </trkpt>
      <trkpt lat="42.61557" lon="1.76701">
        <ele>2249.6000976562</ele>
        <time>2023-07-20T07:13:44.000Z</time>
      </trkpt>
      <trkpt lat="42.61556" lon="1.76692">
        <ele>2249.6000976562</ele>
        <time>2023-07-20T07:13:51.000Z</time>
      </trkpt>
      <trkpt lat="42.61553" lon="1.76682">
        <ele>2250</ele>
        <time>2023-07-20T07:13:59.000Z</time>
      </trkpt>
      <trkpt lat="42.61556" lon="1.76677">
        <ele>2250.6000976562</ele>
        <time>2023-07-20T07:14:05.000Z</time>
      </trkpt>
      <trkpt lat="42.61556" lon="1.76675">
        <ele>2250.8000488281</ele>
        <time>2023-07-20T07:14:06.000Z</time>
      </trkpt>
      <trkpt lat="42.61556" lon="1.76669">
        <ele>2251.6000976562</ele>
        <time>2023-07-20T07:14:13.000Z</time>
      </trkpt>
      <trkpt lat="42.61556" lon="1.76668">
        <ele>2251.8000488281</ele>
        <time>2023-07-20T07:14:14.000Z</time>
      </trkpt>
      <trkpt lat="42.61554" lon="1.76662">
        <ele>2252.8000488281</ele>
        <time>2023-07-20T07:14:20.000Z</time>
      </trkpt>
      <trkpt lat="42.61556" lon="1.76652">
        <ele>2253.3999023438</ele>
        <time>2023-07-20T07:14:28.000Z</time>
      </trkpt>
      <trkpt lat="42.61556" lon="1.76649">
        <ele>2253.8000488281</ele>
        <time>2023-07-20T07:14:30.000Z</time>
      </trkpt>
      <trkpt lat="42.61557" lon="1.76646">
        <ele>2254.1999511719</ele>
        <time>2023-07-20T07:14:34.000Z</time>
      </trkpt>
      <trkpt lat="42.61558" lon="1.76643">
        <ele>2255</ele>
        <time>2023-07-20T07:14:38.000Z</time>
      </trkpt>
      <trkpt lat="42.6156" lon="1.7664">
        <ele>2255.3999023438</ele>
        <time>2023-07-20T07:14:42.000Z</time>
      </trkpt>
      <trkpt lat="42.61562" lon="1.76637">
        <ele>2256</ele>
        <time>2023-07-20T07:14:47.000Z</time>
      </trkpt>
      <trkpt lat="42.61565" lon="1.76632">
        <ele>2256.6000976562</ele>
        <time>2023-07-20T07:14:51.000Z</time>
      </trkpt>
      <trkpt lat="42.61568" lon="1.76628">
        <ele>2257</ele>
        <time>2023-07-20T07:14:56.000Z</time>
      </trkpt>
      <trkpt lat="42.61569" lon="1.76626">
        <ele>2257.3999023438</ele>
        <time>2023-07-20T07:14:58.000Z</time>
      </trkpt>
      <trkpt lat="42.6157" lon="1.76623">
        <ele>2258.1999511719</ele>
        <time>2023-07-20T07:15:03.000Z</time>
      </trkpt>
      <trkpt lat="42.61571" lon="1.76621">
        <ele>2258.6000976562</ele>
        <time>2023-07-20T07:15:06.000Z</time>
      </trkpt>
      <trkpt lat="42.61572" lon="1.7662">
        <ele>2259.1999511719</ele>
        <time>2023-07-20T07:15:09.000Z</time>
      </trkpt>
      <trkpt lat="42.61576" lon="1.76615">
        <ele>2260</ele>
        <time>2023-07-20T07:15:15.000Z</time>
      </trkpt>
      <trkpt lat="42.61577" lon="1.76614">
        <ele>2260.1999511719</ele>
        <time>2023-07-20T07:15:16.000Z</time>
      </trkpt>
      <trkpt lat="42.6158" lon="1.76612">
        <ele>2261.3999023438</ele>
        <time>2023-07-20T07:15:23.000Z</time>
      </trkpt>
      <trkpt lat="42.6158" lon="1.76611">
        <ele>2261.3999023438</ele>
        <time>2023-07-20T07:15:24.000Z</time>
      </trkpt>
      <trkpt lat="42.61584" lon="1.76606">
        <ele>2262.3999023438</ele>
        <time>2023-07-20T07:15:33.000Z</time>
      </trkpt>
      <trkpt lat="42.61584" lon="1.76605">
        <ele>2262.3999023438</ele>
        <time>2023-07-20T07:15:34.000Z</time>
      </trkpt>
      <trkpt lat="42.6159" lon="1.76602">
        <ele>2263</ele>
        <time>2023-07-20T07:15:40.000Z</time>
      </trkpt>
      <trkpt lat="42.61594" lon="1.76599">
        <ele>2263.3999023438</ele>
        <time>2023-07-20T07:15:46.000Z</time>
      </trkpt>
      <trkpt lat="42.61596" lon="1.76598">
        <ele>2264</ele>
        <time>2023-07-20T07:15:49.000Z</time>
      </trkpt>
      <trkpt lat="42.61599" lon="1.76598">
        <ele>2264.6000976562</ele>
        <time>2023-07-20T07:15:52.000Z</time>
      </trkpt>
      <trkpt lat="42.61603" lon="1.76595">
        <ele>2264.8000488281</ele>
        <time>2023-07-20T07:15:57.000Z</time>
      </trkpt>
      <trkpt lat="42.61608" lon="1.7659">
        <ele>2264.8000488281</ele>
        <time>2023-07-20T07:16:04.000Z</time>
      </trkpt>
      <trkpt lat="42.61615" lon="1.76581">
        <ele>2264.8000488281</ele>
        <time>2023-07-20T07:16:14.000Z</time>
      </trkpt>
      <trkpt lat="42.61624" lon="1.76578">
        <ele>2265.1999511719</ele>
        <time>2023-07-20T07:16:22.000Z</time>
      </trkpt>
      <trkpt lat="42.61632" lon="1.76574">
        <ele>2265.1999511719</ele>
        <time>2023-07-20T07:16:30.000Z</time>
      </trkpt>
      <trkpt lat="42.61641" lon="1.76568">
        <ele>2265</ele>
        <time>2023-07-20T07:16:37.000Z</time>
      </trkpt>
      <trkpt lat="42.61648" lon="1.76562">
        <ele>2264.1999511719</ele>
        <time>2023-07-20T07:16:46.000Z</time>
      </trkpt>
      <trkpt lat="42.61651" lon="1.76558">
        <ele>2263.6000976562</ele>
        <time>2023-07-20T07:16:51.000Z</time>
      </trkpt>
      <trkpt lat="42.61654" lon="1.76555">
        <ele>2263.1999511719</ele>
        <time>2023-07-20T07:16:54.000Z</time>
      </trkpt>
      <trkpt lat="42.61655" lon="1.76548">
        <ele>2262.6000976562</ele>
        <time>2023-07-20T07:17:01.000Z</time>
      </trkpt>
      <trkpt lat="42.61656" lon="1.76545">
        <ele>2262.3999023438</ele>
        <time>2023-07-20T07:17:04.000Z</time>
      </trkpt>
      <trkpt lat="42.61658" lon="1.76544">
        <ele>2261.3999023438</ele>
        <time>2023-07-20T07:17:08.000Z</time>
      </trkpt>
      <trkpt lat="42.61659" lon="1.76546">
        <ele>2261</ele>
        <time>2023-07-20T07:17:10.000Z</time>
      </trkpt>
      <trkpt lat="42.61661" lon="1.76545">
        <ele>2260.3999023438</ele>
        <time>2023-07-20T07:17:13.000Z</time>
      </trkpt>
      <trkpt lat="42.61663" lon="1.76545">
        <ele>2259.8000488281</ele>
        <time>2023-07-20T07:17:17.000Z</time>
      </trkpt>
      <trkpt lat="42.61664" lon="1.76545">
        <ele>2259.1999511719</ele>
        <time>2023-07-20T07:17:19.000Z</time>
      </trkpt>
      <trkpt lat="42.61664" lon="1.76541">
        <ele>2258</ele>
        <time>2023-07-20T07:17:24.000Z</time>
      </trkpt>
      <trkpt lat="42.61668" lon="1.7654">
        <ele>2256.8000488281</ele>
        <time>2023-07-20T07:17:30.000Z</time>
      </trkpt>
      <trkpt lat="42.61669" lon="1.7654">
        <ele>2256.3999023438</ele>
        <time>2023-07-20T07:17:32.000Z</time>
      </trkpt>
      <trkpt lat="42.61673" lon="1.7654">
        <ele>2255.8000488281</ele>
        <time>2023-07-20T07:17:36.000Z</time>
      </trkpt>
      <trkpt lat="42.61674" lon="1.76541">
        <ele>2255.3999023438</ele>
        <time>2023-07-20T07:17:39.000Z</time>
      </trkpt>
      <trkpt lat="42.61677" lon="1.76541">
        <ele>2254.8000488281</ele>
        <time>2023-07-20T07:17:44.000Z</time>
      </trkpt>
      <trkpt lat="42.61682" lon="1.76541">
        <ele>2253.3999023438</ele>
        <time>2023-07-20T07:17:54.000Z</time>
      </trkpt>
      <trkpt lat="42.61682" lon="1.76535">
        <ele>2252.3999023438</ele>
        <time>2023-07-20T07:18:00.000Z</time>
      </trkpt>
      <trkpt lat="42.61687" lon="1.7653">
        <ele>2251.1999511719</ele>
        <time>2023-07-20T07:18:07.000Z</time>
      </trkpt>
      <trkpt lat="42.61687" lon="1.76529">
        <ele>2251</ele>
        <time>2023-07-20T07:18:08.000Z</time>
      </trkpt>
      <trkpt lat="42.6169" lon="1.76524">
        <ele>2250.1999511719</ele>
        <time>2023-07-20T07:18:13.000Z</time>
      </trkpt>
      <trkpt lat="42.61694" lon="1.7652">
        <ele>2249.3999023438</ele>
        <time>2023-07-20T07:18:17.000Z</time>
      </trkpt>
      <trkpt lat="42.61696" lon="1.76518">
        <ele>2249.1999511719</ele>
        <time>2023-07-20T07:18:19.000Z</time>
      </trkpt>
      <trkpt lat="42.61702" lon="1.76514">
        <ele>2248.6000976562</ele>
        <time>2023-07-20T07:18:25.000Z</time>
      </trkpt>
      <trkpt lat="42.61704" lon="1.76511">
        <ele>2248</ele>
        <time>2023-07-20T07:18:30.000Z</time>
      </trkpt>
      <trkpt lat="42.61706" lon="1.76508">
        <ele>2247.6000976562</ele>
        <time>2023-07-20T07:18:34.000Z</time>
      </trkpt>
      <trkpt lat="42.61709" lon="1.76501">
        <ele>2247.1999511719</ele>
        <time>2023-07-20T07:18:41.000Z</time>
      </trkpt>
      <trkpt lat="42.61709" lon="1.76499">
        <ele>2247</ele>
        <time>2023-07-20T07:18:44.000Z</time>
      </trkpt>
      <trkpt lat="42.6171" lon="1.76494">
        <ele>2246.3999023438</ele>
        <time>2023-07-20T07:18:49.000Z</time>
      </trkpt>
      <trkpt lat="42.61711" lon="1.76493">
        <ele>2245.8000488281</ele>
        <time>2023-07-20T07:18:52.000Z</time>
      </trkpt>
      <trkpt lat="42.61713" lon="1.7649">
        <ele>2245.3999023438</ele>
        <time>2023-07-20T07:18:56.000Z</time>
      </trkpt>
      <trkpt lat="42.61716" lon="1.76483">
        <ele>2245</ele>
        <time>2023-07-20T07:19:04.000Z</time>
      </trkpt>
      <trkpt lat="42.61716" lon="1.76483">
        <ele>2244.6000976562</ele>
        <time>2023-07-20T07:19:05.000Z</time>
      </trkpt>
      <trkpt lat="42.61718" lon="1.76478">
        <ele>2243.6000976562</ele>
        <time>2023-07-20T07:19:09.000Z</time>
      </trkpt>
      <trkpt lat="42.61719" lon="1.76478">
        <ele>2243.3999023438</ele>
        <time>2023-07-20T07:19:11.000Z</time>
      </trkpt>
      <trkpt lat="42.61723" lon="1.76472">
        <ele>2242.6000976562</ele>
        <time>2023-07-20T07:19:20.000Z</time>
      </trkpt>
      <trkpt lat="42.61724" lon="1.7647">
        <ele>2242.6000976562</ele>
        <time>2023-07-20T07:19:22.000Z</time>
      </trkpt>
      <trkpt lat="42.61724" lon="1.76466">
        <ele>2241.8000488281</ele>
        <time>2023-07-20T07:19:28.000Z</time>
      </trkpt>
      <trkpt lat="42.61724" lon="1.76465">
        <ele>2241.6000976562</ele>
        <time>2023-07-20T07:19:31.000Z</time>
      </trkpt>
      <trkpt lat="42.61723" lon="1.76463">
        <ele>2241.1999511719</ele>
        <time>2023-07-20T07:19:34.000Z</time>
      </trkpt>
      <trkpt lat="42.61733" lon="1.76459">
        <ele>2240.6000976562</ele>
        <time>2023-07-20T07:19:43.000Z</time>
      </trkpt>
      <trkpt lat="42.61734" lon="1.76459">
        <ele>2240.3999023438</ele>
        <time>2023-07-20T07:19:49.000Z</time>
      </trkpt>
      <trkpt lat="42.61734" lon="1.76458">
        <ele>2240.1999511719</ele>
        <time>2023-07-20T07:19:50.000Z</time>
      </trkpt>
      <trkpt lat="42.61736" lon="1.76453">
        <ele>2240</ele>
        <time>2023-07-20T07:19:57.000Z</time>
      </trkpt>
      <trkpt lat="42.61736" lon="1.76451">
        <ele>2239.3999023438</ele>
        <time>2023-07-20T07:20:02.000Z</time>
      </trkpt>
      <trkpt lat="42.61738" lon="1.7645">
        <ele>2239</ele>
        <time>2023-07-20T07:20:05.000Z</time>
      </trkpt>
      <trkpt lat="42.6174" lon="1.7645">
        <ele>2238.1999511719</ele>
        <time>2023-07-20T07:20:09.000Z</time>
      </trkpt>
      <trkpt lat="42.61745" lon="1.7645">
        <ele>2238</ele>
        <time>2023-07-20T07:20:13.000Z</time>
      </trkpt>
      <trkpt lat="42.61749" lon="1.76445">
        <ele>2237.1999511719</ele>
        <time>2023-07-20T07:20:19.000Z</time>
      </trkpt>
      <trkpt lat="42.6175" lon="1.76444">
        <ele>2237</ele>
        <time>2023-07-20T07:20:21.000Z</time>
      </trkpt>
      <trkpt lat="42.61752" lon="1.76442">
        <ele>2236.1999511719</ele>
        <time>2023-07-20T07:20:28.000Z</time>
      </trkpt>
      <trkpt lat="42.61757" lon="1.76437">
        <ele>2235.3999023438</ele>
        <time>2023-07-20T07:20:35.000Z</time>
      </trkpt>
      <trkpt lat="42.61759" lon="1.76435">
        <ele>2235.1999511719</ele>
        <time>2023-07-20T07:20:39.000Z</time>
      </trkpt>
      <trkpt lat="42.61761" lon="1.76433">
        <ele>2234.8000488281</ele>
        <time>2023-07-20T07:20:43.000Z</time>
      </trkpt>
      <trkpt lat="42.61764" lon="1.76431">
        <ele>2234.1999511719</ele>
        <time>2023-07-20T07:20:47.000Z</time>
      </trkpt>
      <trkpt lat="42.61764" lon="1.7643">
        <ele>2233.8000488281</ele>
        <time>2023-07-20T07:20:49.000Z</time>
      </trkpt>
      <trkpt lat="42.61765" lon="1.76423">
        <ele>2233</ele>
        <time>2023-07-20T07:20:55.000Z</time>
      </trkpt>
      <trkpt lat="42.61766" lon="1.76422">
        <ele>2232.8000488281</ele>
        <time>2023-07-20T07:20:56.000Z</time>
      </trkpt>
      <trkpt lat="42.61769" lon="1.76419">
        <ele>2232</ele>
        <time>2023-07-20T07:21:02.000Z</time>
      </trkpt>
      <trkpt lat="42.61771" lon="1.76418">
        <ele>2231.8000488281</ele>
        <time>2023-07-20T07:21:04.000Z</time>
      </trkpt>
      <trkpt lat="42.6177" lon="1.76418">
        <ele>2231.3999023438</ele>
        <time>2023-07-20T07:21:07.000Z</time>
      </trkpt>
      <trkpt lat="42.61769" lon="1.76416">
        <ele>2231.3999023438</ele>
        <time>2023-07-20T07:21:11.000Z</time>
      </trkpt>
      <trkpt lat="42.61772" lon="1.76416">
        <ele>2230.8000488281</ele>
        <time>2023-07-20T07:21:20.000Z</time>
      </trkpt>
      <trkpt lat="42.61773" lon="1.76416">
        <ele>2230.8000488281</ele>
        <time>2023-07-20T07:21:21.000Z</time>
      </trkpt>
      <trkpt lat="42.61775" lon="1.76412">
        <ele>2230</ele>
        <time>2023-07-20T07:21:28.000Z</time>
      </trkpt>
      <trkpt lat="42.61774" lon="1.76411">
        <ele>2229.8000488281</ele>
        <time>2023-07-20T07:21:30.000Z</time>
      </trkpt>
      <trkpt lat="42.61775" lon="1.76407">
        <ele>2229.1999511719</ele>
        <time>2023-07-20T07:21:36.000Z</time>
      </trkpt>
      <trkpt lat="42.61774" lon="1.76406">
        <ele>2228.6000976562</ele>
        <time>2023-07-20T07:21:40.000Z</time>
      </trkpt>
      <trkpt lat="42.61775" lon="1.76404">
        <ele>2227.8000488281</ele>
        <time>2023-07-20T07:21:45.000Z</time>
      </trkpt>
      <trkpt lat="42.61775" lon="1.76404">
        <ele>2227.6000976562</ele>
        <time>2023-07-20T07:21:47.000Z</time>
      </trkpt>
      <trkpt lat="42.61777" lon="1.76406">
        <ele>2226.8000488281</ele>
        <time>2023-07-20T07:21:52.000Z</time>
      </trkpt>
      <trkpt lat="42.6178" lon="1.76407">
        <ele>2226.8000488281</ele>
        <time>2023-07-20T07:22:00.000Z</time>
      </trkpt>
      <trkpt lat="42.61781" lon="1.76405">
        <ele>2226.3999023438</ele>
        <time>2023-07-20T07:22:05.000Z</time>
      </trkpt>
      <trkpt lat="42.61779" lon="1.76401">
        <ele>2226</ele>
        <time>2023-07-20T07:22:07.000Z</time>
      </trkpt>
      <trkpt lat="42.6178" lon="1.76399">
        <ele>2225.1999511719</ele>
        <time>2023-07-20T07:22:11.000Z</time>
      </trkpt>
      <trkpt lat="42.61781" lon="1.764">
        <ele>2224.8000488281</ele>
        <time>2023-07-20T07:22:13.000Z</time>
      </trkpt>
      <trkpt lat="42.61787" lon="1.76405">
        <ele>2224.1999511719</ele>
        <time>2023-07-20T07:22:19.000Z</time>
      </trkpt>
      <trkpt lat="42.6179" lon="1.76406">
        <ele>2223.8000488281</ele>
        <time>2023-07-20T07:22:22.000Z</time>
      </trkpt>
      <trkpt lat="42.61792" lon="1.76406">
        <ele>2223.1999511719</ele>
        <time>2023-07-20T07:22:27.000Z</time>
      </trkpt>
      <trkpt lat="42.61792" lon="1.76406">
        <ele>2222.8000488281</ele>
        <time>2023-07-20T07:22:30.000Z</time>
      </trkpt>
      <trkpt lat="42.61792" lon="1.76404">
        <ele>2222</ele>
        <time>2023-07-20T07:22:34.000Z</time>
      </trkpt>
      <trkpt lat="42.61792" lon="1.76401">
        <ele>2221.6000976562</ele>
        <time>2023-07-20T07:22:36.000Z</time>
      </trkpt>
      <trkpt lat="42.61793" lon="1.76399">
        <ele>2221</ele>
        <time>2023-07-20T07:22:42.000Z</time>
      </trkpt>
      <trkpt lat="42.61795" lon="1.76397">
        <ele>2221</ele>
        <time>2023-07-20T07:22:45.000Z</time>
      </trkpt>
      <trkpt lat="42.61797" lon="1.76397">
        <ele>2220.6000976562</ele>
        <time>2023-07-20T07:22:49.000Z</time>
      </trkpt>
      <trkpt lat="42.61797" lon="1.76397">
        <ele>2219.8000488281</ele>
        <time>2023-07-20T07:22:51.000Z</time>
      </trkpt>
      <trkpt lat="42.61797" lon="1.76399">
        <ele>2218.8000488281</ele>
        <time>2023-07-20T07:22:57.000Z</time>
      </trkpt>
      <trkpt lat="42.618" lon="1.76402">
        <ele>2218.3999023438</ele>
        <time>2023-07-20T07:23:01.000Z</time>
      </trkpt>
      <trkpt lat="42.61818" lon="1.76407">
        <ele>2213.1999511719</ele>
        <time>2023-07-20T07:23:32.000Z</time>
      </trkpt>
      <trkpt lat="42.61818" lon="1.76404">
        <ele>2212.1999511719</ele>
        <time>2023-07-20T07:23:36.000Z</time>
      </trkpt>
      <trkpt lat="42.61818" lon="1.76402">
        <ele>2211.8000488281</ele>
        <time>2023-07-20T07:23:40.000Z</time>
      </trkpt>
      <trkpt lat="42.6182" lon="1.76402">
        <ele>2211</ele>
        <time>2023-07-20T07:23:47.000Z</time>
      </trkpt>
      <trkpt lat="42.61821" lon="1.76402">
        <ele>2210.6000976562</ele>
        <time>2023-07-20T07:23:48.000Z</time>
      </trkpt>
      <trkpt lat="42.61821" lon="1.76401">
        <ele>2209.8000488281</ele>
        <time>2023-07-20T07:23:49.000Z</time>
      </trkpt>
      <trkpt lat="42.61824" lon="1.76402">
        <ele>2209</ele>
        <time>2023-07-20T07:23:55.000Z</time>
      </trkpt>
      <trkpt lat="42.61824" lon="1.76403">
        <ele>2208.8000488281</ele>
        <time>2023-07-20T07:23:56.000Z</time>
      </trkpt>
      <trkpt lat="42.61825" lon="1.76405">
        <ele>2208.1999511719</ele>
        <time>2023-07-20T07:24:03.000Z</time>
      </trkpt>
      <trkpt lat="42.61824" lon="1.7641">
        <ele>2207.8000488281</ele>
        <time>2023-07-20T07:24:10.000Z</time>
      </trkpt>
      <trkpt lat="42.61825" lon="1.76413">
        <ele>2207.8000488281</ele>
        <time>2023-07-20T07:24:14.000Z</time>
      </trkpt>
      <trkpt lat="42.61826" lon="1.76413">
        <ele>2207.3999023438</ele>
        <time>2023-07-20T07:24:18.000Z</time>
      </trkpt>
      <trkpt lat="42.6183" lon="1.7641">
        <ele>2207.3999023438</ele>
        <time>2023-07-20T07:24:24.000Z</time>
      </trkpt>
      <trkpt lat="42.61836" lon="1.76405">
        <ele>2207</ele>
        <time>2023-07-20T07:24:34.000Z</time>
      </trkpt>
      <trkpt lat="42.61839" lon="1.76402">
        <ele>2207.3999023438</ele>
        <time>2023-07-20T07:24:42.000Z</time>
      </trkpt>
      <trkpt lat="42.61845" lon="1.76397">
        <ele>2208</ele>
        <time>2023-07-20T07:24:47.000Z</time>
      </trkpt>
      <trkpt lat="42.61847" lon="1.76396">
        <ele>2209</ele>
        <time>2023-07-20T07:24:49.000Z</time>
      </trkpt>
      <trkpt lat="42.61852" lon="1.76394">
        <ele>2209.1999511719</ele>
        <time>2023-07-20T07:24:55.000Z</time>
      </trkpt>
      <trkpt lat="42.61859" lon="1.76391">
        <ele>2209.3999023438</ele>
        <time>2023-07-20T07:25:01.000Z</time>
      </trkpt>
      <trkpt lat="42.61861" lon="1.76387">
        <ele>2210</ele>
        <time>2023-07-20T07:25:06.000Z</time>
      </trkpt>
      <trkpt lat="42.61862" lon="1.76385">
        <ele>2210</ele>
        <time>2023-07-20T07:25:08.000Z</time>
      </trkpt>
      <trkpt lat="42.61869" lon="1.76372">
        <ele>2209.8000488281</ele>
        <time>2023-07-20T07:25:17.000Z</time>
      </trkpt>
      <trkpt lat="42.61871" lon="1.76364">
        <ele>2209</ele>
        <time>2023-07-20T07:25:24.000Z</time>
      </trkpt>
      <trkpt lat="42.61871" lon="1.76366">
        <ele>2208.6000976562</ele>
        <time>2023-07-20T07:25:31.000Z</time>
      </trkpt>
      <trkpt lat="42.61878" lon="1.76362">
        <ele>2208.3999023438</ele>
        <time>2023-07-20T07:25:38.000Z</time>
      </trkpt>
      <trkpt lat="42.61879" lon="1.7636">
        <ele>2207.8000488281</ele>
        <time>2023-07-20T07:25:41.000Z</time>
      </trkpt>
      <trkpt lat="42.6188" lon="1.7636">
        <ele>2207.8000488281</ele>
        <time>2023-07-20T07:25:44.000Z</time>
      </trkpt>
      <trkpt lat="42.61884" lon="1.76361">
        <ele>2207.8000488281</ele>
        <time>2023-07-20T07:25:51.000Z</time>
      </trkpt>
      <trkpt lat="42.61888" lon="1.76363">
        <ele>2206.8000488281</ele>
        <time>2023-07-20T07:25:57.000Z</time>
      </trkpt>
      <trkpt lat="42.61888" lon="1.76365">
        <ele>2206.6000976562</ele>
        <time>2023-07-20T07:25:58.000Z</time>
      </trkpt>
      <trkpt lat="42.61891" lon="1.76369">
        <ele>2205.8000488281</ele>
        <time>2023-07-20T07:26:04.000Z</time>
      </trkpt>
      <trkpt lat="42.61892" lon="1.7637">
        <ele>2205.8000488281</ele>
        <time>2023-07-20T07:26:06.000Z</time>
      </trkpt>
      <trkpt lat="42.61897" lon="1.76369">
        <ele>2205.1999511719</ele>
        <time>2023-07-20T07:26:11.000Z</time>
      </trkpt>
      <trkpt lat="42.61897" lon="1.76366">
        <ele>2205</ele>
        <time>2023-07-20T07:26:18.000Z</time>
      </trkpt>
      <trkpt lat="42.61901" lon="1.76366">
        <ele>2206.3999023438</ele>
        <time>2023-07-20T07:26:26.000Z</time>
      </trkpt>
      <trkpt lat="42.61904" lon="1.76366">
        <ele>2206.8000488281</ele>
        <time>2023-07-20T07:26:31.000Z</time>
      </trkpt>
      <trkpt lat="42.61907" lon="1.76366">
        <ele>2207.6000976562</ele>
        <time>2023-07-20T07:26:35.000Z</time>
      </trkpt>
      <trkpt lat="42.61908" lon="1.76365">
        <ele>2207.8000488281</ele>
        <time>2023-07-20T07:26:36.000Z</time>
      </trkpt>
      <trkpt lat="42.6191" lon="1.76364">
        <ele>2208.8000488281</ele>
        <time>2023-07-20T07:26:40.000Z</time>
      </trkpt>
      <trkpt lat="42.6191" lon="1.76364">
        <ele>2209.3999023438</ele>
        <time>2023-07-20T07:26:43.000Z</time>
      </trkpt>
      <trkpt lat="42.61908" lon="1.76364">
        <ele>2210</ele>
        <time>2023-07-20T07:26:48.000Z</time>
      </trkpt>
      <trkpt lat="42.61908" lon="1.76363">
        <ele>2210.1999511719</ele>
        <time>2023-07-20T07:26:50.000Z</time>
      </trkpt>
      <trkpt lat="42.6191" lon="1.76361">
        <ele>2211</ele>
        <time>2023-07-20T07:26:55.000Z</time>
      </trkpt>
      <trkpt lat="42.61911" lon="1.7636">
        <ele>2211.6000976562</ele>
        <time>2023-07-20T07:26:58.000Z</time>
      </trkpt>
      <trkpt lat="42.61913" lon="1.7636">
        <ele>2212</ele>
        <time>2023-07-20T07:27:02.000Z</time>
      </trkpt>
      <trkpt lat="42.61916" lon="1.76359">
        <ele>2212.3999023438</ele>
        <time>2023-07-20T07:27:05.000Z</time>
      </trkpt>
      <trkpt lat="42.61921" lon="1.76355">
        <ele>2213</ele>
        <time>2023-07-20T07:27:15.000Z</time>
      </trkpt>
      <trkpt lat="42.61924" lon="1.76353">
        <ele>2213.1999511719</ele>
        <time>2023-07-20T07:27:18.000Z</time>
      </trkpt>
      <trkpt lat="42.61927" lon="1.76353">
        <ele>2213.3999023438</ele>
        <time>2023-07-20T07:27:23.000Z</time>
      </trkpt>
      <trkpt lat="42.61934" lon="1.76349">
        <ele>2214.1999511719</ele>
        <time>2023-07-20T07:27:32.000Z</time>
      </trkpt>
      <trkpt lat="42.61934" lon="1.76349">
        <ele>2214.1999511719</ele>
        <time>2023-07-20T07:27:33.000Z</time>
      </trkpt>
      <trkpt lat="42.61942" lon="1.76344">
        <ele>2214.1999511719</ele>
        <time>2023-07-20T07:27:40.000Z</time>
      </trkpt>
      <trkpt lat="42.61945" lon="1.76335">
        <ele>2214.6000976562</ele>
        <time>2023-07-20T07:27:48.000Z</time>
      </trkpt>
      <trkpt lat="42.61947" lon="1.76325">
        <ele>2214.6000976562</ele>
        <time>2023-07-20T07:27:54.000Z</time>
      </trkpt>
      <trkpt lat="42.61951" lon="1.76316">
        <ele>2214.8000488281</ele>
        <time>2023-07-20T07:28:02.000Z</time>
      </trkpt>
      <trkpt lat="42.61954" lon="1.76309">
        <ele>2214.6000976562</ele>
        <time>2023-07-20T07:28:08.000Z</time>
      </trkpt>
      <trkpt lat="42.61958" lon="1.76303">
        <ele>2214.3999023438</ele>
        <time>2023-07-20T07:28:15.000Z</time>
      </trkpt>
      <trkpt lat="42.61963" lon="1.76294">
        <ele>2214</ele>
        <time>2023-07-20T07:28:22.000Z</time>
      </trkpt>
      <trkpt lat="42.61968" lon="1.76286">
        <ele>2213.6000976562</ele>
        <time>2023-07-20T07:28:29.000Z</time>
      </trkpt>
      <trkpt lat="42.61973" lon="1.7628">
        <ele>2213.8000488281</ele>
        <time>2023-07-20T07:28:38.000Z</time>
      </trkpt>
      <trkpt lat="42.61976" lon="1.76275">
        <ele>2213.8000488281</ele>
        <time>2023-07-20T07:28:46.000Z</time>
      </trkpt>
      <trkpt lat="42.61978" lon="1.76274">
        <ele>2213</ele>
        <time>2023-07-20T07:28:50.000Z</time>
      </trkpt>
      <trkpt lat="42.61979" lon="1.76274">
        <ele>2212.8000488281</ele>
        <time>2023-07-20T07:28:53.000Z</time>
      </trkpt>
      <trkpt lat="42.61985" lon="1.76272">
        <ele>2212.3999023438</ele>
        <time>2023-07-20T07:29:00.000Z</time>
      </trkpt>
      <trkpt lat="42.61994" lon="1.76273">
        <ele>2212.3999023438</ele>
        <time>2023-07-20T07:29:08.000Z</time>
      </trkpt>
      <trkpt lat="42.61997" lon="1.76276">
        <ele>2213.8000488281</ele>
        <time>2023-07-20T07:29:16.000Z</time>
      </trkpt>
      <trkpt lat="42.61998" lon="1.76276">
        <ele>2214</ele>
        <time>2023-07-20T07:29:17.000Z</time>
      </trkpt>
      <trkpt lat="42.61999" lon="1.76274">
        <ele>2215.1999511719</ele>
        <time>2023-07-20T07:29:24.000Z</time>
      </trkpt>
      <trkpt lat="42.62" lon="1.76274">
        <ele>2215.1999511719</ele>
        <time>2023-07-20T07:29:25.000Z</time>
      </trkpt>
      <trkpt lat="42.62001" lon="1.76273">
        <ele>2216.1999511719</ele>
        <time>2023-07-20T07:29:29.000Z</time>
      </trkpt>
      <trkpt lat="42.62002" lon="1.76272">
        <ele>2216.8000488281</ele>
        <time>2023-07-20T07:29:32.000Z</time>
      </trkpt>
      <trkpt lat="42.62002" lon="1.76272">
        <ele>2217.1999511719</ele>
        <time>2023-07-20T07:29:34.000Z</time>
      </trkpt>
      <trkpt lat="42.62001" lon="1.76274">
        <ele>2218.3999023438</ele>
        <time>2023-07-20T07:29:39.000Z</time>
      </trkpt>
      <trkpt lat="42.62001" lon="1.76276">
        <ele>2219.1999511719</ele>
        <time>2023-07-20T07:29:41.000Z</time>
      </trkpt>
      <trkpt lat="42.62" lon="1.76277">
        <ele>2219.6000976562</ele>
        <time>2023-07-20T07:29:45.000Z</time>
      </trkpt>
      <trkpt lat="42.62001" lon="1.76275">
        <ele>2219.8000488281</ele>
        <time>2023-07-20T07:29:51.000Z</time>
      </trkpt>
      <trkpt lat="42.62003" lon="1.76274">
        <ele>2220.3999023438</ele>
        <time>2023-07-20T07:29:58.000Z</time>
      </trkpt>
      <trkpt lat="42.62005" lon="1.76274">
        <ele>2220.6000976562</ele>
        <time>2023-07-20T07:30:01.000Z</time>
      </trkpt>
      <trkpt lat="42.62006" lon="1.76275">
        <ele>2221.3999023438</ele>
        <time>2023-07-20T07:30:06.000Z</time>
      </trkpt>
      <trkpt lat="42.62006" lon="1.76275">
        <ele>2221.8000488281</ele>
        <time>2023-07-20T07:30:09.000Z</time>
      </trkpt>
      <trkpt lat="42.62011" lon="1.76276">
        <ele>2222.8000488281</ele>
        <time>2023-07-20T07:30:16.000Z</time>
      </trkpt>
      <trkpt lat="42.62012" lon="1.76276">
        <ele>2223</ele>
        <time>2023-07-20T07:30:17.000Z</time>
      </trkpt>
      <trkpt lat="42.62014" lon="1.76275">
        <ele>2224</ele>
        <time>2023-07-20T07:30:25.000Z</time>
      </trkpt>
      <trkpt lat="42.62015" lon="1.76272">
        <ele>2225</ele>
        <time>2023-07-20T07:30:31.000Z</time>
      </trkpt>
      <trkpt lat="42.62015" lon="1.76271">
        <ele>2225.3999023438</ele>
        <time>2023-07-20T07:30:32.000Z</time>
      </trkpt>
      <trkpt lat="42.62018" lon="1.76269">
        <ele>2226.1999511719</ele>
        <time>2023-07-20T07:30:38.000Z</time>
      </trkpt>
      <trkpt lat="42.62019" lon="1.7627">
        <ele>2226.8000488281</ele>
        <time>2023-07-20T07:30:41.000Z</time>
      </trkpt>
      <trkpt lat="42.62022" lon="1.76272">
        <ele>2227.3999023438</ele>
        <time>2023-07-20T07:30:45.000Z</time>
      </trkpt>
      <trkpt lat="42.62021" lon="1.76272">
        <ele>2228</ele>
        <time>2023-07-20T07:30:50.000Z</time>
      </trkpt>
      <trkpt lat="42.62021" lon="1.76271">
        <ele>2228.6000976562</ele>
        <time>2023-07-20T07:30:52.000Z</time>
      </trkpt>
      <trkpt lat="42.62023" lon="1.76266">
        <ele>2229.1999511719</ele>
        <time>2023-07-20T07:30:59.000Z</time>
      </trkpt>
      <trkpt lat="42.62026" lon="1.76262">
        <ele>2229.3999023438</ele>
        <time>2023-07-20T07:31:07.000Z</time>
      </trkpt>
      <trkpt lat="42.62026" lon="1.76262">
        <ele>2229.6000976562</ele>
        <time>2023-07-20T07:31:08.000Z</time>
      </trkpt>
      <trkpt lat="42.62024" lon="1.76266">
        <ele>2229.8000488281</ele>
        <time>2023-07-20T07:31:16.000Z</time>
      </trkpt>
      <trkpt lat="42.62031" lon="1.76263">
        <ele>2229.1999511719</ele>
        <time>2023-07-20T07:31:24.000Z</time>
      </trkpt>
      <trkpt lat="42.62032" lon="1.76263">
        <ele>2230.3999023438</ele>
        <time>2023-07-20T07:31:30.000Z</time>
      </trkpt>
      <trkpt lat="42.62031" lon="1.76263">
        <ele>2230.6000976562</ele>
        <time>2023-07-20T07:31:31.000Z</time>
      </trkpt>
      <trkpt lat="42.62031" lon="1.76263">
        <ele>2231.3999023438</ele>
        <time>2023-07-20T07:31:36.000Z</time>
      </trkpt>
      <trkpt lat="42.62031" lon="1.76263">
        <ele>2231.8000488281</ele>
        <time>2023-07-20T07:31:38.000Z</time>
      </trkpt>
      <trkpt lat="42.62032" lon="1.76259">
        <ele>2232.3999023438</ele>
        <time>2023-07-20T07:31:43.000Z</time>
      </trkpt>
      <trkpt lat="42.62037" lon="1.76251">
        <ele>2232.8000488281</ele>
        <time>2023-07-20T07:31:52.000Z</time>
      </trkpt>
      <trkpt lat="42.62037" lon="1.7625">
        <ele>2233</ele>
        <time>2023-07-20T07:31:53.000Z</time>
      </trkpt>
      <trkpt lat="42.62039" lon="1.76249">
        <ele>2234</ele>
        <time>2023-07-20T07:31:58.000Z</time>
      </trkpt>
      <trkpt lat="42.6204" lon="1.76247">
        <ele>2234.1999511719</ele>
        <time>2023-07-20T07:32:01.000Z</time>
      </trkpt>
      <trkpt lat="42.62042" lon="1.76245">
        <ele>2234.3999023438</ele>
        <time>2023-07-20T07:32:08.000Z</time>
      </trkpt>
      <trkpt lat="42.62043" lon="1.76243">
        <ele>2235</ele>
        <time>2023-07-20T07:32:12.000Z</time>
      </trkpt>
      <trkpt lat="42.62045" lon="1.76241">
        <ele>2235.8000488281</ele>
        <time>2023-07-20T07:32:15.000Z</time>
      </trkpt>
      <trkpt lat="42.62047" lon="1.7624">
        <ele>2236</ele>
        <time>2023-07-20T07:32:17.000Z</time>
      </trkpt>
      <trkpt lat="42.62048" lon="1.76234">
        <ele>2236.3999023438</ele>
        <time>2023-07-20T07:32:23.000Z</time>
      </trkpt>
      <trkpt lat="42.62047" lon="1.76229">
        <ele>2237.1999511719</ele>
        <time>2023-07-20T07:32:29.000Z</time>
      </trkpt>
      <trkpt lat="42.62048" lon="1.76227">
        <ele>2237.1999511719</ele>
        <time>2023-07-20T07:32:32.000Z</time>
      </trkpt>
      <trkpt lat="42.62049" lon="1.76228">
        <ele>2237.6000976562</ele>
        <time>2023-07-20T07:32:38.000Z</time>
      </trkpt>
      <trkpt lat="42.62049" lon="1.76226">
        <ele>2238.1999511719</ele>
        <time>2023-07-20T07:32:41.000Z</time>
      </trkpt>
      <trkpt lat="42.62049" lon="1.76222">
        <ele>2239.1999511719</ele>
        <time>2023-07-20T07:32:47.000Z</time>
      </trkpt>
      <trkpt lat="42.62049" lon="1.76221">
        <ele>2239.3999023438</ele>
        <time>2023-07-20T07:32:48.000Z</time>
      </trkpt>
      <trkpt lat="42.6205" lon="1.76218">
        <ele>2240.1999511719</ele>
        <time>2023-07-20T07:32:56.000Z</time>
      </trkpt>
      <trkpt lat="42.6205" lon="1.76218">
        <ele>2240.3999023438</ele>
        <time>2023-07-20T07:32:57.000Z</time>
      </trkpt>
      <trkpt lat="42.62048" lon="1.76216">
        <ele>2241.3999023438</ele>
        <time>2023-07-20T07:33:03.000Z</time>
      </trkpt>
      <trkpt lat="42.62048" lon="1.76216">
        <ele>2241.3999023438</ele>
        <time>2023-07-20T07:33:05.000Z</time>
      </trkpt>
      <trkpt lat="42.62047" lon="1.76214">
        <ele>2241.3999023438</ele>
        <time>2023-07-20T07:33:13.000Z</time>
      </trkpt>
      <trkpt lat="42.62047" lon="1.76211">
        <ele>2241.6000976562</ele>
        <time>2023-07-20T07:33:19.000Z</time>
      </trkpt>
      <trkpt lat="42.62047" lon="1.76211">
        <ele>2242.3999023438</ele>
        <time>2023-07-20T07:33:24.000Z</time>
      </trkpt>
      <trkpt lat="42.62048" lon="1.76209">
        <ele>2243</ele>
        <time>2023-07-20T07:33:29.000Z</time>
      </trkpt>
      <trkpt lat="42.62047" lon="1.76211">
        <ele>2243.3999023438</ele>
        <time>2023-07-20T07:33:38.000Z</time>
      </trkpt>
      <trkpt lat="42.62045" lon="1.76203">
        <ele>2244.6000976562</ele>
        <time>2023-07-20T07:33:47.000Z</time>
      </trkpt>
      <trkpt lat="42.62045" lon="1.76203">
        <ele>2244.6000976562</ele>
        <time>2023-07-20T07:33:48.000Z</time>
      </trkpt>
      <trkpt lat="42.6205" lon="1.76206">
        <ele>2244.8000488281</ele>
        <time>2023-07-20T07:33:55.000Z</time>
      </trkpt>
      <trkpt lat="42.62052" lon="1.76208">
        <ele>2245.1999511719</ele>
        <time>2023-07-20T07:34:01.000Z</time>
      </trkpt>
      <trkpt lat="42.62049" lon="1.762">
        <ele>2245.3999023438</ele>
        <time>2023-07-20T07:34:11.000Z</time>
      </trkpt>
      <trkpt lat="42.62048" lon="1.76199">
        <ele>2245.8000488281</ele>
        <time>2023-07-20T07:34:13.000Z</time>
      </trkpt>
      <trkpt lat="42.62049" lon="1.76198">
        <ele>2246.8000488281</ele>
        <time>2023-07-20T07:34:19.000Z</time>
      </trkpt>
      <trkpt lat="42.62051" lon="1.76196">
        <ele>2247.8000488281</ele>
        <time>2023-07-20T07:34:25.000Z</time>
      </trkpt>
      <trkpt lat="42.62053" lon="1.76193">
        <ele>2248</ele>
        <time>2023-07-20T07:34:32.000Z</time>
      </trkpt>
      <trkpt lat="42.62055" lon="1.76192">
        <ele>2248.1999511719</ele>
        <time>2023-07-20T07:34:40.000Z</time>
      </trkpt>
      <trkpt lat="42.62053" lon="1.7619">
        <ele>2248.3999023438</ele>
        <time>2023-07-20T07:34:47.000Z</time>
      </trkpt>
      <trkpt lat="42.62055" lon="1.76195">
        <ele>2248.3999023438</ele>
        <time>2023-07-20T07:34:54.000Z</time>
      </trkpt>
      <trkpt lat="42.62059" lon="1.76194">
        <ele>2248.1999511719</ele>
        <time>2023-07-20T07:35:00.000Z</time>
      </trkpt>
      <trkpt lat="42.62056" lon="1.76192">
        <ele>2248</ele>
        <time>2023-07-20T07:35:07.000Z</time>
      </trkpt>
      <trkpt lat="42.62056" lon="1.76189">
        <ele>2247.6000976562</ele>
        <time>2023-07-20T07:35:14.000Z</time>
      </trkpt>
      <trkpt lat="42.62057" lon="1.76185">
        <ele>2247.8000488281</ele>
        <time>2023-07-20T07:35:22.000Z</time>
      </trkpt>
      <trkpt lat="42.62057" lon="1.76183">
        <ele>2247.1999511719</ele>
        <time>2023-07-20T07:35:32.000Z</time>
      </trkpt>
      <trkpt lat="42.62058" lon="1.76184">
        <ele>2246.8000488281</ele>
        <time>2023-07-20T07:35:35.000Z</time>
      </trkpt>
      <trkpt lat="42.6206" lon="1.76184">
        <ele>2246.1999511719</ele>
        <time>2023-07-20T07:35:39.000Z</time>
      </trkpt>
      <trkpt lat="42.62063" lon="1.76184">
        <ele>2245.8000488281</ele>
        <time>2023-07-20T07:35:45.000Z</time>
      </trkpt>
      <trkpt lat="42.62064" lon="1.76184">
        <ele>2245.8000488281</ele>
        <time>2023-07-20T07:35:46.000Z</time>
      </trkpt>
      <trkpt lat="42.62067" lon="1.76188">
        <ele>2245.6000976562</ele>
        <time>2023-07-20T07:35:52.000Z</time>
      </trkpt>
      <trkpt lat="42.62068" lon="1.7619">
        <ele>2245.6000976562</ele>
        <time>2023-07-20T07:35:58.000Z</time>
      </trkpt>
      <trkpt lat="42.62067" lon="1.76191">
        <ele>2245.6000976562</ele>
        <time>2023-07-20T07:36:07.000Z</time>
      </trkpt>
      <trkpt lat="42.62071" lon="1.76188">
        <ele>2245.6000976562</ele>
        <time>2023-07-20T07:36:14.000Z</time>
      </trkpt>
      <trkpt lat="42.62073" lon="1.76185">
        <ele>2246.8000488281</ele>
        <time>2023-07-20T07:36:21.000Z</time>
      </trkpt>
      <trkpt lat="42.62073" lon="1.76185">
        <ele>2247</ele>
        <time>2023-07-20T07:36:22.000Z</time>
      </trkpt>
      <trkpt lat="42.62074" lon="1.76181">
        <ele>2247.8000488281</ele>
        <time>2023-07-20T07:36:26.000Z</time>
      </trkpt>
      <trkpt lat="42.62075" lon="1.76178">
        <ele>2248.3999023438</ele>
        <time>2023-07-20T07:36:30.000Z</time>
      </trkpt>
      <trkpt lat="42.62075" lon="1.76176">
        <ele>2249.1999511719</ele>
        <time>2023-07-20T07:36:33.000Z</time>
      </trkpt>
      <trkpt lat="42.62075" lon="1.76175">
        <ele>2250.1999511719</ele>
        <time>2023-07-20T07:36:38.000Z</time>
      </trkpt>
      <trkpt lat="42.62075" lon="1.76175">
        <ele>2250.8000488281</ele>
        <time>2023-07-20T07:36:40.000Z</time>
      </trkpt>
      <trkpt lat="42.62075" lon="1.76175">
        <ele>2251.1999511719</ele>
        <time>2023-07-20T07:36:41.000Z</time>
      </trkpt>
      <trkpt lat="42.62075" lon="1.76176">
        <ele>2252.1999511719</ele>
        <time>2023-07-20T07:36:46.000Z</time>
      </trkpt>
      <trkpt lat="42.62076" lon="1.76176">
        <ele>2252.3999023438</ele>
        <time>2023-07-20T07:36:48.000Z</time>
      </trkpt>
      <trkpt lat="42.62079" lon="1.76178">
        <ele>2252.6000976562</ele>
        <time>2023-07-20T07:36:53.000Z</time>
      </trkpt>
      <trkpt lat="42.62078" lon="1.76182">
        <ele>2253.3999023438</ele>
        <time>2023-07-20T07:36:59.000Z</time>
      </trkpt>
      <trkpt lat="42.62078" lon="1.76182">
        <ele>2253.3999023438</ele>
        <time>2023-07-20T07:37:00.000Z</time>
      </trkpt>
      <trkpt lat="42.62078" lon="1.76184">
        <ele>2253</ele>
        <time>2023-07-20T07:37:08.000Z</time>
      </trkpt>
      <trkpt lat="42.62078" lon="1.76188">
        <ele>2252.1999511719</ele>
        <time>2023-07-20T07:37:11.000Z</time>
      </trkpt>
      <trkpt lat="42.62083" lon="1.76191">
        <ele>2251.1999511719</ele>
        <time>2023-07-20T07:37:16.000Z</time>
      </trkpt>
      <trkpt lat="42.62084" lon="1.76191">
        <ele>2251</ele>
        <time>2023-07-20T07:37:17.000Z</time>
      </trkpt>
      <trkpt lat="42.62087" lon="1.76188">
        <ele>2250.3999023438</ele>
        <time>2023-07-20T07:37:22.000Z</time>
      </trkpt>
      <trkpt lat="42.62088" lon="1.76188">
        <ele>2249.8000488281</ele>
        <time>2023-07-20T07:37:24.000Z</time>
      </trkpt>
      <trkpt lat="42.62091" lon="1.76185">
        <ele>2249.3999023438</ele>
        <time>2023-07-20T07:37:30.000Z</time>
      </trkpt>
      <trkpt lat="42.6209" lon="1.76184">
        <ele>2248.8000488281</ele>
        <time>2023-07-20T07:37:36.000Z</time>
      </trkpt>
      <trkpt lat="42.62092" lon="1.76183">
        <ele>2248.3999023438</ele>
        <time>2023-07-20T07:37:39.000Z</time>
      </trkpt>
      <trkpt lat="42.62095" lon="1.7618">
        <ele>2248.1999511719</ele>
        <time>2023-07-20T07:37:46.000Z</time>
      </trkpt>
      <trkpt lat="42.62097" lon="1.76176">
        <ele>2247.8000488281</ele>
        <time>2023-07-20T07:37:55.000Z</time>
      </trkpt>
      <trkpt lat="42.62097" lon="1.76175">
        <ele>2247.8000488281</ele>
        <time>2023-07-20T07:37:58.000Z</time>
      </trkpt>
      <trkpt lat="42.62098" lon="1.76174">
        <ele>2246.8000488281</ele>
        <time>2023-07-20T07:38:01.000Z</time>
      </trkpt>
      <trkpt lat="42.621" lon="1.76171">
        <ele>2246.3999023438</ele>
        <time>2023-07-20T07:38:04.000Z</time>
      </trkpt>
      <trkpt lat="42.62102" lon="1.76169">
        <ele>2245.6000976562</ele>
        <time>2023-07-20T07:38:07.000Z</time>
      </trkpt>
      <trkpt lat="42.62104" lon="1.76168">
        <ele>2244.3999023438</ele>
        <time>2023-07-20T07:38:10.000Z</time>
      </trkpt>
      <trkpt lat="42.62105" lon="1.76168">
        <ele>2243.8000488281</ele>
        <time>2023-07-20T07:38:12.000Z</time>
      </trkpt>
      <trkpt lat="42.62106" lon="1.76166">
        <ele>2243.1999511719</ele>
        <time>2023-07-20T07:38:15.000Z</time>
      </trkpt>
      <trkpt lat="42.62108" lon="1.76164">
        <ele>2242</ele>
        <time>2023-07-20T07:38:20.000Z</time>
      </trkpt>
      <trkpt lat="42.62107" lon="1.76162">
        <ele>2241.6000976562</ele>
        <time>2023-07-20T07:38:22.000Z</time>
      </trkpt>
      <trkpt lat="42.62108" lon="1.7616">
        <ele>2241</ele>
        <time>2023-07-20T07:38:27.000Z</time>
      </trkpt>
      <trkpt lat="42.62109" lon="1.76159">
        <ele>2240.1999511719</ele>
        <time>2023-07-20T07:38:30.000Z</time>
      </trkpt>
      <trkpt lat="42.6211" lon="1.7616">
        <ele>2240</ele>
        <time>2023-07-20T07:38:33.000Z</time>
      </trkpt>
      <trkpt lat="42.62113" lon="1.76161">
        <ele>2239</ele>
        <time>2023-07-20T07:38:37.000Z</time>
      </trkpt>
      <trkpt lat="42.62113" lon="1.76163">
        <ele>2238.8000488281</ele>
        <time>2023-07-20T07:38:38.000Z</time>
      </trkpt>
      <trkpt lat="42.62116" lon="1.76163">
        <ele>2238</ele>
        <time>2023-07-20T07:38:42.000Z</time>
      </trkpt>
      <trkpt lat="42.62117" lon="1.7616">
        <ele>2237.8000488281</ele>
        <time>2023-07-20T07:38:46.000Z</time>
      </trkpt>
      <trkpt lat="42.62118" lon="1.76156">
        <ele>2237.1999511719</ele>
        <time>2023-07-20T07:38:51.000Z</time>
      </trkpt>
      <trkpt lat="42.62121" lon="1.76153">
        <ele>2237.1999511719</ele>
        <time>2023-07-20T07:39:01.000Z</time>
      </trkpt>
      <trkpt lat="42.62123" lon="1.76151">
        <ele>2236.6000976562</ele>
        <time>2023-07-20T07:39:06.000Z</time>
      </trkpt>
      <trkpt lat="42.62126" lon="1.76149">
        <ele>2236.1999511719</ele>
        <time>2023-07-20T07:39:10.000Z</time>
      </trkpt>
      <trkpt lat="42.62128" lon="1.76145">
        <ele>2235.6000976562</ele>
        <time>2023-07-20T07:39:16.000Z</time>
      </trkpt>
      <trkpt lat="42.62128" lon="1.76144">
        <ele>2235.6000976562</ele>
        <time>2023-07-20T07:39:17.000Z</time>
      </trkpt>
      <trkpt lat="42.62131" lon="1.7614">
        <ele>2235</ele>
        <time>2023-07-20T07:39:27.000Z</time>
      </trkpt>
      <trkpt lat="42.62133" lon="1.7614">
        <ele>2234.6000976562</ele>
        <time>2023-07-20T07:39:31.000Z</time>
      </trkpt>
      <trkpt lat="42.62136" lon="1.76139">
        <ele>2234.1999511719</ele>
        <time>2023-07-20T07:39:35.000Z</time>
      </trkpt>
      <trkpt lat="42.62137" lon="1.76137">
        <ele>2233.3999023438</ele>
        <time>2023-07-20T07:39:43.000Z</time>
      </trkpt>
      <trkpt lat="42.6214" lon="1.76135">
        <ele>2232.8000488281</ele>
        <time>2023-07-20T07:39:52.000Z</time>
      </trkpt>
      <trkpt lat="42.62144" lon="1.76133">
        <ele>2232.3999023438</ele>
        <time>2023-07-20T07:40:00.000Z</time>
      </trkpt>
      <trkpt lat="42.62147" lon="1.76134">
        <ele>2232</ele>
        <time>2023-07-20T07:40:06.000Z</time>
      </trkpt>
      <trkpt lat="42.6215" lon="1.76132">
        <ele>2232</ele>
        <time>2023-07-20T07:40:14.000Z</time>
      </trkpt>
      <trkpt lat="42.62155" lon="1.7613">
        <ele>2232.1999511719</ele>
        <time>2023-07-20T07:40:21.000Z</time>
      </trkpt>
      <trkpt lat="42.62155" lon="1.76125">
        <ele>2232.3999023438</ele>
        <time>2023-07-20T07:40:28.000Z</time>
      </trkpt>
      <trkpt lat="42.62157" lon="1.76121">
        <ele>2232.6000976562</ele>
        <time>2023-07-20T07:40:36.000Z</time>
      </trkpt>
      <trkpt lat="42.62158" lon="1.76116">
        <ele>2233.3999023438</ele>
        <time>2023-07-20T07:40:41.000Z</time>
      </trkpt>
      <trkpt lat="42.62159" lon="1.76113">
        <ele>2233.6000976562</ele>
        <time>2023-07-20T07:40:44.000Z</time>
      </trkpt>
      <trkpt lat="42.62161" lon="1.76105">
        <ele>2233</ele>
        <time>2023-07-20T07:40:51.000Z</time>
      </trkpt>
      <trkpt lat="42.62163" lon="1.76102">
        <ele>2233.6000976562</ele>
        <time>2023-07-20T07:40:58.000Z</time>
      </trkpt>
      <trkpt lat="42.62164" lon="1.76098">
        <ele>2234.6000976562</ele>
        <time>2023-07-20T07:41:01.000Z</time>
      </trkpt>
      <trkpt lat="42.62164" lon="1.76096">
        <ele>2235.3999023438</ele>
        <time>2023-07-20T07:41:06.000Z</time>
      </trkpt>
      <trkpt lat="42.62165" lon="1.7609">
        <ele>2235.3999023438</ele>
        <time>2023-07-20T07:41:12.000Z</time>
      </trkpt>
      <trkpt lat="42.62166" lon="1.76084">
        <ele>2234.8000488281</ele>
        <time>2023-07-20T07:41:19.000Z</time>
      </trkpt>
      <trkpt lat="42.62168" lon="1.76077">
        <ele>2234.8000488281</ele>
        <time>2023-07-20T07:41:28.000Z</time>
      </trkpt>
      <trkpt lat="42.62168" lon="1.76068">
        <ele>2235.3999023438</ele>
        <time>2023-07-20T07:41:37.000Z</time>
      </trkpt>
      <trkpt lat="42.62169" lon="1.76062">
        <ele>2234.8000488281</ele>
        <time>2023-07-20T07:41:45.000Z</time>
      </trkpt>
      <trkpt lat="42.6217" lon="1.76053">
        <ele>2234.8000488281</ele>
        <time>2023-07-20T07:41:54.000Z</time>
      </trkpt>
      <trkpt lat="42.6217" lon="1.76043">
        <ele>2234.3999023438</ele>
        <time>2023-07-20T07:42:02.000Z</time>
      </trkpt>
      <trkpt lat="42.62171" lon="1.76038">
        <ele>2234.3999023438</ele>
        <time>2023-07-20T07:42:08.000Z</time>
      </trkpt>
      <trkpt lat="42.62172" lon="1.76035">
        <ele>2234.1999511719</ele>
        <time>2023-07-20T07:42:15.000Z</time>
      </trkpt>
      <trkpt lat="42.62173" lon="1.76031">
        <ele>2234.1999511719</ele>
        <time>2023-07-20T07:42:24.000Z</time>
      </trkpt>
      <trkpt lat="42.62174" lon="1.76022">
        <ele>2234.8000488281</ele>
        <time>2023-07-20T07:42:31.000Z</time>
      </trkpt>
      <trkpt lat="42.62178" lon="1.76017">
        <ele>2234.6000976562</ele>
        <time>2023-07-20T07:42:40.000Z</time>
      </trkpt>
      <trkpt lat="42.62181" lon="1.76015">
        <ele>2234.1999511719</ele>
        <time>2023-07-20T07:42:47.000Z</time>
      </trkpt>
      <trkpt lat="42.62181" lon="1.76012">
        <ele>2233.3999023438</ele>
        <time>2023-07-20T07:42:53.000Z</time>
      </trkpt>
      <trkpt lat="42.62183" lon="1.76009">
        <ele>2233.3999023438</ele>
        <time>2023-07-20T07:42:56.000Z</time>
      </trkpt>
      <trkpt lat="42.62187" lon="1.75998">
        <ele>2233.3999023438</ele>
        <time>2023-07-20T07:43:05.000Z</time>
      </trkpt>
      <trkpt lat="42.62191" lon="1.75988">
        <ele>2233.8000488281</ele>
        <time>2023-07-20T07:43:13.000Z</time>
      </trkpt>
      <trkpt lat="42.62193" lon="1.75981">
        <ele>2234</ele>
        <time>2023-07-20T07:43:20.000Z</time>
      </trkpt>
      <trkpt lat="42.62194" lon="1.75974">
        <ele>2234.1999511719</ele>
        <time>2023-07-20T07:43:27.000Z</time>
      </trkpt>
      <trkpt lat="42.622" lon="1.75965">
        <ele>2234.6000976562</ele>
        <time>2023-07-20T07:43:36.000Z</time>
      </trkpt>
      <trkpt lat="42.622" lon="1.75965">
        <ele>2234.6000976562</ele>
        <time>2023-07-20T07:43:37.000Z</time>
      </trkpt>
      <trkpt lat="42.62204" lon="1.75958">
        <ele>2234.6000976562</ele>
        <time>2023-07-20T07:43:45.000Z</time>
      </trkpt>
      <trkpt lat="42.62208" lon="1.75947">
        <ele>2235.3999023438</ele>
        <time>2023-07-20T07:43:53.000Z</time>
      </trkpt>
      <trkpt lat="42.62208" lon="1.75946">
        <ele>2235.6000976562</ele>
        <time>2023-07-20T07:43:54.000Z</time>
      </trkpt>
      <trkpt lat="42.62212" lon="1.75937">
        <ele>2235.3999023438</ele>
        <time>2023-07-20T07:44:02.000Z</time>
      </trkpt>
      <trkpt lat="42.62217" lon="1.75928">
        <ele>2235.1999511719</ele>
        <time>2023-07-20T07:44:11.000Z</time>
      </trkpt>
      <trkpt lat="42.62221" lon="1.75917">
        <ele>2235.3999023438</ele>
        <time>2023-07-20T07:44:19.000Z</time>
      </trkpt>
      <trkpt lat="42.62222" lon="1.75909">
        <ele>2235.1999511719</ele>
        <time>2023-07-20T07:44:26.000Z</time>
      </trkpt>
      <trkpt lat="42.62224" lon="1.75899">
        <ele>2235.3999023438</ele>
        <time>2023-07-20T07:44:33.000Z</time>
      </trkpt>
      <trkpt lat="42.62227" lon="1.7589">
        <ele>2234.8000488281</ele>
        <time>2023-07-20T07:44:41.000Z</time>
      </trkpt>
      <trkpt lat="42.62231" lon="1.75879">
        <ele>2234.8000488281</ele>
        <time>2023-07-20T07:44:48.000Z</time>
      </trkpt>
      <trkpt lat="42.6223" lon="1.75878">
        <ele>2234.6000976562</ele>
        <time>2023-07-20T07:44:55.000Z</time>
      </trkpt>
      <trkpt lat="42.62232" lon="1.75873">
        <ele>2235.1999511719</ele>
        <time>2023-07-20T07:45:04.000Z</time>
      </trkpt>
      <trkpt lat="42.62233" lon="1.75867">
        <ele>2235</ele>
        <time>2023-07-20T07:45:11.000Z</time>
      </trkpt>
      <trkpt lat="42.62233" lon="1.75859">
        <ele>2235</ele>
        <time>2023-07-20T07:45:19.000Z</time>
      </trkpt>
      <trkpt lat="42.62237" lon="1.75849">
        <ele>2234.8000488281</ele>
        <time>2023-07-20T07:45:29.000Z</time>
      </trkpt>
      <trkpt lat="42.62238" lon="1.75847">
        <ele>2234.8000488281</ele>
        <time>2023-07-20T07:45:36.000Z</time>
      </trkpt>
      <trkpt lat="42.62238" lon="1.75848">
        <ele>2234.6000976562</ele>
        <time>2023-07-20T07:45:37.000Z</time>
      </trkpt>
      <trkpt lat="42.62237" lon="1.75848">
        <ele>2234.3999023438</ele>
        <time>2023-07-20T07:45:38.000Z</time>
      </trkpt>
      <trkpt lat="42.62237" lon="1.75847">
        <ele>2234.1999511719</ele>
        <time>2023-07-20T07:45:40.000Z</time>
      </trkpt>
      <trkpt lat="42.62236" lon="1.75847">
        <ele>2234</ele>
        <time>2023-07-20T07:45:43.000Z</time>
      </trkpt>
      <trkpt lat="42.6224" lon="1.75848">
        <ele>2233.8000488281</ele>
        <time>2023-07-20T07:45:51.000Z</time>
      </trkpt>
      <trkpt lat="42.62235" lon="1.75843">
        <ele>2233.6000976562</ele>
        <time>2023-07-20T07:45:58.000Z</time>
      </trkpt>
      <trkpt lat="42.62235" lon="1.75841">
        <ele>2233.3999023438</ele>
        <time>2023-07-20T07:46:04.000Z</time>
      </trkpt>
      <trkpt lat="42.62235" lon="1.75839">
        <ele>2233.1999511719</ele>
        <time>2023-07-20T07:46:06.000Z</time>
      </trkpt>
      <trkpt lat="42.62236" lon="1.75835">
        <ele>2232.8000488281</ele>
        <time>2023-07-20T07:46:11.000Z</time>
      </trkpt>
      <trkpt lat="42.62235" lon="1.75836">
        <ele>2232.8000488281</ele>
        <time>2023-07-20T07:46:21.000Z</time>
      </trkpt>
      <trkpt lat="42.62235" lon="1.75835">
        <ele>2233.1999511719</ele>
        <time>2023-07-20T07:46:28.000Z</time>
      </trkpt>
      <trkpt lat="42.62235" lon="1.75842">
        <ele>2233</ele>
        <time>2023-07-20T07:46:35.000Z</time>
      </trkpt>
      <trkpt lat="42.62238" lon="1.7584">
        <ele>2233.8000488281</ele>
        <time>2023-07-20T07:46:41.000Z</time>
      </trkpt>
      <trkpt lat="42.62245" lon="1.75836">
        <ele>2234</ele>
        <time>2023-07-20T07:46:49.000Z</time>
      </trkpt>
      <trkpt lat="42.62249" lon="1.75833">
        <ele>2234.1999511719</ele>
        <time>2023-07-20T07:46:52.000Z</time>
      </trkpt>
      <trkpt lat="42.62251" lon="1.75829">
        <ele>2234.3999023438</ele>
        <time>2023-07-20T07:46:57.000Z</time>
      </trkpt>
      <trkpt lat="42.62253" lon="1.75824">
        <ele>2234.3999023438</ele>
        <time>2023-07-20T07:47:03.000Z</time>
      </trkpt>
      <trkpt lat="42.62256" lon="1.75818">
        <ele>2234.3999023438</ele>
        <time>2023-07-20T07:47:09.000Z</time>
      </trkpt>
      <trkpt lat="42.62262" lon="1.75813">
        <ele>2234.3999023438</ele>
        <time>2023-07-20T07:47:16.000Z</time>
      </trkpt>
      <trkpt lat="42.62265" lon="1.75811">
        <ele>2234.1999511719</ele>
        <time>2023-07-20T07:47:22.000Z</time>
      </trkpt>
      <trkpt lat="42.62265" lon="1.75811">
        <ele>2234.1999511719</ele>
        <time>2023-07-20T07:47:23.000Z</time>
      </trkpt>
      <trkpt lat="42.62265" lon="1.75812">
        <ele>2234</ele>
        <time>2023-07-20T07:47:32.000Z</time>
      </trkpt>
      <trkpt lat="42.62266" lon="1.75814">
        <ele>2234</ele>
        <time>2023-07-20T07:47:41.000Z</time>
      </trkpt>
      <trkpt lat="42.62267" lon="1.75811">
        <ele>2234</ele>
        <time>2023-07-20T07:47:49.000Z</time>
      </trkpt>
      <trkpt lat="42.62266" lon="1.75814">
        <ele>2234.1999511719</ele>
        <time>2023-07-20T07:47:56.000Z</time>
      </trkpt>
      <trkpt lat="42.62265" lon="1.7581">
        <ele>2234.1999511719</ele>
        <time>2023-07-20T07:48:03.000Z</time>
      </trkpt>
      <trkpt lat="42.62264" lon="1.75813">
        <ele>2234.3999023438</ele>
        <time>2023-07-20T07:48:10.000Z</time>
      </trkpt>
      <trkpt lat="42.62267" lon="1.75812">
        <ele>2234.3999023438</ele>
        <time>2023-07-20T07:48:19.000Z</time>
      </trkpt>
      <trkpt lat="42.62266" lon="1.75812">
        <ele>2234.1999511719</ele>
        <time>2023-07-20T07:48:27.000Z</time>
      </trkpt>
      <trkpt lat="42.62264" lon="1.7582">
        <ele>2234.6000976562</ele>
        <time>2023-07-20T07:48:36.000Z</time>
      </trkpt>
      <trkpt lat="42.62267" lon="1.75817">
        <ele>2234.6000976562</ele>
        <time>2023-07-20T07:48:44.000Z</time>
      </trkpt>
      <trkpt lat="42.62267" lon="1.75814">
        <ele>2234.3999023438</ele>
        <time>2023-07-20T07:48:53.000Z</time>
      </trkpt>
      <trkpt lat="42.62266" lon="1.75814">
        <ele>2233.6000976562</ele>
        <time>2023-07-20T07:49:05.000Z</time>
      </trkpt>
      <trkpt lat="42.62267" lon="1.75814">
        <ele>2233.6000976562</ele>
        <time>2023-07-20T07:49:13.000Z</time>
      </trkpt>
      <trkpt lat="42.62267" lon="1.75816">
        <ele>2233.3999023438</ele>
        <time>2023-07-20T07:49:21.000Z</time>
      </trkpt>
      <trkpt lat="42.62266" lon="1.75816">
        <ele>2233.1999511719</ele>
        <time>2023-07-20T07:49:25.000Z</time>
      </trkpt>
      <trkpt lat="42.62265" lon="1.75816">
        <ele>2233</ele>
        <time>2023-07-20T07:49:29.000Z</time>
      </trkpt>
      <trkpt lat="42.62264" lon="1.75813">
        <ele>2233.3999023438</ele>
        <time>2023-07-20T07:49:38.000Z</time>
      </trkpt>
      <trkpt lat="42.62265" lon="1.75815">
        <ele>2233.3999023438</ele>
        <time>2023-07-20T07:49:42.000Z</time>
      </trkpt>
      <trkpt lat="42.62265" lon="1.75815">
        <ele>2233.1999511719</ele>
        <time>2023-07-20T07:49:50.000Z</time>
      </trkpt>
      <trkpt lat="42.62264" lon="1.75816">
        <ele>2233.1999511719</ele>
        <time>2023-07-20T07:49:56.000Z</time>
      </trkpt>
      <trkpt lat="42.62264" lon="1.75819">
        <ele>2233.1999511719</ele>
        <time>2023-07-20T07:50:04.000Z</time>
      </trkpt>
      <trkpt lat="42.62267" lon="1.75822">
        <ele>2232.8000488281</ele>
        <time>2023-07-20T07:50:12.000Z</time>
      </trkpt>
      <trkpt lat="42.62269" lon="1.7582">
        <ele>2232.8000488281</ele>
        <time>2023-07-20T07:50:18.000Z</time>
      </trkpt>
      <trkpt lat="42.62266" lon="1.75816">
        <ele>2232.6000976562</ele>
        <time>2023-07-20T07:50:25.000Z</time>
      </trkpt>
      <trkpt lat="42.62264" lon="1.75812">
        <ele>2232.1999511719</ele>
        <time>2023-07-20T07:50:31.000Z</time>
      </trkpt>
      <trkpt lat="42.62263" lon="1.75812">
        <ele>2232</ele>
        <time>2023-07-20T07:50:33.000Z</time>
      </trkpt>
      <trkpt lat="42.62262" lon="1.75811">
        <ele>2232</ele>
        <time>2023-07-20T07:50:41.000Z</time>
      </trkpt>
      <trkpt lat="42.62265" lon="1.75811">
        <ele>2232</ele>
        <time>2023-07-20T07:50:50.000Z</time>
      </trkpt>
      <trkpt lat="42.62266" lon="1.75812">
        <ele>2231.3999023438</ele>
        <time>2023-07-20T07:50:58.000Z</time>
      </trkpt>
      <trkpt lat="42.62263" lon="1.75807">
        <ele>2231.3999023438</ele>
        <time>2023-07-20T07:51:07.000Z</time>
      </trkpt>
      <trkpt lat="42.62263" lon="1.75812">
        <ele>2231.3999023438</ele>
        <time>2023-07-20T07:51:14.000Z</time>
      </trkpt>
      <trkpt lat="42.62263" lon="1.7581">
        <ele>2231.6000976562</ele>
        <time>2023-07-20T07:51:21.000Z</time>
      </trkpt>
      <trkpt lat="42.62265" lon="1.75805">
        <ele>2232</ele>
        <time>2023-07-20T07:51:29.000Z</time>
      </trkpt>
      <trkpt lat="42.6227" lon="1.75801">
        <ele>2232.3999023438</ele>
        <time>2023-07-20T07:51:37.000Z</time>
      </trkpt>
      <trkpt lat="42.62276" lon="1.75795">
        <ele>2231.3999023438</ele>
        <time>2023-07-20T07:51:45.000Z</time>
      </trkpt>
      <trkpt lat="42.62278" lon="1.75791">
        <ele>2231.1999511719</ele>
        <time>2023-07-20T07:51:52.000Z</time>
      </trkpt>
      <trkpt lat="42.62279" lon="1.75792">
        <ele>2232</ele>
        <time>2023-07-20T07:52:00.000Z</time>
      </trkpt>
      <trkpt lat="42.62281" lon="1.7579">
        <ele>2231</ele>
        <time>2023-07-20T07:52:08.000Z</time>
      </trkpt>
      <trkpt lat="42.62282" lon="1.75784">
        <ele>2230.1999511719</ele>
        <time>2023-07-20T07:52:14.000Z</time>
      </trkpt>
      <trkpt lat="42.62282" lon="1.75784">
        <ele>2230</ele>
        <time>2023-07-20T07:52:15.000Z</time>
      </trkpt>
      <trkpt lat="42.62286" lon="1.75782">
        <ele>2229.3999023438</ele>
        <time>2023-07-20T07:52:23.000Z</time>
      </trkpt>
      <trkpt lat="42.62286" lon="1.75779">
        <ele>2229.3999023438</ele>
        <time>2023-07-20T07:52:29.000Z</time>
      </trkpt>
      <trkpt lat="42.62289" lon="1.75775">
        <ele>2228.8000488281</ele>
        <time>2023-07-20T07:52:33.000Z</time>
      </trkpt>
      <trkpt lat="42.6229" lon="1.75773">
        <ele>2228.8000488281</ele>
        <time>2023-07-20T07:52:35.000Z</time>
      </trkpt>
      <trkpt lat="42.62294" lon="1.75765">
        <ele>2229.6000976562</ele>
        <time>2023-07-20T07:52:44.000Z</time>
      </trkpt>
      <trkpt lat="42.62301" lon="1.75755">
        <ele>2229.8000488281</ele>
        <time>2023-07-20T07:52:55.000Z</time>
      </trkpt>
      <trkpt lat="42.62301" lon="1.75754">
        <ele>2230</ele>
        <time>2023-07-20T07:52:57.000Z</time>
      </trkpt>
      <trkpt lat="42.62303" lon="1.75754">
        <ele>2229.8000488281</ele>
        <time>2023-07-20T07:53:02.000Z</time>
      </trkpt>
      <trkpt lat="42.62304" lon="1.75748">
        <ele>2230.1999511719</ele>
        <time>2023-07-20T07:53:09.000Z</time>
      </trkpt>
      <trkpt lat="42.62306" lon="1.75742">
        <ele>2230.1999511719</ele>
        <time>2023-07-20T07:53:13.000Z</time>
      </trkpt>
      <trkpt lat="42.62305" lon="1.7574">
        <ele>2229.8000488281</ele>
        <time>2023-07-20T07:53:21.000Z</time>
      </trkpt>
      <trkpt lat="42.62308" lon="1.75736">
        <ele>2229.8000488281</ele>
        <time>2023-07-20T07:53:28.000Z</time>
      </trkpt>
      <trkpt lat="42.62312" lon="1.7573">
        <ele>2230</ele>
        <time>2023-07-20T07:53:37.000Z</time>
      </trkpt>
      <trkpt lat="42.62313" lon="1.75726">
        <ele>2230</ele>
        <time>2023-07-20T07:53:44.000Z</time>
      </trkpt>
      <trkpt lat="42.62316" lon="1.75723">
        <ele>2230.1999511719</ele>
        <time>2023-07-20T07:53:51.000Z</time>
      </trkpt>
      <trkpt lat="42.62314" lon="1.7572">
        <ele>2230.1999511719</ele>
        <time>2023-07-20T07:53:57.000Z</time>
      </trkpt>
      <trkpt lat="42.62312" lon="1.75714">
        <ele>2230.3999023438</ele>
        <time>2023-07-20T07:54:04.000Z</time>
      </trkpt>
      <trkpt lat="42.62313" lon="1.7571">
        <ele>2231</ele>
        <time>2023-07-20T07:54:11.000Z</time>
      </trkpt>
      <trkpt lat="42.62313" lon="1.7571">
        <ele>2231</ele>
        <time>2023-07-20T07:54:12.000Z</time>
      </trkpt>
      <trkpt lat="42.62313" lon="1.75706">
        <ele>2231.1999511719</ele>
        <time>2023-07-20T07:54:18.000Z</time>
      </trkpt>
      <trkpt lat="42.62315" lon="1.75703">
        <ele>2231.3999023438</ele>
        <time>2023-07-20T07:54:26.000Z</time>
      </trkpt>
      <trkpt lat="42.62316" lon="1.75702">
        <ele>2231.8000488281</ele>
        <time>2023-07-20T07:54:34.000Z</time>
      </trkpt>
      <trkpt lat="42.62316" lon="1.75695">
        <ele>2231.3999023438</ele>
        <time>2023-07-20T07:54:43.000Z</time>
      </trkpt>
      <trkpt lat="42.62316" lon="1.7569">
        <ele>2231.1999511719</ele>
        <time>2023-07-20T07:54:49.000Z</time>
      </trkpt>
      <trkpt lat="42.62316" lon="1.7568">
        <ele>2231.3999023438</ele>
        <time>2023-07-20T07:54:56.000Z</time>
      </trkpt>
      <trkpt lat="42.62316" lon="1.75674">
        <ele>2231.1999511719</ele>
        <time>2023-07-20T07:55:02.000Z</time>
      </trkpt>
      <trkpt lat="42.62317" lon="1.75668">
        <ele>2231.6000976562</ele>
        <time>2023-07-20T07:55:09.000Z</time>
      </trkpt>
      <trkpt lat="42.62317" lon="1.75664">
        <ele>2231.6000976562</ele>
        <time>2023-07-20T07:55:16.000Z</time>
      </trkpt>
      <trkpt lat="42.62319" lon="1.75658">
        <ele>2231.8000488281</ele>
        <time>2023-07-20T07:55:25.000Z</time>
      </trkpt>
      <trkpt lat="42.62319" lon="1.75653">
        <ele>2232</ele>
        <time>2023-07-20T07:55:29.000Z</time>
      </trkpt>
      <trkpt lat="42.62319" lon="1.75652">
        <ele>2232</ele>
        <time>2023-07-20T07:55:32.000Z</time>
      </trkpt>
      <trkpt lat="42.62322" lon="1.75644">
        <ele>2232</ele>
        <time>2023-07-20T07:55:41.000Z</time>
      </trkpt>
      <trkpt lat="42.62324" lon="1.75642">
        <ele>2232.3999023438</ele>
        <time>2023-07-20T07:55:48.000Z</time>
      </trkpt>
      <trkpt lat="42.62325" lon="1.7564">
        <ele>2232.6000976562</ele>
        <time>2023-07-20T07:55:55.000Z</time>
      </trkpt>
      <trkpt lat="42.62326" lon="1.75637">
        <ele>2233</ele>
        <time>2023-07-20T07:56:02.000Z</time>
      </trkpt>
      <trkpt lat="42.62327" lon="1.75637">
        <ele>2233</ele>
        <time>2023-07-20T07:56:11.000Z</time>
      </trkpt>
      <trkpt lat="42.62326" lon="1.75636">
        <ele>2233.6000976562</ele>
        <time>2023-07-20T07:56:18.000Z</time>
      </trkpt>
      <trkpt lat="42.62325" lon="1.75631">
        <ele>2233.1999511719</ele>
        <time>2023-07-20T07:56:27.000Z</time>
      </trkpt>
      <trkpt lat="42.62327" lon="1.75632">
        <ele>2233.1999511719</ele>
        <time>2023-07-20T07:56:32.000Z</time>
      </trkpt>
      <trkpt lat="42.62327" lon="1.75633">
        <ele>2233.3999023438</ele>
        <time>2023-07-20T07:56:40.000Z</time>
      </trkpt>
      <trkpt lat="42.62325" lon="1.75633">
        <ele>2233</ele>
        <time>2023-07-20T07:56:48.000Z</time>
      </trkpt>
      <trkpt lat="42.62323" lon="1.75634">
        <ele>2233</ele>
        <time>2023-07-20T07:56:56.000Z</time>
      </trkpt>
      <trkpt lat="42.62329" lon="1.75637">
        <ele>2233.1999511719</ele>
        <time>2023-07-20T07:57:00.000Z</time>
      </trkpt>
      <trkpt lat="42.6233" lon="1.75634">
        <ele>2232</ele>
        <time>2023-07-20T07:57:10.000Z</time>
      </trkpt>
      <trkpt lat="42.62329" lon="1.75634">
        <ele>2232</ele>
        <time>2023-07-20T07:57:11.000Z</time>
      </trkpt>
      <trkpt lat="42.62328" lon="1.75634">
        <ele>2231.3999023438</ele>
        <time>2023-07-20T07:57:16.000Z</time>
      </trkpt>
      <trkpt lat="42.62325" lon="1.75634">
        <ele>2231</ele>
        <time>2023-07-20T07:57:20.000Z</time>
      </trkpt>
      <trkpt lat="42.62325" lon="1.75639">
        <ele>2231</ele>
        <time>2023-07-20T07:57:23.000Z</time>
      </trkpt>
      <trkpt lat="42.62321" lon="1.75643">
        <ele>2231.6000976562</ele>
        <time>2023-07-20T07:57:31.000Z</time>
      </trkpt>
      <trkpt lat="42.62323" lon="1.75644">
        <ele>2232</ele>
        <time>2023-07-20T07:57:40.000Z</time>
      </trkpt>
      <trkpt lat="42.62324" lon="1.75645">
        <ele>2232.6000976562</ele>
        <time>2023-07-20T07:57:49.000Z</time>
      </trkpt>
      <trkpt lat="42.62325" lon="1.75645">
        <ele>2233.1999511719</ele>
        <time>2023-07-20T07:57:52.000Z</time>
      </trkpt>
      <trkpt lat="42.62327" lon="1.75644">
        <ele>2234</ele>
        <time>2023-07-20T07:57:56.000Z</time>
      </trkpt>
      <trkpt lat="42.62326" lon="1.75643">
        <ele>2234.1999511719</ele>
        <time>2023-07-20T07:57:57.000Z</time>
      </trkpt>
      <trkpt lat="42.62326" lon="1.75639">
        <ele>2234.1999511719</ele>
        <time>2023-07-20T07:58:04.000Z</time>
      </trkpt>
      <trkpt lat="42.62327" lon="1.75638">
        <ele>2234.8000488281</ele>
        <time>2023-07-20T07:58:12.000Z</time>
      </trkpt>
      <trkpt lat="42.62328" lon="1.75637">
        <ele>2235.3999023438</ele>
        <time>2023-07-20T07:58:14.000Z</time>
      </trkpt>
      <trkpt lat="42.62329" lon="1.75638">
        <ele>2235.8000488281</ele>
        <time>2023-07-20T07:58:19.000Z</time>
      </trkpt>
      <trkpt lat="42.62332" lon="1.75638">
        <ele>2236</ele>
        <time>2023-07-20T07:58:28.000Z</time>
      </trkpt>
      <trkpt lat="42.62333" lon="1.75637">
        <ele>2236.3999023438</ele>
        <time>2023-07-20T07:58:32.000Z</time>
      </trkpt>
      <trkpt lat="42.62334" lon="1.75635">
        <ele>2237</ele>
        <time>2023-07-20T07:58:35.000Z</time>
      </trkpt>
      <trkpt lat="42.62336" lon="1.75632">
        <ele>2237.1999511719</ele>
        <time>2023-07-20T07:58:42.000Z</time>
      </trkpt>
      <trkpt lat="42.62336" lon="1.75632">
        <ele>2237.3999023438</ele>
        <time>2023-07-20T07:58:44.000Z</time>
      </trkpt>
      <trkpt lat="42.62335" lon="1.7563">
        <ele>2238.3999023438</ele>
        <time>2023-07-20T07:58:48.000Z</time>
      </trkpt>
      <trkpt lat="42.62335" lon="1.75629">
        <ele>2238.6000976562</ele>
        <time>2023-07-20T07:58:50.000Z</time>
      </trkpt>
      <trkpt lat="42.62336" lon="1.75624">
        <ele>2239.1999511719</ele>
        <time>2023-07-20T07:58:56.000Z</time>
      </trkpt>
      <trkpt lat="42.62336" lon="1.75622">
        <ele>2239.8000488281</ele>
        <time>2023-07-20T07:59:00.000Z</time>
      </trkpt>
      <trkpt lat="42.62336" lon="1.7562">
        <ele>2240.3999023438</ele>
        <time>2023-07-20T07:59:05.000Z</time>
      </trkpt>
      <trkpt lat="42.62338" lon="1.75618">
        <ele>2240.8000488281</ele>
        <time>2023-07-20T07:59:13.000Z</time>
      </trkpt>
      <trkpt lat="42.6234" lon="1.75609">
        <ele>2241.8000488281</ele>
        <time>2023-07-20T07:59:23.000Z</time>
      </trkpt>
      <trkpt lat="42.6234" lon="1.75608">
        <ele>2242</ele>
        <time>2023-07-20T07:59:24.000Z</time>
      </trkpt>
      <trkpt lat="42.6234" lon="1.75608">
        <ele>2242</ele>
        <time>2023-07-20T07:59:31.000Z</time>
      </trkpt>
      <trkpt lat="42.62341" lon="1.75603">
        <ele>2242</ele>
        <time>2023-07-20T07:59:40.000Z</time>
      </trkpt>
      <trkpt lat="42.62341" lon="1.756">
        <ele>2242.3999023438</ele>
        <time>2023-07-20T07:59:47.000Z</time>
      </trkpt>
      <trkpt lat="42.6234" lon="1.75605">
        <ele>2242.1999511719</ele>
        <time>2023-07-20T07:59:51.000Z</time>
      </trkpt>
      <trkpt lat="42.62341" lon="1.75606">
        <ele>2242.1999511719</ele>
        <time>2023-07-20T07:59:53.000Z</time>
      </trkpt>
      <trkpt lat="42.62342" lon="1.75606">
        <ele>2242</ele>
        <time>2023-07-20T07:59:58.000Z</time>
      </trkpt>
      <trkpt lat="42.62341" lon="1.75602">
        <ele>2241.8000488281</ele>
        <time>2023-07-20T08:00:09.000Z</time>
      </trkpt>
      <trkpt lat="42.62343" lon="1.75597">
        <ele>2241.6000976562</ele>
        <time>2023-07-20T08:00:16.000Z</time>
      </trkpt>
      <trkpt lat="42.62346" lon="1.75595">
        <ele>2242.1999511719</ele>
        <time>2023-07-20T08:00:23.000Z</time>
      </trkpt>
      <trkpt lat="42.62348" lon="1.75593">
        <ele>2243.1999511719</ele>
        <time>2023-07-20T08:00:27.000Z</time>
      </trkpt>
      <trkpt lat="42.62349" lon="1.75591">
        <ele>2244</ele>
        <time>2023-07-20T08:00:31.000Z</time>
      </trkpt>
      <trkpt lat="42.6235" lon="1.75591">
        <ele>2244.1999511719</ele>
        <time>2023-07-20T08:00:34.000Z</time>
      </trkpt>
      <trkpt lat="42.62351" lon="1.75589">
        <ele>2245</ele>
        <time>2023-07-20T08:00:39.000Z</time>
      </trkpt>
      <trkpt lat="42.62352" lon="1.7559">
        <ele>2245.1999511719</ele>
        <time>2023-07-20T08:00:41.000Z</time>
      </trkpt>
      <trkpt lat="42.62352" lon="1.7559">
        <ele>2245.3999023438</ele>
        <time>2023-07-20T08:00:44.000Z</time>
      </trkpt>
      <trkpt lat="42.62352" lon="1.75588">
        <ele>2245.6000976562</ele>
        <time>2023-07-20T08:00:51.000Z</time>
      </trkpt>
      <trkpt lat="42.62354" lon="1.75588">
        <ele>2246.1999511719</ele>
        <time>2023-07-20T08:00:58.000Z</time>
      </trkpt>
      <trkpt lat="42.62354" lon="1.75588">
        <ele>2246.3999023438</ele>
        <time>2023-07-20T08:00:59.000Z</time>
      </trkpt>
      <trkpt lat="42.62355" lon="1.75584">
        <ele>2246.3999023438</ele>
        <time>2023-07-20T08:01:05.000Z</time>
      </trkpt>
      <trkpt lat="42.62358" lon="1.75578">
        <ele>2245</ele>
        <time>2023-07-20T08:01:13.000Z</time>
      </trkpt>
      <trkpt lat="42.62359" lon="1.75578">
        <ele>2244.3999023438</ele>
        <time>2023-07-20T08:01:14.000Z</time>
      </trkpt>
      <trkpt lat="42.62363" lon="1.7557">
        <ele>2244.3999023438</ele>
        <time>2023-07-20T08:01:23.000Z</time>
      </trkpt>
      <trkpt lat="42.62364" lon="1.75568">
        <ele>2244</ele>
        <time>2023-07-20T08:01:32.000Z</time>
      </trkpt>
      <trkpt lat="42.62364" lon="1.75567">
        <ele>2244.8000488281</ele>
        <time>2023-07-20T08:01:42.000Z</time>
      </trkpt>
      <trkpt lat="42.62365" lon="1.75564">
        <ele>2244.6000976562</ele>
        <time>2023-07-20T08:01:48.000Z</time>
      </trkpt>
      <trkpt lat="42.62366" lon="1.7556">
        <ele>2244.1999511719</ele>
        <time>2023-07-20T08:01:55.000Z</time>
      </trkpt>
      <trkpt lat="42.62366" lon="1.75559">
        <ele>2243.8000488281</ele>
        <time>2023-07-20T08:01:56.000Z</time>
      </trkpt>
      <trkpt lat="42.62366" lon="1.75555">
        <ele>2243.1999511719</ele>
        <time>2023-07-20T08:02:02.000Z</time>
      </trkpt>
      <trkpt lat="42.62366" lon="1.7555">
        <ele>2243.1999511719</ele>
        <time>2023-07-20T08:02:09.000Z</time>
      </trkpt>
      <trkpt lat="42.62366" lon="1.75547">
        <ele>2242.8000488281</ele>
        <time>2023-07-20T08:02:13.000Z</time>
      </trkpt>
      <trkpt lat="42.62366" lon="1.75547">
        <ele>2242.8000488281</ele>
        <time>2023-07-20T08:02:15.000Z</time>
      </trkpt>
      <trkpt lat="42.62366" lon="1.75543">
        <ele>2242.6000976562</ele>
        <time>2023-07-20T08:02:20.000Z</time>
      </trkpt>
      <trkpt lat="42.62369" lon="1.75542">
        <ele>2242.1999511719</ele>
        <time>2023-07-20T08:02:28.000Z</time>
      </trkpt>
      <trkpt lat="42.62371" lon="1.75537">
        <ele>2241.8000488281</ele>
        <time>2023-07-20T08:02:32.000Z</time>
      </trkpt>
      <trkpt lat="42.62373" lon="1.75531">
        <ele>2241.3999023438</ele>
        <time>2023-07-20T08:02:36.000Z</time>
      </trkpt>
      <trkpt lat="42.62379" lon="1.75526">
        <ele>2241.3999023438</ele>
        <time>2023-07-20T08:02:44.000Z</time>
      </trkpt>
      <trkpt lat="42.62383" lon="1.75518">
        <ele>2242.8000488281</ele>
        <time>2023-07-20T08:02:51.000Z</time>
      </trkpt>
      <trkpt lat="42.62383" lon="1.75517">
        <ele>2243</ele>
        <time>2023-07-20T08:02:53.000Z</time>
      </trkpt>
      <trkpt lat="42.62383" lon="1.75513">
        <ele>2244.1999511719</ele>
        <time>2023-07-20T08:02:58.000Z</time>
      </trkpt>
      <trkpt lat="42.62383" lon="1.7551">
        <ele>2245.3999023438</ele>
        <time>2023-07-20T08:03:02.000Z</time>
      </trkpt>
      <trkpt lat="42.62382" lon="1.75509">
        <ele>2246.1999511719</ele>
        <time>2023-07-20T08:03:06.000Z</time>
      </trkpt>
      <trkpt lat="42.62382" lon="1.7551">
        <ele>2245.6000976562</ele>
        <time>2023-07-20T08:03:13.000Z</time>
      </trkpt>
      <trkpt lat="42.62384" lon="1.75512">
        <ele>2245</ele>
        <time>2023-07-20T08:03:18.000Z</time>
      </trkpt>
      <trkpt lat="42.62388" lon="1.75509">
        <ele>2244.6000976562</ele>
        <time>2023-07-20T08:03:26.000Z</time>
      </trkpt>
      <trkpt lat="42.62385" lon="1.75507">
        <ele>2244.1999511719</ele>
        <time>2023-07-20T08:03:31.000Z</time>
      </trkpt>
      <trkpt lat="42.62384" lon="1.75505">
        <ele>2244</ele>
        <time>2023-07-20T08:03:34.000Z</time>
      </trkpt>
      <trkpt lat="42.62384" lon="1.75502">
        <ele>2243.1999511719</ele>
        <time>2023-07-20T08:03:39.000Z</time>
      </trkpt>
      <trkpt lat="42.62384" lon="1.755">
        <ele>2242.8000488281</ele>
        <time>2023-07-20T08:03:44.000Z</time>
      </trkpt>
      <trkpt lat="42.62385" lon="1.75494">
        <ele>2242.1999511719</ele>
        <time>2023-07-20T08:03:49.000Z</time>
      </trkpt>
      <trkpt lat="42.62386" lon="1.75489">
        <ele>2242.1999511719</ele>
        <time>2023-07-20T08:03:52.000Z</time>
      </trkpt>
      <trkpt lat="42.62386" lon="1.75484">
        <ele>2242.3999023438</ele>
        <time>2023-07-20T08:04:01.000Z</time>
      </trkpt>
      <trkpt lat="42.62386" lon="1.75477">
        <ele>2242.1999511719</ele>
        <time>2023-07-20T08:04:09.000Z</time>
      </trkpt>
      <trkpt lat="42.62386" lon="1.75473">
        <ele>2241.1999511719</ele>
        <time>2023-07-20T08:04:16.000Z</time>
      </trkpt>
      <trkpt lat="42.62386" lon="1.75473">
        <ele>2241</ele>
        <time>2023-07-20T08:04:17.000Z</time>
      </trkpt>
      <trkpt lat="42.62388" lon="1.75473">
        <ele>2240.6000976562</ele>
        <time>2023-07-20T08:04:26.000Z</time>
      </trkpt>
      <trkpt lat="42.62391" lon="1.75472">
        <ele>2240.1999511719</ele>
        <time>2023-07-20T08:04:32.000Z</time>
      </trkpt>
      <trkpt lat="42.62393" lon="1.7547">
        <ele>2239.8000488281</ele>
        <time>2023-07-20T08:04:35.000Z</time>
      </trkpt>
      <trkpt lat="42.62393" lon="1.75463">
        <ele>2239.6000976562</ele>
        <time>2023-07-20T08:04:42.000Z</time>
      </trkpt>
      <trkpt lat="42.62393" lon="1.75458">
        <ele>2239.3999023438</ele>
        <time>2023-07-20T08:04:51.000Z</time>
      </trkpt>
      <trkpt lat="42.62394" lon="1.75455">
        <ele>2239</ele>
        <time>2023-07-20T08:04:54.000Z</time>
      </trkpt>
      <trkpt lat="42.62393" lon="1.75448">
        <ele>2238.6000976562</ele>
        <time>2023-07-20T08:04:59.000Z</time>
      </trkpt>
      <trkpt lat="42.62393" lon="1.75444">
        <ele>2238.6000976562</ele>
        <time>2023-07-20T08:05:07.000Z</time>
      </trkpt>
      <trkpt lat="42.62393" lon="1.75439">
        <ele>2238.6000976562</ele>
        <time>2023-07-20T08:05:14.000Z</time>
      </trkpt>
      <trkpt lat="42.62393" lon="1.75426">
        <ele>2238.6000976562</ele>
        <time>2023-07-20T08:05:24.000Z</time>
      </trkpt>
      <trkpt lat="42.6239" lon="1.75421">
        <ele>2238.1999511719</ele>
        <time>2023-07-20T08:05:33.000Z</time>
      </trkpt>
      <trkpt lat="42.62389" lon="1.7542">
        <ele>2238</ele>
        <time>2023-07-20T08:05:35.000Z</time>
      </trkpt>
      <trkpt lat="42.62389" lon="1.75416">
        <ele>2237.6000976562</ele>
        <time>2023-07-20T08:05:40.000Z</time>
      </trkpt>
      <trkpt lat="42.62386" lon="1.75413">
        <ele>2237.3999023438</ele>
        <time>2023-07-20T08:05:46.000Z</time>
      </trkpt>
      <trkpt lat="42.62384" lon="1.75414">
        <ele>2236.8000488281</ele>
        <time>2023-07-20T08:05:53.000Z</time>
      </trkpt>
      <trkpt lat="42.62382" lon="1.75409">
        <ele>2235.8000488281</ele>
        <time>2023-07-20T08:05:58.000Z</time>
      </trkpt>
      <trkpt lat="42.62382" lon="1.75407">
        <ele>2235.8000488281</ele>
        <time>2023-07-20T08:05:59.000Z</time>
      </trkpt>
      <trkpt lat="42.62379" lon="1.75396">
        <ele>2235.6000976562</ele>
        <time>2023-07-20T08:06:09.000Z</time>
      </trkpt>
      <trkpt lat="42.62378" lon="1.75392">
        <ele>2235.3999023438</ele>
        <time>2023-07-20T08:06:15.000Z</time>
      </trkpt>
      <trkpt lat="42.6238" lon="1.75388">
        <ele>2235</ele>
        <time>2023-07-20T08:06:24.000Z</time>
      </trkpt>
      <trkpt lat="42.62383" lon="1.75386">
        <ele>2235</ele>
        <time>2023-07-20T08:06:31.000Z</time>
      </trkpt>
      <trkpt lat="42.62385" lon="1.75384">
        <ele>2235.3999023438</ele>
        <time>2023-07-20T08:06:38.000Z</time>
      </trkpt>
      <trkpt lat="42.62382" lon="1.7538">
        <ele>2235.8000488281</ele>
        <time>2023-07-20T08:06:47.000Z</time>
      </trkpt>
      <trkpt lat="42.62381" lon="1.75377">
        <ele>2236.3999023438</ele>
        <time>2023-07-20T08:06:52.000Z</time>
      </trkpt>
      <trkpt lat="42.62381" lon="1.75375">
        <ele>2236.8000488281</ele>
        <time>2023-07-20T08:06:55.000Z</time>
      </trkpt>
      <trkpt lat="42.62381" lon="1.75375">
        <ele>2237.1999511719</ele>
        <time>2023-07-20T08:06:58.000Z</time>
      </trkpt>
      <trkpt lat="42.6238" lon="1.75372">
        <ele>2238</ele>
        <time>2023-07-20T08:07:04.000Z</time>
      </trkpt>
      <trkpt lat="42.62379" lon="1.75369">
        <ele>2238.3999023438</ele>
        <time>2023-07-20T08:07:06.000Z</time>
      </trkpt>
      <trkpt lat="42.62377" lon="1.75364">
        <ele>2238.1999511719</ele>
        <time>2023-07-20T08:07:12.000Z</time>
      </trkpt>
      <trkpt lat="42.62376" lon="1.75358">
        <ele>2238</ele>
        <time>2023-07-20T08:07:19.000Z</time>
      </trkpt>
      <trkpt lat="42.62373" lon="1.75349">
        <ele>2237.8000488281</ele>
        <time>2023-07-20T08:07:28.000Z</time>
      </trkpt>
      <trkpt lat="42.62372" lon="1.75342">
        <ele>2238</ele>
        <time>2023-07-20T08:07:37.000Z</time>
      </trkpt>
      <trkpt lat="42.62371" lon="1.75335">
        <ele>2238.6000976562</ele>
        <time>2023-07-20T08:07:45.000Z</time>
      </trkpt>
      <trkpt lat="42.62371" lon="1.75326">
        <ele>2238.6000976562</ele>
        <time>2023-07-20T08:07:52.000Z</time>
      </trkpt>
      <trkpt lat="42.62367" lon="1.75315">
        <ele>2238.6000976562</ele>
        <time>2023-07-20T08:08:01.000Z</time>
      </trkpt>
      <trkpt lat="42.62365" lon="1.75307">
        <ele>2238.3999023438</ele>
        <time>2023-07-20T08:08:08.000Z</time>
      </trkpt>
      <trkpt lat="42.62362" lon="1.75296">
        <ele>2238.8000488281</ele>
        <time>2023-07-20T08:08:15.000Z</time>
      </trkpt>
      <trkpt lat="42.62356" lon="1.75287">
        <ele>2238.8000488281</ele>
        <time>2023-07-20T08:08:23.000Z</time>
      </trkpt>
      <trkpt lat="42.62355" lon="1.7528">
        <ele>2238</ele>
        <time>2023-07-20T08:08:31.000Z</time>
      </trkpt>
      <trkpt lat="42.62356" lon="1.75272">
        <ele>2238.1999511719</ele>
        <time>2023-07-20T08:08:39.000Z</time>
      </trkpt>
      <trkpt lat="42.62357" lon="1.75263">
        <ele>2238.6000976562</ele>
        <time>2023-07-20T08:08:47.000Z</time>
      </trkpt>
      <trkpt lat="42.62356" lon="1.75262">
        <ele>2238.6000976562</ele>
        <time>2023-07-20T08:08:53.000Z</time>
      </trkpt>
      <trkpt lat="42.62359" lon="1.75257">
        <ele>2239</ele>
        <time>2023-07-20T08:08:59.000Z</time>
      </trkpt>
      <trkpt lat="42.6236" lon="1.75256">
        <ele>2239</ele>
        <time>2023-07-20T08:09:02.000Z</time>
      </trkpt>
      <trkpt lat="42.6236" lon="1.75254">
        <ele>2239</ele>
        <time>2023-07-20T08:09:06.000Z</time>
      </trkpt>
      <trkpt lat="42.62362" lon="1.75252">
        <ele>2239</ele>
        <time>2023-07-20T08:09:13.000Z</time>
      </trkpt>
      <trkpt lat="42.62363" lon="1.75251">
        <ele>2239.1999511719</ele>
        <time>2023-07-20T08:09:21.000Z</time>
      </trkpt>
      <trkpt lat="42.62364" lon="1.75247">
        <ele>2239.3999023438</ele>
        <time>2023-07-20T08:09:28.000Z</time>
      </trkpt>
      <trkpt lat="42.62365" lon="1.75247">
        <ele>2240.1999511719</ele>
        <time>2023-07-20T08:09:35.000Z</time>
      </trkpt>
      <trkpt lat="42.62365" lon="1.75244">
        <ele>2240.3999023438</ele>
        <time>2023-07-20T08:09:44.000Z</time>
      </trkpt>
      <trkpt lat="42.62367" lon="1.75246">
        <ele>2241.1999511719</ele>
        <time>2023-07-20T08:09:51.000Z</time>
      </trkpt>
      <trkpt lat="42.62366" lon="1.75246">
        <ele>2241.8000488281</ele>
        <time>2023-07-20T08:09:53.000Z</time>
      </trkpt>
      <trkpt lat="42.62366" lon="1.75247">
        <ele>2242.3999023438</ele>
        <time>2023-07-20T08:09:57.000Z</time>
      </trkpt>
      <trkpt lat="42.62367" lon="1.75248">
        <ele>2242.8000488281</ele>
        <time>2023-07-20T08:10:01.000Z</time>
      </trkpt>
      <trkpt lat="42.62367" lon="1.7525">
        <ele>2243</ele>
        <time>2023-07-20T08:10:10.000Z</time>
      </trkpt>
      <trkpt lat="42.62368" lon="1.75247">
        <ele>2242.6000976562</ele>
        <time>2023-07-20T08:10:17.000Z</time>
      </trkpt>
      <trkpt lat="42.62369" lon="1.75249">
        <ele>2242.6000976562</ele>
        <time>2023-07-20T08:10:25.000Z</time>
      </trkpt>
      <trkpt lat="42.62369" lon="1.7525">
        <ele>2242.8000488281</ele>
        <time>2023-07-20T08:10:33.000Z</time>
      </trkpt>
      <trkpt lat="42.6237" lon="1.7525">
        <ele>2242.8000488281</ele>
        <time>2023-07-20T08:10:40.000Z</time>
      </trkpt>
      <trkpt lat="42.62367" lon="1.75248">
        <ele>2242.6000976562</ele>
        <time>2023-07-20T08:10:49.000Z</time>
      </trkpt>
      <trkpt lat="42.62366" lon="1.75246">
        <ele>2242</ele>
        <time>2023-07-20T08:10:54.000Z</time>
      </trkpt>
      <trkpt lat="42.62365" lon="1.75245">
        <ele>2241.1999511719</ele>
        <time>2023-07-20T08:10:58.000Z</time>
      </trkpt>
      <trkpt lat="42.62364" lon="1.75243">
        <ele>2240.6000976562</ele>
        <time>2023-07-20T08:11:02.000Z</time>
      </trkpt>
      <trkpt lat="42.62363" lon="1.75245">
        <ele>2240</ele>
        <time>2023-07-20T08:11:08.000Z</time>
      </trkpt>
      <trkpt lat="42.62363" lon="1.75244">
        <ele>2239.8000488281</ele>
        <time>2023-07-20T08:11:10.000Z</time>
      </trkpt>
      <trkpt lat="42.62364" lon="1.75245">
        <ele>2239.1999511719</ele>
        <time>2023-07-20T08:11:19.000Z</time>
      </trkpt>
      <trkpt lat="42.62364" lon="1.7525">
        <ele>2238.8000488281</ele>
        <time>2023-07-20T08:11:23.000Z</time>
      </trkpt>
      <trkpt lat="42.62364" lon="1.7525">
        <ele>2238.3999023438</ele>
        <time>2023-07-20T08:11:25.000Z</time>
      </trkpt>
      <trkpt lat="42.62364" lon="1.75243">
        <ele>2238.6000976562</ele>
        <time>2023-07-20T08:11:34.000Z</time>
      </trkpt>
      <trkpt lat="42.62362" lon="1.75244">
        <ele>2238</ele>
        <time>2023-07-20T08:11:43.000Z</time>
      </trkpt>
      <trkpt lat="42.62362" lon="1.75244">
        <ele>2237.8000488281</ele>
        <time>2023-07-20T08:11:46.000Z</time>
      </trkpt>
      <trkpt lat="42.62361" lon="1.75244">
        <ele>2237.6000976562</ele>
        <time>2023-07-20T08:11:48.000Z</time>
      </trkpt>
      <trkpt lat="42.62362" lon="1.75243">
        <ele>2237.1999511719</ele>
        <time>2023-07-20T08:11:55.000Z</time>
      </trkpt>
      <trkpt lat="42.62359" lon="1.7524">
        <ele>2237.1999511719</ele>
        <time>2023-07-20T08:12:00.000Z</time>
      </trkpt>
      <trkpt lat="42.62358" lon="1.75239">
        <ele>2237</ele>
        <time>2023-07-20T08:12:08.000Z</time>
      </trkpt>
      <trkpt lat="42.62357" lon="1.75237">
        <ele>2236.6000976562</ele>
        <time>2023-07-20T08:12:11.000Z</time>
      </trkpt>
      <trkpt lat="42.62356" lon="1.75231">
        <ele>2236</ele>
        <time>2023-07-20T08:12:16.000Z</time>
      </trkpt>
      <trkpt lat="42.62353" lon="1.75226">
        <ele>2236</ele>
        <time>2023-07-20T08:12:25.000Z</time>
      </trkpt>
      <trkpt lat="42.62352" lon="1.75224">
        <ele>2235.6000976562</ele>
        <time>2023-07-20T08:12:30.000Z</time>
      </trkpt>
      <trkpt lat="42.62352" lon="1.75224">
        <ele>2235.3999023438</ele>
        <time>2023-07-20T08:12:31.000Z</time>
      </trkpt>
      <trkpt lat="42.62353" lon="1.75221">
        <ele>2235.1999511719</ele>
        <time>2023-07-20T08:12:36.000Z</time>
      </trkpt>
      <trkpt lat="42.62352" lon="1.7522">
        <ele>2235.6000976562</ele>
        <time>2023-07-20T08:12:45.000Z</time>
      </trkpt>
      <trkpt lat="42.62352" lon="1.75215">
        <ele>2235.6000976562</ele>
        <time>2023-07-20T08:12:50.000Z</time>
      </trkpt>
      <trkpt lat="42.6235" lon="1.75219">
        <ele>2235.1999511719</ele>
        <time>2023-07-20T08:12:58.000Z</time>
      </trkpt>
      <trkpt lat="42.62351" lon="1.75218">
        <ele>2234.3999023438</ele>
        <time>2023-07-20T08:13:04.000Z</time>
      </trkpt>
      <trkpt lat="42.62351" lon="1.75216">
        <ele>2234.3999023438</ele>
        <time>2023-07-20T08:13:06.000Z</time>
      </trkpt>
      <trkpt lat="42.62352" lon="1.75211">
        <ele>2234.6000976562</ele>
        <time>2023-07-20T08:13:13.000Z</time>
      </trkpt>
      <trkpt lat="42.62351" lon="1.75202">
        <ele>2235.3999023438</ele>
        <time>2023-07-20T08:13:21.000Z</time>
      </trkpt>
      <trkpt lat="42.62348" lon="1.75197">
        <ele>2235.8000488281</ele>
        <time>2023-07-20T08:13:27.000Z</time>
      </trkpt>
      <trkpt lat="42.6235" lon="1.75199">
        <ele>2235.8000488281</ele>
        <time>2023-07-20T08:13:32.000Z</time>
      </trkpt>
      <trkpt lat="42.6235" lon="1.75196">
        <ele>2235.8000488281</ele>
        <time>2023-07-20T08:13:39.000Z</time>
      </trkpt>
      <trkpt lat="42.6235" lon="1.75194">
        <ele>2236</ele>
        <time>2023-07-20T08:13:47.000Z</time>
      </trkpt>
      <trkpt lat="42.62346" lon="1.75188">
        <ele>2236.1999511719</ele>
        <time>2023-07-20T08:13:55.000Z</time>
      </trkpt>
      <trkpt lat="42.62346" lon="1.75186">
        <ele>2236.1999511719</ele>
        <time>2023-07-20T08:14:04.000Z</time>
      </trkpt>
      <trkpt lat="42.62346" lon="1.75189">
        <ele>2236.1999511719</ele>
        <time>2023-07-20T08:14:13.000Z</time>
      </trkpt>
      <trkpt lat="42.62344" lon="1.75188">
        <ele>2236.3999023438</ele>
        <time>2023-07-20T08:14:19.000Z</time>
      </trkpt>
      <trkpt lat="42.62344" lon="1.75184">
        <ele>2235.6000976562</ele>
        <time>2023-07-20T08:14:27.000Z</time>
      </trkpt>
      <trkpt lat="42.62344" lon="1.7518">
        <ele>2236.1999511719</ele>
        <time>2023-07-20T08:14:36.000Z</time>
      </trkpt>
      <trkpt lat="42.62342" lon="1.75183">
        <ele>2236.3999023438</ele>
        <time>2023-07-20T08:14:41.000Z</time>
      </trkpt>
      <trkpt lat="42.62342" lon="1.75183">
        <ele>2236.3999023438</ele>
        <time>2023-07-20T08:14:42.000Z</time>
      </trkpt>
      <trkpt lat="42.62338" lon="1.75182">
        <ele>2236.6000976562</ele>
        <time>2023-07-20T08:14:50.000Z</time>
      </trkpt>
      <trkpt lat="42.62337" lon="1.75181">
        <ele>2236.6000976562</ele>
        <time>2023-07-20T08:14:54.000Z</time>
      </trkpt>
      <trkpt lat="42.62333" lon="1.75177">
        <ele>2235.8000488281</ele>
        <time>2023-07-20T08:15:00.000Z</time>
      </trkpt>
      <trkpt lat="42.62333" lon="1.75174">
        <ele>2236</ele>
        <time>2023-07-20T08:15:09.000Z</time>
      </trkpt>
      <trkpt lat="42.62332" lon="1.7517">
        <ele>2236.1999511719</ele>
        <time>2023-07-20T08:15:16.000Z</time>
      </trkpt>
      <trkpt lat="42.6233" lon="1.75165">
        <ele>2236</ele>
        <time>2023-07-20T08:15:22.000Z</time>
      </trkpt>
      <trkpt lat="42.62329" lon="1.75162">
        <ele>2235.8000488281</ele>
        <time>2023-07-20T08:15:29.000Z</time>
      </trkpt>
      <trkpt lat="42.62325" lon="1.75156">
        <ele>2236.6000976562</ele>
        <time>2023-07-20T08:15:36.000Z</time>
      </trkpt>
      <trkpt lat="42.62324" lon="1.75155">
        <ele>2235.3999023438</ele>
        <time>2023-07-20T08:15:43.000Z</time>
      </trkpt>
      <trkpt lat="42.62323" lon="1.75154">
        <ele>2234.8000488281</ele>
        <time>2023-07-20T08:15:48.000Z</time>
      </trkpt>
      <trkpt lat="42.62319" lon="1.75154">
        <ele>2235</ele>
        <time>2023-07-20T08:15:56.000Z</time>
      </trkpt>
      <trkpt lat="42.62317" lon="1.75155">
        <ele>2234.3999023438</ele>
        <time>2023-07-20T08:16:03.000Z</time>
      </trkpt>
      <trkpt lat="42.62317" lon="1.75155">
        <ele>2234.3999023438</ele>
        <time>2023-07-20T08:16:04.000Z</time>
      </trkpt>
      <trkpt lat="42.62316" lon="1.75152">
        <ele>2233.8000488281</ele>
        <time>2023-07-20T08:16:11.000Z</time>
      </trkpt>
      <trkpt lat="42.62317" lon="1.75151">
        <ele>2233.8000488281</ele>
        <time>2023-07-20T08:16:19.000Z</time>
      </trkpt>
      <trkpt lat="42.62317" lon="1.75148">
        <ele>2233.8000488281</ele>
        <time>2023-07-20T08:16:27.000Z</time>
      </trkpt>
      <trkpt lat="42.62316" lon="1.75152">
        <ele>2234</ele>
        <time>2023-07-20T08:16:36.000Z</time>
      </trkpt>
      <trkpt lat="42.62315" lon="1.75149">
        <ele>2234.3999023438</ele>
        <time>2023-07-20T08:16:46.000Z</time>
      </trkpt>
      <trkpt lat="42.62317" lon="1.75147">
        <ele>2234.6000976562</ele>
        <time>2023-07-20T08:16:53.000Z</time>
      </trkpt>
      <trkpt lat="42.62318" lon="1.75146">
        <ele>2235</ele>
        <time>2023-07-20T08:17:00.000Z</time>
      </trkpt>
      <trkpt lat="42.6232" lon="1.75144">
        <ele>2235.3999023438</ele>
        <time>2023-07-20T08:17:04.000Z</time>
      </trkpt>
      <trkpt lat="42.62323" lon="1.75143">
        <ele>2236.3999023438</ele>
        <time>2023-07-20T08:17:07.000Z</time>
      </trkpt>
      <trkpt lat="42.62324" lon="1.75144">
        <ele>2236.8000488281</ele>
        <time>2023-07-20T08:17:08.000Z</time>
      </trkpt>
      <trkpt lat="42.62326" lon="1.75144">
        <ele>2237.1999511719</ele>
        <time>2023-07-20T08:17:16.000Z</time>
      </trkpt>
      <trkpt lat="42.62327" lon="1.75143">
        <ele>2237.8000488281</ele>
        <time>2023-07-20T08:17:19.000Z</time>
      </trkpt>
      <trkpt lat="42.62331" lon="1.75141">
        <ele>2238.8000488281</ele>
        <time>2023-07-20T08:17:24.000Z</time>
      </trkpt>
      <trkpt lat="42.62333" lon="1.75136">
        <ele>2239</ele>
        <time>2023-07-20T08:17:30.000Z</time>
      </trkpt>
      <trkpt lat="42.62333" lon="1.75136">
        <ele>2239.6000976562</ele>
        <time>2023-07-20T08:17:32.000Z</time>
      </trkpt>
      <trkpt lat="42.62333" lon="1.75136">
        <ele>2240</ele>
        <time>2023-07-20T08:17:35.000Z</time>
      </trkpt>
      <trkpt lat="42.62333" lon="1.75137">
        <ele>2240.6000976562</ele>
        <time>2023-07-20T08:17:41.000Z</time>
      </trkpt>
      <trkpt lat="42.62334" lon="1.75135">
        <ele>2241.1999511719</ele>
        <time>2023-07-20T08:17:47.000Z</time>
      </trkpt>
      <trkpt lat="42.62334" lon="1.75135">
        <ele>2241.3999023438</ele>
        <time>2023-07-20T08:17:48.000Z</time>
      </trkpt>
      <trkpt lat="42.62335" lon="1.75133">
        <ele>2242.3999023438</ele>
        <time>2023-07-20T08:17:52.000Z</time>
      </trkpt>
      <trkpt lat="42.62337" lon="1.75131">
        <ele>2243</ele>
        <time>2023-07-20T08:17:58.000Z</time>
      </trkpt>
      <trkpt lat="42.62337" lon="1.75131">
        <ele>2243.6000976562</ele>
        <time>2023-07-20T08:18:00.000Z</time>
      </trkpt>
      <trkpt lat="42.62339" lon="1.75128">
        <ele>2244.3999023438</ele>
        <time>2023-07-20T08:18:08.000Z</time>
      </trkpt>
      <trkpt lat="42.6234" lon="1.75127">
        <ele>2244.8000488281</ele>
        <time>2023-07-20T08:18:09.000Z</time>
      </trkpt>
      <trkpt lat="42.62341" lon="1.75123">
        <ele>2246</ele>
        <time>2023-07-20T08:18:14.000Z</time>
      </trkpt>
      <trkpt lat="42.62342" lon="1.75121">
        <ele>2247</ele>
        <time>2023-07-20T08:18:21.000Z</time>
      </trkpt>
      <trkpt lat="42.62343" lon="1.75121">
        <ele>2247</ele>
        <time>2023-07-20T08:18:22.000Z</time>
      </trkpt>
      <trkpt lat="42.62345" lon="1.75122">
        <ele>2248</ele>
        <time>2023-07-20T08:18:28.000Z</time>
      </trkpt>
      <trkpt lat="42.62346" lon="1.75122">
        <ele>2248</ele>
        <time>2023-07-20T08:18:29.000Z</time>
      </trkpt>
      <trkpt lat="42.62346" lon="1.75119">
        <ele>2249.1999511719</ele>
        <time>2023-07-20T08:18:36.000Z</time>
      </trkpt>
      <trkpt lat="42.62346" lon="1.75118">
        <ele>2249.6000976562</ele>
        <time>2023-07-20T08:18:38.000Z</time>
      </trkpt>
      <trkpt lat="42.62348" lon="1.75118">
        <ele>2250.1999511719</ele>
        <time>2023-07-20T08:18:45.000Z</time>
      </trkpt>
      <trkpt lat="42.62348" lon="1.75118">
        <ele>2250.1999511719</ele>
        <time>2023-07-20T08:18:46.000Z</time>
      </trkpt>
      <trkpt lat="42.6235" lon="1.75118">
        <ele>2251.3999023438</ele>
        <time>2023-07-20T08:18:52.000Z</time>
      </trkpt>
      <trkpt lat="42.62353" lon="1.75119">
        <ele>2252</ele>
        <time>2023-07-20T08:18:55.000Z</time>
      </trkpt>
      <trkpt lat="42.62353" lon="1.75118">
        <ele>2252.3999023438</ele>
        <time>2023-07-20T08:18:59.000Z</time>
      </trkpt>
      <trkpt lat="42.62354" lon="1.75118">
        <ele>2252.8000488281</ele>
        <time>2023-07-20T08:19:01.000Z</time>
      </trkpt>
      <trkpt lat="42.62354" lon="1.75117">
        <ele>2253.3999023438</ele>
        <time>2023-07-20T08:19:03.000Z</time>
      </trkpt>
      <trkpt lat="42.62357" lon="1.75116">
        <ele>2254.1999511719</ele>
        <time>2023-07-20T08:19:11.000Z</time>
      </trkpt>
      <trkpt lat="42.62359" lon="1.75115">
        <ele>2254.3999023438</ele>
        <time>2023-07-20T08:19:13.000Z</time>
      </trkpt>
      <trkpt lat="42.6236" lon="1.75115">
        <ele>2255</ele>
        <time>2023-07-20T08:19:19.000Z</time>
      </trkpt>
      <trkpt lat="42.62362" lon="1.75115">
        <ele>2255.6000976562</ele>
        <time>2023-07-20T08:19:24.000Z</time>
      </trkpt>
      <trkpt lat="42.62363" lon="1.75113">
        <ele>2255.8000488281</ele>
        <time>2023-07-20T08:19:27.000Z</time>
      </trkpt>
      <trkpt lat="42.62364" lon="1.75108">
        <ele>2256.8000488281</ele>
        <time>2023-07-20T08:19:33.000Z</time>
      </trkpt>
      <trkpt lat="42.62366" lon="1.75107">
        <ele>2257.6000976562</ele>
        <time>2023-07-20T08:19:40.000Z</time>
      </trkpt>
      <trkpt lat="42.62367" lon="1.75106">
        <ele>2258</ele>
        <time>2023-07-20T08:19:43.000Z</time>
      </trkpt>
      <trkpt lat="42.62369" lon="1.75107">
        <ele>2258.6000976562</ele>
        <time>2023-07-20T08:19:47.000Z</time>
      </trkpt>
      <trkpt lat="42.62369" lon="1.75108">
        <ele>2259</ele>
        <time>2023-07-20T08:19:49.000Z</time>
      </trkpt>
      <trkpt lat="42.6237" lon="1.75108">
        <ele>2259.3999023438</ele>
        <time>2023-07-20T08:19:53.000Z</time>
      </trkpt>
      <trkpt lat="42.6237" lon="1.75106">
        <ele>2260.1999511719</ele>
        <time>2023-07-20T08:19:57.000Z</time>
      </trkpt>
      <trkpt lat="42.6237" lon="1.75103">
        <ele>2260.6000976562</ele>
        <time>2023-07-20T08:20:01.000Z</time>
      </trkpt>
      <trkpt lat="42.6237" lon="1.75101">
        <ele>2261.1999511719</ele>
        <time>2023-07-20T08:20:05.000Z</time>
      </trkpt>
      <trkpt lat="42.6237" lon="1.75099">
        <ele>2261.8000488281</ele>
        <time>2023-07-20T08:20:08.000Z</time>
      </trkpt>
      <trkpt lat="42.62369" lon="1.75097">
        <ele>2262.3999023438</ele>
        <time>2023-07-20T08:20:11.000Z</time>
      </trkpt>
      <trkpt lat="42.6237" lon="1.75096">
        <ele>2263.3999023438</ele>
        <time>2023-07-20T08:20:15.000Z</time>
      </trkpt>
      <trkpt lat="42.6237" lon="1.75096">
        <ele>2263.3999023438</ele>
        <time>2023-07-20T08:20:16.000Z</time>
      </trkpt>
      <trkpt lat="42.62371" lon="1.75095">
        <ele>2264.3999023438</ele>
        <time>2023-07-20T08:20:23.000Z</time>
      </trkpt>
      <trkpt lat="42.62372" lon="1.75094">
        <ele>2264.3999023438</ele>
        <time>2023-07-20T08:20:25.000Z</time>
      </trkpt>
      <trkpt lat="42.62373" lon="1.75092">
        <ele>2265.3999023438</ele>
        <time>2023-07-20T08:20:31.000Z</time>
      </trkpt>
      <trkpt lat="42.62372" lon="1.75092">
        <ele>2265.6000976562</ele>
        <time>2023-07-20T08:20:32.000Z</time>
      </trkpt>
      <trkpt lat="42.62372" lon="1.75091">
        <ele>2266.6000976562</ele>
        <time>2023-07-20T08:20:36.000Z</time>
      </trkpt>
      <trkpt lat="42.62375" lon="1.75087">
        <ele>2267</ele>
        <time>2023-07-20T08:20:41.000Z</time>
      </trkpt>
      <trkpt lat="42.62375" lon="1.75086">
        <ele>2267.6000976562</ele>
        <time>2023-07-20T08:20:46.000Z</time>
      </trkpt>
      <trkpt lat="42.62375" lon="1.75086">
        <ele>2267.6000976562</ele>
        <time>2023-07-20T08:20:47.000Z</time>
      </trkpt>
      <trkpt lat="42.62375" lon="1.75083">
        <ele>2268.6000976562</ele>
        <time>2023-07-20T08:20:52.000Z</time>
      </trkpt>
      <trkpt lat="42.62375" lon="1.75082">
        <ele>2268.8000488281</ele>
        <time>2023-07-20T08:20:54.000Z</time>
      </trkpt>
      <trkpt lat="42.62375" lon="1.75077">
        <ele>2269.8000488281</ele>
        <time>2023-07-20T08:21:01.000Z</time>
      </trkpt>
      <trkpt lat="42.62376" lon="1.75077">
        <ele>2269.8000488281</ele>
        <time>2023-07-20T08:21:04.000Z</time>
      </trkpt>
      <trkpt lat="42.62373" lon="1.75078">
        <ele>2270.6000976562</ele>
        <time>2023-07-20T08:21:13.000Z</time>
      </trkpt>
      <trkpt lat="42.62372" lon="1.75076">
        <ele>2270.6000976562</ele>
        <time>2023-07-20T08:21:20.000Z</time>
      </trkpt>
      <trkpt lat="42.6237" lon="1.75073">
        <ele>2270.3999023438</ele>
        <time>2023-07-20T08:21:25.000Z</time>
      </trkpt>
      <trkpt lat="42.6237" lon="1.75076">
        <ele>2270.6000976562</ele>
        <time>2023-07-20T08:21:31.000Z</time>
      </trkpt>
      <trkpt lat="42.62369" lon="1.75075">
        <ele>2270.8000488281</ele>
        <time>2023-07-20T08:21:36.000Z</time>
      </trkpt>
      <trkpt lat="42.62369" lon="1.75075">
        <ele>2270.8000488281</ele>
        <time>2023-07-20T08:21:37.000Z</time>
      </trkpt>
      <trkpt lat="42.62368" lon="1.75073">
        <ele>2271.1999511719</ele>
        <time>2023-07-20T08:21:42.000Z</time>
      </trkpt>
      <trkpt lat="42.62368" lon="1.75073">
        <ele>2272</ele>
        <time>2023-07-20T08:21:46.000Z</time>
      </trkpt>
      <trkpt lat="42.62368" lon="1.75072">
        <ele>2272.1999511719</ele>
        <time>2023-07-20T08:21:50.000Z</time>
      </trkpt>
      <trkpt lat="42.62366" lon="1.7507">
        <ele>2272.1999511719</ele>
        <time>2023-07-20T08:21:59.000Z</time>
      </trkpt>
      <trkpt lat="42.62364" lon="1.75069">
        <ele>2272.6000976562</ele>
        <time>2023-07-20T08:22:04.000Z</time>
      </trkpt>
      <trkpt lat="42.62365" lon="1.75068">
        <ele>2273</ele>
        <time>2023-07-20T08:22:09.000Z</time>
      </trkpt>
      <trkpt lat="42.62365" lon="1.75067">
        <ele>2273.1999511719</ele>
        <time>2023-07-20T08:22:10.000Z</time>
      </trkpt>
      <trkpt lat="42.62365" lon="1.75066">
        <ele>2274</ele>
        <time>2023-07-20T08:22:15.000Z</time>
      </trkpt>
      <trkpt lat="42.62365" lon="1.75066">
        <ele>2274.3999023438</ele>
        <time>2023-07-20T08:22:18.000Z</time>
      </trkpt>
      <trkpt lat="42.62365" lon="1.75062">
        <ele>2275.1999511719</ele>
        <time>2023-07-20T08:22:25.000Z</time>
      </trkpt>
      <trkpt lat="42.62364" lon="1.75062">
        <ele>2275.3999023438</ele>
        <time>2023-07-20T08:22:26.000Z</time>
      </trkpt>
      <trkpt lat="42.62364" lon="1.75062">
        <ele>2276.3999023438</ele>
        <time>2023-07-20T08:22:33.000Z</time>
      </trkpt>
      <trkpt lat="42.62364" lon="1.75062">
        <ele>2277</ele>
        <time>2023-07-20T08:22:36.000Z</time>
      </trkpt>
      <trkpt lat="42.62365" lon="1.75058">
        <ele>2277.6000976562</ele>
        <time>2023-07-20T08:22:42.000Z</time>
      </trkpt>
      <trkpt lat="42.62365" lon="1.75057">
        <ele>2277.8000488281</ele>
        <time>2023-07-20T08:22:43.000Z</time>
      </trkpt>
      <trkpt lat="42.62365" lon="1.75052">
        <ele>2278.6000976562</ele>
        <time>2023-07-20T08:22:52.000Z</time>
      </trkpt>
      <trkpt lat="42.62365" lon="1.75053">
        <ele>2278.1999511719</ele>
        <time>2023-07-20T08:22:59.000Z</time>
      </trkpt>
      <trkpt lat="42.6236" lon="1.75051">
        <ele>2278.1999511719</ele>
        <time>2023-07-20T08:23:07.000Z</time>
      </trkpt>
      <trkpt lat="42.62362" lon="1.75048">
        <ele>2278.1999511719</ele>
        <time>2023-07-20T08:23:14.000Z</time>
      </trkpt>
      <trkpt lat="42.62362" lon="1.75052">
        <ele>2278.3999023438</ele>
        <time>2023-07-20T08:23:21.000Z</time>
      </trkpt>
      <trkpt lat="42.62362" lon="1.75052">
        <ele>2278.6000976562</ele>
        <time>2023-07-20T08:23:23.000Z</time>
      </trkpt>
      <trkpt lat="42.62361" lon="1.75047">
        <ele>2279.6000976562</ele>
        <time>2023-07-20T08:23:29.000Z</time>
      </trkpt>
      <trkpt lat="42.62361" lon="1.75046">
        <ele>2279.8000488281</ele>
        <time>2023-07-20T08:23:30.000Z</time>
      </trkpt>
      <trkpt lat="42.62361" lon="1.75041">
        <ele>2280.8000488281</ele>
        <time>2023-07-20T08:23:38.000Z</time>
      </trkpt>
      <trkpt lat="42.62361" lon="1.75038">
        <ele>2282</ele>
        <time>2023-07-20T08:23:45.000Z</time>
      </trkpt>
      <trkpt lat="42.6236" lon="1.75038">
        <ele>2282.3999023438</ele>
        <time>2023-07-20T08:23:47.000Z</time>
      </trkpt>
      <trkpt lat="42.62359" lon="1.75037">
        <ele>2283</ele>
        <time>2023-07-20T08:23:51.000Z</time>
      </trkpt>
      <trkpt lat="42.6236" lon="1.75037">
        <ele>2283.3999023438</ele>
        <time>2023-07-20T08:23:54.000Z</time>
      </trkpt>
      <trkpt lat="42.6236" lon="1.75036">
        <ele>2283.3999023438</ele>
        <time>2023-07-20T08:24:02.000Z</time>
      </trkpt>
      <trkpt lat="42.62358" lon="1.75032">
        <ele>2283.6000976562</ele>
        <time>2023-07-20T08:24:11.000Z</time>
      </trkpt>
      <trkpt lat="42.62357" lon="1.75031">
        <ele>2284</ele>
        <time>2023-07-20T08:24:16.000Z</time>
      </trkpt>
      <trkpt lat="42.62357" lon="1.75031">
        <ele>2284.3999023438</ele>
        <time>2023-07-20T08:24:18.000Z</time>
      </trkpt>
      <trkpt lat="42.62356" lon="1.75028">
        <ele>2285</ele>
        <time>2023-07-20T08:24:25.000Z</time>
      </trkpt>
      <trkpt lat="42.62356" lon="1.75027">
        <ele>2285.1999511719</ele>
        <time>2023-07-20T08:24:27.000Z</time>
      </trkpt>
      <trkpt lat="42.62358" lon="1.75026">
        <ele>2286.1999511719</ele>
        <time>2023-07-20T08:24:32.000Z</time>
      </trkpt>
      <trkpt lat="42.62359" lon="1.75025">
        <ele>2286.6000976562</ele>
        <time>2023-07-20T08:24:33.000Z</time>
      </trkpt>
      <trkpt lat="42.62359" lon="1.75026">
        <ele>2286.6000976562</ele>
        <time>2023-07-20T08:24:39.000Z</time>
      </trkpt>
      <trkpt lat="42.62357" lon="1.75023">
        <ele>2286.1999511719</ele>
        <time>2023-07-20T08:24:46.000Z</time>
      </trkpt>
      <trkpt lat="42.62357" lon="1.75021">
        <ele>2286.1999511719</ele>
        <time>2023-07-20T08:24:53.000Z</time>
      </trkpt>
      <trkpt lat="42.62357" lon="1.75019">
        <ele>2286</ele>
        <time>2023-07-20T08:25:00.000Z</time>
      </trkpt>
      <trkpt lat="42.62356" lon="1.75015">
        <ele>2286.8000488281</ele>
        <time>2023-07-20T08:25:09.000Z</time>
      </trkpt>
      <trkpt lat="42.62354" lon="1.75013">
        <ele>2286.6000976562</ele>
        <time>2023-07-20T08:25:17.000Z</time>
      </trkpt>
      <trkpt lat="42.62351" lon="1.7501">
        <ele>2287.1999511719</ele>
        <time>2023-07-20T08:25:23.000Z</time>
      </trkpt>
      <trkpt lat="42.6235" lon="1.75009">
        <ele>2287.3999023438</ele>
        <time>2023-07-20T08:25:24.000Z</time>
      </trkpt>
      <trkpt lat="42.6235" lon="1.75009">
        <ele>2288</ele>
        <time>2023-07-20T08:25:29.000Z</time>
      </trkpt>
      <trkpt lat="42.62351" lon="1.75007">
        <ele>2288.3999023438</ele>
        <time>2023-07-20T08:25:33.000Z</time>
      </trkpt>
      <trkpt lat="42.6235" lon="1.75004">
        <ele>2289</ele>
        <time>2023-07-20T08:25:36.000Z</time>
      </trkpt>
      <trkpt lat="42.62351" lon="1.75003">
        <ele>2289.3999023438</ele>
        <time>2023-07-20T08:25:39.000Z</time>
      </trkpt>
      <trkpt lat="42.62349" lon="1.74998">
        <ele>2290</ele>
        <time>2023-07-20T08:25:44.000Z</time>
      </trkpt>
      <trkpt lat="42.6235" lon="1.74995">
        <ele>2290.6000976562</ele>
        <time>2023-07-20T08:25:50.000Z</time>
      </trkpt>
      <trkpt lat="42.6235" lon="1.74993">
        <ele>2290.6000976562</ele>
        <time>2023-07-20T08:25:59.000Z</time>
      </trkpt>
      <trkpt lat="42.6235" lon="1.74987">
        <ele>2291</ele>
        <time>2023-07-20T08:26:06.000Z</time>
      </trkpt>
      <trkpt lat="42.6235" lon="1.74985">
        <ele>2291.6000976562</ele>
        <time>2023-07-20T08:26:10.000Z</time>
      </trkpt>
      <trkpt lat="42.62349" lon="1.7498">
        <ele>2292.3999023438</ele>
        <time>2023-07-20T08:26:16.000Z</time>
      </trkpt>
      <trkpt lat="42.62351" lon="1.74972">
        <ele>2292.1999511719</ele>
        <time>2023-07-20T08:26:26.000Z</time>
      </trkpt>
      <trkpt lat="42.62353" lon="1.74968">
        <ele>2292.6000976562</ele>
        <time>2023-07-20T08:26:30.000Z</time>
      </trkpt>
      <trkpt lat="42.62354" lon="1.74964">
        <ele>2293</ele>
        <time>2023-07-20T08:26:35.000Z</time>
      </trkpt>
      <trkpt lat="42.62357" lon="1.74961">
        <ele>2292</ele>
        <time>2023-07-20T08:26:41.000Z</time>
      </trkpt>
      <trkpt lat="42.62358" lon="1.74957">
        <ele>2292</ele>
        <time>2023-07-20T08:26:48.000Z</time>
      </trkpt>
      <trkpt lat="42.62356" lon="1.74954">
        <ele>2291.8000488281</ele>
        <time>2023-07-20T08:26:56.000Z</time>
      </trkpt>
      <trkpt lat="42.62356" lon="1.74954">
        <ele>2291.6000976562</ele>
        <time>2023-07-20T08:26:57.000Z</time>
      </trkpt>
      <trkpt lat="42.62357" lon="1.74955">
        <ele>2291.3999023438</ele>
        <time>2023-07-20T08:27:04.000Z</time>
      </trkpt>
      <trkpt lat="42.62357" lon="1.74951">
        <ele>2292</ele>
        <time>2023-07-20T08:27:12.000Z</time>
      </trkpt>
      <trkpt lat="42.62359" lon="1.74946">
        <ele>2292</ele>
        <time>2023-07-20T08:27:18.000Z</time>
      </trkpt>
      <trkpt lat="42.6236" lon="1.74945">
        <ele>2292</ele>
        <time>2023-07-20T08:27:25.000Z</time>
      </trkpt>
      <trkpt lat="42.62361" lon="1.74944">
        <ele>2291.8000488281</ele>
        <time>2023-07-20T08:27:32.000Z</time>
      </trkpt>
      <trkpt lat="42.62362" lon="1.74942">
        <ele>2291.6000976562</ele>
        <time>2023-07-20T08:27:40.000Z</time>
      </trkpt>
      <trkpt lat="42.62363" lon="1.74936">
        <ele>2291.3999023438</ele>
        <time>2023-07-20T08:27:48.000Z</time>
      </trkpt>
      <trkpt lat="42.62362" lon="1.74937">
        <ele>2291.3999023438</ele>
        <time>2023-07-20T08:27:56.000Z</time>
      </trkpt>
      <trkpt lat="42.62363" lon="1.74935">
        <ele>2291.6000976562</ele>
        <time>2023-07-20T08:28:04.000Z</time>
      </trkpt>
      <trkpt lat="42.62365" lon="1.74933">
        <ele>2292.3999023438</ele>
        <time>2023-07-20T08:28:13.000Z</time>
      </trkpt>
      <trkpt lat="42.62365" lon="1.74933">
        <ele>2292.6000976562</ele>
        <time>2023-07-20T08:28:14.000Z</time>
      </trkpt>
      <trkpt lat="42.62365" lon="1.74931">
        <ele>2292.3999023438</ele>
        <time>2023-07-20T08:28:20.000Z</time>
      </trkpt>
      <trkpt lat="42.62364" lon="1.74929">
        <ele>2292.1999511719</ele>
        <time>2023-07-20T08:28:26.000Z</time>
      </trkpt>
      <trkpt lat="42.62363" lon="1.74929">
        <ele>2292.3999023438</ele>
        <time>2023-07-20T08:28:28.000Z</time>
      </trkpt>
      <trkpt lat="42.62362" lon="1.74927">
        <ele>2292.3999023438</ele>
        <time>2023-07-20T08:28:33.000Z</time>
      </trkpt>
      <trkpt lat="42.62361" lon="1.74923">
        <ele>2292.8000488281</ele>
        <time>2023-07-20T08:28:38.000Z</time>
      </trkpt>
      <trkpt lat="42.62361" lon="1.7492">
        <ele>2293.6000976562</ele>
        <time>2023-07-20T08:28:44.000Z</time>
      </trkpt>
      <trkpt lat="42.62361" lon="1.74919">
        <ele>2293.8000488281</ele>
        <time>2023-07-20T08:28:46.000Z</time>
      </trkpt>
      <trkpt lat="42.62361" lon="1.74919">
        <ele>2293.6000976562</ele>
        <time>2023-07-20T08:28:53.000Z</time>
      </trkpt>
      <trkpt lat="42.62362" lon="1.74915">
        <ele>2293.8000488281</ele>
        <time>2023-07-20T08:29:02.000Z</time>
      </trkpt>
      <trkpt lat="42.62363" lon="1.74911">
        <ele>2293.8000488281</ele>
        <time>2023-07-20T08:29:08.000Z</time>
      </trkpt>
      <trkpt lat="42.62362" lon="1.74916">
        <ele>2294.1999511719</ele>
        <time>2023-07-20T08:29:17.000Z</time>
      </trkpt>
      <trkpt lat="42.62363" lon="1.74912">
        <ele>2294.1999511719</ele>
        <time>2023-07-20T08:29:27.000Z</time>
      </trkpt>
      <trkpt lat="42.62362" lon="1.74916">
        <ele>2294</ele>
        <time>2023-07-20T08:29:36.000Z</time>
      </trkpt>
      <trkpt lat="42.62362" lon="1.74916">
        <ele>2294</ele>
        <time>2023-07-20T08:29:43.000Z</time>
      </trkpt>
      <trkpt lat="42.62362" lon="1.74919">
        <ele>2293.8000488281</ele>
        <time>2023-07-20T08:29:51.000Z</time>
      </trkpt>
      <trkpt lat="42.62362" lon="1.74913">
        <ele>2293.6000976562</ele>
        <time>2023-07-20T08:30:01.000Z</time>
      </trkpt>
      <trkpt lat="42.62361" lon="1.74908">
        <ele>2293.8000488281</ele>
        <time>2023-07-20T08:30:09.000Z</time>
      </trkpt>
      <trkpt lat="42.62364" lon="1.74911">
        <ele>2294.1999511719</ele>
        <time>2023-07-20T08:30:17.000Z</time>
      </trkpt>
      <trkpt lat="42.62365" lon="1.74908">
        <ele>2294.6000976562</ele>
        <time>2023-07-20T08:30:25.000Z</time>
      </trkpt>
      <trkpt lat="42.62365" lon="1.74906">
        <ele>2294.6000976562</ele>
        <time>2023-07-20T08:30:29.000Z</time>
      </trkpt>
      <trkpt lat="42.62364" lon="1.74907">
        <ele>2294.8000488281</ele>
        <time>2023-07-20T08:30:31.000Z</time>
      </trkpt>
      <trkpt lat="42.62361" lon="1.74903">
        <ele>2295.1999511719</ele>
        <time>2023-07-20T08:30:41.000Z</time>
      </trkpt>
      <trkpt lat="42.62361" lon="1.749">
        <ele>2295.6000976562</ele>
        <time>2023-07-20T08:30:47.000Z</time>
      </trkpt>
      <trkpt lat="42.62363" lon="1.74898">
        <ele>2296.1999511719</ele>
        <time>2023-07-20T08:30:52.000Z</time>
      </trkpt>
      <trkpt lat="42.62363" lon="1.74898">
        <ele>2296.6000976562</ele>
        <time>2023-07-20T08:30:59.000Z</time>
      </trkpt>
      <trkpt lat="42.62364" lon="1.74897">
        <ele>2296.6000976562</ele>
        <time>2023-07-20T08:31:02.000Z</time>
      </trkpt>
      <trkpt lat="42.62363" lon="1.74897">
        <ele>2297</ele>
        <time>2023-07-20T08:31:07.000Z</time>
      </trkpt>
      <trkpt lat="42.6236" lon="1.749">
        <ele>2296.8000488281</ele>
        <time>2023-07-20T08:31:17.000Z</time>
      </trkpt>
      <trkpt lat="42.62361" lon="1.74898">
        <ele>2295.8000488281</ele>
        <time>2023-07-20T08:31:26.000Z</time>
      </trkpt>
      <trkpt lat="42.6236" lon="1.74898">
        <ele>2295.3999023438</ele>
        <time>2023-07-20T08:31:27.000Z</time>
      </trkpt>
      <trkpt lat="42.6236" lon="1.74896">
        <ele>2294.3999023438</ele>
        <time>2023-07-20T08:31:32.000Z</time>
      </trkpt>
      <trkpt lat="42.6236" lon="1.74896">
        <ele>2294.1999511719</ele>
        <time>2023-07-20T08:31:33.000Z</time>
      </trkpt>
      <trkpt lat="42.62358" lon="1.74892">
        <ele>2294</ele>
        <time>2023-07-20T08:31:39.000Z</time>
      </trkpt>
      <trkpt lat="42.62352" lon="1.74888">
        <ele>2294.8000488281</ele>
        <time>2023-07-20T08:31:47.000Z</time>
      </trkpt>
      <trkpt lat="42.62349" lon="1.74886">
        <ele>2295.3999023438</ele>
        <time>2023-07-20T08:31:50.000Z</time>
      </trkpt>
      <trkpt lat="42.62347" lon="1.74885">
        <ele>2296.6000976562</ele>
        <time>2023-07-20T08:31:54.000Z</time>
      </trkpt>
      <trkpt lat="42.62345" lon="1.74883">
        <ele>2297.8000488281</ele>
        <time>2023-07-20T08:31:59.000Z</time>
      </trkpt>
      <trkpt lat="42.62345" lon="1.74883">
        <ele>2298</ele>
        <time>2023-07-20T08:32:02.000Z</time>
      </trkpt>
      <trkpt lat="42.62343" lon="1.74876">
        <ele>2297.3999023438</ele>
        <time>2023-07-20T08:32:09.000Z</time>
      </trkpt>
      <trkpt lat="42.6234" lon="1.74875">
        <ele>2297</ele>
        <time>2023-07-20T08:32:17.000Z</time>
      </trkpt>
      <trkpt lat="42.62336" lon="1.74874">
        <ele>2297.1999511719</ele>
        <time>2023-07-20T08:32:25.000Z</time>
      </trkpt>
      <trkpt lat="42.62334" lon="1.74867">
        <ele>2297.3999023438</ele>
        <time>2023-07-20T08:32:32.000Z</time>
      </trkpt>
      <trkpt lat="42.62334" lon="1.74864">
        <ele>2297.8000488281</ele>
        <time>2023-07-20T08:32:39.000Z</time>
      </trkpt>
      <trkpt lat="42.62333" lon="1.7486">
        <ele>2298</ele>
        <time>2023-07-20T08:32:46.000Z</time>
      </trkpt>
      <trkpt lat="42.62334" lon="1.74854">
        <ele>2298.3999023438</ele>
        <time>2023-07-20T08:32:54.000Z</time>
      </trkpt>
      <trkpt lat="42.62333" lon="1.74852">
        <ele>2298.8000488281</ele>
        <time>2023-07-20T08:32:58.000Z</time>
      </trkpt>
      <trkpt lat="42.62332" lon="1.74852">
        <ele>2299.1999511719</ele>
        <time>2023-07-20T08:33:04.000Z</time>
      </trkpt>
      <trkpt lat="42.62331" lon="1.74846">
        <ele>2299.6000976562</ele>
        <time>2023-07-20T08:33:11.000Z</time>
      </trkpt>
      <trkpt lat="42.62332" lon="1.74846">
        <ele>2299.6000976562</ele>
        <time>2023-07-20T08:33:18.000Z</time>
      </trkpt>
      <trkpt lat="42.62331" lon="1.74842">
        <ele>2299.8000488281</ele>
        <time>2023-07-20T08:33:27.000Z</time>
      </trkpt>
      <trkpt lat="42.62332" lon="1.74842">
        <ele>2299.8000488281</ele>
        <time>2023-07-20T08:33:34.000Z</time>
      </trkpt>
      <trkpt lat="42.62332" lon="1.74842">
        <ele>2299.8000488281</ele>
        <time>2023-07-20T08:33:35.000Z</time>
      </trkpt>
      <trkpt lat="42.62331" lon="1.74841">
        <ele>2300</ele>
        <time>2023-07-20T08:33:42.000Z</time>
      </trkpt>
      <trkpt lat="42.6233" lon="1.74844">
        <ele>2300.1999511719</ele>
        <time>2023-07-20T08:33:50.000Z</time>
      </trkpt>
      <trkpt lat="42.62331" lon="1.74839">
        <ele>2300.8000488281</ele>
        <time>2023-07-20T08:34:02.000Z</time>
      </trkpt>
      <trkpt lat="42.62332" lon="1.7484">
        <ele>2300.6000976562</ele>
        <time>2023-07-20T08:34:11.000Z</time>
      </trkpt>
      <trkpt lat="42.62334" lon="1.74837">
        <ele>2300</ele>
        <time>2023-07-20T08:34:20.000Z</time>
      </trkpt>
      <trkpt lat="42.62332" lon="1.7484">
        <ele>2300.1999511719</ele>
        <time>2023-07-20T08:34:29.000Z</time>
      </trkpt>
      <trkpt lat="42.62331" lon="1.74841">
        <ele>2300.1999511719</ele>
        <time>2023-07-20T08:34:36.000Z</time>
      </trkpt>
      <trkpt lat="42.6233" lon="1.74839">
        <ele>2299.6000976562</ele>
        <time>2023-07-20T08:34:40.000Z</time>
      </trkpt>
      <trkpt lat="42.62329" lon="1.74839">
        <ele>2299.1999511719</ele>
        <time>2023-07-20T08:34:43.000Z</time>
      </trkpt>
      <trkpt lat="42.62328" lon="1.74839">
        <ele>2298.6000976562</ele>
        <time>2023-07-20T08:34:51.000Z</time>
      </trkpt>
      <trkpt lat="42.62328" lon="1.74839">
        <ele>2298.3999023438</ele>
        <time>2023-07-20T08:34:52.000Z</time>
      </trkpt>
      <trkpt lat="42.62324" lon="1.74839">
        <ele>2297.8000488281</ele>
        <time>2023-07-20T08:34:58.000Z</time>
      </trkpt>
      <trkpt lat="42.62324" lon="1.7484">
        <ele>2297.6000976562</ele>
        <time>2023-07-20T08:35:00.000Z</time>
      </trkpt>
      <trkpt lat="42.62323" lon="1.74841">
        <ele>2297</ele>
        <time>2023-07-20T08:35:05.000Z</time>
      </trkpt>
      <trkpt lat="42.6232" lon="1.7484">
        <ele>2296.3999023438</ele>
        <time>2023-07-20T08:35:14.000Z</time>
      </trkpt>
      <trkpt lat="42.62317" lon="1.74838">
        <ele>2296.8000488281</ele>
        <time>2023-07-20T08:35:22.000Z</time>
      </trkpt>
      <trkpt lat="42.62312" lon="1.74837">
        <ele>2296.3999023438</ele>
        <time>2023-07-20T08:35:30.000Z</time>
      </trkpt>
      <trkpt lat="42.62309" lon="1.74832">
        <ele>2297</ele>
        <time>2023-07-20T08:35:38.000Z</time>
      </trkpt>
      <trkpt lat="42.62308" lon="1.74827">
        <ele>2297.3999023438</ele>
        <time>2023-07-20T08:35:47.000Z</time>
      </trkpt>
      <trkpt lat="42.62306" lon="1.74824">
        <ele>2296.8000488281</ele>
        <time>2023-07-20T08:35:57.000Z</time>
      </trkpt>
      <trkpt lat="42.62304" lon="1.74818">
        <ele>2297</ele>
        <time>2023-07-20T08:36:04.000Z</time>
      </trkpt>
      <trkpt lat="42.62301" lon="1.74809">
        <ele>2297.3999023438</ele>
        <time>2023-07-20T08:36:14.000Z</time>
      </trkpt>
      <trkpt lat="42.62301" lon="1.74808">
        <ele>2297.6000976562</ele>
        <time>2023-07-20T08:36:15.000Z</time>
      </trkpt>
      <trkpt lat="42.62302" lon="1.74804">
        <ele>2298</ele>
        <time>2023-07-20T08:36:22.000Z</time>
      </trkpt>
      <trkpt lat="42.62304" lon="1.74799">
        <ele>2297.6000976562</ele>
        <time>2023-07-20T08:36:28.000Z</time>
      </trkpt>
      <trkpt lat="42.62304" lon="1.74796">
        <ele>2297.6000976562</ele>
        <time>2023-07-20T08:36:36.000Z</time>
      </trkpt>
      <trkpt lat="42.62306" lon="1.74794">
        <ele>2297.3999023438</ele>
        <time>2023-07-20T08:36:44.000Z</time>
      </trkpt>
      <trkpt lat="42.62302" lon="1.74793">
        <ele>2297.3999023438</ele>
        <time>2023-07-20T08:36:51.000Z</time>
      </trkpt>
      <trkpt lat="42.62304" lon="1.74792">
        <ele>2297</ele>
        <time>2023-07-20T08:37:01.000Z</time>
      </trkpt>
      <trkpt lat="42.62305" lon="1.7479">
        <ele>2298.1999511719</ele>
        <time>2023-07-20T08:37:07.000Z</time>
      </trkpt>
      <trkpt lat="42.62306" lon="1.74789">
        <ele>2298.6000976562</ele>
        <time>2023-07-20T08:37:10.000Z</time>
      </trkpt>
      <trkpt lat="42.62307" lon="1.74787">
        <ele>2299.1999511719</ele>
        <time>2023-07-20T08:37:15.000Z</time>
      </trkpt>
      <trkpt lat="42.62307" lon="1.74785">
        <ele>2299.6000976562</ele>
        <time>2023-07-20T08:37:24.000Z</time>
      </trkpt>
      <trkpt lat="42.6231" lon="1.74781">
        <ele>2299.6000976562</ele>
        <time>2023-07-20T08:37:27.000Z</time>
      </trkpt>
      <trkpt lat="42.6231" lon="1.74779">
        <ele>2300</ele>
        <time>2023-07-20T08:37:30.000Z</time>
      </trkpt>
      <trkpt lat="42.62309" lon="1.74778">
        <ele>2299.8000488281</ele>
        <time>2023-07-20T08:37:38.000Z</time>
      </trkpt>
      <trkpt lat="42.62309" lon="1.74773">
        <ele>2299.3999023438</ele>
        <time>2023-07-20T08:37:44.000Z</time>
      </trkpt>
      <trkpt lat="42.62307" lon="1.74768">
        <ele>2298.8000488281</ele>
        <time>2023-07-20T08:37:51.000Z</time>
      </trkpt>
      <trkpt lat="42.62306" lon="1.74766">
        <ele>2298.6000976562</ele>
        <time>2023-07-20T08:37:55.000Z</time>
      </trkpt>
      <trkpt lat="42.62307" lon="1.74765">
        <ele>2298.6000976562</ele>
        <time>2023-07-20T08:37:58.000Z</time>
      </trkpt>
      <trkpt lat="42.62308" lon="1.74761">
        <ele>2298.3999023438</ele>
        <time>2023-07-20T08:38:04.000Z</time>
      </trkpt>
      <trkpt lat="42.62309" lon="1.74757">
        <ele>2298.3999023438</ele>
        <time>2023-07-20T08:38:10.000Z</time>
      </trkpt>
      <trkpt lat="42.62307" lon="1.74749">
        <ele>2299</ele>
        <time>2023-07-20T08:38:18.000Z</time>
      </trkpt>
      <trkpt lat="42.62306" lon="1.74743">
        <ele>2299.1999511719</ele>
        <time>2023-07-20T08:38:27.000Z</time>
      </trkpt>
      <trkpt lat="42.62306" lon="1.74733">
        <ele>2298.1999511719</ele>
        <time>2023-07-20T08:38:35.000Z</time>
      </trkpt>
      <trkpt lat="42.62306" lon="1.74724">
        <ele>2298.8000488281</ele>
        <time>2023-07-20T08:38:42.000Z</time>
      </trkpt>
      <trkpt lat="42.62307" lon="1.74719">
        <ele>2299.6000976562</ele>
        <time>2023-07-20T08:38:49.000Z</time>
      </trkpt>
      <trkpt lat="42.62307" lon="1.74718">
        <ele>2299.6000976562</ele>
        <time>2023-07-20T08:38:50.000Z</time>
      </trkpt>
      <trkpt lat="42.62306" lon="1.74718">
        <ele>2300.6000976562</ele>
        <time>2023-07-20T08:38:59.000Z</time>
      </trkpt>
      <trkpt lat="42.62305" lon="1.74718">
        <ele>2300.6000976562</ele>
        <time>2023-07-20T08:39:00.000Z</time>
      </trkpt>
      <trkpt lat="42.62301" lon="1.74716">
        <ele>2300</ele>
        <time>2023-07-20T08:39:08.000Z</time>
      </trkpt>
      <trkpt lat="42.62299" lon="1.7471">
        <ele>2300.3999023438</ele>
        <time>2023-07-20T08:39:17.000Z</time>
      </trkpt>
      <trkpt lat="42.62294" lon="1.74705">
        <ele>2299.6000976562</ele>
        <time>2023-07-20T08:39:26.000Z</time>
      </trkpt>
      <trkpt lat="42.62292" lon="1.74704">
        <ele>2299.3999023438</ele>
        <time>2023-07-20T08:39:28.000Z</time>
      </trkpt>
      <trkpt lat="42.6229" lon="1.74704">
        <ele>2299</ele>
        <time>2023-07-20T08:39:34.000Z</time>
      </trkpt>
      <trkpt lat="42.62288" lon="1.74701">
        <ele>2298.8000488281</ele>
        <time>2023-07-20T08:39:40.000Z</time>
      </trkpt>
      <trkpt lat="42.62288" lon="1.74701">
        <ele>2298.6000976562</ele>
        <time>2023-07-20T08:39:43.000Z</time>
      </trkpt>
      <trkpt lat="42.62288" lon="1.74701">
        <ele>2298.3999023438</ele>
        <time>2023-07-20T08:39:48.000Z</time>
      </trkpt>
      <trkpt lat="42.6229" lon="1.74701">
        <ele>2297.8000488281</ele>
        <time>2023-07-20T08:39:56.000Z</time>
      </trkpt>
      <trkpt lat="42.62288" lon="1.747">
        <ele>2297.6000976562</ele>
        <time>2023-07-20T08:40:06.000Z</time>
      </trkpt>
      <trkpt lat="42.6229" lon="1.74698">
        <ele>2296.8000488281</ele>
        <time>2023-07-20T08:40:16.000Z</time>
      </trkpt>
      <trkpt lat="42.6229" lon="1.74698">
        <ele>2296.8000488281</ele>
        <time>2023-07-20T08:40:24.000Z</time>
      </trkpt>
      <trkpt lat="42.62289" lon="1.74703">
        <ele>2297.8000488281</ele>
        <time>2023-07-20T08:40:35.000Z</time>
      </trkpt>
      <trkpt lat="42.62287" lon="1.74696">
        <ele>2298.3999023438</ele>
        <time>2023-07-20T08:40:43.000Z</time>
      </trkpt>
      <trkpt lat="42.62286" lon="1.74692">
        <ele>2298.1999511719</ele>
        <time>2023-07-20T08:40:50.000Z</time>
      </trkpt>
      <trkpt lat="42.62285" lon="1.74686">
        <ele>2298.3999023438</ele>
        <time>2023-07-20T08:40:58.000Z</time>
      </trkpt>
      <trkpt lat="42.62284" lon="1.74682">
        <ele>2298.6000976562</ele>
        <time>2023-07-20T08:41:05.000Z</time>
      </trkpt>
      <trkpt lat="42.62285" lon="1.74683">
        <ele>2298.8000488281</ele>
        <time>2023-07-20T08:41:07.000Z</time>
      </trkpt>
      <trkpt lat="42.62288" lon="1.74681">
        <ele>2299.8000488281</ele>
        <time>2023-07-20T08:41:11.000Z</time>
      </trkpt>
      <trkpt lat="42.62289" lon="1.74679">
        <ele>2300.6000976562</ele>
        <time>2023-07-20T08:41:15.000Z</time>
      </trkpt>
      <trkpt lat="42.6229" lon="1.74678">
        <ele>2300.8000488281</ele>
        <time>2023-07-20T08:41:16.000Z</time>
      </trkpt>
      <trkpt lat="42.62291" lon="1.74677">
        <ele>2301.6000976562</ele>
        <time>2023-07-20T08:41:22.000Z</time>
      </trkpt>
      <trkpt lat="42.62288" lon="1.74675">
        <ele>2301.8000488281</ele>
        <time>2023-07-20T08:41:27.000Z</time>
      </trkpt>
      <trkpt lat="42.62288" lon="1.74675">
        <ele>2301.8000488281</ele>
        <time>2023-07-20T08:41:30.000Z</time>
      </trkpt>
      <trkpt lat="42.62287" lon="1.74679">
        <ele>2301.1999511719</ele>
        <time>2023-07-20T08:41:38.000Z</time>
      </trkpt>
      <trkpt lat="42.62286" lon="1.74678">
        <ele>2300.8000488281</ele>
        <time>2023-07-20T08:41:42.000Z</time>
      </trkpt>
      <trkpt lat="42.62286" lon="1.74678">
        <ele>2300.6000976562</ele>
        <time>2023-07-20T08:41:45.000Z</time>
      </trkpt>
      <trkpt lat="42.62286" lon="1.74681">
        <ele>2299.8000488281</ele>
        <time>2023-07-20T08:41:50.000Z</time>
      </trkpt>
      <trkpt lat="42.62287" lon="1.74678">
        <ele>2299.8000488281</ele>
        <time>2023-07-20T08:41:53.000Z</time>
      </trkpt>
      <trkpt lat="42.62287" lon="1.74675">
        <ele>2300.8000488281</ele>
        <time>2023-07-20T08:42:00.000Z</time>
      </trkpt>
      <trkpt lat="42.62287" lon="1.74674">
        <ele>2301.8000488281</ele>
        <time>2023-07-20T08:42:02.000Z</time>
      </trkpt>
      <trkpt lat="42.62287" lon="1.74673">
        <ele>2302.1999511719</ele>
        <time>2023-07-20T08:42:03.000Z</time>
      </trkpt>
      <trkpt lat="42.62284" lon="1.7467">
        <ele>2302.6000976562</ele>
        <time>2023-07-20T08:42:10.000Z</time>
      </trkpt>
      <trkpt lat="42.62285" lon="1.74665">
        <ele>2303</ele>
        <time>2023-07-20T08:42:18.000Z</time>
      </trkpt>
      <trkpt lat="42.62285" lon="1.74664">
        <ele>2303.1999511719</ele>
        <time>2023-07-20T08:42:20.000Z</time>
      </trkpt>
      <trkpt lat="42.62284" lon="1.74663">
        <ele>2303.6000976562</ele>
        <time>2023-07-20T08:42:26.000Z</time>
      </trkpt>
      <trkpt lat="42.62283" lon="1.74661">
        <ele>2304.1999511719</ele>
        <time>2023-07-20T08:42:33.000Z</time>
      </trkpt>
      <trkpt lat="42.62281" lon="1.74657">
        <ele>2304.3999023438</ele>
        <time>2023-07-20T08:42:36.000Z</time>
      </trkpt>
      <trkpt lat="42.6228" lon="1.74659">
        <ele>2304.3999023438</ele>
        <time>2023-07-20T08:42:43.000Z</time>
      </trkpt>
      <trkpt lat="42.6228" lon="1.74659">
        <ele>2304.3999023438</ele>
        <time>2023-07-20T08:42:51.000Z</time>
      </trkpt>
      <trkpt lat="42.62281" lon="1.74658">
        <ele>2304.8000488281</ele>
        <time>2023-07-20T08:43:01.000Z</time>
      </trkpt>
      <trkpt lat="42.6228" lon="1.74658">
        <ele>2305</ele>
        <time>2023-07-20T08:43:07.000Z</time>
      </trkpt>
      <trkpt lat="42.62279" lon="1.74657">
        <ele>2305</ele>
        <time>2023-07-20T08:43:15.000Z</time>
      </trkpt>
      <trkpt lat="42.62278" lon="1.74653">
        <ele>2305</ele>
        <time>2023-07-20T08:43:23.000Z</time>
      </trkpt>
      <trkpt lat="42.62277" lon="1.7465">
        <ele>2305.1999511719</ele>
        <time>2023-07-20T08:43:30.000Z</time>
      </trkpt>
      <trkpt lat="42.62276" lon="1.74649">
        <ele>2305.1999511719</ele>
        <time>2023-07-20T08:43:31.000Z</time>
      </trkpt>
      <trkpt lat="42.62276" lon="1.74649">
        <ele>2305.1999511719</ele>
        <time>2023-07-20T08:43:35.000Z</time>
      </trkpt>
      <trkpt lat="42.62271" lon="1.74646">
        <ele>2304.6000976562</ele>
        <time>2023-07-20T08:43:43.000Z</time>
      </trkpt>
      <trkpt lat="42.62269" lon="1.74647">
        <ele>2304.6000976562</ele>
        <time>2023-07-20T08:43:50.000Z</time>
      </trkpt>
      <trkpt lat="42.62266" lon="1.74646">
        <ele>2304.6000976562</ele>
        <time>2023-07-20T08:43:57.000Z</time>
      </trkpt>
      <trkpt lat="42.62262" lon="1.74643">
        <ele>2304.6000976562</ele>
        <time>2023-07-20T08:44:03.000Z</time>
      </trkpt>
      <trkpt lat="42.62262" lon="1.74642">
        <ele>2304.1999511719</ele>
        <time>2023-07-20T08:44:06.000Z</time>
      </trkpt>
      <trkpt lat="42.62261" lon="1.74642">
        <ele>2304</ele>
        <time>2023-07-20T08:44:10.000Z</time>
      </trkpt>
      <trkpt lat="42.62259" lon="1.74639">
        <ele>2304.1999511719</ele>
        <time>2023-07-20T08:44:18.000Z</time>
      </trkpt>
      <trkpt lat="42.62257" lon="1.74638">
        <ele>2303.6000976562</ele>
        <time>2023-07-20T08:44:25.000Z</time>
      </trkpt>
      <trkpt lat="42.62257" lon="1.74633">
        <ele>2303.8000488281</ele>
        <time>2023-07-20T08:44:32.000Z</time>
      </trkpt>
      <trkpt lat="42.62255" lon="1.74632">
        <ele>2304.1999511719</ele>
        <time>2023-07-20T08:44:39.000Z</time>
      </trkpt>
      <trkpt lat="42.62252" lon="1.7463">
        <ele>2304.3999023438</ele>
        <time>2023-07-20T08:44:48.000Z</time>
      </trkpt>
      <trkpt lat="42.6225" lon="1.74631">
        <ele>2304.8000488281</ele>
        <time>2023-07-20T08:44:55.000Z</time>
      </trkpt>
      <trkpt lat="42.6225" lon="1.74628">
        <ele>2304.6000976562</ele>
        <time>2023-07-20T08:45:03.000Z</time>
      </trkpt>
      <trkpt lat="42.6225" lon="1.74629">
        <ele>2304.3999023438</ele>
        <time>2023-07-20T08:45:10.000Z</time>
      </trkpt>
      <trkpt lat="42.6225" lon="1.7463">
        <ele>2304.6000976562</ele>
        <time>2023-07-20T08:45:19.000Z</time>
      </trkpt>
      <trkpt lat="42.62249" lon="1.74629">
        <ele>2304.6000976562</ele>
        <time>2023-07-20T08:45:28.000Z</time>
      </trkpt>
      <trkpt lat="42.62246" lon="1.7463">
        <ele>2304.8000488281</ele>
        <time>2023-07-20T08:45:37.000Z</time>
      </trkpt>
      <trkpt lat="42.62242" lon="1.7463">
        <ele>2304.8000488281</ele>
        <time>2023-07-20T08:45:43.000Z</time>
      </trkpt>
      <trkpt lat="42.6224" lon="1.74629">
        <ele>2305</ele>
        <time>2023-07-20T08:45:49.000Z</time>
      </trkpt>
      <trkpt lat="42.6224" lon="1.74628">
        <ele>2305.3999023438</ele>
        <time>2023-07-20T08:45:50.000Z</time>
      </trkpt>
      <trkpt lat="42.62238" lon="1.74627">
        <ele>2306.1999511719</ele>
        <time>2023-07-20T08:45:55.000Z</time>
      </trkpt>
      <trkpt lat="42.62238" lon="1.74625">
        <ele>2306.3999023438</ele>
        <time>2023-07-20T08:46:02.000Z</time>
      </trkpt>
      <trkpt lat="42.62236" lon="1.74628">
        <ele>2306.3999023438</ele>
        <time>2023-07-20T08:46:10.000Z</time>
      </trkpt>
      <trkpt lat="42.62235" lon="1.74629">
        <ele>2306.3999023438</ele>
        <time>2023-07-20T08:46:14.000Z</time>
      </trkpt>
      <trkpt lat="42.62234" lon="1.74626">
        <ele>2306.3999023438</ele>
        <time>2023-07-20T08:46:19.000Z</time>
      </trkpt>
      <trkpt lat="42.62234" lon="1.74623">
        <ele>2306.3999023438</ele>
        <time>2023-07-20T08:46:26.000Z</time>
      </trkpt>
      <trkpt lat="42.62232" lon="1.74622">
        <ele>2306.1999511719</ele>
        <time>2023-07-20T08:46:31.000Z</time>
      </trkpt>
      <trkpt lat="42.6223" lon="1.7462">
        <ele>2306.6000976562</ele>
        <time>2023-07-20T08:46:39.000Z</time>
      </trkpt>
      <trkpt lat="42.62228" lon="1.74615">
        <ele>2306.3999023438</ele>
        <time>2023-07-20T08:46:47.000Z</time>
      </trkpt>
      <trkpt lat="42.62226" lon="1.74611">
        <ele>2306</ele>
        <time>2023-07-20T08:46:53.000Z</time>
      </trkpt>
      <trkpt lat="42.62224" lon="1.74608">
        <ele>2305.6000976562</ele>
        <time>2023-07-20T08:46:59.000Z</time>
      </trkpt>
      <trkpt lat="42.62223" lon="1.74603">
        <ele>2305.3999023438</ele>
        <time>2023-07-20T08:47:08.000Z</time>
      </trkpt>
      <trkpt lat="42.62223" lon="1.74602">
        <ele>2305.3999023438</ele>
        <time>2023-07-20T08:47:09.000Z</time>
      </trkpt>
      <trkpt lat="42.6222" lon="1.74597">
        <ele>2305.3999023438</ele>
        <time>2023-07-20T08:47:17.000Z</time>
      </trkpt>
      <trkpt lat="42.62218" lon="1.74592">
        <ele>2305.8000488281</ele>
        <time>2023-07-20T08:47:23.000Z</time>
      </trkpt>
      <trkpt lat="42.62217" lon="1.74591">
        <ele>2306</ele>
        <time>2023-07-20T08:47:31.000Z</time>
      </trkpt>
      <trkpt lat="42.62215" lon="1.74586">
        <ele>2305.6000976562</ele>
        <time>2023-07-20T08:47:40.000Z</time>
      </trkpt>
      <trkpt lat="42.62214" lon="1.74583">
        <ele>2306.3999023438</ele>
        <time>2023-07-20T08:47:45.000Z</time>
      </trkpt>
      <trkpt lat="42.62213" lon="1.74582">
        <ele>2306.3999023438</ele>
        <time>2023-07-20T08:47:48.000Z</time>
      </trkpt>
      <trkpt lat="42.62211" lon="1.74579">
        <ele>2306</ele>
        <time>2023-07-20T08:47:56.000Z</time>
      </trkpt>
      <trkpt lat="42.62208" lon="1.74576">
        <ele>2306</ele>
        <time>2023-07-20T08:48:03.000Z</time>
      </trkpt>
      <trkpt lat="42.62206" lon="1.74572">
        <ele>2305.8000488281</ele>
        <time>2023-07-20T08:48:10.000Z</time>
      </trkpt>
      <trkpt lat="42.62205" lon="1.74566">
        <ele>2306</ele>
        <time>2023-07-20T08:48:17.000Z</time>
      </trkpt>
      <trkpt lat="42.62202" lon="1.74563">
        <ele>2306</ele>
        <time>2023-07-20T08:48:25.000Z</time>
      </trkpt>
      <trkpt lat="42.62203" lon="1.74559">
        <ele>2305.8000488281</ele>
        <time>2023-07-20T08:48:31.000Z</time>
      </trkpt>
      <trkpt lat="42.62203" lon="1.74556">
        <ele>2306.1999511719</ele>
        <time>2023-07-20T08:48:38.000Z</time>
      </trkpt>
      <trkpt lat="42.62202" lon="1.74556">
        <ele>2306.3999023438</ele>
        <time>2023-07-20T08:48:45.000Z</time>
      </trkpt>
      <trkpt lat="42.622" lon="1.74554">
        <ele>2306.3999023438</ele>
        <time>2023-07-20T08:48:52.000Z</time>
      </trkpt>
      <trkpt lat="42.62196" lon="1.74552">
        <ele>2305.3999023438</ele>
        <time>2023-07-20T08:49:00.000Z</time>
      </trkpt>
      <trkpt lat="42.62195" lon="1.74552">
        <ele>2305.3999023438</ele>
        <time>2023-07-20T08:49:01.000Z</time>
      </trkpt>
      <trkpt lat="42.62193" lon="1.74549">
        <ele>2305.3999023438</ele>
        <time>2023-07-20T08:49:08.000Z</time>
      </trkpt>
      <trkpt lat="42.62191" lon="1.74546">
        <ele>2305.6000976562</ele>
        <time>2023-07-20T08:49:16.000Z</time>
      </trkpt>
      <trkpt lat="42.6219" lon="1.74545">
        <ele>2305.6000976562</ele>
        <time>2023-07-20T08:49:24.000Z</time>
      </trkpt>
      <trkpt lat="42.62189" lon="1.7454">
        <ele>2306.1999511719</ele>
        <time>2023-07-20T08:49:32.000Z</time>
      </trkpt>
      <trkpt lat="42.62188" lon="1.74539">
        <ele>2305.8000488281</ele>
        <time>2023-07-20T08:49:39.000Z</time>
      </trkpt>
      <trkpt lat="42.62186" lon="1.74541">
        <ele>2304.6000976562</ele>
        <time>2023-07-20T08:49:47.000Z</time>
      </trkpt>
      <trkpt lat="42.62183" lon="1.74537">
        <ele>2305</ele>
        <time>2023-07-20T08:49:55.000Z</time>
      </trkpt>
      <trkpt lat="42.62179" lon="1.74538">
        <ele>2304.6000976562</ele>
        <time>2023-07-20T08:50:04.000Z</time>
      </trkpt>
      <trkpt lat="42.62177" lon="1.74536">
        <ele>2304.3999023438</ele>
        <time>2023-07-20T08:50:10.000Z</time>
      </trkpt>
      <trkpt lat="42.62177" lon="1.74535">
        <ele>2304.3999023438</ele>
        <time>2023-07-20T08:50:11.000Z</time>
      </trkpt>
      <trkpt lat="42.62175" lon="1.74532">
        <ele>2304.3999023438</ele>
        <time>2023-07-20T08:50:19.000Z</time>
      </trkpt>
      <trkpt lat="42.62175" lon="1.7453">
        <ele>2304</ele>
        <time>2023-07-20T08:50:28.000Z</time>
      </trkpt>
      <trkpt lat="42.62172" lon="1.74527">
        <ele>2304.3999023438</ele>
        <time>2023-07-20T08:50:36.000Z</time>
      </trkpt>
      <trkpt lat="42.62169" lon="1.74525">
        <ele>2304.8000488281</ele>
        <time>2023-07-20T08:50:45.000Z</time>
      </trkpt>
      <trkpt lat="42.62168" lon="1.74523">
        <ele>2305.3999023438</ele>
        <time>2023-07-20T08:50:50.000Z</time>
      </trkpt>
      <trkpt lat="42.62167" lon="1.74522">
        <ele>2305.6000976562</ele>
        <time>2023-07-20T08:50:52.000Z</time>
      </trkpt>
      <trkpt lat="42.62165" lon="1.74521">
        <ele>2305.6000976562</ele>
        <time>2023-07-20T08:51:00.000Z</time>
      </trkpt>
      <trkpt lat="42.62162" lon="1.74519">
        <ele>2305.6000976562</ele>
        <time>2023-07-20T08:51:07.000Z</time>
      </trkpt>
      <trkpt lat="42.62159" lon="1.74516">
        <ele>2305.3999023438</ele>
        <time>2023-07-20T08:51:15.000Z</time>
      </trkpt>
      <trkpt lat="42.62157" lon="1.74515">
        <ele>2305.6000976562</ele>
        <time>2023-07-20T08:51:21.000Z</time>
      </trkpt>
      <trkpt lat="42.62158" lon="1.74516">
        <ele>2305.3999023438</ele>
        <time>2023-07-20T08:51:29.000Z</time>
      </trkpt>
      <trkpt lat="42.62155" lon="1.74514">
        <ele>2305.3999023438</ele>
        <time>2023-07-20T08:51:36.000Z</time>
      </trkpt>
      <trkpt lat="42.62154" lon="1.74513">
        <ele>2305.1999511719</ele>
        <time>2023-07-20T08:51:44.000Z</time>
      </trkpt>
      <trkpt lat="42.62157" lon="1.74512">
        <ele>2304.8000488281</ele>
        <time>2023-07-20T08:51:51.000Z</time>
      </trkpt>
      <trkpt lat="42.62155" lon="1.74511">
        <ele>2304.8000488281</ele>
        <time>2023-07-20T08:51:58.000Z</time>
      </trkpt>
      <trkpt lat="42.62152" lon="1.74514">
        <ele>2304.3999023438</ele>
        <time>2023-07-20T08:52:02.000Z</time>
      </trkpt>
      <trkpt lat="42.62149" lon="1.74515">
        <ele>2304.3999023438</ele>
        <time>2023-07-20T08:52:05.000Z</time>
      </trkpt>
      <trkpt lat="42.62147" lon="1.74517">
        <ele>2304.8000488281</ele>
        <time>2023-07-20T08:52:14.000Z</time>
      </trkpt>
      <trkpt lat="42.62144" lon="1.7452">
        <ele>2305.1999511719</ele>
        <time>2023-07-20T08:52:21.000Z</time>
      </trkpt>
      <trkpt lat="42.62144" lon="1.74521">
        <ele>2305.3999023438</ele>
        <time>2023-07-20T08:52:23.000Z</time>
      </trkpt>
      <trkpt lat="42.62141" lon="1.74523">
        <ele>2305.6000976562</ele>
        <time>2023-07-20T08:52:30.000Z</time>
      </trkpt>
      <trkpt lat="42.62138" lon="1.74523">
        <ele>2305.3999023438</ele>
        <time>2023-07-20T08:52:39.000Z</time>
      </trkpt>
      <trkpt lat="42.62137" lon="1.74523">
        <ele>2306.3999023438</ele>
        <time>2023-07-20T08:52:43.000Z</time>
      </trkpt>
      <trkpt lat="42.62137" lon="1.74524">
        <ele>2307.3999023438</ele>
        <time>2023-07-20T08:52:46.000Z</time>
      </trkpt>
      <trkpt lat="42.62141" lon="1.74524">
        <ele>2306.8000488281</ele>
        <time>2023-07-20T08:52:52.000Z</time>
      </trkpt>
      <trkpt lat="42.6214" lon="1.74526">
        <ele>2305.3999023438</ele>
        <time>2023-07-20T08:52:59.000Z</time>
      </trkpt>
      <trkpt lat="42.62142" lon="1.74524">
        <ele>2305.1999511719</ele>
        <time>2023-07-20T08:53:06.000Z</time>
      </trkpt>
      <trkpt lat="42.62139" lon="1.74524">
        <ele>2305.8000488281</ele>
        <time>2023-07-20T08:53:11.000Z</time>
      </trkpt>
      <trkpt lat="42.62138" lon="1.74526">
        <ele>2306.3999023438</ele>
        <time>2023-07-20T08:53:24.000Z</time>
      </trkpt>
      <trkpt lat="42.62138" lon="1.74524">
        <ele>2305.6000976562</ele>
        <time>2023-07-20T08:53:32.000Z</time>
      </trkpt>
      <trkpt lat="42.62139" lon="1.74526">
        <ele>2305.3999023438</ele>
        <time>2023-07-20T08:53:37.000Z</time>
      </trkpt>
      <trkpt lat="42.6214" lon="1.74528">
        <ele>2305.1999511719</ele>
        <time>2023-07-20T08:53:39.000Z</time>
      </trkpt>
      <trkpt lat="42.62139" lon="1.74529">
        <ele>2305</ele>
        <time>2023-07-20T08:53:47.000Z</time>
      </trkpt>
      <trkpt lat="42.62137" lon="1.74524">
        <ele>2304.3999023438</ele>
        <time>2023-07-20T08:53:52.000Z</time>
      </trkpt>
      <trkpt lat="42.62136" lon="1.74523">
        <ele>2304.1999511719</ele>
        <time>2023-07-20T08:53:53.000Z</time>
      </trkpt>
      <trkpt lat="42.62131" lon="1.74523">
        <ele>2304.1999511719</ele>
        <time>2023-07-20T08:53:58.000Z</time>
      </trkpt>
      <trkpt lat="42.6213" lon="1.74523">
        <ele>2304.8000488281</ele>
        <time>2023-07-20T08:54:04.000Z</time>
      </trkpt>
      <trkpt lat="42.62126" lon="1.74527">
        <ele>2304.8000488281</ele>
        <time>2023-07-20T08:54:10.000Z</time>
      </trkpt>
      <trkpt lat="42.62124" lon="1.7453">
        <ele>2303.8000488281</ele>
        <time>2023-07-20T08:54:17.000Z</time>
      </trkpt>
      <trkpt lat="42.62118" lon="1.74533">
        <ele>2304.8000488281</ele>
        <time>2023-07-20T08:54:25.000Z</time>
      </trkpt>
      <trkpt lat="42.62114" lon="1.74532">
        <ele>2305.3999023438</ele>
        <time>2023-07-20T08:54:32.000Z</time>
      </trkpt>
      <trkpt lat="42.62114" lon="1.74532">
        <ele>2305.6000976562</ele>
        <time>2023-07-20T08:54:33.000Z</time>
      </trkpt>
      <trkpt lat="42.62116" lon="1.7453">
        <ele>2305.8000488281</ele>
        <time>2023-07-20T08:54:44.000Z</time>
      </trkpt>
      <trkpt lat="42.62113" lon="1.74526">
        <ele>2306.3999023438</ele>
        <time>2023-07-20T08:54:49.000Z</time>
      </trkpt>
      <trkpt lat="42.62113" lon="1.74526">
        <ele>2306.6000976562</ele>
        <time>2023-07-20T08:54:51.000Z</time>
      </trkpt>
      <trkpt lat="42.62111" lon="1.74524">
        <ele>2307</ele>
        <time>2023-07-20T08:55:00.000Z</time>
      </trkpt>
      <trkpt lat="42.62109" lon="1.7452">
        <ele>2306.8000488281</ele>
        <time>2023-07-20T08:55:06.000Z</time>
      </trkpt>
      <trkpt lat="42.62109" lon="1.74528">
        <ele>2306.3999023438</ele>
        <time>2023-07-20T08:55:13.000Z</time>
      </trkpt>
      <trkpt lat="42.62108" lon="1.74535">
        <ele>2305.8000488281</ele>
        <time>2023-07-20T08:55:19.000Z</time>
      </trkpt>
      <trkpt lat="42.62109" lon="1.74537">
        <ele>2306.3999023438</ele>
        <time>2023-07-20T08:55:27.000Z</time>
      </trkpt>
      <trkpt lat="42.62106" lon="1.74544">
        <ele>2305</ele>
        <time>2023-07-20T08:55:33.000Z</time>
      </trkpt>
      <trkpt lat="42.62106" lon="1.74546">
        <ele>2305</ele>
        <time>2023-07-20T08:55:35.000Z</time>
      </trkpt>
      <trkpt lat="42.62104" lon="1.74551">
        <ele>2305.6000976562</ele>
        <time>2023-07-20T08:55:42.000Z</time>
      </trkpt>
      <trkpt lat="42.62102" lon="1.74552">
        <ele>2306</ele>
        <time>2023-07-20T08:55:46.000Z</time>
      </trkpt>
      <trkpt lat="42.62102" lon="1.74553">
        <ele>2306.1999511719</ele>
        <time>2023-07-20T08:55:47.000Z</time>
      </trkpt>
      <trkpt lat="42.621" lon="1.74555">
        <ele>2306.3999023438</ele>
        <time>2023-07-20T08:55:54.000Z</time>
      </trkpt>
      <trkpt lat="42.621" lon="1.74554">
        <ele>2306.1999511719</ele>
        <time>2023-07-20T08:56:03.000Z</time>
      </trkpt>
      <trkpt lat="42.62101" lon="1.74555">
        <ele>2306</ele>
        <time>2023-07-20T08:56:08.000Z</time>
      </trkpt>
      <trkpt lat="42.62103" lon="1.74557">
        <ele>2306</ele>
        <time>2023-07-20T08:56:14.000Z</time>
      </trkpt>
      <trkpt lat="42.62102" lon="1.74561">
        <ele>2305.6000976562</ele>
        <time>2023-07-20T08:56:22.000Z</time>
      </trkpt>
      <trkpt lat="42.62099" lon="1.74566">
        <ele>2305.8000488281</ele>
        <time>2023-07-20T08:56:29.000Z</time>
      </trkpt>
      <trkpt lat="42.62102" lon="1.74567">
        <ele>2306</ele>
        <time>2023-07-20T08:56:37.000Z</time>
      </trkpt>
      <trkpt lat="42.62101" lon="1.74573">
        <ele>2305.6000976562</ele>
        <time>2023-07-20T08:56:45.000Z</time>
      </trkpt>
      <trkpt lat="42.62099" lon="1.74576">
        <ele>2305.6000976562</ele>
        <time>2023-07-20T08:56:53.000Z</time>
      </trkpt>
      <trkpt lat="42.621" lon="1.74574">
        <ele>2305</ele>
        <time>2023-07-20T08:57:00.000Z</time>
      </trkpt>
      <trkpt lat="42.621" lon="1.74574">
        <ele>2304.6000976562</ele>
        <time>2023-07-20T08:57:03.000Z</time>
      </trkpt>
      <trkpt lat="42.62099" lon="1.74579">
        <ele>2304</ele>
        <time>2023-07-20T08:57:12.000Z</time>
      </trkpt>
      <trkpt lat="42.62097" lon="1.74579">
        <ele>2305.1999511719</ele>
        <time>2023-07-20T08:57:21.000Z</time>
      </trkpt>
      <trkpt lat="42.62099" lon="1.74574">
        <ele>2305.6000976562</ele>
        <time>2023-07-20T08:57:26.000Z</time>
      </trkpt>
      <trkpt lat="42.62098" lon="1.74569">
        <ele>2306</ele>
        <time>2023-07-20T08:57:31.000Z</time>
      </trkpt>
      <trkpt lat="42.62097" lon="1.74569">
        <ele>2306.3999023438</ele>
        <time>2023-07-20T08:57:33.000Z</time>
      </trkpt>
      <trkpt lat="42.62095" lon="1.7457">
        <ele>2307</ele>
        <time>2023-07-20T08:57:41.000Z</time>
      </trkpt>
      <trkpt lat="42.62094" lon="1.7457">
        <ele>2307.1999511719</ele>
        <time>2023-07-20T08:57:42.000Z</time>
      </trkpt>
      <trkpt lat="42.62089" lon="1.74571">
        <ele>2307.8000488281</ele>
        <time>2023-07-20T08:57:50.000Z</time>
      </trkpt>
      <trkpt lat="42.62088" lon="1.74571">
        <ele>2308.1999511719</ele>
        <time>2023-07-20T08:57:52.000Z</time>
      </trkpt>
      <trkpt lat="42.62088" lon="1.7457">
        <ele>2309</ele>
        <time>2023-07-20T08:57:59.000Z</time>
      </trkpt>
      <trkpt lat="42.62087" lon="1.7457">
        <ele>2309.3999023438</ele>
        <time>2023-07-20T08:58:02.000Z</time>
      </trkpt>
      <trkpt lat="42.62085" lon="1.74571">
        <ele>2310.3999023438</ele>
        <time>2023-07-20T08:58:08.000Z</time>
      </trkpt>
      <trkpt lat="42.62085" lon="1.74572">
        <ele>2310.3999023438</ele>
        <time>2023-07-20T08:58:09.000Z</time>
      </trkpt>
      <trkpt lat="42.62082" lon="1.74571">
        <ele>2311.1999511719</ele>
        <time>2023-07-20T08:58:16.000Z</time>
      </trkpt>
      <trkpt lat="42.6208" lon="1.74569">
        <ele>2311.3999023438</ele>
        <time>2023-07-20T08:58:20.000Z</time>
      </trkpt>
      <trkpt lat="42.62078" lon="1.74566">
        <ele>2312.1999511719</ele>
        <time>2023-07-20T08:58:23.000Z</time>
      </trkpt>
      <trkpt lat="42.62077" lon="1.74565">
        <ele>2312.8000488281</ele>
        <time>2023-07-20T08:58:25.000Z</time>
      </trkpt>
      <trkpt lat="42.62074" lon="1.74564">
        <ele>2313.8000488281</ele>
        <time>2023-07-20T08:58:31.000Z</time>
      </trkpt>
      <trkpt lat="42.62073" lon="1.74563">
        <ele>2314.8000488281</ele>
        <time>2023-07-20T08:58:37.000Z</time>
      </trkpt>
      <trkpt lat="42.62072" lon="1.74563">
        <ele>2315.6000976562</ele>
        <time>2023-07-20T08:58:39.000Z</time>
      </trkpt>
      <trkpt lat="42.62072" lon="1.74562">
        <ele>2316.1999511719</ele>
        <time>2023-07-20T08:58:42.000Z</time>
      </trkpt>
      <trkpt lat="42.62071" lon="1.74562">
        <ele>2316.3999023438</ele>
        <time>2023-07-20T08:58:49.000Z</time>
      </trkpt>
      <trkpt lat="42.62068" lon="1.74558">
        <ele>2316.8000488281</ele>
        <time>2023-07-20T08:58:57.000Z</time>
      </trkpt>
      <trkpt lat="42.62067" lon="1.7456">
        <ele>2316.8000488281</ele>
        <time>2023-07-20T08:59:04.000Z</time>
      </trkpt>
      <trkpt lat="42.62067" lon="1.74558">
        <ele>2317.1999511719</ele>
        <time>2023-07-20T08:59:10.000Z</time>
      </trkpt>
      <trkpt lat="42.62065" lon="1.74557">
        <ele>2317.3999023438</ele>
        <time>2023-07-20T08:59:12.000Z</time>
      </trkpt>
      <trkpt lat="42.62062" lon="1.74554">
        <ele>2317.8000488281</ele>
        <time>2023-07-20T08:59:19.000Z</time>
      </trkpt>
      <trkpt lat="42.62058" lon="1.74552">
        <ele>2318</ele>
        <time>2023-07-20T08:59:25.000Z</time>
      </trkpt>
      <trkpt lat="42.62057" lon="1.74552">
        <ele>2318.1999511719</ele>
        <time>2023-07-20T08:59:27.000Z</time>
      </trkpt>
      <trkpt lat="42.62056" lon="1.74553">
        <ele>2318.6000976562</ele>
        <time>2023-07-20T08:59:31.000Z</time>
      </trkpt>
      <trkpt lat="42.62052" lon="1.7455">
        <ele>2318.1999511719</ele>
        <time>2023-07-20T08:59:38.000Z</time>
      </trkpt>
      <trkpt lat="42.62044" lon="1.74548">
        <ele>2319</ele>
        <time>2023-07-20T08:59:48.000Z</time>
      </trkpt>
      <trkpt lat="42.62043" lon="1.74548">
        <ele>2319.3999023438</ele>
        <time>2023-07-20T08:59:49.000Z</time>
      </trkpt>
      <trkpt lat="42.62041" lon="1.74547">
        <ele>2319</ele>
        <time>2023-07-20T08:59:56.000Z</time>
      </trkpt>
      <trkpt lat="42.62037" lon="1.74545">
        <ele>2320</ele>
        <time>2023-07-20T09:00:04.000Z</time>
      </trkpt>
      <trkpt lat="42.62036" lon="1.74541">
        <ele>2320.3999023438</ele>
        <time>2023-07-20T09:00:07.000Z</time>
      </trkpt>
      <trkpt lat="42.62033" lon="1.74538">
        <ele>2321.1999511719</ele>
        <time>2023-07-20T09:00:12.000Z</time>
      </trkpt>
      <trkpt lat="42.62033" lon="1.74538">
        <ele>2321.6000976562</ele>
        <time>2023-07-20T09:00:14.000Z</time>
      </trkpt>
      <trkpt lat="42.6203" lon="1.74535">
        <ele>2321.1999511719</ele>
        <time>2023-07-20T09:00:21.000Z</time>
      </trkpt>
      <trkpt lat="42.62027" lon="1.74534">
        <ele>2320.3999023438</ele>
        <time>2023-07-20T09:00:24.000Z</time>
      </trkpt>
      <trkpt lat="42.62027" lon="1.74534">
        <ele>2319.8000488281</ele>
        <time>2023-07-20T09:00:26.000Z</time>
      </trkpt>
      <trkpt lat="42.62024" lon="1.7453">
        <ele>2319.6000976562</ele>
        <time>2023-07-20T09:00:32.000Z</time>
      </trkpt>
      <trkpt lat="42.6202" lon="1.74529">
        <ele>2320</ele>
        <time>2023-07-20T09:00:39.000Z</time>
      </trkpt>
      <trkpt lat="42.62016" lon="1.74527">
        <ele>2320.6000976562</ele>
        <time>2023-07-20T09:00:45.000Z</time>
      </trkpt>
      <trkpt lat="42.62014" lon="1.74522">
        <ele>2321.6000976562</ele>
        <time>2023-07-20T09:00:51.000Z</time>
      </trkpt>
      <trkpt lat="42.62014" lon="1.74522">
        <ele>2321.8000488281</ele>
        <time>2023-07-20T09:00:52.000Z</time>
      </trkpt>
      <trkpt lat="42.62018" lon="1.74525">
        <ele>2322.3999023438</ele>
        <time>2023-07-20T09:00:58.000Z</time>
      </trkpt>
      <trkpt lat="42.62023" lon="1.74532">
        <ele>2322.3999023438</ele>
        <time>2023-07-20T09:01:07.000Z</time>
      </trkpt>
      <trkpt lat="42.62023" lon="1.74532">
        <ele>2321.8000488281</ele>
        <time>2023-07-20T09:01:14.000Z</time>
      </trkpt>
      <trkpt lat="42.62025" lon="1.74531">
        <ele>2321.1999511719</ele>
        <time>2023-07-20T09:01:20.000Z</time>
      </trkpt>
      <trkpt lat="42.62026" lon="1.74529">
        <ele>2321</ele>
        <time>2023-07-20T09:01:30.000Z</time>
      </trkpt>
      <trkpt lat="42.62023" lon="1.74531">
        <ele>2321.1999511719</ele>
        <time>2023-07-20T09:01:39.000Z</time>
      </trkpt>
      <trkpt lat="42.62026" lon="1.74529">
        <ele>2321.1999511719</ele>
        <time>2023-07-20T09:01:48.000Z</time>
      </trkpt>
      <trkpt lat="42.62025" lon="1.74534">
        <ele>2321.3999023438</ele>
        <time>2023-07-20T09:01:56.000Z</time>
      </trkpt>
      <trkpt lat="42.62024" lon="1.74534">
        <ele>2320.8000488281</ele>
        <time>2023-07-20T09:02:04.000Z</time>
      </trkpt>
      <trkpt lat="42.62024" lon="1.74534">
        <ele>2320.6000976562</ele>
        <time>2023-07-20T09:02:05.000Z</time>
      </trkpt>
      <trkpt lat="42.62024" lon="1.74534">
        <ele>2320.6000976562</ele>
        <time>2023-07-20T09:02:12.000Z</time>
      </trkpt>
      <trkpt lat="42.62024" lon="1.74533">
        <ele>2321.8000488281</ele>
        <time>2023-07-20T09:02:18.000Z</time>
      </trkpt>
      <trkpt lat="42.62025" lon="1.7453">
        <ele>2322.3999023438</ele>
        <time>2023-07-20T09:02:21.000Z</time>
      </trkpt>
      <trkpt lat="42.62024" lon="1.74531">
        <ele>2322.1999511719</ele>
        <time>2023-07-20T09:02:27.000Z</time>
      </trkpt>
      <trkpt lat="42.62023" lon="1.74533">
        <ele>2321.8000488281</ele>
        <time>2023-07-20T09:02:37.000Z</time>
      </trkpt>
      <trkpt lat="42.62023" lon="1.74533">
        <ele>2321.1999511719</ele>
        <time>2023-07-20T09:02:46.000Z</time>
      </trkpt>
      <trkpt lat="42.62024" lon="1.74535">
        <ele>2321.1999511719</ele>
        <time>2023-07-20T09:02:53.000Z</time>
      </trkpt>
      <trkpt lat="42.62025" lon="1.74536">
        <ele>2321.1999511719</ele>
        <time>2023-07-20T09:03:00.000Z</time>
      </trkpt>
      <trkpt lat="42.62023" lon="1.74535">
        <ele>2322</ele>
        <time>2023-07-20T09:03:08.000Z</time>
      </trkpt>
      <trkpt lat="42.62023" lon="1.74534">
        <ele>2322.3999023438</ele>
        <time>2023-07-20T09:03:16.000Z</time>
      </trkpt>
      <trkpt lat="42.6202" lon="1.74535">
        <ele>2323</ele>
        <time>2023-07-20T09:03:25.000Z</time>
      </trkpt>
      <trkpt lat="42.62022" lon="1.74534">
        <ele>2323</ele>
        <time>2023-07-20T09:03:34.000Z</time>
      </trkpt>
      <trkpt lat="42.62019" lon="1.74537">
        <ele>2322.6000976562</ele>
        <time>2023-07-20T09:03:43.000Z</time>
      </trkpt>
      <trkpt lat="42.62019" lon="1.74536">
        <ele>2321.8000488281</ele>
        <time>2023-07-20T09:03:46.000Z</time>
      </trkpt>
      <trkpt lat="42.62021" lon="1.74533">
        <ele>2322</ele>
        <time>2023-07-20T09:03:50.000Z</time>
      </trkpt>
      <trkpt lat="42.62022" lon="1.74534">
        <ele>2322.1999511719</ele>
        <time>2023-07-20T09:03:58.000Z</time>
      </trkpt>
      <trkpt lat="42.6202" lon="1.74534">
        <ele>2323.1999511719</ele>
        <time>2023-07-20T09:04:01.000Z</time>
      </trkpt>
      <trkpt lat="42.6202" lon="1.74534">
        <ele>2323.1999511719</ele>
        <time>2023-07-20T09:04:04.000Z</time>
      </trkpt>
      <trkpt lat="42.62022" lon="1.74531">
        <ele>2322.6000976562</ele>
        <time>2023-07-20T09:04:13.000Z</time>
      </trkpt>
      <trkpt lat="42.62022" lon="1.7453">
        <ele>2322.3999023438</ele>
        <time>2023-07-20T09:04:22.000Z</time>
      </trkpt>
      <trkpt lat="42.62022" lon="1.74529">
        <ele>2322.1999511719</ele>
        <time>2023-07-20T09:04:23.000Z</time>
      </trkpt>
      <trkpt lat="42.62022" lon="1.7453">
        <ele>2322.6000976562</ele>
        <time>2023-07-20T09:04:31.000Z</time>
      </trkpt>
      <trkpt lat="42.62021" lon="1.74529">
        <ele>2322.1999511719</ele>
        <time>2023-07-20T09:04:40.000Z</time>
      </trkpt>
      <trkpt lat="42.62022" lon="1.7453">
        <ele>2323.1999511719</ele>
        <time>2023-07-20T09:04:45.000Z</time>
      </trkpt>
      <trkpt lat="42.62022" lon="1.74529">
        <ele>2323.6000976562</ele>
        <time>2023-07-20T09:04:49.000Z</time>
      </trkpt>
      <trkpt lat="42.62021" lon="1.74532">
        <ele>2323.6000976562</ele>
        <time>2023-07-20T09:04:58.000Z</time>
      </trkpt>
      <trkpt lat="42.62019" lon="1.74534">
        <ele>2322.8000488281</ele>
        <time>2023-07-20T09:05:06.000Z</time>
      </trkpt>
      <trkpt lat="42.62022" lon="1.74529">
        <ele>2322.6000976562</ele>
        <time>2023-07-20T09:05:13.000Z</time>
      </trkpt>
      <trkpt lat="42.62021" lon="1.74531">
        <ele>2322.1999511719</ele>
        <time>2023-07-20T09:05:15.000Z</time>
      </trkpt>
      <trkpt lat="42.6202" lon="1.74531">
        <ele>2322.1999511719</ele>
        <time>2023-07-20T09:05:21.000Z</time>
      </trkpt>
      <trkpt lat="42.62021" lon="1.74533">
        <ele>2323.1999511719</ele>
        <time>2023-07-20T09:05:24.000Z</time>
      </trkpt>
      <trkpt lat="42.6202" lon="1.74532">
        <ele>2322.6000976562</ele>
        <time>2023-07-20T09:05:29.000Z</time>
      </trkpt>
      <trkpt lat="42.6202" lon="1.74532">
        <ele>2322</ele>
        <time>2023-07-20T09:05:30.000Z</time>
      </trkpt>
      <trkpt lat="42.62016" lon="1.74531">
        <ele>2322</ele>
        <time>2023-07-20T09:05:37.000Z</time>
      </trkpt>
      <trkpt lat="42.6202" lon="1.74529">
        <ele>2322.3999023438</ele>
        <time>2023-07-20T09:05:46.000Z</time>
      </trkpt>
      <trkpt lat="42.62021" lon="1.74531">
        <ele>2322.8000488281</ele>
        <time>2023-07-20T09:05:51.000Z</time>
      </trkpt>
      <trkpt lat="42.6202" lon="1.74529">
        <ele>2322.1999511719</ele>
        <time>2023-07-20T09:05:58.000Z</time>
      </trkpt>
      <trkpt lat="42.62019" lon="1.74525">
        <ele>2323.1999511719</ele>
        <time>2023-07-20T09:06:02.000Z</time>
      </trkpt>
      <trkpt lat="42.62018" lon="1.74523">
        <ele>2323.8000488281</ele>
        <time>2023-07-20T09:06:05.000Z</time>
      </trkpt>
      <trkpt lat="42.62016" lon="1.7452">
        <ele>2324.1999511719</ele>
        <time>2023-07-20T09:06:08.000Z</time>
      </trkpt>
      <trkpt lat="42.62011" lon="1.74514">
        <ele>2324.6000976562</ele>
        <time>2023-07-20T09:06:14.000Z</time>
      </trkpt>
      <trkpt lat="42.62006" lon="1.74508">
        <ele>2325.3999023438</ele>
        <time>2023-07-20T09:06:21.000Z</time>
      </trkpt>
      <trkpt lat="42.62004" lon="1.74506">
        <ele>2325.6000976562</ele>
        <time>2023-07-20T09:06:23.000Z</time>
      </trkpt>
      <trkpt lat="42.61997" lon="1.74499">
        <ele>2326.3999023438</ele>
        <time>2023-07-20T09:06:31.000Z</time>
      </trkpt>
      <trkpt lat="42.61992" lon="1.74493">
        <ele>2327.8000488281</ele>
        <time>2023-07-20T09:06:38.000Z</time>
      </trkpt>
      <trkpt lat="42.6199" lon="1.7449">
        <ele>2328.8000488281</ele>
        <time>2023-07-20T09:06:42.000Z</time>
      </trkpt>
      <trkpt lat="42.61988" lon="1.74489">
        <ele>2328.8000488281</ele>
        <time>2023-07-20T09:06:45.000Z</time>
      </trkpt>
      <trkpt lat="42.61984" lon="1.74488">
        <ele>2329</ele>
        <time>2023-07-20T09:06:52.000Z</time>
      </trkpt>
      <trkpt lat="42.61981" lon="1.74489">
        <ele>2330</ele>
        <time>2023-07-20T09:06:58.000Z</time>
      </trkpt>
      <trkpt lat="42.61979" lon="1.74488">
        <ele>2331.1999511719</ele>
        <time>2023-07-20T09:07:01.000Z</time>
      </trkpt>
      <trkpt lat="42.61973" lon="1.7449">
        <ele>2330.6000976562</ele>
        <time>2023-07-20T09:07:07.000Z</time>
      </trkpt>
      <trkpt lat="42.61973" lon="1.74491">
        <ele>2330</ele>
        <time>2023-07-20T09:07:09.000Z</time>
      </trkpt>
      <trkpt lat="42.6197" lon="1.74494">
        <ele>2329.8000488281</ele>
        <time>2023-07-20T09:07:13.000Z</time>
      </trkpt>
      <trkpt lat="42.61965" lon="1.74497">
        <ele>2330.1999511719</ele>
        <time>2023-07-20T09:07:19.000Z</time>
      </trkpt>
      <trkpt lat="42.61966" lon="1.74499">
        <ele>2330.6000976562</ele>
        <time>2023-07-20T09:07:26.000Z</time>
      </trkpt>
      <trkpt lat="42.61964" lon="1.74499">
        <ele>2330.6000976562</ele>
        <time>2023-07-20T09:07:32.000Z</time>
      </trkpt>
      <trkpt lat="42.61962" lon="1.745">
        <ele>2331</ele>
        <time>2023-07-20T09:07:38.000Z</time>
      </trkpt>
      <trkpt lat="42.6196" lon="1.745">
        <ele>2331.1999511719</ele>
        <time>2023-07-20T09:07:42.000Z</time>
      </trkpt>
      <trkpt lat="42.6196" lon="1.74499">
        <ele>2331.3999023438</ele>
        <time>2023-07-20T09:07:45.000Z</time>
      </trkpt>
      <trkpt lat="42.61958" lon="1.74498">
        <ele>2332.1999511719</ele>
        <time>2023-07-20T09:07:50.000Z</time>
      </trkpt>
      <trkpt lat="42.61955" lon="1.74495">
        <ele>2333.6000976562</ele>
        <time>2023-07-20T09:07:53.000Z</time>
      </trkpt>
      <trkpt lat="42.61954" lon="1.74495">
        <ele>2334</ele>
        <time>2023-07-20T09:07:54.000Z</time>
      </trkpt>
      <trkpt lat="42.61949" lon="1.74494">
        <ele>2333.8000488281</ele>
        <time>2023-07-20T09:08:03.000Z</time>
      </trkpt>
      <trkpt lat="42.61947" lon="1.74495">
        <ele>2333.8000488281</ele>
        <time>2023-07-20T09:08:09.000Z</time>
      </trkpt>
      <trkpt lat="42.61943" lon="1.74493">
        <ele>2334</ele>
        <time>2023-07-20T09:08:17.000Z</time>
      </trkpt>
      <trkpt lat="42.6194" lon="1.74492">
        <ele>2334.8000488281</ele>
        <time>2023-07-20T09:08:22.000Z</time>
      </trkpt>
      <trkpt lat="42.61939" lon="1.74491">
        <ele>2335</ele>
        <time>2023-07-20T09:08:24.000Z</time>
      </trkpt>
      <trkpt lat="42.61939" lon="1.7449">
        <ele>2335.8000488281</ele>
        <time>2023-07-20T09:08:29.000Z</time>
      </trkpt>
      <trkpt lat="42.61937" lon="1.74489">
        <ele>2336.6000976562</ele>
        <time>2023-07-20T09:08:33.000Z</time>
      </trkpt>
      <trkpt lat="42.61935" lon="1.74486">
        <ele>2336.8000488281</ele>
        <time>2023-07-20T09:08:42.000Z</time>
      </trkpt>
      <trkpt lat="42.61935" lon="1.74485">
        <ele>2337.1999511719</ele>
        <time>2023-07-20T09:08:43.000Z</time>
      </trkpt>
      <trkpt lat="42.61935" lon="1.74482">
        <ele>2338.1999511719</ele>
        <time>2023-07-20T09:08:50.000Z</time>
      </trkpt>
      <trkpt lat="42.61935" lon="1.74482">
        <ele>2338.1999511719</ele>
        <time>2023-07-20T09:08:51.000Z</time>
      </trkpt>
      <trkpt lat="42.61933" lon="1.74483">
        <ele>2339.3999023438</ele>
        <time>2023-07-20T09:08:56.000Z</time>
      </trkpt>
      <trkpt lat="42.61933" lon="1.74482">
        <ele>2339.6000976562</ele>
        <time>2023-07-20T09:08:58.000Z</time>
      </trkpt>
      <trkpt lat="42.61931" lon="1.74479">
        <ele>2340.8000488281</ele>
        <time>2023-07-20T09:09:03.000Z</time>
      </trkpt>
      <trkpt lat="42.6193" lon="1.74478">
        <ele>2341.8000488281</ele>
        <time>2023-07-20T09:09:07.000Z</time>
      </trkpt>
      <trkpt lat="42.61931" lon="1.74475">
        <ele>2343</ele>
        <time>2023-07-20T09:09:13.000Z</time>
      </trkpt>
      <trkpt lat="42.61931" lon="1.74472">
        <ele>2343.6000976562</ele>
        <time>2023-07-20T09:09:16.000Z</time>
      </trkpt>
      <trkpt lat="42.6193" lon="1.74469">
        <ele>2344</ele>
        <time>2023-07-20T09:09:19.000Z</time>
      </trkpt>
      <trkpt lat="42.6193" lon="1.7447">
        <ele>2344.1999511719</ele>
        <time>2023-07-20T09:09:21.000Z</time>
      </trkpt>
      <trkpt lat="42.61929" lon="1.74472">
        <ele>2345</ele>
        <time>2023-07-20T09:09:27.000Z</time>
      </trkpt>
      <trkpt lat="42.61929" lon="1.74472">
        <ele>2345.3999023438</ele>
        <time>2023-07-20T09:09:31.000Z</time>
      </trkpt>
      <trkpt lat="42.61928" lon="1.74471">
        <ele>2344.6000976562</ele>
        <time>2023-07-20T09:09:39.000Z</time>
      </trkpt>
      <trkpt lat="42.61923" lon="1.74472">
        <ele>2344.1999511719</ele>
        <time>2023-07-20T09:09:45.000Z</time>
      </trkpt>
      <trkpt lat="42.61922" lon="1.74471">
        <ele>2345</ele>
        <time>2023-07-20T09:09:55.000Z</time>
      </trkpt>
      <trkpt lat="42.6192" lon="1.74469">
        <ele>2345.8000488281</ele>
        <time>2023-07-20T09:10:02.000Z</time>
      </trkpt>
      <trkpt lat="42.6192" lon="1.74467">
        <ele>2346.1999511719</ele>
        <time>2023-07-20T09:10:06.000Z</time>
      </trkpt>
      <trkpt lat="42.61919" lon="1.74467">
        <ele>2346.6000976562</ele>
        <time>2023-07-20T09:10:09.000Z</time>
      </trkpt>
      <trkpt lat="42.61917" lon="1.74467">
        <ele>2347.3999023438</ele>
        <time>2023-07-20T09:10:15.000Z</time>
      </trkpt>
      <trkpt lat="42.61917" lon="1.74467">
        <ele>2347.8000488281</ele>
        <time>2023-07-20T09:10:16.000Z</time>
      </trkpt>
      <trkpt lat="42.61916" lon="1.74463">
        <ele>2348.6000976562</ele>
        <time>2023-07-20T09:10:21.000Z</time>
      </trkpt>
      <trkpt lat="42.61916" lon="1.74462">
        <ele>2348.8000488281</ele>
        <time>2023-07-20T09:10:22.000Z</time>
      </trkpt>
      <trkpt lat="42.61913" lon="1.74459">
        <ele>2349.6000976562</ele>
        <time>2023-07-20T09:10:29.000Z</time>
      </trkpt>
      <trkpt lat="42.61913" lon="1.74459">
        <ele>2350.8000488281</ele>
        <time>2023-07-20T09:10:33.000Z</time>
      </trkpt>
      <trkpt lat="42.61912" lon="1.74458">
        <ele>2351.8000488281</ele>
        <time>2023-07-20T09:10:36.000Z</time>
      </trkpt>
      <trkpt lat="42.61911" lon="1.74457">
        <ele>2352</ele>
        <time>2023-07-20T09:10:37.000Z</time>
      </trkpt>
      <trkpt lat="42.61909" lon="1.74454">
        <ele>2353</ele>
        <time>2023-07-20T09:10:43.000Z</time>
      </trkpt>
      <trkpt lat="42.61908" lon="1.74451">
        <ele>2354.3999023438</ele>
        <time>2023-07-20T09:10:47.000Z</time>
      </trkpt>
      <trkpt lat="42.61907" lon="1.74447">
        <ele>2354.8000488281</ele>
        <time>2023-07-20T09:10:51.000Z</time>
      </trkpt>
      <trkpt lat="42.61905" lon="1.74445">
        <ele>2355.3999023438</ele>
        <time>2023-07-20T09:10:54.000Z</time>
      </trkpt>
      <trkpt lat="42.61904" lon="1.74443">
        <ele>2355.3999023438</ele>
        <time>2023-07-20T09:10:57.000Z</time>
      </trkpt>
      <trkpt lat="42.61901" lon="1.74441">
        <ele>2354.8000488281</ele>
        <time>2023-07-20T09:11:03.000Z</time>
      </trkpt>
      <trkpt lat="42.61899" lon="1.74435">
        <ele>2355.1999511719</ele>
        <time>2023-07-20T09:11:09.000Z</time>
      </trkpt>
      <trkpt lat="42.61899" lon="1.74428">
        <ele>2356.1999511719</ele>
        <time>2023-07-20T09:11:17.000Z</time>
      </trkpt>
      <trkpt lat="42.61899" lon="1.74427">
        <ele>2357</ele>
        <time>2023-07-20T09:11:18.000Z</time>
      </trkpt>
      <trkpt lat="42.61896" lon="1.74421">
        <ele>2357.6000976562</ele>
        <time>2023-07-20T09:11:28.000Z</time>
      </trkpt>
      <trkpt lat="42.61895" lon="1.7442">
        <ele>2358</ele>
        <time>2023-07-20T09:11:30.000Z</time>
      </trkpt>
      <trkpt lat="42.61896" lon="1.74416">
        <ele>2358.8000488281</ele>
        <time>2023-07-20T09:11:38.000Z</time>
      </trkpt>
      <trkpt lat="42.61896" lon="1.74414">
        <ele>2359</ele>
        <time>2023-07-20T09:11:41.000Z</time>
      </trkpt>
      <trkpt lat="42.61895" lon="1.74408">
        <ele>2360</ele>
        <time>2023-07-20T09:11:45.000Z</time>
      </trkpt>
      <trkpt lat="42.61895" lon="1.74408">
        <ele>2360.1999511719</ele>
        <time>2023-07-20T09:11:46.000Z</time>
      </trkpt>
      <trkpt lat="42.61892" lon="1.74407">
        <ele>2361.1999511719</ele>
        <time>2023-07-20T09:11:54.000Z</time>
      </trkpt>
      <trkpt lat="42.61892" lon="1.74402">
        <ele>2362</ele>
        <time>2023-07-20T09:12:04.000Z</time>
      </trkpt>
      <trkpt lat="42.61892" lon="1.74399">
        <ele>2362.1999511719</ele>
        <time>2023-07-20T09:12:07.000Z</time>
      </trkpt>
      <trkpt lat="42.61891" lon="1.744">
        <ele>2363.1999511719</ele>
        <time>2023-07-20T09:12:12.000Z</time>
      </trkpt>
      <trkpt lat="42.61889" lon="1.74406">
        <ele>2364.1999511719</ele>
        <time>2023-07-20T09:12:18.000Z</time>
      </trkpt>
      <trkpt lat="42.61889" lon="1.74406">
        <ele>2364.3999023438</ele>
        <time>2023-07-20T09:12:19.000Z</time>
      </trkpt>
      <trkpt lat="42.61887" lon="1.74408">
        <ele>2364.8000488281</ele>
        <time>2023-07-20T09:12:25.000Z</time>
      </trkpt>
      <trkpt lat="42.61884" lon="1.74409">
        <ele>2364.1999511719</ele>
        <time>2023-07-20T09:12:33.000Z</time>
      </trkpt>
      <trkpt lat="42.61881" lon="1.74412">
        <ele>2364.8000488281</ele>
        <time>2023-07-20T09:12:39.000Z</time>
      </trkpt>
      <trkpt lat="42.6188" lon="1.74413">
        <ele>2365.6000976562</ele>
        <time>2023-07-20T09:12:46.000Z</time>
      </trkpt>
      <trkpt lat="42.61879" lon="1.74414">
        <ele>2366</ele>
        <time>2023-07-20T09:12:48.000Z</time>
      </trkpt>
      <trkpt lat="42.61878" lon="1.74415">
        <ele>2366.8000488281</ele>
        <time>2023-07-20T09:12:50.000Z</time>
      </trkpt>
      <trkpt lat="42.61876" lon="1.74415">
        <ele>2368</ele>
        <time>2023-07-20T09:12:56.000Z</time>
      </trkpt>
      <trkpt lat="42.61874" lon="1.74412">
        <ele>2369.1999511719</ele>
        <time>2023-07-20T09:13:01.000Z</time>
      </trkpt>
      <trkpt lat="42.61873" lon="1.74409">
        <ele>2369.1999511719</ele>
        <time>2023-07-20T09:13:03.000Z</time>
      </trkpt>
      <trkpt lat="42.61872" lon="1.74409">
        <ele>2370.1999511719</ele>
        <time>2023-07-20T09:13:07.000Z</time>
      </trkpt>
      <trkpt lat="42.6187" lon="1.74409">
        <ele>2370.8000488281</ele>
        <time>2023-07-20T09:13:11.000Z</time>
      </trkpt>
      <trkpt lat="42.61866" lon="1.74408">
        <ele>2371.1999511719</ele>
        <time>2023-07-20T09:13:17.000Z</time>
      </trkpt>
      <trkpt lat="42.61865" lon="1.74407">
        <ele>2371.3999023438</ele>
        <time>2023-07-20T09:13:19.000Z</time>
      </trkpt>
      <trkpt lat="42.6186" lon="1.74405">
        <ele>2371.3999023438</ele>
        <time>2023-07-20T09:13:25.000Z</time>
      </trkpt>
      <trkpt lat="42.61854" lon="1.74407">
        <ele>2372.3999023438</ele>
        <time>2023-07-20T09:13:34.000Z</time>
      </trkpt>
      <trkpt lat="42.61851" lon="1.74408">
        <ele>2373.6000976562</ele>
        <time>2023-07-20T09:13:38.000Z</time>
      </trkpt>
      <trkpt lat="42.61848" lon="1.74408">
        <ele>2374.1999511719</ele>
        <time>2023-07-20T09:13:42.000Z</time>
      </trkpt>
      <trkpt lat="42.61848" lon="1.74409">
        <ele>2375</ele>
        <time>2023-07-20T09:13:44.000Z</time>
      </trkpt>
      <trkpt lat="42.61844" lon="1.7441">
        <ele>2375.3999023438</ele>
        <time>2023-07-20T09:13:49.000Z</time>
      </trkpt>
      <trkpt lat="42.61842" lon="1.74413">
        <ele>2374.1999511719</ele>
        <time>2023-07-20T09:13:58.000Z</time>
      </trkpt>
      <trkpt lat="42.61842" lon="1.74414">
        <ele>2373.8000488281</ele>
        <time>2023-07-20T09:14:00.000Z</time>
      </trkpt>
      <trkpt lat="42.61844" lon="1.74412">
        <ele>2374.3999023438</ele>
        <time>2023-07-20T09:14:06.000Z</time>
      </trkpt>
      <trkpt lat="42.61842" lon="1.74414">
        <ele>2372.8000488281</ele>
        <time>2023-07-20T09:14:13.000Z</time>
      </trkpt>
      <trkpt lat="42.61841" lon="1.74414">
        <ele>2372.8000488281</ele>
        <time>2023-07-20T09:14:15.000Z</time>
      </trkpt>
      <trkpt lat="42.61842" lon="1.74411">
        <ele>2372.6000976562</ele>
        <time>2023-07-20T09:14:22.000Z</time>
      </trkpt>
      <trkpt lat="42.61841" lon="1.74405">
        <ele>2372.8000488281</ele>
        <time>2023-07-20T09:14:28.000Z</time>
      </trkpt>
      <trkpt lat="42.61836" lon="1.74398">
        <ele>2373.3999023438</ele>
        <time>2023-07-20T09:14:38.000Z</time>
      </trkpt>
      <trkpt lat="42.61833" lon="1.7439">
        <ele>2373.1999511719</ele>
        <time>2023-07-20T09:14:47.000Z</time>
      </trkpt>
      <trkpt lat="42.61833" lon="1.74385">
        <ele>2372.6000976562</ele>
        <time>2023-07-20T09:14:55.000Z</time>
      </trkpt>
      <trkpt lat="42.61832" lon="1.74378">
        <ele>2373.3999023438</ele>
        <time>2023-07-20T09:15:04.000Z</time>
      </trkpt>
      <trkpt lat="42.6183" lon="1.74375">
        <ele>2374</ele>
        <time>2023-07-20T09:15:07.000Z</time>
      </trkpt>
      <trkpt lat="42.61829" lon="1.74375">
        <ele>2374.6000976562</ele>
        <time>2023-07-20T09:15:10.000Z</time>
      </trkpt>
      <trkpt lat="42.61829" lon="1.74373">
        <ele>2375.3999023438</ele>
        <time>2023-07-20T09:15:13.000Z</time>
      </trkpt>
      <trkpt lat="42.61831" lon="1.74371">
        <ele>2376.3999023438</ele>
        <time>2023-07-20T09:15:19.000Z</time>
      </trkpt>
      <trkpt lat="42.61831" lon="1.74371">
        <ele>2376.3999023438</ele>
        <time>2023-07-20T09:15:20.000Z</time>
      </trkpt>
      <trkpt lat="42.61832" lon="1.74369">
        <ele>2377.1999511719</ele>
        <time>2023-07-20T09:15:28.000Z</time>
      </trkpt>
      <trkpt lat="42.61832" lon="1.74369">
        <ele>2377.3999023438</ele>
        <time>2023-07-20T09:15:30.000Z</time>
      </trkpt>
      <trkpt lat="42.6183" lon="1.74367">
        <ele>2377.6000976562</ele>
        <time>2023-07-20T09:15:35.000Z</time>
      </trkpt>
      <trkpt lat="42.61831" lon="1.74363">
        <ele>2378.1999511719</ele>
        <time>2023-07-20T09:15:43.000Z</time>
      </trkpt>
      <trkpt lat="42.61833" lon="1.7436">
        <ele>2378</ele>
        <time>2023-07-20T09:15:53.000Z</time>
      </trkpt>
      <trkpt lat="42.6183" lon="1.74366">
        <ele>2377.8000488281</ele>
        <time>2023-07-20T09:15:59.000Z</time>
      </trkpt>
      <trkpt lat="42.61827" lon="1.74361">
        <ele>2377.8000488281</ele>
        <time>2023-07-20T09:16:08.000Z</time>
      </trkpt>
      <trkpt lat="42.61828" lon="1.7436">
        <ele>2378.8000488281</ele>
        <time>2023-07-20T09:16:11.000Z</time>
      </trkpt>
      <trkpt lat="42.61827" lon="1.74358">
        <ele>2379.3999023438</ele>
        <time>2023-07-20T09:16:16.000Z</time>
      </trkpt>
      <trkpt lat="42.61825" lon="1.74355">
        <ele>2379.8000488281</ele>
        <time>2023-07-20T09:16:22.000Z</time>
      </trkpt>
      <trkpt lat="42.61824" lon="1.74352">
        <ele>2379.8000488281</ele>
        <time>2023-07-20T09:16:29.000Z</time>
      </trkpt>
      <trkpt lat="42.61824" lon="1.74352">
        <ele>2380</ele>
        <time>2023-07-20T09:16:30.000Z</time>
      </trkpt>
      <trkpt lat="42.61826" lon="1.74352">
        <ele>2380.8000488281</ele>
        <time>2023-07-20T09:16:35.000Z</time>
      </trkpt>
      <trkpt lat="42.61827" lon="1.74351">
        <ele>2381</ele>
        <time>2023-07-20T09:16:37.000Z</time>
      </trkpt>
      <trkpt lat="42.61827" lon="1.74347">
        <ele>2382</ele>
        <time>2023-07-20T09:16:43.000Z</time>
      </trkpt>
      <trkpt lat="42.61828" lon="1.74347">
        <ele>2382</ele>
        <time>2023-07-20T09:16:44.000Z</time>
      </trkpt>
      <trkpt lat="42.61829" lon="1.74342">
        <ele>2383</ele>
        <time>2023-07-20T09:16:50.000Z</time>
      </trkpt>
      <trkpt lat="42.61829" lon="1.74341">
        <ele>2383.6000976562</ele>
        <time>2023-07-20T09:16:53.000Z</time>
      </trkpt>
      <trkpt lat="42.61829" lon="1.7434">
        <ele>2384.1999511719</ele>
        <time>2023-07-20T09:16:55.000Z</time>
      </trkpt>
      <trkpt lat="42.6183" lon="1.74339">
        <ele>2385</ele>
        <time>2023-07-20T09:17:01.000Z</time>
      </trkpt>
      <trkpt lat="42.6183" lon="1.74339">
        <ele>2385.1999511719</ele>
        <time>2023-07-20T09:17:03.000Z</time>
      </trkpt>
      <trkpt lat="42.6183" lon="1.74335">
        <ele>2386.1999511719</ele>
        <time>2023-07-20T09:17:11.000Z</time>
      </trkpt>
      <trkpt lat="42.61831" lon="1.74331">
        <ele>2387.1999511719</ele>
        <time>2023-07-20T09:17:18.000Z</time>
      </trkpt>
      <trkpt lat="42.61831" lon="1.74331">
        <ele>2387.6000976562</ele>
        <time>2023-07-20T09:17:19.000Z</time>
      </trkpt>
      <trkpt lat="42.61829" lon="1.74328">
        <ele>2388.3999023438</ele>
        <time>2023-07-20T09:17:26.000Z</time>
      </trkpt>
      <trkpt lat="42.61828" lon="1.74327">
        <ele>2389</ele>
        <time>2023-07-20T09:17:31.000Z</time>
      </trkpt>
      <trkpt lat="42.61828" lon="1.74325">
        <ele>2389.6000976562</ele>
        <time>2023-07-20T09:17:36.000Z</time>
      </trkpt>
      <trkpt lat="42.61827" lon="1.74323">
        <ele>2390</ele>
        <time>2023-07-20T09:17:39.000Z</time>
      </trkpt>
      <trkpt lat="42.61826" lon="1.74319">
        <ele>2390.6000976562</ele>
        <time>2023-07-20T09:17:46.000Z</time>
      </trkpt>
      <trkpt lat="42.61826" lon="1.74318">
        <ele>2390.8000488281</ele>
        <time>2023-07-20T09:17:48.000Z</time>
      </trkpt>
      <trkpt lat="42.61827" lon="1.74312">
        <ele>2391.1999511719</ele>
        <time>2023-07-20T09:17:57.000Z</time>
      </trkpt>
      <trkpt lat="42.61828" lon="1.74312">
        <ele>2390.1999511719</ele>
        <time>2023-07-20T09:18:06.000Z</time>
      </trkpt>
      <trkpt lat="42.61829" lon="1.74312">
        <ele>2390.1999511719</ele>
        <time>2023-07-20T09:18:13.000Z</time>
      </trkpt>
      <trkpt lat="42.61829" lon="1.74314">
        <ele>2390</ele>
        <time>2023-07-20T09:18:21.000Z</time>
      </trkpt>
      <trkpt lat="42.61829" lon="1.74314">
        <ele>2389.3999023438</ele>
        <time>2023-07-20T09:18:22.000Z</time>
      </trkpt>
      <trkpt lat="42.6183" lon="1.74308">
        <ele>2389.8000488281</ele>
        <time>2023-07-20T09:18:29.000Z</time>
      </trkpt>
      <trkpt lat="42.61829" lon="1.74299">
        <ele>2390.1999511719</ele>
        <time>2023-07-20T09:18:37.000Z</time>
      </trkpt>
      <trkpt lat="42.61829" lon="1.74299">
        <ele>2390.3999023438</ele>
        <time>2023-07-20T09:18:41.000Z</time>
      </trkpt>
      <trkpt lat="42.61828" lon="1.74297">
        <ele>2391.1999511719</ele>
        <time>2023-07-20T09:18:43.000Z</time>
      </trkpt>
      <trkpt lat="42.61827" lon="1.74294">
        <ele>2391.3999023438</ele>
        <time>2023-07-20T09:18:45.000Z</time>
      </trkpt>
      <trkpt lat="42.61826" lon="1.74289">
        <ele>2392.6000976562</ele>
        <time>2023-07-20T09:18:51.000Z</time>
      </trkpt>
      <trkpt lat="42.61825" lon="1.74283">
        <ele>2393.6000976562</ele>
        <time>2023-07-20T09:18:59.000Z</time>
      </trkpt>
      <trkpt lat="42.61825" lon="1.74283">
        <ele>2393.6000976562</ele>
        <time>2023-07-20T09:19:00.000Z</time>
      </trkpt>
      <trkpt lat="42.61824" lon="1.74281">
        <ele>2394.1999511719</ele>
        <time>2023-07-20T09:19:05.000Z</time>
      </trkpt>
      <trkpt lat="42.61822" lon="1.74279">
        <ele>2395</ele>
        <time>2023-07-20T09:19:09.000Z</time>
      </trkpt>
      <trkpt lat="42.61821" lon="1.74277">
        <ele>2395</ele>
        <time>2023-07-20T09:19:12.000Z</time>
      </trkpt>
      <trkpt lat="42.6182" lon="1.74275">
        <ele>2396.3999023438</ele>
        <time>2023-07-20T09:19:17.000Z</time>
      </trkpt>
      <trkpt lat="42.61819" lon="1.74272">
        <ele>2397</ele>
        <time>2023-07-20T09:19:20.000Z</time>
      </trkpt>
      <trkpt lat="42.61818" lon="1.74269">
        <ele>2396</ele>
        <time>2023-07-20T09:19:28.000Z</time>
      </trkpt>
      <trkpt lat="42.61815" lon="1.74269">
        <ele>2396.1999511719</ele>
        <time>2023-07-20T09:19:37.000Z</time>
      </trkpt>
      <trkpt lat="42.61812" lon="1.74264">
        <ele>2396.6000976562</ele>
        <time>2023-07-20T09:19:46.000Z</time>
      </trkpt>
      <trkpt lat="42.61813" lon="1.74258">
        <ele>2396.6000976562</ele>
        <time>2023-07-20T09:19:55.000Z</time>
      </trkpt>
      <trkpt lat="42.61814" lon="1.74255">
        <ele>2396.6000976562</ele>
        <time>2023-07-20T09:20:02.000Z</time>
      </trkpt>
      <trkpt lat="42.61812" lon="1.74249">
        <ele>2396.8000488281</ele>
        <time>2023-07-20T09:20:08.000Z</time>
      </trkpt>
      <trkpt lat="42.61812" lon="1.74244">
        <ele>2395.6000976562</ele>
        <time>2023-07-20T09:20:16.000Z</time>
      </trkpt>
      <trkpt lat="42.61811" lon="1.7424">
        <ele>2395.3999023438</ele>
        <time>2023-07-20T09:20:19.000Z</time>
      </trkpt>
      <trkpt lat="42.6181" lon="1.74239">
        <ele>2395.1999511719</ele>
        <time>2023-07-20T09:20:25.000Z</time>
      </trkpt>
      <trkpt lat="42.61805" lon="1.74234">
        <ele>2394.8000488281</ele>
        <time>2023-07-20T09:20:35.000Z</time>
      </trkpt>
      <trkpt lat="42.61802" lon="1.74231">
        <ele>2394.3999023438</ele>
        <time>2023-07-20T09:20:40.000Z</time>
      </trkpt>
      <trkpt lat="42.61802" lon="1.74229">
        <ele>2394.3999023438</ele>
        <time>2023-07-20T09:20:43.000Z</time>
      </trkpt>
      <trkpt lat="42.61802" lon="1.74225">
        <ele>2395.1999511719</ele>
        <time>2023-07-20T09:20:50.000Z</time>
      </trkpt>
      <trkpt lat="42.61802" lon="1.74221">
        <ele>2395</ele>
        <time>2023-07-20T09:20:58.000Z</time>
      </trkpt>
      <trkpt lat="42.61798" lon="1.74215">
        <ele>2393.3999023438</ele>
        <time>2023-07-20T09:21:10.000Z</time>
      </trkpt>
      <trkpt lat="42.61794" lon="1.74212">
        <ele>2392</ele>
        <time>2023-07-20T09:21:14.000Z</time>
      </trkpt>
      <trkpt lat="42.61793" lon="1.74211">
        <ele>2391.3999023438</ele>
        <time>2023-07-20T09:21:16.000Z</time>
      </trkpt>
      <trkpt lat="42.61792" lon="1.74209">
        <ele>2391</ele>
        <time>2023-07-20T09:21:18.000Z</time>
      </trkpt>
      <trkpt lat="42.6179" lon="1.74208">
        <ele>2390.6000976562</ele>
        <time>2023-07-20T09:21:22.000Z</time>
      </trkpt>
      <trkpt lat="42.61789" lon="1.74206">
        <ele>2390</ele>
        <time>2023-07-20T09:21:30.000Z</time>
      </trkpt>
      <trkpt lat="42.61789" lon="1.74207">
        <ele>2389.8000488281</ele>
        <time>2023-07-20T09:21:31.000Z</time>
      </trkpt>
      <trkpt lat="42.61786" lon="1.74203">
        <ele>2389.8000488281</ele>
        <time>2023-07-20T09:21:36.000Z</time>
      </trkpt>
      <trkpt lat="42.61784" lon="1.74196">
        <ele>2390.1999511719</ele>
        <time>2023-07-20T09:21:45.000Z</time>
      </trkpt>
      <trkpt lat="42.61785" lon="1.74187">
        <ele>2390.1999511719</ele>
        <time>2023-07-20T09:21:53.000Z</time>
      </trkpt>
      <trkpt lat="42.61782" lon="1.74187">
        <ele>2389.8000488281</ele>
        <time>2023-07-20T09:21:59.000Z</time>
      </trkpt>
      <trkpt lat="42.61779" lon="1.74183">
        <ele>2389.8000488281</ele>
        <time>2023-07-20T09:22:06.000Z</time>
      </trkpt>
      <trkpt lat="42.61779" lon="1.74176">
        <ele>2389.1999511719</ele>
        <time>2023-07-20T09:22:13.000Z</time>
      </trkpt>
      <trkpt lat="42.61779" lon="1.74175">
        <ele>2388.8000488281</ele>
        <time>2023-07-20T09:22:15.000Z</time>
      </trkpt>
      <trkpt lat="42.61777" lon="1.74172">
        <ele>2387.6000976562</ele>
        <time>2023-07-20T09:22:20.000Z</time>
      </trkpt>
      <trkpt lat="42.61777" lon="1.74171">
        <ele>2387.3999023438</ele>
        <time>2023-07-20T09:22:21.000Z</time>
      </trkpt>
      <trkpt lat="42.61771" lon="1.74166">
        <ele>2387.8000488281</ele>
        <time>2023-07-20T09:22:30.000Z</time>
      </trkpt>
      <trkpt lat="42.61768" lon="1.74161">
        <ele>2388.1999511719</ele>
        <time>2023-07-20T09:22:38.000Z</time>
      </trkpt>
      <trkpt lat="42.61767" lon="1.74158">
        <ele>2388.3999023438</ele>
        <time>2023-07-20T09:22:47.000Z</time>
      </trkpt>
      <trkpt lat="42.61765" lon="1.74155">
        <ele>2388.1999511719</ele>
        <time>2023-07-20T09:22:55.000Z</time>
      </trkpt>
      <trkpt lat="42.61763" lon="1.74153">
        <ele>2387.6000976562</ele>
        <time>2023-07-20T09:23:04.000Z</time>
      </trkpt>
      <trkpt lat="42.61761" lon="1.74147">
        <ele>2387.3999023438</ele>
        <time>2023-07-20T09:23:12.000Z</time>
      </trkpt>
      <trkpt lat="42.6176" lon="1.74141">
        <ele>2387.1999511719</ele>
        <time>2023-07-20T09:23:20.000Z</time>
      </trkpt>
      <trkpt lat="42.61759" lon="1.74141">
        <ele>2387.3999023438</ele>
        <time>2023-07-20T09:23:28.000Z</time>
      </trkpt>
      <trkpt lat="42.61757" lon="1.74141">
        <ele>2387.8000488281</ele>
        <time>2023-07-20T09:23:36.000Z</time>
      </trkpt>
      <trkpt lat="42.61757" lon="1.74141">
        <ele>2388.1999511719</ele>
        <time>2023-07-20T09:23:43.000Z</time>
      </trkpt>
      <trkpt lat="42.61755" lon="1.74139">
        <ele>2388</ele>
        <time>2023-07-20T09:23:52.000Z</time>
      </trkpt>
      <trkpt lat="42.61752" lon="1.74138">
        <ele>2387.3999023438</ele>
        <time>2023-07-20T09:23:58.000Z</time>
      </trkpt>
      <trkpt lat="42.61749" lon="1.74136">
        <ele>2386.8000488281</ele>
        <time>2023-07-20T09:24:04.000Z</time>
      </trkpt>
      <trkpt lat="42.61748" lon="1.74135">
        <ele>2386.6000976562</ele>
        <time>2023-07-20T09:24:05.000Z</time>
      </trkpt>
      <trkpt lat="42.61746" lon="1.74135">
        <ele>2386.3999023438</ele>
        <time>2023-07-20T09:24:10.000Z</time>
      </trkpt>
      <trkpt lat="42.61741" lon="1.74134">
        <ele>2386</ele>
        <time>2023-07-20T09:24:19.000Z</time>
      </trkpt>
      <trkpt lat="42.61737" lon="1.74128">
        <ele>2387.3999023438</ele>
        <time>2023-07-20T09:24:28.000Z</time>
      </trkpt>
      <trkpt lat="42.61736" lon="1.74125">
        <ele>2387.6000976562</ele>
        <time>2023-07-20T09:24:32.000Z</time>
      </trkpt>
      <trkpt lat="42.61735" lon="1.74123">
        <ele>2388</ele>
        <time>2023-07-20T09:24:38.000Z</time>
      </trkpt>
      <trkpt lat="42.61733" lon="1.74118">
        <ele>2389</ele>
        <time>2023-07-20T09:24:46.000Z</time>
      </trkpt>
      <trkpt lat="42.6173" lon="1.7411">
        <ele>2390</ele>
        <time>2023-07-20T09:24:55.000Z</time>
      </trkpt>
      <trkpt lat="42.61729" lon="1.7411">
        <ele>2390</ele>
        <time>2023-07-20T09:24:56.000Z</time>
      </trkpt>
      <trkpt lat="42.61729" lon="1.74106">
        <ele>2390</ele>
        <time>2023-07-20T09:25:03.000Z</time>
      </trkpt>
      <trkpt lat="42.61728" lon="1.74099">
        <ele>2391</ele>
        <time>2023-07-20T09:25:12.000Z</time>
      </trkpt>
      <trkpt lat="42.61727" lon="1.74099">
        <ele>2391</ele>
        <time>2023-07-20T09:25:13.000Z</time>
      </trkpt>
      <trkpt lat="42.61724" lon="1.74099">
        <ele>2391.1999511719</ele>
        <time>2023-07-20T09:25:20.000Z</time>
      </trkpt>
      <trkpt lat="42.61727" lon="1.74094">
        <ele>2391.6000976562</ele>
        <time>2023-07-20T09:25:30.000Z</time>
      </trkpt>
      <trkpt lat="42.61725" lon="1.74094">
        <ele>2392</ele>
        <time>2023-07-20T09:25:34.000Z</time>
      </trkpt>
      <trkpt lat="42.61724" lon="1.74094">
        <ele>2392</ele>
        <time>2023-07-20T09:25:37.000Z</time>
      </trkpt>
      <trkpt lat="42.61723" lon="1.7409">
        <ele>2391.6000976562</ele>
        <time>2023-07-20T09:25:45.000Z</time>
      </trkpt>
      <trkpt lat="42.61725" lon="1.74089">
        <ele>2391.8000488281</ele>
        <time>2023-07-20T09:25:51.000Z</time>
      </trkpt>
      <trkpt lat="42.61723" lon="1.74083">
        <ele>2392.3999023438</ele>
        <time>2023-07-20T09:25:58.000Z</time>
      </trkpt>
      <trkpt lat="42.61722" lon="1.74076">
        <ele>2393</ele>
        <time>2023-07-20T09:26:06.000Z</time>
      </trkpt>
      <trkpt lat="42.61721" lon="1.74075">
        <ele>2393</ele>
        <time>2023-07-20T09:26:07.000Z</time>
      </trkpt>
      <trkpt lat="42.6172" lon="1.74074">
        <ele>2393.6000976562</ele>
        <time>2023-07-20T09:26:14.000Z</time>
      </trkpt>
      <trkpt lat="42.61718" lon="1.7407">
        <ele>2394.1999511719</ele>
        <time>2023-07-20T09:26:20.000Z</time>
      </trkpt>
      <trkpt lat="42.61716" lon="1.74068">
        <ele>2394.6000976562</ele>
        <time>2023-07-20T09:26:23.000Z</time>
      </trkpt>
      <trkpt lat="42.61714" lon="1.74067">
        <ele>2395.1999511719</ele>
        <time>2023-07-20T09:26:26.000Z</time>
      </trkpt>
      <trkpt lat="42.61714" lon="1.74065">
        <ele>2395.8000488281</ele>
        <time>2023-07-20T09:26:30.000Z</time>
      </trkpt>
      <trkpt lat="42.61713" lon="1.74063">
        <ele>2396.1999511719</ele>
        <time>2023-07-20T09:26:33.000Z</time>
      </trkpt>
      <trkpt lat="42.6171" lon="1.74059">
        <ele>2396.8000488281</ele>
        <time>2023-07-20T09:26:39.000Z</time>
      </trkpt>
      <trkpt lat="42.61706" lon="1.74055">
        <ele>2396.3999023438</ele>
        <time>2023-07-20T09:26:46.000Z</time>
      </trkpt>
      <trkpt lat="42.61704" lon="1.74048">
        <ele>2395.3999023438</ele>
        <time>2023-07-20T09:26:55.000Z</time>
      </trkpt>
      <trkpt lat="42.61703" lon="1.74046">
        <ele>2395.1999511719</ele>
        <time>2023-07-20T09:26:58.000Z</time>
      </trkpt>
      <trkpt lat="42.61702" lon="1.74042">
        <ele>2395.1999511719</ele>
        <time>2023-07-20T09:27:03.000Z</time>
      </trkpt>
      <trkpt lat="42.617" lon="1.74038">
        <ele>2395.6000976562</ele>
        <time>2023-07-20T09:27:11.000Z</time>
      </trkpt>
      <trkpt lat="42.61698" lon="1.74034">
        <ele>2395.8000488281</ele>
        <time>2023-07-20T09:27:18.000Z</time>
      </trkpt>
      <trkpt lat="42.61697" lon="1.74031">
        <ele>2396.3999023438</ele>
        <time>2023-07-20T09:27:24.000Z</time>
      </trkpt>
      <trkpt lat="42.61696" lon="1.74029">
        <ele>2396.8000488281</ele>
        <time>2023-07-20T09:27:28.000Z</time>
      </trkpt>
      <trkpt lat="42.61695" lon="1.74028">
        <ele>2397.3999023438</ele>
        <time>2023-07-20T09:27:31.000Z</time>
      </trkpt>
      <trkpt lat="42.61693" lon="1.74024">
        <ele>2398.3999023438</ele>
        <time>2023-07-20T09:27:36.000Z</time>
      </trkpt>
      <trkpt lat="42.61693" lon="1.74023">
        <ele>2398.6000976562</ele>
        <time>2023-07-20T09:27:37.000Z</time>
      </trkpt>
      <trkpt lat="42.61693" lon="1.74021">
        <ele>2399.6000976562</ele>
        <time>2023-07-20T09:27:41.000Z</time>
      </trkpt>
      <trkpt lat="42.61692" lon="1.74019">
        <ele>2400</ele>
        <time>2023-07-20T09:27:45.000Z</time>
      </trkpt>
      <trkpt lat="42.61691" lon="1.74016">
        <ele>2400.8000488281</ele>
        <time>2023-07-20T09:27:51.000Z</time>
      </trkpt>
      <trkpt lat="42.61691" lon="1.74011">
        <ele>2401.8000488281</ele>
        <time>2023-07-20T09:27:57.000Z</time>
      </trkpt>
      <trkpt lat="42.61692" lon="1.74008">
        <ele>2402.1999511719</ele>
        <time>2023-07-20T09:28:00.000Z</time>
      </trkpt>
      <trkpt lat="42.61693" lon="1.74005">
        <ele>2402.8000488281</ele>
        <time>2023-07-20T09:28:04.000Z</time>
      </trkpt>
      <trkpt lat="42.61693" lon="1.74004">
        <ele>2403.8000488281</ele>
        <time>2023-07-20T09:28:11.000Z</time>
      </trkpt>
      <trkpt lat="42.61693" lon="1.74004">
        <ele>2404</ele>
        <time>2023-07-20T09:28:12.000Z</time>
      </trkpt>
      <trkpt lat="42.61692" lon="1.73999">
        <ele>2404.8000488281</ele>
        <time>2023-07-20T09:28:19.000Z</time>
      </trkpt>
      <trkpt lat="42.61692" lon="1.73998">
        <ele>2405</ele>
        <time>2023-07-20T09:28:21.000Z</time>
      </trkpt>
      <trkpt lat="42.61691" lon="1.73997">
        <ele>2405.6000976562</ele>
        <time>2023-07-20T09:28:27.000Z</time>
      </trkpt>
      <trkpt lat="42.6169" lon="1.73996">
        <ele>2406.1999511719</ele>
        <time>2023-07-20T09:28:29.000Z</time>
      </trkpt>
      <trkpt lat="42.61689" lon="1.73992">
        <ele>2406.6000976562</ele>
        <time>2023-07-20T09:28:36.000Z</time>
      </trkpt>
      <trkpt lat="42.61689" lon="1.73989">
        <ele>2407.3999023438</ele>
        <time>2023-07-20T09:28:42.000Z</time>
      </trkpt>
      <trkpt lat="42.61691" lon="1.73988">
        <ele>2408</ele>
        <time>2023-07-20T09:28:45.000Z</time>
      </trkpt>
      <trkpt lat="42.61691" lon="1.73985">
        <ele>2408.1999511719</ele>
        <time>2023-07-20T09:28:52.000Z</time>
      </trkpt>
      <trkpt lat="42.61691" lon="1.73985">
        <ele>2408.6000976562</ele>
        <time>2023-07-20T09:28:54.000Z</time>
      </trkpt>
      <trkpt lat="42.61691" lon="1.73985">
        <ele>2409.3999023438</ele>
        <time>2023-07-20T09:28:59.000Z</time>
      </trkpt>
      <trkpt lat="42.61692" lon="1.73984">
        <ele>2409.6000976562</ele>
        <time>2023-07-20T09:29:01.000Z</time>
      </trkpt>
      <trkpt lat="42.61692" lon="1.73981">
        <ele>2410.6000976562</ele>
        <time>2023-07-20T09:29:07.000Z</time>
      </trkpt>
      <trkpt lat="42.61687" lon="1.73978">
        <ele>2411.3999023438</ele>
        <time>2023-07-20T09:29:16.000Z</time>
      </trkpt>
      <trkpt lat="42.61686" lon="1.73974">
        <ele>2411.6000976562</ele>
        <time>2023-07-20T09:29:21.000Z</time>
      </trkpt>
      <trkpt lat="42.61686" lon="1.73973">
        <ele>2411.8000488281</ele>
        <time>2023-07-20T09:29:23.000Z</time>
      </trkpt>
      <trkpt lat="42.61683" lon="1.73965">
        <ele>2411.6000976562</ele>
        <time>2023-07-20T09:29:31.000Z</time>
      </trkpt>
      <trkpt lat="42.61684" lon="1.73961">
        <ele>2412.6000976562</ele>
        <time>2023-07-20T09:29:38.000Z</time>
      </trkpt>
      <trkpt lat="42.61685" lon="1.73959">
        <ele>2413</ele>
        <time>2023-07-20T09:29:41.000Z</time>
      </trkpt>
      <trkpt lat="42.61686" lon="1.73957">
        <ele>2413.8000488281</ele>
        <time>2023-07-20T09:29:46.000Z</time>
      </trkpt>
      <trkpt lat="42.61685" lon="1.73958">
        <ele>2414.6000976562</ele>
        <time>2023-07-20T09:29:49.000Z</time>
      </trkpt>
      <trkpt lat="42.61682" lon="1.73955">
        <ele>2414.6000976562</ele>
        <time>2023-07-20T09:29:58.000Z</time>
      </trkpt>
      <trkpt lat="42.61683" lon="1.73951">
        <ele>2414.1999511719</ele>
        <time>2023-07-20T09:30:05.000Z</time>
      </trkpt>
      <trkpt lat="42.61682" lon="1.73947">
        <ele>2415</ele>
        <time>2023-07-20T09:30:12.000Z</time>
      </trkpt>
      <trkpt lat="42.61682" lon="1.73947">
        <ele>2415.1999511719</ele>
        <time>2023-07-20T09:30:13.000Z</time>
      </trkpt>
      <trkpt lat="42.61681" lon="1.73946">
        <ele>2416.6000976562</ele>
        <time>2023-07-20T09:30:15.000Z</time>
      </trkpt>
      <trkpt lat="42.61678" lon="1.73944">
        <ele>2416</ele>
        <time>2023-07-20T09:30:22.000Z</time>
      </trkpt>
      <trkpt lat="42.61676" lon="1.73938">
        <ele>2417</ele>
        <time>2023-07-20T09:30:30.000Z</time>
      </trkpt>
      <trkpt lat="42.6168" lon="1.73936">
        <ele>2417</ele>
        <time>2023-07-20T09:30:39.000Z</time>
      </trkpt>
      <trkpt lat="42.61679" lon="1.73934">
        <ele>2417.6000976562</ele>
        <time>2023-07-20T09:30:44.000Z</time>
      </trkpt>
      <trkpt lat="42.61678" lon="1.73933">
        <ele>2418</ele>
        <time>2023-07-20T09:30:47.000Z</time>
      </trkpt>
      <trkpt lat="42.61674" lon="1.73931">
        <ele>2417.8000488281</ele>
        <time>2023-07-20T09:30:54.000Z</time>
      </trkpt>
      <trkpt lat="42.61672" lon="1.7393">
        <ele>2418.1999511719</ele>
        <time>2023-07-20T09:31:00.000Z</time>
      </trkpt>
      <trkpt lat="42.61672" lon="1.7393">
        <ele>2418.6000976562</ele>
        <time>2023-07-20T09:31:07.000Z</time>
      </trkpt>
      <trkpt lat="42.61673" lon="1.7393">
        <ele>2418.6000976562</ele>
        <time>2023-07-20T09:31:09.000Z</time>
      </trkpt>
      <trkpt lat="42.61676" lon="1.73926">
        <ele>2419.8000488281</ele>
        <time>2023-07-20T09:31:16.000Z</time>
      </trkpt>
      <trkpt lat="42.61676" lon="1.73926">
        <ele>2420</ele>
        <time>2023-07-20T09:31:17.000Z</time>
      </trkpt>
      <trkpt lat="42.61678" lon="1.73923">
        <ele>2420.8000488281</ele>
        <time>2023-07-20T09:31:23.000Z</time>
      </trkpt>
      <trkpt lat="42.61678" lon="1.73924">
        <ele>2421</ele>
        <time>2023-07-20T09:31:24.000Z</time>
      </trkpt>
      <trkpt lat="42.61678" lon="1.73922">
        <ele>2422.1999511719</ele>
        <time>2023-07-20T09:31:28.000Z</time>
      </trkpt>
      <trkpt lat="42.61678" lon="1.7392">
        <ele>2422.6000976562</ele>
        <time>2023-07-20T09:31:32.000Z</time>
      </trkpt>
      <trkpt lat="42.6168" lon="1.73918">
        <ele>2423</ele>
        <time>2023-07-20T09:31:40.000Z</time>
      </trkpt>
      <trkpt lat="42.6168" lon="1.73916">
        <ele>2423</ele>
        <time>2023-07-20T09:31:49.000Z</time>
      </trkpt>
      <trkpt lat="42.6168" lon="1.73917">
        <ele>2422.3999023438</ele>
        <time>2023-07-20T09:31:55.000Z</time>
      </trkpt>
      <trkpt lat="42.6168" lon="1.73913">
        <ele>2422.3999023438</ele>
        <time>2023-07-20T09:32:03.000Z</time>
      </trkpt>
      <trkpt lat="42.61679" lon="1.73912">
        <ele>2423.1999511719</ele>
        <time>2023-07-20T09:32:10.000Z</time>
      </trkpt>
      <trkpt lat="42.61679" lon="1.73912">
        <ele>2423.6000976562</ele>
        <time>2023-07-20T09:32:11.000Z</time>
      </trkpt>
      <trkpt lat="42.61679" lon="1.73908">
        <ele>2423.8000488281</ele>
        <time>2023-07-20T09:32:19.000Z</time>
      </trkpt>
      <trkpt lat="42.61679" lon="1.73906">
        <ele>2424.8000488281</ele>
        <time>2023-07-20T09:32:22.000Z</time>
      </trkpt>
      <trkpt lat="42.61679" lon="1.73905">
        <ele>2426</ele>
        <time>2023-07-20T09:32:24.000Z</time>
      </trkpt>
      <trkpt lat="42.61679" lon="1.73905">
        <ele>2427</ele>
        <time>2023-07-20T09:32:26.000Z</time>
      </trkpt>
      <trkpt lat="42.61679" lon="1.73905">
        <ele>2427</ele>
        <time>2023-07-20T09:32:27.000Z</time>
      </trkpt>
      <trkpt lat="42.61681" lon="1.73908">
        <ele>2426.6000976562</ele>
        <time>2023-07-20T09:32:36.000Z</time>
      </trkpt>
      <trkpt lat="42.61683" lon="1.73906">
        <ele>2427.1999511719</ele>
        <time>2023-07-20T09:32:44.000Z</time>
      </trkpt>
      <trkpt lat="42.61684" lon="1.73906">
        <ele>2427.8000488281</ele>
        <time>2023-07-20T09:32:52.000Z</time>
      </trkpt>
      <trkpt lat="42.61683" lon="1.73906">
        <ele>2428</ele>
        <time>2023-07-20T09:32:54.000Z</time>
      </trkpt>
      <trkpt lat="42.6168" lon="1.73906">
        <ele>2428.1999511719</ele>
        <time>2023-07-20T09:32:58.000Z</time>
      </trkpt>
      <trkpt lat="42.61682" lon="1.73903">
        <ele>2428.3999023438</ele>
        <time>2023-07-20T09:33:06.000Z</time>
      </trkpt>
      <trkpt lat="42.61689" lon="1.73898">
        <ele>2429.1999511719</ele>
        <time>2023-07-20T09:33:13.000Z</time>
      </trkpt>
      <trkpt lat="42.61691" lon="1.73897">
        <ele>2429.8000488281</ele>
        <time>2023-07-20T09:33:20.000Z</time>
      </trkpt>
      <trkpt lat="42.6169" lon="1.73898">
        <ele>2430.1999511719</ele>
        <time>2023-07-20T09:33:26.000Z</time>
      </trkpt>
      <trkpt lat="42.61686" lon="1.73899">
        <ele>2431.1999511719</ele>
        <time>2023-07-20T09:33:31.000Z</time>
      </trkpt>
      <trkpt lat="42.61684" lon="1.73899">
        <ele>2431.1999511719</ele>
        <time>2023-07-20T09:33:32.000Z</time>
      </trkpt>
      <trkpt lat="42.61684" lon="1.73896">
        <ele>2431.3999023438</ele>
        <time>2023-07-20T09:33:38.000Z</time>
      </trkpt>
      <trkpt lat="42.61683" lon="1.73896">
        <ele>2432.1999511719</ele>
        <time>2023-07-20T09:33:46.000Z</time>
      </trkpt>
      <trkpt lat="42.61683" lon="1.73896">
        <ele>2432.1999511719</ele>
        <time>2023-07-20T09:33:54.000Z</time>
      </trkpt>
      <trkpt lat="42.61683" lon="1.73896">
        <ele>2432.3999023438</ele>
        <time>2023-07-20T09:33:55.000Z</time>
      </trkpt>
      <trkpt lat="42.61681" lon="1.73896">
        <ele>2432.1999511719</ele>
        <time>2023-07-20T09:34:03.000Z</time>
      </trkpt>
      <trkpt lat="42.61681" lon="1.73896">
        <ele>2432.6000976562</ele>
        <time>2023-07-20T09:34:09.000Z</time>
      </trkpt>
      <trkpt lat="42.61683" lon="1.73898">
        <ele>2433.1999511719</ele>
        <time>2023-07-20T09:34:18.000Z</time>
      </trkpt>
      <trkpt lat="42.61684" lon="1.73893">
        <ele>2433</ele>
        <time>2023-07-20T09:34:27.000Z</time>
      </trkpt>
      <trkpt lat="42.61684" lon="1.73891">
        <ele>2433.6000976562</ele>
        <time>2023-07-20T09:34:34.000Z</time>
      </trkpt>
      <trkpt lat="42.61684" lon="1.7389">
        <ele>2433.6000976562</ele>
        <time>2023-07-20T09:34:35.000Z</time>
      </trkpt>
      <trkpt lat="42.61683" lon="1.73888">
        <ele>2433.8000488281</ele>
        <time>2023-07-20T09:34:43.000Z</time>
      </trkpt>
      <trkpt lat="42.61681" lon="1.73884">
        <ele>2433.3999023438</ele>
        <time>2023-07-20T09:34:49.000Z</time>
      </trkpt>
      <trkpt lat="42.61676" lon="1.73882">
        <ele>2433.1999511719</ele>
        <time>2023-07-20T09:34:59.000Z</time>
      </trkpt>
      <trkpt lat="42.61676" lon="1.73879">
        <ele>2433.3999023438</ele>
        <time>2023-07-20T09:35:08.000Z</time>
      </trkpt>
      <trkpt lat="42.61674" lon="1.73877">
        <ele>2433.6000976562</ele>
        <time>2023-07-20T09:35:18.000Z</time>
      </trkpt>
      <trkpt lat="42.61673" lon="1.73875">
        <ele>2434.6000976562</ele>
        <time>2023-07-20T09:35:23.000Z</time>
      </trkpt>
      <trkpt lat="42.61671" lon="1.73873">
        <ele>2435.1999511719</ele>
        <time>2023-07-20T09:35:27.000Z</time>
      </trkpt>
      <trkpt lat="42.61669" lon="1.73871">
        <ele>2435.6000976562</ele>
        <time>2023-07-20T09:35:33.000Z</time>
      </trkpt>
      <trkpt lat="42.61669" lon="1.73872">
        <ele>2435.6000976562</ele>
        <time>2023-07-20T09:35:38.000Z</time>
      </trkpt>
      <trkpt lat="42.61669" lon="1.7387">
        <ele>2435.6000976562</ele>
        <time>2023-07-20T09:35:43.000Z</time>
      </trkpt>
      <trkpt lat="42.6167" lon="1.73866">
        <ele>2436.6000976562</ele>
        <time>2023-07-20T09:35:50.000Z</time>
      </trkpt>
      <trkpt lat="42.6167" lon="1.73866">
        <ele>2437</ele>
        <time>2023-07-20T09:35:52.000Z</time>
      </trkpt>
      <trkpt lat="42.61669" lon="1.73867">
        <ele>2438</ele>
        <time>2023-07-20T09:35:59.000Z</time>
      </trkpt>
      <trkpt lat="42.61669" lon="1.73866">
        <ele>2438.3999023438</ele>
        <time>2023-07-20T09:36:00.000Z</time>
      </trkpt>
      <trkpt lat="42.61664" lon="1.7386">
        <ele>2438.8000488281</ele>
        <time>2023-07-20T09:36:08.000Z</time>
      </trkpt>
      <trkpt lat="42.61662" lon="1.73858">
        <ele>2439.1999511719</ele>
        <time>2023-07-20T09:36:10.000Z</time>
      </trkpt>
      <trkpt lat="42.6166" lon="1.73857">
        <ele>2440</ele>
        <time>2023-07-20T09:36:15.000Z</time>
      </trkpt>
      <trkpt lat="42.61661" lon="1.73858">
        <ele>2440.1999511719</ele>
        <time>2023-07-20T09:36:17.000Z</time>
      </trkpt>
      <trkpt lat="42.61663" lon="1.73856">
        <ele>2440.3999023438</ele>
        <time>2023-07-20T09:36:24.000Z</time>
      </trkpt>
      <trkpt lat="42.61663" lon="1.73852">
        <ele>2440.8000488281</ele>
        <time>2023-07-20T09:36:31.000Z</time>
      </trkpt>
      <trkpt lat="42.61663" lon="1.73852">
        <ele>2441.3999023438</ele>
        <time>2023-07-20T09:36:35.000Z</time>
      </trkpt>
      <trkpt lat="42.61663" lon="1.73851">
        <ele>2441.6000976562</ele>
        <time>2023-07-20T09:36:38.000Z</time>
      </trkpt>
      <trkpt lat="42.61661" lon="1.7385">
        <ele>2442.3999023438</ele>
        <time>2023-07-20T09:36:42.000Z</time>
      </trkpt>
      <trkpt lat="42.6166" lon="1.73848">
        <ele>2443.3999023438</ele>
        <time>2023-07-20T09:36:48.000Z</time>
      </trkpt>
      <trkpt lat="42.61661" lon="1.73844">
        <ele>2443.6000976562</ele>
        <time>2023-07-20T09:36:57.000Z</time>
      </trkpt>
      <trkpt lat="42.61661" lon="1.73841">
        <ele>2443.8000488281</ele>
        <time>2023-07-20T09:37:05.000Z</time>
      </trkpt>
      <trkpt lat="42.6166" lon="1.73838">
        <ele>2443.8000488281</ele>
        <time>2023-07-20T09:37:11.000Z</time>
      </trkpt>
      <trkpt lat="42.61656" lon="1.73836">
        <ele>2444.6000976562</ele>
        <time>2023-07-20T09:37:17.000Z</time>
      </trkpt>
      <trkpt lat="42.61655" lon="1.73835">
        <ele>2444.6000976562</ele>
        <time>2023-07-20T09:37:20.000Z</time>
      </trkpt>
      <trkpt lat="42.61654" lon="1.73833">
        <ele>2445.8000488281</ele>
        <time>2023-07-20T09:37:25.000Z</time>
      </trkpt>
      <trkpt lat="42.61653" lon="1.73833">
        <ele>2446.6000976562</ele>
        <time>2023-07-20T09:37:28.000Z</time>
      </trkpt>
      <trkpt lat="42.61653" lon="1.73833">
        <ele>2446.8000488281</ele>
        <time>2023-07-20T09:37:29.000Z</time>
      </trkpt>
      <trkpt lat="42.61654" lon="1.73832">
        <ele>2447.3999023438</ele>
        <time>2023-07-20T09:37:36.000Z</time>
      </trkpt>
      <trkpt lat="42.61654" lon="1.73831">
        <ele>2448</ele>
        <time>2023-07-20T09:37:40.000Z</time>
      </trkpt>
      <trkpt lat="42.61653" lon="1.73829">
        <ele>2449</ele>
        <time>2023-07-20T09:37:43.000Z</time>
      </trkpt>
      <trkpt lat="42.61653" lon="1.73829">
        <ele>2449.3999023438</ele>
        <time>2023-07-20T09:37:44.000Z</time>
      </trkpt>
      <trkpt lat="42.61653" lon="1.73829">
        <ele>2450.6000976562</ele>
        <time>2023-07-20T09:37:46.000Z</time>
      </trkpt>
      <trkpt lat="42.61653" lon="1.73825">
        <ele>2450.6000976562</ele>
        <time>2023-07-20T09:37:52.000Z</time>
      </trkpt>
      <trkpt lat="42.61652" lon="1.73821">
        <ele>2451</ele>
        <time>2023-07-20T09:37:59.000Z</time>
      </trkpt>
      <trkpt lat="42.61651" lon="1.73819">
        <ele>2451</ele>
        <time>2023-07-20T09:38:06.000Z</time>
      </trkpt>
      <trkpt lat="42.61647" lon="1.73814">
        <ele>2451.6000976562</ele>
        <time>2023-07-20T09:38:14.000Z</time>
      </trkpt>
      <trkpt lat="42.61647" lon="1.73813">
        <ele>2451.6000976562</ele>
        <time>2023-07-20T09:38:15.000Z</time>
      </trkpt>
      <trkpt lat="42.61648" lon="1.73813">
        <ele>2452.1999511719</ele>
        <time>2023-07-20T09:38:22.000Z</time>
      </trkpt>
      <trkpt lat="42.61648" lon="1.73812">
        <ele>2452.8000488281</ele>
        <time>2023-07-20T09:38:24.000Z</time>
      </trkpt>
      <trkpt lat="42.61647" lon="1.73811">
        <ele>2453.1999511719</ele>
        <time>2023-07-20T09:38:31.000Z</time>
      </trkpt>
      <trkpt lat="42.61647" lon="1.73807">
        <ele>2454</ele>
        <time>2023-07-20T09:38:37.000Z</time>
      </trkpt>
      <trkpt lat="42.61647" lon="1.73808">
        <ele>2454</ele>
        <time>2023-07-20T09:38:38.000Z</time>
      </trkpt>
      <trkpt lat="42.61645" lon="1.73805">
        <ele>2454</ele>
        <time>2023-07-20T09:38:45.000Z</time>
      </trkpt>
      <trkpt lat="42.61643" lon="1.73805">
        <ele>2454.3999023438</ele>
        <time>2023-07-20T09:38:53.000Z</time>
      </trkpt>
      <trkpt lat="42.61643" lon="1.73802">
        <ele>2455</ele>
        <time>2023-07-20T09:39:01.000Z</time>
      </trkpt>
      <trkpt lat="42.61645" lon="1.73799">
        <ele>2456</ele>
        <time>2023-07-20T09:39:09.000Z</time>
      </trkpt>
      <trkpt lat="42.61644" lon="1.73798">
        <ele>2456.1999511719</ele>
        <time>2023-07-20T09:39:11.000Z</time>
      </trkpt>
      <trkpt lat="42.61642" lon="1.73794">
        <ele>2456.3999023438</ele>
        <time>2023-07-20T09:39:19.000Z</time>
      </trkpt>
      <trkpt lat="42.61642" lon="1.73793">
        <ele>2456.8000488281</ele>
        <time>2023-07-20T09:39:26.000Z</time>
      </trkpt>
      <trkpt lat="42.61641" lon="1.73793">
        <ele>2457</ele>
        <time>2023-07-20T09:39:28.000Z</time>
      </trkpt>
      <trkpt lat="42.61641" lon="1.73793">
        <ele>2458.1999511719</ele>
        <time>2023-07-20T09:39:32.000Z</time>
      </trkpt>
      <trkpt lat="42.61639" lon="1.73792">
        <ele>2459</ele>
        <time>2023-07-20T09:39:36.000Z</time>
      </trkpt>
      <trkpt lat="42.61636" lon="1.7379">
        <ele>2459.1999511719</ele>
        <time>2023-07-20T09:39:42.000Z</time>
      </trkpt>
      <trkpt lat="42.61635" lon="1.73786">
        <ele>2460.3999023438</ele>
        <time>2023-07-20T09:39:50.000Z</time>
      </trkpt>
      <trkpt lat="42.61641" lon="1.73789">
        <ele>2460.8000488281</ele>
        <time>2023-07-20T09:39:58.000Z</time>
      </trkpt>
      <trkpt lat="42.61637" lon="1.73791">
        <ele>2460.1999511719</ele>
        <time>2023-07-20T09:40:07.000Z</time>
      </trkpt>
      <trkpt lat="42.61635" lon="1.7379">
        <ele>2460</ele>
        <time>2023-07-20T09:40:15.000Z</time>
      </trkpt>
      <trkpt lat="42.61635" lon="1.73787">
        <ele>2460.6000976562</ele>
        <time>2023-07-20T09:40:24.000Z</time>
      </trkpt>
      <trkpt lat="42.61634" lon="1.73787">
        <ele>2461.8000488281</ele>
        <time>2023-07-20T09:40:28.000Z</time>
      </trkpt>
      <trkpt lat="42.61632" lon="1.73788">
        <ele>2462</ele>
        <time>2023-07-20T09:40:31.000Z</time>
      </trkpt>
      <trkpt lat="42.61629" lon="1.73788">
        <ele>2461.6000976562</ele>
        <time>2023-07-20T09:40:37.000Z</time>
      </trkpt>
      <trkpt lat="42.61629" lon="1.7379">
        <ele>2461</ele>
        <time>2023-07-20T09:40:45.000Z</time>
      </trkpt>
      <trkpt lat="42.61627" lon="1.73789">
        <ele>2461.6000976562</ele>
        <time>2023-07-20T09:40:58.000Z</time>
      </trkpt>
      <trkpt lat="42.61629" lon="1.73789">
        <ele>2462</ele>
        <time>2023-07-20T09:41:09.000Z</time>
      </trkpt>
      <trkpt lat="42.61621" lon="1.73788">
        <ele>2461.1999511719</ele>
        <time>2023-07-20T09:41:27.000Z</time>
      </trkpt>
      <trkpt lat="42.61625" lon="1.73789">
        <ele>2461.8000488281</ele>
        <time>2023-07-20T09:41:38.000Z</time>
      </trkpt>
      <trkpt lat="42.61626" lon="1.73789">
        <ele>2462</ele>
        <time>2023-07-20T09:41:46.000Z</time>
      </trkpt>
      <trkpt lat="42.61624" lon="1.73786">
        <ele>2461.6000976562</ele>
        <time>2023-07-20T09:41:59.000Z</time>
      </trkpt>
      <trkpt lat="42.61625" lon="1.73785">
        <ele>2462.3999023438</ele>
        <time>2023-07-20T09:42:03.000Z</time>
      </trkpt>
      <trkpt lat="42.61624" lon="1.73784">
        <ele>2462.8000488281</ele>
        <time>2023-07-20T09:42:09.000Z</time>
      </trkpt>
      <trkpt lat="42.61624" lon="1.73784">
        <ele>2462.8000488281</ele>
        <time>2023-07-20T09:42:10.000Z</time>
      </trkpt>
      <trkpt lat="42.61624" lon="1.73783">
        <ele>2462.6000976562</ele>
        <time>2023-07-20T09:42:18.000Z</time>
      </trkpt>
      <trkpt lat="42.61628" lon="1.73784">
        <ele>2463</ele>
        <time>2023-07-20T09:42:25.000Z</time>
      </trkpt>
      <trkpt lat="42.61632" lon="1.73782">
        <ele>2464.1999511719</ele>
        <time>2023-07-20T09:42:37.000Z</time>
      </trkpt>
      <trkpt lat="42.6163" lon="1.7378">
        <ele>2464.1999511719</ele>
        <time>2023-07-20T09:42:44.000Z</time>
      </trkpt>
      <trkpt lat="42.61631" lon="1.73779">
        <ele>2465</ele>
        <time>2023-07-20T09:42:51.000Z</time>
      </trkpt>
      <trkpt lat="42.61631" lon="1.73779">
        <ele>2465</ele>
        <time>2023-07-20T09:42:52.000Z</time>
      </trkpt>
      <trkpt lat="42.6163" lon="1.73776">
        <ele>2466</ele>
        <time>2023-07-20T09:42:58.000Z</time>
      </trkpt>
      <trkpt lat="42.6163" lon="1.73777">
        <ele>2466.1999511719</ele>
        <time>2023-07-20T09:42:59.000Z</time>
      </trkpt>
      <trkpt lat="42.61629" lon="1.73774">
        <ele>2466.8000488281</ele>
        <time>2023-07-20T09:43:07.000Z</time>
      </trkpt>
      <trkpt lat="42.61628" lon="1.73773">
        <ele>2467.1999511719</ele>
        <time>2023-07-20T09:43:11.000Z</time>
      </trkpt>
      <trkpt lat="42.61626" lon="1.73772">
        <ele>2468</ele>
        <time>2023-07-20T09:43:14.000Z</time>
      </trkpt>
      <trkpt lat="42.61626" lon="1.73771">
        <ele>2468.3999023438</ele>
        <time>2023-07-20T09:43:16.000Z</time>
      </trkpt>
      <trkpt lat="42.61625" lon="1.73769">
        <ele>2468.8000488281</ele>
        <time>2023-07-20T09:43:21.000Z</time>
      </trkpt>
      <trkpt lat="42.61627" lon="1.73767">
        <ele>2469.1999511719</ele>
        <time>2023-07-20T09:43:27.000Z</time>
      </trkpt>
      <trkpt lat="42.61628" lon="1.73767">
        <ele>2469.3999023438</ele>
        <time>2023-07-20T09:43:28.000Z</time>
      </trkpt>
      <trkpt lat="42.61627" lon="1.73767">
        <ele>2469.3999023438</ele>
        <time>2023-07-20T09:43:35.000Z</time>
      </trkpt>
      <trkpt lat="42.61626" lon="1.73766">
        <ele>2469.8000488281</ele>
        <time>2023-07-20T09:43:42.000Z</time>
      </trkpt>
      <trkpt lat="42.6163" lon="1.73763">
        <ele>2470.1999511719</ele>
        <time>2023-07-20T09:43:50.000Z</time>
      </trkpt>
      <trkpt lat="42.61631" lon="1.73762">
        <ele>2470.3999023438</ele>
        <time>2023-07-20T09:43:53.000Z</time>
      </trkpt>
      <trkpt lat="42.6163" lon="1.73761">
        <ele>2471</ele>
        <time>2023-07-20T09:43:58.000Z</time>
      </trkpt>
      <trkpt lat="42.61627" lon="1.73756">
        <ele>2471.1999511719</ele>
        <time>2023-07-20T09:44:05.000Z</time>
      </trkpt>
      <trkpt lat="42.61622" lon="1.73756">
        <ele>2472.1999511719</ele>
        <time>2023-07-20T09:44:25.000Z</time>
      </trkpt>
      <trkpt lat="42.61621" lon="1.73756">
        <ele>2473.3999023438</ele>
        <time>2023-07-20T09:44:33.000Z</time>
      </trkpt>
      <trkpt lat="42.6162" lon="1.73754">
        <ele>2474.1999511719</ele>
        <time>2023-07-20T09:44:42.000Z</time>
      </trkpt>
      <trkpt lat="42.6162" lon="1.73752">
        <ele>2473.6000976562</ele>
        <time>2023-07-20T09:44:50.000Z</time>
      </trkpt>
      <trkpt lat="42.61618" lon="1.73747">
        <ele>2474.6000976562</ele>
        <time>2023-07-20T09:44:58.000Z</time>
      </trkpt>
      <trkpt lat="42.61616" lon="1.73744">
        <ele>2475.8000488281</ele>
        <time>2023-07-20T09:45:03.000Z</time>
      </trkpt>
      <trkpt lat="42.61616" lon="1.73743">
        <ele>2477.1999511719</ele>
        <time>2023-07-20T09:45:07.000Z</time>
      </trkpt>
      <trkpt lat="42.61614" lon="1.73742">
        <ele>2478</ele>
        <time>2023-07-20T09:45:14.000Z</time>
      </trkpt>
      <trkpt lat="42.61614" lon="1.73741">
        <ele>2478.1999511719</ele>
        <time>2023-07-20T09:45:16.000Z</time>
      </trkpt>
      <trkpt lat="42.61614" lon="1.73739">
        <ele>2479</ele>
        <time>2023-07-20T09:45:20.000Z</time>
      </trkpt>
      <trkpt lat="42.61613" lon="1.73738">
        <ele>2479.3999023438</ele>
        <time>2023-07-20T09:45:22.000Z</time>
      </trkpt>
      <trkpt lat="42.61612" lon="1.73738">
        <ele>2479.8000488281</ele>
        <time>2023-07-20T09:45:31.000Z</time>
      </trkpt>
      <trkpt lat="42.6161" lon="1.73739">
        <ele>2480</ele>
        <time>2023-07-20T09:45:38.000Z</time>
      </trkpt>
      <trkpt lat="42.61611" lon="1.73739">
        <ele>2480.6000976562</ele>
        <time>2023-07-20T09:45:41.000Z</time>
      </trkpt>
      <trkpt lat="42.6161" lon="1.73736">
        <ele>2480.1999511719</ele>
        <time>2023-07-20T09:45:47.000Z</time>
      </trkpt>
      <trkpt lat="42.61612" lon="1.73733">
        <ele>2480.6000976562</ele>
        <time>2023-07-20T09:45:56.000Z</time>
      </trkpt>
      <trkpt lat="42.61612" lon="1.7373">
        <ele>2482</ele>
        <time>2023-07-20T09:46:03.000Z</time>
      </trkpt>
      <trkpt lat="42.61616" lon="1.7373">
        <ele>2483</ele>
        <time>2023-07-20T09:46:08.000Z</time>
      </trkpt>
      <trkpt lat="42.61616" lon="1.73729">
        <ele>2483.6000976562</ele>
        <time>2023-07-20T09:46:13.000Z</time>
      </trkpt>
      <trkpt lat="42.61616" lon="1.73728">
        <ele>2484</ele>
        <time>2023-07-20T09:46:14.000Z</time>
      </trkpt>
      <trkpt lat="42.61616" lon="1.73727">
        <ele>2485</ele>
        <time>2023-07-20T09:46:17.000Z</time>
      </trkpt>
      <trkpt lat="42.61616" lon="1.73726">
        <ele>2485.8000488281</ele>
        <time>2023-07-20T09:46:21.000Z</time>
      </trkpt>
      <trkpt lat="42.61617" lon="1.73725">
        <ele>2486.1999511719</ele>
        <time>2023-07-20T09:46:22.000Z</time>
      </trkpt>
      <trkpt lat="42.61617" lon="1.73726">
        <ele>2487.1999511719</ele>
        <time>2023-07-20T09:46:26.000Z</time>
      </trkpt>
      <trkpt lat="42.6162" lon="1.73727">
        <ele>2487.6000976562</ele>
        <time>2023-07-20T09:46:29.000Z</time>
      </trkpt>
      <trkpt lat="42.61611" lon="1.73723">
        <ele>2487.8000488281</ele>
        <time>2023-07-20T09:46:40.000Z</time>
      </trkpt>
      <trkpt lat="42.61612" lon="1.73719">
        <ele>2488.3999023438</ele>
        <time>2023-07-20T09:46:44.000Z</time>
      </trkpt>
      <trkpt lat="42.61613" lon="1.73718">
        <ele>2489.3999023438</ele>
        <time>2023-07-20T09:46:47.000Z</time>
      </trkpt>
      <trkpt lat="42.61613" lon="1.73717">
        <ele>2489.3999023438</ele>
        <time>2023-07-20T09:46:48.000Z</time>
      </trkpt>
      <trkpt lat="42.61613" lon="1.73717">
        <ele>2490.6000976562</ele>
        <time>2023-07-20T09:46:53.000Z</time>
      </trkpt>
      <trkpt lat="42.61613" lon="1.73717">
        <ele>2491</ele>
        <time>2023-07-20T09:46:55.000Z</time>
      </trkpt>
      <trkpt lat="42.6161" lon="1.73714">
        <ele>2491.3999023438</ele>
        <time>2023-07-20T09:47:04.000Z</time>
      </trkpt>
      <trkpt lat="42.61609" lon="1.73713">
        <ele>2491.8000488281</ele>
        <time>2023-07-20T09:47:06.000Z</time>
      </trkpt>
      <trkpt lat="42.61609" lon="1.73711">
        <ele>2492.8000488281</ele>
        <time>2023-07-20T09:47:10.000Z</time>
      </trkpt>
      <trkpt lat="42.61609" lon="1.73711">
        <ele>2493.1999511719</ele>
        <time>2023-07-20T09:47:11.000Z</time>
      </trkpt>
      <trkpt lat="42.6161" lon="1.73712">
        <ele>2494</ele>
        <time>2023-07-20T09:47:14.000Z</time>
      </trkpt>
      <trkpt lat="42.61611" lon="1.73711">
        <ele>2494.6000976562</ele>
        <time>2023-07-20T09:47:18.000Z</time>
      </trkpt>
      <trkpt lat="42.61611" lon="1.7371">
        <ele>2494.6000976562</ele>
        <time>2023-07-20T09:47:26.000Z</time>
      </trkpt>
      <trkpt lat="42.6161" lon="1.73709">
        <ele>2495.1999511719</ele>
        <time>2023-07-20T09:47:28.000Z</time>
      </trkpt>
      <trkpt lat="42.61609" lon="1.73705">
        <ele>2495.6000976562</ele>
        <time>2023-07-20T09:47:34.000Z</time>
      </trkpt>
      <trkpt lat="42.61609" lon="1.73701">
        <ele>2496.1999511719</ele>
        <time>2023-07-20T09:47:44.000Z</time>
      </trkpt>
      <trkpt lat="42.6161" lon="1.73699">
        <ele>2497.3999023438</ele>
        <time>2023-07-20T09:47:51.000Z</time>
      </trkpt>
      <trkpt lat="42.6161" lon="1.737">
        <ele>2497.3999023438</ele>
        <time>2023-07-20T09:47:52.000Z</time>
      </trkpt>
      <trkpt lat="42.61608" lon="1.73697">
        <ele>2498.3999023438</ele>
        <time>2023-07-20T09:48:00.000Z</time>
      </trkpt>
      <trkpt lat="42.61607" lon="1.73696">
        <ele>2499.3999023438</ele>
        <time>2023-07-20T09:48:08.000Z</time>
      </trkpt>
      <trkpt lat="42.61607" lon="1.73696">
        <ele>2499.6000976562</ele>
        <time>2023-07-20T09:48:09.000Z</time>
      </trkpt>
      <trkpt lat="42.61606" lon="1.73695">
        <ele>2500.6000976562</ele>
        <time>2023-07-20T09:48:13.000Z</time>
      </trkpt>
      <trkpt lat="42.61604" lon="1.73693">
        <ele>2501.1999511719</ele>
        <time>2023-07-20T09:48:16.000Z</time>
      </trkpt>
      <trkpt lat="42.61604" lon="1.73692">
        <ele>2501.8000488281</ele>
        <time>2023-07-20T09:48:17.000Z</time>
      </trkpt>
      <trkpt lat="42.61602" lon="1.73687">
        <ele>2501.3999023438</ele>
        <time>2023-07-20T09:48:26.000Z</time>
      </trkpt>
      <trkpt lat="42.61604" lon="1.73686">
        <ele>2503</ele>
        <time>2023-07-20T09:48:32.000Z</time>
      </trkpt>
      <trkpt lat="42.61605" lon="1.73687">
        <ele>2504</ele>
        <time>2023-07-20T09:48:36.000Z</time>
      </trkpt>
      <trkpt lat="42.61604" lon="1.73688">
        <ele>2504.1999511719</ele>
        <time>2023-07-20T09:48:40.000Z</time>
      </trkpt>
      <trkpt lat="42.61604" lon="1.73688">
        <ele>2505.1999511719</ele>
        <time>2023-07-20T09:48:42.000Z</time>
      </trkpt>
      <trkpt lat="42.616" lon="1.73684">
        <ele>2505.6000976562</ele>
        <time>2023-07-20T09:48:49.000Z</time>
      </trkpt>
      <trkpt lat="42.61599" lon="1.73682">
        <ele>2506.3999023438</ele>
        <time>2023-07-20T09:48:55.000Z</time>
      </trkpt>
      <trkpt lat="42.61599" lon="1.73682">
        <ele>2506.8000488281</ele>
        <time>2023-07-20T09:48:56.000Z</time>
      </trkpt>
      <trkpt lat="42.61597" lon="1.73678">
        <ele>2507.1999511719</ele>
        <time>2023-07-20T09:49:05.000Z</time>
      </trkpt>
      <trkpt lat="42.61594" lon="1.73676">
        <ele>2507.3999023438</ele>
        <time>2023-07-20T09:49:14.000Z</time>
      </trkpt>
      <trkpt lat="42.61594" lon="1.73676">
        <ele>2507.6000976562</ele>
        <time>2023-07-20T09:49:15.000Z</time>
      </trkpt>
      <trkpt lat="42.61594" lon="1.73674">
        <ele>2508.8000488281</ele>
        <time>2023-07-20T09:49:19.000Z</time>
      </trkpt>
      <trkpt lat="42.61597" lon="1.73674">
        <ele>2509.8000488281</ele>
        <time>2023-07-20T09:49:23.000Z</time>
      </trkpt>
      <trkpt lat="42.61598" lon="1.73672">
        <ele>2510.8000488281</ele>
        <time>2023-07-20T09:49:29.000Z</time>
      </trkpt>
      <trkpt lat="42.61597" lon="1.73672">
        <ele>2511.8000488281</ele>
        <time>2023-07-20T09:49:32.000Z</time>
      </trkpt>
      <trkpt lat="42.61596" lon="1.73671">
        <ele>2512</ele>
        <time>2023-07-20T09:49:33.000Z</time>
      </trkpt>
      <trkpt lat="42.61593" lon="1.73672">
        <ele>2513</ele>
        <time>2023-07-20T09:49:38.000Z</time>
      </trkpt>
      <trkpt lat="42.61592" lon="1.73672">
        <ele>2513</ele>
        <time>2023-07-20T09:49:40.000Z</time>
      </trkpt>
      <trkpt lat="42.6159" lon="1.73669">
        <ele>2512.3999023438</ele>
        <time>2023-07-20T09:49:48.000Z</time>
      </trkpt>
      <trkpt lat="42.61588" lon="1.73666">
        <ele>2513.8000488281</ele>
        <time>2023-07-20T09:49:56.000Z</time>
      </trkpt>
      <trkpt lat="42.61589" lon="1.73666">
        <ele>2514</ele>
        <time>2023-07-20T09:50:00.000Z</time>
      </trkpt>
      <trkpt lat="42.61589" lon="1.73667">
        <ele>2515.1999511719</ele>
        <time>2023-07-20T09:50:04.000Z</time>
      </trkpt>
      <trkpt lat="42.61588" lon="1.73666">
        <ele>2515.6000976562</ele>
        <time>2023-07-20T09:50:06.000Z</time>
      </trkpt>
      <trkpt lat="42.61589" lon="1.73663">
        <ele>2515.8000488281</ele>
        <time>2023-07-20T09:50:13.000Z</time>
      </trkpt>
      <trkpt lat="42.61587" lon="1.73664">
        <ele>2515</ele>
        <time>2023-07-20T09:50:21.000Z</time>
      </trkpt>
      <trkpt lat="42.61589" lon="1.73661">
        <ele>2517.3999023438</ele>
        <time>2023-07-20T09:50:36.000Z</time>
      </trkpt>
      <trkpt lat="42.6159" lon="1.73658">
        <ele>2517.8000488281</ele>
        <time>2023-07-20T09:50:37.000Z</time>
      </trkpt>
      <trkpt lat="42.6159" lon="1.73654">
        <ele>2518.3999023438</ele>
        <time>2023-07-20T09:50:41.000Z</time>
      </trkpt>
      <trkpt lat="42.61589" lon="1.73652">
        <ele>2518.3999023438</ele>
        <time>2023-07-20T09:50:42.000Z</time>
      </trkpt>
      <trkpt lat="42.61588" lon="1.73653">
        <ele>2519.1999511719</ele>
        <time>2023-07-20T09:50:47.000Z</time>
      </trkpt>
      <trkpt lat="42.61588" lon="1.73654">
        <ele>2519.3999023438</ele>
        <time>2023-07-20T09:50:48.000Z</time>
      </trkpt>
      <trkpt lat="42.61589" lon="1.73656">
        <ele>2519.3999023438</ele>
        <time>2023-07-20T09:50:55.000Z</time>
      </trkpt>
      <trkpt lat="42.61591" lon="1.7366">
        <ele>2519.6000976562</ele>
        <time>2023-07-20T09:51:02.000Z</time>
      </trkpt>
      <trkpt lat="42.61585" lon="1.7366">
        <ele>2519.1999511719</ele>
        <time>2023-07-20T09:51:12.000Z</time>
      </trkpt>
      <trkpt lat="42.6158" lon="1.7366">
        <ele>2519.1999511719</ele>
        <time>2023-07-20T09:51:22.000Z</time>
      </trkpt>
      <trkpt lat="42.61579" lon="1.73658">
        <ele>2519.6000976562</ele>
        <time>2023-07-20T09:51:29.000Z</time>
      </trkpt>
      <trkpt lat="42.61581" lon="1.73658">
        <ele>2519.6000976562</ele>
        <time>2023-07-20T09:51:39.000Z</time>
      </trkpt>
      <trkpt lat="42.61582" lon="1.73655">
        <ele>2520.6000976562</ele>
        <time>2023-07-20T09:51:47.000Z</time>
      </trkpt>
      <trkpt lat="42.61583" lon="1.73654">
        <ele>2522.3999023438</ele>
        <time>2023-07-20T09:51:49.000Z</time>
      </trkpt>
      <trkpt lat="42.61583" lon="1.73654">
        <ele>2524</ele>
        <time>2023-07-20T09:51:51.000Z</time>
      </trkpt>
      <trkpt lat="42.61582" lon="1.73654">
        <ele>2524.8000488281</ele>
        <time>2023-07-20T09:51:55.000Z</time>
      </trkpt>
      <trkpt lat="42.61582" lon="1.73654">
        <ele>2525</ele>
        <time>2023-07-20T09:51:57.000Z</time>
      </trkpt>
      <trkpt lat="42.6158" lon="1.73652">
        <ele>2525</ele>
        <time>2023-07-20T09:52:00.000Z</time>
      </trkpt>
      <trkpt lat="42.61578" lon="1.73649">
        <ele>2524.8000488281</ele>
        <time>2023-07-20T09:52:07.000Z</time>
      </trkpt>
      <trkpt lat="42.61578" lon="1.73649">
        <ele>2525</ele>
        <time>2023-07-20T09:52:14.000Z</time>
      </trkpt>
      <trkpt lat="42.61577" lon="1.73648">
        <ele>2525.6000976562</ele>
        <time>2023-07-20T09:52:20.000Z</time>
      </trkpt>
      <trkpt lat="42.61575" lon="1.73648">
        <ele>2526.3999023438</ele>
        <time>2023-07-20T09:52:23.000Z</time>
      </trkpt>
      <trkpt lat="42.61571" lon="1.73647">
        <ele>2527</ele>
        <time>2023-07-20T09:52:27.000Z</time>
      </trkpt>
      <trkpt lat="42.6157" lon="1.73647">
        <ele>2527.6000976562</ele>
        <time>2023-07-20T09:52:32.000Z</time>
      </trkpt>
      <trkpt lat="42.6157" lon="1.73644">
        <ele>2528.1999511719</ele>
        <time>2023-07-20T09:52:39.000Z</time>
      </trkpt>
      <trkpt lat="42.61571" lon="1.73643">
        <ele>2528.6000976562</ele>
        <time>2023-07-20T09:52:45.000Z</time>
      </trkpt>
      <trkpt lat="42.61572" lon="1.73642">
        <ele>2528.8000488281</ele>
        <time>2023-07-20T09:52:47.000Z</time>
      </trkpt>
      <trkpt lat="42.61569" lon="1.73641">
        <ele>2530</ele>
        <time>2023-07-20T09:52:55.000Z</time>
      </trkpt>
      <trkpt lat="42.61569" lon="1.73641">
        <ele>2530.1999511719</ele>
        <time>2023-07-20T09:52:56.000Z</time>
      </trkpt>
      <trkpt lat="42.61569" lon="1.73641">
        <ele>2531</ele>
        <time>2023-07-20T09:53:00.000Z</time>
      </trkpt>
      <trkpt lat="42.61568" lon="1.73641">
        <ele>2531.1999511719</ele>
        <time>2023-07-20T09:53:03.000Z</time>
      </trkpt>
      <trkpt lat="42.61568" lon="1.73642">
        <ele>2532.1999511719</ele>
        <time>2023-07-20T09:53:08.000Z</time>
      </trkpt>
      <trkpt lat="42.61566" lon="1.73642">
        <ele>2532.8000488281</ele>
        <time>2023-07-20T09:53:10.000Z</time>
      </trkpt>
      <trkpt lat="42.61564" lon="1.73641">
        <ele>2533.1999511719</ele>
        <time>2023-07-20T09:53:18.000Z</time>
      </trkpt>
      <trkpt lat="42.61564" lon="1.73641">
        <ele>2533.1999511719</ele>
        <time>2023-07-20T09:53:19.000Z</time>
      </trkpt>
      <trkpt lat="42.61563" lon="1.73638">
        <ele>2533.1999511719</ele>
        <time>2023-07-20T09:53:26.000Z</time>
      </trkpt>
      <trkpt lat="42.61561" lon="1.73636">
        <ele>2534.1999511719</ele>
        <time>2023-07-20T09:53:34.000Z</time>
      </trkpt>
      <trkpt lat="42.6156" lon="1.73636">
        <ele>2535.3999023438</ele>
        <time>2023-07-20T09:53:43.000Z</time>
      </trkpt>
      <trkpt lat="42.6156" lon="1.73636">
        <ele>2536</ele>
        <time>2023-07-20T09:53:44.000Z</time>
      </trkpt>
      <trkpt lat="42.6156" lon="1.73636">
        <ele>2536.6000976562</ele>
        <time>2023-07-20T09:53:45.000Z</time>
      </trkpt>
      <trkpt lat="42.6156" lon="1.73636">
        <ele>2537.8000488281</ele>
        <time>2023-07-20T09:53:49.000Z</time>
      </trkpt>
      <trkpt lat="42.6156" lon="1.73635">
        <ele>2538.3999023438</ele>
        <time>2023-07-20T09:53:53.000Z</time>
      </trkpt>
      <trkpt lat="42.61562" lon="1.73634">
        <ele>2538</ele>
        <time>2023-07-20T09:54:06.000Z</time>
      </trkpt>
      <trkpt lat="42.61563" lon="1.73633">
        <ele>2538.3999023438</ele>
        <time>2023-07-20T09:54:17.000Z</time>
      </trkpt>
      <trkpt lat="42.61565" lon="1.73629">
        <ele>2539</ele>
        <time>2023-07-20T09:54:24.000Z</time>
      </trkpt>
      <trkpt lat="42.61565" lon="1.73629">
        <ele>2539.6000976562</ele>
        <time>2023-07-20T09:54:25.000Z</time>
      </trkpt>
      <trkpt lat="42.61566" lon="1.73628">
        <ele>2540.3999023438</ele>
        <time>2023-07-20T09:54:26.000Z</time>
      </trkpt>
      <trkpt lat="42.61564" lon="1.73626">
        <ele>2540.8000488281</ele>
        <time>2023-07-20T09:54:33.000Z</time>
      </trkpt>
      <trkpt lat="42.61563" lon="1.73624">
        <ele>2541.3999023438</ele>
        <time>2023-07-20T09:54:35.000Z</time>
      </trkpt>
      <trkpt lat="42.61561" lon="1.73622">
        <ele>2542.3999023438</ele>
        <time>2023-07-20T09:54:42.000Z</time>
      </trkpt>
      <trkpt lat="42.61559" lon="1.73624">
        <ele>2543.3999023438</ele>
        <time>2023-07-20T09:54:53.000Z</time>
      </trkpt>
      <trkpt lat="42.6156" lon="1.73624">
        <ele>2543.6000976562</ele>
        <time>2023-07-20T09:54:54.000Z</time>
      </trkpt>
      <trkpt lat="42.61557" lon="1.73621">
        <ele>2544.1999511719</ele>
        <time>2023-07-20T09:55:02.000Z</time>
      </trkpt>
      <trkpt lat="42.61556" lon="1.73623">
        <ele>2544.6000976562</ele>
        <time>2023-07-20T09:55:07.000Z</time>
      </trkpt>
      <trkpt lat="42.61554" lon="1.73623">
        <ele>2544.6000976562</ele>
        <time>2023-07-20T09:55:09.000Z</time>
      </trkpt>
      <trkpt lat="42.6155" lon="1.73623">
        <ele>2544.6000976562</ele>
        <time>2023-07-20T09:55:17.000Z</time>
      </trkpt>
      <trkpt lat="42.61548" lon="1.73623">
        <ele>2545.6000976562</ele>
        <time>2023-07-20T09:55:22.000Z</time>
      </trkpt>
      <trkpt lat="42.61546" lon="1.73623">
        <ele>2546.6000976562</ele>
        <time>2023-07-20T09:55:26.000Z</time>
      </trkpt>
      <trkpt lat="42.61546" lon="1.73622">
        <ele>2546.8000488281</ele>
        <time>2023-07-20T09:55:27.000Z</time>
      </trkpt>
      <trkpt lat="42.61541" lon="1.73622">
        <ele>2547</ele>
        <time>2023-07-20T09:55:36.000Z</time>
      </trkpt>
      <trkpt lat="42.6154" lon="1.73622">
        <ele>2547.8000488281</ele>
        <time>2023-07-20T09:55:40.000Z</time>
      </trkpt>
      <trkpt lat="42.61536" lon="1.73618">
        <ele>2549</ele>
        <time>2023-07-20T09:55:44.000Z</time>
      </trkpt>
      <trkpt lat="42.61536" lon="1.73617">
        <ele>2549.3999023438</ele>
        <time>2023-07-20T09:55:46.000Z</time>
      </trkpt>
      <trkpt lat="42.61536" lon="1.73617">
        <ele>2550.3999023438</ele>
        <time>2023-07-20T09:55:48.000Z</time>
      </trkpt>
      <trkpt lat="42.61534" lon="1.73611">
        <ele>2550.6000976562</ele>
        <time>2023-07-20T09:55:55.000Z</time>
      </trkpt>
      <trkpt lat="42.6153" lon="1.73605">
        <ele>2551.3999023438</ele>
        <time>2023-07-20T09:56:03.000Z</time>
      </trkpt>
      <trkpt lat="42.61528" lon="1.73604">
        <ele>2551.6000976562</ele>
        <time>2023-07-20T09:56:05.000Z</time>
      </trkpt>
      <trkpt lat="42.61526" lon="1.73602">
        <ele>2553</ele>
        <time>2023-07-20T09:56:08.000Z</time>
      </trkpt>
      <trkpt lat="42.61518" lon="1.73603">
        <ele>2549.1999511719</ele>
        <time>2023-07-20T09:56:29.000Z</time>
      </trkpt>
      <trkpt lat="42.61517" lon="1.73603">
        <ele>2548.8000488281</ele>
        <time>2023-07-20T09:56:38.000Z</time>
      </trkpt>
      <trkpt lat="42.61517" lon="1.73595">
        <ele>2549.1999511719</ele>
        <time>2023-07-20T09:56:47.000Z</time>
      </trkpt>
      <trkpt lat="42.61515" lon="1.73594">
        <ele>2550.1999511719</ele>
        <time>2023-07-20T09:56:49.000Z</time>
      </trkpt>
      <trkpt lat="42.61515" lon="1.73593">
        <ele>2552.1999511719</ele>
        <time>2023-07-20T09:56:50.000Z</time>
      </trkpt>
      <trkpt lat="42.61515" lon="1.73593">
        <ele>2553.6000976562</ele>
        <time>2023-07-20T09:56:51.000Z</time>
      </trkpt>
      <trkpt lat="42.61513" lon="1.73594">
        <ele>2553.6000976562</ele>
        <time>2023-07-20T09:56:55.000Z</time>
      </trkpt>
      <trkpt lat="42.61512" lon="1.73593">
        <ele>2552.1999511719</ele>
        <time>2023-07-20T09:56:57.000Z</time>
      </trkpt>
      <trkpt lat="42.6151" lon="1.73589">
        <ele>2552.1999511719</ele>
        <time>2023-07-20T09:57:00.000Z</time>
      </trkpt>
      <trkpt lat="42.61509" lon="1.73584">
        <ele>2552.1999511719</ele>
        <time>2023-07-20T09:57:05.000Z</time>
      </trkpt>
      <trkpt lat="42.61508" lon="1.73581">
        <ele>2551.1999511719</ele>
        <time>2023-07-20T09:57:10.000Z</time>
      </trkpt>
      <trkpt lat="42.61508" lon="1.73579">
        <ele>2550.6000976562</ele>
        <time>2023-07-20T09:57:13.000Z</time>
      </trkpt>
      <trkpt lat="42.61507" lon="1.73577">
        <ele>2549.8000488281</ele>
        <time>2023-07-20T09:57:16.000Z</time>
      </trkpt>
      <trkpt lat="42.61506" lon="1.73578">
        <ele>2549</ele>
        <time>2023-07-20T09:57:18.000Z</time>
      </trkpt>
      <trkpt lat="42.61505" lon="1.7358">
        <ele>2548.8000488281</ele>
        <time>2023-07-20T09:57:21.000Z</time>
      </trkpt>
      <trkpt lat="42.61505" lon="1.73581">
        <ele>2547.1999511719</ele>
        <time>2023-07-20T09:57:25.000Z</time>
      </trkpt>
      <trkpt lat="42.61503" lon="1.73579">
        <ele>2546.1999511719</ele>
        <time>2023-07-20T09:57:29.000Z</time>
      </trkpt>
      <trkpt lat="42.61501" lon="1.73578">
        <ele>2545.1999511719</ele>
        <time>2023-07-20T09:57:34.000Z</time>
      </trkpt>
      <trkpt lat="42.615" lon="1.73578">
        <ele>2545.1999511719</ele>
        <time>2023-07-20T09:57:35.000Z</time>
      </trkpt>
      <trkpt lat="42.615" lon="1.73579">
        <ele>2545</ele>
        <time>2023-07-20T09:57:36.000Z</time>
      </trkpt>
      <trkpt lat="42.61496" lon="1.73573">
        <ele>2541.8000488281</ele>
        <time>2023-07-20T09:57:44.000Z</time>
      </trkpt>
      <trkpt lat="42.61495" lon="1.73573">
        <ele>2541.8000488281</ele>
        <time>2023-07-20T09:57:46.000Z</time>
      </trkpt>
      <trkpt lat="42.61495" lon="1.73567">
        <ele>2541.3999023438</ele>
        <time>2023-07-20T09:57:55.000Z</time>
      </trkpt>
      <trkpt lat="42.61493" lon="1.7356">
        <ele>2541.1999511719</ele>
        <time>2023-07-20T09:58:02.000Z</time>
      </trkpt>
      <trkpt lat="42.61493" lon="1.73557">
        <ele>2540.3999023438</ele>
        <time>2023-07-20T09:58:04.000Z</time>
      </trkpt>
      <trkpt lat="42.61491" lon="1.73554">
        <ele>2539.3999023438</ele>
        <time>2023-07-20T09:58:08.000Z</time>
      </trkpt>
      <trkpt lat="42.6149" lon="1.73553">
        <ele>2539.1999511719</ele>
        <time>2023-07-20T09:58:09.000Z</time>
      </trkpt>
      <trkpt lat="42.61483" lon="1.73545">
        <ele>2536.8000488281</ele>
        <time>2023-07-20T09:58:22.000Z</time>
      </trkpt>
      <trkpt lat="42.61483" lon="1.73547">
        <ele>2535.6000976562</ele>
        <time>2023-07-20T09:58:33.000Z</time>
      </trkpt>
      <trkpt lat="42.61478" lon="1.73539">
        <ele>2535.3999023438</ele>
        <time>2023-07-20T09:58:45.000Z</time>
      </trkpt>
      <trkpt lat="42.6147" lon="1.7353">
        <ele>2534.8000488281</ele>
        <time>2023-07-20T09:58:59.000Z</time>
      </trkpt>
      <trkpt lat="42.6147" lon="1.73529">
        <ele>2534.3999023438</ele>
        <time>2023-07-20T09:59:00.000Z</time>
      </trkpt>
      <trkpt lat="42.61469" lon="1.73528">
        <ele>2533.3999023438</ele>
        <time>2023-07-20T09:59:04.000Z</time>
      </trkpt>
      <trkpt lat="42.61467" lon="1.73527">
        <ele>2532.8000488281</ele>
        <time>2023-07-20T09:59:06.000Z</time>
      </trkpt>
      <trkpt lat="42.61457" lon="1.73518">
        <ele>2533</ele>
        <time>2023-07-20T09:59:19.000Z</time>
      </trkpt>
      <trkpt lat="42.6145" lon="1.73514">
        <ele>2532</ele>
        <time>2023-07-20T09:59:36.000Z</time>
      </trkpt>
      <trkpt lat="42.61449" lon="1.7351">
        <ele>2531.1999511719</ele>
        <time>2023-07-20T09:59:42.000Z</time>
      </trkpt>
      <trkpt lat="42.61448" lon="1.73508">
        <ele>2530.1999511719</ele>
        <time>2023-07-20T09:59:45.000Z</time>
      </trkpt>
      <trkpt lat="42.61445" lon="1.73503">
        <ele>2529</ele>
        <time>2023-07-20T09:59:51.000Z</time>
      </trkpt>
      <trkpt lat="42.61445" lon="1.73502">
        <ele>2527.3999023438</ele>
        <time>2023-07-20T09:59:55.000Z</time>
      </trkpt>
      <trkpt lat="42.61445" lon="1.73502">
        <ele>2527.3999023438</ele>
        <time>2023-07-20T09:59:58.000Z</time>
      </trkpt>
      <trkpt lat="42.61444" lon="1.73499">
        <ele>2526.1999511719</ele>
        <time>2023-07-20T10:00:02.000Z</time>
      </trkpt>
      <trkpt lat="42.61443" lon="1.73496">
        <ele>2525.8000488281</ele>
        <time>2023-07-20T10:00:06.000Z</time>
      </trkpt>
      <trkpt lat="42.61443" lon="1.73492">
        <ele>2525.1999511719</ele>
        <time>2023-07-20T10:00:10.000Z</time>
      </trkpt>
      <trkpt lat="42.61443" lon="1.73491">
        <ele>2524.1999511719</ele>
        <time>2023-07-20T10:00:14.000Z</time>
      </trkpt>
      <trkpt lat="42.61443" lon="1.7349">
        <ele>2524.1999511719</ele>
        <time>2023-07-20T10:00:15.000Z</time>
      </trkpt>
      <trkpt lat="42.61443" lon="1.73487">
        <ele>2523.6000976562</ele>
        <time>2023-07-20T10:00:20.000Z</time>
      </trkpt>
      <trkpt lat="42.61442" lon="1.73488">
        <ele>2523.3999023438</ele>
        <time>2023-07-20T10:00:22.000Z</time>
      </trkpt>
      <trkpt lat="42.61442" lon="1.73486">
        <ele>2523</ele>
        <time>2023-07-20T10:00:29.000Z</time>
      </trkpt>
      <trkpt lat="42.61441" lon="1.73485">
        <ele>2522.8000488281</ele>
        <time>2023-07-20T10:00:33.000Z</time>
      </trkpt>
      <trkpt lat="42.61439" lon="1.73478">
        <ele>2520.3999023438</ele>
        <time>2023-07-20T10:00:40.000Z</time>
      </trkpt>
      <trkpt lat="42.61439" lon="1.73475">
        <ele>2520.3999023438</ele>
        <time>2023-07-20T10:00:42.000Z</time>
      </trkpt>
      <trkpt lat="42.61439" lon="1.7347">
        <ele>2519.6000976562</ele>
        <time>2023-07-20T10:00:50.000Z</time>
      </trkpt>
      <trkpt lat="42.61438" lon="1.73467">
        <ele>2519.1999511719</ele>
        <time>2023-07-20T10:00:54.000Z</time>
      </trkpt>
      <trkpt lat="42.61437" lon="1.73465">
        <ele>2518.8000488281</ele>
        <time>2023-07-20T10:00:56.000Z</time>
      </trkpt>
      <trkpt lat="42.61437" lon="1.73462">
        <ele>2518.1999511719</ele>
        <time>2023-07-20T10:01:00.000Z</time>
      </trkpt>
      <trkpt lat="42.61437" lon="1.7346">
        <ele>2517.1999511719</ele>
        <time>2023-07-20T10:01:03.000Z</time>
      </trkpt>
      <trkpt lat="42.61437" lon="1.73459">
        <ele>2517</ele>
        <time>2023-07-20T10:01:04.000Z</time>
      </trkpt>
      <trkpt lat="42.61436" lon="1.73449">
        <ele>2516.3999023438</ele>
        <time>2023-07-20T10:01:12.000Z</time>
      </trkpt>
      <trkpt lat="42.61434" lon="1.73443">
        <ele>2516</ele>
        <time>2023-07-20T10:01:18.000Z</time>
      </trkpt>
      <trkpt lat="42.61434" lon="1.73442">
        <ele>2515.1999511719</ele>
        <time>2023-07-20T10:01:21.000Z</time>
      </trkpt>
      <trkpt lat="42.61433" lon="1.7344">
        <ele>2514.8000488281</ele>
        <time>2023-07-20T10:01:24.000Z</time>
      </trkpt>
      <trkpt lat="42.61432" lon="1.73435">
        <ele>2514</ele>
        <time>2023-07-20T10:01:28.000Z</time>
      </trkpt>
      <trkpt lat="42.61432" lon="1.73426">
        <ele>2513.3999023438</ele>
        <time>2023-07-20T10:01:34.000Z</time>
      </trkpt>
      <trkpt lat="42.61432" lon="1.73425">
        <ele>2513.1999511719</ele>
        <time>2023-07-20T10:01:35.000Z</time>
      </trkpt>
      <trkpt lat="42.6143" lon="1.73418">
        <ele>2513.3999023438</ele>
        <time>2023-07-20T10:01:41.000Z</time>
      </trkpt>
      <trkpt lat="42.61426" lon="1.73411">
        <ele>2514.1999511719</ele>
        <time>2023-07-20T10:01:49.000Z</time>
      </trkpt>
      <trkpt lat="42.61421" lon="1.734">
        <ele>2513.3999023438</ele>
        <time>2023-07-20T10:01:57.000Z</time>
      </trkpt>
      <trkpt lat="42.61421" lon="1.73392">
        <ele>2512.3999023438</ele>
        <time>2023-07-20T10:02:04.000Z</time>
      </trkpt>
      <trkpt lat="42.61421" lon="1.7339">
        <ele>2511.6000976562</ele>
        <time>2023-07-20T10:02:06.000Z</time>
      </trkpt>
      <trkpt lat="42.61422" lon="1.73389">
        <ele>2511.1999511719</ele>
        <time>2023-07-20T10:02:07.000Z</time>
      </trkpt>
      <trkpt lat="42.61422" lon="1.73386">
        <ele>2510.1999511719</ele>
        <time>2023-07-20T10:02:12.000Z</time>
      </trkpt>
      <trkpt lat="42.61422" lon="1.73385">
        <ele>2509</ele>
        <time>2023-07-20T10:02:17.000Z</time>
      </trkpt>
      <trkpt lat="42.61421" lon="1.73384">
        <ele>2508.3999023438</ele>
        <time>2023-07-20T10:02:20.000Z</time>
      </trkpt>
      <trkpt lat="42.61417" lon="1.73378">
        <ele>2508.1999511719</ele>
        <time>2023-07-20T10:02:26.000Z</time>
      </trkpt>
      <trkpt lat="42.61409" lon="1.7337">
        <ele>2509.6000976562</ele>
        <time>2023-07-20T10:02:38.000Z</time>
      </trkpt>
      <trkpt lat="42.61408" lon="1.73364">
        <ele>2507.8000488281</ele>
        <time>2023-07-20T10:02:47.000Z</time>
      </trkpt>
      <trkpt lat="42.61407" lon="1.73359">
        <ele>2506.6000976562</ele>
        <time>2023-07-20T10:02:50.000Z</time>
      </trkpt>
      <trkpt lat="42.61406" lon="1.73357">
        <ele>2506.6000976562</ele>
        <time>2023-07-20T10:02:54.000Z</time>
      </trkpt>
      <trkpt lat="42.61407" lon="1.7335">
        <ele>2507.3999023438</ele>
        <time>2023-07-20T10:03:08.000Z</time>
      </trkpt>
      <trkpt lat="42.61404" lon="1.73345">
        <ele>2505.8000488281</ele>
        <time>2023-07-20T10:03:14.000Z</time>
      </trkpt>
      <trkpt lat="42.61403" lon="1.73345">
        <ele>2505.3999023438</ele>
        <time>2023-07-20T10:03:15.000Z</time>
      </trkpt>
      <trkpt lat="42.614" lon="1.73342">
        <ele>2504.8000488281</ele>
        <time>2023-07-20T10:03:21.000Z</time>
      </trkpt>
      <trkpt lat="42.61398" lon="1.7334">
        <ele>2504.1999511719</ele>
        <time>2023-07-20T10:03:24.000Z</time>
      </trkpt>
      <trkpt lat="42.61396" lon="1.73336">
        <ele>2503.3999023438</ele>
        <time>2023-07-20T10:03:30.000Z</time>
      </trkpt>
      <trkpt lat="42.61395" lon="1.73328">
        <ele>2503.3999023438</ele>
        <time>2023-07-20T10:03:37.000Z</time>
      </trkpt>
      <trkpt lat="42.61394" lon="1.73327">
        <ele>2503</ele>
        <time>2023-07-20T10:03:38.000Z</time>
      </trkpt>
      <trkpt lat="42.61394" lon="1.73324">
        <ele>2502</ele>
        <time>2023-07-20T10:03:43.000Z</time>
      </trkpt>
      <trkpt lat="42.61394" lon="1.73323">
        <ele>2501.6000976562</ele>
        <time>2023-07-20T10:03:45.000Z</time>
      </trkpt>
      <trkpt lat="42.61393" lon="1.73324">
        <ele>2501.1999511719</ele>
        <time>2023-07-20T10:03:54.000Z</time>
      </trkpt>
      <trkpt lat="42.61391" lon="1.73317">
        <ele>2501</ele>
        <time>2023-07-20T10:04:00.000Z</time>
      </trkpt>
      <trkpt lat="42.61391" lon="1.73315">
        <ele>2502</ele>
        <time>2023-07-20T10:04:05.000Z</time>
      </trkpt>
      <trkpt lat="42.61392" lon="1.73311">
        <ele>2502.3999023438</ele>
        <time>2023-07-20T10:04:12.000Z</time>
      </trkpt>
      <trkpt lat="42.61394" lon="1.7331">
        <ele>2500.8000488281</ele>
        <time>2023-07-20T10:04:15.000Z</time>
      </trkpt>
      <trkpt lat="42.61394" lon="1.73307">
        <ele>2500</ele>
        <time>2023-07-20T10:04:18.000Z</time>
      </trkpt>
      <trkpt lat="42.61395" lon="1.73306">
        <ele>2499.6000976562</ele>
        <time>2023-07-20T10:04:20.000Z</time>
      </trkpt>
      <trkpt lat="42.61396" lon="1.73304">
        <ele>2499.8000488281</ele>
        <time>2023-07-20T10:04:25.000Z</time>
      </trkpt>
      <trkpt lat="42.61395" lon="1.73299">
        <ele>2500.6000976562</ele>
        <time>2023-07-20T10:04:34.000Z</time>
      </trkpt>
      <trkpt lat="42.61394" lon="1.73299">
        <ele>2500.6000976562</ele>
        <time>2023-07-20T10:04:35.000Z</time>
      </trkpt>
      <trkpt lat="42.61395" lon="1.73298">
        <ele>2499</ele>
        <time>2023-07-20T10:04:45.000Z</time>
      </trkpt>
      <trkpt lat="42.61392" lon="1.73296">
        <ele>2497.1999511719</ele>
        <time>2023-07-20T10:04:51.000Z</time>
      </trkpt>
      <trkpt lat="42.61392" lon="1.73295">
        <ele>2499</ele>
        <time>2023-07-20T10:04:59.000Z</time>
      </trkpt>
      <trkpt lat="42.61392" lon="1.73294">
        <ele>2499.6000976562</ele>
        <time>2023-07-20T10:05:00.000Z</time>
      </trkpt>
      <trkpt lat="42.61393" lon="1.73289">
        <ele>2500.6000976562</ele>
        <time>2023-07-20T10:05:06.000Z</time>
      </trkpt>
      <trkpt lat="42.61394" lon="1.73288">
        <ele>2498.3999023438</ele>
        <time>2023-07-20T10:05:10.000Z</time>
      </trkpt>
      <trkpt lat="42.61395" lon="1.73286">
        <ele>2497.1999511719</ele>
        <time>2023-07-20T10:05:12.000Z</time>
      </trkpt>
      <trkpt lat="42.61396" lon="1.73285">
        <ele>2497.1999511719</ele>
        <time>2023-07-20T10:05:13.000Z</time>
      </trkpt>
      <trkpt lat="42.61396" lon="1.73276">
        <ele>2496.6000976562</ele>
        <time>2023-07-20T10:05:19.000Z</time>
      </trkpt>
      <trkpt lat="42.61394" lon="1.73271">
        <ele>2496.3999023438</ele>
        <time>2023-07-20T10:05:26.000Z</time>
      </trkpt>
      <trkpt lat="42.61394" lon="1.73263">
        <ele>2496.8000488281</ele>
        <time>2023-07-20T10:05:33.000Z</time>
      </trkpt>
      <trkpt lat="42.61395" lon="1.73253">
        <ele>2497.1999511719</ele>
        <time>2023-07-20T10:05:41.000Z</time>
      </trkpt>
      <trkpt lat="42.61399" lon="1.73246">
        <ele>2496.1999511719</ele>
        <time>2023-07-20T10:05:48.000Z</time>
      </trkpt>
      <trkpt lat="42.61399" lon="1.73245">
        <ele>2495.8000488281</ele>
        <time>2023-07-20T10:05:49.000Z</time>
      </trkpt>
      <trkpt lat="42.61401" lon="1.73239">
        <ele>2495.3999023438</ele>
        <time>2023-07-20T10:05:55.000Z</time>
      </trkpt>
      <trkpt lat="42.61402" lon="1.7323">
        <ele>2495.1999511719</ele>
        <time>2023-07-20T10:06:03.000Z</time>
      </trkpt>
      <trkpt lat="42.61402" lon="1.73223">
        <ele>2496.3999023438</ele>
        <time>2023-07-20T10:06:10.000Z</time>
      </trkpt>
      <trkpt lat="42.61402" lon="1.73214">
        <ele>2496</ele>
        <time>2023-07-20T10:06:16.000Z</time>
      </trkpt>
      <trkpt lat="42.61403" lon="1.73209">
        <ele>2497.3999023438</ele>
        <time>2023-07-20T10:06:21.000Z</time>
      </trkpt>
      <trkpt lat="42.61404" lon="1.73207">
        <ele>2497.3999023438</ele>
        <time>2023-07-20T10:06:23.000Z</time>
      </trkpt>
      <trkpt lat="42.61405" lon="1.73204">
        <ele>2495.3999023438</ele>
        <time>2023-07-20T10:06:26.000Z</time>
      </trkpt>
      <trkpt lat="42.61404" lon="1.73203">
        <ele>2494.3999023438</ele>
        <time>2023-07-20T10:06:27.000Z</time>
      </trkpt>
      <trkpt lat="42.61404" lon="1.73203">
        <ele>2493.1999511719</ele>
        <time>2023-07-20T10:06:28.000Z</time>
      </trkpt>
      <trkpt lat="42.61401" lon="1.73201">
        <ele>2492.1999511719</ele>
        <time>2023-07-20T10:06:31.000Z</time>
      </trkpt>
      <trkpt lat="42.614" lon="1.73201">
        <ele>2492</ele>
        <time>2023-07-20T10:06:32.000Z</time>
      </trkpt>
      <trkpt lat="42.61397" lon="1.73198">
        <ele>2492.1999511719</ele>
        <time>2023-07-20T10:06:38.000Z</time>
      </trkpt>
      <trkpt lat="42.61397" lon="1.73195">
        <ele>2493.8000488281</ele>
        <time>2023-07-20T10:06:44.000Z</time>
      </trkpt>
      <trkpt lat="42.61397" lon="1.73192">
        <ele>2493.8000488281</ele>
        <time>2023-07-20T10:06:47.000Z</time>
      </trkpt>
      <trkpt lat="42.61398" lon="1.73189">
        <ele>2492.6000976562</ele>
        <time>2023-07-20T10:06:49.000Z</time>
      </trkpt>
      <trkpt lat="42.61398" lon="1.73188">
        <ele>2491.3999023438</ele>
        <time>2023-07-20T10:06:51.000Z</time>
      </trkpt>
      <trkpt lat="42.61398" lon="1.73188">
        <ele>2490.3999023438</ele>
        <time>2023-07-20T10:06:52.000Z</time>
      </trkpt>
      <trkpt lat="42.61399" lon="1.73187">
        <ele>2489.8000488281</ele>
        <time>2023-07-20T10:06:53.000Z</time>
      </trkpt>
      <trkpt lat="42.614" lon="1.73185">
        <ele>2489</ele>
        <time>2023-07-20T10:06:55.000Z</time>
      </trkpt>
      <trkpt lat="42.61402" lon="1.73183">
        <ele>2486.8000488281</ele>
        <time>2023-07-20T10:06:59.000Z</time>
      </trkpt>
      <trkpt lat="42.61403" lon="1.73182">
        <ele>2485.8000488281</ele>
        <time>2023-07-20T10:07:00.000Z</time>
      </trkpt>
      <trkpt lat="42.61404" lon="1.73182">
        <ele>2485.3999023438</ele>
        <time>2023-07-20T10:07:01.000Z</time>
      </trkpt>
      <trkpt lat="42.61413" lon="1.73176">
        <ele>2486.1999511719</ele>
        <time>2023-07-20T10:07:08.000Z</time>
      </trkpt>
      <trkpt lat="42.61413" lon="1.73175">
        <ele>2486.6000976562</ele>
        <time>2023-07-20T10:07:09.000Z</time>
      </trkpt>
      <trkpt lat="42.61412" lon="1.73168">
        <ele>2487.1999511719</ele>
        <time>2023-07-20T10:07:14.000Z</time>
      </trkpt>
      <trkpt lat="42.61412" lon="1.73159">
        <ele>2486.1999511719</ele>
        <time>2023-07-20T10:07:21.000Z</time>
      </trkpt>
      <trkpt lat="42.61412" lon="1.73156">
        <ele>2485.6000976562</ele>
        <time>2023-07-20T10:07:26.000Z</time>
      </trkpt>
      <trkpt lat="42.61413" lon="1.73154">
        <ele>2485.3999023438</ele>
        <time>2023-07-20T10:07:28.000Z</time>
      </trkpt>
      <trkpt lat="42.61412" lon="1.73154">
        <ele>2484.8000488281</ele>
        <time>2023-07-20T10:07:34.000Z</time>
      </trkpt>
      <trkpt lat="42.61412" lon="1.73155">
        <ele>2482.3999023438</ele>
        <time>2023-07-20T10:07:35.000Z</time>
      </trkpt>
      <trkpt lat="42.61412" lon="1.73155">
        <ele>2481</ele>
        <time>2023-07-20T10:07:36.000Z</time>
      </trkpt>
      <trkpt lat="42.61412" lon="1.73155">
        <ele>2479.3999023438</ele>
        <time>2023-07-20T10:07:37.000Z</time>
      </trkpt>
      <trkpt lat="42.61412" lon="1.73155">
        <ele>2478.1999511719</ele>
        <time>2023-07-20T10:07:38.000Z</time>
      </trkpt>
      <trkpt lat="42.61412" lon="1.73155">
        <ele>2477</ele>
        <time>2023-07-20T10:07:39.000Z</time>
      </trkpt>
      <trkpt lat="42.61412" lon="1.73153">
        <ele>2477</ele>
        <time>2023-07-20T10:07:43.000Z</time>
      </trkpt>
      <trkpt lat="42.61412" lon="1.73151">
        <ele>2478</ele>
        <time>2023-07-20T10:07:46.000Z</time>
      </trkpt>
      <trkpt lat="42.61413" lon="1.73146">
        <ele>2476.8000488281</ele>
        <time>2023-07-20T10:07:51.000Z</time>
      </trkpt>
      <trkpt lat="42.61412" lon="1.73136">
        <ele>2477.3999023438</ele>
        <time>2023-07-20T10:07:59.000Z</time>
      </trkpt>
      <trkpt lat="42.61413" lon="1.73131">
        <ele>2477.8000488281</ele>
        <time>2023-07-20T10:08:05.000Z</time>
      </trkpt>
      <trkpt lat="42.61414" lon="1.73131">
        <ele>2478</ele>
        <time>2023-07-20T10:08:06.000Z</time>
      </trkpt>
      <trkpt lat="42.61415" lon="1.73128">
        <ele>2476.6000976562</ele>
        <time>2023-07-20T10:08:12.000Z</time>
      </trkpt>
      <trkpt lat="42.61415" lon="1.73128">
        <ele>2475.3999023438</ele>
        <time>2023-07-20T10:08:13.000Z</time>
      </trkpt>
      <trkpt lat="42.61416" lon="1.73127">
        <ele>2474.3999023438</ele>
        <time>2023-07-20T10:08:16.000Z</time>
      </trkpt>
      <trkpt lat="42.61415" lon="1.73128">
        <ele>2474.1999511719</ele>
        <time>2023-07-20T10:08:21.000Z</time>
      </trkpt>
      <trkpt lat="42.61415" lon="1.73129">
        <ele>2475.8000488281</ele>
        <time>2023-07-20T10:08:23.000Z</time>
      </trkpt>
      <trkpt lat="42.61415" lon="1.73129">
        <ele>2474.8000488281</ele>
        <time>2023-07-20T10:08:28.000Z</time>
      </trkpt>
      <trkpt lat="42.61416" lon="1.7313">
        <ele>2473.6000976562</ele>
        <time>2023-07-20T10:08:38.000Z</time>
      </trkpt>
      <trkpt lat="42.61417" lon="1.73128">
        <ele>2475.3999023438</ele>
        <time>2023-07-20T10:08:39.000Z</time>
      </trkpt>
      <trkpt lat="42.61417" lon="1.73127">
        <ele>2476.3999023438</ele>
        <time>2023-07-20T10:08:40.000Z</time>
      </trkpt>
      <trkpt lat="42.61419" lon="1.73127">
        <ele>2478</ele>
        <time>2023-07-20T10:08:41.000Z</time>
      </trkpt>
      <trkpt lat="42.6142" lon="1.73127">
        <ele>2477.8000488281</ele>
        <time>2023-07-20T10:08:43.000Z</time>
      </trkpt>
      <trkpt lat="42.6142" lon="1.73127">
        <ele>2476.8000488281</ele>
        <time>2023-07-20T10:08:45.000Z</time>
      </trkpt>
      <trkpt lat="42.6142" lon="1.73126">
        <ele>2475.6000976562</ele>
        <time>2023-07-20T10:08:47.000Z</time>
      </trkpt>
      <trkpt lat="42.61421" lon="1.73126">
        <ele>2474</ele>
        <time>2023-07-20T10:08:49.000Z</time>
      </trkpt>
      <trkpt lat="42.61421" lon="1.73126">
        <ele>2473</ele>
        <time>2023-07-20T10:08:52.000Z</time>
      </trkpt>
      <trkpt lat="42.61423" lon="1.73125">
        <ele>2471.8000488281</ele>
        <time>2023-07-20T10:08:56.000Z</time>
      </trkpt>
      <trkpt lat="42.61424" lon="1.73124">
        <ele>2470.3999023438</ele>
        <time>2023-07-20T10:09:00.000Z</time>
      </trkpt>
      <trkpt lat="42.61421" lon="1.73122">
        <ele>2469.6000976562</ele>
        <time>2023-07-20T10:09:05.000Z</time>
      </trkpt>
      <trkpt lat="42.6142" lon="1.7312">
        <ele>2469.3999023438</ele>
        <time>2023-07-20T10:09:09.000Z</time>
      </trkpt>
      <trkpt lat="42.61421" lon="1.73117">
        <ele>2469.1999511719</ele>
        <time>2023-07-20T10:09:13.000Z</time>
      </trkpt>
      <trkpt lat="42.61426" lon="1.73115">
        <ele>2468.3999023438</ele>
        <time>2023-07-20T10:09:22.000Z</time>
      </trkpt>
      <trkpt lat="42.61426" lon="1.73114">
        <ele>2468.3999023438</ele>
        <time>2023-07-20T10:09:23.000Z</time>
      </trkpt>
      <trkpt lat="42.61426" lon="1.73111">
        <ele>2467.1999511719</ele>
        <time>2023-07-20T10:09:27.000Z</time>
      </trkpt>
      <trkpt lat="42.61425" lon="1.73109">
        <ele>2466.1999511719</ele>
        <time>2023-07-20T10:09:29.000Z</time>
      </trkpt>
      <trkpt lat="42.61426" lon="1.73109">
        <ele>2465.6000976562</ele>
        <time>2023-07-20T10:09:30.000Z</time>
      </trkpt>
      <trkpt lat="42.61427" lon="1.73107">
        <ele>2464.3999023438</ele>
        <time>2023-07-20T10:09:36.000Z</time>
      </trkpt>
      <trkpt lat="42.61427" lon="1.73106">
        <ele>2463.1999511719</ele>
        <time>2023-07-20T10:09:40.000Z</time>
      </trkpt>
      <trkpt lat="42.61427" lon="1.73104">
        <ele>2463</ele>
        <time>2023-07-20T10:09:44.000Z</time>
      </trkpt>
      <trkpt lat="42.61428" lon="1.73098">
        <ele>2463.3999023438</ele>
        <time>2023-07-20T10:09:50.000Z</time>
      </trkpt>
      <trkpt lat="42.6143" lon="1.73094">
        <ele>2462.1999511719</ele>
        <time>2023-07-20T10:09:57.000Z</time>
      </trkpt>
      <trkpt lat="42.6143" lon="1.73095">
        <ele>2461.8000488281</ele>
        <time>2023-07-20T10:09:58.000Z</time>
      </trkpt>
      <trkpt lat="42.6143" lon="1.73095">
        <ele>2461.1999511719</ele>
        <time>2023-07-20T10:10:01.000Z</time>
      </trkpt>
      <trkpt lat="42.61432" lon="1.73093">
        <ele>2461.1999511719</ele>
        <time>2023-07-20T10:10:05.000Z</time>
      </trkpt>
      <trkpt lat="42.61437" lon="1.73087">
        <ele>2460.6000976562</ele>
        <time>2023-07-20T10:10:12.000Z</time>
      </trkpt>
      <trkpt lat="42.61439" lon="1.7308">
        <ele>2460.3999023438</ele>
        <time>2023-07-20T10:10:18.000Z</time>
      </trkpt>
      <trkpt lat="42.61444" lon="1.73071">
        <ele>2460.6000976562</ele>
        <time>2023-07-20T10:10:26.000Z</time>
      </trkpt>
      <trkpt lat="42.61446" lon="1.73069">
        <ele>2460.1999511719</ele>
        <time>2023-07-20T10:10:28.000Z</time>
      </trkpt>
      <trkpt lat="42.61451" lon="1.73065">
        <ele>2459.8000488281</ele>
        <time>2023-07-20T10:10:33.000Z</time>
      </trkpt>
      <trkpt lat="42.61454" lon="1.73059">
        <ele>2459</ele>
        <time>2023-07-20T10:10:41.000Z</time>
      </trkpt>
      <trkpt lat="42.61454" lon="1.73051">
        <ele>2458.1999511719</ele>
        <time>2023-07-20T10:10:47.000Z</time>
      </trkpt>
      <trkpt lat="42.61454" lon="1.73048">
        <ele>2458</ele>
        <time>2023-07-20T10:10:49.000Z</time>
      </trkpt>
      <trkpt lat="42.61454" lon="1.73046">
        <ele>2457</ele>
        <time>2023-07-20T10:10:54.000Z</time>
      </trkpt>
      <trkpt lat="42.61452" lon="1.73046">
        <ele>2455.3999023438</ele>
        <time>2023-07-20T10:10:57.000Z</time>
      </trkpt>
      <trkpt lat="42.61449" lon="1.73039">
        <ele>2454.1999511719</ele>
        <time>2023-07-20T10:11:02.000Z</time>
      </trkpt>
      <trkpt lat="42.61442" lon="1.73035">
        <ele>2453.6000976562</ele>
        <time>2023-07-20T10:11:09.000Z</time>
      </trkpt>
      <trkpt lat="42.61438" lon="1.73029">
        <ele>2453.3999023438</ele>
        <time>2023-07-20T10:11:17.000Z</time>
      </trkpt>
      <trkpt lat="42.61438" lon="1.73029">
        <ele>2452.6000976562</ele>
        <time>2023-07-20T10:11:22.000Z</time>
      </trkpt>
      <trkpt lat="42.61438" lon="1.73028">
        <ele>2452</ele>
        <time>2023-07-20T10:11:23.000Z</time>
      </trkpt>
      <trkpt lat="42.61437" lon="1.73028">
        <ele>2451.8000488281</ele>
        <time>2023-07-20T10:11:24.000Z</time>
      </trkpt>
      <trkpt lat="42.6144" lon="1.73028">
        <ele>2453.3999023438</ele>
        <time>2023-07-20T10:11:29.000Z</time>
      </trkpt>
      <trkpt lat="42.6144" lon="1.73027">
        <ele>2453.6000976562</ele>
        <time>2023-07-20T10:11:30.000Z</time>
      </trkpt>
      <trkpt lat="42.6144" lon="1.73027">
        <ele>2453.8000488281</ele>
        <time>2023-07-20T10:11:31.000Z</time>
      </trkpt>
      <trkpt lat="42.6144" lon="1.73028">
        <ele>2451.6000976562</ele>
        <time>2023-07-20T10:11:39.000Z</time>
      </trkpt>
      <trkpt lat="42.6144" lon="1.73028">
        <ele>2449</ele>
        <time>2023-07-20T10:11:42.000Z</time>
      </trkpt>
      <trkpt lat="42.61442" lon="1.73031">
        <ele>2451</ele>
        <time>2023-07-20T10:11:54.000Z</time>
      </trkpt>
      <trkpt lat="42.61442" lon="1.73032">
        <ele>2452.8000488281</ele>
        <time>2023-07-20T10:11:55.000Z</time>
      </trkpt>
      <trkpt lat="42.61443" lon="1.73037">
        <ele>2452.8000488281</ele>
        <time>2023-07-20T10:12:00.000Z</time>
      </trkpt>
      <trkpt lat="42.61446" lon="1.73036">
        <ele>2452</ele>
        <time>2023-07-20T10:12:07.000Z</time>
      </trkpt>
      <trkpt lat="42.61447" lon="1.73036">
        <ele>2451.6000976562</ele>
        <time>2023-07-20T10:12:09.000Z</time>
      </trkpt>
      <trkpt lat="42.6145" lon="1.73037">
        <ele>2450.3999023438</ele>
        <time>2023-07-20T10:12:14.000Z</time>
      </trkpt>
      <trkpt lat="42.6145" lon="1.73037">
        <ele>2450.1999511719</ele>
        <time>2023-07-20T10:12:15.000Z</time>
      </trkpt>
      <trkpt lat="42.61452" lon="1.73037">
        <ele>2449</ele>
        <time>2023-07-20T10:12:20.000Z</time>
      </trkpt>
      <trkpt lat="42.61453" lon="1.73037">
        <ele>2448</ele>
        <time>2023-07-20T10:12:24.000Z</time>
      </trkpt>
      <trkpt lat="42.61449" lon="1.7303">
        <ele>2447</ele>
        <time>2023-07-20T10:12:32.000Z</time>
      </trkpt>
      <trkpt lat="42.61448" lon="1.73029">
        <ele>2446.8000488281</ele>
        <time>2023-07-20T10:12:33.000Z</time>
      </trkpt>
      <trkpt lat="42.61445" lon="1.73022">
        <ele>2446</ele>
        <time>2023-07-20T10:12:40.000Z</time>
      </trkpt>
      <trkpt lat="42.61446" lon="1.73023">
        <ele>2445.1999511719</ele>
        <time>2023-07-20T10:12:41.000Z</time>
      </trkpt>
      <trkpt lat="42.6145" lon="1.7302">
        <ele>2444.8000488281</ele>
        <time>2023-07-20T10:12:47.000Z</time>
      </trkpt>
      <trkpt lat="42.61452" lon="1.73012">
        <ele>2444.1999511719</ele>
        <time>2023-07-20T10:12:53.000Z</time>
      </trkpt>
      <trkpt lat="42.61452" lon="1.73012">
        <ele>2443.3999023438</ele>
        <time>2023-07-20T10:12:55.000Z</time>
      </trkpt>
      <trkpt lat="42.61452" lon="1.73013">
        <ele>2442.1999511719</ele>
        <time>2023-07-20T10:12:56.000Z</time>
      </trkpt>
      <trkpt lat="42.61452" lon="1.73014">
        <ele>2442</ele>
        <time>2023-07-20T10:13:04.000Z</time>
      </trkpt>
      <trkpt lat="42.61449" lon="1.73012">
        <ele>2442.3999023438</ele>
        <time>2023-07-20T10:13:23.000Z</time>
      </trkpt>
      <trkpt lat="42.61446" lon="1.73012">
        <ele>2443.1999511719</ele>
        <time>2023-07-20T10:13:31.000Z</time>
      </trkpt>
      <trkpt lat="42.61443" lon="1.73007">
        <ele>2441</ele>
        <time>2023-07-20T10:13:38.000Z</time>
      </trkpt>
      <trkpt lat="42.61443" lon="1.73004">
        <ele>2440.3999023438</ele>
        <time>2023-07-20T10:13:40.000Z</time>
      </trkpt>
      <trkpt lat="42.61442" lon="1.73001">
        <ele>2440</ele>
        <time>2023-07-20T10:13:43.000Z</time>
      </trkpt>
      <trkpt lat="42.61441" lon="1.72999">
        <ele>2440</ele>
        <time>2023-07-20T10:13:47.000Z</time>
      </trkpt>
      <trkpt lat="42.61437" lon="1.73001">
        <ele>2440.3999023438</ele>
        <time>2023-07-20T10:13:53.000Z</time>
      </trkpt>
      <trkpt lat="42.61437" lon="1.73003">
        <ele>2439.8000488281</ele>
        <time>2023-07-20T10:13:54.000Z</time>
      </trkpt>
      <trkpt lat="42.61436" lon="1.73003">
        <ele>2438.6000976562</ele>
        <time>2023-07-20T10:13:56.000Z</time>
      </trkpt>
      <trkpt lat="42.61435" lon="1.73002">
        <ele>2437.6000976562</ele>
        <time>2023-07-20T10:13:58.000Z</time>
      </trkpt>
      <trkpt lat="42.61431" lon="1.73">
        <ele>2436</ele>
        <time>2023-07-20T10:14:02.000Z</time>
      </trkpt>
      <trkpt lat="42.61429" lon="1.72995">
        <ele>2435.1999511719</ele>
        <time>2023-07-20T10:14:06.000Z</time>
      </trkpt>
      <trkpt lat="42.61429" lon="1.72994">
        <ele>2433.3999023438</ele>
        <time>2023-07-20T10:14:08.000Z</time>
      </trkpt>
      <trkpt lat="42.61428" lon="1.72991">
        <ele>2432.1999511719</ele>
        <time>2023-07-20T10:14:14.000Z</time>
      </trkpt>
      <trkpt lat="42.61428" lon="1.72991">
        <ele>2432</ele>
        <time>2023-07-20T10:14:15.000Z</time>
      </trkpt>
      <trkpt lat="42.61427" lon="1.72989">
        <ele>2430.3999023438</ele>
        <time>2023-07-20T10:14:21.000Z</time>
      </trkpt>
      <trkpt lat="42.61427" lon="1.72986">
        <ele>2429.1999511719</ele>
        <time>2023-07-20T10:14:23.000Z</time>
      </trkpt>
      <trkpt lat="42.61427" lon="1.72984">
        <ele>2429</ele>
        <time>2023-07-20T10:14:24.000Z</time>
      </trkpt>
      <trkpt lat="42.61421" lon="1.72981">
        <ele>2429.8000488281</ele>
        <time>2023-07-20T10:14:32.000Z</time>
      </trkpt>
      <trkpt lat="42.61423" lon="1.72978">
        <ele>2428</ele>
        <time>2023-07-20T10:14:36.000Z</time>
      </trkpt>
      <trkpt lat="42.61423" lon="1.72978">
        <ele>2427</ele>
        <time>2023-07-20T10:14:38.000Z</time>
      </trkpt>
      <trkpt lat="42.61423" lon="1.72978">
        <ele>2426.6000976562</ele>
        <time>2023-07-20T10:14:39.000Z</time>
      </trkpt>
      <trkpt lat="42.61427" lon="1.72978">
        <ele>2426</ele>
        <time>2023-07-20T10:14:47.000Z</time>
      </trkpt>
      <trkpt lat="42.61428" lon="1.72976">
        <ele>2426</ele>
        <time>2023-07-20T10:14:56.000Z</time>
      </trkpt>
      <trkpt lat="42.61424" lon="1.72976">
        <ele>2426</ele>
        <time>2023-07-20T10:15:03.000Z</time>
      </trkpt>
      <trkpt lat="42.61421" lon="1.72969">
        <ele>2425.6000976562</ele>
        <time>2023-07-20T10:15:11.000Z</time>
      </trkpt>
      <trkpt lat="42.61421" lon="1.72968">
        <ele>2425</ele>
        <time>2023-07-20T10:15:12.000Z</time>
      </trkpt>
      <trkpt lat="42.6142" lon="1.72964">
        <ele>2423.8000488281</ele>
        <time>2023-07-20T10:15:17.000Z</time>
      </trkpt>
      <trkpt lat="42.6142" lon="1.72962">
        <ele>2423.3999023438</ele>
        <time>2023-07-20T10:15:19.000Z</time>
      </trkpt>
      <trkpt lat="42.6142" lon="1.72958">
        <ele>2422.8000488281</ele>
        <time>2023-07-20T10:15:22.000Z</time>
      </trkpt>
      <trkpt lat="42.6142" lon="1.72955">
        <ele>2421.6000976562</ele>
        <time>2023-07-20T10:15:26.000Z</time>
      </trkpt>
      <trkpt lat="42.61419" lon="1.7296">
        <ele>2421.1999511719</ele>
        <time>2023-07-20T10:15:33.000Z</time>
      </trkpt>
      <trkpt lat="42.6142" lon="1.72959">
        <ele>2421.1999511719</ele>
        <time>2023-07-20T10:15:40.000Z</time>
      </trkpt>
      <trkpt lat="42.61419" lon="1.72959">
        <ele>2421.1999511719</ele>
        <time>2023-07-20T10:15:47.000Z</time>
      </trkpt>
      <trkpt lat="42.61419" lon="1.7295">
        <ele>2420.6000976562</ele>
        <time>2023-07-20T10:15:52.000Z</time>
      </trkpt>
      <trkpt lat="42.61419" lon="1.72949">
        <ele>2420.6000976562</ele>
        <time>2023-07-20T10:15:53.000Z</time>
      </trkpt>
      <trkpt lat="42.61418" lon="1.72942">
        <ele>2419.6000976562</ele>
        <time>2023-07-20T10:16:00.000Z</time>
      </trkpt>
      <trkpt lat="42.61418" lon="1.72939">
        <ele>2419.3999023438</ele>
        <time>2023-07-20T10:16:02.000Z</time>
      </trkpt>
      <trkpt lat="42.61416" lon="1.72933">
        <ele>2418.1999511719</ele>
        <time>2023-07-20T10:16:09.000Z</time>
      </trkpt>
      <trkpt lat="42.61416" lon="1.72932">
        <ele>2417.8000488281</ele>
        <time>2023-07-20T10:16:10.000Z</time>
      </trkpt>
      <trkpt lat="42.61415" lon="1.72929">
        <ele>2417</ele>
        <time>2023-07-20T10:16:13.000Z</time>
      </trkpt>
      <trkpt lat="42.61415" lon="1.72925">
        <ele>2415.8000488281</ele>
        <time>2023-07-20T10:16:16.000Z</time>
      </trkpt>
      <trkpt lat="42.61415" lon="1.72924">
        <ele>2415.1999511719</ele>
        <time>2023-07-20T10:16:18.000Z</time>
      </trkpt>
      <trkpt lat="42.61414" lon="1.7292">
        <ele>2414.6000976562</ele>
        <time>2023-07-20T10:16:21.000Z</time>
      </trkpt>
      <trkpt lat="42.61412" lon="1.72917">
        <ele>2414.6000976562</ele>
        <time>2023-07-20T10:16:25.000Z</time>
      </trkpt>
      <trkpt lat="42.61411" lon="1.72916">
        <ele>2413.1999511719</ele>
        <time>2023-07-20T10:16:30.000Z</time>
      </trkpt>
      <trkpt lat="42.61411" lon="1.72916">
        <ele>2412.6000976562</ele>
        <time>2023-07-20T10:16:31.000Z</time>
      </trkpt>
      <trkpt lat="42.61411" lon="1.72917">
        <ele>2412.6000976562</ele>
        <time>2023-07-20T10:16:37.000Z</time>
      </trkpt>
      <trkpt lat="42.61414" lon="1.72921">
        <ele>2412.6000976562</ele>
        <time>2023-07-20T10:16:44.000Z</time>
      </trkpt>
      <trkpt lat="42.61414" lon="1.72918">
        <ele>2413.1999511719</ele>
        <time>2023-07-20T10:16:51.000Z</time>
      </trkpt>
      <trkpt lat="42.61413" lon="1.7291">
        <ele>2413.1999511719</ele>
        <time>2023-07-20T10:16:59.000Z</time>
      </trkpt>
      <trkpt lat="42.61412" lon="1.72908">
        <ele>2412.1999511719</ele>
        <time>2023-07-20T10:17:05.000Z</time>
      </trkpt>
      <trkpt lat="42.61412" lon="1.72907">
        <ele>2412</ele>
        <time>2023-07-20T10:17:06.000Z</time>
      </trkpt>
      <trkpt lat="42.61411" lon="1.72901">
        <ele>2411.8000488281</ele>
        <time>2023-07-20T10:17:12.000Z</time>
      </trkpt>
      <trkpt lat="42.61408" lon="1.72893">
        <ele>2411.6000976562</ele>
        <time>2023-07-20T10:17:18.000Z</time>
      </trkpt>
      <trkpt lat="42.61407" lon="1.72888">
        <ele>2410.8000488281</ele>
        <time>2023-07-20T10:17:21.000Z</time>
      </trkpt>
      <trkpt lat="42.61407" lon="1.72885">
        <ele>2409.8000488281</ele>
        <time>2023-07-20T10:17:25.000Z</time>
      </trkpt>
      <trkpt lat="42.61406" lon="1.72882">
        <ele>2409.6000976562</ele>
        <time>2023-07-20T10:17:27.000Z</time>
      </trkpt>
      <trkpt lat="42.61404" lon="1.72873">
        <ele>2408.3999023438</ele>
        <time>2023-07-20T10:17:33.000Z</time>
      </trkpt>
      <trkpt lat="42.61403" lon="1.72867">
        <ele>2408.3999023438</ele>
        <time>2023-07-20T10:17:40.000Z</time>
      </trkpt>
      <trkpt lat="42.61402" lon="1.72861">
        <ele>2408</ele>
        <time>2023-07-20T10:17:45.000Z</time>
      </trkpt>
      <trkpt lat="42.61402" lon="1.72858">
        <ele>2407.3999023438</ele>
        <time>2023-07-20T10:17:47.000Z</time>
      </trkpt>
      <trkpt lat="42.614" lon="1.72852">
        <ele>2407</ele>
        <time>2023-07-20T10:17:53.000Z</time>
      </trkpt>
      <trkpt lat="42.61398" lon="1.72841">
        <ele>2406.6000976562</ele>
        <time>2023-07-20T10:18:00.000Z</time>
      </trkpt>
      <trkpt lat="42.61395" lon="1.72832">
        <ele>2407</ele>
        <time>2023-07-20T10:18:07.000Z</time>
      </trkpt>
      <trkpt lat="42.61395" lon="1.72825">
        <ele>2407.1999511719</ele>
        <time>2023-07-20T10:18:14.000Z</time>
      </trkpt>
      <trkpt lat="42.61398" lon="1.72821">
        <ele>2407</ele>
        <time>2023-07-20T10:18:21.000Z</time>
      </trkpt>
      <trkpt lat="42.61398" lon="1.7282">
        <ele>2405.1999511719</ele>
        <time>2023-07-20T10:18:23.000Z</time>
      </trkpt>
      <trkpt lat="42.61401" lon="1.72818">
        <ele>2404.1999511719</ele>
        <time>2023-07-20T10:18:26.000Z</time>
      </trkpt>
      <trkpt lat="42.61401" lon="1.72815">
        <ele>2403.3999023438</ele>
        <time>2023-07-20T10:18:28.000Z</time>
      </trkpt>
      <trkpt lat="42.61401" lon="1.72811">
        <ele>2403</ele>
        <time>2023-07-20T10:18:30.000Z</time>
      </trkpt>
      <trkpt lat="42.614" lon="1.72805">
        <ele>2402.3999023438</ele>
        <time>2023-07-20T10:18:36.000Z</time>
      </trkpt>
      <trkpt lat="42.61397" lon="1.72804">
        <ele>2401.6000976562</ele>
        <time>2023-07-20T10:18:40.000Z</time>
      </trkpt>
      <trkpt lat="42.61395" lon="1.72802">
        <ele>2401.1999511719</ele>
        <time>2023-07-20T10:18:44.000Z</time>
      </trkpt>
      <trkpt lat="42.61393" lon="1.72799">
        <ele>2401.3999023438</ele>
        <time>2023-07-20T10:18:50.000Z</time>
      </trkpt>
      <trkpt lat="42.61392" lon="1.72795">
        <ele>2400.6000976562</ele>
        <time>2023-07-20T10:18:54.000Z</time>
      </trkpt>
      <trkpt lat="42.61393" lon="1.72792">
        <ele>2399.6000976562</ele>
        <time>2023-07-20T10:18:58.000Z</time>
      </trkpt>
      <trkpt lat="42.61393" lon="1.72789">
        <ele>2399.3999023438</ele>
        <time>2023-07-20T10:19:01.000Z</time>
      </trkpt>
      <trkpt lat="42.61393" lon="1.72783">
        <ele>2398.3999023438</ele>
        <time>2023-07-20T10:19:07.000Z</time>
      </trkpt>
      <trkpt lat="42.61393" lon="1.72781">
        <ele>2398</ele>
        <time>2023-07-20T10:19:08.000Z</time>
      </trkpt>
      <trkpt lat="42.61392" lon="1.72779">
        <ele>2397.3999023438</ele>
        <time>2023-07-20T10:19:12.000Z</time>
      </trkpt>
      <trkpt lat="42.61392" lon="1.72776">
        <ele>2396.8000488281</ele>
        <time>2023-07-20T10:19:16.000Z</time>
      </trkpt>
      <trkpt lat="42.61392" lon="1.72775">
        <ele>2396</ele>
        <time>2023-07-20T10:19:17.000Z</time>
      </trkpt>
      <trkpt lat="42.6139" lon="1.72768">
        <ele>2394.6000976562</ele>
        <time>2023-07-20T10:19:23.000Z</time>
      </trkpt>
      <trkpt lat="42.6139" lon="1.72767">
        <ele>2394.3999023438</ele>
        <time>2023-07-20T10:19:25.000Z</time>
      </trkpt>
      <trkpt lat="42.61386" lon="1.72761">
        <ele>2394.1999511719</ele>
        <time>2023-07-20T10:19:32.000Z</time>
      </trkpt>
      <trkpt lat="42.61386" lon="1.72759">
        <ele>2393.6000976562</ele>
        <time>2023-07-20T10:19:34.000Z</time>
      </trkpt>
      <trkpt lat="42.61384" lon="1.72751">
        <ele>2393.1999511719</ele>
        <time>2023-07-20T10:19:41.000Z</time>
      </trkpt>
      <trkpt lat="42.61382" lon="1.72748">
        <ele>2392.8000488281</ele>
        <time>2023-07-20T10:19:48.000Z</time>
      </trkpt>
      <trkpt lat="42.6138" lon="1.72744">
        <ele>2392.6000976562</ele>
        <time>2023-07-20T10:19:51.000Z</time>
      </trkpt>
      <trkpt lat="42.61378" lon="1.72741">
        <ele>2391.6000976562</ele>
        <time>2023-07-20T10:19:55.000Z</time>
      </trkpt>
      <trkpt lat="42.61377" lon="1.7274">
        <ele>2391.3999023438</ele>
        <time>2023-07-20T10:19:56.000Z</time>
      </trkpt>
      <trkpt lat="42.61375" lon="1.72734">
        <ele>2391.6000976562</ele>
        <time>2023-07-20T10:20:02.000Z</time>
      </trkpt>
      <trkpt lat="42.61369" lon="1.72724">
        <ele>2392</ele>
        <time>2023-07-20T10:20:12.000Z</time>
      </trkpt>
      <trkpt lat="42.61366" lon="1.72718">
        <ele>2391.3999023438</ele>
        <time>2023-07-20T10:20:20.000Z</time>
      </trkpt>
      <trkpt lat="42.61363" lon="1.72715">
        <ele>2391.1999511719</ele>
        <time>2023-07-20T10:20:27.000Z</time>
      </trkpt>
      <trkpt lat="42.61363" lon="1.72714">
        <ele>2389.8000488281</ele>
        <time>2023-07-20T10:20:29.000Z</time>
      </trkpt>
      <trkpt lat="42.61359" lon="1.72706">
        <ele>2389</ele>
        <time>2023-07-20T10:20:34.000Z</time>
      </trkpt>
      <trkpt lat="42.61358" lon="1.72704">
        <ele>2388.8000488281</ele>
        <time>2023-07-20T10:20:36.000Z</time>
      </trkpt>
      <trkpt lat="42.61356" lon="1.72697">
        <ele>2388.6000976562</ele>
        <time>2023-07-20T10:20:42.000Z</time>
      </trkpt>
      <trkpt lat="42.61355" lon="1.72689">
        <ele>2387.8000488281</ele>
        <time>2023-07-20T10:20:49.000Z</time>
      </trkpt>
      <trkpt lat="42.61356" lon="1.72689">
        <ele>2387.8000488281</ele>
        <time>2023-07-20T10:20:50.000Z</time>
      </trkpt>
      <trkpt lat="42.61356" lon="1.72688">
        <ele>2387.3999023438</ele>
        <time>2023-07-20T10:20:54.000Z</time>
      </trkpt>
      <trkpt lat="42.61356" lon="1.72689">
        <ele>2387.1999511719</ele>
        <time>2023-07-20T10:20:55.000Z</time>
      </trkpt>
      <trkpt lat="42.61355" lon="1.72689">
        <ele>2386.8000488281</ele>
        <time>2023-07-20T10:20:56.000Z</time>
      </trkpt>
      <trkpt lat="42.61356" lon="1.72685">
        <ele>2385.8000488281</ele>
        <time>2023-07-20T10:21:01.000Z</time>
      </trkpt>
      <trkpt lat="42.61356" lon="1.72685">
        <ele>2385.3999023438</ele>
        <time>2023-07-20T10:21:02.000Z</time>
      </trkpt>
      <trkpt lat="42.61354" lon="1.72684">
        <ele>2384.1999511719</ele>
        <time>2023-07-20T10:21:04.000Z</time>
      </trkpt>
      <trkpt lat="42.61353" lon="1.72682">
        <ele>2383.6000976562</ele>
        <time>2023-07-20T10:21:07.000Z</time>
      </trkpt>
      <trkpt lat="42.61352" lon="1.7268">
        <ele>2383</ele>
        <time>2023-07-20T10:21:10.000Z</time>
      </trkpt>
      <trkpt lat="42.61351" lon="1.72679">
        <ele>2382.3999023438</ele>
        <time>2023-07-20T10:21:13.000Z</time>
      </trkpt>
      <trkpt lat="42.61351" lon="1.72678">
        <ele>2382</ele>
        <time>2023-07-20T10:21:15.000Z</time>
      </trkpt>
      <trkpt lat="42.6135" lon="1.72674">
        <ele>2381</ele>
        <time>2023-07-20T10:21:23.000Z</time>
      </trkpt>
      <trkpt lat="42.6135" lon="1.72672">
        <ele>2380.8000488281</ele>
        <time>2023-07-20T10:21:26.000Z</time>
      </trkpt>
      <trkpt lat="42.61348" lon="1.7267">
        <ele>2380</ele>
        <time>2023-07-20T10:21:30.000Z</time>
      </trkpt>
      <trkpt lat="42.61347" lon="1.7267">
        <ele>2379.8000488281</ele>
        <time>2023-07-20T10:21:31.000Z</time>
      </trkpt>
      <trkpt lat="42.61346" lon="1.7267">
        <ele>2378.8000488281</ele>
        <time>2023-07-20T10:21:35.000Z</time>
      </trkpt>
      <trkpt lat="42.61343" lon="1.72671">
        <ele>2378.3999023438</ele>
        <time>2023-07-20T10:21:44.000Z</time>
      </trkpt>
      <trkpt lat="42.61345" lon="1.72668">
        <ele>2378.8000488281</ele>
        <time>2023-07-20T10:21:52.000Z</time>
      </trkpt>
      <trkpt lat="42.61341" lon="1.72659">
        <ele>2378.6000976562</ele>
        <time>2023-07-20T10:22:00.000Z</time>
      </trkpt>
      <trkpt lat="42.61339" lon="1.72654">
        <ele>2378.1999511719</ele>
        <time>2023-07-20T10:22:08.000Z</time>
      </trkpt>
      <trkpt lat="42.61338" lon="1.72654">
        <ele>2377.6000976562</ele>
        <time>2023-07-20T10:22:13.000Z</time>
      </trkpt>
      <trkpt lat="42.61337" lon="1.72654">
        <ele>2377</ele>
        <time>2023-07-20T10:22:16.000Z</time>
      </trkpt>
      <trkpt lat="42.61336" lon="1.72654">
        <ele>2376.6000976562</ele>
        <time>2023-07-20T10:22:20.000Z</time>
      </trkpt>
      <trkpt lat="42.61334" lon="1.72652">
        <ele>2376.1999511719</ele>
        <time>2023-07-20T10:22:25.000Z</time>
      </trkpt>
      <trkpt lat="42.61333" lon="1.7265">
        <ele>2375.3999023438</ele>
        <time>2023-07-20T10:22:28.000Z</time>
      </trkpt>
      <trkpt lat="42.61333" lon="1.72647">
        <ele>2374.3999023438</ele>
        <time>2023-07-20T10:22:32.000Z</time>
      </trkpt>
      <trkpt lat="42.61334" lon="1.72645">
        <ele>2373.8000488281</ele>
        <time>2023-07-20T10:22:34.000Z</time>
      </trkpt>
      <trkpt lat="42.61332" lon="1.7264">
        <ele>2373.3999023438</ele>
        <time>2023-07-20T10:22:41.000Z</time>
      </trkpt>
      <trkpt lat="42.61331" lon="1.72639">
        <ele>2373.1999511719</ele>
        <time>2023-07-20T10:22:42.000Z</time>
      </trkpt>
      <trkpt lat="42.61331" lon="1.72633">
        <ele>2372</ele>
        <time>2023-07-20T10:22:47.000Z</time>
      </trkpt>
      <trkpt lat="42.6133" lon="1.72631">
        <ele>2371.8000488281</ele>
        <time>2023-07-20T10:22:49.000Z</time>
      </trkpt>
      <trkpt lat="42.61327" lon="1.72625">
        <ele>2371</ele>
        <time>2023-07-20T10:22:57.000Z</time>
      </trkpt>
      <trkpt lat="42.61327" lon="1.72626">
        <ele>2371</ele>
        <time>2023-07-20T10:22:58.000Z</time>
      </trkpt>
      <trkpt lat="42.61323" lon="1.72624">
        <ele>2371</ele>
        <time>2023-07-20T10:23:06.000Z</time>
      </trkpt>
      <trkpt lat="42.61322" lon="1.72619">
        <ele>2370.8000488281</ele>
        <time>2023-07-20T10:23:13.000Z</time>
      </trkpt>
      <trkpt lat="42.61318" lon="1.72615">
        <ele>2370.1999511719</ele>
        <time>2023-07-20T10:23:20.000Z</time>
      </trkpt>
      <trkpt lat="42.61317" lon="1.72615">
        <ele>2369.8000488281</ele>
        <time>2023-07-20T10:23:22.000Z</time>
      </trkpt>
      <trkpt lat="42.61316" lon="1.72613">
        <ele>2369.6000976562</ele>
        <time>2023-07-20T10:23:27.000Z</time>
      </trkpt>
      <trkpt lat="42.61316" lon="1.72612">
        <ele>2368.6000976562</ele>
        <time>2023-07-20T10:23:29.000Z</time>
      </trkpt>
      <trkpt lat="42.61316" lon="1.72609">
        <ele>2367.6000976562</ele>
        <time>2023-07-20T10:23:34.000Z</time>
      </trkpt>
      <trkpt lat="42.61315" lon="1.72608">
        <ele>2367.6000976562</ele>
        <time>2023-07-20T10:23:36.000Z</time>
      </trkpt>
      <trkpt lat="42.61313" lon="1.72607">
        <ele>2367.3999023438</ele>
        <time>2023-07-20T10:23:42.000Z</time>
      </trkpt>
      <trkpt lat="42.61312" lon="1.72604">
        <ele>2366.3999023438</ele>
        <time>2023-07-20T10:23:48.000Z</time>
      </trkpt>
      <trkpt lat="42.61311" lon="1.72604">
        <ele>2366</ele>
        <time>2023-07-20T10:23:50.000Z</time>
      </trkpt>
      <trkpt lat="42.61311" lon="1.72604">
        <ele>2365.3999023438</ele>
        <time>2023-07-20T10:23:51.000Z</time>
      </trkpt>
      <trkpt lat="42.6131" lon="1.72606">
        <ele>2364.8000488281</ele>
        <time>2023-07-20T10:23:57.000Z</time>
      </trkpt>
      <trkpt lat="42.61308" lon="1.72604">
        <ele>2364.3999023438</ele>
        <time>2023-07-20T10:24:05.000Z</time>
      </trkpt>
      <trkpt lat="42.61309" lon="1.72604">
        <ele>2364.1999511719</ele>
        <time>2023-07-20T10:24:06.000Z</time>
      </trkpt>
      <trkpt lat="42.61308" lon="1.72604">
        <ele>2363.3999023438</ele>
        <time>2023-07-20T10:24:11.000Z</time>
      </trkpt>
      <trkpt lat="42.61308" lon="1.72603">
        <ele>2363</ele>
        <time>2023-07-20T10:24:12.000Z</time>
      </trkpt>
      <trkpt lat="42.61306" lon="1.72601">
        <ele>2361.8000488281</ele>
        <time>2023-07-20T10:24:16.000Z</time>
      </trkpt>
      <trkpt lat="42.61304" lon="1.72601">
        <ele>2361.8000488281</ele>
        <time>2023-07-20T10:24:19.000Z</time>
      </trkpt>
      <trkpt lat="42.61299" lon="1.72598">
        <ele>2361.1999511719</ele>
        <time>2023-07-20T10:24:27.000Z</time>
      </trkpt>
      <trkpt lat="42.61299" lon="1.72598">
        <ele>2360.8000488281</ele>
        <time>2023-07-20T10:24:30.000Z</time>
      </trkpt>
      <trkpt lat="42.61296" lon="1.72596">
        <ele>2360.1999511719</ele>
        <time>2023-07-20T10:24:34.000Z</time>
      </trkpt>
      <trkpt lat="42.61295" lon="1.72596">
        <ele>2359.8000488281</ele>
        <time>2023-07-20T10:24:38.000Z</time>
      </trkpt>
      <trkpt lat="42.61295" lon="1.72597">
        <ele>2359.1999511719</ele>
        <time>2023-07-20T10:24:43.000Z</time>
      </trkpt>
      <trkpt lat="42.61292" lon="1.72596">
        <ele>2358.6000976562</ele>
        <time>2023-07-20T10:24:48.000Z</time>
      </trkpt>
      <trkpt lat="42.61291" lon="1.72595">
        <ele>2358.1999511719</ele>
        <time>2023-07-20T10:24:50.000Z</time>
      </trkpt>
      <trkpt lat="42.61287" lon="1.72592">
        <ele>2357.6000976562</ele>
        <time>2023-07-20T10:24:54.000Z</time>
      </trkpt>
      <trkpt lat="42.61286" lon="1.72591">
        <ele>2357.6000976562</ele>
        <time>2023-07-20T10:24:56.000Z</time>
      </trkpt>
      <trkpt lat="42.6128" lon="1.72589">
        <ele>2358</ele>
        <time>2023-07-20T10:25:02.000Z</time>
      </trkpt>
      <trkpt lat="42.6128" lon="1.72587">
        <ele>2358.8000488281</ele>
        <time>2023-07-20T10:25:07.000Z</time>
      </trkpt>
      <trkpt lat="42.61279" lon="1.72583">
        <ele>2359</ele>
        <time>2023-07-20T10:25:11.000Z</time>
      </trkpt>
      <trkpt lat="42.61275" lon="1.72583">
        <ele>2358.6000976562</ele>
        <time>2023-07-20T10:25:18.000Z</time>
      </trkpt>
      <trkpt lat="42.61269" lon="1.72579">
        <ele>2357.8000488281</ele>
        <time>2023-07-20T10:25:25.000Z</time>
      </trkpt>
      <trkpt lat="42.61264" lon="1.7257">
        <ele>2358.3999023438</ele>
        <time>2023-07-20T10:25:34.000Z</time>
      </trkpt>
      <trkpt lat="42.61263" lon="1.72565">
        <ele>2358.1999511719</ele>
        <time>2023-07-20T10:25:40.000Z</time>
      </trkpt>
      <trkpt lat="42.61264" lon="1.72558">
        <ele>2358.1999511719</ele>
        <time>2023-07-20T10:25:48.000Z</time>
      </trkpt>
      <trkpt lat="42.61264" lon="1.72549">
        <ele>2358.1999511719</ele>
        <time>2023-07-20T10:25:55.000Z</time>
      </trkpt>
      <trkpt lat="42.61263" lon="1.72544">
        <ele>2358.6000976562</ele>
        <time>2023-07-20T10:26:03.000Z</time>
      </trkpt>
      <trkpt lat="42.61263" lon="1.7254">
        <ele>2358.6000976562</ele>
        <time>2023-07-20T10:26:09.000Z</time>
      </trkpt>
      <trkpt lat="42.61261" lon="1.72534">
        <ele>2358.1999511719</ele>
        <time>2023-07-20T10:26:17.000Z</time>
      </trkpt>
      <trkpt lat="42.61262" lon="1.7253">
        <ele>2358</ele>
        <time>2023-07-20T10:26:24.000Z</time>
      </trkpt>
      <trkpt lat="42.61261" lon="1.72525">
        <ele>2358</ele>
        <time>2023-07-20T10:26:31.000Z</time>
      </trkpt>
      <trkpt lat="42.6126" lon="1.72522">
        <ele>2358.1999511719</ele>
        <time>2023-07-20T10:26:39.000Z</time>
      </trkpt>
      <trkpt lat="42.6126" lon="1.72516">
        <ele>2358.8000488281</ele>
        <time>2023-07-20T10:26:48.000Z</time>
      </trkpt>
      <trkpt lat="42.61259" lon="1.72511">
        <ele>2359.3999023438</ele>
        <time>2023-07-20T10:26:55.000Z</time>
      </trkpt>
      <trkpt lat="42.61255" lon="1.72509">
        <ele>2358.8000488281</ele>
        <time>2023-07-20T10:27:02.000Z</time>
      </trkpt>
      <trkpt lat="42.61252" lon="1.72507">
        <ele>2357.8000488281</ele>
        <time>2023-07-20T10:27:08.000Z</time>
      </trkpt>
      <trkpt lat="42.61253" lon="1.72508">
        <ele>2357.1999511719</ele>
        <time>2023-07-20T10:27:09.000Z</time>
      </trkpt>
      <trkpt lat="42.61253" lon="1.72505">
        <ele>2356.6000976562</ele>
        <time>2023-07-20T10:27:16.000Z</time>
      </trkpt>
      <trkpt lat="42.61253" lon="1.72504">
        <ele>2356.3999023438</ele>
        <time>2023-07-20T10:27:18.000Z</time>
      </trkpt>
      <trkpt lat="42.61251" lon="1.72505">
        <ele>2355.3999023438</ele>
        <time>2023-07-20T10:27:25.000Z</time>
      </trkpt>
      <trkpt lat="42.6125" lon="1.72504">
        <ele>2355.3999023438</ele>
        <time>2023-07-20T10:27:27.000Z</time>
      </trkpt>
      <trkpt lat="42.61248" lon="1.72503">
        <ele>2354.1999511719</ele>
        <time>2023-07-20T10:27:31.000Z</time>
      </trkpt>
      <trkpt lat="42.61247" lon="1.72503">
        <ele>2353.6000976562</ele>
        <time>2023-07-20T10:27:33.000Z</time>
      </trkpt>
      <trkpt lat="42.61246" lon="1.72502">
        <ele>2353</ele>
        <time>2023-07-20T10:27:36.000Z</time>
      </trkpt>
      <trkpt lat="42.61244" lon="1.72502">
        <ele>2351.6000976562</ele>
        <time>2023-07-20T10:27:43.000Z</time>
      </trkpt>
      <trkpt lat="42.61243" lon="1.72499">
        <ele>2350.3999023438</ele>
        <time>2023-07-20T10:27:49.000Z</time>
      </trkpt>
      <trkpt lat="42.61243" lon="1.72499">
        <ele>2350.1999511719</ele>
        <time>2023-07-20T10:27:50.000Z</time>
      </trkpt>
      <trkpt lat="42.61243" lon="1.72499">
        <ele>2349.3999023438</ele>
        <time>2023-07-20T10:27:52.000Z</time>
      </trkpt>
      <trkpt lat="42.61242" lon="1.72495">
        <ele>2348.3999023438</ele>
        <time>2023-07-20T10:27:56.000Z</time>
      </trkpt>
      <trkpt lat="42.61241" lon="1.72494">
        <ele>2348.1999511719</ele>
        <time>2023-07-20T10:27:58.000Z</time>
      </trkpt>
      <trkpt lat="42.61238" lon="1.72493">
        <ele>2347.1999511719</ele>
        <time>2023-07-20T10:28:03.000Z</time>
      </trkpt>
      <trkpt lat="42.61236" lon="1.72493">
        <ele>2346.6000976562</ele>
        <time>2023-07-20T10:28:06.000Z</time>
      </trkpt>
      <trkpt lat="42.61234" lon="1.72493">
        <ele>2346.1999511719</ele>
        <time>2023-07-20T10:28:08.000Z</time>
      </trkpt>
      <trkpt lat="42.61232" lon="1.72492">
        <ele>2345</ele>
        <time>2023-07-20T10:28:14.000Z</time>
      </trkpt>
      <trkpt lat="42.61233" lon="1.72492">
        <ele>2344.8000488281</ele>
        <time>2023-07-20T10:28:15.000Z</time>
      </trkpt>
      <trkpt lat="42.61232" lon="1.72484">
        <ele>2344.6000976562</ele>
        <time>2023-07-20T10:28:21.000Z</time>
      </trkpt>
      <trkpt lat="42.61229" lon="1.72482">
        <ele>2344.6000976562</ele>
        <time>2023-07-20T10:28:29.000Z</time>
      </trkpt>
      <trkpt lat="42.61225" lon="1.72483">
        <ele>2344.3999023438</ele>
        <time>2023-07-20T10:28:35.000Z</time>
      </trkpt>
      <trkpt lat="42.61225" lon="1.72483">
        <ele>2344</ele>
        <time>2023-07-20T10:28:36.000Z</time>
      </trkpt>
      <trkpt lat="42.61224" lon="1.72482">
        <ele>2342.8000488281</ele>
        <time>2023-07-20T10:28:39.000Z</time>
      </trkpt>
      <trkpt lat="42.61222" lon="1.72481">
        <ele>2342.1999511719</ele>
        <time>2023-07-20T10:28:43.000Z</time>
      </trkpt>
      <trkpt lat="42.61219" lon="1.72483">
        <ele>2341.8000488281</ele>
        <time>2023-07-20T10:28:50.000Z</time>
      </trkpt>
      <trkpt lat="42.61216" lon="1.72481">
        <ele>2340.6000976562</ele>
        <time>2023-07-20T10:28:56.000Z</time>
      </trkpt>
      <trkpt lat="42.61214" lon="1.72479">
        <ele>2339.8000488281</ele>
        <time>2023-07-20T10:29:03.000Z</time>
      </trkpt>
      <trkpt lat="42.61212" lon="1.72478">
        <ele>2339.6000976562</ele>
        <time>2023-07-20T10:29:07.000Z</time>
      </trkpt>
      <trkpt lat="42.61211" lon="1.72477">
        <ele>2339</ele>
        <time>2023-07-20T10:29:09.000Z</time>
      </trkpt>
      <trkpt lat="42.6121" lon="1.72476">
        <ele>2338.3999023438</ele>
        <time>2023-07-20T10:29:11.000Z</time>
      </trkpt>
      <trkpt lat="42.61208" lon="1.72475">
        <ele>2337.1999511719</ele>
        <time>2023-07-20T10:29:17.000Z</time>
      </trkpt>
      <trkpt lat="42.61205" lon="1.72476">
        <ele>2336</ele>
        <time>2023-07-20T10:29:25.000Z</time>
      </trkpt>
      <trkpt lat="42.61203" lon="1.72475">
        <ele>2334.8000488281</ele>
        <time>2023-07-20T10:29:29.000Z</time>
      </trkpt>
      <trkpt lat="42.61202" lon="1.72474">
        <ele>2334.3999023438</ele>
        <time>2023-07-20T10:29:32.000Z</time>
      </trkpt>
      <trkpt lat="42.61202" lon="1.72473">
        <ele>2333.8000488281</ele>
        <time>2023-07-20T10:29:34.000Z</time>
      </trkpt>
      <trkpt lat="42.61199" lon="1.72473">
        <ele>2332.6000976562</ele>
        <time>2023-07-20T10:29:40.000Z</time>
      </trkpt>
      <trkpt lat="42.61198" lon="1.72473">
        <ele>2332.3999023438</ele>
        <time>2023-07-20T10:29:41.000Z</time>
      </trkpt>
      <trkpt lat="42.61194" lon="1.72472">
        <ele>2331.8000488281</ele>
        <time>2023-07-20T10:29:48.000Z</time>
      </trkpt>
      <trkpt lat="42.61194" lon="1.72472">
        <ele>2331.3999023438</ele>
        <time>2023-07-20T10:29:49.000Z</time>
      </trkpt>
      <trkpt lat="42.61192" lon="1.72469">
        <ele>2330.3999023438</ele>
        <time>2023-07-20T10:29:56.000Z</time>
      </trkpt>
      <trkpt lat="42.61188" lon="1.7247">
        <ele>2329.3999023438</ele>
        <time>2023-07-20T10:30:03.000Z</time>
      </trkpt>
      <trkpt lat="42.61187" lon="1.7247">
        <ele>2329.1999511719</ele>
        <time>2023-07-20T10:30:05.000Z</time>
      </trkpt>
      <trkpt lat="42.61182" lon="1.72467">
        <ele>2328</ele>
        <time>2023-07-20T10:30:10.000Z</time>
      </trkpt>
      <trkpt lat="42.61182" lon="1.72466">
        <ele>2327.6000976562</ele>
        <time>2023-07-20T10:30:12.000Z</time>
      </trkpt>
      <trkpt lat="42.61181" lon="1.72464">
        <ele>2326.8000488281</ele>
        <time>2023-07-20T10:30:14.000Z</time>
      </trkpt>
      <trkpt lat="42.6118" lon="1.72463">
        <ele>2325.6000976562</ele>
        <time>2023-07-20T10:30:21.000Z</time>
      </trkpt>
      <trkpt lat="42.6118" lon="1.72463">
        <ele>2325.1999511719</ele>
        <time>2023-07-20T10:30:22.000Z</time>
      </trkpt>
      <trkpt lat="42.6118" lon="1.72461">
        <ele>2324.6000976562</ele>
        <time>2023-07-20T10:30:27.000Z</time>
      </trkpt>
      <trkpt lat="42.61178" lon="1.7246">
        <ele>2324.1999511719</ele>
        <time>2023-07-20T10:30:30.000Z</time>
      </trkpt>
      <trkpt lat="42.61175" lon="1.7246">
        <ele>2323.6000976562</ele>
        <time>2023-07-20T10:30:37.000Z</time>
      </trkpt>
      <trkpt lat="42.61175" lon="1.72459">
        <ele>2323.3999023438</ele>
        <time>2023-07-20T10:30:38.000Z</time>
      </trkpt>
      <trkpt lat="42.61172" lon="1.72457">
        <ele>2322.1999511719</ele>
        <time>2023-07-20T10:30:44.000Z</time>
      </trkpt>
      <trkpt lat="42.6117" lon="1.72456">
        <ele>2321</ele>
        <time>2023-07-20T10:30:48.000Z</time>
      </trkpt>
      <trkpt lat="42.61169" lon="1.72452">
        <ele>2320.6000976562</ele>
        <time>2023-07-20T10:30:52.000Z</time>
      </trkpt>
      <trkpt lat="42.61169" lon="1.72451">
        <ele>2320</ele>
        <time>2023-07-20T10:30:56.000Z</time>
      </trkpt>
      <trkpt lat="42.61168" lon="1.72449">
        <ele>2319.8000488281</ele>
        <time>2023-07-20T10:31:00.000Z</time>
      </trkpt>
      <trkpt lat="42.61167" lon="1.72447">
        <ele>2318.8000488281</ele>
        <time>2023-07-20T10:31:07.000Z</time>
      </trkpt>
      <trkpt lat="42.61167" lon="1.72446">
        <ele>2318.1999511719</ele>
        <time>2023-07-20T10:31:09.000Z</time>
      </trkpt>
      <trkpt lat="42.61165" lon="1.72444">
        <ele>2317.6000976562</ele>
        <time>2023-07-20T10:31:14.000Z</time>
      </trkpt>
      <trkpt lat="42.61164" lon="1.72444">
        <ele>2317.3999023438</ele>
        <time>2023-07-20T10:31:16.000Z</time>
      </trkpt>
      <trkpt lat="42.61163" lon="1.72443">
        <ele>2316.6000976562</ele>
        <time>2023-07-20T10:31:21.000Z</time>
      </trkpt>
      <trkpt lat="42.61161" lon="1.72441">
        <ele>2316.1999511719</ele>
        <time>2023-07-20T10:31:24.000Z</time>
      </trkpt>
      <trkpt lat="42.61156" lon="1.72437">
        <ele>2315.6000976562</ele>
        <time>2023-07-20T10:31:31.000Z</time>
      </trkpt>
      <trkpt lat="42.61155" lon="1.72437">
        <ele>2315.1999511719</ele>
        <time>2023-07-20T10:31:32.000Z</time>
      </trkpt>
      <trkpt lat="42.61149" lon="1.72433">
        <ele>2314.8000488281</ele>
        <time>2023-07-20T10:31:40.000Z</time>
      </trkpt>
      <trkpt lat="42.61147" lon="1.72431">
        <ele>2314.3999023438</ele>
        <time>2023-07-20T10:31:45.000Z</time>
      </trkpt>
      <trkpt lat="42.61147" lon="1.7243">
        <ele>2313.6000976562</ele>
        <time>2023-07-20T10:31:48.000Z</time>
      </trkpt>
      <trkpt lat="42.61147" lon="1.7243">
        <ele>2313</ele>
        <time>2023-07-20T10:31:49.000Z</time>
      </trkpt>
      <trkpt lat="42.61143" lon="1.72429">
        <ele>2312</ele>
        <time>2023-07-20T10:31:54.000Z</time>
      </trkpt>
      <trkpt lat="42.61139" lon="1.72426">
        <ele>2311.3999023438</ele>
        <time>2023-07-20T10:32:01.000Z</time>
      </trkpt>
      <trkpt lat="42.61139" lon="1.72427">
        <ele>2310.8000488281</ele>
        <time>2023-07-20T10:32:05.000Z</time>
      </trkpt>
      <trkpt lat="42.61139" lon="1.72428">
        <ele>2310.3999023438</ele>
        <time>2023-07-20T10:32:11.000Z</time>
      </trkpt>
      <trkpt lat="42.61138" lon="1.72431">
        <ele>2310.3999023438</ele>
        <time>2023-07-20T10:32:21.000Z</time>
      </trkpt>
      <trkpt lat="42.61133" lon="1.72431">
        <ele>2310.8000488281</ele>
        <time>2023-07-20T10:32:27.000Z</time>
      </trkpt>
      <trkpt lat="42.6113" lon="1.72426">
        <ele>2311.1999511719</ele>
        <time>2023-07-20T10:32:34.000Z</time>
      </trkpt>
      <trkpt lat="42.61128" lon="1.72423">
        <ele>2309.8000488281</ele>
        <time>2023-07-20T10:32:42.000Z</time>
      </trkpt>
      <trkpt lat="42.61127" lon="1.72422">
        <ele>2309.6000976562</ele>
        <time>2023-07-20T10:32:43.000Z</time>
      </trkpt>
      <trkpt lat="42.61126" lon="1.7242">
        <ele>2308.6000976562</ele>
        <time>2023-07-20T10:32:50.000Z</time>
      </trkpt>
      <trkpt lat="42.61126" lon="1.7242">
        <ele>2308.3999023438</ele>
        <time>2023-07-20T10:32:51.000Z</time>
      </trkpt>
      <trkpt lat="42.61124" lon="1.72418">
        <ele>2307.3999023438</ele>
        <time>2023-07-20T10:32:56.000Z</time>
      </trkpt>
      <trkpt lat="42.61123" lon="1.72418">
        <ele>2307.1999511719</ele>
        <time>2023-07-20T10:32:58.000Z</time>
      </trkpt>
      <trkpt lat="42.61125" lon="1.72425">
        <ele>2306.3999023438</ele>
        <time>2023-07-20T10:33:04.000Z</time>
      </trkpt>
      <trkpt lat="42.61125" lon="1.72426">
        <ele>2306.3999023438</ele>
        <time>2023-07-20T10:33:05.000Z</time>
      </trkpt>
      <trkpt lat="42.61122" lon="1.72427">
        <ele>2305.3999023438</ele>
        <time>2023-07-20T10:33:11.000Z</time>
      </trkpt>
      <trkpt lat="42.61116" lon="1.72429">
        <ele>2304.8000488281</ele>
        <time>2023-07-20T10:33:16.000Z</time>
      </trkpt>
      <trkpt lat="42.6111" lon="1.7243">
        <ele>2304.6000976562</ele>
        <time>2023-07-20T10:33:25.000Z</time>
      </trkpt>
      <trkpt lat="42.61107" lon="1.72432">
        <ele>2305</ele>
        <time>2023-07-20T10:33:33.000Z</time>
      </trkpt>
      <trkpt lat="42.61103" lon="1.72434">
        <ele>2306.3999023438</ele>
        <time>2023-07-20T10:33:40.000Z</time>
      </trkpt>
      <trkpt lat="42.61102" lon="1.72436">
        <ele>2306.6000976562</ele>
        <time>2023-07-20T10:33:42.000Z</time>
      </trkpt>
      <trkpt lat="42.61097" lon="1.72439">
        <ele>2307</ele>
        <time>2023-07-20T10:33:49.000Z</time>
      </trkpt>
      <trkpt lat="42.61097" lon="1.72437">
        <ele>2307.1999511719</ele>
        <time>2023-07-20T10:33:53.000Z</time>
      </trkpt>
      <trkpt lat="42.61097" lon="1.72436">
        <ele>2307.6000976562</ele>
        <time>2023-07-20T10:33:55.000Z</time>
      </trkpt>
      <trkpt lat="42.61097" lon="1.72434">
        <ele>2308.1999511719</ele>
        <time>2023-07-20T10:33:57.000Z</time>
      </trkpt>
      <trkpt lat="42.61095" lon="1.72428">
        <ele>2309.1999511719</ele>
        <time>2023-07-20T10:34:05.000Z</time>
      </trkpt>
      <trkpt lat="42.61094" lon="1.72428">
        <ele>2309.1999511719</ele>
        <time>2023-07-20T10:34:06.000Z</time>
      </trkpt>
      <trkpt lat="42.61093" lon="1.72426">
        <ele>2309.3999023438</ele>
        <time>2023-07-20T10:34:13.000Z</time>
      </trkpt>
      <trkpt lat="42.61091" lon="1.72423">
        <ele>2310</ele>
        <time>2023-07-20T10:34:19.000Z</time>
      </trkpt>
      <trkpt lat="42.61091" lon="1.72419">
        <ele>2310.1999511719</ele>
        <time>2023-07-20T10:34:24.000Z</time>
      </trkpt>
      <trkpt lat="42.61091" lon="1.72416">
        <ele>2310.3999023438</ele>
        <time>2023-07-20T10:34:26.000Z</time>
      </trkpt>
      <trkpt lat="42.61091" lon="1.72415">
        <ele>2311.6000976562</ele>
        <time>2023-07-20T10:34:27.000Z</time>
      </trkpt>
      <trkpt lat="42.61089" lon="1.72413">
        <ele>2312.3999023438</ele>
        <time>2023-07-20T10:34:33.000Z</time>
      </trkpt>
      <trkpt lat="42.61089" lon="1.72412">
        <ele>2313.1999511719</ele>
        <time>2023-07-20T10:34:35.000Z</time>
      </trkpt>
      <trkpt lat="42.61085" lon="1.72407">
        <ele>2313.6000976562</ele>
        <time>2023-07-20T10:34:40.000Z</time>
      </trkpt>
      <trkpt lat="42.61084" lon="1.72406">
        <ele>2314.1999511719</ele>
        <time>2023-07-20T10:34:42.000Z</time>
      </trkpt>
      <trkpt lat="42.61078" lon="1.72403">
        <ele>2314</ele>
        <time>2023-07-20T10:34:48.000Z</time>
      </trkpt>
      <trkpt lat="42.61073" lon="1.72396">
        <ele>2313.8000488281</ele>
        <time>2023-07-20T10:34:56.000Z</time>
      </trkpt>
      <trkpt lat="42.61073" lon="1.72394">
        <ele>2313</ele>
        <time>2023-07-20T10:34:59.000Z</time>
      </trkpt>
      <trkpt lat="42.61072" lon="1.72391">
        <ele>2312</ele>
        <time>2023-07-20T10:35:02.000Z</time>
      </trkpt>
      <trkpt lat="42.61072" lon="1.7239">
        <ele>2311.6000976562</ele>
        <time>2023-07-20T10:35:04.000Z</time>
      </trkpt>
      <trkpt lat="42.6107" lon="1.72387">
        <ele>2311.1999511719</ele>
        <time>2023-07-20T10:35:11.000Z</time>
      </trkpt>
      <trkpt lat="42.61069" lon="1.72387">
        <ele>2311</ele>
        <time>2023-07-20T10:35:13.000Z</time>
      </trkpt>
      <trkpt lat="42.61066" lon="1.72387">
        <ele>2309.6000976562</ele>
        <time>2023-07-20T10:35:18.000Z</time>
      </trkpt>
      <trkpt lat="42.61065" lon="1.72387">
        <ele>2308.1999511719</ele>
        <time>2023-07-20T10:35:21.000Z</time>
      </trkpt>
      <trkpt lat="42.61065" lon="1.72387">
        <ele>2307.6000976562</ele>
        <time>2023-07-20T10:35:26.000Z</time>
      </trkpt>
      <trkpt lat="42.61062" lon="1.72388">
        <ele>2307.1999511719</ele>
        <time>2023-07-20T10:35:30.000Z</time>
      </trkpt>
      <trkpt lat="42.61061" lon="1.72389">
        <ele>2306.6000976562</ele>
        <time>2023-07-20T10:35:33.000Z</time>
      </trkpt>
      <trkpt lat="42.61059" lon="1.72387">
        <ele>2306.1999511719</ele>
        <time>2023-07-20T10:35:41.000Z</time>
      </trkpt>
      <trkpt lat="42.61059" lon="1.72387">
        <ele>2305.8000488281</ele>
        <time>2023-07-20T10:35:42.000Z</time>
      </trkpt>
      <trkpt lat="42.61057" lon="1.72386">
        <ele>2304.8000488281</ele>
        <time>2023-07-20T10:35:45.000Z</time>
      </trkpt>
      <trkpt lat="42.61055" lon="1.72385">
        <ele>2303.6000976562</ele>
        <time>2023-07-20T10:35:49.000Z</time>
      </trkpt>
      <trkpt lat="42.61051" lon="1.72381">
        <ele>2303</ele>
        <time>2023-07-20T10:35:56.000Z</time>
      </trkpt>
      <trkpt lat="42.61048" lon="1.72375">
        <ele>2302.8000488281</ele>
        <time>2023-07-20T10:36:04.000Z</time>
      </trkpt>
      <trkpt lat="42.61047" lon="1.72374">
        <ele>2302.6000976562</ele>
        <time>2023-07-20T10:36:08.000Z</time>
      </trkpt>
      <trkpt lat="42.61045" lon="1.72372">
        <ele>2302.1999511719</ele>
        <time>2023-07-20T10:36:10.000Z</time>
      </trkpt>
      <trkpt lat="42.61042" lon="1.72368">
        <ele>2301.8000488281</ele>
        <time>2023-07-20T10:36:17.000Z</time>
      </trkpt>
      <trkpt lat="42.6104" lon="1.72368">
        <ele>2301.6000976562</ele>
        <time>2023-07-20T10:36:19.000Z</time>
      </trkpt>
      <trkpt lat="42.61037" lon="1.72364">
        <ele>2301.1999511719</ele>
        <time>2023-07-20T10:36:24.000Z</time>
      </trkpt>
      <trkpt lat="42.61038" lon="1.72361">
        <ele>2301.1999511719</ele>
        <time>2023-07-20T10:36:30.000Z</time>
      </trkpt>
      <trkpt lat="42.61036" lon="1.7236">
        <ele>2301.1999511719</ele>
        <time>2023-07-20T10:36:39.000Z</time>
      </trkpt>
      <trkpt lat="42.61033" lon="1.72356">
        <ele>2302</ele>
        <time>2023-07-20T10:36:46.000Z</time>
      </trkpt>
      <trkpt lat="42.61029" lon="1.72354">
        <ele>2301.8000488281</ele>
        <time>2023-07-20T10:36:55.000Z</time>
      </trkpt>
      <trkpt lat="42.61026" lon="1.72351">
        <ele>2301.3999023438</ele>
        <time>2023-07-20T10:37:03.000Z</time>
      </trkpt>
      <trkpt lat="42.61022" lon="1.7235">
        <ele>2300.6000976562</ele>
        <time>2023-07-20T10:37:09.000Z</time>
      </trkpt>
      <trkpt lat="42.61022" lon="1.72345">
        <ele>2301</ele>
        <time>2023-07-20T10:37:16.000Z</time>
      </trkpt>
      <trkpt lat="42.61018" lon="1.72345">
        <ele>2301</ele>
        <time>2023-07-20T10:37:24.000Z</time>
      </trkpt>
      <trkpt lat="42.61013" lon="1.72345">
        <ele>2301.1999511719</ele>
        <time>2023-07-20T10:37:30.000Z</time>
      </trkpt>
      <trkpt lat="42.61011" lon="1.72346">
        <ele>2300.3999023438</ele>
        <time>2023-07-20T10:37:37.000Z</time>
      </trkpt>
      <trkpt lat="42.61006" lon="1.72348">
        <ele>2299.6000976562</ele>
        <time>2023-07-20T10:37:45.000Z</time>
      </trkpt>
      <trkpt lat="42.61006" lon="1.72347">
        <ele>2299.1999511719</ele>
        <time>2023-07-20T10:37:46.000Z</time>
      </trkpt>
      <trkpt lat="42.61006" lon="1.72345">
        <ele>2299.1999511719</ele>
        <time>2023-07-20T10:37:54.000Z</time>
      </trkpt>
      <trkpt lat="42.61008" lon="1.72344">
        <ele>2298.6000976562</ele>
        <time>2023-07-20T10:38:02.000Z</time>
      </trkpt>
      <trkpt lat="42.61008" lon="1.72347">
        <ele>2300.8000488281</ele>
        <time>2023-07-20T10:38:09.000Z</time>
      </trkpt>
      <trkpt lat="42.61007" lon="1.72349">
        <ele>2300.8000488281</ele>
        <time>2023-07-20T10:38:11.000Z</time>
      </trkpt>
      <trkpt lat="42.61" lon="1.72347">
        <ele>2300.6000976562</ele>
        <time>2023-07-20T10:38:18.000Z</time>
      </trkpt>
      <trkpt lat="42.60998" lon="1.72347">
        <ele>2299.3999023438</ele>
        <time>2023-07-20T10:38:23.000Z</time>
      </trkpt>
      <trkpt lat="42.60999" lon="1.72345">
        <ele>2298.6000976562</ele>
        <time>2023-07-20T10:38:34.000Z</time>
      </trkpt>
      <trkpt lat="42.60996" lon="1.72344">
        <ele>2298.1999511719</ele>
        <time>2023-07-20T10:38:39.000Z</time>
      </trkpt>
      <trkpt lat="42.60994" lon="1.72344">
        <ele>2298</ele>
        <time>2023-07-20T10:38:42.000Z</time>
      </trkpt>
      <trkpt lat="42.60994" lon="1.72345">
        <ele>2297.3999023438</ele>
        <time>2023-07-20T10:38:47.000Z</time>
      </trkpt>
      <trkpt lat="42.60993" lon="1.7235">
        <ele>2297.6000976562</ele>
        <time>2023-07-20T10:38:53.000Z</time>
      </trkpt>
      <trkpt lat="42.60989" lon="1.72347">
        <ele>2298</ele>
        <time>2023-07-20T10:39:02.000Z</time>
      </trkpt>
      <trkpt lat="42.60986" lon="1.72347">
        <ele>2299</ele>
        <time>2023-07-20T10:39:10.000Z</time>
      </trkpt>
      <trkpt lat="42.60985" lon="1.7235">
        <ele>2299.3999023438</ele>
        <time>2023-07-20T10:39:16.000Z</time>
      </trkpt>
      <trkpt lat="42.60985" lon="1.7235">
        <ele>2299.8000488281</ele>
        <time>2023-07-20T10:39:17.000Z</time>
      </trkpt>
      <trkpt lat="42.60984" lon="1.7235">
        <ele>2300.3999023438</ele>
        <time>2023-07-20T10:39:20.000Z</time>
      </trkpt>
      <trkpt lat="42.60983" lon="1.72351">
        <ele>2301.6000976562</ele>
        <time>2023-07-20T10:39:25.000Z</time>
      </trkpt>
      <trkpt lat="42.60982" lon="1.72352">
        <ele>2301.8000488281</ele>
        <time>2023-07-20T10:39:27.000Z</time>
      </trkpt>
      <trkpt lat="42.6098" lon="1.72357">
        <ele>2301.8000488281</ele>
        <time>2023-07-20T10:39:32.000Z</time>
      </trkpt>
      <trkpt lat="42.60977" lon="1.72357">
        <ele>2302.1999511719</ele>
        <time>2023-07-20T10:39:37.000Z</time>
      </trkpt>
      <trkpt lat="42.60972" lon="1.72357">
        <ele>2302.6000976562</ele>
        <time>2023-07-20T10:39:43.000Z</time>
      </trkpt>
      <trkpt lat="42.6097" lon="1.72357">
        <ele>2303</ele>
        <time>2023-07-20T10:39:45.000Z</time>
      </trkpt>
      <trkpt lat="42.60966" lon="1.72355">
        <ele>2302</ele>
        <time>2023-07-20T10:39:51.000Z</time>
      </trkpt>
      <trkpt lat="42.60964" lon="1.72355">
        <ele>2301.6000976562</ele>
        <time>2023-07-20T10:39:55.000Z</time>
      </trkpt>
      <trkpt lat="42.60961" lon="1.72355">
        <ele>2301.1999511719</ele>
        <time>2023-07-20T10:39:58.000Z</time>
      </trkpt>
      <trkpt lat="42.60957" lon="1.72355">
        <ele>2300.1999511719</ele>
        <time>2023-07-20T10:40:06.000Z</time>
      </trkpt>
      <trkpt lat="42.60956" lon="1.72354">
        <ele>2299</ele>
        <time>2023-07-20T10:40:11.000Z</time>
      </trkpt>
      <trkpt lat="42.60955" lon="1.72354">
        <ele>2298.6000976562</ele>
        <time>2023-07-20T10:40:13.000Z</time>
      </trkpt>
      <trkpt lat="42.60948" lon="1.72353">
        <ele>2298.1999511719</ele>
        <time>2023-07-20T10:40:18.000Z</time>
      </trkpt>
      <trkpt lat="42.60944" lon="1.72354">
        <ele>2299.1999511719</ele>
        <time>2023-07-20T10:40:25.000Z</time>
      </trkpt>
      <trkpt lat="42.60942" lon="1.72355">
        <ele>2298.6000976562</ele>
        <time>2023-07-20T10:40:34.000Z</time>
      </trkpt>
      <trkpt lat="42.60941" lon="1.72355">
        <ele>2298.3999023438</ele>
        <time>2023-07-20T10:40:44.000Z</time>
      </trkpt>
      <trkpt lat="42.60937" lon="1.72356">
        <ele>2299.1999511719</ele>
        <time>2023-07-20T10:40:51.000Z</time>
      </trkpt>
      <trkpt lat="42.60931" lon="1.72352">
        <ele>2300</ele>
        <time>2023-07-20T10:40:59.000Z</time>
      </trkpt>
      <trkpt lat="42.6093" lon="1.72352">
        <ele>2300</ele>
        <time>2023-07-20T10:41:00.000Z</time>
      </trkpt>
      <trkpt lat="42.6093" lon="1.72346">
        <ele>2300</ele>
        <time>2023-07-20T10:41:06.000Z</time>
      </trkpt>
      <trkpt lat="42.60929" lon="1.72339">
        <ele>2299</ele>
        <time>2023-07-20T10:41:12.000Z</time>
      </trkpt>
      <trkpt lat="42.60929" lon="1.72337">
        <ele>2299</ele>
        <time>2023-07-20T10:41:13.000Z</time>
      </trkpt>
      <trkpt lat="42.6093" lon="1.72331">
        <ele>2298.6000976562</ele>
        <time>2023-07-20T10:41:21.000Z</time>
      </trkpt>
      <trkpt lat="42.60934" lon="1.72327">
        <ele>2298</ele>
        <time>2023-07-20T10:41:28.000Z</time>
      </trkpt>
      <trkpt lat="42.60936" lon="1.7232">
        <ele>2297.8000488281</ele>
        <time>2023-07-20T10:41:35.000Z</time>
      </trkpt>
      <trkpt lat="42.60937" lon="1.72314">
        <ele>2298.8000488281</ele>
        <time>2023-07-20T10:41:43.000Z</time>
      </trkpt>
      <trkpt lat="42.60937" lon="1.72312">
        <ele>2299</ele>
        <time>2023-07-20T10:41:44.000Z</time>
      </trkpt>
      <trkpt lat="42.60936" lon="1.72307">
        <ele>2299.1999511719</ele>
        <time>2023-07-20T10:41:51.000Z</time>
      </trkpt>
      <trkpt lat="42.60933" lon="1.72304">
        <ele>2298.6000976562</ele>
        <time>2023-07-20T10:41:57.000Z</time>
      </trkpt>
      <trkpt lat="42.60932" lon="1.72303">
        <ele>2298.3999023438</ele>
        <time>2023-07-20T10:42:03.000Z</time>
      </trkpt>
      <trkpt lat="42.60932" lon="1.72302">
        <ele>2298</ele>
        <time>2023-07-20T10:42:05.000Z</time>
      </trkpt>
      <trkpt lat="42.60931" lon="1.723">
        <ele>2298.3999023438</ele>
        <time>2023-07-20T10:42:12.000Z</time>
      </trkpt>
      <trkpt lat="42.60928" lon="1.72293">
        <ele>2298.3999023438</ele>
        <time>2023-07-20T10:42:19.000Z</time>
      </trkpt>
      <trkpt lat="42.60925" lon="1.72293">
        <ele>2298.3999023438</ele>
        <time>2023-07-20T10:42:25.000Z</time>
      </trkpt>
      <trkpt lat="42.60923" lon="1.7229">
        <ele>2298.6000976562</ele>
        <time>2023-07-20T10:42:32.000Z</time>
      </trkpt>
      <trkpt lat="42.6092" lon="1.72291">
        <ele>2298.8000488281</ele>
        <time>2023-07-20T10:42:39.000Z</time>
      </trkpt>
      <trkpt lat="42.60918" lon="1.72294">
        <ele>2298.3999023438</ele>
        <time>2023-07-20T10:42:45.000Z</time>
      </trkpt>
      <trkpt lat="42.60916" lon="1.72298">
        <ele>2298</ele>
        <time>2023-07-20T10:42:54.000Z</time>
      </trkpt>
      <trkpt lat="42.60913" lon="1.72303">
        <ele>2297.8000488281</ele>
        <time>2023-07-20T10:43:03.000Z</time>
      </trkpt>
      <trkpt lat="42.60911" lon="1.72303">
        <ele>2298.8000488281</ele>
        <time>2023-07-20T10:43:12.000Z</time>
      </trkpt>
      <trkpt lat="42.60909" lon="1.72301">
        <ele>2298.3999023438</ele>
        <time>2023-07-20T10:43:21.000Z</time>
      </trkpt>
      <trkpt lat="42.60911" lon="1.72304">
        <ele>2297.8000488281</ele>
        <time>2023-07-20T10:43:28.000Z</time>
      </trkpt>
      <trkpt lat="42.6091" lon="1.72307">
        <ele>2297.1999511719</ele>
        <time>2023-07-20T10:43:33.000Z</time>
      </trkpt>
      <trkpt lat="42.6091" lon="1.72309">
        <ele>2297</ele>
        <time>2023-07-20T10:43:37.000Z</time>
      </trkpt>
      <trkpt lat="42.60908" lon="1.7231">
        <ele>2296.8000488281</ele>
        <time>2023-07-20T10:43:41.000Z</time>
      </trkpt>
      <trkpt lat="42.60906" lon="1.72309">
        <ele>2297.1999511719</ele>
        <time>2023-07-20T10:43:49.000Z</time>
      </trkpt>
      <trkpt lat="42.60904" lon="1.72315">
        <ele>2298</ele>
        <time>2023-07-20T10:43:55.000Z</time>
      </trkpt>
      <trkpt lat="42.60904" lon="1.72315">
        <ele>2298.1999511719</ele>
        <time>2023-07-20T10:43:56.000Z</time>
      </trkpt>
      <trkpt lat="42.60904" lon="1.72314">
        <ele>2298.1999511719</ele>
        <time>2023-07-20T10:44:03.000Z</time>
      </trkpt>
      <trkpt lat="42.60903" lon="1.72309">
        <ele>2297.8000488281</ele>
        <time>2023-07-20T10:44:10.000Z</time>
      </trkpt>
      <trkpt lat="42.60902" lon="1.72313">
        <ele>2298.6000976562</ele>
        <time>2023-07-20T10:44:16.000Z</time>
      </trkpt>
      <trkpt lat="42.609" lon="1.72315">
        <ele>2299</ele>
        <time>2023-07-20T10:44:20.000Z</time>
      </trkpt>
      <trkpt lat="42.609" lon="1.72314">
        <ele>2299.6000976562</ele>
        <time>2023-07-20T10:44:22.000Z</time>
      </trkpt>
      <trkpt lat="42.609" lon="1.72314">
        <ele>2300</ele>
        <time>2023-07-20T10:44:25.000Z</time>
      </trkpt>
      <trkpt lat="42.60898" lon="1.72311">
        <ele>2300.8000488281</ele>
        <time>2023-07-20T10:44:29.000Z</time>
      </trkpt>
      <trkpt lat="42.60898" lon="1.72312">
        <ele>2301.1999511719</ele>
        <time>2023-07-20T10:44:32.000Z</time>
      </trkpt>
      <trkpt lat="42.60897" lon="1.72314">
        <ele>2301.8000488281</ele>
        <time>2023-07-20T10:44:37.000Z</time>
      </trkpt>
      <trkpt lat="42.60897" lon="1.72315">
        <ele>2302.1999511719</ele>
        <time>2023-07-20T10:44:39.000Z</time>
      </trkpt>
      <trkpt lat="42.60895" lon="1.72316">
        <ele>2302.8000488281</ele>
        <time>2023-07-20T10:44:44.000Z</time>
      </trkpt>
      <trkpt lat="42.60893" lon="1.72316">
        <ele>2303.3999023438</ele>
        <time>2023-07-20T10:44:48.000Z</time>
      </trkpt>
      <trkpt lat="42.60893" lon="1.72317">
        <ele>2303.6000976562</ele>
        <time>2023-07-20T10:44:52.000Z</time>
      </trkpt>
      <trkpt lat="42.60892" lon="1.7232">
        <ele>2304.3999023438</ele>
        <time>2023-07-20T10:44:59.000Z</time>
      </trkpt>
      <trkpt lat="42.60892" lon="1.72321">
        <ele>2305.6000976562</ele>
        <time>2023-07-20T10:45:05.000Z</time>
      </trkpt>
      <trkpt lat="42.60892" lon="1.72322">
        <ele>2305.6000976562</ele>
        <time>2023-07-20T10:45:06.000Z</time>
      </trkpt>
      <trkpt lat="42.60891" lon="1.72323">
        <ele>2306.6000976562</ele>
        <time>2023-07-20T10:45:12.000Z</time>
      </trkpt>
      <trkpt lat="42.60891" lon="1.72323">
        <ele>2306.6000976562</ele>
        <time>2023-07-20T10:45:13.000Z</time>
      </trkpt>
      <trkpt lat="42.6089" lon="1.72325">
        <ele>2307.1999511719</ele>
        <time>2023-07-20T10:45:19.000Z</time>
      </trkpt>
      <trkpt lat="42.60889" lon="1.72325">
        <ele>2307.8000488281</ele>
        <time>2023-07-20T10:45:27.000Z</time>
      </trkpt>
      <trkpt lat="42.60888" lon="1.72319">
        <ele>2309.1999511719</ele>
        <time>2023-07-20T10:45:34.000Z</time>
      </trkpt>
      <trkpt lat="42.60887" lon="1.72315">
        <ele>2310.1999511719</ele>
        <time>2023-07-20T10:45:37.000Z</time>
      </trkpt>
      <trkpt lat="42.60885" lon="1.7231">
        <ele>2310.8000488281</ele>
        <time>2023-07-20T10:45:42.000Z</time>
      </trkpt>
      <trkpt lat="42.60883" lon="1.72304">
        <ele>2311</ele>
        <time>2023-07-20T10:45:49.000Z</time>
      </trkpt>
      <trkpt lat="42.60883" lon="1.72303">
        <ele>2311.1999511719</ele>
        <time>2023-07-20T10:45:50.000Z</time>
      </trkpt>
      <trkpt lat="42.60882" lon="1.72297">
        <ele>2311.6000976562</ele>
        <time>2023-07-20T10:45:56.000Z</time>
      </trkpt>
      <trkpt lat="42.60882" lon="1.72292">
        <ele>2312.3999023438</ele>
        <time>2023-07-20T10:46:02.000Z</time>
      </trkpt>
      <trkpt lat="42.60882" lon="1.72292">
        <ele>2312.3999023438</ele>
        <time>2023-07-20T10:46:03.000Z</time>
      </trkpt>
      <trkpt lat="42.60882" lon="1.7229">
        <ele>2313.3999023438</ele>
        <time>2023-07-20T10:46:06.000Z</time>
      </trkpt>
      <trkpt lat="42.60883" lon="1.72288">
        <ele>2314.8000488281</ele>
        <time>2023-07-20T10:46:11.000Z</time>
      </trkpt>
      <trkpt lat="42.60883" lon="1.72288">
        <ele>2314.8000488281</ele>
        <time>2023-07-20T10:46:12.000Z</time>
      </trkpt>
      <trkpt lat="42.60882" lon="1.72286">
        <ele>2315.8000488281</ele>
        <time>2023-07-20T10:46:17.000Z</time>
      </trkpt>
      <trkpt lat="42.60881" lon="1.7228">
        <ele>2316</ele>
        <time>2023-07-20T10:46:21.000Z</time>
      </trkpt>
      <trkpt lat="42.60879" lon="1.72276">
        <ele>2316.8000488281</ele>
        <time>2023-07-20T10:46:27.000Z</time>
      </trkpt>
      <trkpt lat="42.60875" lon="1.72271">
        <ele>2317.6000976562</ele>
        <time>2023-07-20T10:46:35.000Z</time>
      </trkpt>
      <trkpt lat="42.60872" lon="1.72264">
        <ele>2317.1999511719</ele>
        <time>2023-07-20T10:46:43.000Z</time>
      </trkpt>
      <trkpt lat="42.60869" lon="1.7226">
        <ele>2317.1999511719</ele>
        <time>2023-07-20T10:46:50.000Z</time>
      </trkpt>
      <trkpt lat="42.60864" lon="1.72255">
        <ele>2316.6000976562</ele>
        <time>2023-07-20T10:46:58.000Z</time>
      </trkpt>
      <trkpt lat="42.60862" lon="1.72245">
        <ele>2316.1999511719</ele>
        <time>2023-07-20T10:47:06.000Z</time>
      </trkpt>
      <trkpt lat="42.60862" lon="1.72239">
        <ele>2316.3999023438</ele>
        <time>2023-07-20T10:47:15.000Z</time>
      </trkpt>
      <trkpt lat="42.60863" lon="1.72237">
        <ele>2316.1999511719</ele>
        <time>2023-07-20T10:47:23.000Z</time>
      </trkpt>
      <trkpt lat="42.60864" lon="1.72229">
        <ele>2316</ele>
        <time>2023-07-20T10:47:29.000Z</time>
      </trkpt>
      <trkpt lat="42.60865" lon="1.72223">
        <ele>2315.8000488281</ele>
        <time>2023-07-20T10:47:35.000Z</time>
      </trkpt>
      <trkpt lat="42.60865" lon="1.72212">
        <ele>2315.8000488281</ele>
        <time>2023-07-20T10:47:43.000Z</time>
      </trkpt>
      <trkpt lat="42.60865" lon="1.72197">
        <ele>2316.8000488281</ele>
        <time>2023-07-20T10:47:54.000Z</time>
      </trkpt>
      <trkpt lat="42.60867" lon="1.72189">
        <ele>2316.3999023438</ele>
        <time>2023-07-20T10:48:02.000Z</time>
      </trkpt>
      <trkpt lat="42.60869" lon="1.72183">
        <ele>2315.1999511719</ele>
        <time>2023-07-20T10:48:08.000Z</time>
      </trkpt>
      <trkpt lat="42.60869" lon="1.72182">
        <ele>2315.1999511719</ele>
        <time>2023-07-20T10:48:09.000Z</time>
      </trkpt>
      <trkpt lat="42.6087" lon="1.72173">
        <ele>2315.6000976562</ele>
        <time>2023-07-20T10:48:17.000Z</time>
      </trkpt>
      <trkpt lat="42.6087" lon="1.72166">
        <ele>2315.3999023438</ele>
        <time>2023-07-20T10:48:23.000Z</time>
      </trkpt>
      <trkpt lat="42.60871" lon="1.7216">
        <ele>2314.8000488281</ele>
        <time>2023-07-20T10:48:30.000Z</time>
      </trkpt>
      <trkpt lat="42.60872" lon="1.72154">
        <ele>2314.6000976562</ele>
        <time>2023-07-20T10:48:37.000Z</time>
      </trkpt>
      <trkpt lat="42.60872" lon="1.72152">
        <ele>2314.1999511719</ele>
        <time>2023-07-20T10:48:42.000Z</time>
      </trkpt>
      <trkpt lat="42.60871" lon="1.72152">
        <ele>2313.8000488281</ele>
        <time>2023-07-20T10:48:43.000Z</time>
      </trkpt>
      <trkpt lat="42.60871" lon="1.72148">
        <ele>2313.1999511719</ele>
        <time>2023-07-20T10:48:50.000Z</time>
      </trkpt>
      <trkpt lat="42.60871" lon="1.72146">
        <ele>2312.3999023438</ele>
        <time>2023-07-20T10:48:57.000Z</time>
      </trkpt>
      <trkpt lat="42.60872" lon="1.72146">
        <ele>2312.8000488281</ele>
        <time>2023-07-20T10:49:04.000Z</time>
      </trkpt>
      <trkpt lat="42.60873" lon="1.72145">
        <ele>2312.3999023438</ele>
        <time>2023-07-20T10:49:14.000Z</time>
      </trkpt>
      <trkpt lat="42.60874" lon="1.72145">
        <ele>2312.6000976562</ele>
        <time>2023-07-20T10:49:20.000Z</time>
      </trkpt>
      <trkpt lat="42.60871" lon="1.72142">
        <ele>2312.3999023438</ele>
        <time>2023-07-20T10:49:26.000Z</time>
      </trkpt>
      <trkpt lat="42.60869" lon="1.72139">
        <ele>2312</ele>
        <time>2023-07-20T10:49:29.000Z</time>
      </trkpt>
      <trkpt lat="42.60869" lon="1.72136">
        <ele>2312</ele>
        <time>2023-07-20T10:49:35.000Z</time>
      </trkpt>
      <trkpt lat="42.6087" lon="1.72138">
        <ele>2312.1999511719</ele>
        <time>2023-07-20T10:49:42.000Z</time>
      </trkpt>
      <trkpt lat="42.60871" lon="1.72135">
        <ele>2312.1999511719</ele>
        <time>2023-07-20T10:49:47.000Z</time>
      </trkpt>
      <trkpt lat="42.60871" lon="1.72134">
        <ele>2312.6000976562</ele>
        <time>2023-07-20T10:49:52.000Z</time>
      </trkpt>
      <trkpt lat="42.60872" lon="1.72131">
        <ele>2311.8000488281</ele>
        <time>2023-07-20T10:50:02.000Z</time>
      </trkpt>
      <trkpt lat="42.60871" lon="1.72129">
        <ele>2312.1999511719</ele>
        <time>2023-07-20T10:50:10.000Z</time>
      </trkpt>
      <trkpt lat="42.60869" lon="1.72128">
        <ele>2313</ele>
        <time>2023-07-20T10:50:15.000Z</time>
      </trkpt>
      <trkpt lat="42.60869" lon="1.72128">
        <ele>2313.1999511719</ele>
        <time>2023-07-20T10:50:17.000Z</time>
      </trkpt>
      <trkpt lat="42.60871" lon="1.72126">
        <ele>2313.3999023438</ele>
        <time>2023-07-20T10:50:26.000Z</time>
      </trkpt>
      <trkpt lat="42.60872" lon="1.72123">
        <ele>2314.1999511719</ele>
        <time>2023-07-20T10:50:30.000Z</time>
      </trkpt>
      <trkpt lat="42.60872" lon="1.72122">
        <ele>2314.6000976562</ele>
        <time>2023-07-20T10:50:31.000Z</time>
      </trkpt>
      <trkpt lat="42.60872" lon="1.72121">
        <ele>2315.3999023438</ele>
        <time>2023-07-20T10:50:33.000Z</time>
      </trkpt>
      <trkpt lat="42.60869" lon="1.7212">
        <ele>2315.3999023438</ele>
        <time>2023-07-20T10:50:38.000Z</time>
      </trkpt>
      <trkpt lat="42.60865" lon="1.72119">
        <ele>2316.3999023438</ele>
        <time>2023-07-20T10:50:46.000Z</time>
      </trkpt>
      <trkpt lat="42.60866" lon="1.72119">
        <ele>2316.3999023438</ele>
        <time>2023-07-20T10:50:48.000Z</time>
      </trkpt>
      <trkpt lat="42.60865" lon="1.72118">
        <ele>2317.3999023438</ele>
        <time>2023-07-20T10:50:54.000Z</time>
      </trkpt>
      <trkpt lat="42.60865" lon="1.72117">
        <ele>2317.6000976562</ele>
        <time>2023-07-20T10:50:55.000Z</time>
      </trkpt>
      <trkpt lat="42.60865" lon="1.72117">
        <ele>2317.8000488281</ele>
        <time>2023-07-20T10:51:00.000Z</time>
      </trkpt>
      <trkpt lat="42.60864" lon="1.72116">
        <ele>2318</ele>
        <time>2023-07-20T10:51:08.000Z</time>
      </trkpt>
      <trkpt lat="42.60863" lon="1.72116">
        <ele>2318.6000976562</ele>
        <time>2023-07-20T10:51:10.000Z</time>
      </trkpt>
      <trkpt lat="42.6086" lon="1.72114">
        <ele>2319.6000976562</ele>
        <time>2023-07-20T10:51:15.000Z</time>
      </trkpt>
      <trkpt lat="42.6086" lon="1.72113">
        <ele>2320</ele>
        <time>2023-07-20T10:51:16.000Z</time>
      </trkpt>
      <trkpt lat="42.6086" lon="1.72112">
        <ele>2320.6000976562</ele>
        <time>2023-07-20T10:51:23.000Z</time>
      </trkpt>
      <trkpt lat="42.60859" lon="1.72112">
        <ele>2321.1999511719</ele>
        <time>2023-07-20T10:51:30.000Z</time>
      </trkpt>
      <trkpt lat="42.60858" lon="1.72115">
        <ele>2321.1999511719</ele>
        <time>2023-07-20T10:51:34.000Z</time>
      </trkpt>
      <trkpt lat="42.60858" lon="1.72117">
        <ele>2322.3999023438</ele>
        <time>2023-07-20T10:51:39.000Z</time>
      </trkpt>
      <trkpt lat="42.60858" lon="1.72116">
        <ele>2322.6000976562</ele>
        <time>2023-07-20T10:51:41.000Z</time>
      </trkpt>
      <trkpt lat="42.60857" lon="1.72114">
        <ele>2323.3999023438</ele>
        <time>2023-07-20T10:51:49.000Z</time>
      </trkpt>
      <trkpt lat="42.60857" lon="1.72114">
        <ele>2323.6000976562</ele>
        <time>2023-07-20T10:51:50.000Z</time>
      </trkpt>
      <trkpt lat="42.60857" lon="1.72113">
        <ele>2324.3999023438</ele>
        <time>2023-07-20T10:51:58.000Z</time>
      </trkpt>
      <trkpt lat="42.60857" lon="1.72113">
        <ele>2324.3999023438</ele>
        <time>2023-07-20T10:51:59.000Z</time>
      </trkpt>
      <trkpt lat="42.60856" lon="1.72108">
        <ele>2325.3999023438</ele>
        <time>2023-07-20T10:52:06.000Z</time>
      </trkpt>
      <trkpt lat="42.60855" lon="1.72103">
        <ele>2326.6000976562</ele>
        <time>2023-07-20T10:52:13.000Z</time>
      </trkpt>
      <trkpt lat="42.60858" lon="1.72105">
        <ele>2327.3999023438</ele>
        <time>2023-07-20T10:52:20.000Z</time>
      </trkpt>
      <trkpt lat="42.60857" lon="1.72105">
        <ele>2327.1999511719</ele>
        <time>2023-07-20T10:52:27.000Z</time>
      </trkpt>
      <trkpt lat="42.60857" lon="1.72105">
        <ele>2328.6000976562</ele>
        <time>2023-07-20T10:52:43.000Z</time>
      </trkpt>
      <trkpt lat="42.60859" lon="1.72101">
        <ele>2330.1999511719</ele>
        <time>2023-07-20T10:52:51.000Z</time>
      </trkpt>
      <trkpt lat="42.6086" lon="1.72098">
        <ele>2330.8000488281</ele>
        <time>2023-07-20T10:53:00.000Z</time>
      </trkpt>
      <trkpt lat="42.6086" lon="1.72095">
        <ele>2331</ele>
        <time>2023-07-20T10:53:03.000Z</time>
      </trkpt>
      <trkpt lat="42.6086" lon="1.72094">
        <ele>2331.8000488281</ele>
        <time>2023-07-20T10:53:08.000Z</time>
      </trkpt>
      <trkpt lat="42.60861" lon="1.72093">
        <ele>2332</ele>
        <time>2023-07-20T10:53:11.000Z</time>
      </trkpt>
      <trkpt lat="42.6086" lon="1.72091">
        <ele>2332.6000976562</ele>
        <time>2023-07-20T10:53:15.000Z</time>
      </trkpt>
      <trkpt lat="42.60859" lon="1.7209">
        <ele>2333</ele>
        <time>2023-07-20T10:53:17.000Z</time>
      </trkpt>
      <trkpt lat="42.6086" lon="1.72087">
        <ele>2333.1999511719</ele>
        <time>2023-07-20T10:53:22.000Z</time>
      </trkpt>
      <trkpt lat="42.60863" lon="1.72086">
        <ele>2333.6000976562</ele>
        <time>2023-07-20T10:53:29.000Z</time>
      </trkpt>
      <trkpt lat="42.60863" lon="1.72085">
        <ele>2334.1999511719</ele>
        <time>2023-07-20T10:53:31.000Z</time>
      </trkpt>
      <trkpt lat="42.60864" lon="1.7208">
        <ele>2335.1999511719</ele>
        <time>2023-07-20T10:53:37.000Z</time>
      </trkpt>
      <trkpt lat="42.60863" lon="1.72078">
        <ele>2335.3999023438</ele>
        <time>2023-07-20T10:53:38.000Z</time>
      </trkpt>
      <trkpt lat="42.60859" lon="1.72073">
        <ele>2336.3999023438</ele>
        <time>2023-07-20T10:53:45.000Z</time>
      </trkpt>
      <trkpt lat="42.6086" lon="1.72069">
        <ele>2335.1999511719</ele>
        <time>2023-07-20T10:53:54.000Z</time>
      </trkpt>
      <trkpt lat="42.60862" lon="1.72068">
        <ele>2334</ele>
        <time>2023-07-20T10:53:57.000Z</time>
      </trkpt>
      <trkpt lat="42.60865" lon="1.72059">
        <ele>2333</ele>
        <time>2023-07-20T10:54:03.000Z</time>
      </trkpt>
      <trkpt lat="42.60868" lon="1.72054">
        <ele>2334.1999511719</ele>
        <time>2023-07-20T10:54:11.000Z</time>
      </trkpt>
      <trkpt lat="42.60869" lon="1.72056">
        <ele>2331.6000976562</ele>
        <time>2023-07-20T10:54:15.000Z</time>
      </trkpt>
      <trkpt lat="42.60869" lon="1.72055">
        <ele>2330.6000976562</ele>
        <time>2023-07-20T10:54:17.000Z</time>
      </trkpt>
      <trkpt lat="42.60871" lon="1.72053">
        <ele>2330</ele>
        <time>2023-07-20T10:54:21.000Z</time>
      </trkpt>
      <trkpt lat="42.60872" lon="1.72051">
        <ele>2329.6000976562</ele>
        <time>2023-07-20T10:54:23.000Z</time>
      </trkpt>
      <trkpt lat="42.60873" lon="1.72045">
        <ele>2329.1999511719</ele>
        <time>2023-07-20T10:54:29.000Z</time>
      </trkpt>
      <trkpt lat="42.60873" lon="1.72036">
        <ele>2329</ele>
        <time>2023-07-20T10:54:35.000Z</time>
      </trkpt>
      <trkpt lat="42.60873" lon="1.72034">
        <ele>2328.1999511719</ele>
        <time>2023-07-20T10:54:38.000Z</time>
      </trkpt>
      <trkpt lat="42.60873" lon="1.72033">
        <ele>2326.6000976562</ele>
        <time>2023-07-20T10:54:42.000Z</time>
      </trkpt>
      <trkpt lat="42.60874" lon="1.72033">
        <ele>2326.1999511719</ele>
        <time>2023-07-20T10:54:43.000Z</time>
      </trkpt>
      <trkpt lat="42.60877" lon="1.72026">
        <ele>2326.1999511719</ele>
        <time>2023-07-20T10:54:49.000Z</time>
      </trkpt>
      <trkpt lat="42.60879" lon="1.72022">
        <ele>2326</ele>
        <time>2023-07-20T10:54:56.000Z</time>
      </trkpt>
      <trkpt lat="42.60879" lon="1.72018">
        <ele>2325.3999023438</ele>
        <time>2023-07-20T10:55:00.000Z</time>
      </trkpt>
      <trkpt lat="42.60879" lon="1.72014">
        <ele>2324.3999023438</ele>
        <time>2023-07-20T10:55:04.000Z</time>
      </trkpt>
      <trkpt lat="42.60877" lon="1.72014">
        <ele>2323.3999023438</ele>
        <time>2023-07-20T10:55:09.000Z</time>
      </trkpt>
      <trkpt lat="42.60876" lon="1.72014">
        <ele>2323</ele>
        <time>2023-07-20T10:55:10.000Z</time>
      </trkpt>
      <trkpt lat="42.60875" lon="1.72008">
        <ele>2322</ele>
        <time>2023-07-20T10:55:15.000Z</time>
      </trkpt>
      <trkpt lat="42.60875" lon="1.72007">
        <ele>2321.8000488281</ele>
        <time>2023-07-20T10:55:16.000Z</time>
      </trkpt>
      <trkpt lat="42.60873" lon="1.71999">
        <ele>2321.8000488281</ele>
        <time>2023-07-20T10:55:22.000Z</time>
      </trkpt>
      <trkpt lat="42.60875" lon="1.71991">
        <ele>2322.3999023438</ele>
        <time>2023-07-20T10:55:30.000Z</time>
      </trkpt>
      <trkpt lat="42.60875" lon="1.71988">
        <ele>2322</ele>
        <time>2023-07-20T10:55:37.000Z</time>
      </trkpt>
      <trkpt lat="42.60878" lon="1.71985">
        <ele>2321.6000976562</ele>
        <time>2023-07-20T10:55:45.000Z</time>
      </trkpt>
      <trkpt lat="42.60879" lon="1.71979">
        <ele>2321.3999023438</ele>
        <time>2023-07-20T10:55:53.000Z</time>
      </trkpt>
      <trkpt lat="42.60878" lon="1.71974">
        <ele>2321.8000488281</ele>
        <time>2023-07-20T10:55:59.000Z</time>
      </trkpt>
      <trkpt lat="42.60878" lon="1.71968">
        <ele>2323</ele>
        <time>2023-07-20T10:56:06.000Z</time>
      </trkpt>
      <trkpt lat="42.60877" lon="1.71967">
        <ele>2323.1999511719</ele>
        <time>2023-07-20T10:56:07.000Z</time>
      </trkpt>
      <trkpt lat="42.60876" lon="1.7196">
        <ele>2323.6000976562</ele>
        <time>2023-07-20T10:56:14.000Z</time>
      </trkpt>
      <trkpt lat="42.60877" lon="1.71956">
        <ele>2324.8000488281</ele>
        <time>2023-07-20T10:56:17.000Z</time>
      </trkpt>
      <trkpt lat="42.60878" lon="1.71952">
        <ele>2325.1999511719</ele>
        <time>2023-07-20T10:56:23.000Z</time>
      </trkpt>
      <trkpt lat="42.60879" lon="1.71945">
        <ele>2325.6000976562</ele>
        <time>2023-07-20T10:56:32.000Z</time>
      </trkpt>
      <trkpt lat="42.60879" lon="1.71944">
        <ele>2325.8000488281</ele>
        <time>2023-07-20T10:56:33.000Z</time>
      </trkpt>
      <trkpt lat="42.60875" lon="1.71937">
        <ele>2326.6000976562</ele>
        <time>2023-07-20T10:56:40.000Z</time>
      </trkpt>
      <trkpt lat="42.60869" lon="1.7193">
        <ele>2325.8000488281</ele>
        <time>2023-07-20T10:56:48.000Z</time>
      </trkpt>
      <trkpt lat="42.6087" lon="1.71931">
        <ele>2325.8000488281</ele>
        <time>2023-07-20T10:56:52.000Z</time>
      </trkpt>
      <trkpt lat="42.60872" lon="1.71932">
        <ele>2325.1999511719</ele>
        <time>2023-07-20T10:56:55.000Z</time>
      </trkpt>
      <trkpt lat="42.60872" lon="1.71932">
        <ele>2324.6000976562</ele>
        <time>2023-07-20T10:56:56.000Z</time>
      </trkpt>
      <trkpt lat="42.60875" lon="1.71928">
        <ele>2323.6000976562</ele>
        <time>2023-07-20T10:57:03.000Z</time>
      </trkpt>
      <trkpt lat="42.60875" lon="1.71928">
        <ele>2323.6000976562</ele>
        <time>2023-07-20T10:57:04.000Z</time>
      </trkpt>
      <trkpt lat="42.60876" lon="1.71925">
        <ele>2322.6000976562</ele>
        <time>2023-07-20T10:57:09.000Z</time>
      </trkpt>
      <trkpt lat="42.60876" lon="1.71923">
        <ele>2321.6000976562</ele>
        <time>2023-07-20T10:57:17.000Z</time>
      </trkpt>
      <trkpt lat="42.60876" lon="1.71923">
        <ele>2321.1999511719</ele>
        <time>2023-07-20T10:57:18.000Z</time>
      </trkpt>
      <trkpt lat="42.60877" lon="1.71923">
        <ele>2320.1999511719</ele>
        <time>2023-07-20T10:57:21.000Z</time>
      </trkpt>
      <trkpt lat="42.60877" lon="1.71921">
        <ele>2319.1999511719</ele>
        <time>2023-07-20T10:57:24.000Z</time>
      </trkpt>
      <trkpt lat="42.60878" lon="1.71916">
        <ele>2319</ele>
        <time>2023-07-20T10:57:30.000Z</time>
      </trkpt>
      <trkpt lat="42.6088" lon="1.7191">
        <ele>2318.3999023438</ele>
        <time>2023-07-20T10:57:34.000Z</time>
      </trkpt>
      <trkpt lat="42.60882" lon="1.71899">
        <ele>2318</ele>
        <time>2023-07-20T10:57:44.000Z</time>
      </trkpt>
      <trkpt lat="42.60883" lon="1.71897">
        <ele>2317.8000488281</ele>
        <time>2023-07-20T10:57:50.000Z</time>
      </trkpt>
      <trkpt lat="42.60884" lon="1.71896">
        <ele>2317</ele>
        <time>2023-07-20T10:57:52.000Z</time>
      </trkpt>
      <trkpt lat="42.60885" lon="1.71894">
        <ele>2316.6000976562</ele>
        <time>2023-07-20T10:57:54.000Z</time>
      </trkpt>
      <trkpt lat="42.60884" lon="1.71889">
        <ele>2316.6000976562</ele>
        <time>2023-07-20T10:57:59.000Z</time>
      </trkpt>
      <trkpt lat="42.60883" lon="1.71878">
        <ele>2316.1999511719</ele>
        <time>2023-07-20T10:58:08.000Z</time>
      </trkpt>
      <trkpt lat="42.60879" lon="1.71872">
        <ele>2316.8000488281</ele>
        <time>2023-07-20T10:58:15.000Z</time>
      </trkpt>
      <trkpt lat="42.60877" lon="1.71864">
        <ele>2317.6000976562</ele>
        <time>2023-07-20T10:58:22.000Z</time>
      </trkpt>
      <trkpt lat="42.60876" lon="1.71861">
        <ele>2317.8000488281</ele>
        <time>2023-07-20T10:58:26.000Z</time>
      </trkpt>
      <trkpt lat="42.60873" lon="1.7186">
        <ele>2318.1999511719</ele>
        <time>2023-07-20T10:58:33.000Z</time>
      </trkpt>
      <trkpt lat="42.60873" lon="1.71859">
        <ele>2318.8000488281</ele>
        <time>2023-07-20T10:58:34.000Z</time>
      </trkpt>
      <trkpt lat="42.60871" lon="1.71853">
        <ele>2319.6000976562</ele>
        <time>2023-07-20T10:58:41.000Z</time>
      </trkpt>
      <trkpt lat="42.60871" lon="1.71843">
        <ele>2319.1999511719</ele>
        <time>2023-07-20T10:58:48.000Z</time>
      </trkpt>
      <trkpt lat="42.6087" lon="1.71839">
        <ele>2319.8000488281</ele>
        <time>2023-07-20T10:58:51.000Z</time>
      </trkpt>
      <trkpt lat="42.60868" lon="1.71836">
        <ele>2320</ele>
        <time>2023-07-20T10:58:56.000Z</time>
      </trkpt>
      <trkpt lat="42.60867" lon="1.71829">
        <ele>2320.8000488281</ele>
        <time>2023-07-20T10:59:04.000Z</time>
      </trkpt>
      <trkpt lat="42.60867" lon="1.71827">
        <ele>2321</ele>
        <time>2023-07-20T10:59:05.000Z</time>
      </trkpt>
      <trkpt lat="42.60865" lon="1.71822">
        <ele>2321.8000488281</ele>
        <time>2023-07-20T10:59:12.000Z</time>
      </trkpt>
      <trkpt lat="42.60864" lon="1.71821">
        <ele>2319.6000976562</ele>
        <time>2023-07-20T10:59:15.000Z</time>
      </trkpt>
      <trkpt lat="42.60861" lon="1.71818">
        <ele>2319.1999511719</ele>
        <time>2023-07-20T10:59:19.000Z</time>
      </trkpt>
      <trkpt lat="42.60858" lon="1.71815">
        <ele>2318.6000976562</ele>
        <time>2023-07-20T10:59:22.000Z</time>
      </trkpt>
      <trkpt lat="42.60854" lon="1.71811">
        <ele>2317.8000488281</ele>
        <time>2023-07-20T10:59:28.000Z</time>
      </trkpt>
      <trkpt lat="42.60853" lon="1.7181">
        <ele>2317.6000976562</ele>
        <time>2023-07-20T10:59:30.000Z</time>
      </trkpt>
      <trkpt lat="42.60853" lon="1.71804">
        <ele>2316.8000488281</ele>
        <time>2023-07-20T10:59:36.000Z</time>
      </trkpt>
      <trkpt lat="42.60851" lon="1.718">
        <ele>2317.6000976562</ele>
        <time>2023-07-20T10:59:43.000Z</time>
      </trkpt>
      <trkpt lat="42.60851" lon="1.71801">
        <ele>2319</ele>
        <time>2023-07-20T10:59:48.000Z</time>
      </trkpt>
      <trkpt lat="42.60852" lon="1.71802">
        <ele>2319.3999023438</ele>
        <time>2023-07-20T10:59:50.000Z</time>
      </trkpt>
      <trkpt lat="42.60851" lon="1.71798">
        <ele>2319.3999023438</ele>
        <time>2023-07-20T10:59:56.000Z</time>
      </trkpt>
      <trkpt lat="42.6085" lon="1.71796">
        <ele>2317.8000488281</ele>
        <time>2023-07-20T11:00:01.000Z</time>
      </trkpt>
      <trkpt lat="42.60851" lon="1.71795">
        <ele>2317</ele>
        <time>2023-07-20T11:00:04.000Z</time>
      </trkpt>
      <trkpt lat="42.60851" lon="1.71796">
        <ele>2316.8000488281</ele>
        <time>2023-07-20T11:00:05.000Z</time>
      </trkpt>
      <trkpt lat="42.60854" lon="1.71794">
        <ele>2315.6000976562</ele>
        <time>2023-07-20T11:00:09.000Z</time>
      </trkpt>
      <trkpt lat="42.60855" lon="1.71793">
        <ele>2315.3999023438</ele>
        <time>2023-07-20T11:00:11.000Z</time>
      </trkpt>
      <trkpt lat="42.60853" lon="1.7179">
        <ele>2315.3999023438</ele>
        <time>2023-07-20T11:00:18.000Z</time>
      </trkpt>
      <trkpt lat="42.60851" lon="1.71787">
        <ele>2314.8000488281</ele>
        <time>2023-07-20T11:00:24.000Z</time>
      </trkpt>
      <trkpt lat="42.6085" lon="1.71787">
        <ele>2314.6000976562</ele>
        <time>2023-07-20T11:00:25.000Z</time>
      </trkpt>
      <trkpt lat="42.60848" lon="1.71783">
        <ele>2313.8000488281</ele>
        <time>2023-07-20T11:00:31.000Z</time>
      </trkpt>
      <trkpt lat="42.60848" lon="1.71782">
        <ele>2313.6000976562</ele>
        <time>2023-07-20T11:00:32.000Z</time>
      </trkpt>
      <trkpt lat="42.60846" lon="1.71779">
        <ele>2313</ele>
        <time>2023-07-20T11:00:39.000Z</time>
      </trkpt>
      <trkpt lat="42.60844" lon="1.71778">
        <ele>2312.6000976562</ele>
        <time>2023-07-20T11:00:45.000Z</time>
      </trkpt>
      <trkpt lat="42.60843" lon="1.71779">
        <ele>2312.3999023438</ele>
        <time>2023-07-20T11:00:46.000Z</time>
      </trkpt>
      <trkpt lat="42.60843" lon="1.71779">
        <ele>2311.3999023438</ele>
        <time>2023-07-20T11:00:49.000Z</time>
      </trkpt>
      <trkpt lat="42.60843" lon="1.71778">
        <ele>2310.3999023438</ele>
        <time>2023-07-20T11:00:52.000Z</time>
      </trkpt>
      <trkpt lat="42.60846" lon="1.71779">
        <ele>2310.1999511719</ele>
        <time>2023-07-20T11:00:53.000Z</time>
      </trkpt>
      <trkpt lat="42.60847" lon="1.71778">
        <ele>2309.1999511719</ele>
        <time>2023-07-20T11:00:55.000Z</time>
      </trkpt>
      <trkpt lat="42.60846" lon="1.71775">
        <ele>2308.8000488281</ele>
        <time>2023-07-20T11:00:59.000Z</time>
      </trkpt>
      <trkpt lat="42.60845" lon="1.71769">
        <ele>2308.1999511719</ele>
        <time>2023-07-20T11:01:06.000Z</time>
      </trkpt>
      <trkpt lat="42.60844" lon="1.71768">
        <ele>2307.8000488281</ele>
        <time>2023-07-20T11:01:07.000Z</time>
      </trkpt>
      <trkpt lat="42.60844" lon="1.71766">
        <ele>2307.1999511719</ele>
        <time>2023-07-20T11:01:11.000Z</time>
      </trkpt>
      <trkpt lat="42.60843" lon="1.71763">
        <ele>2306.1999511719</ele>
        <time>2023-07-20T11:01:14.000Z</time>
      </trkpt>
      <trkpt lat="42.60842" lon="1.7176">
        <ele>2306</ele>
        <time>2023-07-20T11:01:20.000Z</time>
      </trkpt>
      <trkpt lat="42.60842" lon="1.71758">
        <ele>2305.3999023438</ele>
        <time>2023-07-20T11:01:23.000Z</time>
      </trkpt>
      <trkpt lat="42.60842" lon="1.71754">
        <ele>2305</ele>
        <time>2023-07-20T11:01:31.000Z</time>
      </trkpt>
      <trkpt lat="42.60841" lon="1.71754">
        <ele>2304</ele>
        <time>2023-07-20T11:01:32.000Z</time>
      </trkpt>
      <trkpt lat="42.6084" lon="1.71751">
        <ele>2303</ele>
        <time>2023-07-20T11:01:37.000Z</time>
      </trkpt>
      <trkpt lat="42.60839" lon="1.71751">
        <ele>2303</ele>
        <time>2023-07-20T11:01:38.000Z</time>
      </trkpt>
      <trkpt lat="42.60835" lon="1.71749">
        <ele>2302.6000976562</ele>
        <time>2023-07-20T11:01:44.000Z</time>
      </trkpt>
      <trkpt lat="42.60834" lon="1.71749">
        <ele>2301.6000976562</ele>
        <time>2023-07-20T11:01:46.000Z</time>
      </trkpt>
      <trkpt lat="42.60831" lon="1.71746">
        <ele>2301</ele>
        <time>2023-07-20T11:01:51.000Z</time>
      </trkpt>
      <trkpt lat="42.60829" lon="1.71744">
        <ele>2300.6000976562</ele>
        <time>2023-07-20T11:01:55.000Z</time>
      </trkpt>
      <trkpt lat="42.60825" lon="1.71743">
        <ele>2300.6000976562</ele>
        <time>2023-07-20T11:02:00.000Z</time>
      </trkpt>
      <trkpt lat="42.60822" lon="1.71741">
        <ele>2301</ele>
        <time>2023-07-20T11:02:06.000Z</time>
      </trkpt>
      <trkpt lat="42.60817" lon="1.71736">
        <ele>2301.1999511719</ele>
        <time>2023-07-20T11:02:14.000Z</time>
      </trkpt>
      <trkpt lat="42.60814" lon="1.71733">
        <ele>2302</ele>
        <time>2023-07-20T11:02:22.000Z</time>
      </trkpt>
      <trkpt lat="42.60814" lon="1.7173">
        <ele>2302.8000488281</ele>
        <time>2023-07-20T11:02:24.000Z</time>
      </trkpt>
      <trkpt lat="42.60814" lon="1.71727">
        <ele>2303</ele>
        <time>2023-07-20T11:02:29.000Z</time>
      </trkpt>
      <trkpt lat="42.60814" lon="1.71726">
        <ele>2303</ele>
        <time>2023-07-20T11:02:30.000Z</time>
      </trkpt>
      <trkpt lat="42.6081" lon="1.7172">
        <ele>2303.8000488281</ele>
        <time>2023-07-20T11:02:38.000Z</time>
      </trkpt>
      <trkpt lat="42.6081" lon="1.7172">
        <ele>2304.1999511719</ele>
        <time>2023-07-20T11:02:39.000Z</time>
      </trkpt>
      <trkpt lat="42.60807" lon="1.71718">
        <ele>2305.1999511719</ele>
        <time>2023-07-20T11:02:46.000Z</time>
      </trkpt>
      <trkpt lat="42.60806" lon="1.71718">
        <ele>2305.3999023438</ele>
        <time>2023-07-20T11:02:47.000Z</time>
      </trkpt>
      <trkpt lat="42.60803" lon="1.71716">
        <ele>2306.3999023438</ele>
        <time>2023-07-20T11:02:51.000Z</time>
      </trkpt>
      <trkpt lat="42.60803" lon="1.71715">
        <ele>2307</ele>
        <time>2023-07-20T11:02:53.000Z</time>
      </trkpt>
      <trkpt lat="42.60802" lon="1.71714">
        <ele>2307.3999023438</ele>
        <time>2023-07-20T11:02:55.000Z</time>
      </trkpt>
      <trkpt lat="42.60799" lon="1.71709">
        <ele>2308</ele>
        <time>2023-07-20T11:03:02.000Z</time>
      </trkpt>
      <trkpt lat="42.60798" lon="1.7171">
        <ele>2308</ele>
        <time>2023-07-20T11:03:05.000Z</time>
      </trkpt>
      <trkpt lat="42.60798" lon="1.71711">
        <ele>2308.3999023438</ele>
        <time>2023-07-20T11:03:07.000Z</time>
      </trkpt>
      <trkpt lat="42.60797" lon="1.71711">
        <ele>2309</ele>
        <time>2023-07-20T11:03:09.000Z</time>
      </trkpt>
      <trkpt lat="42.60796" lon="1.7171">
        <ele>2309.8000488281</ele>
        <time>2023-07-20T11:03:11.000Z</time>
      </trkpt>
      <trkpt lat="42.60793" lon="1.71709">
        <ele>2311</ele>
        <time>2023-07-20T11:03:16.000Z</time>
      </trkpt>
      <trkpt lat="42.60792" lon="1.71709">
        <ele>2311.3999023438</ele>
        <time>2023-07-20T11:03:17.000Z</time>
      </trkpt>
      <trkpt lat="42.60791" lon="1.71708">
        <ele>2312</ele>
        <time>2023-07-20T11:03:19.000Z</time>
      </trkpt>
      <trkpt lat="42.60787" lon="1.71704">
        <ele>2312</ele>
        <time>2023-07-20T11:03:26.000Z</time>
      </trkpt>
      <trkpt lat="42.60784" lon="1.71698">
        <ele>2311</ele>
        <time>2023-07-20T11:03:34.000Z</time>
      </trkpt>
      <trkpt lat="42.60778" lon="1.71697">
        <ele>2311.8000488281</ele>
        <time>2023-07-20T11:03:42.000Z</time>
      </trkpt>
      <trkpt lat="42.60773" lon="1.71698">
        <ele>2313.3999023438</ele>
        <time>2023-07-20T11:03:49.000Z</time>
      </trkpt>
      <trkpt lat="42.60771" lon="1.71692">
        <ele>2313</ele>
        <time>2023-07-20T11:03:57.000Z</time>
      </trkpt>
      <trkpt lat="42.60768" lon="1.71687">
        <ele>2313.3999023438</ele>
        <time>2023-07-20T11:04:04.000Z</time>
      </trkpt>
      <trkpt lat="42.60766" lon="1.71682">
        <ele>2314.3999023438</ele>
        <time>2023-07-20T11:04:11.000Z</time>
      </trkpt>
      <trkpt lat="42.60766" lon="1.71681">
        <ele>2314.6000976562</ele>
        <time>2023-07-20T11:04:12.000Z</time>
      </trkpt>
      <trkpt lat="42.60764" lon="1.71674">
        <ele>2315</ele>
        <time>2023-07-20T11:04:20.000Z</time>
      </trkpt>
      <trkpt lat="42.60763" lon="1.71668">
        <ele>2315.6000976562</ele>
        <time>2023-07-20T11:04:24.000Z</time>
      </trkpt>
      <trkpt lat="42.60763" lon="1.71665">
        <ele>2316</ele>
        <time>2023-07-20T11:04:29.000Z</time>
      </trkpt>
      <trkpt lat="42.60762" lon="1.71662">
        <ele>2316.6000976562</ele>
        <time>2023-07-20T11:04:33.000Z</time>
      </trkpt>
      <trkpt lat="42.60762" lon="1.71661">
        <ele>2316.6000976562</ele>
        <time>2023-07-20T11:04:34.000Z</time>
      </trkpt>
      <trkpt lat="42.60759" lon="1.71657">
        <ele>2316.8000488281</ele>
        <time>2023-07-20T11:04:41.000Z</time>
      </trkpt>
      <trkpt lat="42.60757" lon="1.71657">
        <ele>2318.3999023438</ele>
        <time>2023-07-20T11:04:45.000Z</time>
      </trkpt>
      <trkpt lat="42.60754" lon="1.71657">
        <ele>2318.8000488281</ele>
        <time>2023-07-20T11:04:48.000Z</time>
      </trkpt>
      <trkpt lat="42.60754" lon="1.7166">
        <ele>2318.6000976562</ele>
        <time>2023-07-20T11:04:50.000Z</time>
      </trkpt>
      <trkpt lat="42.60754" lon="1.7166">
        <ele>2315.8000488281</ele>
        <time>2023-07-20T11:04:52.000Z</time>
      </trkpt>
      <trkpt lat="42.60755" lon="1.71661">
        <ele>2315.3999023438</ele>
        <time>2023-07-20T11:04:54.000Z</time>
      </trkpt>
      <trkpt lat="42.60755" lon="1.7166">
        <ele>2314.6000976562</ele>
        <time>2023-07-20T11:04:55.000Z</time>
      </trkpt>
      <trkpt lat="42.60756" lon="1.71657">
        <ele>2315</ele>
        <time>2023-07-20T11:05:00.000Z</time>
      </trkpt>
      <trkpt lat="42.60756" lon="1.71658">
        <ele>2315.1999511719</ele>
        <time>2023-07-20T11:05:01.000Z</time>
      </trkpt>
      <trkpt lat="42.60754" lon="1.71658">
        <ele>2316.1999511719</ele>
        <time>2023-07-20T11:05:11.000Z</time>
      </trkpt>
      <trkpt lat="42.60749" lon="1.71655">
        <ele>2315.8000488281</ele>
        <time>2023-07-20T11:05:16.000Z</time>
      </trkpt>
      <trkpt lat="42.60748" lon="1.71653">
        <ele>2315.1999511719</ele>
        <time>2023-07-20T11:05:20.000Z</time>
      </trkpt>
      <trkpt lat="42.60747" lon="1.7165">
        <ele>2314.8000488281</ele>
        <time>2023-07-20T11:05:23.000Z</time>
      </trkpt>
      <trkpt lat="42.60747" lon="1.71646">
        <ele>2314</ele>
        <time>2023-07-20T11:05:25.000Z</time>
      </trkpt>
      <trkpt lat="42.60745" lon="1.71642">
        <ele>2313</ele>
        <time>2023-07-20T11:05:28.000Z</time>
      </trkpt>
      <trkpt lat="42.60745" lon="1.71639">
        <ele>2312</ele>
        <time>2023-07-20T11:05:30.000Z</time>
      </trkpt>
      <trkpt lat="42.60744" lon="1.71632">
        <ele>2311.6000976562</ele>
        <time>2023-07-20T11:05:38.000Z</time>
      </trkpt>
      <trkpt lat="42.60742" lon="1.71634">
        <ele>2311.8000488281</ele>
        <time>2023-07-20T11:05:43.000Z</time>
      </trkpt>
      <trkpt lat="42.60741" lon="1.71633">
        <ele>2311</ele>
        <time>2023-07-20T11:05:50.000Z</time>
      </trkpt>
      <trkpt lat="42.6074" lon="1.71633">
        <ele>2311</ele>
        <time>2023-07-20T11:05:51.000Z</time>
      </trkpt>
      <trkpt lat="42.60739" lon="1.71628">
        <ele>2310.1999511719</ele>
        <time>2023-07-20T11:05:57.000Z</time>
      </trkpt>
      <trkpt lat="42.60739" lon="1.71627">
        <ele>2309.6000976562</ele>
        <time>2023-07-20T11:05:58.000Z</time>
      </trkpt>
      <trkpt lat="42.60737" lon="1.71627">
        <ele>2308.6000976562</ele>
        <time>2023-07-20T11:06:02.000Z</time>
      </trkpt>
      <trkpt lat="42.60736" lon="1.71627">
        <ele>2308.6000976562</ele>
        <time>2023-07-20T11:06:04.000Z</time>
      </trkpt>
      <trkpt lat="42.60727" lon="1.71623">
        <ele>2308</ele>
        <time>2023-07-20T11:06:13.000Z</time>
      </trkpt>
      <trkpt lat="42.60726" lon="1.7162">
        <ele>2307.6000976562</ele>
        <time>2023-07-20T11:06:16.000Z</time>
      </trkpt>
      <trkpt lat="42.60726" lon="1.71615">
        <ele>2306.8000488281</ele>
        <time>2023-07-20T11:06:20.000Z</time>
      </trkpt>
      <trkpt lat="42.60728" lon="1.71603">
        <ele>2307.3999023438</ele>
        <time>2023-07-20T11:06:29.000Z</time>
      </trkpt>
      <trkpt lat="42.6073" lon="1.71595">
        <ele>2308.8000488281</ele>
        <time>2023-07-20T11:06:35.000Z</time>
      </trkpt>
      <trkpt lat="42.60731" lon="1.71589">
        <ele>2309</ele>
        <time>2023-07-20T11:06:38.000Z</time>
      </trkpt>
      <trkpt lat="42.60731" lon="1.71583">
        <ele>2309.8000488281</ele>
        <time>2023-07-20T11:06:44.000Z</time>
      </trkpt>
      <trkpt lat="42.60731" lon="1.71582">
        <ele>2310</ele>
        <time>2023-07-20T11:06:45.000Z</time>
      </trkpt>
      <trkpt lat="42.60709" lon="1.71539">
        <ele>2312</ele>
        <time>2023-07-20T11:57:23.000Z</time>
      </trkpt>
      <trkpt lat="42.6071" lon="1.71539">
        <ele>2311.8000488281</ele>
        <time>2023-07-20T11:57:24.000Z</time>
      </trkpt>
      <trkpt lat="42.6071" lon="1.71543">
        <ele>2311</ele>
        <time>2023-07-20T11:57:29.000Z</time>
      </trkpt>
      <trkpt lat="42.60711" lon="1.71547">
        <ele>2310.8000488281</ele>
        <time>2023-07-20T11:57:32.000Z</time>
      </trkpt>
      <trkpt lat="42.60712" lon="1.7155">
        <ele>2309.6000976562</ele>
        <time>2023-07-20T11:57:35.000Z</time>
      </trkpt>
      <trkpt lat="42.60713" lon="1.71551">
        <ele>2309.6000976562</ele>
        <time>2023-07-20T11:57:36.000Z</time>
      </trkpt>
      <trkpt lat="42.60721" lon="1.71557">
        <ele>2307.3999023438</ele>
        <time>2023-07-20T11:57:49.000Z</time>
      </trkpt>
      <trkpt lat="42.60723" lon="1.71558">
        <ele>2307</ele>
        <time>2023-07-20T11:57:53.000Z</time>
      </trkpt>
      <trkpt lat="42.60724" lon="1.7156">
        <ele>2306.1999511719</ele>
        <time>2023-07-20T11:57:56.000Z</time>
      </trkpt>
      <trkpt lat="42.60726" lon="1.71562">
        <ele>2306</ele>
        <time>2023-07-20T11:58:01.000Z</time>
      </trkpt>
      <trkpt lat="42.60726" lon="1.71563">
        <ele>2305.8000488281</ele>
        <time>2023-07-20T11:58:02.000Z</time>
      </trkpt>
      <trkpt lat="42.60728" lon="1.7157">
        <ele>2305.6000976562</ele>
        <time>2023-07-20T11:58:08.000Z</time>
      </trkpt>
      <trkpt lat="42.60728" lon="1.71577">
        <ele>2308</ele>
        <time>2023-07-20T11:58:13.000Z</time>
      </trkpt>
      <trkpt lat="42.60728" lon="1.71579">
        <ele>2309.3999023438</ele>
        <time>2023-07-20T11:58:15.000Z</time>
      </trkpt>
      <trkpt lat="42.60728" lon="1.7158">
        <ele>2309.6000976562</ele>
        <time>2023-07-20T11:58:16.000Z</time>
      </trkpt>
      <trkpt lat="42.60729" lon="1.71591">
        <ele>2308.6000976562</ele>
        <time>2023-07-20T11:58:25.000Z</time>
      </trkpt>
      <trkpt lat="42.60729" lon="1.71594">
        <ele>2308.3999023438</ele>
        <time>2023-07-20T11:58:29.000Z</time>
      </trkpt>
      <trkpt lat="42.60729" lon="1.71593">
        <ele>2308</ele>
        <time>2023-07-20T11:58:31.000Z</time>
      </trkpt>
      <trkpt lat="42.60729" lon="1.71593">
        <ele>2307.6000976562</ele>
        <time>2023-07-20T11:58:38.000Z</time>
      </trkpt>
      <trkpt lat="42.60729" lon="1.71596">
        <ele>2307.8000488281</ele>
        <time>2023-07-20T11:58:46.000Z</time>
      </trkpt>
      <trkpt lat="42.60727" lon="1.71601">
        <ele>2308.3999023438</ele>
        <time>2023-07-20T11:58:52.000Z</time>
      </trkpt>
      <trkpt lat="42.60725" lon="1.71609">
        <ele>2307.1999511719</ele>
        <time>2023-07-20T11:58:58.000Z</time>
      </trkpt>
      <trkpt lat="42.60724" lon="1.71611">
        <ele>2306.8000488281</ele>
        <time>2023-07-20T11:59:01.000Z</time>
      </trkpt>
      <trkpt lat="42.60723" lon="1.71611">
        <ele>2306.1999511719</ele>
        <time>2023-07-20T11:59:05.000Z</time>
      </trkpt>
      <trkpt lat="42.60722" lon="1.71611">
        <ele>2306.1999511719</ele>
        <time>2023-07-20T11:59:09.000Z</time>
      </trkpt>
      <trkpt lat="42.60722" lon="1.71618">
        <ele>2305.3999023438</ele>
        <time>2023-07-20T11:59:17.000Z</time>
      </trkpt>
      <trkpt lat="42.60722" lon="1.71621">
        <ele>2305</ele>
        <time>2023-07-20T11:59:19.000Z</time>
      </trkpt>
      <trkpt lat="42.60724" lon="1.71625">
        <ele>2304.3999023438</ele>
        <time>2023-07-20T11:59:23.000Z</time>
      </trkpt>
      <trkpt lat="42.60729" lon="1.71631">
        <ele>2305.1999511719</ele>
        <time>2023-07-20T11:59:33.000Z</time>
      </trkpt>
      <trkpt lat="42.60726" lon="1.71621">
        <ele>2305.1999511719</ele>
        <time>2023-07-20T11:59:41.000Z</time>
      </trkpt>
      <trkpt lat="42.60724" lon="1.71617">
        <ele>2304.8000488281</ele>
        <time>2023-07-20T11:59:47.000Z</time>
      </trkpt>
      <trkpt lat="42.60726" lon="1.71611">
        <ele>2306.1999511719</ele>
        <time>2023-07-20T11:59:52.000Z</time>
      </trkpt>
      <trkpt lat="42.60726" lon="1.71608">
        <ele>2306.1999511719</ele>
        <time>2023-07-20T11:59:54.000Z</time>
      </trkpt>
      <trkpt lat="42.60728" lon="1.71601">
        <ele>2307.1999511719</ele>
        <time>2023-07-20T12:00:00.000Z</time>
      </trkpt>
      <trkpt lat="42.60728" lon="1.716">
        <ele>2307.3999023438</ele>
        <time>2023-07-20T12:00:01.000Z</time>
      </trkpt>
      <trkpt lat="42.60729" lon="1.71592">
        <ele>2307.8000488281</ele>
        <time>2023-07-20T12:00:08.000Z</time>
      </trkpt>
      <trkpt lat="42.60729" lon="1.71583">
        <ele>2307.8000488281</ele>
        <time>2023-07-20T12:00:16.000Z</time>
      </trkpt>
      <trkpt lat="42.60729" lon="1.71579">
        <ele>2308.1999511719</ele>
        <time>2023-07-20T12:00:22.000Z</time>
      </trkpt>
      <trkpt lat="42.60729" lon="1.71579">
        <ele>2308.3999023438</ele>
        <time>2023-07-20T12:00:23.000Z</time>
      </trkpt>
      <trkpt lat="42.60729" lon="1.71578">
        <ele>2308.1999511719</ele>
        <time>2023-07-20T12:00:32.000Z</time>
      </trkpt>
      <trkpt lat="42.6073" lon="1.71574">
        <ele>2307</ele>
        <time>2023-07-20T12:00:39.000Z</time>
      </trkpt>
      <trkpt lat="42.60731" lon="1.71574">
        <ele>2306.6000976562</ele>
        <time>2023-07-20T12:00:40.000Z</time>
      </trkpt>
      <trkpt lat="42.60731" lon="1.71556">
        <ele>2307.8000488281</ele>
        <time>2023-07-20T12:00:51.000Z</time>
      </trkpt>
      <trkpt lat="42.60731" lon="1.71548">
        <ele>2307.6000976562</ele>
        <time>2023-07-20T12:00:56.000Z</time>
      </trkpt>
      <trkpt lat="42.60732" lon="1.71547">
        <ele>2309</ele>
        <time>2023-07-20T12:00:58.000Z</time>
      </trkpt>
      <trkpt lat="42.60731" lon="1.71543">
        <ele>2310.6000976562</ele>
        <time>2023-07-20T12:01:00.000Z</time>
      </trkpt>
      <trkpt lat="42.60731" lon="1.71541">
        <ele>2311.1999511719</ele>
        <time>2023-07-20T12:01:01.000Z</time>
      </trkpt>
      <trkpt lat="42.60732" lon="1.71538">
        <ele>2312</ele>
        <time>2023-07-20T12:01:03.000Z</time>
      </trkpt>
      <trkpt lat="42.60732" lon="1.71536">
        <ele>2314.1999511719</ele>
        <time>2023-07-20T12:01:05.000Z</time>
      </trkpt>
      <trkpt lat="42.60733" lon="1.71535">
        <ele>2315.8000488281</ele>
        <time>2023-07-20T12:01:07.000Z</time>
      </trkpt>
      <trkpt lat="42.60734" lon="1.71535">
        <ele>2316.3999023438</ele>
        <time>2023-07-20T12:01:09.000Z</time>
      </trkpt>
      <trkpt lat="42.60741" lon="1.71532">
        <ele>2315</ele>
        <time>2023-07-20T12:01:16.000Z</time>
      </trkpt>
      <trkpt lat="42.60741" lon="1.71533">
        <ele>2314.6000976562</ele>
        <time>2023-07-20T12:01:19.000Z</time>
      </trkpt>
      <trkpt lat="42.6074" lon="1.71535">
        <ele>2314</ele>
        <time>2023-07-20T12:01:23.000Z</time>
      </trkpt>
      <trkpt lat="42.60739" lon="1.71539">
        <ele>2314</ele>
        <time>2023-07-20T12:01:29.000Z</time>
      </trkpt>
      <trkpt lat="42.60743" lon="1.71541">
        <ele>2313.3999023438</ele>
        <time>2023-07-20T12:01:34.000Z</time>
      </trkpt>
      <trkpt lat="42.60744" lon="1.71542">
        <ele>2313</ele>
        <time>2023-07-20T12:01:36.000Z</time>
      </trkpt>
      <trkpt lat="42.60745" lon="1.71543">
        <ele>2312.3999023438</ele>
        <time>2023-07-20T12:01:37.000Z</time>
      </trkpt>
      <trkpt lat="42.60753" lon="1.71548">
        <ele>2311.3999023438</ele>
        <time>2023-07-20T12:01:45.000Z</time>
      </trkpt>
      <trkpt lat="42.60755" lon="1.71549">
        <ele>2311.1999511719</ele>
        <time>2023-07-20T12:01:46.000Z</time>
      </trkpt>
      <trkpt lat="42.60758" lon="1.7155">
        <ele>2310.1999511719</ele>
        <time>2023-07-20T12:01:49.000Z</time>
      </trkpt>
      <trkpt lat="42.60761" lon="1.7155">
        <ele>2309</ele>
        <time>2023-07-20T12:01:54.000Z</time>
      </trkpt>
      <trkpt lat="42.60762" lon="1.71551">
        <ele>2308</ele>
        <time>2023-07-20T12:02:01.000Z</time>
      </trkpt>
      <trkpt lat="42.60762" lon="1.71551">
        <ele>2307.8000488281</ele>
        <time>2023-07-20T12:02:02.000Z</time>
      </trkpt>
      <trkpt lat="42.60755" lon="1.71548">
        <ele>2307.6000976562</ele>
        <time>2023-07-20T12:02:09.000Z</time>
      </trkpt>
      <trkpt lat="42.60752" lon="1.71545">
        <ele>2309</ele>
        <time>2023-07-20T12:02:15.000Z</time>
      </trkpt>
      <trkpt lat="42.60751" lon="1.71546">
        <ele>2309</ele>
        <time>2023-07-20T12:02:17.000Z</time>
      </trkpt>
      <trkpt lat="42.60744" lon="1.71545">
        <ele>2310</ele>
        <time>2023-07-20T12:02:24.000Z</time>
      </trkpt>
      <trkpt lat="42.60743" lon="1.71544">
        <ele>2310</ele>
        <time>2023-07-20T12:02:25.000Z</time>
      </trkpt>
      <trkpt lat="42.60737" lon="1.7154">
        <ele>2310.8000488281</ele>
        <time>2023-07-20T12:02:33.000Z</time>
      </trkpt>
      <trkpt lat="42.60735" lon="1.7154">
        <ele>2311.1999511719</ele>
        <time>2023-07-20T12:02:35.000Z</time>
      </trkpt>
      <trkpt lat="42.60733" lon="1.71541">
        <ele>2311.8000488281</ele>
        <time>2023-07-20T12:02:40.000Z</time>
      </trkpt>
      <trkpt lat="42.60734" lon="1.71541">
        <ele>2312.6000976562</ele>
        <time>2023-07-20T12:02:42.000Z</time>
      </trkpt>
      <trkpt lat="42.60735" lon="1.71539">
        <ele>2311.8000488281</ele>
        <time>2023-07-20T12:02:46.000Z</time>
      </trkpt>
      <trkpt lat="42.60735" lon="1.71539">
        <ele>2312</ele>
        <time>2023-07-20T12:02:50.000Z</time>
      </trkpt>
      <trkpt lat="42.60733" lon="1.71547">
        <ele>2311.6000976562</ele>
        <time>2023-07-20T12:02:57.000Z</time>
      </trkpt>
      <trkpt lat="42.60733" lon="1.71549">
        <ele>2311</ele>
        <time>2023-07-20T12:02:58.000Z</time>
      </trkpt>
      <trkpt lat="42.60732" lon="1.71551">
        <ele>2309.8000488281</ele>
        <time>2023-07-20T12:03:00.000Z</time>
      </trkpt>
      <trkpt lat="42.60732" lon="1.71552">
        <ele>2306.6000976562</ele>
        <time>2023-07-20T12:03:01.000Z</time>
      </trkpt>
      <trkpt lat="42.60732" lon="1.71555">
        <ele>2304</ele>
        <time>2023-07-20T12:03:02.000Z</time>
      </trkpt>
      <trkpt lat="42.60732" lon="1.71559">
        <ele>2303.1999511719</ele>
        <time>2023-07-20T12:03:05.000Z</time>
      </trkpt>
      <trkpt lat="42.60733" lon="1.71567">
        <ele>2305.1999511719</ele>
        <time>2023-07-20T12:03:11.000Z</time>
      </trkpt>
      <trkpt lat="42.60733" lon="1.71569">
        <ele>2305.3999023438</ele>
        <time>2023-07-20T12:03:13.000Z</time>
      </trkpt>
      <trkpt lat="42.60733" lon="1.71572">
        <ele>2306.6000976562</ele>
        <time>2023-07-20T12:03:15.000Z</time>
      </trkpt>
      <trkpt lat="42.6073" lon="1.71571">
        <ele>2306.6000976562</ele>
        <time>2023-07-20T12:03:19.000Z</time>
      </trkpt>
      <trkpt lat="42.6073" lon="1.71571">
        <ele>2306.3999023438</ele>
        <time>2023-07-20T12:03:21.000Z</time>
      </trkpt>
      <trkpt lat="42.60727" lon="1.71575">
        <ele>2305.8000488281</ele>
        <time>2023-07-20T12:03:27.000Z</time>
      </trkpt>
      <trkpt lat="42.60728" lon="1.71575">
        <ele>2305.6000976562</ele>
        <time>2023-07-20T12:03:35.000Z</time>
      </trkpt>
      <trkpt lat="42.60728" lon="1.71575">
        <ele>2305.6000976562</ele>
        <time>2023-07-20T12:03:36.000Z</time>
      </trkpt>
      <trkpt lat="42.60725" lon="1.71573">
        <ele>2304.8000488281</ele>
        <time>2023-07-20T12:03:41.000Z</time>
      </trkpt>
      <trkpt lat="42.60726" lon="1.71576">
        <ele>2306.3999023438</ele>
        <time>2023-07-20T12:03:49.000Z</time>
      </trkpt>
      <trkpt lat="42.60723" lon="1.71575">
        <ele>2306</ele>
        <time>2023-07-20T12:03:55.000Z</time>
      </trkpt>
      <trkpt lat="42.60721" lon="1.71573">
        <ele>2304</ele>
        <time>2023-07-20T12:04:00.000Z</time>
      </trkpt>
      <trkpt lat="42.6072" lon="1.71572">
        <ele>2303.6000976562</ele>
        <time>2023-07-20T12:04:02.000Z</time>
      </trkpt>
      <trkpt lat="42.60717" lon="1.71571">
        <ele>2303</ele>
        <time>2023-07-20T12:04:06.000Z</time>
      </trkpt>
      <trkpt lat="42.60712" lon="1.71569">
        <ele>2302.8000488281</ele>
        <time>2023-07-20T12:04:10.000Z</time>
      </trkpt>
      <trkpt lat="42.60707" lon="1.71562">
        <ele>2302.8000488281</ele>
        <time>2023-07-20T12:04:17.000Z</time>
      </trkpt>
      <trkpt lat="42.60702" lon="1.71557">
        <ele>2303</ele>
        <time>2023-07-20T12:04:23.000Z</time>
      </trkpt>
      <trkpt lat="42.60696" lon="1.71549">
        <ele>2302.3999023438</ele>
        <time>2023-07-20T12:04:32.000Z</time>
      </trkpt>
      <trkpt lat="42.60694" lon="1.71543">
        <ele>2302.3999023438</ele>
        <time>2023-07-20T12:04:39.000Z</time>
      </trkpt>
      <trkpt lat="42.60693" lon="1.71545">
        <ele>2303.6000976562</ele>
        <time>2023-07-20T12:04:47.000Z</time>
      </trkpt>
      <trkpt lat="42.60696" lon="1.71554">
        <ele>2303</ele>
        <time>2023-07-20T12:04:53.000Z</time>
      </trkpt>
      <trkpt lat="42.60703" lon="1.71559">
        <ele>2302.1999511719</ele>
        <time>2023-07-20T12:05:00.000Z</time>
      </trkpt>
      <trkpt lat="42.60709" lon="1.71565">
        <ele>2302.8000488281</ele>
        <time>2023-07-20T12:05:07.000Z</time>
      </trkpt>
      <trkpt lat="42.60715" lon="1.71572">
        <ele>2303</ele>
        <time>2023-07-20T12:05:14.000Z</time>
      </trkpt>
      <trkpt lat="42.60721" lon="1.71575">
        <ele>2303</ele>
        <time>2023-07-20T12:05:22.000Z</time>
      </trkpt>
      <trkpt lat="42.60726" lon="1.71578">
        <ele>2304.1999511719</ele>
        <time>2023-07-20T12:05:28.000Z</time>
      </trkpt>
      <trkpt lat="42.60729" lon="1.71578">
        <ele>2305.1999511719</ele>
        <time>2023-07-20T12:05:30.000Z</time>
      </trkpt>
      <trkpt lat="42.6073" lon="1.71577">
        <ele>2305.6000976562</ele>
        <time>2023-07-20T12:05:31.000Z</time>
      </trkpt>
      <trkpt lat="42.6073" lon="1.71574">
        <ele>2305.8000488281</ele>
        <time>2023-07-20T12:05:34.000Z</time>
      </trkpt>
      <trkpt lat="42.6073" lon="1.71572">
        <ele>2305.8000488281</ele>
        <time>2023-07-20T12:05:37.000Z</time>
      </trkpt>
      <trkpt lat="42.6073" lon="1.7157">
        <ele>2305.1999511719</ele>
        <time>2023-07-20T12:05:43.000Z</time>
      </trkpt>
      <trkpt lat="42.60729" lon="1.71582">
        <ele>2305.6000976562</ele>
        <time>2023-07-20T12:05:49.000Z</time>
      </trkpt>
      <trkpt lat="42.6073" lon="1.71583">
        <ele>2306.8000488281</ele>
        <time>2023-07-20T12:05:52.000Z</time>
      </trkpt>
      <trkpt lat="42.60732" lon="1.71589">
        <ele>2307.3999023438</ele>
        <time>2023-07-20T12:05:55.000Z</time>
      </trkpt>
      <trkpt lat="42.60738" lon="1.7159">
        <ele>2307.1999511719</ele>
        <time>2023-07-20T12:06:00.000Z</time>
      </trkpt>
      <trkpt lat="42.6074" lon="1.71589">
        <ele>2306.8000488281</ele>
        <time>2023-07-20T12:06:02.000Z</time>
      </trkpt>
      <trkpt lat="42.60748" lon="1.71582">
        <ele>2306.1999511719</ele>
        <time>2023-07-20T12:06:11.000Z</time>
      </trkpt>
      <trkpt lat="42.60756" lon="1.71581">
        <ele>2306</ele>
        <time>2023-07-20T12:06:18.000Z</time>
      </trkpt>
      <trkpt lat="42.60763" lon="1.7158">
        <ele>2306.6000976562</ele>
        <time>2023-07-20T12:06:24.000Z</time>
      </trkpt>
      <trkpt lat="42.6077" lon="1.71576">
        <ele>2306.1999511719</ele>
        <time>2023-07-20T12:06:32.000Z</time>
      </trkpt>
      <trkpt lat="42.60772" lon="1.71574">
        <ele>2305.3999023438</ele>
        <time>2023-07-20T12:06:35.000Z</time>
      </trkpt>
      <trkpt lat="42.60775" lon="1.71568">
        <ele>2304.8000488281</ele>
        <time>2023-07-20T12:06:40.000Z</time>
      </trkpt>
      <trkpt lat="42.60775" lon="1.71567">
        <ele>2304.1999511719</ele>
        <time>2023-07-20T12:06:41.000Z</time>
      </trkpt>
      <trkpt lat="42.60774" lon="1.7156">
        <ele>2304.1999511719</ele>
        <time>2023-07-20T12:06:48.000Z</time>
      </trkpt>
      <trkpt lat="42.60774" lon="1.71558">
        <ele>2303.8000488281</ele>
        <time>2023-07-20T12:06:56.000Z</time>
      </trkpt>
      <trkpt lat="42.60772" lon="1.71558">
        <ele>2303.6000976562</ele>
        <time>2023-07-20T12:07:04.000Z</time>
      </trkpt>
      <trkpt lat="42.6077" lon="1.71554">
        <ele>2303</ele>
        <time>2023-07-20T12:07:10.000Z</time>
      </trkpt>
      <trkpt lat="42.60771" lon="1.71547">
        <ele>2301.3999023438</ele>
        <time>2023-07-20T12:07:17.000Z</time>
      </trkpt>
      <trkpt lat="42.60772" lon="1.71546">
        <ele>2301.1999511719</ele>
        <time>2023-07-20T12:07:25.000Z</time>
      </trkpt>
      <trkpt lat="42.60774" lon="1.71544">
        <ele>2301.3999023438</ele>
        <time>2023-07-20T12:07:32.000Z</time>
      </trkpt>
      <trkpt lat="42.60771" lon="1.71541">
        <ele>2300.3999023438</ele>
        <time>2023-07-20T12:07:38.000Z</time>
      </trkpt>
      <trkpt lat="42.6077" lon="1.71537">
        <ele>2299.3999023438</ele>
        <time>2023-07-20T12:07:43.000Z</time>
      </trkpt>
      <trkpt lat="42.6077" lon="1.71536">
        <ele>2299.1999511719</ele>
        <time>2023-07-20T12:07:47.000Z</time>
      </trkpt>
      <trkpt lat="42.60771" lon="1.71537">
        <ele>2298</ele>
        <time>2023-07-20T12:07:50.000Z</time>
      </trkpt>
      <trkpt lat="42.60774" lon="1.71538">
        <ele>2297.1999511719</ele>
        <time>2023-07-20T12:07:55.000Z</time>
      </trkpt>
      <trkpt lat="42.60775" lon="1.71537">
        <ele>2296.8000488281</ele>
        <time>2023-07-20T12:08:01.000Z</time>
      </trkpt>
      <trkpt lat="42.60776" lon="1.71538">
        <ele>2296.6000976562</ele>
        <time>2023-07-20T12:08:03.000Z</time>
      </trkpt>
      <trkpt lat="42.60777" lon="1.71537">
        <ele>2295.6000976562</ele>
        <time>2023-07-20T12:08:08.000Z</time>
      </trkpt>
      <trkpt lat="42.60777" lon="1.71536">
        <ele>2295.1999511719</ele>
        <time>2023-07-20T12:08:10.000Z</time>
      </trkpt>
      <trkpt lat="42.60777" lon="1.7153">
        <ele>2294.3999023438</ele>
        <time>2023-07-20T12:08:15.000Z</time>
      </trkpt>
      <trkpt lat="42.60777" lon="1.71527">
        <ele>2294.3999023438</ele>
        <time>2023-07-20T12:08:17.000Z</time>
      </trkpt>
      <trkpt lat="42.60773" lon="1.71515">
        <ele>2295.3999023438</ele>
        <time>2023-07-20T12:08:25.000Z</time>
      </trkpt>
      <trkpt lat="42.60768" lon="1.71511">
        <ele>2296</ele>
        <time>2023-07-20T12:08:33.000Z</time>
      </trkpt>
      <trkpt lat="42.60763" lon="1.7151">
        <ele>2296.1999511719</ele>
        <time>2023-07-20T12:08:45.000Z</time>
      </trkpt>
      <trkpt lat="42.60757" lon="1.71505">
        <ele>2294.3999023438</ele>
        <time>2023-07-20T12:08:56.000Z</time>
      </trkpt>
      <trkpt lat="42.60752" lon="1.715">
        <ele>2296</ele>
        <time>2023-07-20T12:09:00.000Z</time>
      </trkpt>
      <trkpt lat="42.60749" lon="1.71498">
        <ele>2296.6000976562</ele>
        <time>2023-07-20T12:09:03.000Z</time>
      </trkpt>
      <trkpt lat="42.60748" lon="1.71497">
        <ele>2297.8000488281</ele>
        <time>2023-07-20T12:09:05.000Z</time>
      </trkpt>
      <trkpt lat="42.60741" lon="1.71495">
        <ele>2298</ele>
        <time>2023-07-20T12:09:11.000Z</time>
      </trkpt>
      <trkpt lat="42.60738" lon="1.71491">
        <ele>2297.6000976562</ele>
        <time>2023-07-20T12:09:19.000Z</time>
      </trkpt>
      <trkpt lat="42.60739" lon="1.7149">
        <ele>2296.3999023438</ele>
        <time>2023-07-20T12:09:21.000Z</time>
      </trkpt>
      <trkpt lat="42.60739" lon="1.71487">
        <ele>2295.6000976562</ele>
        <time>2023-07-20T12:09:26.000Z</time>
      </trkpt>
      <trkpt lat="42.60737" lon="1.71484">
        <ele>2295.3999023438</ele>
        <time>2023-07-20T12:09:29.000Z</time>
      </trkpt>
      <trkpt lat="42.60733" lon="1.71481">
        <ele>2294.6000976562</ele>
        <time>2023-07-20T12:09:33.000Z</time>
      </trkpt>
      <trkpt lat="42.60732" lon="1.71481">
        <ele>2297</ele>
        <time>2023-07-20T12:09:38.000Z</time>
      </trkpt>
      <trkpt lat="42.60731" lon="1.71481">
        <ele>2297.3999023438</ele>
        <time>2023-07-20T12:09:40.000Z</time>
      </trkpt>
      <trkpt lat="42.60728" lon="1.71483">
        <ele>2295.8000488281</ele>
        <time>2023-07-20T12:09:45.000Z</time>
      </trkpt>
      <trkpt lat="42.60727" lon="1.71482">
        <ele>2294.6000976562</ele>
        <time>2023-07-20T12:09:47.000Z</time>
      </trkpt>
      <trkpt lat="42.60727" lon="1.71481">
        <ele>2292.3999023438</ele>
        <time>2023-07-20T12:09:48.000Z</time>
      </trkpt>
      <trkpt lat="42.60727" lon="1.7148">
        <ele>2291.1999511719</ele>
        <time>2023-07-20T12:09:49.000Z</time>
      </trkpt>
      <trkpt lat="42.60727" lon="1.71479">
        <ele>2289.8000488281</ele>
        <time>2023-07-20T12:09:50.000Z</time>
      </trkpt>
      <trkpt lat="42.60727" lon="1.71478">
        <ele>2288.6000976562</ele>
        <time>2023-07-20T12:09:53.000Z</time>
      </trkpt>
      <trkpt lat="42.60729" lon="1.7148">
        <ele>2287.8000488281</ele>
        <time>2023-07-20T12:10:05.000Z</time>
      </trkpt>
      <trkpt lat="42.60729" lon="1.7148">
        <ele>2286.8000488281</ele>
        <time>2023-07-20T12:10:12.000Z</time>
      </trkpt>
      <trkpt lat="42.6073" lon="1.71479">
        <ele>2284.6000976562</ele>
        <time>2023-07-20T12:10:13.000Z</time>
      </trkpt>
      <trkpt lat="42.6073" lon="1.71478">
        <ele>2284.6000976562</ele>
        <time>2023-07-20T12:10:15.000Z</time>
      </trkpt>
      <trkpt lat="42.60731" lon="1.71475">
        <ele>2284.6000976562</ele>
        <time>2023-07-20T12:10:21.000Z</time>
      </trkpt>
      <trkpt lat="42.6073" lon="1.71473">
        <ele>2282.3999023438</ele>
        <time>2023-07-20T12:10:23.000Z</time>
      </trkpt>
      <trkpt lat="42.60729" lon="1.71473">
        <ele>2281.3999023438</ele>
        <time>2023-07-20T12:10:25.000Z</time>
      </trkpt>
      <trkpt lat="42.60726" lon="1.71469">
        <ele>2281</ele>
        <time>2023-07-20T12:10:31.000Z</time>
      </trkpt>
      <trkpt lat="42.60726" lon="1.71468">
        <ele>2279.8000488281</ele>
        <time>2023-07-20T12:10:33.000Z</time>
      </trkpt>
      <trkpt lat="42.60725" lon="1.71467">
        <ele>2279.1999511719</ele>
        <time>2023-07-20T12:10:39.000Z</time>
      </trkpt>
      <trkpt lat="42.60725" lon="1.71467">
        <ele>2278.8000488281</ele>
        <time>2023-07-20T12:10:40.000Z</time>
      </trkpt>
      <trkpt lat="42.60724" lon="1.71464">
        <ele>2277.6000976562</ele>
        <time>2023-07-20T12:10:43.000Z</time>
      </trkpt>
      <trkpt lat="42.60721" lon="1.71462">
        <ele>2277.1999511719</ele>
        <time>2023-07-20T12:10:46.000Z</time>
      </trkpt>
      <trkpt lat="42.6072" lon="1.71461">
        <ele>2276.8000488281</ele>
        <time>2023-07-20T12:10:52.000Z</time>
      </trkpt>
      <trkpt lat="42.60716" lon="1.71455">
        <ele>2277</ele>
        <time>2023-07-20T12:11:00.000Z</time>
      </trkpt>
      <trkpt lat="42.60716" lon="1.71454">
        <ele>2276.3999023438</ele>
        <time>2023-07-20T12:11:02.000Z</time>
      </trkpt>
      <trkpt lat="42.60715" lon="1.71455">
        <ele>2275.3999023438</ele>
        <time>2023-07-20T12:11:06.000Z</time>
      </trkpt>
      <trkpt lat="42.60715" lon="1.71454">
        <ele>2275.3999023438</ele>
        <time>2023-07-20T12:11:07.000Z</time>
      </trkpt>
      <trkpt lat="42.60714" lon="1.71452">
        <ele>2274.8000488281</ele>
        <time>2023-07-20T12:11:13.000Z</time>
      </trkpt>
      <trkpt lat="42.60715" lon="1.71452">
        <ele>2274.3999023438</ele>
        <time>2023-07-20T12:11:21.000Z</time>
      </trkpt>
      <trkpt lat="42.60713" lon="1.71452">
        <ele>2273.6000976562</ele>
        <time>2023-07-20T12:11:34.000Z</time>
      </trkpt>
      <trkpt lat="42.60713" lon="1.71449">
        <ele>2273.8000488281</ele>
        <time>2023-07-20T12:11:40.000Z</time>
      </trkpt>
      <trkpt lat="42.60713" lon="1.71445">
        <ele>2274.3999023438</ele>
        <time>2023-07-20T12:11:46.000Z</time>
      </trkpt>
      <trkpt lat="42.60712" lon="1.71444">
        <ele>2272.8000488281</ele>
        <time>2023-07-20T12:11:49.000Z</time>
      </trkpt>
      <trkpt lat="42.60712" lon="1.71443">
        <ele>2271.8000488281</ele>
        <time>2023-07-20T12:11:50.000Z</time>
      </trkpt>
      <trkpt lat="42.60712" lon="1.71442">
        <ele>2271</ele>
        <time>2023-07-20T12:11:52.000Z</time>
      </trkpt>
      <trkpt lat="42.60712" lon="1.71441">
        <ele>2270.6000976562</ele>
        <time>2023-07-20T12:11:53.000Z</time>
      </trkpt>
      <trkpt lat="42.6071" lon="1.71433">
        <ele>2271.8000488281</ele>
        <time>2023-07-20T12:11:59.000Z</time>
      </trkpt>
      <trkpt lat="42.60705" lon="1.7143">
        <ele>2272.3999023438</ele>
        <time>2023-07-20T12:12:05.000Z</time>
      </trkpt>
      <trkpt lat="42.60701" lon="1.71428">
        <ele>2272.8000488281</ele>
        <time>2023-07-20T12:12:10.000Z</time>
      </trkpt>
      <trkpt lat="42.60701" lon="1.71428">
        <ele>2273</ele>
        <time>2023-07-20T12:12:11.000Z</time>
      </trkpt>
      <trkpt lat="42.60696" lon="1.71427">
        <ele>2272.6000976562</ele>
        <time>2023-07-20T12:12:18.000Z</time>
      </trkpt>
      <trkpt lat="42.60695" lon="1.71425">
        <ele>2271.8000488281</ele>
        <time>2023-07-20T12:12:21.000Z</time>
      </trkpt>
      <trkpt lat="42.60693" lon="1.71422">
        <ele>2271.1999511719</ele>
        <time>2023-07-20T12:12:25.000Z</time>
      </trkpt>
      <trkpt lat="42.60693" lon="1.71421">
        <ele>2270.6000976562</ele>
        <time>2023-07-20T12:12:28.000Z</time>
      </trkpt>
      <trkpt lat="42.60695" lon="1.7142">
        <ele>2270.1999511719</ele>
        <time>2023-07-20T12:12:33.000Z</time>
      </trkpt>
      <trkpt lat="42.60693" lon="1.71419">
        <ele>2271.3999023438</ele>
        <time>2023-07-20T12:12:39.000Z</time>
      </trkpt>
      <trkpt lat="42.60691" lon="1.71419">
        <ele>2272.1999511719</ele>
        <time>2023-07-20T12:12:43.000Z</time>
      </trkpt>
      <trkpt lat="42.6069" lon="1.7142">
        <ele>2274.8000488281</ele>
        <time>2023-07-20T12:12:45.000Z</time>
      </trkpt>
      <trkpt lat="42.60689" lon="1.7142">
        <ele>2275.3999023438</ele>
        <time>2023-07-20T12:12:46.000Z</time>
      </trkpt>
      <trkpt lat="42.60687" lon="1.71421">
        <ele>2276</ele>
        <time>2023-07-20T12:12:51.000Z</time>
      </trkpt>
      <trkpt lat="42.60687" lon="1.71421">
        <ele>2275.6000976562</ele>
        <time>2023-07-20T12:12:52.000Z</time>
      </trkpt>
      <trkpt lat="42.60678" lon="1.71414">
        <ele>2265.3999023438</ele>
        <time>2023-07-20T12:13:16.000Z</time>
      </trkpt>
      <trkpt lat="42.60679" lon="1.71412">
        <ele>2265</ele>
        <time>2023-07-20T12:13:18.000Z</time>
      </trkpt>
      <trkpt lat="42.60678" lon="1.71412">
        <ele>2264.6000976562</ele>
        <time>2023-07-20T12:13:19.000Z</time>
      </trkpt>
      <trkpt lat="42.60674" lon="1.71411">
        <ele>2264.8000488281</ele>
        <time>2023-07-20T12:13:26.000Z</time>
      </trkpt>
      <trkpt lat="42.60671" lon="1.7141">
        <ele>2263.8000488281</ele>
        <time>2023-07-20T12:13:31.000Z</time>
      </trkpt>
      <trkpt lat="42.6067" lon="1.71409">
        <ele>2262.6000976562</ele>
        <time>2023-07-20T12:13:33.000Z</time>
      </trkpt>
      <trkpt lat="42.60669" lon="1.71409">
        <ele>2262.3999023438</ele>
        <time>2023-07-20T12:13:34.000Z</time>
      </trkpt>
      <trkpt lat="42.6066" lon="1.71408">
        <ele>2261.6000976562</ele>
        <time>2023-07-20T12:13:39.000Z</time>
      </trkpt>
      <trkpt lat="42.60664" lon="1.71405">
        <ele>2260.1999511719</ele>
        <time>2023-07-20T12:13:43.000Z</time>
      </trkpt>
      <trkpt lat="42.60665" lon="1.71404">
        <ele>2259.8000488281</ele>
        <time>2023-07-20T12:13:44.000Z</time>
      </trkpt>
      <trkpt lat="42.60672" lon="1.71395">
        <ele>2259.1999511719</ele>
        <time>2023-07-20T12:13:53.000Z</time>
      </trkpt>
      <trkpt lat="42.60673" lon="1.71393">
        <ele>2259</ele>
        <time>2023-07-20T12:13:54.000Z</time>
      </trkpt>
      <trkpt lat="42.60675" lon="1.71385">
        <ele>2258.6000976562</ele>
        <time>2023-07-20T12:14:00.000Z</time>
      </trkpt>
      <trkpt lat="42.60675" lon="1.71379">
        <ele>2258.3999023438</ele>
        <time>2023-07-20T12:14:07.000Z</time>
      </trkpt>
      <trkpt lat="42.60675" lon="1.7137">
        <ele>2258</ele>
        <time>2023-07-20T12:14:12.000Z</time>
      </trkpt>
      <trkpt lat="42.60675" lon="1.71369">
        <ele>2258</ele>
        <time>2023-07-20T12:14:13.000Z</time>
      </trkpt>
      <trkpt lat="42.60676" lon="1.7136">
        <ele>2258.3999023438</ele>
        <time>2023-07-20T12:14:20.000Z</time>
      </trkpt>
      <trkpt lat="42.60676" lon="1.71353">
        <ele>2259</ele>
        <time>2023-07-20T12:14:29.000Z</time>
      </trkpt>
      <trkpt lat="42.60672" lon="1.71345">
        <ele>2258.6000976562</ele>
        <time>2023-07-20T12:14:37.000Z</time>
      </trkpt>
      <trkpt lat="42.60666" lon="1.7134">
        <ele>2258</ele>
        <time>2023-07-20T12:14:44.000Z</time>
      </trkpt>
      <trkpt lat="42.60656" lon="1.71334">
        <ele>2258.8000488281</ele>
        <time>2023-07-20T12:14:51.000Z</time>
      </trkpt>
      <trkpt lat="42.60649" lon="1.71323">
        <ele>2258.1999511719</ele>
        <time>2023-07-20T12:14:59.000Z</time>
      </trkpt>
      <trkpt lat="42.60644" lon="1.71318">
        <ele>2260.3999023438</ele>
        <time>2023-07-20T12:15:05.000Z</time>
      </trkpt>
      <trkpt lat="42.60641" lon="1.71316">
        <ele>2260.6000976562</ele>
        <time>2023-07-20T12:15:07.000Z</time>
      </trkpt>
      <trkpt lat="42.60636" lon="1.71313">
        <ele>2259.3999023438</ele>
        <time>2023-07-20T12:15:13.000Z</time>
      </trkpt>
      <trkpt lat="42.60636" lon="1.71313">
        <ele>2258.8000488281</ele>
        <time>2023-07-20T12:15:14.000Z</time>
      </trkpt>
      <trkpt lat="42.60635" lon="1.71313">
        <ele>2257.3999023438</ele>
        <time>2023-07-20T12:15:15.000Z</time>
      </trkpt>
      <trkpt lat="42.60635" lon="1.71313">
        <ele>2257</ele>
        <time>2023-07-20T12:15:17.000Z</time>
      </trkpt>
      <trkpt lat="42.60635" lon="1.71313">
        <ele>2257.1999511719</ele>
        <time>2023-07-20T12:15:21.000Z</time>
      </trkpt>
      <trkpt lat="42.60635" lon="1.71312">
        <ele>2256.8000488281</ele>
        <time>2023-07-20T12:15:30.000Z</time>
      </trkpt>
      <trkpt lat="42.60635" lon="1.71314">
        <ele>2256.3999023438</ele>
        <time>2023-07-20T12:15:34.000Z</time>
      </trkpt>
      <trkpt lat="42.60635" lon="1.71314">
        <ele>2257</ele>
        <time>2023-07-20T12:15:40.000Z</time>
      </trkpt>
      <trkpt lat="42.60635" lon="1.71313">
        <ele>2257.3999023438</ele>
        <time>2023-07-20T12:15:42.000Z</time>
      </trkpt>
      <trkpt lat="42.60634" lon="1.7131">
        <ele>2257.8000488281</ele>
        <time>2023-07-20T12:15:47.000Z</time>
      </trkpt>
      <trkpt lat="42.60635" lon="1.71312">
        <ele>2257.8000488281</ele>
        <time>2023-07-20T12:15:54.000Z</time>
      </trkpt>
      <trkpt lat="42.60636" lon="1.71313">
        <ele>2257.1999511719</ele>
        <time>2023-07-20T12:16:01.000Z</time>
      </trkpt>
      <trkpt lat="42.60636" lon="1.71316">
        <ele>2257.3999023438</ele>
        <time>2023-07-20T12:16:09.000Z</time>
      </trkpt>
      <trkpt lat="42.60634" lon="1.71319">
        <ele>2257.6000976562</ele>
        <time>2023-07-20T12:16:15.000Z</time>
      </trkpt>
      <trkpt lat="42.60634" lon="1.71316">
        <ele>2258.3999023438</ele>
        <time>2023-07-20T12:16:23.000Z</time>
      </trkpt>
      <trkpt lat="42.60633" lon="1.71313">
        <ele>2258.6000976562</ele>
        <time>2023-07-20T12:16:25.000Z</time>
      </trkpt>
      <trkpt lat="42.60632" lon="1.71305">
        <ele>2258.3999023438</ele>
        <time>2023-07-20T12:16:29.000Z</time>
      </trkpt>
      <trkpt lat="42.60631" lon="1.71295">
        <ele>2258.6000976562</ele>
        <time>2023-07-20T12:16:36.000Z</time>
      </trkpt>
      <trkpt lat="42.6063" lon="1.71288">
        <ele>2259.1999511719</ele>
        <time>2023-07-20T12:16:41.000Z</time>
      </trkpt>
      <trkpt lat="42.60626" lon="1.7128">
        <ele>2258.8000488281</ele>
        <time>2023-07-20T12:16:48.000Z</time>
      </trkpt>
      <trkpt lat="42.60627" lon="1.71269">
        <ele>2258.1999511719</ele>
        <time>2023-07-20T12:16:56.000Z</time>
      </trkpt>
      <trkpt lat="42.60627" lon="1.71261">
        <ele>2259</ele>
        <time>2023-07-20T12:17:03.000Z</time>
      </trkpt>
      <trkpt lat="42.60627" lon="1.71256">
        <ele>2259.6000976562</ele>
        <time>2023-07-20T12:17:07.000Z</time>
      </trkpt>
      <trkpt lat="42.60626" lon="1.71249">
        <ele>2260.1999511719</ele>
        <time>2023-07-20T12:17:12.000Z</time>
      </trkpt>
      <trkpt lat="42.60628" lon="1.71246">
        <ele>2260.6000976562</ele>
        <time>2023-07-20T12:17:17.000Z</time>
      </trkpt>
      <trkpt lat="42.60629" lon="1.71245">
        <ele>2260.6000976562</ele>
        <time>2023-07-20T12:17:18.000Z</time>
      </trkpt>
      <trkpt lat="42.6063" lon="1.7125">
        <ele>2260.8000488281</ele>
        <time>2023-07-20T12:17:22.000Z</time>
      </trkpt>
      <trkpt lat="42.60629" lon="1.7125">
        <ele>2261.1999511719</ele>
        <time>2023-07-20T12:17:31.000Z</time>
      </trkpt>
      <trkpt lat="42.60628" lon="1.71241">
        <ele>2261.6000976562</ele>
        <time>2023-07-20T12:17:38.000Z</time>
      </trkpt>
      <trkpt lat="42.60628" lon="1.71233">
        <ele>2262.8000488281</ele>
        <time>2023-07-20T12:17:44.000Z</time>
      </trkpt>
      <trkpt lat="42.60628" lon="1.71231">
        <ele>2263</ele>
        <time>2023-07-20T12:17:46.000Z</time>
      </trkpt>
      <trkpt lat="42.60628" lon="1.71222">
        <ele>2263.8000488281</ele>
        <time>2023-07-20T12:17:53.000Z</time>
      </trkpt>
      <trkpt lat="42.60628" lon="1.7122">
        <ele>2264</ele>
        <time>2023-07-20T12:17:55.000Z</time>
      </trkpt>
      <trkpt lat="42.60627" lon="1.71202">
        <ele>2266.1999511719</ele>
        <time>2023-07-20T12:18:14.000Z</time>
      </trkpt>
      <trkpt lat="42.60628" lon="1.712">
        <ele>2266.3999023438</ele>
        <time>2023-07-20T12:18:15.000Z</time>
      </trkpt>
      <trkpt lat="42.6063" lon="1.71194">
        <ele>2267</ele>
        <time>2023-07-20T12:18:23.000Z</time>
      </trkpt>
      <trkpt lat="42.60633" lon="1.71193">
        <ele>2267.3999023438</ele>
        <time>2023-07-20T12:18:27.000Z</time>
      </trkpt>
      <trkpt lat="42.60635" lon="1.71194">
        <ele>2268.3999023438</ele>
        <time>2023-07-20T12:18:30.000Z</time>
      </trkpt>
      <trkpt lat="42.60635" lon="1.71194">
        <ele>2268.6000976562</ele>
        <time>2023-07-20T12:18:31.000Z</time>
      </trkpt>
      <trkpt lat="42.60637" lon="1.71193">
        <ele>2269.6000976562</ele>
        <time>2023-07-20T12:18:35.000Z</time>
      </trkpt>
      <trkpt lat="42.60638" lon="1.71191">
        <ele>2270.3999023438</ele>
        <time>2023-07-20T12:18:38.000Z</time>
      </trkpt>
      <trkpt lat="42.60639" lon="1.7119">
        <ele>2270.6000976562</ele>
        <time>2023-07-20T12:18:42.000Z</time>
      </trkpt>
      <trkpt lat="42.6064" lon="1.7119">
        <ele>2270.8000488281</ele>
        <time>2023-07-20T12:18:45.000Z</time>
      </trkpt>
      <trkpt lat="42.6064" lon="1.71187">
        <ele>2271.6000976562</ele>
        <time>2023-07-20T12:18:50.000Z</time>
      </trkpt>
      <trkpt lat="42.60641" lon="1.71185">
        <ele>2272</ele>
        <time>2023-07-20T12:18:55.000Z</time>
      </trkpt>
      <trkpt lat="42.60642" lon="1.71185">
        <ele>2272.6000976562</ele>
        <time>2023-07-20T12:18:58.000Z</time>
      </trkpt>
      <trkpt lat="42.60641" lon="1.71183">
        <ele>2273.3999023438</ele>
        <time>2023-07-20T12:19:02.000Z</time>
      </trkpt>
      <trkpt lat="42.6064" lon="1.71182">
        <ele>2273.8000488281</ele>
        <time>2023-07-20T12:19:04.000Z</time>
      </trkpt>
      <trkpt lat="42.60639" lon="1.71181">
        <ele>2274.3999023438</ele>
        <time>2023-07-20T12:19:08.000Z</time>
      </trkpt>
      <trkpt lat="42.60639" lon="1.71182">
        <ele>2274.8000488281</ele>
        <time>2023-07-20T12:19:10.000Z</time>
      </trkpt>
      <trkpt lat="42.60641" lon="1.7118">
        <ele>2275.8000488281</ele>
        <time>2023-07-20T12:19:17.000Z</time>
      </trkpt>
      <trkpt lat="42.60642" lon="1.7118">
        <ele>2275.8000488281</ele>
        <time>2023-07-20T12:19:19.000Z</time>
      </trkpt>
      <trkpt lat="42.60642" lon="1.71178">
        <ele>2277.1999511719</ele>
        <time>2023-07-20T12:19:24.000Z</time>
      </trkpt>
      <trkpt lat="42.60643" lon="1.71179">
        <ele>2277.1999511719</ele>
        <time>2023-07-20T12:19:26.000Z</time>
      </trkpt>
      <trkpt lat="42.60644" lon="1.71178">
        <ele>2278.1999511719</ele>
        <time>2023-07-20T12:19:31.000Z</time>
      </trkpt>
      <trkpt lat="42.60645" lon="1.71178">
        <ele>2278.6000976562</ele>
        <time>2023-07-20T12:19:32.000Z</time>
      </trkpt>
      <trkpt lat="42.60646" lon="1.71179">
        <ele>2279.3999023438</ele>
        <time>2023-07-20T12:19:35.000Z</time>
      </trkpt>
      <trkpt lat="42.60646" lon="1.71177">
        <ele>2280</ele>
        <time>2023-07-20T12:19:40.000Z</time>
      </trkpt>
      <trkpt lat="42.60642" lon="1.71176">
        <ele>2280.1999511719</ele>
        <time>2023-07-20T12:19:48.000Z</time>
      </trkpt>
      <trkpt lat="42.6064" lon="1.7118">
        <ele>2280.3999023438</ele>
        <time>2023-07-20T12:19:52.000Z</time>
      </trkpt>
      <trkpt lat="42.6064" lon="1.71182">
        <ele>2280.3999023438</ele>
        <time>2023-07-20T12:19:57.000Z</time>
      </trkpt>
      <trkpt lat="42.60645" lon="1.71175">
        <ele>2280.3999023438</ele>
        <time>2023-07-20T12:20:04.000Z</time>
      </trkpt>
      <trkpt lat="42.60649" lon="1.71172">
        <ele>2281.1999511719</ele>
        <time>2023-07-20T12:20:10.000Z</time>
      </trkpt>
      <trkpt lat="42.60649" lon="1.71172">
        <ele>2281.6000976562</ele>
        <time>2023-07-20T12:20:11.000Z</time>
      </trkpt>
      <trkpt lat="42.60648" lon="1.71172">
        <ele>2282.6000976562</ele>
        <time>2023-07-20T12:20:16.000Z</time>
      </trkpt>
      <trkpt lat="42.60647" lon="1.71171">
        <ele>2283</ele>
        <time>2023-07-20T12:20:18.000Z</time>
      </trkpt>
      <trkpt lat="42.60647" lon="1.71169">
        <ele>2283.8000488281</ele>
        <time>2023-07-20T12:20:24.000Z</time>
      </trkpt>
      <trkpt lat="42.60647" lon="1.71166">
        <ele>2284.6000976562</ele>
        <time>2023-07-20T12:20:29.000Z</time>
      </trkpt>
      <trkpt lat="42.60648" lon="1.71164">
        <ele>2284.8000488281</ele>
        <time>2023-07-20T12:20:30.000Z</time>
      </trkpt>
      <trkpt lat="42.60647" lon="1.71161">
        <ele>2285.8000488281</ele>
        <time>2023-07-20T12:20:37.000Z</time>
      </trkpt>
      <trkpt lat="42.60648" lon="1.71158">
        <ele>2288.3999023438</ele>
        <time>2023-07-20T12:20:50.000Z</time>
      </trkpt>
      <trkpt lat="42.60648" lon="1.71157">
        <ele>2289.3999023438</ele>
        <time>2023-07-20T12:20:56.000Z</time>
      </trkpt>
      <trkpt lat="42.6065" lon="1.71154">
        <ele>2289.8000488281</ele>
        <time>2023-07-20T12:21:00.000Z</time>
      </trkpt>
      <trkpt lat="42.60653" lon="1.71152">
        <ele>2290.3999023438</ele>
        <time>2023-07-20T12:21:05.000Z</time>
      </trkpt>
      <trkpt lat="42.60654" lon="1.7115">
        <ele>2290.6000976562</ele>
        <time>2023-07-20T12:21:07.000Z</time>
      </trkpt>
      <trkpt lat="42.60654" lon="1.71148">
        <ele>2291.8000488281</ele>
        <time>2023-07-20T12:21:14.000Z</time>
      </trkpt>
      <trkpt lat="42.60654" lon="1.71147">
        <ele>2292.8000488281</ele>
        <time>2023-07-20T12:21:15.000Z</time>
      </trkpt>
      <trkpt lat="42.60654" lon="1.71147">
        <ele>2293.1999511719</ele>
        <time>2023-07-20T12:21:16.000Z</time>
      </trkpt>
      <trkpt lat="42.60656" lon="1.71146">
        <ele>2293.3999023438</ele>
        <time>2023-07-20T12:21:23.000Z</time>
      </trkpt>
      <trkpt lat="42.60661" lon="1.71145">
        <ele>2293.8000488281</ele>
        <time>2023-07-20T12:21:29.000Z</time>
      </trkpt>
      <trkpt lat="42.60663" lon="1.71146">
        <ele>2294.3999023438</ele>
        <time>2023-07-20T12:21:33.000Z</time>
      </trkpt>
      <trkpt lat="42.60665" lon="1.71148">
        <ele>2295.1999511719</ele>
        <time>2023-07-20T12:21:37.000Z</time>
      </trkpt>
      <trkpt lat="42.60666" lon="1.71148">
        <ele>2295.3999023438</ele>
        <time>2023-07-20T12:21:39.000Z</time>
      </trkpt>
      <trkpt lat="42.60668" lon="1.71147">
        <ele>2295.6000976562</ele>
        <time>2023-07-20T12:21:45.000Z</time>
      </trkpt>
      <trkpt lat="42.60667" lon="1.71144">
        <ele>2296.3999023438</ele>
        <time>2023-07-20T12:21:52.000Z</time>
      </trkpt>
      <trkpt lat="42.60666" lon="1.71144">
        <ele>2296.6000976562</ele>
        <time>2023-07-20T12:21:53.000Z</time>
      </trkpt>
      <trkpt lat="42.60667" lon="1.7114">
        <ele>2297.1999511719</ele>
        <time>2023-07-20T12:22:00.000Z</time>
      </trkpt>
      <trkpt lat="42.60668" lon="1.7114">
        <ele>2297.6000976562</ele>
        <time>2023-07-20T12:22:01.000Z</time>
      </trkpt>
      <trkpt lat="42.60671" lon="1.71139">
        <ele>2298.3999023438</ele>
        <time>2023-07-20T12:22:07.000Z</time>
      </trkpt>
      <trkpt lat="42.6067" lon="1.71141">
        <ele>2298.6000976562</ele>
        <time>2023-07-20T12:22:13.000Z</time>
      </trkpt>
      <trkpt lat="42.6067" lon="1.71141">
        <ele>2298.6000976562</ele>
        <time>2023-07-20T12:22:15.000Z</time>
      </trkpt>
      <trkpt lat="42.60672" lon="1.71139">
        <ele>2299.6000976562</ele>
        <time>2023-07-20T12:22:25.000Z</time>
      </trkpt>
      <trkpt lat="42.60673" lon="1.71136">
        <ele>2300.6000976562</ele>
        <time>2023-07-20T12:22:31.000Z</time>
      </trkpt>
      <trkpt lat="42.60673" lon="1.71135">
        <ele>2301.3999023438</ele>
        <time>2023-07-20T12:22:33.000Z</time>
      </trkpt>
      <trkpt lat="42.60674" lon="1.71134">
        <ele>2301.8000488281</ele>
        <time>2023-07-20T12:22:34.000Z</time>
      </trkpt>
      <trkpt lat="42.60674" lon="1.71133">
        <ele>2302.6000976562</ele>
        <time>2023-07-20T12:22:39.000Z</time>
      </trkpt>
      <trkpt lat="42.60674" lon="1.71133">
        <ele>2303</ele>
        <time>2023-07-20T12:22:40.000Z</time>
      </trkpt>
      <trkpt lat="42.60676" lon="1.71131">
        <ele>2303.8000488281</ele>
        <time>2023-07-20T12:22:47.000Z</time>
      </trkpt>
      <trkpt lat="42.60676" lon="1.71131">
        <ele>2304</ele>
        <time>2023-07-20T12:22:48.000Z</time>
      </trkpt>
      <trkpt lat="42.60676" lon="1.71129">
        <ele>2304.3999023438</ele>
        <time>2023-07-20T12:22:54.000Z</time>
      </trkpt>
      <trkpt lat="42.60676" lon="1.71129">
        <ele>2305</ele>
        <time>2023-07-20T12:22:57.000Z</time>
      </trkpt>
      <trkpt lat="42.60676" lon="1.71127">
        <ele>2305.8000488281</ele>
        <time>2023-07-20T12:23:02.000Z</time>
      </trkpt>
      <trkpt lat="42.60677" lon="1.71123">
        <ele>2305.3999023438</ele>
        <time>2023-07-20T12:23:10.000Z</time>
      </trkpt>
      <trkpt lat="42.60679" lon="1.71124">
        <ele>2305.6000976562</ele>
        <time>2023-07-20T12:23:18.000Z</time>
      </trkpt>
      <trkpt lat="42.60679" lon="1.71125">
        <ele>2306.1999511719</ele>
        <time>2023-07-20T12:23:21.000Z</time>
      </trkpt>
      <trkpt lat="42.60677" lon="1.71124">
        <ele>2307.1999511719</ele>
        <time>2023-07-20T12:23:24.000Z</time>
      </trkpt>
      <trkpt lat="42.60677" lon="1.71123">
        <ele>2308</ele>
        <time>2023-07-20T12:23:26.000Z</time>
      </trkpt>
      <trkpt lat="42.60677" lon="1.71122">
        <ele>2308.3999023438</ele>
        <time>2023-07-20T12:23:27.000Z</time>
      </trkpt>
      <trkpt lat="42.60678" lon="1.71118">
        <ele>2308.3999023438</ele>
        <time>2023-07-20T12:23:34.000Z</time>
      </trkpt>
      <trkpt lat="42.60678" lon="1.71114">
        <ele>2309.6000976562</ele>
        <time>2023-07-20T12:23:39.000Z</time>
      </trkpt>
      <trkpt lat="42.60678" lon="1.71114">
        <ele>2309.8000488281</ele>
        <time>2023-07-20T12:23:40.000Z</time>
      </trkpt>
      <trkpt lat="42.60679" lon="1.71111">
        <ele>2310.6000976562</ele>
        <time>2023-07-20T12:23:43.000Z</time>
      </trkpt>
      <trkpt lat="42.60679" lon="1.71109">
        <ele>2311.1999511719</ele>
        <time>2023-07-20T12:23:47.000Z</time>
      </trkpt>
      <trkpt lat="42.60679" lon="1.71109">
        <ele>2311.8000488281</ele>
        <time>2023-07-20T12:23:49.000Z</time>
      </trkpt>
      <trkpt lat="42.60679" lon="1.71106">
        <ele>2312.1999511719</ele>
        <time>2023-07-20T12:23:54.000Z</time>
      </trkpt>
      <trkpt lat="42.60679" lon="1.71105">
        <ele>2312.8000488281</ele>
        <time>2023-07-20T12:23:57.000Z</time>
      </trkpt>
      <trkpt lat="42.60679" lon="1.71102">
        <ele>2313.6000976562</ele>
        <time>2023-07-20T12:24:03.000Z</time>
      </trkpt>
      <trkpt lat="42.6068" lon="1.71101">
        <ele>2314</ele>
        <time>2023-07-20T12:24:05.000Z</time>
      </trkpt>
      <trkpt lat="42.6068" lon="1.71098">
        <ele>2315.1999511719</ele>
        <time>2023-07-20T12:24:10.000Z</time>
      </trkpt>
      <trkpt lat="42.6068" lon="1.71097">
        <ele>2315.6000976562</ele>
        <time>2023-07-20T12:24:12.000Z</time>
      </trkpt>
      <trkpt lat="42.6068" lon="1.71095">
        <ele>2316.3999023438</ele>
        <time>2023-07-20T12:24:16.000Z</time>
      </trkpt>
      <trkpt lat="42.6068" lon="1.71096">
        <ele>2317.8000488281</ele>
        <time>2023-07-20T12:24:20.000Z</time>
      </trkpt>
      <trkpt lat="42.60679" lon="1.7109">
        <ele>2318.3999023438</ele>
        <time>2023-07-20T12:24:28.000Z</time>
      </trkpt>
      <trkpt lat="42.6068" lon="1.7109">
        <ele>2318.8000488281</ele>
        <time>2023-07-20T12:24:33.000Z</time>
      </trkpt>
      <trkpt lat="42.6068" lon="1.71085">
        <ele>2319.6000976562</ele>
        <time>2023-07-20T12:24:38.000Z</time>
      </trkpt>
      <trkpt lat="42.60679" lon="1.71081">
        <ele>2319.8000488281</ele>
        <time>2023-07-20T12:24:42.000Z</time>
      </trkpt>
      <trkpt lat="42.60679" lon="1.71078">
        <ele>2322.1999511719</ele>
        <time>2023-07-20T12:24:51.000Z</time>
      </trkpt>
      <trkpt lat="42.60679" lon="1.71078">
        <ele>2322.1999511719</ele>
        <time>2023-07-20T12:24:53.000Z</time>
      </trkpt>
      <trkpt lat="42.60679" lon="1.71078">
        <ele>2322.6000976562</ele>
        <time>2023-07-20T12:24:59.000Z</time>
      </trkpt>
      <trkpt lat="42.60678" lon="1.71077">
        <ele>2323.3999023438</ele>
        <time>2023-07-20T12:25:04.000Z</time>
      </trkpt>
      <trkpt lat="42.60675" lon="1.71074">
        <ele>2324.1999511719</ele>
        <time>2023-07-20T12:25:10.000Z</time>
      </trkpt>
      <trkpt lat="42.60675" lon="1.71073">
        <ele>2324.6000976562</ele>
        <time>2023-07-20T12:25:11.000Z</time>
      </trkpt>
      <trkpt lat="42.60676" lon="1.71073">
        <ele>2324.8000488281</ele>
        <time>2023-07-20T12:25:16.000Z</time>
      </trkpt>
      <trkpt lat="42.60679" lon="1.71068">
        <ele>2325.3999023438</ele>
        <time>2023-07-20T12:25:24.000Z</time>
      </trkpt>
      <trkpt lat="42.60679" lon="1.71068">
        <ele>2325.8000488281</ele>
        <time>2023-07-20T12:25:25.000Z</time>
      </trkpt>
      <trkpt lat="42.60679" lon="1.71073">
        <ele>2327</ele>
        <time>2023-07-20T12:25:31.000Z</time>
      </trkpt>
      <trkpt lat="42.60679" lon="1.71073">
        <ele>2327.1999511719</ele>
        <time>2023-07-20T12:25:32.000Z</time>
      </trkpt>
      <trkpt lat="42.60678" lon="1.71068">
        <ele>2327.6000976562</ele>
        <time>2023-07-20T12:25:39.000Z</time>
      </trkpt>
      <trkpt lat="42.60678" lon="1.71067">
        <ele>2328.1999511719</ele>
        <time>2023-07-20T12:25:40.000Z</time>
      </trkpt>
      <trkpt lat="42.60679" lon="1.71069">
        <ele>2328.8000488281</ele>
        <time>2023-07-20T12:25:45.000Z</time>
      </trkpt>
      <trkpt lat="42.60678" lon="1.7107">
        <ele>2327.1999511719</ele>
        <time>2023-07-20T12:25:52.000Z</time>
      </trkpt>
      <trkpt lat="42.60677" lon="1.71068">
        <ele>2329.6000976562</ele>
        <time>2023-07-20T12:25:55.000Z</time>
      </trkpt>
      <trkpt lat="42.60678" lon="1.71067">
        <ele>2331.1999511719</ele>
        <time>2023-07-20T12:25:56.000Z</time>
      </trkpt>
      <trkpt lat="42.60678" lon="1.71066">
        <ele>2331.8000488281</ele>
        <time>2023-07-20T12:25:59.000Z</time>
      </trkpt>
      <trkpt lat="42.60679" lon="1.71061">
        <ele>2332.3999023438</ele>
        <time>2023-07-20T12:26:07.000Z</time>
      </trkpt>
      <trkpt lat="42.60681" lon="1.71056">
        <ele>2333</ele>
        <time>2023-07-20T12:26:15.000Z</time>
      </trkpt>
      <trkpt lat="42.60681" lon="1.71056">
        <ele>2333.3999023438</ele>
        <time>2023-07-20T12:26:17.000Z</time>
      </trkpt>
      <trkpt lat="42.6068" lon="1.71057">
        <ele>2334.3999023438</ele>
        <time>2023-07-20T12:26:22.000Z</time>
      </trkpt>
      <trkpt lat="42.60677" lon="1.71054">
        <ele>2334</ele>
        <time>2023-07-20T12:26:30.000Z</time>
      </trkpt>
      <trkpt lat="42.60678" lon="1.71049">
        <ele>2333.3999023438</ele>
        <time>2023-07-20T12:26:38.000Z</time>
      </trkpt>
      <trkpt lat="42.60677" lon="1.71044">
        <ele>2333.8000488281</ele>
        <time>2023-07-20T12:26:46.000Z</time>
      </trkpt>
      <trkpt lat="42.60676" lon="1.71039">
        <ele>2335.1999511719</ele>
        <time>2023-07-20T12:26:55.000Z</time>
      </trkpt>
      <trkpt lat="42.60676" lon="1.71039">
        <ele>2335.8000488281</ele>
        <time>2023-07-20T12:26:57.000Z</time>
      </trkpt>
      <trkpt lat="42.60679" lon="1.7104">
        <ele>2336.1999511719</ele>
        <time>2023-07-20T12:27:05.000Z</time>
      </trkpt>
      <trkpt lat="42.60678" lon="1.71036">
        <ele>2337</ele>
        <time>2023-07-20T12:27:12.000Z</time>
      </trkpt>
      <trkpt lat="42.60678" lon="1.71035">
        <ele>2337.1999511719</ele>
        <time>2023-07-20T12:27:13.000Z</time>
      </trkpt>
      <trkpt lat="42.60679" lon="1.71031">
        <ele>2338.1999511719</ele>
        <time>2023-07-20T12:27:20.000Z</time>
      </trkpt>
      <trkpt lat="42.60679" lon="1.71029">
        <ele>2338.6000976562</ele>
        <time>2023-07-20T12:27:22.000Z</time>
      </trkpt>
      <trkpt lat="42.60679" lon="1.71031">
        <ele>2338.8000488281</ele>
        <time>2023-07-20T12:27:29.000Z</time>
      </trkpt>
      <trkpt lat="42.60678" lon="1.71028">
        <ele>2339.3999023438</ele>
        <time>2023-07-20T12:27:34.000Z</time>
      </trkpt>
      <trkpt lat="42.60678" lon="1.71025">
        <ele>2340.1999511719</ele>
        <time>2023-07-20T12:27:38.000Z</time>
      </trkpt>
      <trkpt lat="42.60678" lon="1.71025">
        <ele>2340.3999023438</ele>
        <time>2023-07-20T12:27:39.000Z</time>
      </trkpt>
      <trkpt lat="42.60679" lon="1.71025">
        <ele>2341.6000976562</ele>
        <time>2023-07-20T12:27:43.000Z</time>
      </trkpt>
      <trkpt lat="42.60679" lon="1.71027">
        <ele>2342.1999511719</ele>
        <time>2023-07-20T12:27:46.000Z</time>
      </trkpt>
      <trkpt lat="42.6068" lon="1.7103">
        <ele>2342.8000488281</ele>
        <time>2023-07-20T12:27:51.000Z</time>
      </trkpt>
      <trkpt lat="42.60679" lon="1.71027">
        <ele>2342.8000488281</ele>
        <time>2023-07-20T12:27:55.000Z</time>
      </trkpt>
      <trkpt lat="42.60675" lon="1.71022">
        <ele>2343.3999023438</ele>
        <time>2023-07-20T12:28:03.000Z</time>
      </trkpt>
      <trkpt lat="42.60673" lon="1.71019">
        <ele>2342.8000488281</ele>
        <time>2023-07-20T12:28:12.000Z</time>
      </trkpt>
      <trkpt lat="42.60672" lon="1.71019">
        <ele>2341.3999023438</ele>
        <time>2023-07-20T12:28:15.000Z</time>
      </trkpt>
      <trkpt lat="42.6067" lon="1.7102">
        <ele>2340.6000976562</ele>
        <time>2023-07-20T12:28:21.000Z</time>
      </trkpt>
      <trkpt lat="42.60669" lon="1.71019">
        <ele>2340.3999023438</ele>
        <time>2023-07-20T12:28:22.000Z</time>
      </trkpt>
      <trkpt lat="42.6067" lon="1.71014">
        <ele>2339.3999023438</ele>
        <time>2023-07-20T12:28:29.000Z</time>
      </trkpt>
      <trkpt lat="42.60667" lon="1.71008">
        <ele>2339.6000976562</ele>
        <time>2023-07-20T12:28:37.000Z</time>
      </trkpt>
      <trkpt lat="42.60665" lon="1.71006">
        <ele>2340.8000488281</ele>
        <time>2023-07-20T12:28:45.000Z</time>
      </trkpt>
      <trkpt lat="42.60665" lon="1.71002">
        <ele>2341.3999023438</ele>
        <time>2023-07-20T12:28:51.000Z</time>
      </trkpt>
      <trkpt lat="42.60667" lon="1.71">
        <ele>2342.1999511719</ele>
        <time>2023-07-20T12:28:59.000Z</time>
      </trkpt>
      <trkpt lat="42.60668" lon="1.70997">
        <ele>2342.6000976562</ele>
        <time>2023-07-20T12:29:02.000Z</time>
      </trkpt>
      <trkpt lat="42.60668" lon="1.70993">
        <ele>2343.1999511719</ele>
        <time>2023-07-20T12:29:07.000Z</time>
      </trkpt>
      <trkpt lat="42.60669" lon="1.70982">
        <ele>2343.8000488281</ele>
        <time>2023-07-20T12:29:14.000Z</time>
      </trkpt>
      <trkpt lat="42.60668" lon="1.7098">
        <ele>2344</ele>
        <time>2023-07-20T12:29:16.000Z</time>
      </trkpt>
      <trkpt lat="42.60667" lon="1.70977">
        <ele>2344.1999511719</ele>
        <time>2023-07-20T12:29:20.000Z</time>
      </trkpt>
      <trkpt lat="42.60666" lon="1.70977">
        <ele>2344.1999511719</ele>
        <time>2023-07-20T12:29:23.000Z</time>
      </trkpt>
      <trkpt lat="42.60666" lon="1.70977">
        <ele>2344.1999511719</ele>
        <time>2023-07-20T12:29:24.000Z</time>
      </trkpt>
      <trkpt lat="42.60665" lon="1.70975">
        <ele>2344.1999511719</ele>
        <time>2023-07-20T12:29:29.000Z</time>
      </trkpt>
      <trkpt lat="42.60665" lon="1.70974">
        <ele>2345</ele>
        <time>2023-07-20T12:29:33.000Z</time>
      </trkpt>
      <trkpt lat="42.60668" lon="1.70973">
        <ele>2345.8000488281</ele>
        <time>2023-07-20T12:29:42.000Z</time>
      </trkpt>
      <trkpt lat="42.60669" lon="1.70973">
        <ele>2346.1999511719</ele>
        <time>2023-07-20T12:29:44.000Z</time>
      </trkpt>
      <trkpt lat="42.60671" lon="1.70976">
        <ele>2347.1999511719</ele>
        <time>2023-07-20T12:29:48.000Z</time>
      </trkpt>
      <trkpt lat="42.60672" lon="1.70976">
        <ele>2347.3999023438</ele>
        <time>2023-07-20T12:29:49.000Z</time>
      </trkpt>
      <trkpt lat="42.60673" lon="1.70975">
        <ele>2348.1999511719</ele>
        <time>2023-07-20T12:29:54.000Z</time>
      </trkpt>
      <trkpt lat="42.60674" lon="1.70973">
        <ele>2348.3999023438</ele>
        <time>2023-07-20T12:29:57.000Z</time>
      </trkpt>
      <trkpt lat="42.60674" lon="1.70971">
        <ele>2349.6000976562</ele>
        <time>2023-07-20T12:30:02.000Z</time>
      </trkpt>
      <trkpt lat="42.60673" lon="1.70969">
        <ele>2350.3999023438</ele>
        <time>2023-07-20T12:30:04.000Z</time>
      </trkpt>
      <trkpt lat="42.60673" lon="1.70968">
        <ele>2350.6000976562</ele>
        <time>2023-07-20T12:30:06.000Z</time>
      </trkpt>
      <trkpt lat="42.60672" lon="1.70964">
        <ele>2351.1999511719</ele>
        <time>2023-07-20T12:30:13.000Z</time>
      </trkpt>
      <trkpt lat="42.60673" lon="1.70959">
        <ele>2351.6000976562</ele>
        <time>2023-07-20T12:30:19.000Z</time>
      </trkpt>
      <trkpt lat="42.60674" lon="1.70958">
        <ele>2351.8000488281</ele>
        <time>2023-07-20T12:30:20.000Z</time>
      </trkpt>
      <trkpt lat="42.60673" lon="1.70957">
        <ele>2352.6000976562</ele>
        <time>2023-07-20T12:30:24.000Z</time>
      </trkpt>
      <trkpt lat="42.60673" lon="1.70958">
        <ele>2352.8000488281</ele>
        <time>2023-07-20T12:30:26.000Z</time>
      </trkpt>
      <trkpt lat="42.60672" lon="1.70957">
        <ele>2353.8000488281</ele>
        <time>2023-07-20T12:30:31.000Z</time>
      </trkpt>
      <trkpt lat="42.60671" lon="1.70955">
        <ele>2354.1999511719</ele>
        <time>2023-07-20T12:30:33.000Z</time>
      </trkpt>
      <trkpt lat="42.6067" lon="1.70952">
        <ele>2354.8000488281</ele>
        <time>2023-07-20T12:30:36.000Z</time>
      </trkpt>
      <trkpt lat="42.6067" lon="1.7095">
        <ele>2355.8000488281</ele>
        <time>2023-07-20T12:30:42.000Z</time>
      </trkpt>
      <trkpt lat="42.6067" lon="1.70947">
        <ele>2356</ele>
        <time>2023-07-20T12:30:46.000Z</time>
      </trkpt>
      <trkpt lat="42.6067" lon="1.70945">
        <ele>2356</ele>
        <time>2023-07-20T12:30:49.000Z</time>
      </trkpt>
      <trkpt lat="42.60669" lon="1.70939">
        <ele>2355.3999023438</ele>
        <time>2023-07-20T12:30:57.000Z</time>
      </trkpt>
      <trkpt lat="42.60668" lon="1.70934">
        <ele>2355</ele>
        <time>2023-07-20T12:31:00.000Z</time>
      </trkpt>
      <trkpt lat="42.60667" lon="1.70931">
        <ele>2356.1999511719</ele>
        <time>2023-07-20T12:31:04.000Z</time>
      </trkpt>
      <trkpt lat="42.60667" lon="1.70929">
        <ele>2357</ele>
        <time>2023-07-20T12:31:06.000Z</time>
      </trkpt>
      <trkpt lat="42.60667" lon="1.70928">
        <ele>2357.6000976562</ele>
        <time>2023-07-20T12:31:07.000Z</time>
      </trkpt>
      <trkpt lat="42.60667" lon="1.70926">
        <ele>2359.3999023438</ele>
        <time>2023-07-20T12:31:11.000Z</time>
      </trkpt>
      <trkpt lat="42.60668" lon="1.70922">
        <ele>2360</ele>
        <time>2023-07-20T12:31:14.000Z</time>
      </trkpt>
      <trkpt lat="42.60669" lon="1.70918">
        <ele>2361.6000976562</ele>
        <time>2023-07-20T12:31:18.000Z</time>
      </trkpt>
      <trkpt lat="42.60673" lon="1.70914">
        <ele>2362</ele>
        <time>2023-07-20T12:31:23.000Z</time>
      </trkpt>
      <trkpt lat="42.60674" lon="1.70913">
        <ele>2360.3999023438</ele>
        <time>2023-07-20T12:31:25.000Z</time>
      </trkpt>
      <trkpt lat="42.60678" lon="1.70904">
        <ele>2359.8000488281</ele>
        <time>2023-07-20T12:31:32.000Z</time>
      </trkpt>
      <trkpt lat="42.60678" lon="1.70902">
        <ele>2359.1999511719</ele>
        <time>2023-07-20T12:31:33.000Z</time>
      </trkpt>
      <trkpt lat="42.60677" lon="1.70896">
        <ele>2358.3999023438</ele>
        <time>2023-07-20T12:31:38.000Z</time>
      </trkpt>
      <trkpt lat="42.60677" lon="1.70896">
        <ele>2357.1999511719</ele>
        <time>2023-07-20T12:31:42.000Z</time>
      </trkpt>
      <trkpt lat="42.60677" lon="1.70895">
        <ele>2354.1999511719</ele>
        <time>2023-07-20T12:31:43.000Z</time>
      </trkpt>
      <trkpt lat="42.60677" lon="1.70895">
        <ele>2353.3999023438</ele>
        <time>2023-07-20T12:31:45.000Z</time>
      </trkpt>
      <trkpt lat="42.60677" lon="1.70894">
        <ele>2355.3999023438</ele>
        <time>2023-07-20T12:31:49.000Z</time>
      </trkpt>
      <trkpt lat="42.60677" lon="1.70893">
        <ele>2354.6000976562</ele>
        <time>2023-07-20T12:31:54.000Z</time>
      </trkpt>
      <trkpt lat="42.60677" lon="1.70892">
        <ele>2354.1999511719</ele>
        <time>2023-07-20T12:31:55.000Z</time>
      </trkpt>
      <trkpt lat="42.60677" lon="1.70891">
        <ele>2353</ele>
        <time>2023-07-20T12:31:57.000Z</time>
      </trkpt>
      <trkpt lat="42.60678" lon="1.7089">
        <ele>2350.6000976562</ele>
        <time>2023-07-20T12:31:58.000Z</time>
      </trkpt>
      <trkpt lat="42.60678" lon="1.7089">
        <ele>2349.6000976562</ele>
        <time>2023-07-20T12:31:59.000Z</time>
      </trkpt>
      <trkpt lat="42.60677" lon="1.70889">
        <ele>2349.1999511719</ele>
        <time>2023-07-20T12:32:03.000Z</time>
      </trkpt>
      <trkpt lat="42.60677" lon="1.70884">
        <ele>2348.3999023438</ele>
        <time>2023-07-20T12:32:10.000Z</time>
      </trkpt>
      <trkpt lat="42.60678" lon="1.70883">
        <ele>2347.8000488281</ele>
        <time>2023-07-20T12:32:11.000Z</time>
      </trkpt>
      <trkpt lat="42.60678" lon="1.70883">
        <ele>2346.8000488281</ele>
        <time>2023-07-20T12:32:12.000Z</time>
      </trkpt>
      <trkpt lat="42.60679" lon="1.7088">
        <ele>2345.3999023438</ele>
        <time>2023-07-20T12:32:16.000Z</time>
      </trkpt>
      <trkpt lat="42.60679" lon="1.70879">
        <ele>2345.1999511719</ele>
        <time>2023-07-20T12:32:18.000Z</time>
      </trkpt>
      <trkpt lat="42.60679" lon="1.70878">
        <ele>2344.3999023438</ele>
        <time>2023-07-20T12:32:21.000Z</time>
      </trkpt>
      <trkpt lat="42.60679" lon="1.70878">
        <ele>2342.6000976562</ele>
        <time>2023-07-20T12:32:24.000Z</time>
      </trkpt>
      <trkpt lat="42.60678" lon="1.70876">
        <ele>2341</ele>
        <time>2023-07-20T12:32:26.000Z</time>
      </trkpt>
      <trkpt lat="42.60678" lon="1.70873">
        <ele>2339.6000976562</ele>
        <time>2023-07-20T12:32:30.000Z</time>
      </trkpt>
      <trkpt lat="42.60677" lon="1.70873">
        <ele>2338.8000488281</ele>
        <time>2023-07-20T12:32:33.000Z</time>
      </trkpt>
      <trkpt lat="42.60677" lon="1.70873">
        <ele>2338.3999023438</ele>
        <time>2023-07-20T12:32:34.000Z</time>
      </trkpt>
      <trkpt lat="42.60676" lon="1.70867">
        <ele>2337.1999511719</ele>
        <time>2023-07-20T12:32:56.000Z</time>
      </trkpt>
      <trkpt lat="42.60678" lon="1.70864">
        <ele>2335.8000488281</ele>
        <time>2023-07-20T12:33:02.000Z</time>
      </trkpt>
      <trkpt lat="42.6068" lon="1.70865">
        <ele>2334.6000976562</ele>
        <time>2023-07-20T12:33:07.000Z</time>
      </trkpt>
      <trkpt lat="42.60688" lon="1.70868">
        <ele>2332.1999511719</ele>
        <time>2023-07-20T12:33:21.000Z</time>
      </trkpt>
      <trkpt lat="42.60689" lon="1.70861">
        <ele>2333.1999511719</ele>
        <time>2023-07-20T12:33:28.000Z</time>
      </trkpt>
      <trkpt lat="42.60689" lon="1.70862">
        <ele>2331.3999023438</ele>
        <time>2023-07-20T12:33:32.000Z</time>
      </trkpt>
      <trkpt lat="42.60689" lon="1.70861">
        <ele>2330</ele>
        <time>2023-07-20T12:33:34.000Z</time>
      </trkpt>
      <trkpt lat="42.60689" lon="1.70861">
        <ele>2329.6000976562</ele>
        <time>2023-07-20T12:33:35.000Z</time>
      </trkpt>
      <trkpt lat="42.60689" lon="1.70861">
        <ele>2328.6000976562</ele>
        <time>2023-07-20T12:33:36.000Z</time>
      </trkpt>
      <trkpt lat="42.60688" lon="1.70859">
        <ele>2327.3999023438</ele>
        <time>2023-07-20T12:33:39.000Z</time>
      </trkpt>
      <trkpt lat="42.60687" lon="1.70856">
        <ele>2326.3999023438</ele>
        <time>2023-07-20T12:33:42.000Z</time>
      </trkpt>
      <trkpt lat="42.60686" lon="1.70855">
        <ele>2326.1999511719</ele>
        <time>2023-07-20T12:33:43.000Z</time>
      </trkpt>
      <trkpt lat="42.60684" lon="1.70851">
        <ele>2325.1999511719</ele>
        <time>2023-07-20T12:33:48.000Z</time>
      </trkpt>
      <trkpt lat="42.60684" lon="1.7085">
        <ele>2325</ele>
        <time>2023-07-20T12:33:50.000Z</time>
      </trkpt>
      <trkpt lat="42.60686" lon="1.70848">
        <ele>2324</ele>
        <time>2023-07-20T12:33:56.000Z</time>
      </trkpt>
      <trkpt lat="42.60687" lon="1.70847">
        <ele>2323.8000488281</ele>
        <time>2023-07-20T12:33:57.000Z</time>
      </trkpt>
      <trkpt lat="42.60687" lon="1.70844">
        <ele>2322.6000976562</ele>
        <time>2023-07-20T12:34:00.000Z</time>
      </trkpt>
      <trkpt lat="42.60686" lon="1.70842">
        <ele>2321.6000976562</ele>
        <time>2023-07-20T12:34:02.000Z</time>
      </trkpt>
      <trkpt lat="42.60685" lon="1.70838">
        <ele>2320.3999023438</ele>
        <time>2023-07-20T12:34:05.000Z</time>
      </trkpt>
      <trkpt lat="42.60682" lon="1.70833">
        <ele>2321.6000976562</ele>
        <time>2023-07-20T12:34:10.000Z</time>
      </trkpt>
      <trkpt lat="42.6068" lon="1.70832">
        <ele>2321.8000488281</ele>
        <time>2023-07-20T12:34:13.000Z</time>
      </trkpt>
      <trkpt lat="42.60678" lon="1.7083">
        <ele>2320.1999511719</ele>
        <time>2023-07-20T12:34:18.000Z</time>
      </trkpt>
      <trkpt lat="42.60678" lon="1.70828">
        <ele>2319</ele>
        <time>2023-07-20T12:34:20.000Z</time>
      </trkpt>
      <trkpt lat="42.60678" lon="1.70826">
        <ele>2318.6000976562</ele>
        <time>2023-07-20T12:34:21.000Z</time>
      </trkpt>
      <trkpt lat="42.60674" lon="1.70817">
        <ele>2317.6000976562</ele>
        <time>2023-07-20T12:34:30.000Z</time>
      </trkpt>
      <trkpt lat="42.60673" lon="1.70815">
        <ele>2317.3999023438</ele>
        <time>2023-07-20T12:34:31.000Z</time>
      </trkpt>
      <trkpt lat="42.60669" lon="1.70807">
        <ele>2317.1999511719</ele>
        <time>2023-07-20T12:34:38.000Z</time>
      </trkpt>
      <trkpt lat="42.60667" lon="1.70798">
        <ele>2317.3999023438</ele>
        <time>2023-07-20T12:34:44.000Z</time>
      </trkpt>
      <trkpt lat="42.60664" lon="1.70788">
        <ele>2318.3999023438</ele>
        <time>2023-07-20T12:34:53.000Z</time>
      </trkpt>
      <trkpt lat="42.60667" lon="1.70782">
        <ele>2316.8000488281</ele>
        <time>2023-07-20T12:35:01.000Z</time>
      </trkpt>
      <trkpt lat="42.60672" lon="1.70773">
        <ele>2317.1999511719</ele>
        <time>2023-07-20T12:35:09.000Z</time>
      </trkpt>
      <trkpt lat="42.60678" lon="1.70767">
        <ele>2318.3999023438</ele>
        <time>2023-07-20T12:35:16.000Z</time>
      </trkpt>
      <trkpt lat="42.60679" lon="1.70766">
        <ele>2318.8000488281</ele>
        <time>2023-07-20T12:35:17.000Z</time>
      </trkpt>
      <trkpt lat="42.60681" lon="1.70758">
        <ele>2319.1999511719</ele>
        <time>2023-07-20T12:35:23.000Z</time>
      </trkpt>
      <trkpt lat="42.60681" lon="1.70753">
        <ele>2317.6000976562</ele>
        <time>2023-07-20T12:35:27.000Z</time>
      </trkpt>
      <trkpt lat="42.60681" lon="1.70752">
        <ele>2317.3999023438</ele>
        <time>2023-07-20T12:35:30.000Z</time>
      </trkpt>
      <trkpt lat="42.60688" lon="1.7075">
        <ele>2317.8000488281</ele>
        <time>2023-07-20T12:35:38.000Z</time>
      </trkpt>
      <trkpt lat="42.60694" lon="1.70748">
        <ele>2318.6000976562</ele>
        <time>2023-07-20T12:35:46.000Z</time>
      </trkpt>
      <trkpt lat="42.60695" lon="1.70748">
        <ele>2318.6000976562</ele>
        <time>2023-07-20T12:35:47.000Z</time>
      </trkpt>
      <trkpt lat="42.60698" lon="1.70743">
        <ele>2319</ele>
        <time>2023-07-20T12:35:54.000Z</time>
      </trkpt>
      <trkpt lat="42.607" lon="1.70742">
        <ele>2319.3999023438</ele>
        <time>2023-07-20T12:36:00.000Z</time>
      </trkpt>
      <trkpt lat="42.60701" lon="1.70739">
        <ele>2319.6000976562</ele>
        <time>2023-07-20T12:36:03.000Z</time>
      </trkpt>
      <trkpt lat="42.60702" lon="1.70735">
        <ele>2320</ele>
        <time>2023-07-20T12:36:08.000Z</time>
      </trkpt>
      <trkpt lat="42.60703" lon="1.70733">
        <ele>2320.6000976562</ele>
        <time>2023-07-20T12:36:12.000Z</time>
      </trkpt>
      <trkpt lat="42.60704" lon="1.70729">
        <ele>2321.1999511719</ele>
        <time>2023-07-20T12:36:15.000Z</time>
      </trkpt>
      <trkpt lat="42.60703" lon="1.70728">
        <ele>2321.6000976562</ele>
        <time>2023-07-20T12:36:22.000Z</time>
      </trkpt>
      <trkpt lat="42.60702" lon="1.7073">
        <ele>2320.6000976562</ele>
        <time>2023-07-20T12:36:30.000Z</time>
      </trkpt>
      <trkpt lat="42.60702" lon="1.70727">
        <ele>2320.8000488281</ele>
        <time>2023-07-20T12:36:37.000Z</time>
      </trkpt>
      <trkpt lat="42.60704" lon="1.70721">
        <ele>2321.1999511719</ele>
        <time>2023-07-20T12:36:43.000Z</time>
      </trkpt>
      <trkpt lat="42.60709" lon="1.70716">
        <ele>2320.3999023438</ele>
        <time>2023-07-20T12:36:50.000Z</time>
      </trkpt>
      <trkpt lat="42.60715" lon="1.70708">
        <ele>2321.8000488281</ele>
        <time>2023-07-20T12:36:59.000Z</time>
      </trkpt>
      <trkpt lat="42.60719" lon="1.70703">
        <ele>2322.3999023438</ele>
        <time>2023-07-20T12:37:05.000Z</time>
      </trkpt>
      <trkpt lat="42.60726" lon="1.70699">
        <ele>2322.8000488281</ele>
        <time>2023-07-20T12:37:13.000Z</time>
      </trkpt>
      <trkpt lat="42.60727" lon="1.70699">
        <ele>2322.8000488281</ele>
        <time>2023-07-20T12:37:14.000Z</time>
      </trkpt>
      <trkpt lat="42.60731" lon="1.70694">
        <ele>2321.8000488281</ele>
        <time>2023-07-20T12:37:21.000Z</time>
      </trkpt>
      <trkpt lat="42.60735" lon="1.70687">
        <ele>2321.8000488281</ele>
        <time>2023-07-20T12:37:29.000Z</time>
      </trkpt>
      <trkpt lat="42.6074" lon="1.7068">
        <ele>2322</ele>
        <time>2023-07-20T12:37:35.000Z</time>
      </trkpt>
      <trkpt lat="42.60741" lon="1.70678">
        <ele>2321.8000488281</ele>
        <time>2023-07-20T12:37:37.000Z</time>
      </trkpt>
      <trkpt lat="42.60741" lon="1.70674">
        <ele>2321.6000976562</ele>
        <time>2023-07-20T12:37:41.000Z</time>
      </trkpt>
      <trkpt lat="42.60743" lon="1.7067">
        <ele>2322.1999511719</ele>
        <time>2023-07-20T12:37:46.000Z</time>
      </trkpt>
      <trkpt lat="42.60745" lon="1.70668">
        <ele>2322.1999511719</ele>
        <time>2023-07-20T12:37:53.000Z</time>
      </trkpt>
      <trkpt lat="42.60749" lon="1.70664">
        <ele>2322.6000976562</ele>
        <time>2023-07-20T12:37:59.000Z</time>
      </trkpt>
      <trkpt lat="42.60751" lon="1.70659">
        <ele>2322</ele>
        <time>2023-07-20T12:38:07.000Z</time>
      </trkpt>
      <trkpt lat="42.60753" lon="1.7065">
        <ele>2322.8000488281</ele>
        <time>2023-07-20T12:38:16.000Z</time>
      </trkpt>
      <trkpt lat="42.60753" lon="1.70648">
        <ele>2323</ele>
        <time>2023-07-20T12:38:17.000Z</time>
      </trkpt>
      <trkpt lat="42.60753" lon="1.70641">
        <ele>2324.1999511719</ele>
        <time>2023-07-20T12:38:23.000Z</time>
      </trkpt>
      <trkpt lat="42.60753" lon="1.70641">
        <ele>2324.1999511719</ele>
        <time>2023-07-20T12:38:24.000Z</time>
      </trkpt>
      <trkpt lat="42.60754" lon="1.70639">
        <ele>2324.1999511719</ele>
        <time>2023-07-20T12:38:30.000Z</time>
      </trkpt>
      <trkpt lat="42.60755" lon="1.70634">
        <ele>2324.6000976562</ele>
        <time>2023-07-20T12:38:36.000Z</time>
      </trkpt>
      <trkpt lat="42.60756" lon="1.70631">
        <ele>2325.1999511719</ele>
        <time>2023-07-20T12:38:40.000Z</time>
      </trkpt>
      <trkpt lat="42.60757" lon="1.70629">
        <ele>2326</ele>
        <time>2023-07-20T12:38:43.000Z</time>
      </trkpt>
      <trkpt lat="42.60757" lon="1.70628">
        <ele>2326.3999023438</ele>
        <time>2023-07-20T12:38:45.000Z</time>
      </trkpt>
      <trkpt lat="42.60756" lon="1.70622">
        <ele>2326.3999023438</ele>
        <time>2023-07-20T12:38:51.000Z</time>
      </trkpt>
      <trkpt lat="42.60758" lon="1.70618">
        <ele>2326.8000488281</ele>
        <time>2023-07-20T12:38:59.000Z</time>
      </trkpt>
      <trkpt lat="42.6076" lon="1.70614">
        <ele>2327.3999023438</ele>
        <time>2023-07-20T12:39:05.000Z</time>
      </trkpt>
      <trkpt lat="42.6076" lon="1.70614">
        <ele>2328</ele>
        <time>2023-07-20T12:39:08.000Z</time>
      </trkpt>
      <trkpt lat="42.60761" lon="1.70615">
        <ele>2328.3999023438</ele>
        <time>2023-07-20T12:39:12.000Z</time>
      </trkpt>
      <trkpt lat="42.60761" lon="1.70614">
        <ele>2329</ele>
        <time>2023-07-20T12:39:17.000Z</time>
      </trkpt>
      <trkpt lat="42.60761" lon="1.70614">
        <ele>2329.6000976562</ele>
        <time>2023-07-20T12:39:20.000Z</time>
      </trkpt>
      <trkpt lat="42.60761" lon="1.70612">
        <ele>2330</ele>
        <time>2023-07-20T12:39:24.000Z</time>
      </trkpt>
      <trkpt lat="42.60759" lon="1.70607">
        <ele>2330.3999023438</ele>
        <time>2023-07-20T12:39:32.000Z</time>
      </trkpt>
      <trkpt lat="42.60759" lon="1.70606">
        <ele>2330.6000976562</ele>
        <time>2023-07-20T12:39:33.000Z</time>
      </trkpt>
      <trkpt lat="42.60757" lon="1.70603">
        <ele>2331.8000488281</ele>
        <time>2023-07-20T12:39:38.000Z</time>
      </trkpt>
      <trkpt lat="42.60757" lon="1.70601">
        <ele>2332.3999023438</ele>
        <time>2023-07-20T12:39:41.000Z</time>
      </trkpt>
      <trkpt lat="42.60755" lon="1.70599">
        <ele>2332.8000488281</ele>
        <time>2023-07-20T12:39:44.000Z</time>
      </trkpt>
      <trkpt lat="42.60752" lon="1.70597">
        <ele>2333.3999023438</ele>
        <time>2023-07-20T12:39:49.000Z</time>
      </trkpt>
      <trkpt lat="42.60749" lon="1.70598">
        <ele>2334</ele>
        <time>2023-07-20T12:39:55.000Z</time>
      </trkpt>
      <trkpt lat="42.60749" lon="1.70598">
        <ele>2334.1999511719</ele>
        <time>2023-07-20T12:39:56.000Z</time>
      </trkpt>
      <trkpt lat="42.60749" lon="1.70599">
        <ele>2335</ele>
        <time>2023-07-20T12:40:02.000Z</time>
      </trkpt>
      <trkpt lat="42.6075" lon="1.70599">
        <ele>2335.3999023438</ele>
        <time>2023-07-20T12:40:03.000Z</time>
      </trkpt>
      <trkpt lat="42.6075" lon="1.70598">
        <ele>2336.1999511719</ele>
        <time>2023-07-20T12:40:06.000Z</time>
      </trkpt>
      <trkpt lat="42.60751" lon="1.70598">
        <ele>2336.8000488281</ele>
        <time>2023-07-20T12:40:09.000Z</time>
      </trkpt>
      <trkpt lat="42.60752" lon="1.70594">
        <ele>2337.1999511719</ele>
        <time>2023-07-20T12:40:15.000Z</time>
      </trkpt>
      <trkpt lat="42.60752" lon="1.70593">
        <ele>2337.3999023438</ele>
        <time>2023-07-20T12:40:16.000Z</time>
      </trkpt>
      <trkpt lat="42.60752" lon="1.70591">
        <ele>2338.3999023438</ele>
        <time>2023-07-20T12:40:20.000Z</time>
      </trkpt>
      <trkpt lat="42.60751" lon="1.7059">
        <ele>2338.8000488281</ele>
        <time>2023-07-20T12:40:22.000Z</time>
      </trkpt>
      <trkpt lat="42.60751" lon="1.70588">
        <ele>2338.3999023438</ele>
        <time>2023-07-20T12:40:29.000Z</time>
      </trkpt>
      <trkpt lat="42.60752" lon="1.70589">
        <ele>2339</ele>
        <time>2023-07-20T12:40:35.000Z</time>
      </trkpt>
      <trkpt lat="42.60751" lon="1.70587">
        <ele>2339.3999023438</ele>
        <time>2023-07-20T12:40:38.000Z</time>
      </trkpt>
      <trkpt lat="42.6075" lon="1.70583">
        <ele>2339.3999023438</ele>
        <time>2023-07-20T12:40:44.000Z</time>
      </trkpt>
      <trkpt lat="42.6075" lon="1.70583">
        <ele>2338.6000976562</ele>
        <time>2023-07-20T12:40:50.000Z</time>
      </trkpt>
      <trkpt lat="42.6075" lon="1.70581">
        <ele>2340</ele>
        <time>2023-07-20T12:40:57.000Z</time>
      </trkpt>
      <trkpt lat="42.60748" lon="1.70582">
        <ele>2340.3999023438</ele>
        <time>2023-07-20T12:41:00.000Z</time>
      </trkpt>
      <trkpt lat="42.60747" lon="1.7058">
        <ele>2341.8000488281</ele>
        <time>2023-07-20T12:41:06.000Z</time>
      </trkpt>
      <trkpt lat="42.60747" lon="1.7058">
        <ele>2342.3999023438</ele>
        <time>2023-07-20T12:41:07.000Z</time>
      </trkpt>
      <trkpt lat="42.60747" lon="1.7058">
        <ele>2342.8000488281</ele>
        <time>2023-07-20T12:41:09.000Z</time>
      </trkpt>
      <trkpt lat="42.60747" lon="1.70576">
        <ele>2343</ele>
        <time>2023-07-20T12:41:15.000Z</time>
      </trkpt>
      <trkpt lat="42.60748" lon="1.70574">
        <ele>2343.8000488281</ele>
        <time>2023-07-20T12:41:23.000Z</time>
      </trkpt>
      <trkpt lat="42.60747" lon="1.70574">
        <ele>2344</ele>
        <time>2023-07-20T12:41:24.000Z</time>
      </trkpt>
      <trkpt lat="42.60746" lon="1.70573">
        <ele>2345</ele>
        <time>2023-07-20T12:41:27.000Z</time>
      </trkpt>
      <trkpt lat="42.60745" lon="1.7057">
        <ele>2345</ele>
        <time>2023-07-20T12:41:30.000Z</time>
      </trkpt>
      <trkpt lat="42.60744" lon="1.70566">
        <ele>2345.3999023438</ele>
        <time>2023-07-20T12:41:38.000Z</time>
      </trkpt>
      <trkpt lat="42.60744" lon="1.70566">
        <ele>2346.1999511719</ele>
        <time>2023-07-20T12:41:41.000Z</time>
      </trkpt>
      <trkpt lat="42.60743" lon="1.70563">
        <ele>2347.3999023438</ele>
        <time>2023-07-20T12:41:47.000Z</time>
      </trkpt>
      <trkpt lat="42.60742" lon="1.7056">
        <ele>2348.3999023438</ele>
        <time>2023-07-20T12:41:50.000Z</time>
      </trkpt>
      <trkpt lat="42.6074" lon="1.70558">
        <ele>2348.8000488281</ele>
        <time>2023-07-20T12:41:55.000Z</time>
      </trkpt>
      <trkpt lat="42.6074" lon="1.70559">
        <ele>2349.6000976562</ele>
        <time>2023-07-20T12:41:59.000Z</time>
      </trkpt>
      <trkpt lat="42.60741" lon="1.70558">
        <ele>2350.3999023438</ele>
        <time>2023-07-20T12:42:04.000Z</time>
      </trkpt>
      <trkpt lat="42.6074" lon="1.70558">
        <ele>2350.8000488281</ele>
        <time>2023-07-20T12:42:05.000Z</time>
      </trkpt>
      <trkpt lat="42.60739" lon="1.70556">
        <ele>2351.6000976562</ele>
        <time>2023-07-20T12:42:11.000Z</time>
      </trkpt>
      <trkpt lat="42.60739" lon="1.70556">
        <ele>2351.8000488281</ele>
        <time>2023-07-20T12:42:12.000Z</time>
      </trkpt>
      <trkpt lat="42.60737" lon="1.70553">
        <ele>2353</ele>
        <time>2023-07-20T12:42:18.000Z</time>
      </trkpt>
      <trkpt lat="42.60736" lon="1.70552">
        <ele>2353.8000488281</ele>
        <time>2023-07-20T12:42:20.000Z</time>
      </trkpt>
      <trkpt lat="42.60737" lon="1.70552">
        <ele>2354</ele>
        <time>2023-07-20T12:42:21.000Z</time>
      </trkpt>
      <trkpt lat="42.60737" lon="1.7055">
        <ele>2354.8000488281</ele>
        <time>2023-07-20T12:42:28.000Z</time>
      </trkpt>
      <trkpt lat="42.60735" lon="1.70548">
        <ele>2353.8000488281</ele>
        <time>2023-07-20T12:42:34.000Z</time>
      </trkpt>
      <trkpt lat="42.60733" lon="1.70548">
        <ele>2354.3999023438</ele>
        <time>2023-07-20T12:42:42.000Z</time>
      </trkpt>
      <trkpt lat="42.60732" lon="1.70545">
        <ele>2354.6000976562</ele>
        <time>2023-07-20T12:42:50.000Z</time>
      </trkpt>
      <trkpt lat="42.6073" lon="1.70543">
        <ele>2355.1999511719</ele>
        <time>2023-07-20T12:42:57.000Z</time>
      </trkpt>
      <trkpt lat="42.6073" lon="1.70539">
        <ele>2356.6000976562</ele>
        <time>2023-07-20T12:43:05.000Z</time>
      </trkpt>
      <trkpt lat="42.60733" lon="1.70534">
        <ele>2358.1999511719</ele>
        <time>2023-07-20T12:43:14.000Z</time>
      </trkpt>
      <trkpt lat="42.60732" lon="1.70528">
        <ele>2358.8000488281</ele>
        <time>2023-07-20T12:43:19.000Z</time>
      </trkpt>
      <trkpt lat="42.60732" lon="1.70528">
        <ele>2359.3999023438</ele>
        <time>2023-07-20T12:43:21.000Z</time>
      </trkpt>
      <trkpt lat="42.60732" lon="1.70528">
        <ele>2359.8000488281</ele>
        <time>2023-07-20T12:43:24.000Z</time>
      </trkpt>
      <trkpt lat="42.60732" lon="1.70525">
        <ele>2360.6000976562</ele>
        <time>2023-07-20T12:43:29.000Z</time>
      </trkpt>
      <trkpt lat="42.60734" lon="1.7052">
        <ele>2361</ele>
        <time>2023-07-20T12:43:37.000Z</time>
      </trkpt>
      <trkpt lat="42.60735" lon="1.70518">
        <ele>2361.3999023438</ele>
        <time>2023-07-20T12:43:38.000Z</time>
      </trkpt>
      <trkpt lat="42.60735" lon="1.70517">
        <ele>2361.8000488281</ele>
        <time>2023-07-20T12:43:44.000Z</time>
      </trkpt>
      <trkpt lat="42.60737" lon="1.70519">
        <ele>2362.1999511719</ele>
        <time>2023-07-20T12:43:46.000Z</time>
      </trkpt>
      <trkpt lat="42.60737" lon="1.70515">
        <ele>2362.8000488281</ele>
        <time>2023-07-20T12:43:49.000Z</time>
      </trkpt>
      <trkpt lat="42.60736" lon="1.70512">
        <ele>2363.1999511719</ele>
        <time>2023-07-20T12:43:52.000Z</time>
      </trkpt>
      <trkpt lat="42.60735" lon="1.70511">
        <ele>2363.8000488281</ele>
        <time>2023-07-20T12:43:56.000Z</time>
      </trkpt>
      <trkpt lat="42.60734" lon="1.70506">
        <ele>2364.1999511719</ele>
        <time>2023-07-20T12:44:01.000Z</time>
      </trkpt>
      <trkpt lat="42.60734" lon="1.70505">
        <ele>2364.6000976562</ele>
        <time>2023-07-20T12:44:03.000Z</time>
      </trkpt>
      <trkpt lat="42.60732" lon="1.70498">
        <ele>2365.3999023438</ele>
        <time>2023-07-20T12:44:10.000Z</time>
      </trkpt>
      <trkpt lat="42.60731" lon="1.70495">
        <ele>2365.8000488281</ele>
        <time>2023-07-20T12:44:13.000Z</time>
      </trkpt>
      <trkpt lat="42.6073" lon="1.70494">
        <ele>2366.3999023438</ele>
        <time>2023-07-20T12:44:16.000Z</time>
      </trkpt>
      <trkpt lat="42.60729" lon="1.70488">
        <ele>2367.3999023438</ele>
        <time>2023-07-20T12:44:23.000Z</time>
      </trkpt>
      <trkpt lat="42.60726" lon="1.70482">
        <ele>2368.6000976562</ele>
        <time>2023-07-20T12:44:30.000Z</time>
      </trkpt>
      <trkpt lat="42.60724" lon="1.70475">
        <ele>2369.8000488281</ele>
        <time>2023-07-20T12:44:38.000Z</time>
      </trkpt>
      <trkpt lat="42.60722" lon="1.70469">
        <ele>2370.8000488281</ele>
        <time>2023-07-20T12:44:46.000Z</time>
      </trkpt>
      <trkpt lat="42.60722" lon="1.70468">
        <ele>2370.8000488281</ele>
        <time>2023-07-20T12:44:47.000Z</time>
      </trkpt>
      <trkpt lat="42.60722" lon="1.70462">
        <ele>2371.8000488281</ele>
        <time>2023-07-20T12:44:51.000Z</time>
      </trkpt>
      <trkpt lat="42.60722" lon="1.70459">
        <ele>2372</ele>
        <time>2023-07-20T12:44:55.000Z</time>
      </trkpt>
      <trkpt lat="42.60718" lon="1.7045">
        <ele>2372.1999511719</ele>
        <time>2023-07-20T12:45:05.000Z</time>
      </trkpt>
      <trkpt lat="42.60715" lon="1.7044">
        <ele>2373</ele>
        <time>2023-07-20T12:45:14.000Z</time>
      </trkpt>
      <trkpt lat="42.60711" lon="1.70431">
        <ele>2373.1999511719</ele>
        <time>2023-07-20T12:45:23.000Z</time>
      </trkpt>
      <trkpt lat="42.60709" lon="1.70428">
        <ele>2373.1999511719</ele>
        <time>2023-07-20T12:45:31.000Z</time>
      </trkpt>
      <trkpt lat="42.60709" lon="1.70422">
        <ele>2373</ele>
        <time>2023-07-20T12:45:39.000Z</time>
      </trkpt>
      <trkpt lat="42.60708" lon="1.70418">
        <ele>2374.8000488281</ele>
        <time>2023-07-20T12:45:46.000Z</time>
      </trkpt>
      <trkpt lat="42.60705" lon="1.70412">
        <ele>2373.6000976562</ele>
        <time>2023-07-20T12:45:53.000Z</time>
      </trkpt>
      <trkpt lat="42.60704" lon="1.70411">
        <ele>2372.3999023438</ele>
        <time>2023-07-20T12:45:55.000Z</time>
      </trkpt>
      <trkpt lat="42.60704" lon="1.7041">
        <ele>2370.8000488281</ele>
        <time>2023-07-20T12:45:58.000Z</time>
      </trkpt>
      <trkpt lat="42.60704" lon="1.7041">
        <ele>2369.6000976562</ele>
        <time>2023-07-20T12:45:59.000Z</time>
      </trkpt>
      <trkpt lat="42.60704" lon="1.7041">
        <ele>2368.1999511719</ele>
        <time>2023-07-20T12:46:00.000Z</time>
      </trkpt>
      <trkpt lat="42.60704" lon="1.7041">
        <ele>2368</ele>
        <time>2023-07-20T12:46:01.000Z</time>
      </trkpt>
      <trkpt lat="42.60706" lon="1.70411">
        <ele>2367</ele>
        <time>2023-07-20T12:46:07.000Z</time>
      </trkpt>
      <trkpt lat="42.60706" lon="1.70412">
        <ele>2366.8000488281</ele>
        <time>2023-07-20T12:46:10.000Z</time>
      </trkpt>
      <trkpt lat="42.60703" lon="1.70409">
        <ele>2366.8000488281</ele>
        <time>2023-07-20T12:46:21.000Z</time>
      </trkpt>
      <trkpt lat="42.60702" lon="1.70407">
        <ele>2368</ele>
        <time>2023-07-20T12:46:24.000Z</time>
      </trkpt>
      <trkpt lat="42.60701" lon="1.70404">
        <ele>2373</ele>
        <time>2023-07-20T12:46:26.000Z</time>
      </trkpt>
      <trkpt lat="42.60701" lon="1.70403">
        <ele>2376.1999511719</ele>
        <time>2023-07-20T12:46:27.000Z</time>
      </trkpt>
      <trkpt lat="42.60699" lon="1.70399">
        <ele>2376.1999511719</ele>
        <time>2023-07-20T12:46:30.000Z</time>
      </trkpt>
      <trkpt lat="42.60698" lon="1.70398">
        <ele>2375.1999511719</ele>
        <time>2023-07-20T12:46:31.000Z</time>
      </trkpt>
      <trkpt lat="42.60698" lon="1.70397">
        <ele>2373.8000488281</ele>
        <time>2023-07-20T12:46:33.000Z</time>
      </trkpt>
      <trkpt lat="42.60699" lon="1.70394">
        <ele>2372</ele>
        <time>2023-07-20T12:46:36.000Z</time>
      </trkpt>
      <trkpt lat="42.60699" lon="1.70394">
        <ele>2371.8000488281</ele>
        <time>2023-07-20T12:46:37.000Z</time>
      </trkpt>
      <trkpt lat="42.607" lon="1.70388">
        <ele>2372.1999511719</ele>
        <time>2023-07-20T12:46:43.000Z</time>
      </trkpt>
      <trkpt lat="42.60702" lon="1.70386">
        <ele>2370.1999511719</ele>
        <time>2023-07-20T12:46:48.000Z</time>
      </trkpt>
      <trkpt lat="42.60702" lon="1.70386">
        <ele>2368.8000488281</ele>
        <time>2023-07-20T12:46:49.000Z</time>
      </trkpt>
      <trkpt lat="42.60702" lon="1.70385">
        <ele>2366.1999511719</ele>
        <time>2023-07-20T12:46:50.000Z</time>
      </trkpt>
      <trkpt lat="42.60702" lon="1.70384">
        <ele>2365.3999023438</ele>
        <time>2023-07-20T12:46:51.000Z</time>
      </trkpt>
      <trkpt lat="42.60703" lon="1.7038">
        <ele>2365.6000976562</ele>
        <time>2023-07-20T12:46:58.000Z</time>
      </trkpt>
      <trkpt lat="42.60703" lon="1.70379">
        <ele>2364</ele>
        <time>2023-07-20T12:47:00.000Z</time>
      </trkpt>
      <trkpt lat="42.60703" lon="1.70378">
        <ele>2362.1999511719</ele>
        <time>2023-07-20T12:47:01.000Z</time>
      </trkpt>
      <trkpt lat="42.60704" lon="1.70377">
        <ele>2360.8000488281</ele>
        <time>2023-07-20T12:47:02.000Z</time>
      </trkpt>
      <trkpt lat="42.60704" lon="1.70376">
        <ele>2359.1999511719</ele>
        <time>2023-07-20T12:47:04.000Z</time>
      </trkpt>
      <trkpt lat="42.60705" lon="1.70372">
        <ele>2358.3999023438</ele>
        <time>2023-07-20T12:47:10.000Z</time>
      </trkpt>
      <trkpt lat="42.60706" lon="1.70372">
        <ele>2357.8000488281</ele>
        <time>2023-07-20T12:47:12.000Z</time>
      </trkpt>
      <trkpt lat="42.60704" lon="1.70372">
        <ele>2357.8000488281</ele>
        <time>2023-07-20T12:47:17.000Z</time>
      </trkpt>
      <trkpt lat="42.60703" lon="1.70369">
        <ele>2356.6000976562</ele>
        <time>2023-07-20T12:47:23.000Z</time>
      </trkpt>
      <trkpt lat="42.60703" lon="1.70368">
        <ele>2355.6000976562</ele>
        <time>2023-07-20T12:47:25.000Z</time>
      </trkpt>
      <trkpt lat="42.60702" lon="1.70365">
        <ele>2357</ele>
        <time>2023-07-20T12:47:30.000Z</time>
      </trkpt>
      <trkpt lat="42.60702" lon="1.70365">
        <ele>2358</ele>
        <time>2023-07-20T12:47:32.000Z</time>
      </trkpt>
      <trkpt lat="42.60701" lon="1.70365">
        <ele>2358</ele>
        <time>2023-07-20T12:47:35.000Z</time>
      </trkpt>
      <trkpt lat="42.60701" lon="1.70364">
        <ele>2357</ele>
        <time>2023-07-20T12:47:36.000Z</time>
      </trkpt>
      <trkpt lat="42.60701" lon="1.70364">
        <ele>2355.6000976562</ele>
        <time>2023-07-20T12:47:37.000Z</time>
      </trkpt>
      <trkpt lat="42.607" lon="1.70363">
        <ele>2354.6000976562</ele>
        <time>2023-07-20T12:47:40.000Z</time>
      </trkpt>
      <trkpt lat="42.607" lon="1.70361">
        <ele>2354.1999511719</ele>
        <time>2023-07-20T12:47:42.000Z</time>
      </trkpt>
      <trkpt lat="42.60699" lon="1.70359">
        <ele>2353.3999023438</ele>
        <time>2023-07-20T12:47:44.000Z</time>
      </trkpt>
      <trkpt lat="42.60696" lon="1.70356">
        <ele>2352.8000488281</ele>
        <time>2023-07-20T12:47:50.000Z</time>
      </trkpt>
      <trkpt lat="42.60692" lon="1.70352">
        <ele>2351.8000488281</ele>
        <time>2023-07-20T12:47:55.000Z</time>
      </trkpt>
      <trkpt lat="42.60691" lon="1.70349">
        <ele>2351.1999511719</ele>
        <time>2023-07-20T12:47:58.000Z</time>
      </trkpt>
      <trkpt lat="42.60687" lon="1.70346">
        <ele>2352.1999511719</ele>
        <time>2023-07-20T12:48:05.000Z</time>
      </trkpt>
      <trkpt lat="42.60684" lon="1.70342">
        <ele>2349.8000488281</ele>
        <time>2023-07-20T12:48:11.000Z</time>
      </trkpt>
      <trkpt lat="42.60683" lon="1.70338">
        <ele>2351</ele>
        <time>2023-07-20T12:48:16.000Z</time>
      </trkpt>
      <trkpt lat="42.60681" lon="1.70335">
        <ele>2351.6000976562</ele>
        <time>2023-07-20T12:48:19.000Z</time>
      </trkpt>
      <trkpt lat="42.6068" lon="1.70334">
        <ele>2349.8000488281</ele>
        <time>2023-07-20T12:48:23.000Z</time>
      </trkpt>
      <trkpt lat="42.60681" lon="1.70333">
        <ele>2348.8000488281</ele>
        <time>2023-07-20T12:48:27.000Z</time>
      </trkpt>
      <trkpt lat="42.60682" lon="1.7033">
        <ele>2348.6000976562</ele>
        <time>2023-07-20T12:48:31.000Z</time>
      </trkpt>
      <trkpt lat="42.60682" lon="1.70329">
        <ele>2347.3999023438</ele>
        <time>2023-07-20T12:48:32.000Z</time>
      </trkpt>
      <trkpt lat="42.60682" lon="1.7033">
        <ele>2346.8000488281</ele>
        <time>2023-07-20T12:48:34.000Z</time>
      </trkpt>
      <trkpt lat="42.60678" lon="1.70325">
        <ele>2347.8000488281</ele>
        <time>2023-07-20T12:48:43.000Z</time>
      </trkpt>
      <trkpt lat="42.60679" lon="1.70324">
        <ele>2347</ele>
        <time>2023-07-20T12:48:49.000Z</time>
      </trkpt>
      <trkpt lat="42.60679" lon="1.70324">
        <ele>2344.1999511719</ele>
        <time>2023-07-20T12:48:50.000Z</time>
      </trkpt>
      <trkpt lat="42.60678" lon="1.70323">
        <ele>2343</ele>
        <time>2023-07-20T12:48:52.000Z</time>
      </trkpt>
      <trkpt lat="42.60675" lon="1.70318">
        <ele>2342.1999511719</ele>
        <time>2023-07-20T12:48:57.000Z</time>
      </trkpt>
      <trkpt lat="42.60674" lon="1.70316">
        <ele>2346</ele>
        <time>2023-07-20T12:49:00.000Z</time>
      </trkpt>
      <trkpt lat="42.60673" lon="1.70315">
        <ele>2348</ele>
        <time>2023-07-20T12:49:02.000Z</time>
      </trkpt>
      <trkpt lat="42.60672" lon="1.70312">
        <ele>2348.3999023438</ele>
        <time>2023-07-20T12:49:04.000Z</time>
      </trkpt>
      <trkpt lat="42.60672" lon="1.70312">
        <ele>2346.3999023438</ele>
        <time>2023-07-20T12:49:07.000Z</time>
      </trkpt>
      <trkpt lat="42.60672" lon="1.70312">
        <ele>2344.1999511719</ele>
        <time>2023-07-20T12:49:08.000Z</time>
      </trkpt>
      <trkpt lat="42.60672" lon="1.7031">
        <ele>2343.6000976562</ele>
        <time>2023-07-20T12:49:11.000Z</time>
      </trkpt>
      <trkpt lat="42.60672" lon="1.70308">
        <ele>2342.6000976562</ele>
        <time>2023-07-20T12:49:17.000Z</time>
      </trkpt>
      <trkpt lat="42.60672" lon="1.70306">
        <ele>2342.1999511719</ele>
        <time>2023-07-20T12:49:20.000Z</time>
      </trkpt>
      <trkpt lat="42.60672" lon="1.70305">
        <ele>2341</ele>
        <time>2023-07-20T12:49:22.000Z</time>
      </trkpt>
      <trkpt lat="42.60671" lon="1.70303">
        <ele>2340</ele>
        <time>2023-07-20T12:49:26.000Z</time>
      </trkpt>
      <trkpt lat="42.6067" lon="1.70302">
        <ele>2338.3999023438</ele>
        <time>2023-07-20T12:49:29.000Z</time>
      </trkpt>
      <trkpt lat="42.6067" lon="1.70302">
        <ele>2338.1999511719</ele>
        <time>2023-07-20T12:49:30.000Z</time>
      </trkpt>
      <trkpt lat="42.6067" lon="1.70301">
        <ele>2339.6000976562</ele>
        <time>2023-07-20T12:49:34.000Z</time>
      </trkpt>
      <trkpt lat="42.60669" lon="1.70299">
        <ele>2339.6000976562</ele>
        <time>2023-07-20T12:49:38.000Z</time>
      </trkpt>
      <trkpt lat="42.60667" lon="1.70301">
        <ele>2338</ele>
        <time>2023-07-20T12:49:46.000Z</time>
      </trkpt>
      <trkpt lat="42.60669" lon="1.70296">
        <ele>2336.8000488281</ele>
        <time>2023-07-20T12:49:53.000Z</time>
      </trkpt>
      <trkpt lat="42.60669" lon="1.70295">
        <ele>2335.1999511719</ele>
        <time>2023-07-20T12:49:54.000Z</time>
      </trkpt>
      <trkpt lat="42.60669" lon="1.70294">
        <ele>2334</ele>
        <time>2023-07-20T12:49:56.000Z</time>
      </trkpt>
      <trkpt lat="42.60669" lon="1.70292">
        <ele>2332.6000976562</ele>
        <time>2023-07-20T12:49:57.000Z</time>
      </trkpt>
      <trkpt lat="42.6067" lon="1.70289">
        <ele>2331.6000976562</ele>
        <time>2023-07-20T12:50:00.000Z</time>
      </trkpt>
      <trkpt lat="42.6067" lon="1.70289">
        <ele>2331.6000976562</ele>
        <time>2023-07-20T12:50:02.000Z</time>
      </trkpt>
      <trkpt lat="42.60669" lon="1.70288">
        <ele>2331.6000976562</ele>
        <time>2023-07-20T12:50:04.000Z</time>
      </trkpt>
      <trkpt lat="42.60664" lon="1.70288">
        <ele>2331.3999023438</ele>
        <time>2023-07-20T12:50:12.000Z</time>
      </trkpt>
      <trkpt lat="42.60664" lon="1.70284">
        <ele>2330.3999023438</ele>
        <time>2023-07-20T12:50:19.000Z</time>
      </trkpt>
      <trkpt lat="42.60664" lon="1.70283">
        <ele>2330</ele>
        <time>2023-07-20T12:50:20.000Z</time>
      </trkpt>
      <trkpt lat="42.60663" lon="1.70281">
        <ele>2329.1999511719</ele>
        <time>2023-07-20T12:50:23.000Z</time>
      </trkpt>
      <trkpt lat="42.60662" lon="1.70277">
        <ele>2328.1999511719</ele>
        <time>2023-07-20T12:50:28.000Z</time>
      </trkpt>
      <trkpt lat="42.60663" lon="1.70278">
        <ele>2326.1999511719</ele>
        <time>2023-07-20T12:50:30.000Z</time>
      </trkpt>
      <trkpt lat="42.60663" lon="1.70277">
        <ele>2326</ele>
        <time>2023-07-20T12:50:31.000Z</time>
      </trkpt>
      <trkpt lat="42.60664" lon="1.70277">
        <ele>2325.6000976562</ele>
        <time>2023-07-20T12:50:35.000Z</time>
      </trkpt>
      <trkpt lat="42.60665" lon="1.70275">
        <ele>2325</ele>
        <time>2023-07-20T12:50:38.000Z</time>
      </trkpt>
      <trkpt lat="42.60663" lon="1.70273">
        <ele>2325</ele>
        <time>2023-07-20T12:50:42.000Z</time>
      </trkpt>
      <trkpt lat="42.60665" lon="1.70273">
        <ele>2324</ele>
        <time>2023-07-20T12:50:48.000Z</time>
      </trkpt>
      <trkpt lat="42.60665" lon="1.70273">
        <ele>2323.3999023438</ele>
        <time>2023-07-20T12:50:49.000Z</time>
      </trkpt>
      <trkpt lat="42.60664" lon="1.70272">
        <ele>2323.8000488281</ele>
        <time>2023-07-20T12:50:57.000Z</time>
      </trkpt>
      <trkpt lat="42.60665" lon="1.70274">
        <ele>2323.3999023438</ele>
        <time>2023-07-20T12:51:04.000Z</time>
      </trkpt>
      <trkpt lat="42.60666" lon="1.70267">
        <ele>2323</ele>
        <time>2023-07-20T12:51:13.000Z</time>
      </trkpt>
      <trkpt lat="42.60666" lon="1.70261">
        <ele>2322.1999511719</ele>
        <time>2023-07-20T12:51:20.000Z</time>
      </trkpt>
      <trkpt lat="42.60664" lon="1.70261">
        <ele>2321.6000976562</ele>
        <time>2023-07-20T12:51:28.000Z</time>
      </trkpt>
      <trkpt lat="42.60663" lon="1.70261">
        <ele>2321.1999511719</ele>
        <time>2023-07-20T12:51:33.000Z</time>
      </trkpt>
      <trkpt lat="42.60663" lon="1.70259">
        <ele>2320.8000488281</ele>
        <time>2023-07-20T12:51:35.000Z</time>
      </trkpt>
      <trkpt lat="42.60662" lon="1.70257">
        <ele>2319.6000976562</ele>
        <time>2023-07-20T12:51:38.000Z</time>
      </trkpt>
      <trkpt lat="42.6066" lon="1.70256">
        <ele>2319</ele>
        <time>2023-07-20T12:51:42.000Z</time>
      </trkpt>
      <trkpt lat="42.6066" lon="1.7025">
        <ele>2318.6000976562</ele>
        <time>2023-07-20T12:51:51.000Z</time>
      </trkpt>
      <trkpt lat="42.60661" lon="1.70243">
        <ele>2317.3999023438</ele>
        <time>2023-07-20T12:51:59.000Z</time>
      </trkpt>
      <trkpt lat="42.60661" lon="1.70241">
        <ele>2317.3999023438</ele>
        <time>2023-07-20T12:52:00.000Z</time>
      </trkpt>
      <trkpt lat="42.60663" lon="1.70235">
        <ele>2316.3999023438</ele>
        <time>2023-07-20T12:52:05.000Z</time>
      </trkpt>
      <trkpt lat="42.60663" lon="1.70233">
        <ele>2316.3999023438</ele>
        <time>2023-07-20T12:52:07.000Z</time>
      </trkpt>
      <trkpt lat="42.60669" lon="1.70227">
        <ele>2316.6000976562</ele>
        <time>2023-07-20T12:52:14.000Z</time>
      </trkpt>
      <trkpt lat="42.6067" lon="1.70219">
        <ele>2315.6000976562</ele>
        <time>2023-07-20T12:52:23.000Z</time>
      </trkpt>
      <trkpt lat="42.60674" lon="1.7021">
        <ele>2317.1999511719</ele>
        <time>2023-07-20T12:52:33.000Z</time>
      </trkpt>
      <trkpt lat="42.60675" lon="1.70203">
        <ele>2315.1999511719</ele>
        <time>2023-07-20T12:52:40.000Z</time>
      </trkpt>
      <trkpt lat="42.60675" lon="1.70196">
        <ele>2314.8000488281</ele>
        <time>2023-07-20T12:52:48.000Z</time>
      </trkpt>
      <trkpt lat="42.60677" lon="1.70194">
        <ele>2316.6000976562</ele>
        <time>2023-07-20T12:52:53.000Z</time>
      </trkpt>
      <trkpt lat="42.60677" lon="1.70193">
        <ele>2317.8000488281</ele>
        <time>2023-07-20T12:52:54.000Z</time>
      </trkpt>
      <trkpt lat="42.60677" lon="1.70191">
        <ele>2316.6000976562</ele>
        <time>2023-07-20T12:52:58.000Z</time>
      </trkpt>
      <trkpt lat="42.60676" lon="1.70185">
        <ele>2316.8000488281</ele>
        <time>2023-07-20T12:53:04.000Z</time>
      </trkpt>
      <trkpt lat="42.60674" lon="1.70178">
        <ele>2315.8000488281</ele>
        <time>2023-07-20T12:53:10.000Z</time>
      </trkpt>
      <trkpt lat="42.60674" lon="1.70175">
        <ele>2315.3999023438</ele>
        <time>2023-07-20T12:53:12.000Z</time>
      </trkpt>
      <trkpt lat="42.60674" lon="1.70166">
        <ele>2315.3999023438</ele>
        <time>2023-07-20T12:53:17.000Z</time>
      </trkpt>
      <trkpt lat="42.60675" lon="1.70162">
        <ele>2314</ele>
        <time>2023-07-20T12:53:24.000Z</time>
      </trkpt>
      <trkpt lat="42.60675" lon="1.70162">
        <ele>2314.3999023438</ele>
        <time>2023-07-20T12:53:25.000Z</time>
      </trkpt>
      <trkpt lat="42.60677" lon="1.70154">
        <ele>2314</ele>
        <time>2023-07-20T12:53:32.000Z</time>
      </trkpt>
      <trkpt lat="42.60679" lon="1.70151">
        <ele>2314.6000976562</ele>
        <time>2023-07-20T12:53:39.000Z</time>
      </trkpt>
      <trkpt lat="42.60682" lon="1.70144">
        <ele>2313.6000976562</ele>
        <time>2023-07-20T12:53:48.000Z</time>
      </trkpt>
      <trkpt lat="42.60683" lon="1.70141">
        <ele>2312</ele>
        <time>2023-07-20T12:53:52.000Z</time>
      </trkpt>
      <trkpt lat="42.60684" lon="1.7014">
        <ele>2312.3999023438</ele>
        <time>2023-07-20T12:53:56.000Z</time>
      </trkpt>
      <trkpt lat="42.60688" lon="1.70137">
        <ele>2312.1999511719</ele>
        <time>2023-07-20T12:54:04.000Z</time>
      </trkpt>
      <trkpt lat="42.60697" lon="1.70132">
        <ele>2312.1999511719</ele>
        <time>2023-07-20T12:54:12.000Z</time>
      </trkpt>
      <trkpt lat="42.60701" lon="1.70129">
        <ele>2312.8000488281</ele>
        <time>2023-07-20T12:54:21.000Z</time>
      </trkpt>
      <trkpt lat="42.60702" lon="1.70126">
        <ele>2313</ele>
        <time>2023-07-20T12:54:23.000Z</time>
      </trkpt>
      <trkpt lat="42.60703" lon="1.70117">
        <ele>2314</ele>
        <time>2023-07-20T12:54:28.000Z</time>
      </trkpt>
      <trkpt lat="42.60703" lon="1.70116">
        <ele>2314.1999511719</ele>
        <time>2023-07-20T12:54:29.000Z</time>
      </trkpt>
      <trkpt lat="42.60702" lon="1.70109">
        <ele>2315</ele>
        <time>2023-07-20T12:54:35.000Z</time>
      </trkpt>
      <trkpt lat="42.60702" lon="1.70107">
        <ele>2315.3999023438</ele>
        <time>2023-07-20T12:54:37.000Z</time>
      </trkpt>
      <trkpt lat="42.60701" lon="1.70102">
        <ele>2316</ele>
        <time>2023-07-20T12:54:41.000Z</time>
      </trkpt>
      <trkpt lat="42.60701" lon="1.701">
        <ele>2316.6000976562</ele>
        <time>2023-07-20T12:54:44.000Z</time>
      </trkpt>
      <trkpt lat="42.60702" lon="1.70099">
        <ele>2317.1999511719</ele>
        <time>2023-07-20T12:54:48.000Z</time>
      </trkpt>
      <trkpt lat="42.60704" lon="1.70096">
        <ele>2317</ele>
        <time>2023-07-20T12:54:55.000Z</time>
      </trkpt>
      <trkpt lat="42.60704" lon="1.70092">
        <ele>2317.1999511719</ele>
        <time>2023-07-20T12:55:04.000Z</time>
      </trkpt>
      <trkpt lat="42.60703" lon="1.70089">
        <ele>2317.3999023438</ele>
        <time>2023-07-20T12:55:09.000Z</time>
      </trkpt>
      <trkpt lat="42.60704" lon="1.70088">
        <ele>2317.6000976562</ele>
        <time>2023-07-20T12:55:11.000Z</time>
      </trkpt>
      <trkpt lat="42.60704" lon="1.70087">
        <ele>2317.8000488281</ele>
        <time>2023-07-20T12:55:15.000Z</time>
      </trkpt>
      <trkpt lat="42.60704" lon="1.70086">
        <ele>2317.6000976562</ele>
        <time>2023-07-20T12:55:21.000Z</time>
      </trkpt>
      <trkpt lat="42.60701" lon="1.70079">
        <ele>2317.1999511719</ele>
        <time>2023-07-20T12:55:29.000Z</time>
      </trkpt>
      <trkpt lat="42.607" lon="1.70071">
        <ele>2317.3999023438</ele>
        <time>2023-07-20T12:55:38.000Z</time>
      </trkpt>
      <trkpt lat="42.607" lon="1.70067">
        <ele>2317</ele>
        <time>2023-07-20T12:55:47.000Z</time>
      </trkpt>
      <trkpt lat="42.607" lon="1.70063">
        <ele>2317.3999023438</ele>
        <time>2023-07-20T12:55:54.000Z</time>
      </trkpt>
      <trkpt lat="42.60701" lon="1.70056">
        <ele>2318.6000976562</ele>
        <time>2023-07-20T12:56:00.000Z</time>
      </trkpt>
      <trkpt lat="42.60701" lon="1.70053">
        <ele>2318.8000488281</ele>
        <time>2023-07-20T12:56:04.000Z</time>
      </trkpt>
      <trkpt lat="42.60702" lon="1.70051">
        <ele>2319</ele>
        <time>2023-07-20T12:56:11.000Z</time>
      </trkpt>
      <trkpt lat="42.607" lon="1.70043">
        <ele>2319.8000488281</ele>
        <time>2023-07-20T12:56:17.000Z</time>
      </trkpt>
      <trkpt lat="42.607" lon="1.70042">
        <ele>2320</ele>
        <time>2023-07-20T12:56:19.000Z</time>
      </trkpt>
      <trkpt lat="42.60698" lon="1.70038">
        <ele>2320.8000488281</ele>
        <time>2023-07-20T12:56:23.000Z</time>
      </trkpt>
      <trkpt lat="42.60698" lon="1.70035">
        <ele>2321.3999023438</ele>
        <time>2023-07-20T12:56:27.000Z</time>
      </trkpt>
      <trkpt lat="42.60698" lon="1.70033">
        <ele>2321.8000488281</ele>
        <time>2023-07-20T12:56:28.000Z</time>
      </trkpt>
      <trkpt lat="42.60698" lon="1.70028">
        <ele>2322.3999023438</ele>
        <time>2023-07-20T12:56:35.000Z</time>
      </trkpt>
      <trkpt lat="42.60698" lon="1.70027">
        <ele>2322.8000488281</ele>
        <time>2023-07-20T12:56:36.000Z</time>
      </trkpt>
      <trkpt lat="42.60699" lon="1.70024">
        <ele>2324</ele>
        <time>2023-07-20T12:56:41.000Z</time>
      </trkpt>
      <trkpt lat="42.60699" lon="1.7002">
        <ele>2324.1999511719</ele>
        <time>2023-07-20T12:56:46.000Z</time>
      </trkpt>
      <trkpt lat="42.60694" lon="1.70015">
        <ele>2324.6000976562</ele>
        <time>2023-07-20T12:56:54.000Z</time>
      </trkpt>
      <trkpt lat="42.60692" lon="1.70013">
        <ele>2323.6000976562</ele>
        <time>2023-07-20T12:56:59.000Z</time>
      </trkpt>
      <trkpt lat="42.60699" lon="1.7002">
        <ele>2323.6000976562</ele>
        <time>2023-07-20T12:57:07.000Z</time>
      </trkpt>
      <trkpt lat="42.60699" lon="1.70018">
        <ele>2323.3999023438</ele>
        <time>2023-07-20T12:57:15.000Z</time>
      </trkpt>
      <trkpt lat="42.60698" lon="1.70015">
        <ele>2323.6000976562</ele>
        <time>2023-07-20T12:57:23.000Z</time>
      </trkpt>
      <trkpt lat="42.607" lon="1.70011">
        <ele>2323</ele>
        <time>2023-07-20T12:57:29.000Z</time>
      </trkpt>
      <trkpt lat="42.607" lon="1.70007">
        <ele>2322.8000488281</ele>
        <time>2023-07-20T12:57:31.000Z</time>
      </trkpt>
      <trkpt lat="42.607" lon="1.7">
        <ele>2322</ele>
        <time>2023-07-20T12:57:42.000Z</time>
      </trkpt>
      <trkpt lat="42.607" lon="1.69999">
        <ele>2321.8000488281</ele>
        <time>2023-07-20T12:57:44.000Z</time>
      </trkpt>
      <trkpt lat="42.60701" lon="1.69998">
        <ele>2320.3999023438</ele>
        <time>2023-07-20T12:57:49.000Z</time>
      </trkpt>
      <trkpt lat="42.60701" lon="1.69997">
        <ele>2319.6000976562</ele>
        <time>2023-07-20T12:57:51.000Z</time>
      </trkpt>
      <trkpt lat="42.60701" lon="1.69995">
        <ele>2319.3999023438</ele>
        <time>2023-07-20T12:57:53.000Z</time>
      </trkpt>
      <trkpt lat="42.60701" lon="1.69992">
        <ele>2318</ele>
        <time>2023-07-20T12:57:57.000Z</time>
      </trkpt>
      <trkpt lat="42.607" lon="1.6999">
        <ele>2318</ele>
        <time>2023-07-20T12:58:00.000Z</time>
      </trkpt>
      <trkpt lat="42.607" lon="1.69986">
        <ele>2317.6000976562</ele>
        <time>2023-07-20T12:58:07.000Z</time>
      </trkpt>
      <trkpt lat="42.607" lon="1.69985">
        <ele>2317</ele>
        <time>2023-07-20T12:58:10.000Z</time>
      </trkpt>
      <trkpt lat="42.60699" lon="1.69985">
        <ele>2316.3999023438</ele>
        <time>2023-07-20T12:58:15.000Z</time>
      </trkpt>
      <trkpt lat="42.60699" lon="1.69985">
        <ele>2315.8000488281</ele>
        <time>2023-07-20T12:58:16.000Z</time>
      </trkpt>
      <trkpt lat="42.607" lon="1.69983">
        <ele>2314.6000976562</ele>
        <time>2023-07-20T12:58:20.000Z</time>
      </trkpt>
      <trkpt lat="42.607" lon="1.69982">
        <ele>2314</ele>
        <time>2023-07-20T12:58:22.000Z</time>
      </trkpt>
      <trkpt lat="42.607" lon="1.69982">
        <ele>2313.6000976562</ele>
        <time>2023-07-20T12:58:26.000Z</time>
      </trkpt>
      <trkpt lat="42.607" lon="1.6998">
        <ele>2313</ele>
        <time>2023-07-20T12:58:28.000Z</time>
      </trkpt>
      <trkpt lat="42.607" lon="1.69979">
        <ele>2312.3999023438</ele>
        <time>2023-07-20T12:58:29.000Z</time>
      </trkpt>
      <trkpt lat="42.60698" lon="1.69976">
        <ele>2312.1999511719</ele>
        <time>2023-07-20T12:58:33.000Z</time>
      </trkpt>
      <trkpt lat="42.60697" lon="1.69969">
        <ele>2311.1999511719</ele>
        <time>2023-07-20T12:58:39.000Z</time>
      </trkpt>
      <trkpt lat="42.60699" lon="1.69966">
        <ele>2310.6000976562</ele>
        <time>2023-07-20T12:58:44.000Z</time>
      </trkpt>
      <trkpt lat="42.607" lon="1.69966">
        <ele>2310.1999511719</ele>
        <time>2023-07-20T12:58:47.000Z</time>
      </trkpt>
      <trkpt lat="42.607" lon="1.69966">
        <ele>2310.1999511719</ele>
        <time>2023-07-20T12:58:48.000Z</time>
      </trkpt>
      <trkpt lat="42.60701" lon="1.69965">
        <ele>2308.8000488281</ele>
        <time>2023-07-20T12:58:50.000Z</time>
      </trkpt>
      <trkpt lat="42.60701" lon="1.69963">
        <ele>2307.6000976562</ele>
        <time>2023-07-20T12:58:52.000Z</time>
      </trkpt>
      <trkpt lat="42.60702" lon="1.69961">
        <ele>2306.6000976562</ele>
        <time>2023-07-20T12:58:55.000Z</time>
      </trkpt>
      <trkpt lat="42.60703" lon="1.69961">
        <ele>2306.3999023438</ele>
        <time>2023-07-20T12:58:56.000Z</time>
      </trkpt>
      <trkpt lat="42.60706" lon="1.69954">
        <ele>2305.8000488281</ele>
        <time>2023-07-20T12:59:04.000Z</time>
      </trkpt>
      <trkpt lat="42.60707" lon="1.69953">
        <ele>2305.3999023438</ele>
        <time>2023-07-20T12:59:05.000Z</time>
      </trkpt>
      <trkpt lat="42.60709" lon="1.69949">
        <ele>2304.1999511719</ele>
        <time>2023-07-20T12:59:09.000Z</time>
      </trkpt>
      <trkpt lat="42.6071" lon="1.69946">
        <ele>2303.8000488281</ele>
        <time>2023-07-20T12:59:12.000Z</time>
      </trkpt>
      <trkpt lat="42.60712" lon="1.69943">
        <ele>2303.1999511719</ele>
        <time>2023-07-20T12:59:17.000Z</time>
      </trkpt>
      <trkpt lat="42.60713" lon="1.69943">
        <ele>2301.8000488281</ele>
        <time>2023-07-20T12:59:20.000Z</time>
      </trkpt>
      <trkpt lat="42.60714" lon="1.69943">
        <ele>2301.8000488281</ele>
        <time>2023-07-20T12:59:21.000Z</time>
      </trkpt>
      <trkpt lat="42.60715" lon="1.69934">
        <ele>2302.1999511719</ele>
        <time>2023-07-20T12:59:28.000Z</time>
      </trkpt>
      <trkpt lat="42.60714" lon="1.69924">
        <ele>2301.6000976562</ele>
        <time>2023-07-20T12:59:35.000Z</time>
      </trkpt>
      <trkpt lat="42.60711" lon="1.69917">
        <ele>2300.6000976562</ele>
        <time>2023-07-20T12:59:42.000Z</time>
      </trkpt>
      <trkpt lat="42.6071" lon="1.69916">
        <ele>2300.3999023438</ele>
        <time>2023-07-20T12:59:44.000Z</time>
      </trkpt>
      <trkpt lat="42.60706" lon="1.69904">
        <ele>2300</ele>
        <time>2023-07-20T12:59:53.000Z</time>
      </trkpt>
      <trkpt lat="42.60706" lon="1.69897">
        <ele>2299.3999023438</ele>
        <time>2023-07-20T13:00:00.000Z</time>
      </trkpt>
      <trkpt lat="42.60704" lon="1.69894">
        <ele>2299.6000976562</ele>
        <time>2023-07-20T13:00:07.000Z</time>
      </trkpt>
      <trkpt lat="42.60702" lon="1.69886">
        <ele>2298.8000488281</ele>
        <time>2023-07-20T13:00:14.000Z</time>
      </trkpt>
      <trkpt lat="42.60701" lon="1.69882">
        <ele>2298.1999511719</ele>
        <time>2023-07-20T13:00:18.000Z</time>
      </trkpt>
      <trkpt lat="42.60702" lon="1.69877">
        <ele>2296.6000976562</ele>
        <time>2023-07-20T13:00:21.000Z</time>
      </trkpt>
      <trkpt lat="42.60702" lon="1.69875">
        <ele>2296.3999023438</ele>
        <time>2023-07-20T13:00:22.000Z</time>
      </trkpt>
      <trkpt lat="42.60703" lon="1.69873">
        <ele>2295.3999023438</ele>
        <time>2023-07-20T13:00:26.000Z</time>
      </trkpt>
      <trkpt lat="42.60702" lon="1.69873">
        <ele>2294.8000488281</ele>
        <time>2023-07-20T13:00:29.000Z</time>
      </trkpt>
      <trkpt lat="42.60701" lon="1.69875">
        <ele>2294.3999023438</ele>
        <time>2023-07-20T13:00:31.000Z</time>
      </trkpt>
      <trkpt lat="42.60699" lon="1.69875">
        <ele>2293.1999511719</ele>
        <time>2023-07-20T13:00:35.000Z</time>
      </trkpt>
      <trkpt lat="42.60698" lon="1.69875">
        <ele>2293.1999511719</ele>
        <time>2023-07-20T13:00:37.000Z</time>
      </trkpt>
      <trkpt lat="42.60697" lon="1.69873">
        <ele>2292.1999511719</ele>
        <time>2023-07-20T13:00:40.000Z</time>
      </trkpt>
      <trkpt lat="42.60695" lon="1.69869">
        <ele>2291.3999023438</ele>
        <time>2023-07-20T13:00:43.000Z</time>
      </trkpt>
      <trkpt lat="42.60694" lon="1.69867">
        <ele>2291.3999023438</ele>
        <time>2023-07-20T13:00:44.000Z</time>
      </trkpt>
      <trkpt lat="42.60693" lon="1.69864">
        <ele>2291.1999511719</ele>
        <time>2023-07-20T13:00:46.000Z</time>
      </trkpt>
      <trkpt lat="42.60691" lon="1.6986">
        <ele>2290.3999023438</ele>
        <time>2023-07-20T13:00:51.000Z</time>
      </trkpt>
      <trkpt lat="42.60691" lon="1.69859">
        <ele>2290.1999511719</ele>
        <time>2023-07-20T13:00:52.000Z</time>
      </trkpt>
      <trkpt lat="42.60691" lon="1.69855">
        <ele>2289</ele>
        <time>2023-07-20T13:00:58.000Z</time>
      </trkpt>
      <trkpt lat="42.60691" lon="1.69853">
        <ele>2288.8000488281</ele>
        <time>2023-07-20T13:00:59.000Z</time>
      </trkpt>
      <trkpt lat="42.60692" lon="1.69847">
        <ele>2287.8000488281</ele>
        <time>2023-07-20T13:01:05.000Z</time>
      </trkpt>
      <trkpt lat="42.60694" lon="1.69847">
        <ele>2287.8000488281</ele>
        <time>2023-07-20T13:01:08.000Z</time>
      </trkpt>
      <trkpt lat="42.60695" lon="1.69846">
        <ele>2287.1999511719</ele>
        <time>2023-07-20T13:01:11.000Z</time>
      </trkpt>
      <trkpt lat="42.60697" lon="1.69842">
        <ele>2286.8000488281</ele>
        <time>2023-07-20T13:01:17.000Z</time>
      </trkpt>
      <trkpt lat="42.60697" lon="1.6984">
        <ele>2286.8000488281</ele>
        <time>2023-07-20T13:01:19.000Z</time>
      </trkpt>
      <trkpt lat="42.60694" lon="1.69835">
        <ele>2285.3999023438</ele>
        <time>2023-07-20T13:01:24.000Z</time>
      </trkpt>
      <trkpt lat="42.60694" lon="1.69836">
        <ele>2284.8000488281</ele>
        <time>2023-07-20T13:01:26.000Z</time>
      </trkpt>
      <trkpt lat="42.60695" lon="1.69833">
        <ele>2284</ele>
        <time>2023-07-20T13:01:29.000Z</time>
      </trkpt>
      <trkpt lat="42.60696" lon="1.69831">
        <ele>2283</ele>
        <time>2023-07-20T13:01:32.000Z</time>
      </trkpt>
      <trkpt lat="42.60696" lon="1.69831">
        <ele>2282.6000976562</ele>
        <time>2023-07-20T13:01:34.000Z</time>
      </trkpt>
      <trkpt lat="42.60696" lon="1.69829">
        <ele>2282.1999511719</ele>
        <time>2023-07-20T13:01:37.000Z</time>
      </trkpt>
      <trkpt lat="42.60695" lon="1.69828">
        <ele>2281.6000976562</ele>
        <time>2023-07-20T13:01:39.000Z</time>
      </trkpt>
      <trkpt lat="42.60695" lon="1.69828">
        <ele>2281.3999023438</ele>
        <time>2023-07-20T13:01:40.000Z</time>
      </trkpt>
      <trkpt lat="42.60693" lon="1.69828">
        <ele>2280.6000976562</ele>
        <time>2023-07-20T13:01:45.000Z</time>
      </trkpt>
      <trkpt lat="42.60693" lon="1.69829">
        <ele>2280</ele>
        <time>2023-07-20T13:01:49.000Z</time>
      </trkpt>
      <trkpt lat="42.60693" lon="1.69827">
        <ele>2279.6000976562</ele>
        <time>2023-07-20T13:01:50.000Z</time>
      </trkpt>
      <trkpt lat="42.60692" lon="1.69821">
        <ele>2278.6000976562</ele>
        <time>2023-07-20T13:01:54.000Z</time>
      </trkpt>
      <trkpt lat="42.60691" lon="1.69819">
        <ele>2278.6000976562</ele>
        <time>2023-07-20T13:01:57.000Z</time>
      </trkpt>
      <trkpt lat="42.6069" lon="1.69816">
        <ele>2278</ele>
        <time>2023-07-20T13:02:04.000Z</time>
      </trkpt>
      <trkpt lat="42.6069" lon="1.69811">
        <ele>2277.3999023438</ele>
        <time>2023-07-20T13:02:07.000Z</time>
      </trkpt>
      <trkpt lat="42.60689" lon="1.6981">
        <ele>2276.1999511719</ele>
        <time>2023-07-20T13:02:09.000Z</time>
      </trkpt>
      <trkpt lat="42.60689" lon="1.6981">
        <ele>2276</ele>
        <time>2023-07-20T13:02:10.000Z</time>
      </trkpt>
      <trkpt lat="42.60687" lon="1.69811">
        <ele>2275.6000976562</ele>
        <time>2023-07-20T13:02:16.000Z</time>
      </trkpt>
      <trkpt lat="42.60686" lon="1.69811">
        <ele>2275.1999511719</ele>
        <time>2023-07-20T13:02:17.000Z</time>
      </trkpt>
      <trkpt lat="42.60686" lon="1.69811">
        <ele>2274.3999023438</ele>
        <time>2023-07-20T13:02:19.000Z</time>
      </trkpt>
      <trkpt lat="42.60686" lon="1.69811">
        <ele>2274.1999511719</ele>
        <time>2023-07-20T13:02:20.000Z</time>
      </trkpt>
      <trkpt lat="42.60684" lon="1.69811">
        <ele>2273.8000488281</ele>
        <time>2023-07-20T13:02:24.000Z</time>
      </trkpt>
      <trkpt lat="42.60685" lon="1.69812">
        <ele>2273.6000976562</ele>
        <time>2023-07-20T13:02:31.000Z</time>
      </trkpt>
      <trkpt lat="42.60687" lon="1.69812">
        <ele>2272.8000488281</ele>
        <time>2023-07-20T13:02:33.000Z</time>
      </trkpt>
      <trkpt lat="42.60688" lon="1.6981">
        <ele>2271.3999023438</ele>
        <time>2023-07-20T13:02:36.000Z</time>
      </trkpt>
      <trkpt lat="42.60686" lon="1.69807">
        <ele>2270.6000976562</ele>
        <time>2023-07-20T13:02:40.000Z</time>
      </trkpt>
      <trkpt lat="42.60686" lon="1.69805">
        <ele>2270.3999023438</ele>
        <time>2023-07-20T13:02:46.000Z</time>
      </trkpt>
      <trkpt lat="42.60687" lon="1.69805">
        <ele>2270</ele>
        <time>2023-07-20T13:02:47.000Z</time>
      </trkpt>
      <trkpt lat="42.60688" lon="1.69804">
        <ele>2269.1999511719</ele>
        <time>2023-07-20T13:02:49.000Z</time>
      </trkpt>
      <trkpt lat="42.60686" lon="1.69801">
        <ele>2267.8000488281</ele>
        <time>2023-07-20T13:02:57.000Z</time>
      </trkpt>
      <trkpt lat="42.60684" lon="1.698">
        <ele>2266.6000976562</ele>
        <time>2023-07-20T13:03:01.000Z</time>
      </trkpt>
      <trkpt lat="42.60684" lon="1.69799">
        <ele>2265.8000488281</ele>
        <time>2023-07-20T13:03:05.000Z</time>
      </trkpt>
      <trkpt lat="42.60684" lon="1.69798">
        <ele>2265.3999023438</ele>
        <time>2023-07-20T13:03:07.000Z</time>
      </trkpt>
      <trkpt lat="42.60685" lon="1.69794">
        <ele>2264.8000488281</ele>
        <time>2023-07-20T13:03:12.000Z</time>
      </trkpt>
      <trkpt lat="42.60685" lon="1.69794">
        <ele>2264.6000976562</ele>
        <time>2023-07-20T13:03:13.000Z</time>
      </trkpt>
      <trkpt lat="42.60685" lon="1.69792">
        <ele>2264.1999511719</ele>
        <time>2023-07-20T13:03:14.000Z</time>
      </trkpt>
      <trkpt lat="42.60686" lon="1.69791">
        <ele>2263</ele>
        <time>2023-07-20T13:03:16.000Z</time>
      </trkpt>
      <trkpt lat="42.60685" lon="1.69788">
        <ele>2263</ele>
        <time>2023-07-20T13:03:19.000Z</time>
      </trkpt>
      <trkpt lat="42.60684" lon="1.69785">
        <ele>2261.8000488281</ele>
        <time>2023-07-20T13:03:25.000Z</time>
      </trkpt>
      <trkpt lat="42.60682" lon="1.69782">
        <ele>2260.6000976562</ele>
        <time>2023-07-20T13:03:28.000Z</time>
      </trkpt>
      <trkpt lat="42.60681" lon="1.69778">
        <ele>2259.8000488281</ele>
        <time>2023-07-20T13:03:36.000Z</time>
      </trkpt>
      <trkpt lat="42.60681" lon="1.69778">
        <ele>2259.6000976562</ele>
        <time>2023-07-20T13:03:37.000Z</time>
      </trkpt>
      <trkpt lat="42.60681" lon="1.69775">
        <ele>2258.1999511719</ele>
        <time>2023-07-20T13:03:42.000Z</time>
      </trkpt>
      <trkpt lat="42.60681" lon="1.69775">
        <ele>2258</ele>
        <time>2023-07-20T13:03:43.000Z</time>
      </trkpt>
      <trkpt lat="42.60679" lon="1.69767">
        <ele>2257.1999511719</ele>
        <time>2023-07-20T13:03:50.000Z</time>
      </trkpt>
      <trkpt lat="42.60678" lon="1.69766">
        <ele>2257</ele>
        <time>2023-07-20T13:03:51.000Z</time>
      </trkpt>
      <trkpt lat="42.60678" lon="1.69761">
        <ele>2255.8000488281</ele>
        <time>2023-07-20T13:03:56.000Z</time>
      </trkpt>
      <trkpt lat="42.60679" lon="1.6976">
        <ele>2255.3999023438</ele>
        <time>2023-07-20T13:03:58.000Z</time>
      </trkpt>
      <trkpt lat="42.60683" lon="1.69755">
        <ele>2254.8000488281</ele>
        <time>2023-07-20T13:04:05.000Z</time>
      </trkpt>
      <trkpt lat="42.60683" lon="1.69755">
        <ele>2254.8000488281</ele>
        <time>2023-07-20T13:04:06.000Z</time>
      </trkpt>
      <trkpt lat="42.60683" lon="1.69755">
        <ele>2253.8000488281</ele>
        <time>2023-07-20T13:04:12.000Z</time>
      </trkpt>
      <trkpt lat="42.60679" lon="1.6975">
        <ele>2254.1999511719</ele>
        <time>2023-07-20T13:04:20.000Z</time>
      </trkpt>
      <trkpt lat="42.6068" lon="1.6975">
        <ele>2253.8000488281</ele>
        <time>2023-07-20T13:04:25.000Z</time>
      </trkpt>
      <trkpt lat="42.6068" lon="1.69746">
        <ele>2254.1999511719</ele>
        <time>2023-07-20T13:04:32.000Z</time>
      </trkpt>
      <trkpt lat="42.6068" lon="1.69741">
        <ele>2253.6000976562</ele>
        <time>2023-07-20T13:04:38.000Z</time>
      </trkpt>
      <trkpt lat="42.60681" lon="1.69739">
        <ele>2253.3999023438</ele>
        <time>2023-07-20T13:04:40.000Z</time>
      </trkpt>
      <trkpt lat="42.60682" lon="1.69738">
        <ele>2252.3999023438</ele>
        <time>2023-07-20T13:04:44.000Z</time>
      </trkpt>
      <trkpt lat="42.60683" lon="1.69736">
        <ele>2251.1999511719</ele>
        <time>2023-07-20T13:04:48.000Z</time>
      </trkpt>
      <trkpt lat="42.60685" lon="1.69735">
        <ele>2250</ele>
        <time>2023-07-20T13:04:51.000Z</time>
      </trkpt>
      <trkpt lat="42.60687" lon="1.69732">
        <ele>2249.8000488281</ele>
        <time>2023-07-20T13:04:56.000Z</time>
      </trkpt>
      <trkpt lat="42.60686" lon="1.69725">
        <ele>2249.1999511719</ele>
        <time>2023-07-20T13:05:04.000Z</time>
      </trkpt>
      <trkpt lat="42.60687" lon="1.69724">
        <ele>2249</ele>
        <time>2023-07-20T13:05:05.000Z</time>
      </trkpt>
      <trkpt lat="42.60687" lon="1.6972">
        <ele>2247.8000488281</ele>
        <time>2023-07-20T13:05:11.000Z</time>
      </trkpt>
      <trkpt lat="42.60687" lon="1.6972">
        <ele>2247.1999511719</ele>
        <time>2023-07-20T13:05:13.000Z</time>
      </trkpt>
      <trkpt lat="42.60686" lon="1.6972">
        <ele>2246.6000976562</ele>
        <time>2023-07-20T13:05:14.000Z</time>
      </trkpt>
      <trkpt lat="42.60685" lon="1.69721">
        <ele>2246</ele>
        <time>2023-07-20T13:05:16.000Z</time>
      </trkpt>
      <trkpt lat="42.60682" lon="1.6972">
        <ele>2246</ele>
        <time>2023-07-20T13:05:20.000Z</time>
      </trkpt>
      <trkpt lat="42.60681" lon="1.6972">
        <ele>2245.8000488281</ele>
        <time>2023-07-20T13:05:21.000Z</time>
      </trkpt>
      <trkpt lat="42.6068" lon="1.69718">
        <ele>2245.3999023438</ele>
        <time>2023-07-20T13:05:24.000Z</time>
      </trkpt>
      <trkpt lat="42.6068" lon="1.69717">
        <ele>2245.3999023438</ele>
        <time>2023-07-20T13:05:27.000Z</time>
      </trkpt>
      <trkpt lat="42.60679" lon="1.69714">
        <ele>2244.1999511719</ele>
        <time>2023-07-20T13:05:34.000Z</time>
      </trkpt>
      <trkpt lat="42.60679" lon="1.69711">
        <ele>2243.3999023438</ele>
        <time>2023-07-20T13:05:37.000Z</time>
      </trkpt>
      <trkpt lat="42.60679" lon="1.6971">
        <ele>2243.1999511719</ele>
        <time>2023-07-20T13:05:38.000Z</time>
      </trkpt>
      <trkpt lat="42.60677" lon="1.69706">
        <ele>2242</ele>
        <time>2023-07-20T13:05:43.000Z</time>
      </trkpt>
      <trkpt lat="42.60676" lon="1.69706">
        <ele>2241.3999023438</ele>
        <time>2023-07-20T13:05:45.000Z</time>
      </trkpt>
      <trkpt lat="42.60675" lon="1.69706">
        <ele>2240.8000488281</ele>
        <time>2023-07-20T13:05:47.000Z</time>
      </trkpt>
      <trkpt lat="42.60674" lon="1.69709">
        <ele>2239.8000488281</ele>
        <time>2023-07-20T13:05:51.000Z</time>
      </trkpt>
      <trkpt lat="42.60675" lon="1.69708">
        <ele>2238.3999023438</ele>
        <time>2023-07-20T13:05:55.000Z</time>
      </trkpt>
      <trkpt lat="42.60675" lon="1.69708">
        <ele>2237.3999023438</ele>
        <time>2023-07-20T13:05:57.000Z</time>
      </trkpt>
      <trkpt lat="42.60675" lon="1.69705">
        <ele>2237.1999511719</ele>
        <time>2023-07-20T13:06:00.000Z</time>
      </trkpt>
      <trkpt lat="42.60674" lon="1.697">
        <ele>2236.3999023438</ele>
        <time>2023-07-20T13:06:06.000Z</time>
      </trkpt>
      <trkpt lat="42.60672" lon="1.69701">
        <ele>2236.3999023438</ele>
        <time>2023-07-20T13:06:12.000Z</time>
      </trkpt>
      <trkpt lat="42.60671" lon="1.697">
        <ele>2236</ele>
        <time>2023-07-20T13:06:14.000Z</time>
      </trkpt>
      <trkpt lat="42.60668" lon="1.69698">
        <ele>2235.1999511719</ele>
        <time>2023-07-20T13:06:19.000Z</time>
      </trkpt>
      <trkpt lat="42.60668" lon="1.69697">
        <ele>2234.8000488281</ele>
        <time>2023-07-20T13:06:21.000Z</time>
      </trkpt>
      <trkpt lat="42.60668" lon="1.69693">
        <ele>2234</ele>
        <time>2023-07-20T13:06:24.000Z</time>
      </trkpt>
      <trkpt lat="42.60668" lon="1.69692">
        <ele>2233.6000976562</ele>
        <time>2023-07-20T13:06:28.000Z</time>
      </trkpt>
      <trkpt lat="42.60667" lon="1.69692">
        <ele>2232.1999511719</ele>
        <time>2023-07-20T13:06:32.000Z</time>
      </trkpt>
      <trkpt lat="42.60668" lon="1.69693">
        <ele>2231.1999511719</ele>
        <time>2023-07-20T13:06:34.000Z</time>
      </trkpt>
      <trkpt lat="42.60668" lon="1.69692">
        <ele>2230.8000488281</ele>
        <time>2023-07-20T13:06:36.000Z</time>
      </trkpt>
      <trkpt lat="42.60668" lon="1.69689">
        <ele>2230</ele>
        <time>2023-07-20T13:06:41.000Z</time>
      </trkpt>
      <trkpt lat="42.60668" lon="1.69689">
        <ele>2230</ele>
        <time>2023-07-20T13:06:42.000Z</time>
      </trkpt>
      <trkpt lat="42.60668" lon="1.69682">
        <ele>2229.3999023438</ele>
        <time>2023-07-20T13:06:49.000Z</time>
      </trkpt>
      <trkpt lat="42.60669" lon="1.69682">
        <ele>2229</ele>
        <time>2023-07-20T13:06:51.000Z</time>
      </trkpt>
      <trkpt lat="42.60669" lon="1.69682">
        <ele>2227.6000976562</ele>
        <time>2023-07-20T13:06:53.000Z</time>
      </trkpt>
      <trkpt lat="42.60668" lon="1.69681">
        <ele>2227.1999511719</ele>
        <time>2023-07-20T13:06:55.000Z</time>
      </trkpt>
      <trkpt lat="42.60668" lon="1.69678">
        <ele>2226.3999023438</ele>
        <time>2023-07-20T13:06:59.000Z</time>
      </trkpt>
      <trkpt lat="42.60667" lon="1.69672">
        <ele>2225.3999023438</ele>
        <time>2023-07-20T13:07:05.000Z</time>
      </trkpt>
      <trkpt lat="42.60665" lon="1.6967">
        <ele>2224.1999511719</ele>
        <time>2023-07-20T13:07:08.000Z</time>
      </trkpt>
      <trkpt lat="42.60664" lon="1.6967">
        <ele>2224</ele>
        <time>2023-07-20T13:07:11.000Z</time>
      </trkpt>
      <trkpt lat="42.60661" lon="1.69667">
        <ele>2223.1999511719</ele>
        <time>2023-07-20T13:07:17.000Z</time>
      </trkpt>
      <trkpt lat="42.6066" lon="1.69665">
        <ele>2223.1999511719</ele>
        <time>2023-07-20T13:07:19.000Z</time>
      </trkpt>
      <trkpt lat="42.60659" lon="1.69661">
        <ele>2223</ele>
        <time>2023-07-20T13:07:25.000Z</time>
      </trkpt>
      <trkpt lat="42.60658" lon="1.69657">
        <ele>2222.1999511719</ele>
        <time>2023-07-20T13:07:32.000Z</time>
      </trkpt>
      <trkpt lat="42.60658" lon="1.69656">
        <ele>2222</ele>
        <time>2023-07-20T13:07:33.000Z</time>
      </trkpt>
      <trkpt lat="42.60655" lon="1.69652">
        <ele>2221</ele>
        <time>2023-07-20T13:07:38.000Z</time>
      </trkpt>
      <trkpt lat="42.60654" lon="1.6965">
        <ele>2221.1999511719</ele>
        <time>2023-07-20T13:07:42.000Z</time>
      </trkpt>
      <trkpt lat="42.60656" lon="1.69643">
        <ele>2219.8000488281</ele>
        <time>2023-07-20T13:07:50.000Z</time>
      </trkpt>
      <trkpt lat="42.60656" lon="1.69641">
        <ele>2219.1999511719</ele>
        <time>2023-07-20T13:07:52.000Z</time>
      </trkpt>
      <trkpt lat="42.60656" lon="1.69638">
        <ele>2218.8000488281</ele>
        <time>2023-07-20T13:07:55.000Z</time>
      </trkpt>
      <trkpt lat="42.60658" lon="1.69631">
        <ele>2217.3999023438</ele>
        <time>2023-07-20T13:08:02.000Z</time>
      </trkpt>
      <trkpt lat="42.60658" lon="1.69635">
        <ele>2216.3999023438</ele>
        <time>2023-07-20T13:08:05.000Z</time>
      </trkpt>
      <trkpt lat="42.60658" lon="1.69635">
        <ele>2216.3999023438</ele>
        <time>2023-07-20T13:08:06.000Z</time>
      </trkpt>
      <trkpt lat="42.60658" lon="1.69634">
        <ele>2216.3999023438</ele>
        <time>2023-07-20T13:08:07.000Z</time>
      </trkpt>
      <trkpt lat="42.60659" lon="1.69633">
        <ele>2216.3999023438</ele>
        <time>2023-07-20T13:08:08.000Z</time>
      </trkpt>
      <trkpt lat="42.6066" lon="1.69625">
        <ele>2216.8000488281</ele>
        <time>2023-07-20T13:08:13.000Z</time>
      </trkpt>
      <trkpt lat="42.6066" lon="1.6962">
        <ele>2217.3999023438</ele>
        <time>2023-07-20T13:08:18.000Z</time>
      </trkpt>
      <trkpt lat="42.6066" lon="1.69617">
        <ele>2217.6000976562</ele>
        <time>2023-07-20T13:08:20.000Z</time>
      </trkpt>
      <trkpt lat="42.60663" lon="1.69608">
        <ele>2218.1999511719</ele>
        <time>2023-07-20T13:08:28.000Z</time>
      </trkpt>
      <trkpt lat="42.60664" lon="1.69603">
        <ele>2218.3999023438</ele>
        <time>2023-07-20T13:08:32.000Z</time>
      </trkpt>
      <trkpt lat="42.60664" lon="1.696">
        <ele>2218.3999023438</ele>
        <time>2023-07-20T13:08:36.000Z</time>
      </trkpt>
      <trkpt lat="42.60664" lon="1.69591">
        <ele>2219</ele>
        <time>2023-07-20T13:08:44.000Z</time>
      </trkpt>
      <trkpt lat="42.60661" lon="1.69581">
        <ele>2219</ele>
        <time>2023-07-20T13:08:52.000Z</time>
      </trkpt>
      <trkpt lat="42.60662" lon="1.69574">
        <ele>2218.1999511719</ele>
        <time>2023-07-20T13:08:59.000Z</time>
      </trkpt>
      <trkpt lat="42.60662" lon="1.69567">
        <ele>2219.6000976562</ele>
        <time>2023-07-20T13:09:08.000Z</time>
      </trkpt>
      <trkpt lat="42.60665" lon="1.69559">
        <ele>2220.1999511719</ele>
        <time>2023-07-20T13:09:17.000Z</time>
      </trkpt>
      <trkpt lat="42.60671" lon="1.69554">
        <ele>2218.1999511719</ele>
        <time>2023-07-20T13:09:24.000Z</time>
      </trkpt>
      <trkpt lat="42.60672" lon="1.69553">
        <ele>2216.8000488281</ele>
        <time>2023-07-20T13:09:28.000Z</time>
      </trkpt>
      <trkpt lat="42.60673" lon="1.69552">
        <ele>2216.8000488281</ele>
        <time>2023-07-20T13:09:31.000Z</time>
      </trkpt>
      <trkpt lat="42.60677" lon="1.69546">
        <ele>2216.3999023438</ele>
        <time>2023-07-20T13:09:39.000Z</time>
      </trkpt>
      <trkpt lat="42.60679" lon="1.69538">
        <ele>2216.1999511719</ele>
        <time>2023-07-20T13:09:46.000Z</time>
      </trkpt>
      <trkpt lat="42.6068" lon="1.69535">
        <ele>2215.8000488281</ele>
        <time>2023-07-20T13:09:49.000Z</time>
      </trkpt>
      <trkpt lat="42.60682" lon="1.69532">
        <ele>2215.6000976562</ele>
        <time>2023-07-20T13:09:54.000Z</time>
      </trkpt>
      <trkpt lat="42.60686" lon="1.69528">
        <ele>2214.8000488281</ele>
        <time>2023-07-20T13:10:02.000Z</time>
      </trkpt>
      <trkpt lat="42.60687" lon="1.69527">
        <ele>2214.3999023438</ele>
        <time>2023-07-20T13:10:03.000Z</time>
      </trkpt>
      <trkpt lat="42.60689" lon="1.69524">
        <ele>2213.6000976562</ele>
        <time>2023-07-20T13:10:07.000Z</time>
      </trkpt>
      <trkpt lat="42.60692" lon="1.69523">
        <ele>2212.3999023438</ele>
        <time>2023-07-20T13:10:12.000Z</time>
      </trkpt>
      <trkpt lat="42.60693" lon="1.69523">
        <ele>2212.1999511719</ele>
        <time>2023-07-20T13:10:13.000Z</time>
      </trkpt>
      <trkpt lat="42.607" lon="1.69525">
        <ele>2211.8000488281</ele>
        <time>2023-07-20T13:10:20.000Z</time>
      </trkpt>
      <trkpt lat="42.60704" lon="1.69525">
        <ele>2211.1999511719</ele>
        <time>2023-07-20T13:10:25.000Z</time>
      </trkpt>
      <trkpt lat="42.60708" lon="1.69523">
        <ele>2211</ele>
        <time>2023-07-20T13:10:29.000Z</time>
      </trkpt>
      <trkpt lat="42.6071" lon="1.69522">
        <ele>2210.1999511719</ele>
        <time>2023-07-20T13:10:32.000Z</time>
      </trkpt>
      <trkpt lat="42.60711" lon="1.69521">
        <ele>2209</ele>
        <time>2023-07-20T13:10:34.000Z</time>
      </trkpt>
      <trkpt lat="42.60713" lon="1.6952">
        <ele>2208.1999511719</ele>
        <time>2023-07-20T13:10:37.000Z</time>
      </trkpt>
      <trkpt lat="42.60714" lon="1.69518">
        <ele>2208</ele>
        <time>2023-07-20T13:10:38.000Z</time>
      </trkpt>
      <trkpt lat="42.60719" lon="1.69513">
        <ele>2207.1999511719</ele>
        <time>2023-07-20T13:10:44.000Z</time>
      </trkpt>
      <trkpt lat="42.60722" lon="1.69513">
        <ele>2207</ele>
        <time>2023-07-20T13:10:52.000Z</time>
      </trkpt>
      <trkpt lat="42.60723" lon="1.69512">
        <ele>2207</ele>
        <time>2023-07-20T13:10:53.000Z</time>
      </trkpt>
      <trkpt lat="42.60726" lon="1.69511">
        <ele>2206</ele>
        <time>2023-07-20T13:10:57.000Z</time>
      </trkpt>
      <trkpt lat="42.60726" lon="1.69511">
        <ele>2205.6000976562</ele>
        <time>2023-07-20T13:11:01.000Z</time>
      </trkpt>
      <trkpt lat="42.60723" lon="1.69506">
        <ele>2206.6000976562</ele>
        <time>2023-07-20T13:11:22.000Z</time>
      </trkpt>
      <trkpt lat="42.60718" lon="1.69502">
        <ele>2206.1999511719</ele>
        <time>2023-07-20T13:11:45.000Z</time>
      </trkpt>
      <trkpt lat="42.60722" lon="1.69506">
        <ele>2205.1999511719</ele>
        <time>2023-07-20T13:11:55.000Z</time>
      </trkpt>
      <trkpt lat="42.60722" lon="1.69506">
        <ele>2204.6000976562</ele>
        <time>2023-07-20T13:12:03.000Z</time>
      </trkpt>
      <trkpt lat="42.60728" lon="1.69511">
        <ele>2203.6000976562</ele>
        <time>2023-07-20T13:12:13.000Z</time>
      </trkpt>
      <trkpt lat="42.60729" lon="1.69511">
        <ele>2203.6000976562</ele>
        <time>2023-07-20T13:12:14.000Z</time>
      </trkpt>
      <trkpt lat="42.60735" lon="1.69516">
        <ele>2202.6000976562</ele>
        <time>2023-07-20T13:12:19.000Z</time>
      </trkpt>
      <trkpt lat="42.60738" lon="1.69517">
        <ele>2202.6000976562</ele>
        <time>2023-07-20T13:12:22.000Z</time>
      </trkpt>
      <trkpt lat="42.60741" lon="1.69511">
        <ele>2202.1999511719</ele>
        <time>2023-07-20T13:12:33.000Z</time>
      </trkpt>
      <trkpt lat="42.60742" lon="1.69507">
        <ele>2201.3999023438</ele>
        <time>2023-07-20T13:12:36.000Z</time>
      </trkpt>
      <trkpt lat="42.60744" lon="1.69504">
        <ele>2200.1999511719</ele>
        <time>2023-07-20T13:12:41.000Z</time>
      </trkpt>
      <trkpt lat="42.60745" lon="1.69504">
        <ele>2200</ele>
        <time>2023-07-20T13:12:42.000Z</time>
      </trkpt>
      <trkpt lat="42.60746" lon="1.69499">
        <ele>2199.1999511719</ele>
        <time>2023-07-20T13:12:48.000Z</time>
      </trkpt>
      <trkpt lat="42.60746" lon="1.69496">
        <ele>2198</ele>
        <time>2023-07-20T13:12:51.000Z</time>
      </trkpt>
      <trkpt lat="42.60746" lon="1.69495">
        <ele>2197.6000976562</ele>
        <time>2023-07-20T13:12:52.000Z</time>
      </trkpt>
      <trkpt lat="42.60746" lon="1.69494">
        <ele>2196.6000976562</ele>
        <time>2023-07-20T13:12:54.000Z</time>
      </trkpt>
      <trkpt lat="42.60746" lon="1.69493">
        <ele>2195.3999023438</ele>
        <time>2023-07-20T13:12:58.000Z</time>
      </trkpt>
      <trkpt lat="42.60746" lon="1.69492">
        <ele>2195</ele>
        <time>2023-07-20T13:13:00.000Z</time>
      </trkpt>
      <trkpt lat="42.60748" lon="1.69492">
        <ele>2194.1999511719</ele>
        <time>2023-07-20T13:13:03.000Z</time>
      </trkpt>
      <trkpt lat="42.60757" lon="1.69502">
        <ele>2192.8000488281</ele>
        <time>2023-07-20T13:13:19.000Z</time>
      </trkpt>
      <trkpt lat="42.6076" lon="1.69497">
        <ele>2189.6000976562</ele>
        <time>2023-07-20T13:13:34.000Z</time>
      </trkpt>
      <trkpt lat="42.6076" lon="1.69495">
        <ele>2188.3999023438</ele>
        <time>2023-07-20T13:13:38.000Z</time>
      </trkpt>
      <trkpt lat="42.60762" lon="1.69493">
        <ele>2187.3999023438</ele>
        <time>2023-07-20T13:13:41.000Z</time>
      </trkpt>
      <trkpt lat="42.60764" lon="1.6949">
        <ele>2186.6000976562</ele>
        <time>2023-07-20T13:13:47.000Z</time>
      </trkpt>
      <trkpt lat="42.60764" lon="1.6949">
        <ele>2186.1999511719</ele>
        <time>2023-07-20T13:13:49.000Z</time>
      </trkpt>
      <trkpt lat="42.60763" lon="1.69488">
        <ele>2185.1999511719</ele>
        <time>2023-07-20T13:13:54.000Z</time>
      </trkpt>
      <trkpt lat="42.60763" lon="1.69488">
        <ele>2185</ele>
        <time>2023-07-20T13:13:55.000Z</time>
      </trkpt>
      <trkpt lat="42.60765" lon="1.69485">
        <ele>2184.1999511719</ele>
        <time>2023-07-20T13:14:01.000Z</time>
      </trkpt>
      <trkpt lat="42.60766" lon="1.69486">
        <ele>2183.6000976562</ele>
        <time>2023-07-20T13:14:03.000Z</time>
      </trkpt>
      <trkpt lat="42.60768" lon="1.69486">
        <ele>2183</ele>
        <time>2023-07-20T13:14:05.000Z</time>
      </trkpt>
      <trkpt lat="42.6077" lon="1.69487">
        <ele>2182</ele>
        <time>2023-07-20T13:14:10.000Z</time>
      </trkpt>
      <trkpt lat="42.60771" lon="1.69487">
        <ele>2181.8000488281</ele>
        <time>2023-07-20T13:14:11.000Z</time>
      </trkpt>
      <trkpt lat="42.60771" lon="1.69485">
        <ele>2180.8000488281</ele>
        <time>2023-07-20T13:14:16.000Z</time>
      </trkpt>
      <trkpt lat="42.6077" lon="1.69484">
        <ele>2179.6000976562</ele>
        <time>2023-07-20T13:14:19.000Z</time>
      </trkpt>
      <trkpt lat="42.6077" lon="1.69479">
        <ele>2178.8000488281</ele>
        <time>2023-07-20T13:14:27.000Z</time>
      </trkpt>
      <trkpt lat="42.6077" lon="1.69478">
        <ele>2178.3999023438</ele>
        <time>2023-07-20T13:14:28.000Z</time>
      </trkpt>
      <trkpt lat="42.60767" lon="1.69476">
        <ele>2177.1999511719</ele>
        <time>2023-07-20T13:14:32.000Z</time>
      </trkpt>
      <trkpt lat="42.60768" lon="1.69478">
        <ele>2177</ele>
        <time>2023-07-20T13:14:34.000Z</time>
      </trkpt>
      <trkpt lat="42.60768" lon="1.69477">
        <ele>2176</ele>
        <time>2023-07-20T13:14:39.000Z</time>
      </trkpt>
      <trkpt lat="42.60768" lon="1.69476">
        <ele>2175.8000488281</ele>
        <time>2023-07-20T13:14:40.000Z</time>
      </trkpt>
      <trkpt lat="42.60769" lon="1.69474">
        <ele>2175.3999023438</ele>
        <time>2023-07-20T13:14:42.000Z</time>
      </trkpt>
      <trkpt lat="42.6077" lon="1.69472">
        <ele>2175</ele>
        <time>2023-07-20T13:14:44.000Z</time>
      </trkpt>
      <trkpt lat="42.60771" lon="1.6947">
        <ele>2174.1999511719</ele>
        <time>2023-07-20T13:14:49.000Z</time>
      </trkpt>
      <trkpt lat="42.6077" lon="1.6947">
        <ele>2174</ele>
        <time>2023-07-20T13:14:51.000Z</time>
      </trkpt>
      <trkpt lat="42.60766" lon="1.6946">
        <ele>2171</ele>
        <time>2023-07-20T13:15:03.000Z</time>
      </trkpt>
      <trkpt lat="42.60772" lon="1.69466">
        <ele>2169.1999511719</ele>
        <time>2023-07-20T13:15:16.000Z</time>
      </trkpt>
      <trkpt lat="42.60773" lon="1.69469">
        <ele>2168.1999511719</ele>
        <time>2023-07-20T13:15:18.000Z</time>
      </trkpt>
      <trkpt lat="42.60773" lon="1.69466">
        <ele>2167.8000488281</ele>
        <time>2023-07-20T13:15:22.000Z</time>
      </trkpt>
      <trkpt lat="42.60775" lon="1.69468">
        <ele>2169.1999511719</ele>
        <time>2023-07-20T13:15:33.000Z</time>
      </trkpt>
      <trkpt lat="42.60775" lon="1.69464">
        <ele>2169.1999511719</ele>
        <time>2023-07-20T13:15:40.000Z</time>
      </trkpt>
      <trkpt lat="42.60781" lon="1.69465">
        <ele>2166.6000976562</ele>
        <time>2023-07-20T13:15:52.000Z</time>
      </trkpt>
      <trkpt lat="42.60782" lon="1.69462">
        <ele>2165.8000488281</ele>
        <time>2023-07-20T13:15:59.000Z</time>
      </trkpt>
      <trkpt lat="42.60785" lon="1.69461">
        <ele>2165.6000976562</ele>
        <time>2023-07-20T13:16:02.000Z</time>
      </trkpt>
      <trkpt lat="42.60787" lon="1.6946">
        <ele>2164.3999023438</ele>
        <time>2023-07-20T13:16:10.000Z</time>
      </trkpt>
      <trkpt lat="42.60789" lon="1.69462">
        <ele>2163.3999023438</ele>
        <time>2023-07-20T13:16:14.000Z</time>
      </trkpt>
      <trkpt lat="42.60793" lon="1.69461">
        <ele>2160.3999023438</ele>
        <time>2023-07-20T13:16:34.000Z</time>
      </trkpt>
      <trkpt lat="42.60795" lon="1.69452">
        <ele>2158</ele>
        <time>2023-07-20T13:16:48.000Z</time>
      </trkpt>
      <trkpt lat="42.60794" lon="1.69447">
        <ele>2156.8000488281</ele>
        <time>2023-07-20T13:16:51.000Z</time>
      </trkpt>
      <trkpt lat="42.60792" lon="1.69443">
        <ele>2156.3999023438</ele>
        <time>2023-07-20T13:16:55.000Z</time>
      </trkpt>
      <trkpt lat="42.60792" lon="1.69441">
        <ele>2155.6000976562</ele>
        <time>2023-07-20T13:16:59.000Z</time>
      </trkpt>
      <trkpt lat="42.60794" lon="1.6944">
        <ele>2155.8000488281</ele>
        <time>2023-07-20T13:17:03.000Z</time>
      </trkpt>
      <trkpt lat="42.60801" lon="1.69441">
        <ele>2155.3999023438</ele>
        <time>2023-07-20T13:17:13.000Z</time>
      </trkpt>
      <trkpt lat="42.60802" lon="1.69439">
        <ele>2154.6000976562</ele>
        <time>2023-07-20T13:17:16.000Z</time>
      </trkpt>
      <trkpt lat="42.60801" lon="1.69437">
        <ele>2153.1999511719</ele>
        <time>2023-07-20T13:17:19.000Z</time>
      </trkpt>
      <trkpt lat="42.60801" lon="1.69434">
        <ele>2153</ele>
        <time>2023-07-20T13:17:22.000Z</time>
      </trkpt>
      <trkpt lat="42.608" lon="1.69433">
        <ele>2152.1999511719</ele>
        <time>2023-07-20T13:17:25.000Z</time>
      </trkpt>
      <trkpt lat="42.60799" lon="1.69433">
        <ele>2151.8000488281</ele>
        <time>2023-07-20T13:17:26.000Z</time>
      </trkpt>
      <trkpt lat="42.60797" lon="1.6943">
        <ele>2151.6000976562</ele>
        <time>2023-07-20T13:17:28.000Z</time>
      </trkpt>
      <trkpt lat="42.60796" lon="1.69429">
        <ele>2151.3999023438</ele>
        <time>2023-07-20T13:17:29.000Z</time>
      </trkpt>
      <trkpt lat="42.60794" lon="1.69425">
        <ele>2151</ele>
        <time>2023-07-20T13:17:32.000Z</time>
      </trkpt>
      <trkpt lat="42.60794" lon="1.69425">
        <ele>2150.6000976562</ele>
        <time>2023-07-20T13:17:34.000Z</time>
      </trkpt>
      <trkpt lat="42.60794" lon="1.69424">
        <ele>2150.1999511719</ele>
        <time>2023-07-20T13:17:36.000Z</time>
      </trkpt>
      <trkpt lat="42.60796" lon="1.69425">
        <ele>2149.8000488281</ele>
        <time>2023-07-20T13:17:38.000Z</time>
      </trkpt>
      <trkpt lat="42.60799" lon="1.69427">
        <ele>2149.1999511719</ele>
        <time>2023-07-20T13:17:44.000Z</time>
      </trkpt>
      <trkpt lat="42.60801" lon="1.69427">
        <ele>2148.8000488281</ele>
        <time>2023-07-20T13:17:47.000Z</time>
      </trkpt>
      <trkpt lat="42.60801" lon="1.69427">
        <ele>2147.6000976562</ele>
        <time>2023-07-20T13:17:50.000Z</time>
      </trkpt>
      <trkpt lat="42.60802" lon="1.69427">
        <ele>2147.1999511719</ele>
        <time>2023-07-20T13:17:52.000Z</time>
      </trkpt>
      <trkpt lat="42.60803" lon="1.69428">
        <ele>2146.6000976562</ele>
        <time>2023-07-20T13:17:55.000Z</time>
      </trkpt>
      <trkpt lat="42.60807" lon="1.69427">
        <ele>2145</ele>
        <time>2023-07-20T13:18:06.000Z</time>
      </trkpt>
      <trkpt lat="42.60808" lon="1.69427">
        <ele>2144.1999511719</ele>
        <time>2023-07-20T13:18:09.000Z</time>
      </trkpt>
      <trkpt lat="42.60809" lon="1.69426">
        <ele>2143.1999511719</ele>
        <time>2023-07-20T13:18:13.000Z</time>
      </trkpt>
      <trkpt lat="42.60809" lon="1.69425">
        <ele>2142.6000976562</ele>
        <time>2023-07-20T13:18:15.000Z</time>
      </trkpt>
      <trkpt lat="42.60832" lon="1.69437">
        <ele>2136.6000976562</ele>
        <time>2023-07-20T13:18:49.000Z</time>
      </trkpt>
      <trkpt lat="42.60831" lon="1.69437">
        <ele>2136.1999511719</ele>
        <time>2023-07-20T13:18:50.000Z</time>
      </trkpt>
      <trkpt lat="42.60833" lon="1.69438">
        <ele>2135.1999511719</ele>
        <time>2023-07-20T13:18:55.000Z</time>
      </trkpt>
      <trkpt lat="42.60833" lon="1.69438">
        <ele>2135</ele>
        <time>2023-07-20T13:18:56.000Z</time>
      </trkpt>
      <trkpt lat="42.60836" lon="1.69435">
        <ele>2132.6000976562</ele>
        <time>2023-07-20T13:19:17.000Z</time>
      </trkpt>
      <trkpt lat="42.60837" lon="1.69435">
        <ele>2131.8000488281</ele>
        <time>2023-07-20T13:19:19.000Z</time>
      </trkpt>
      <trkpt lat="42.60841" lon="1.69437">
        <ele>2130.8000488281</ele>
        <time>2023-07-20T13:19:25.000Z</time>
      </trkpt>
      <trkpt lat="42.60853" lon="1.69436">
        <ele>2127</ele>
        <time>2023-07-20T13:19:51.000Z</time>
      </trkpt>
      <trkpt lat="42.60854" lon="1.69433">
        <ele>2126.3999023438</ele>
        <time>2023-07-20T13:19:54.000Z</time>
      </trkpt>
      <trkpt lat="42.60856" lon="1.69431">
        <ele>2125.8000488281</ele>
        <time>2023-07-20T13:19:56.000Z</time>
      </trkpt>
      <trkpt lat="42.60856" lon="1.69429">
        <ele>2125.1999511719</ele>
        <time>2023-07-20T13:20:00.000Z</time>
      </trkpt>
      <trkpt lat="42.60857" lon="1.69427">
        <ele>2124.8000488281</ele>
        <time>2023-07-20T13:20:02.000Z</time>
      </trkpt>
      <trkpt lat="42.60858" lon="1.69422">
        <ele>2123.8000488281</ele>
        <time>2023-07-20T13:20:08.000Z</time>
      </trkpt>
      <trkpt lat="42.60859" lon="1.69419">
        <ele>2123.3999023438</ele>
        <time>2023-07-20T13:20:10.000Z</time>
      </trkpt>
      <trkpt lat="42.60859" lon="1.69414">
        <ele>2122.8000488281</ele>
        <time>2023-07-20T13:20:17.000Z</time>
      </trkpt>
      <trkpt lat="42.60859" lon="1.69413">
        <ele>2122</ele>
        <time>2023-07-20T13:20:20.000Z</time>
      </trkpt>
      <trkpt lat="42.60853" lon="1.6941">
        <ele>2121.1999511719</ele>
        <time>2023-07-20T13:20:29.000Z</time>
      </trkpt>
      <trkpt lat="42.60853" lon="1.6941">
        <ele>2120.8000488281</ele>
        <time>2023-07-20T13:20:31.000Z</time>
      </trkpt>
      <trkpt lat="42.60853" lon="1.69406">
        <ele>2121</ele>
        <time>2023-07-20T13:20:38.000Z</time>
      </trkpt>
      <trkpt lat="42.60853" lon="1.694">
        <ele>2122</ele>
        <time>2023-07-20T13:20:44.000Z</time>
      </trkpt>
      <trkpt lat="42.60853" lon="1.69397">
        <ele>2122.1999511719</ele>
        <time>2023-07-20T13:20:47.000Z</time>
      </trkpt>
      <trkpt lat="42.60852" lon="1.69403">
        <ele>2121</ele>
        <time>2023-07-20T13:20:54.000Z</time>
      </trkpt>
      <trkpt lat="42.60853" lon="1.69404">
        <ele>2119.3999023438</ele>
        <time>2023-07-20T13:20:58.000Z</time>
      </trkpt>
      <trkpt lat="42.60853" lon="1.694">
        <ele>2118.6000976562</ele>
        <time>2023-07-20T13:21:01.000Z</time>
      </trkpt>
      <trkpt lat="42.60857" lon="1.69399">
        <ele>2118.3999023438</ele>
        <time>2023-07-20T13:21:08.000Z</time>
      </trkpt>
      <trkpt lat="42.60858" lon="1.69399">
        <ele>2118.3999023438</ele>
        <time>2023-07-20T13:21:09.000Z</time>
      </trkpt>
      <trkpt lat="42.60861" lon="1.69402">
        <ele>2117.8000488281</ele>
        <time>2023-07-20T13:21:16.000Z</time>
      </trkpt>
      <trkpt lat="42.60862" lon="1.69403">
        <ele>2117.1999511719</ele>
        <time>2023-07-20T13:21:19.000Z</time>
      </trkpt>
      <trkpt lat="42.60864" lon="1.69402">
        <ele>2116.3999023438</ele>
        <time>2023-07-20T13:21:26.000Z</time>
      </trkpt>
      <trkpt lat="42.60865" lon="1.69402">
        <ele>2116</ele>
        <time>2023-07-20T13:21:28.000Z</time>
      </trkpt>
      <trkpt lat="42.60866" lon="1.694">
        <ele>2115.1999511719</ele>
        <time>2023-07-20T13:21:34.000Z</time>
      </trkpt>
      <trkpt lat="42.60867" lon="1.694">
        <ele>2115</ele>
        <time>2023-07-20T13:21:35.000Z</time>
      </trkpt>
      <trkpt lat="42.60868" lon="1.69399">
        <ele>2113.3999023438</ele>
        <time>2023-07-20T13:21:38.000Z</time>
      </trkpt>
      <trkpt lat="42.6087" lon="1.69394">
        <ele>2113.3999023438</ele>
        <time>2023-07-20T13:21:43.000Z</time>
      </trkpt>
      <trkpt lat="42.60872" lon="1.6939">
        <ele>2112.1999511719</ele>
        <time>2023-07-20T13:21:49.000Z</time>
      </trkpt>
      <trkpt lat="42.60872" lon="1.6939">
        <ele>2111.6000976562</ele>
        <time>2023-07-20T13:21:50.000Z</time>
      </trkpt>
      <trkpt lat="42.6087" lon="1.69385">
        <ele>2111.1999511719</ele>
        <time>2023-07-20T13:21:57.000Z</time>
      </trkpt>
      <trkpt lat="42.6087" lon="1.69384">
        <ele>2111</ele>
        <time>2023-07-20T13:21:58.000Z</time>
      </trkpt>
      <trkpt lat="42.6087" lon="1.69381">
        <ele>2110</ele>
        <time>2023-07-20T13:22:01.000Z</time>
      </trkpt>
      <trkpt lat="42.6087" lon="1.69381">
        <ele>2109.6000976562</ele>
        <time>2023-07-20T13:22:05.000Z</time>
      </trkpt>
      <trkpt lat="42.60868" lon="1.69378">
        <ele>2108.6000976562</ele>
        <time>2023-07-20T13:22:10.000Z</time>
      </trkpt>
      <trkpt lat="42.60869" lon="1.69376">
        <ele>2107.6000976562</ele>
        <time>2023-07-20T13:22:13.000Z</time>
      </trkpt>
      <trkpt lat="42.60869" lon="1.69376">
        <ele>2106.6000976562</ele>
        <time>2023-07-20T13:22:18.000Z</time>
      </trkpt>
      <trkpt lat="42.60872" lon="1.69376">
        <ele>2106.1999511719</ele>
        <time>2023-07-20T13:22:22.000Z</time>
      </trkpt>
      <trkpt lat="42.60878" lon="1.69382">
        <ele>2105.8000488281</ele>
        <time>2023-07-20T13:22:30.000Z</time>
      </trkpt>
      <trkpt lat="42.60878" lon="1.69382">
        <ele>2105.3999023438</ele>
        <time>2023-07-20T13:22:32.000Z</time>
      </trkpt>
      <trkpt lat="42.60878" lon="1.69377">
        <ele>2104.3999023438</ele>
        <time>2023-07-20T13:22:38.000Z</time>
      </trkpt>
      <trkpt lat="42.60878" lon="1.69376">
        <ele>2104.3999023438</ele>
        <time>2023-07-20T13:22:40.000Z</time>
      </trkpt>
      <trkpt lat="42.60879" lon="1.69374">
        <ele>2104</ele>
        <time>2023-07-20T13:22:45.000Z</time>
      </trkpt>
      <trkpt lat="42.60879" lon="1.69375">
        <ele>2103.1999511719</ele>
        <time>2023-07-20T13:22:50.000Z</time>
      </trkpt>
      <trkpt lat="42.60882" lon="1.69374">
        <ele>2102.1999511719</ele>
        <time>2023-07-20T13:22:55.000Z</time>
      </trkpt>
      <trkpt lat="42.60882" lon="1.69374">
        <ele>2102.1999511719</ele>
        <time>2023-07-20T13:22:56.000Z</time>
      </trkpt>
      <trkpt lat="42.60884" lon="1.69375">
        <ele>2101</ele>
        <time>2023-07-20T13:23:01.000Z</time>
      </trkpt>
      <trkpt lat="42.60884" lon="1.69375">
        <ele>2101</ele>
        <time>2023-07-20T13:23:06.000Z</time>
      </trkpt>
      <trkpt lat="42.60885" lon="1.69374">
        <ele>2100.8000488281</ele>
        <time>2023-07-20T13:23:10.000Z</time>
      </trkpt>
      <trkpt lat="42.60885" lon="1.69369">
        <ele>2100</ele>
        <time>2023-07-20T13:23:16.000Z</time>
      </trkpt>
      <trkpt lat="42.60885" lon="1.69368">
        <ele>2100</ele>
        <time>2023-07-20T13:23:17.000Z</time>
      </trkpt>
      <trkpt lat="42.60885" lon="1.69365">
        <ele>2099.8000488281</ele>
        <time>2023-07-20T13:23:22.000Z</time>
      </trkpt>
      <trkpt lat="42.60886" lon="1.69366">
        <ele>2099</ele>
        <time>2023-07-20T13:23:29.000Z</time>
      </trkpt>
      <trkpt lat="42.60886" lon="1.69366">
        <ele>2098.8000488281</ele>
        <time>2023-07-20T13:23:30.000Z</time>
      </trkpt>
      <trkpt lat="42.60885" lon="1.69363">
        <ele>2097.3999023438</ele>
        <time>2023-07-20T13:23:37.000Z</time>
      </trkpt>
      <trkpt lat="42.60885" lon="1.69361">
        <ele>2096.8000488281</ele>
        <time>2023-07-20T13:23:38.000Z</time>
      </trkpt>
      <trkpt lat="42.60882" lon="1.69356">
        <ele>2096.1999511719</ele>
        <time>2023-07-20T13:23:43.000Z</time>
      </trkpt>
      <trkpt lat="42.60884" lon="1.69357">
        <ele>2095.3999023438</ele>
        <time>2023-07-20T13:23:47.000Z</time>
      </trkpt>
      <trkpt lat="42.60884" lon="1.69357">
        <ele>2095</ele>
        <time>2023-07-20T13:23:49.000Z</time>
      </trkpt>
      <trkpt lat="42.60889" lon="1.6936">
        <ele>2094.3999023438</ele>
        <time>2023-07-20T13:23:55.000Z</time>
      </trkpt>
      <trkpt lat="42.60892" lon="1.6936">
        <ele>2094</ele>
        <time>2023-07-20T13:23:58.000Z</time>
      </trkpt>
      <trkpt lat="42.60893" lon="1.69361">
        <ele>2093.3999023438</ele>
        <time>2023-07-20T13:24:00.000Z</time>
      </trkpt>
      <trkpt lat="42.60895" lon="1.69361">
        <ele>2092.8000488281</ele>
        <time>2023-07-20T13:24:03.000Z</time>
      </trkpt>
      <trkpt lat="42.60899" lon="1.6936">
        <ele>2092.1999511719</ele>
        <time>2023-07-20T13:24:09.000Z</time>
      </trkpt>
      <trkpt lat="42.609" lon="1.69358">
        <ele>2091.8000488281</ele>
        <time>2023-07-20T13:24:13.000Z</time>
      </trkpt>
      <trkpt lat="42.60907" lon="1.69361">
        <ele>2089.1999511719</ele>
        <time>2023-07-20T13:24:25.000Z</time>
      </trkpt>
      <trkpt lat="42.60907" lon="1.69361">
        <ele>2089.1999511719</ele>
        <time>2023-07-20T13:24:26.000Z</time>
      </trkpt>
      <trkpt lat="42.60908" lon="1.69363">
        <ele>2088.1999511719</ele>
        <time>2023-07-20T13:24:34.000Z</time>
      </trkpt>
      <trkpt lat="42.60908" lon="1.69361">
        <ele>2087.8000488281</ele>
        <time>2023-07-20T13:24:36.000Z</time>
      </trkpt>
      <trkpt lat="42.60906" lon="1.69353">
        <ele>2087.3999023438</ele>
        <time>2023-07-20T13:24:42.000Z</time>
      </trkpt>
      <trkpt lat="42.60906" lon="1.69353">
        <ele>2087.1999511719</ele>
        <time>2023-07-20T13:24:44.000Z</time>
      </trkpt>
      <trkpt lat="42.60907" lon="1.69351">
        <ele>2085.8000488281</ele>
        <time>2023-07-20T13:24:49.000Z</time>
      </trkpt>
      <trkpt lat="42.60906" lon="1.6935">
        <ele>2084.8000488281</ele>
        <time>2023-07-20T13:24:53.000Z</time>
      </trkpt>
      <trkpt lat="42.60906" lon="1.6935">
        <ele>2084.6000976562</ele>
        <time>2023-07-20T13:24:54.000Z</time>
      </trkpt>
      <trkpt lat="42.6091" lon="1.69348">
        <ele>2083</ele>
        <time>2023-07-20T13:25:13.000Z</time>
      </trkpt>
      <trkpt lat="42.60912" lon="1.69348">
        <ele>2082.3999023438</ele>
        <time>2023-07-20T13:25:38.000Z</time>
      </trkpt>
      <trkpt lat="42.60914" lon="1.69351">
        <ele>2081.1999511719</ele>
        <time>2023-07-20T13:25:42.000Z</time>
      </trkpt>
      <trkpt lat="42.60917" lon="1.69355">
        <ele>2080.1999511719</ele>
        <time>2023-07-20T13:25:46.000Z</time>
      </trkpt>
      <trkpt lat="42.6092" lon="1.69355">
        <ele>2080.1999511719</ele>
        <time>2023-07-20T13:25:51.000Z</time>
      </trkpt>
      <trkpt lat="42.60918" lon="1.69347">
        <ele>2079.1999511719</ele>
        <time>2023-07-20T13:25:58.000Z</time>
      </trkpt>
      <trkpt lat="42.60918" lon="1.69347">
        <ele>2079.1999511719</ele>
        <time>2023-07-20T13:25:59.000Z</time>
      </trkpt>
      <trkpt lat="42.60915" lon="1.69341">
        <ele>2077.8000488281</ele>
        <time>2023-07-20T13:26:06.000Z</time>
      </trkpt>
      <trkpt lat="42.6092" lon="1.69343">
        <ele>2076.8000488281</ele>
        <time>2023-07-20T13:26:12.000Z</time>
      </trkpt>
      <trkpt lat="42.60921" lon="1.69343">
        <ele>2076.6000976562</ele>
        <time>2023-07-20T13:26:13.000Z</time>
      </trkpt>
      <trkpt lat="42.60928" lon="1.69345">
        <ele>2075.8000488281</ele>
        <time>2023-07-20T13:26:20.000Z</time>
      </trkpt>
      <trkpt lat="42.60931" lon="1.69343">
        <ele>2075</ele>
        <time>2023-07-20T13:26:27.000Z</time>
      </trkpt>
      <trkpt lat="42.60931" lon="1.69342">
        <ele>2074.6000976562</ele>
        <time>2023-07-20T13:26:28.000Z</time>
      </trkpt>
      <trkpt lat="42.60932" lon="1.69338">
        <ele>2073.3999023438</ele>
        <time>2023-07-20T13:26:33.000Z</time>
      </trkpt>
      <trkpt lat="42.60931" lon="1.69337">
        <ele>2073.3999023438</ele>
        <time>2023-07-20T13:26:34.000Z</time>
      </trkpt>
      <trkpt lat="42.60929" lon="1.69331">
        <ele>2072.6000976562</ele>
        <time>2023-07-20T13:26:43.000Z</time>
      </trkpt>
      <trkpt lat="42.60928" lon="1.69332">
        <ele>2072.3999023438</ele>
        <time>2023-07-20T13:26:45.000Z</time>
      </trkpt>
      <trkpt lat="42.60929" lon="1.69332">
        <ele>2071.3999023438</ele>
        <time>2023-07-20T13:26:51.000Z</time>
      </trkpt>
      <trkpt lat="42.6093" lon="1.69332">
        <ele>2070.3999023438</ele>
        <time>2023-07-20T13:26:52.000Z</time>
      </trkpt>
      <trkpt lat="42.60932" lon="1.69331">
        <ele>2069.3999023438</ele>
        <time>2023-07-20T13:26:56.000Z</time>
      </trkpt>
      <trkpt lat="42.60934" lon="1.6933">
        <ele>2069.3999023438</ele>
        <time>2023-07-20T13:26:59.000Z</time>
      </trkpt>
      <trkpt lat="42.60937" lon="1.6933">
        <ele>2068.3999023438</ele>
        <time>2023-07-20T13:27:04.000Z</time>
      </trkpt>
      <trkpt lat="42.60939" lon="1.6933">
        <ele>2068</ele>
        <time>2023-07-20T13:27:07.000Z</time>
      </trkpt>
      <trkpt lat="42.60943" lon="1.6933">
        <ele>2067.1999511719</ele>
        <time>2023-07-20T13:27:13.000Z</time>
      </trkpt>
      <trkpt lat="42.60944" lon="1.6933">
        <ele>2066.6000976562</ele>
        <time>2023-07-20T13:27:16.000Z</time>
      </trkpt>
      <trkpt lat="42.60946" lon="1.6933">
        <ele>2066</ele>
        <time>2023-07-20T13:27:18.000Z</time>
      </trkpt>
      <trkpt lat="42.6095" lon="1.69328">
        <ele>2065.3999023438</ele>
        <time>2023-07-20T13:27:22.000Z</time>
      </trkpt>
      <trkpt lat="42.60951" lon="1.69329">
        <ele>2065.1999511719</ele>
        <time>2023-07-20T13:27:30.000Z</time>
      </trkpt>
      <trkpt lat="42.60951" lon="1.6933">
        <ele>2064.8000488281</ele>
        <time>2023-07-20T13:27:33.000Z</time>
      </trkpt>
      <trkpt lat="42.60952" lon="1.6933">
        <ele>2064.3999023438</ele>
        <time>2023-07-20T13:27:37.000Z</time>
      </trkpt>
      <trkpt lat="42.60952" lon="1.69329">
        <ele>2063.8000488281</ele>
        <time>2023-07-20T13:27:40.000Z</time>
      </trkpt>
      <trkpt lat="42.60954" lon="1.69327">
        <ele>2062.8000488281</ele>
        <time>2023-07-20T13:27:44.000Z</time>
      </trkpt>
      <trkpt lat="42.60956" lon="1.69326">
        <ele>2062.3999023438</ele>
        <time>2023-07-20T13:27:46.000Z</time>
      </trkpt>
      <trkpt lat="42.60958" lon="1.69326">
        <ele>2061.6000976562</ele>
        <time>2023-07-20T13:27:49.000Z</time>
      </trkpt>
      <trkpt lat="42.60962" lon="1.69325">
        <ele>2061.1999511719</ele>
        <time>2023-07-20T13:27:53.000Z</time>
      </trkpt>
      <trkpt lat="42.60962" lon="1.69326">
        <ele>2060.6000976562</ele>
        <time>2023-07-20T13:27:55.000Z</time>
      </trkpt>
      <trkpt lat="42.60965" lon="1.69325">
        <ele>2059.3999023438</ele>
        <time>2023-07-20T13:28:01.000Z</time>
      </trkpt>
      <trkpt lat="42.60966" lon="1.69323">
        <ele>2058.1999511719</ele>
        <time>2023-07-20T13:28:06.000Z</time>
      </trkpt>
      <trkpt lat="42.60966" lon="1.69321">
        <ele>2057.3999023438</ele>
        <time>2023-07-20T13:28:08.000Z</time>
      </trkpt>
      <trkpt lat="42.60961" lon="1.69315">
        <ele>2057.6000976562</ele>
        <time>2023-07-20T13:28:15.000Z</time>
      </trkpt>
      <trkpt lat="42.60961" lon="1.69314">
        <ele>2057.1999511719</ele>
        <time>2023-07-20T13:28:17.000Z</time>
      </trkpt>
      <trkpt lat="42.6096" lon="1.69312">
        <ele>2056.6000976562</ele>
        <time>2023-07-20T13:28:22.000Z</time>
      </trkpt>
      <trkpt lat="42.6096" lon="1.69311">
        <ele>2056</ele>
        <time>2023-07-20T13:28:24.000Z</time>
      </trkpt>
      <trkpt lat="42.60963" lon="1.6931">
        <ele>2055.1999511719</ele>
        <time>2023-07-20T13:28:30.000Z</time>
      </trkpt>
      <trkpt lat="42.60963" lon="1.69307">
        <ele>2054.8000488281</ele>
        <time>2023-07-20T13:28:33.000Z</time>
      </trkpt>
      <trkpt lat="42.60963" lon="1.69304">
        <ele>2054.1999511719</ele>
        <time>2023-07-20T13:28:36.000Z</time>
      </trkpt>
      <trkpt lat="42.60963" lon="1.69302">
        <ele>2053.8000488281</ele>
        <time>2023-07-20T13:28:38.000Z</time>
      </trkpt>
      <trkpt lat="42.60961" lon="1.69297">
        <ele>2052.8000488281</ele>
        <time>2023-07-20T13:28:43.000Z</time>
      </trkpt>
      <trkpt lat="42.60961" lon="1.69298">
        <ele>2052.3999023438</ele>
        <time>2023-07-20T13:28:44.000Z</time>
      </trkpt>
      <trkpt lat="42.6096" lon="1.69297">
        <ele>2051.6000976562</ele>
        <time>2023-07-20T13:28:48.000Z</time>
      </trkpt>
      <trkpt lat="42.60961" lon="1.69297">
        <ele>2051</ele>
        <time>2023-07-20T13:28:52.000Z</time>
      </trkpt>
      <trkpt lat="42.60961" lon="1.69296">
        <ele>2050.6000976562</ele>
        <time>2023-07-20T13:28:53.000Z</time>
      </trkpt>
      <trkpt lat="42.60964" lon="1.69294">
        <ele>2049.3999023438</ele>
        <time>2023-07-20T13:28:59.000Z</time>
      </trkpt>
      <trkpt lat="42.60964" lon="1.69293">
        <ele>2049.1999511719</ele>
        <time>2023-07-20T13:29:00.000Z</time>
      </trkpt>
      <trkpt lat="42.60967" lon="1.69294">
        <ele>2048.3999023438</ele>
        <time>2023-07-20T13:29:04.000Z</time>
      </trkpt>
      <trkpt lat="42.60969" lon="1.69295">
        <ele>2047.5999755859</ele>
        <time>2023-07-20T13:29:08.000Z</time>
      </trkpt>
      <trkpt lat="42.60968" lon="1.69293">
        <ele>2047.1999511719</ele>
        <time>2023-07-20T13:29:09.000Z</time>
      </trkpt>
      <trkpt lat="42.60968" lon="1.69292">
        <ele>2047.1999511719</ele>
        <time>2023-07-20T13:29:10.000Z</time>
      </trkpt>
      <trkpt lat="42.60968" lon="1.69288">
        <ele>2046.5999755859</ele>
        <time>2023-07-20T13:29:14.000Z</time>
      </trkpt>
      <trkpt lat="42.60968" lon="1.69287">
        <ele>2046</ele>
        <time>2023-07-20T13:29:16.000Z</time>
      </trkpt>
      <trkpt lat="42.60966" lon="1.69285">
        <ele>2045</ele>
        <time>2023-07-20T13:29:21.000Z</time>
      </trkpt>
      <trkpt lat="42.60967" lon="1.69283">
        <ele>2044</ele>
        <time>2023-07-20T13:29:27.000Z</time>
      </trkpt>
      <trkpt lat="42.60968" lon="1.69283">
        <ele>2043.8000488281</ele>
        <time>2023-07-20T13:29:28.000Z</time>
      </trkpt>
      <trkpt lat="42.60973" lon="1.69283">
        <ele>2042.8000488281</ele>
        <time>2023-07-20T13:29:35.000Z</time>
      </trkpt>
      <trkpt lat="42.60974" lon="1.69283">
        <ele>2042.4000244141</ele>
        <time>2023-07-20T13:29:36.000Z</time>
      </trkpt>
      <trkpt lat="42.60974" lon="1.69284">
        <ele>2041.5999755859</ele>
        <time>2023-07-20T13:29:38.000Z</time>
      </trkpt>
      <trkpt lat="42.60977" lon="1.69285">
        <ele>2040.4000244141</ele>
        <time>2023-07-20T13:29:43.000Z</time>
      </trkpt>
      <trkpt lat="42.60978" lon="1.69285">
        <ele>2040.4000244141</ele>
        <time>2023-07-20T13:29:44.000Z</time>
      </trkpt>
      <trkpt lat="42.6098" lon="1.69283">
        <ele>2039.1999511719</ele>
        <time>2023-07-20T13:29:48.000Z</time>
      </trkpt>
      <trkpt lat="42.60981" lon="1.6928">
        <ele>2038.5999755859</ele>
        <time>2023-07-20T13:29:51.000Z</time>
      </trkpt>
      <trkpt lat="42.60983" lon="1.69278">
        <ele>2038</ele>
        <time>2023-07-20T13:29:55.000Z</time>
      </trkpt>
      <trkpt lat="42.60986" lon="1.69276">
        <ele>2037</ele>
        <time>2023-07-20T13:29:59.000Z</time>
      </trkpt>
      <trkpt lat="42.60987" lon="1.69275">
        <ele>2036.8000488281</ele>
        <time>2023-07-20T13:30:01.000Z</time>
      </trkpt>
      <trkpt lat="42.60989" lon="1.69275">
        <ele>2035.8000488281</ele>
        <time>2023-07-20T13:30:04.000Z</time>
      </trkpt>
      <trkpt lat="42.60992" lon="1.69274">
        <ele>2034.5999755859</ele>
        <time>2023-07-20T13:30:09.000Z</time>
      </trkpt>
      <trkpt lat="42.60994" lon="1.69274">
        <ele>2033.5999755859</ele>
        <time>2023-07-20T13:30:13.000Z</time>
      </trkpt>
      <trkpt lat="42.60994" lon="1.69272">
        <ele>2033</ele>
        <time>2023-07-20T13:30:16.000Z</time>
      </trkpt>
      <trkpt lat="42.60994" lon="1.69272">
        <ele>2032.8000488281</ele>
        <time>2023-07-20T13:30:17.000Z</time>
      </trkpt>
      <trkpt lat="42.60996" lon="1.6927">
        <ele>2032.4000244141</ele>
        <time>2023-07-20T13:30:21.000Z</time>
      </trkpt>
      <trkpt lat="42.60997" lon="1.6927">
        <ele>2031.4000244141</ele>
        <time>2023-07-20T13:30:24.000Z</time>
      </trkpt>
      <trkpt lat="42.60998" lon="1.6927">
        <ele>2031</ele>
        <time>2023-07-20T13:30:25.000Z</time>
      </trkpt>
      <trkpt lat="42.60997" lon="1.69268">
        <ele>2030.1999511719</ele>
        <time>2023-07-20T13:30:31.000Z</time>
      </trkpt>
      <trkpt lat="42.60998" lon="1.69269">
        <ele>2029.8000488281</ele>
        <time>2023-07-20T13:30:32.000Z</time>
      </trkpt>
      <trkpt lat="42.60999" lon="1.69269">
        <ele>2029.8000488281</ele>
        <time>2023-07-20T13:30:40.000Z</time>
      </trkpt>
      <trkpt lat="42.61" lon="1.69273">
        <ele>2030.4000244141</ele>
        <time>2023-07-20T13:30:46.000Z</time>
      </trkpt>
      <trkpt lat="42.61" lon="1.69269">
        <ele>2029.5999755859</ele>
        <time>2023-07-20T13:30:54.000Z</time>
      </trkpt>
      <trkpt lat="42.61001" lon="1.69264">
        <ele>2029</ele>
        <time>2023-07-20T13:30:59.000Z</time>
      </trkpt>
      <trkpt lat="42.61001" lon="1.69264">
        <ele>2028</ele>
        <time>2023-07-20T13:31:03.000Z</time>
      </trkpt>
      <trkpt lat="42.61" lon="1.69267">
        <ele>2028</ele>
        <time>2023-07-20T13:31:06.000Z</time>
      </trkpt>
      <trkpt lat="42.61" lon="1.69268">
        <ele>2028</ele>
        <time>2023-07-20T13:31:07.000Z</time>
      </trkpt>
      <trkpt lat="42.61004" lon="1.69269">
        <ele>2027.8000488281</ele>
        <time>2023-07-20T13:31:12.000Z</time>
      </trkpt>
      <trkpt lat="42.61009" lon="1.69269">
        <ele>2027</ele>
        <time>2023-07-20T13:31:17.000Z</time>
      </trkpt>
      <trkpt lat="42.61012" lon="1.69268">
        <ele>2026.8000488281</ele>
        <time>2023-07-20T13:31:19.000Z</time>
      </trkpt>
      <trkpt lat="42.61015" lon="1.69265">
        <ele>2026</ele>
        <time>2023-07-20T13:31:25.000Z</time>
      </trkpt>
      <trkpt lat="42.61016" lon="1.69266">
        <ele>2025.8000488281</ele>
        <time>2023-07-20T13:31:26.000Z</time>
      </trkpt>
      <trkpt lat="42.61018" lon="1.69264">
        <ele>2024.8000488281</ele>
        <time>2023-07-20T13:31:31.000Z</time>
      </trkpt>
      <trkpt lat="42.61018" lon="1.69264">
        <ele>2024.4000244141</ele>
        <time>2023-07-20T13:31:32.000Z</time>
      </trkpt>
      <trkpt lat="42.6102" lon="1.69262">
        <ele>2023.5999755859</ele>
        <time>2023-07-20T13:31:36.000Z</time>
      </trkpt>
      <trkpt lat="42.61021" lon="1.69263">
        <ele>2023</ele>
        <time>2023-07-20T13:31:40.000Z</time>
      </trkpt>
      <trkpt lat="42.61023" lon="1.69267">
        <ele>2022.4000244141</ele>
        <time>2023-07-20T13:31:44.000Z</time>
      </trkpt>
      <trkpt lat="42.61027" lon="1.6927">
        <ele>2021.5999755859</ele>
        <time>2023-07-20T13:31:47.000Z</time>
      </trkpt>
      <trkpt lat="42.6103" lon="1.69272">
        <ele>2021.1999511719</ele>
        <time>2023-07-20T13:31:49.000Z</time>
      </trkpt>
      <trkpt lat="42.61034" lon="1.69274">
        <ele>2020.5999755859</ele>
        <time>2023-07-20T13:31:55.000Z</time>
      </trkpt>
      <trkpt lat="42.6104" lon="1.69269">
        <ele>2020.4000244141</ele>
        <time>2023-07-20T13:32:03.000Z</time>
      </trkpt>
      <trkpt lat="42.61041" lon="1.69268">
        <ele>2020.1999511719</ele>
        <time>2023-07-20T13:32:04.000Z</time>
      </trkpt>
      <trkpt lat="42.61043" lon="1.69265">
        <ele>2020</ele>
        <time>2023-07-20T13:32:09.000Z</time>
      </trkpt>
      <trkpt lat="42.61041" lon="1.69266">
        <ele>2020</ele>
        <time>2023-07-20T13:32:15.000Z</time>
      </trkpt>
      <trkpt lat="42.61041" lon="1.69264">
        <ele>2020</ele>
        <time>2023-07-20T13:32:17.000Z</time>
      </trkpt>
      <trkpt lat="42.61043" lon="1.69262">
        <ele>2019.8000488281</ele>
        <time>2023-07-20T13:32:21.000Z</time>
      </trkpt>
      <trkpt lat="42.61047" lon="1.69262">
        <ele>2019.8000488281</ele>
        <time>2023-07-20T13:32:27.000Z</time>
      </trkpt>
      <trkpt lat="42.61043" lon="1.69262">
        <ele>2019.8000488281</ele>
        <time>2023-07-20T13:32:35.000Z</time>
      </trkpt>
      <trkpt lat="42.61043" lon="1.69262">
        <ele>2019.8000488281</ele>
        <time>2023-07-20T13:32:43.000Z</time>
      </trkpt>
      <trkpt lat="42.61045" lon="1.69267">
        <ele>2019.1999511719</ele>
        <time>2023-07-20T13:32:50.000Z</time>
      </trkpt>
      <trkpt lat="42.61045" lon="1.69267">
        <ele>2019</ele>
        <time>2023-07-20T13:32:51.000Z</time>
      </trkpt>
      <trkpt lat="42.61044" lon="1.6926">
        <ele>2019</ele>
        <time>2023-07-20T13:32:59.000Z</time>
      </trkpt>
      <trkpt lat="42.61042" lon="1.69259">
        <ele>2019</ele>
        <time>2023-07-20T13:33:06.000Z</time>
      </trkpt>
      <trkpt lat="42.61046" lon="1.69263">
        <ele>2019.1999511719</ele>
        <time>2023-07-20T13:33:13.000Z</time>
      </trkpt>
      <trkpt lat="42.61045" lon="1.69265">
        <ele>2019.4000244141</ele>
        <time>2023-07-20T13:33:18.000Z</time>
      </trkpt>
      <trkpt lat="42.61044" lon="1.69264">
        <ele>2019</ele>
        <time>2023-07-20T13:33:28.000Z</time>
      </trkpt>
      <trkpt lat="42.61044" lon="1.69263">
        <ele>2019.4000244141</ele>
        <time>2023-07-20T13:33:40.000Z</time>
      </trkpt>
      <trkpt lat="42.61044" lon="1.69262">
        <ele>2019.4000244141</ele>
        <time>2023-07-20T13:33:49.000Z</time>
      </trkpt>
      <trkpt lat="42.61045" lon="1.69262">
        <ele>2019.4000244141</ele>
        <time>2023-07-20T13:33:58.000Z</time>
      </trkpt>
      <trkpt lat="42.61045" lon="1.69266">
        <ele>2019</ele>
        <time>2023-07-20T13:34:05.000Z</time>
      </trkpt>
      <trkpt lat="42.61043" lon="1.69263">
        <ele>2019.5999755859</ele>
        <time>2023-07-20T13:34:12.000Z</time>
      </trkpt>
      <trkpt lat="42.6104" lon="1.6926">
        <ele>2019</ele>
        <time>2023-07-20T13:34:21.000Z</time>
      </trkpt>
      <trkpt lat="42.61043" lon="1.69265">
        <ele>2019</ele>
        <time>2023-07-20T13:34:29.000Z</time>
      </trkpt>
      <trkpt lat="42.61043" lon="1.69268">
        <ele>2019.4000244141</ele>
        <time>2023-07-20T13:34:36.000Z</time>
      </trkpt>
      <trkpt lat="42.61042" lon="1.69263">
        <ele>2020</ele>
        <time>2023-07-20T13:34:44.000Z</time>
      </trkpt>
      <trkpt lat="42.61042" lon="1.69265">
        <ele>2019.4000244141</ele>
        <time>2023-07-20T13:34:53.000Z</time>
      </trkpt>
      <trkpt lat="42.61043" lon="1.69266">
        <ele>2019.5999755859</ele>
        <time>2023-07-20T13:35:00.000Z</time>
      </trkpt>
      <trkpt lat="42.6104" lon="1.6926">
        <ele>2020.1999511719</ele>
        <time>2023-07-20T13:35:10.000Z</time>
      </trkpt>
      <trkpt lat="42.61039" lon="1.69259">
        <ele>2020</ele>
        <time>2023-07-20T13:35:11.000Z</time>
      </trkpt>
      <trkpt lat="42.61039" lon="1.69257">
        <ele>2020.1999511719</ele>
        <time>2023-07-20T13:35:16.000Z</time>
      </trkpt>
      <trkpt lat="42.61038" lon="1.69256">
        <ele>2020.5999755859</ele>
        <time>2023-07-20T13:35:20.000Z</time>
      </trkpt>
      <trkpt lat="42.61038" lon="1.69255">
        <ele>2020</ele>
        <time>2023-07-20T13:35:29.000Z</time>
      </trkpt>
      <trkpt lat="42.61043" lon="1.69258">
        <ele>2020.4000244141</ele>
        <time>2023-07-20T13:35:40.000Z</time>
      </trkpt>
      <trkpt lat="42.61042" lon="1.69258">
        <ele>2019.8000488281</ele>
        <time>2023-07-20T13:35:49.000Z</time>
      </trkpt>
      <trkpt lat="42.61041" lon="1.69259">
        <ele>2020</ele>
        <time>2023-07-20T13:35:56.000Z</time>
      </trkpt>
      <trkpt lat="42.61044" lon="1.69259">
        <ele>2020.1999511719</ele>
        <time>2023-07-20T13:36:06.000Z</time>
      </trkpt>
      <trkpt lat="42.61043" lon="1.6926">
        <ele>2019.8000488281</ele>
        <time>2023-07-20T13:36:14.000Z</time>
      </trkpt>
      <trkpt lat="42.61044" lon="1.69262">
        <ele>2020.1999511719</ele>
        <time>2023-07-20T13:36:22.000Z</time>
      </trkpt>
      <trkpt lat="42.61044" lon="1.69263">
        <ele>2020.1999511719</ele>
        <time>2023-07-20T13:36:33.000Z</time>
      </trkpt>
      <trkpt lat="42.61044" lon="1.69271">
        <ele>2019.8000488281</ele>
        <time>2023-07-20T13:36:42.000Z</time>
      </trkpt>
      <trkpt lat="42.61045" lon="1.69268">
        <ele>2019.4000244141</ele>
        <time>2023-07-20T13:36:55.000Z</time>
      </trkpt>
      <trkpt lat="42.61044" lon="1.69265">
        <ele>2019.4000244141</ele>
        <time>2023-07-20T13:37:01.000Z</time>
      </trkpt>
      <trkpt lat="42.61044" lon="1.6926">
        <ele>2020</ele>
        <time>2023-07-20T13:37:07.000Z</time>
      </trkpt>
      <trkpt lat="42.61042" lon="1.6926">
        <ele>2020.4000244141</ele>
        <time>2023-07-20T13:37:11.000Z</time>
      </trkpt>
      <trkpt lat="42.61043" lon="1.69262">
        <ele>2020.1999511719</ele>
        <time>2023-07-20T13:37:15.000Z</time>
      </trkpt>
      <trkpt lat="42.61045" lon="1.69261">
        <ele>2020</ele>
        <time>2023-07-20T13:37:21.000Z</time>
      </trkpt>
      <trkpt lat="42.6105" lon="1.69261">
        <ele>2019.5999755859</ele>
        <time>2023-07-20T13:37:29.000Z</time>
      </trkpt>
      <trkpt lat="42.61053" lon="1.69264">
        <ele>2020.1999511719</ele>
        <time>2023-07-20T13:37:35.000Z</time>
      </trkpt>
      <trkpt lat="42.6106" lon="1.69268">
        <ele>2019.5999755859</ele>
        <time>2023-07-20T13:37:42.000Z</time>
      </trkpt>
      <trkpt lat="42.61066" lon="1.69272">
        <ele>2019.1999511719</ele>
        <time>2023-07-20T13:37:50.000Z</time>
      </trkpt>
      <trkpt lat="42.61073" lon="1.69272">
        <ele>2018</ele>
        <time>2023-07-20T13:37:57.000Z</time>
      </trkpt>
      <trkpt lat="42.61074" lon="1.69271">
        <ele>2018</ele>
        <time>2023-07-20T13:37:58.000Z</time>
      </trkpt>
      <trkpt lat="42.61073" lon="1.69268">
        <ele>2018</ele>
        <time>2023-07-20T13:38:00.000Z</time>
      </trkpt>
      <trkpt lat="42.61072" lon="1.69265">
        <ele>2018</ele>
        <time>2023-07-20T13:38:02.000Z</time>
      </trkpt>
      <trkpt lat="42.61071" lon="1.69262">
        <ele>2017.4000244141</ele>
        <time>2023-07-20T13:38:09.000Z</time>
      </trkpt>
      <trkpt lat="42.61071" lon="1.6926">
        <ele>2017.5999755859</ele>
        <time>2023-07-20T13:38:13.000Z</time>
      </trkpt>
      <trkpt lat="42.61072" lon="1.69262">
        <ele>2017.4000244141</ele>
        <time>2023-07-20T13:38:18.000Z</time>
      </trkpt>
      <trkpt lat="42.61073" lon="1.6926">
        <ele>2017.8000488281</ele>
        <time>2023-07-20T13:38:26.000Z</time>
      </trkpt>
      <trkpt lat="42.61072" lon="1.69261">
        <ele>2017.5999755859</ele>
        <time>2023-07-20T13:38:35.000Z</time>
      </trkpt>
      <trkpt lat="42.61069" lon="1.69262">
        <ele>2018.4000244141</ele>
        <time>2023-07-20T13:38:41.000Z</time>
      </trkpt>
      <trkpt lat="42.61067" lon="1.69259">
        <ele>2018</ele>
        <time>2023-07-20T13:38:49.000Z</time>
      </trkpt>
      <trkpt lat="42.61071" lon="1.69262">
        <ele>2018.1999511719</ele>
        <time>2023-07-20T13:38:55.000Z</time>
      </trkpt>
      <trkpt lat="42.61073" lon="1.69262">
        <ele>2018.8000488281</ele>
        <time>2023-07-20T13:39:01.000Z</time>
      </trkpt>
      <trkpt lat="42.61073" lon="1.69263">
        <ele>2018.5999755859</ele>
        <time>2023-07-20T13:39:08.000Z</time>
      </trkpt>
      <trkpt lat="42.61073" lon="1.69263">
        <ele>2018.5999755859</ele>
        <time>2023-07-20T13:39:15.000Z</time>
      </trkpt>
      <trkpt lat="42.61074" lon="1.69264">
        <ele>2019.1999511719</ele>
        <time>2023-07-20T13:39:22.000Z</time>
      </trkpt>
      <trkpt lat="42.61075" lon="1.69264">
        <ele>2019.4000244141</ele>
        <time>2023-07-20T13:39:25.000Z</time>
      </trkpt>
      <trkpt lat="42.61078" lon="1.69265">
        <ele>2019.4000244141</ele>
        <time>2023-07-20T13:39:32.000Z</time>
      </trkpt>
      <trkpt lat="42.61077" lon="1.69261">
        <ele>2019.1999511719</ele>
        <time>2023-07-20T13:39:40.000Z</time>
      </trkpt>
      <trkpt lat="42.61077" lon="1.6926">
        <ele>2019.1999511719</ele>
        <time>2023-07-20T13:39:48.000Z</time>
      </trkpt>
      <trkpt lat="42.61077" lon="1.69263">
        <ele>2019.8000488281</ele>
        <time>2023-07-20T13:39:55.000Z</time>
      </trkpt>
      <trkpt lat="42.61077" lon="1.69262">
        <ele>2019.4000244141</ele>
        <time>2023-07-20T13:40:03.000Z</time>
      </trkpt>
      <trkpt lat="42.61075" lon="1.69265">
        <ele>2019.1999511719</ele>
        <time>2023-07-20T13:40:11.000Z</time>
      </trkpt>
      <trkpt lat="42.61074" lon="1.69264">
        <ele>2019.1999511719</ele>
        <time>2023-07-20T13:40:19.000Z</time>
      </trkpt>
      <trkpt lat="42.61073" lon="1.69261">
        <ele>2019</ele>
        <time>2023-07-20T13:40:27.000Z</time>
      </trkpt>
      <trkpt lat="42.61076" lon="1.69264">
        <ele>2019.1999511719</ele>
        <time>2023-07-20T13:40:37.000Z</time>
      </trkpt>
      <trkpt lat="42.61075" lon="1.69262">
        <ele>2019.5999755859</ele>
        <time>2023-07-20T13:40:45.000Z</time>
      </trkpt>
      <trkpt lat="42.61074" lon="1.69263">
        <ele>2020.1999511719</ele>
        <time>2023-07-20T13:40:52.000Z</time>
      </trkpt>
      <trkpt lat="42.61074" lon="1.69263">
        <ele>2020.8000488281</ele>
        <time>2023-07-20T13:40:53.000Z</time>
      </trkpt>
      <trkpt lat="42.61071" lon="1.69263">
        <ele>2019.8000488281</ele>
        <time>2023-07-20T13:41:02.000Z</time>
      </trkpt>
      <trkpt lat="42.61071" lon="1.69262">
        <ele>2020.1999511719</ele>
        <time>2023-07-20T13:41:10.000Z</time>
      </trkpt>
      <trkpt lat="42.61073" lon="1.69264">
        <ele>2020</ele>
        <time>2023-07-20T13:41:17.000Z</time>
      </trkpt>
      <trkpt lat="42.61073" lon="1.69261">
        <ele>2019.8000488281</ele>
        <time>2023-07-20T13:41:25.000Z</time>
      </trkpt>
      <trkpt lat="42.61071" lon="1.69261">
        <ele>2019.5999755859</ele>
        <time>2023-07-20T13:41:32.000Z</time>
      </trkpt>
      <trkpt lat="42.61071" lon="1.69261">
        <ele>2019.5999755859</ele>
        <time>2023-07-20T13:41:34.000Z</time>
      </trkpt>
      <trkpt lat="42.61068" lon="1.6926">
        <ele>2020</ele>
        <time>2023-07-20T13:41:40.000Z</time>
      </trkpt>
      <trkpt lat="42.61073" lon="1.69255">
        <ele>2020</ele>
        <time>2023-07-20T13:41:49.000Z</time>
      </trkpt>
      <trkpt lat="42.61075" lon="1.6926">
        <ele>2020.1999511719</ele>
        <time>2023-07-20T13:41:56.000Z</time>
      </trkpt>
      <trkpt lat="42.61075" lon="1.69263">
        <ele>2020</ele>
        <time>2023-07-20T13:42:00.000Z</time>
      </trkpt>
      <trkpt lat="42.61074" lon="1.69265">
        <ele>2020</ele>
        <time>2023-07-20T13:42:03.000Z</time>
      </trkpt>
      <trkpt lat="42.61072" lon="1.69266">
        <ele>2019.8000488281</ele>
        <time>2023-07-20T13:42:10.000Z</time>
      </trkpt>
      <trkpt lat="42.61072" lon="1.69263">
        <ele>2019.4000244141</ele>
        <time>2023-07-20T13:42:17.000Z</time>
      </trkpt>
      <trkpt lat="42.61074" lon="1.69258">
        <ele>2018.5999755859</ele>
        <time>2023-07-20T13:42:21.000Z</time>
      </trkpt>
      <trkpt lat="42.61074" lon="1.69259">
        <ele>2018.1999511719</ele>
        <time>2023-07-20T13:42:24.000Z</time>
      </trkpt>
      <trkpt lat="42.61075" lon="1.69261">
        <ele>2019.4000244141</ele>
        <time>2023-07-20T13:42:29.000Z</time>
      </trkpt>
      <trkpt lat="42.61077" lon="1.69255">
        <ele>2019.1999511719</ele>
        <time>2023-07-20T13:42:35.000Z</time>
      </trkpt>
      <trkpt lat="42.61078" lon="1.69247">
        <ele>2019</ele>
        <time>2023-07-20T13:42:42.000Z</time>
      </trkpt>
      <trkpt lat="42.61081" lon="1.69241">
        <ele>2019.4000244141</ele>
        <time>2023-07-20T13:42:48.000Z</time>
      </trkpt>
      <trkpt lat="42.61086" lon="1.69237">
        <ele>2019.5999755859</ele>
        <time>2023-07-20T13:42:56.000Z</time>
      </trkpt>
      <trkpt lat="42.6109" lon="1.69227">
        <ele>2019.5999755859</ele>
        <time>2023-07-20T13:43:03.000Z</time>
      </trkpt>
      <trkpt lat="42.61093" lon="1.69222">
        <ele>2019.4000244141</ele>
        <time>2023-07-20T13:43:09.000Z</time>
      </trkpt>
      <trkpt lat="42.61092" lon="1.69222">
        <ele>2019.5999755859</ele>
        <time>2023-07-20T13:43:14.000Z</time>
      </trkpt>
      <trkpt lat="42.61093" lon="1.69222">
        <ele>2019.8000488281</ele>
        <time>2023-07-20T13:43:16.000Z</time>
      </trkpt>
      <trkpt lat="42.61095" lon="1.69218">
        <ele>2019.8000488281</ele>
        <time>2023-07-20T13:43:26.000Z</time>
      </trkpt>
      <trkpt lat="42.61092" lon="1.6922">
        <ele>2019.1999511719</ele>
        <time>2023-07-20T13:43:36.000Z</time>
      </trkpt>
      <trkpt lat="42.61092" lon="1.69219">
        <ele>2019.4000244141</ele>
        <time>2023-07-20T13:43:43.000Z</time>
      </trkpt>
      <trkpt lat="42.61089" lon="1.69215">
        <ele>2020</ele>
        <time>2023-07-20T13:43:50.000Z</time>
      </trkpt>
      <trkpt lat="42.61086" lon="1.69212">
        <ele>2020.5999755859</ele>
        <time>2023-07-20T13:43:54.000Z</time>
      </trkpt>
      <trkpt lat="42.61084" lon="1.69211">
        <ele>2021</ele>
        <time>2023-07-20T13:43:57.000Z</time>
      </trkpt>
      <trkpt lat="42.61081" lon="1.69209">
        <ele>2021.8000488281</ele>
        <time>2023-07-20T13:44:03.000Z</time>
      </trkpt>
      <trkpt lat="42.6108" lon="1.69209">
        <ele>2022</ele>
        <time>2023-07-20T13:44:04.000Z</time>
      </trkpt>
      <trkpt lat="42.61074" lon="1.69205">
        <ele>2022.4000244141</ele>
        <time>2023-07-20T13:44:11.000Z</time>
      </trkpt>
      <trkpt lat="42.61073" lon="1.69203">
        <ele>2022.8000488281</ele>
        <time>2023-07-20T13:44:14.000Z</time>
      </trkpt>
      <trkpt lat="42.61073" lon="1.69202">
        <ele>2023.1999511719</ele>
        <time>2023-07-20T13:44:18.000Z</time>
      </trkpt>
      <trkpt lat="42.61077" lon="1.692">
        <ele>2023.4000244141</ele>
        <time>2023-07-20T13:44:24.000Z</time>
      </trkpt>
      <trkpt lat="42.61079" lon="1.69199">
        <ele>2023.8000488281</ele>
        <time>2023-07-20T13:44:27.000Z</time>
      </trkpt>
      <trkpt lat="42.6108" lon="1.69199">
        <ele>2023.8000488281</ele>
        <time>2023-07-20T13:44:28.000Z</time>
      </trkpt>
      <trkpt lat="42.61083" lon="1.69198">
        <ele>2024</ele>
        <time>2023-07-20T13:44:34.000Z</time>
      </trkpt>
      <trkpt lat="42.61092" lon="1.69195">
        <ele>2024.4000244141</ele>
        <time>2023-07-20T13:44:43.000Z</time>
      </trkpt>
      <trkpt lat="42.61094" lon="1.69192">
        <ele>2024.8000488281</ele>
        <time>2023-07-20T13:44:46.000Z</time>
      </trkpt>
      <trkpt lat="42.61098" lon="1.69185">
        <ele>2025.4000244141</ele>
        <time>2023-07-20T13:44:52.000Z</time>
      </trkpt>
      <trkpt lat="42.61097" lon="1.6918">
        <ele>2026</ele>
        <time>2023-07-20T13:44:59.000Z</time>
      </trkpt>
      <trkpt lat="42.61097" lon="1.69178">
        <ele>2026</ele>
        <time>2023-07-20T13:45:01.000Z</time>
      </trkpt>
      <trkpt lat="42.61097" lon="1.69175">
        <ele>2027.1999511719</ele>
        <time>2023-07-20T13:45:05.000Z</time>
      </trkpt>
      <trkpt lat="42.61097" lon="1.69174">
        <ele>2027.5999755859</ele>
        <time>2023-07-20T13:45:08.000Z</time>
      </trkpt>
      <trkpt lat="42.61096" lon="1.69169">
        <ele>2028</ele>
        <time>2023-07-20T13:45:17.000Z</time>
      </trkpt>
      <trkpt lat="42.61096" lon="1.69166">
        <ele>2028.4000244141</ele>
        <time>2023-07-20T13:45:19.000Z</time>
      </trkpt>
      <trkpt lat="42.61096" lon="1.69163">
        <ele>2029.5999755859</ele>
        <time>2023-07-20T13:45:26.000Z</time>
      </trkpt>
      <trkpt lat="42.61097" lon="1.69163">
        <ele>2029.5999755859</ele>
        <time>2023-07-20T13:45:27.000Z</time>
      </trkpt>
      <trkpt lat="42.611" lon="1.69162">
        <ele>2030.5999755859</ele>
        <time>2023-07-20T13:45:37.000Z</time>
      </trkpt>
      <trkpt lat="42.61102" lon="1.69157">
        <ele>2031.5999755859</ele>
        <time>2023-07-20T13:45:43.000Z</time>
      </trkpt>
      <trkpt lat="42.61102" lon="1.69156">
        <ele>2032.1999511719</ele>
        <time>2023-07-20T13:45:45.000Z</time>
      </trkpt>
      <trkpt lat="42.61103" lon="1.69152">
        <ele>2032.5999755859</ele>
        <time>2023-07-20T13:45:52.000Z</time>
      </trkpt>
      <trkpt lat="42.61102" lon="1.69149">
        <ele>2033.5999755859</ele>
        <time>2023-07-20T13:45:58.000Z</time>
      </trkpt>
      <trkpt lat="42.61102" lon="1.6914">
        <ele>2034.5999755859</ele>
        <time>2023-07-20T13:46:08.000Z</time>
      </trkpt>
      <trkpt lat="42.61102" lon="1.69139">
        <ele>2035</ele>
        <time>2023-07-20T13:46:09.000Z</time>
      </trkpt>
      <trkpt lat="42.61101" lon="1.69136">
        <ele>2035.5999755859</ele>
        <time>2023-07-20T13:46:15.000Z</time>
      </trkpt>
      <trkpt lat="42.611" lon="1.69133">
        <ele>2035.1999511719</ele>
        <time>2023-07-20T13:46:24.000Z</time>
      </trkpt>
      <trkpt lat="42.61099" lon="1.69129">
        <ele>2035.8000488281</ele>
        <time>2023-07-20T13:46:31.000Z</time>
      </trkpt>
      <trkpt lat="42.61098" lon="1.69126">
        <ele>2036</ele>
        <time>2023-07-20T13:46:34.000Z</time>
      </trkpt>
      <trkpt lat="42.61097" lon="1.69123">
        <ele>2036.1999511719</ele>
        <time>2023-07-20T13:46:37.000Z</time>
      </trkpt>
      <trkpt lat="42.61096" lon="1.69119">
        <ele>2037</ele>
        <time>2023-07-20T13:46:42.000Z</time>
      </trkpt>
      <trkpt lat="42.61095" lon="1.69118">
        <ele>2037.1999511719</ele>
        <time>2023-07-20T13:46:43.000Z</time>
      </trkpt>
      <trkpt lat="42.61095" lon="1.69114">
        <ele>2037.4000244141</ele>
        <time>2023-07-20T13:46:49.000Z</time>
      </trkpt>
      <trkpt lat="42.61095" lon="1.69114">
        <ele>2037.4000244141</ele>
        <time>2023-07-20T13:46:56.000Z</time>
      </trkpt>
      <trkpt lat="42.61093" lon="1.69117">
        <ele>2037.1999511719</ele>
        <time>2023-07-20T13:47:04.000Z</time>
      </trkpt>
      <trkpt lat="42.6109" lon="1.69108">
        <ele>2037.4000244141</ele>
        <time>2023-07-20T13:47:13.000Z</time>
      </trkpt>
      <trkpt lat="42.61085" lon="1.69103">
        <ele>2037.5999755859</ele>
        <time>2023-07-20T13:47:21.000Z</time>
      </trkpt>
      <trkpt lat="42.61085" lon="1.691">
        <ele>2038.1999511719</ele>
        <time>2023-07-20T13:47:24.000Z</time>
      </trkpt>
      <trkpt lat="42.61083" lon="1.69096">
        <ele>2038.8000488281</ele>
        <time>2023-07-20T13:47:29.000Z</time>
      </trkpt>
      <trkpt lat="42.61081" lon="1.6909">
        <ele>2039</ele>
        <time>2023-07-20T13:47:35.000Z</time>
      </trkpt>
      <trkpt lat="42.61076" lon="1.69084">
        <ele>2039</ele>
        <time>2023-07-20T13:47:42.000Z</time>
      </trkpt>
      <trkpt lat="42.61071" lon="1.6908">
        <ele>2038.8000488281</ele>
        <time>2023-07-20T13:47:49.000Z</time>
      </trkpt>
      <trkpt lat="42.61068" lon="1.69076">
        <ele>2039.1999511719</ele>
        <time>2023-07-20T13:47:54.000Z</time>
      </trkpt>
      <trkpt lat="42.61066" lon="1.69075">
        <ele>2039.5999755859</ele>
        <time>2023-07-20T13:47:56.000Z</time>
      </trkpt>
      <trkpt lat="42.61062" lon="1.69069">
        <ele>2039.5999755859</ele>
        <time>2023-07-20T13:48:04.000Z</time>
      </trkpt>
      <trkpt lat="42.6106" lon="1.69066">
        <ele>2040.1999511719</ele>
        <time>2023-07-20T13:48:12.000Z</time>
      </trkpt>
      <trkpt lat="42.61059" lon="1.69065">
        <ele>2040.1999511719</ele>
        <time>2023-07-20T13:48:13.000Z</time>
      </trkpt>
      <trkpt lat="42.61054" lon="1.6906">
        <ele>2041.1999511719</ele>
        <time>2023-07-20T13:48:22.000Z</time>
      </trkpt>
      <trkpt lat="42.61053" lon="1.69059">
        <ele>2041.4000244141</ele>
        <time>2023-07-20T13:48:24.000Z</time>
      </trkpt>
      <trkpt lat="42.61053" lon="1.69056">
        <ele>2042.1999511719</ele>
        <time>2023-07-20T13:48:30.000Z</time>
      </trkpt>
      <trkpt lat="42.61052" lon="1.69056">
        <ele>2042.5999755859</ele>
        <time>2023-07-20T13:48:31.000Z</time>
      </trkpt>
      <trkpt lat="42.61049" lon="1.6905">
        <ele>2043</ele>
        <time>2023-07-20T13:48:37.000Z</time>
      </trkpt>
      <trkpt lat="42.61047" lon="1.69048">
        <ele>2043.5999755859</ele>
        <time>2023-07-20T13:48:41.000Z</time>
      </trkpt>
      <trkpt lat="42.61044" lon="1.69045">
        <ele>2044.4000244141</ele>
        <time>2023-07-20T13:48:46.000Z</time>
      </trkpt>
      <trkpt lat="42.61041" lon="1.69044">
        <ele>2044.8000488281</ele>
        <time>2023-07-20T13:48:51.000Z</time>
      </trkpt>
      <trkpt lat="42.6104" lon="1.69043">
        <ele>2045.4000244141</ele>
        <time>2023-07-20T13:48:53.000Z</time>
      </trkpt>
      <trkpt lat="42.61039" lon="1.6904">
        <ele>2045.5999755859</ele>
        <time>2023-07-20T13:49:00.000Z</time>
      </trkpt>
      <trkpt lat="42.61039" lon="1.69039">
        <ele>2045.8000488281</ele>
        <time>2023-07-20T13:49:01.000Z</time>
      </trkpt>
      <trkpt lat="42.61036" lon="1.69036">
        <ele>2046.4000244141</ele>
        <time>2023-07-20T13:49:09.000Z</time>
      </trkpt>
      <trkpt lat="42.61034" lon="1.69034">
        <ele>2046.8000488281</ele>
        <time>2023-07-20T13:49:12.000Z</time>
      </trkpt>
      <trkpt lat="42.6103" lon="1.69029">
        <ele>2047.1999511719</ele>
        <time>2023-07-20T13:49:18.000Z</time>
      </trkpt>
      <trkpt lat="42.61024" lon="1.69021">
        <ele>2047.8000488281</ele>
        <time>2023-07-20T13:49:27.000Z</time>
      </trkpt>
      <trkpt lat="42.6102" lon="1.69013">
        <ele>2048</ele>
        <time>2023-07-20T13:49:35.000Z</time>
      </trkpt>
      <trkpt lat="42.61015" lon="1.69008">
        <ele>2048</ele>
        <time>2023-07-20T13:49:42.000Z</time>
      </trkpt>
      <trkpt lat="42.6101" lon="1.69002">
        <ele>2048</ele>
        <time>2023-07-20T13:49:51.000Z</time>
      </trkpt>
      <trkpt lat="42.61004" lon="1.68998">
        <ele>2048.1999511719</ele>
        <time>2023-07-20T13:49:58.000Z</time>
      </trkpt>
      <trkpt lat="42.60999" lon="1.68988">
        <ele>2047.4000244141</ele>
        <time>2023-07-20T13:50:06.000Z</time>
      </trkpt>
      <trkpt lat="42.60998" lon="1.68986">
        <ele>2046.8000488281</ele>
        <time>2023-07-20T13:50:08.000Z</time>
      </trkpt>
      <trkpt lat="42.60996" lon="1.68978">
        <ele>2047.5999755859</ele>
        <time>2023-07-20T13:50:14.000Z</time>
      </trkpt>
      <trkpt lat="42.60996" lon="1.68977">
        <ele>2048</ele>
        <time>2023-07-20T13:50:15.000Z</time>
      </trkpt>
      <trkpt lat="42.60993" lon="1.68973">
        <ele>2048.1999511719</ele>
        <time>2023-07-20T13:50:21.000Z</time>
      </trkpt>
      <trkpt lat="42.60987" lon="1.68967">
        <ele>2048</ele>
        <time>2023-07-20T13:50:29.000Z</time>
      </trkpt>
      <trkpt lat="42.60984" lon="1.68966">
        <ele>2048.1999511719</ele>
        <time>2023-07-20T13:50:36.000Z</time>
      </trkpt>
      <trkpt lat="42.60978" lon="1.68967">
        <ele>2049</ele>
        <time>2023-07-20T13:50:42.000Z</time>
      </trkpt>
      <trkpt lat="42.60976" lon="1.68968">
        <ele>2049</ele>
        <time>2023-07-20T13:50:44.000Z</time>
      </trkpt>
      <trkpt lat="42.60972" lon="1.68964">
        <ele>2049.1999511719</ele>
        <time>2023-07-20T13:50:52.000Z</time>
      </trkpt>
      <trkpt lat="42.6097" lon="1.68962">
        <ele>2050.1999511719</ele>
        <time>2023-07-20T13:50:57.000Z</time>
      </trkpt>
      <trkpt lat="42.60968" lon="1.68961">
        <ele>2050.1999511719</ele>
        <time>2023-07-20T13:50:59.000Z</time>
      </trkpt>
      <trkpt lat="42.60962" lon="1.68957">
        <ele>2050.6000976562</ele>
        <time>2023-07-20T13:51:08.000Z</time>
      </trkpt>
      <trkpt lat="42.60957" lon="1.68952">
        <ele>2051.1999511719</ele>
        <time>2023-07-20T13:51:15.000Z</time>
      </trkpt>
      <trkpt lat="42.60956" lon="1.6895">
        <ele>2051.6000976562</ele>
        <time>2023-07-20T13:51:17.000Z</time>
      </trkpt>
      <trkpt lat="42.60953" lon="1.68947">
        <ele>2051.6000976562</ele>
        <time>2023-07-20T13:51:23.000Z</time>
      </trkpt>
      <trkpt lat="42.60951" lon="1.68941">
        <ele>2052</ele>
        <time>2023-07-20T13:51:32.000Z</time>
      </trkpt>
      <trkpt lat="42.60951" lon="1.68938">
        <ele>2052.3999023438</ele>
        <time>2023-07-20T13:51:36.000Z</time>
      </trkpt>
      <trkpt lat="42.60949" lon="1.68937">
        <ele>2052.8000488281</ele>
        <time>2023-07-20T13:51:39.000Z</time>
      </trkpt>
      <trkpt lat="42.60942" lon="1.68929">
        <ele>2053</ele>
        <time>2023-07-20T13:51:49.000Z</time>
      </trkpt>
      <trkpt lat="42.60941" lon="1.68927">
        <ele>2053.3999023438</ele>
        <time>2023-07-20T13:51:51.000Z</time>
      </trkpt>
      <trkpt lat="42.60938" lon="1.68923">
        <ele>2054</ele>
        <time>2023-07-20T13:51:57.000Z</time>
      </trkpt>
      <trkpt lat="42.60936" lon="1.6892">
        <ele>2054.3999023438</ele>
        <time>2023-07-20T13:52:01.000Z</time>
      </trkpt>
      <trkpt lat="42.60935" lon="1.68918">
        <ele>2054.6000976562</ele>
        <time>2023-07-20T13:52:04.000Z</time>
      </trkpt>
      <trkpt lat="42.60933" lon="1.68914">
        <ele>2055.3999023438</ele>
        <time>2023-07-20T13:52:09.000Z</time>
      </trkpt>
      <trkpt lat="42.60931" lon="1.68911">
        <ele>2055.3999023438</ele>
        <time>2023-07-20T13:52:13.000Z</time>
      </trkpt>
      <trkpt lat="42.60928" lon="1.68906">
        <ele>2055.8000488281</ele>
        <time>2023-07-20T13:52:20.000Z</time>
      </trkpt>
      <trkpt lat="42.60925" lon="1.68898">
        <ele>2055.8000488281</ele>
        <time>2023-07-20T13:52:29.000Z</time>
      </trkpt>
      <trkpt lat="42.60923" lon="1.68895">
        <ele>2056.3999023438</ele>
        <time>2023-07-20T13:52:32.000Z</time>
      </trkpt>
      <trkpt lat="42.6092" lon="1.68891">
        <ele>2056.6000976562</ele>
        <time>2023-07-20T13:52:38.000Z</time>
      </trkpt>
      <trkpt lat="42.60918" lon="1.68888">
        <ele>2057.6000976562</ele>
        <time>2023-07-20T13:52:43.000Z</time>
      </trkpt>
      <trkpt lat="42.60918" lon="1.68887">
        <ele>2057.8000488281</ele>
        <time>2023-07-20T13:52:46.000Z</time>
      </trkpt>
      <trkpt lat="42.60915" lon="1.68879">
        <ele>2058.6000976562</ele>
        <time>2023-07-20T13:52:54.000Z</time>
      </trkpt>
      <trkpt lat="42.6091" lon="1.68872">
        <ele>2058.1999511719</ele>
        <time>2023-07-20T13:53:01.000Z</time>
      </trkpt>
      <trkpt lat="42.60903" lon="1.68869">
        <ele>2059.1999511719</ele>
        <time>2023-07-20T13:53:10.000Z</time>
      </trkpt>
      <trkpt lat="42.60899" lon="1.68859">
        <ele>2059.6000976562</ele>
        <time>2023-07-20T13:53:21.000Z</time>
      </trkpt>
      <trkpt lat="42.60899" lon="1.68858">
        <ele>2059.6000976562</ele>
        <time>2023-07-20T13:53:22.000Z</time>
      </trkpt>
      <trkpt lat="42.60894" lon="1.68852">
        <ele>2060.1999511719</ele>
        <time>2023-07-20T13:53:31.000Z</time>
      </trkpt>
      <trkpt lat="42.60893" lon="1.68851">
        <ele>2060.6000976562</ele>
        <time>2023-07-20T13:53:33.000Z</time>
      </trkpt>
      <trkpt lat="42.60887" lon="1.68845">
        <ele>2061</ele>
        <time>2023-07-20T13:53:41.000Z</time>
      </trkpt>
      <trkpt lat="42.60884" lon="1.68843">
        <ele>2061.8000488281</ele>
        <time>2023-07-20T13:53:46.000Z</time>
      </trkpt>
      <trkpt lat="42.60883" lon="1.68842">
        <ele>2062.1999511719</ele>
        <time>2023-07-20T13:53:48.000Z</time>
      </trkpt>
      <trkpt lat="42.60878" lon="1.6884">
        <ele>2062.6000976562</ele>
        <time>2023-07-20T13:53:55.000Z</time>
      </trkpt>
      <trkpt lat="42.60875" lon="1.68838">
        <ele>2062.8000488281</ele>
        <time>2023-07-20T13:53:59.000Z</time>
      </trkpt>
      <trkpt lat="42.60874" lon="1.68837">
        <ele>2063.1999511719</ele>
        <time>2023-07-20T13:54:01.000Z</time>
      </trkpt>
      <trkpt lat="42.60871" lon="1.68832">
        <ele>2063.8000488281</ele>
        <time>2023-07-20T13:54:07.000Z</time>
      </trkpt>
      <trkpt lat="42.6087" lon="1.68831">
        <ele>2063.8000488281</ele>
        <time>2023-07-20T13:54:09.000Z</time>
      </trkpt>
      <trkpt lat="42.60864" lon="1.68822">
        <ele>2064.3999023438</ele>
        <time>2023-07-20T13:54:18.000Z</time>
      </trkpt>
      <trkpt lat="42.6086" lon="1.68817">
        <ele>2064.3999023438</ele>
        <time>2023-07-20T13:54:25.000Z</time>
      </trkpt>
      <trkpt lat="42.60858" lon="1.68815">
        <ele>2065</ele>
        <time>2023-07-20T13:54:29.000Z</time>
      </trkpt>
      <trkpt lat="42.60855" lon="1.68812">
        <ele>2065.1999511719</ele>
        <time>2023-07-20T13:54:33.000Z</time>
      </trkpt>
      <trkpt lat="42.60851" lon="1.68809">
        <ele>2065.3999023438</ele>
        <time>2023-07-20T13:54:39.000Z</time>
      </trkpt>
      <trkpt lat="42.60846" lon="1.68799">
        <ele>2065.3999023438</ele>
        <time>2023-07-20T13:54:49.000Z</time>
      </trkpt>
      <trkpt lat="42.60844" lon="1.68796">
        <ele>2066</ele>
        <time>2023-07-20T13:54:52.000Z</time>
      </trkpt>
      <trkpt lat="42.60838" lon="1.68792">
        <ele>2066.8000488281</ele>
        <time>2023-07-20T13:54:58.000Z</time>
      </trkpt>
      <trkpt lat="42.60837" lon="1.68792">
        <ele>2067.1999511719</ele>
        <time>2023-07-20T13:55:00.000Z</time>
      </trkpt>
      <trkpt lat="42.60835" lon="1.68789">
        <ele>2067.3999023438</ele>
        <time>2023-07-20T13:55:05.000Z</time>
      </trkpt>
      <trkpt lat="42.60833" lon="1.68785">
        <ele>2068.1999511719</ele>
        <time>2023-07-20T13:55:12.000Z</time>
      </trkpt>
      <trkpt lat="42.60833" lon="1.68784">
        <ele>2068.1999511719</ele>
        <time>2023-07-20T13:55:13.000Z</time>
      </trkpt>
      <trkpt lat="42.60829" lon="1.68778">
        <ele>2069.1999511719</ele>
        <time>2023-07-20T13:55:24.000Z</time>
      </trkpt>
      <trkpt lat="42.60826" lon="1.68774">
        <ele>2070</ele>
        <time>2023-07-20T13:55:31.000Z</time>
      </trkpt>
      <trkpt lat="42.60826" lon="1.68772">
        <ele>2070.3999023438</ele>
        <time>2023-07-20T13:55:33.000Z</time>
      </trkpt>
      <trkpt lat="42.60824" lon="1.68769">
        <ele>2071.3999023438</ele>
        <time>2023-07-20T13:55:38.000Z</time>
      </trkpt>
      <trkpt lat="42.60824" lon="1.68768">
        <ele>2071.6000976562</ele>
        <time>2023-07-20T13:55:39.000Z</time>
      </trkpt>
      <trkpt lat="42.60821" lon="1.68765">
        <ele>2072.6000976562</ele>
        <time>2023-07-20T13:55:45.000Z</time>
      </trkpt>
      <trkpt lat="42.60819" lon="1.68764">
        <ele>2072.6000976562</ele>
        <time>2023-07-20T13:55:47.000Z</time>
      </trkpt>
      <trkpt lat="42.60815" lon="1.6876">
        <ele>2073.6000976562</ele>
        <time>2023-07-20T13:55:53.000Z</time>
      </trkpt>
      <trkpt lat="42.60815" lon="1.68758">
        <ele>2073.6000976562</ele>
        <time>2023-07-20T13:55:56.000Z</time>
      </trkpt>
      <trkpt lat="42.60813" lon="1.68756">
        <ele>2074.6000976562</ele>
        <time>2023-07-20T13:56:01.000Z</time>
      </trkpt>
      <trkpt lat="42.60811" lon="1.68754">
        <ele>2075.1999511719</ele>
        <time>2023-07-20T13:56:05.000Z</time>
      </trkpt>
      <trkpt lat="42.6081" lon="1.68749">
        <ele>2076</ele>
        <time>2023-07-20T13:56:10.000Z</time>
      </trkpt>
      <trkpt lat="42.6081" lon="1.68748">
        <ele>2076.3999023438</ele>
        <time>2023-07-20T13:56:11.000Z</time>
      </trkpt>
      <trkpt lat="42.6081" lon="1.68747">
        <ele>2076.3999023438</ele>
        <time>2023-07-20T13:56:20.000Z</time>
      </trkpt>
      <trkpt lat="42.6081" lon="1.6875">
        <ele>2075.8000488281</ele>
        <time>2023-07-20T13:56:30.000Z</time>
      </trkpt>
      <trkpt lat="42.60805" lon="1.68746">
        <ele>2076.1999511719</ele>
        <time>2023-07-20T13:56:38.000Z</time>
      </trkpt>
      <trkpt lat="42.60803" lon="1.68743">
        <ele>2077</ele>
        <time>2023-07-20T13:56:44.000Z</time>
      </trkpt>
      <trkpt lat="42.60802" lon="1.68741">
        <ele>2077</ele>
        <time>2023-07-20T13:56:47.000Z</time>
      </trkpt>
      <trkpt lat="42.60799" lon="1.68737">
        <ele>2078</ele>
        <time>2023-07-20T13:56:54.000Z</time>
      </trkpt>
      <trkpt lat="42.60795" lon="1.68737">
        <ele>2078</ele>
        <time>2023-07-20T13:57:00.000Z</time>
      </trkpt>
      <trkpt lat="42.60794" lon="1.68736">
        <ele>2078</ele>
        <time>2023-07-20T13:57:02.000Z</time>
      </trkpt>
      <trkpt lat="42.60795" lon="1.68733">
        <ele>2079.1999511719</ele>
        <time>2023-07-20T13:57:07.000Z</time>
      </trkpt>
      <trkpt lat="42.60794" lon="1.68732">
        <ele>2079.3999023438</ele>
        <time>2023-07-20T13:57:08.000Z</time>
      </trkpt>
      <trkpt lat="42.60792" lon="1.68729">
        <ele>2080.1999511719</ele>
        <time>2023-07-20T13:57:14.000Z</time>
      </trkpt>
      <trkpt lat="42.6079" lon="1.68726">
        <ele>2081</ele>
        <time>2023-07-20T13:57:19.000Z</time>
      </trkpt>
      <trkpt lat="42.60789" lon="1.68722">
        <ele>2081.1999511719</ele>
        <time>2023-07-20T13:57:24.000Z</time>
      </trkpt>
      <trkpt lat="42.60787" lon="1.68718">
        <ele>2082.1999511719</ele>
        <time>2023-07-20T13:57:29.000Z</time>
      </trkpt>
      <trkpt lat="42.60786" lon="1.68718">
        <ele>2082.1999511719</ele>
        <time>2023-07-20T13:57:30.000Z</time>
      </trkpt>
      <trkpt lat="42.60784" lon="1.68714">
        <ele>2083.3999023438</ele>
        <time>2023-07-20T13:57:36.000Z</time>
      </trkpt>
      <trkpt lat="42.60782" lon="1.68713">
        <ele>2083.3999023438</ele>
        <time>2023-07-20T13:57:38.000Z</time>
      </trkpt>
      <trkpt lat="42.60779" lon="1.68709">
        <ele>2084</ele>
        <time>2023-07-20T13:57:45.000Z</time>
      </trkpt>
      <trkpt lat="42.60778" lon="1.68708">
        <ele>2084.6000976562</ele>
        <time>2023-07-20T13:57:47.000Z</time>
      </trkpt>
      <trkpt lat="42.60775" lon="1.68702">
        <ele>2085.6000976562</ele>
        <time>2023-07-20T13:57:55.000Z</time>
      </trkpt>
      <trkpt lat="42.60776" lon="1.68701">
        <ele>2086</ele>
        <time>2023-07-20T13:57:56.000Z</time>
      </trkpt>
      <trkpt lat="42.60776" lon="1.68698">
        <ele>2087</ele>
        <time>2023-07-20T13:58:02.000Z</time>
      </trkpt>
      <trkpt lat="42.60776" lon="1.68697">
        <ele>2087.3999023438</ele>
        <time>2023-07-20T13:58:03.000Z</time>
      </trkpt>
      <trkpt lat="42.60774" lon="1.68696">
        <ele>2087.8000488281</ele>
        <time>2023-07-20T13:58:08.000Z</time>
      </trkpt>
      <trkpt lat="42.6077" lon="1.6869">
        <ele>2087.6000976562</ele>
        <time>2023-07-20T13:58:18.000Z</time>
      </trkpt>
      <trkpt lat="42.60769" lon="1.68686">
        <ele>2088.1999511719</ele>
        <time>2023-07-20T13:58:23.000Z</time>
      </trkpt>
      <trkpt lat="42.60768" lon="1.68684">
        <ele>2088.8000488281</ele>
        <time>2023-07-20T13:58:28.000Z</time>
      </trkpt>
      <trkpt lat="42.60766" lon="1.68681">
        <ele>2089.3999023438</ele>
        <time>2023-07-20T13:58:34.000Z</time>
      </trkpt>
      <trkpt lat="42.60765" lon="1.6868">
        <ele>2089.3999023438</ele>
        <time>2023-07-20T13:58:36.000Z</time>
      </trkpt>
      <trkpt lat="42.60762" lon="1.68675">
        <ele>2089.8000488281</ele>
        <time>2023-07-20T13:58:44.000Z</time>
      </trkpt>
      <trkpt lat="42.60761" lon="1.68673">
        <ele>2090.3999023438</ele>
        <time>2023-07-20T13:58:48.000Z</time>
      </trkpt>
      <trkpt lat="42.60759" lon="1.68671">
        <ele>2091.3999023438</ele>
        <time>2023-07-20T13:58:53.000Z</time>
      </trkpt>
      <trkpt lat="42.60759" lon="1.68669">
        <ele>2091.6000976562</ele>
        <time>2023-07-20T13:58:55.000Z</time>
      </trkpt>
      <trkpt lat="42.60758" lon="1.68668">
        <ele>2092.1999511719</ele>
        <time>2023-07-20T13:59:01.000Z</time>
      </trkpt>
      <trkpt lat="42.60758" lon="1.68666">
        <ele>2092.8000488281</ele>
        <time>2023-07-20T13:59:03.000Z</time>
      </trkpt>
      <trkpt lat="42.60755" lon="1.68662">
        <ele>2093.1999511719</ele>
        <time>2023-07-20T13:59:08.000Z</time>
      </trkpt>
      <trkpt lat="42.60757" lon="1.68664">
        <ele>2093.1999511719</ele>
        <time>2023-07-20T13:59:16.000Z</time>
      </trkpt>
      <trkpt lat="42.60758" lon="1.68663">
        <ele>2093.1999511719</ele>
        <time>2023-07-20T13:59:25.000Z</time>
      </trkpt>
      <trkpt lat="42.60756" lon="1.68662">
        <ele>2093.8000488281</ele>
        <time>2023-07-20T13:59:30.000Z</time>
      </trkpt>
      <trkpt lat="42.60754" lon="1.68661">
        <ele>2094.1999511719</ele>
        <time>2023-07-20T13:59:33.000Z</time>
      </trkpt>
      <trkpt lat="42.60753" lon="1.68658">
        <ele>2094.8000488281</ele>
        <time>2023-07-20T13:59:37.000Z</time>
      </trkpt>
      <trkpt lat="42.60752" lon="1.68655">
        <ele>2095.1999511719</ele>
        <time>2023-07-20T13:59:41.000Z</time>
      </trkpt>
      <trkpt lat="42.60751" lon="1.68652">
        <ele>2095.8000488281</ele>
        <time>2023-07-20T13:59:45.000Z</time>
      </trkpt>
      <trkpt lat="42.60751" lon="1.68649">
        <ele>2096</ele>
        <time>2023-07-20T13:59:49.000Z</time>
      </trkpt>
      <trkpt lat="42.6075" lon="1.68646">
        <ele>2096.8000488281</ele>
        <time>2023-07-20T13:59:54.000Z</time>
      </trkpt>
      <trkpt lat="42.60748" lon="1.68645">
        <ele>2097.6000976562</ele>
        <time>2023-07-20T13:59:58.000Z</time>
      </trkpt>
      <trkpt lat="42.60746" lon="1.68641">
        <ele>2098</ele>
        <time>2023-07-20T14:00:04.000Z</time>
      </trkpt>
      <trkpt lat="42.60746" lon="1.68641">
        <ele>2098.8000488281</ele>
        <time>2023-07-20T14:00:07.000Z</time>
      </trkpt>
      <trkpt lat="42.60744" lon="1.6864">
        <ele>2099.1999511719</ele>
        <time>2023-07-20T14:00:09.000Z</time>
      </trkpt>
      <trkpt lat="42.60742" lon="1.68636">
        <ele>2100</ele>
        <time>2023-07-20T14:00:14.000Z</time>
      </trkpt>
      <trkpt lat="42.60739" lon="1.68633">
        <ele>2100</ele>
        <time>2023-07-20T14:00:21.000Z</time>
      </trkpt>
      <trkpt lat="42.60738" lon="1.68632">
        <ele>2100.1999511719</ele>
        <time>2023-07-20T14:00:23.000Z</time>
      </trkpt>
      <trkpt lat="42.60734" lon="1.6863">
        <ele>2100.6000976562</ele>
        <time>2023-07-20T14:00:30.000Z</time>
      </trkpt>
      <trkpt lat="42.6073" lon="1.68629">
        <ele>2101.3999023438</ele>
        <time>2023-07-20T14:00:38.000Z</time>
      </trkpt>
      <trkpt lat="42.6073" lon="1.68629">
        <ele>2101.3999023438</ele>
        <time>2023-07-20T14:00:39.000Z</time>
      </trkpt>
      <trkpt lat="42.60729" lon="1.68627">
        <ele>2101.1999511719</ele>
        <time>2023-07-20T14:00:45.000Z</time>
      </trkpt>
      <trkpt lat="42.60728" lon="1.68626">
        <ele>2101.1999511719</ele>
        <time>2023-07-20T14:00:50.000Z</time>
      </trkpt>
      <trkpt lat="42.60731" lon="1.68628">
        <ele>2101.1999511719</ele>
        <time>2023-07-20T14:00:58.000Z</time>
      </trkpt>
      <trkpt lat="42.60726" lon="1.68625">
        <ele>2101.3999023438</ele>
        <time>2023-07-20T14:01:06.000Z</time>
      </trkpt>
      <trkpt lat="42.60724" lon="1.6862">
        <ele>2101.8000488281</ele>
        <time>2023-07-20T14:01:14.000Z</time>
      </trkpt>
      <trkpt lat="42.60725" lon="1.68617">
        <ele>2102.8000488281</ele>
        <time>2023-07-20T14:01:19.000Z</time>
      </trkpt>
      <trkpt lat="42.60724" lon="1.68616">
        <ele>2103.6000976562</ele>
        <time>2023-07-20T14:01:23.000Z</time>
      </trkpt>
      <trkpt lat="42.60723" lon="1.68615">
        <ele>2103.8000488281</ele>
        <time>2023-07-20T14:01:26.000Z</time>
      </trkpt>
      <trkpt lat="42.60722" lon="1.68612">
        <ele>2104.6000976562</ele>
        <time>2023-07-20T14:01:31.000Z</time>
      </trkpt>
      <trkpt lat="42.6072" lon="1.68609">
        <ele>2104.8000488281</ele>
        <time>2023-07-20T14:01:35.000Z</time>
      </trkpt>
      <trkpt lat="42.60719" lon="1.68609">
        <ele>2105</ele>
        <time>2023-07-20T14:01:37.000Z</time>
      </trkpt>
      <trkpt lat="42.60716" lon="1.68605">
        <ele>2105.6000976562</ele>
        <time>2023-07-20T14:01:45.000Z</time>
      </trkpt>
      <trkpt lat="42.60715" lon="1.68603">
        <ele>2106</ele>
        <time>2023-07-20T14:01:52.000Z</time>
      </trkpt>
      <trkpt lat="42.60714" lon="1.68602">
        <ele>2106.3999023438</ele>
        <time>2023-07-20T14:01:54.000Z</time>
      </trkpt>
      <trkpt lat="42.60712" lon="1.68599">
        <ele>2107</ele>
        <time>2023-07-20T14:01:59.000Z</time>
      </trkpt>
      <trkpt lat="42.60711" lon="1.68598">
        <ele>2107</ele>
        <time>2023-07-20T14:02:02.000Z</time>
      </trkpt>
      <trkpt lat="42.60707" lon="1.68592">
        <ele>2107.6000976562</ele>
        <time>2023-07-20T14:02:10.000Z</time>
      </trkpt>
      <trkpt lat="42.60706" lon="1.6859">
        <ele>2108.1999511719</ele>
        <time>2023-07-20T14:02:14.000Z</time>
      </trkpt>
      <trkpt lat="42.60706" lon="1.68588">
        <ele>2108.8000488281</ele>
        <time>2023-07-20T14:02:18.000Z</time>
      </trkpt>
      <trkpt lat="42.60704" lon="1.68585">
        <ele>2109.1999511719</ele>
        <time>2023-07-20T14:02:22.000Z</time>
      </trkpt>
      <trkpt lat="42.60703" lon="1.68584">
        <ele>2109.6000976562</ele>
        <time>2023-07-20T14:02:24.000Z</time>
      </trkpt>
      <trkpt lat="42.60702" lon="1.68583">
        <ele>2110.1999511719</ele>
        <time>2023-07-20T14:02:29.000Z</time>
      </trkpt>
      <trkpt lat="42.60702" lon="1.68583">
        <ele>2110.3999023438</ele>
        <time>2023-07-20T14:02:31.000Z</time>
      </trkpt>
      <trkpt lat="42.607" lon="1.6858">
        <ele>2111.3999023438</ele>
        <time>2023-07-20T14:02:38.000Z</time>
      </trkpt>
      <trkpt lat="42.60699" lon="1.68579">
        <ele>2111.8000488281</ele>
        <time>2023-07-20T14:02:40.000Z</time>
      </trkpt>
      <trkpt lat="42.60695" lon="1.68576">
        <ele>2112.6000976562</ele>
        <time>2023-07-20T14:02:48.000Z</time>
      </trkpt>
      <trkpt lat="42.60694" lon="1.68575">
        <ele>2112.6000976562</ele>
        <time>2023-07-20T14:02:49.000Z</time>
      </trkpt>
      <trkpt lat="42.60693" lon="1.68573">
        <ele>2113.3999023438</ele>
        <time>2023-07-20T14:02:58.000Z</time>
      </trkpt>
      <trkpt lat="42.60693" lon="1.68571">
        <ele>2113.8000488281</ele>
        <time>2023-07-20T14:03:00.000Z</time>
      </trkpt>
      <trkpt lat="42.60693" lon="1.68567">
        <ele>2114</ele>
        <time>2023-07-20T14:03:06.000Z</time>
      </trkpt>
      <trkpt lat="42.60692" lon="1.68563">
        <ele>2114.8000488281</ele>
        <time>2023-07-20T14:03:12.000Z</time>
      </trkpt>
      <trkpt lat="42.60692" lon="1.68561">
        <ele>2115.1999511719</ele>
        <time>2023-07-20T14:03:15.000Z</time>
      </trkpt>
      <trkpt lat="42.60691" lon="1.68559">
        <ele>2116</ele>
        <time>2023-07-20T14:03:20.000Z</time>
      </trkpt>
      <trkpt lat="42.6069" lon="1.68558">
        <ele>2116</ele>
        <time>2023-07-20T14:03:23.000Z</time>
      </trkpt>
      <trkpt lat="42.60689" lon="1.68556">
        <ele>2117.1999511719</ele>
        <time>2023-07-20T14:03:32.000Z</time>
      </trkpt>
      <trkpt lat="42.60689" lon="1.68556">
        <ele>2117.1999511719</ele>
        <time>2023-07-20T14:03:33.000Z</time>
      </trkpt>
      <trkpt lat="42.60687" lon="1.68553">
        <ele>2117.8000488281</ele>
        <time>2023-07-20T14:03:41.000Z</time>
      </trkpt>
      <trkpt lat="42.60687" lon="1.68552">
        <ele>2118.3999023438</ele>
        <time>2023-07-20T14:03:45.000Z</time>
      </trkpt>
      <trkpt lat="42.60685" lon="1.6855">
        <ele>2119.1999511719</ele>
        <time>2023-07-20T14:03:51.000Z</time>
      </trkpt>
      <trkpt lat="42.60684" lon="1.68548">
        <ele>2119.3999023438</ele>
        <time>2023-07-20T14:03:55.000Z</time>
      </trkpt>
      <trkpt lat="42.60683" lon="1.68546">
        <ele>2120.1999511719</ele>
        <time>2023-07-20T14:04:03.000Z</time>
      </trkpt>
      <trkpt lat="42.60682" lon="1.68542">
        <ele>2120.6000976562</ele>
        <time>2023-07-20T14:04:07.000Z</time>
      </trkpt>
      <trkpt lat="42.60681" lon="1.68538">
        <ele>2120.8000488281</ele>
        <time>2023-07-20T14:04:12.000Z</time>
      </trkpt>
      <trkpt lat="42.60681" lon="1.68537">
        <ele>2121.6000976562</ele>
        <time>2023-07-20T14:04:16.000Z</time>
      </trkpt>
      <trkpt lat="42.6068" lon="1.68534">
        <ele>2122.1999511719</ele>
        <time>2023-07-20T14:04:20.000Z</time>
      </trkpt>
      <trkpt lat="42.60676" lon="1.6853">
        <ele>2122.8000488281</ele>
        <time>2023-07-20T14:04:27.000Z</time>
      </trkpt>
      <trkpt lat="42.60676" lon="1.68529">
        <ele>2122.8000488281</ele>
        <time>2023-07-20T14:04:28.000Z</time>
      </trkpt>
      <trkpt lat="42.60675" lon="1.68524">
        <ele>2123.8000488281</ele>
        <time>2023-07-20T14:04:36.000Z</time>
      </trkpt>
      <trkpt lat="42.60678" lon="1.68523">
        <ele>2124.8000488281</ele>
        <time>2023-07-20T14:04:42.000Z</time>
      </trkpt>
      <trkpt lat="42.60678" lon="1.68522">
        <ele>2125</ele>
        <time>2023-07-20T14:04:45.000Z</time>
      </trkpt>
      <trkpt lat="42.60677" lon="1.68519">
        <ele>2125.6000976562</ele>
        <time>2023-07-20T14:04:56.000Z</time>
      </trkpt>
      <trkpt lat="42.60673" lon="1.68517">
        <ele>2125.8000488281</ele>
        <time>2023-07-20T14:05:04.000Z</time>
      </trkpt>
      <trkpt lat="42.60671" lon="1.68515">
        <ele>2126.8000488281</ele>
        <time>2023-07-20T14:05:09.000Z</time>
      </trkpt>
      <trkpt lat="42.60671" lon="1.68513">
        <ele>2127</ele>
        <time>2023-07-20T14:05:12.000Z</time>
      </trkpt>
      <trkpt lat="42.60671" lon="1.6851">
        <ele>2128</ele>
        <time>2023-07-20T14:05:17.000Z</time>
      </trkpt>
      <trkpt lat="42.6067" lon="1.68508">
        <ele>2128</ele>
        <time>2023-07-20T14:05:20.000Z</time>
      </trkpt>
      <trkpt lat="42.60671" lon="1.68505">
        <ele>2129</ele>
        <time>2023-07-20T14:05:27.000Z</time>
      </trkpt>
      <trkpt lat="42.60671" lon="1.68506">
        <ele>2129.3999023438</ele>
        <time>2023-07-20T14:05:28.000Z</time>
      </trkpt>
      <trkpt lat="42.60673" lon="1.68504">
        <ele>2130</ele>
        <time>2023-07-20T14:05:37.000Z</time>
      </trkpt>
      <trkpt lat="42.60673" lon="1.68502">
        <ele>2131.1999511719</ele>
        <time>2023-07-20T14:05:41.000Z</time>
      </trkpt>
      <trkpt lat="42.60672" lon="1.685">
        <ele>2132.3999023438</ele>
        <time>2023-07-20T14:05:45.000Z</time>
      </trkpt>
      <trkpt lat="42.60671" lon="1.68494">
        <ele>2133.1999511719</ele>
        <time>2023-07-20T14:05:54.000Z</time>
      </trkpt>
      <trkpt lat="42.60671" lon="1.68494">
        <ele>2133.3999023438</ele>
        <time>2023-07-20T14:05:57.000Z</time>
      </trkpt>
      <trkpt lat="42.60669" lon="1.68494">
        <ele>2134.3999023438</ele>
        <time>2023-07-20T14:06:03.000Z</time>
      </trkpt>
      <trkpt lat="42.60669" lon="1.68494">
        <ele>2134.6000976562</ele>
        <time>2023-07-20T14:06:04.000Z</time>
      </trkpt>
      <trkpt lat="42.60667" lon="1.6849">
        <ele>2135</ele>
        <time>2023-07-20T14:06:12.000Z</time>
      </trkpt>
      <trkpt lat="42.60668" lon="1.68487">
        <ele>2136</ele>
        <time>2023-07-20T14:06:15.000Z</time>
      </trkpt>
      <trkpt lat="42.6067" lon="1.68486">
        <ele>2136.6000976562</ele>
        <time>2023-07-20T14:06:21.000Z</time>
      </trkpt>
      <trkpt lat="42.60671" lon="1.68486">
        <ele>2137</ele>
        <time>2023-07-20T14:06:25.000Z</time>
      </trkpt>
      <trkpt lat="42.6067" lon="1.68485">
        <ele>2137.6000976562</ele>
        <time>2023-07-20T14:06:28.000Z</time>
      </trkpt>
      <trkpt lat="42.60671" lon="1.68483">
        <ele>2138.1999511719</ele>
        <time>2023-07-20T14:06:30.000Z</time>
      </trkpt>
      <trkpt lat="42.60671" lon="1.6848">
        <ele>2138.3999023438</ele>
        <time>2023-07-20T14:06:37.000Z</time>
      </trkpt>
      <trkpt lat="42.60671" lon="1.6848">
        <ele>2138.6000976562</ele>
        <time>2023-07-20T14:06:46.000Z</time>
      </trkpt>
      <trkpt lat="42.6067" lon="1.68483">
        <ele>2138.8000488281</ele>
        <time>2023-07-20T14:06:54.000Z</time>
      </trkpt>
      <trkpt lat="42.60672" lon="1.68483">
        <ele>2138.6000976562</ele>
        <time>2023-07-20T14:07:06.000Z</time>
      </trkpt>
      <trkpt lat="42.6067" lon="1.68479">
        <ele>2139.3999023438</ele>
        <time>2023-07-20T14:07:13.000Z</time>
      </trkpt>
      <trkpt lat="42.60668" lon="1.68476">
        <ele>2140</ele>
        <time>2023-07-20T14:07:16.000Z</time>
      </trkpt>
      <trkpt lat="42.60667" lon="1.68475">
        <ele>2140.3999023438</ele>
        <time>2023-07-20T14:07:19.000Z</time>
      </trkpt>
      <trkpt lat="42.60665" lon="1.68472">
        <ele>2141</ele>
        <time>2023-07-20T14:07:24.000Z</time>
      </trkpt>
      <trkpt lat="42.60665" lon="1.68471">
        <ele>2141.6000976562</ele>
        <time>2023-07-20T14:07:27.000Z</time>
      </trkpt>
      <trkpt lat="42.60665" lon="1.6847">
        <ele>2141.6000976562</ele>
        <time>2023-07-20T14:07:30.000Z</time>
      </trkpt>
      <trkpt lat="42.60666" lon="1.68465">
        <ele>2142.6000976562</ele>
        <time>2023-07-20T14:07:36.000Z</time>
      </trkpt>
      <trkpt lat="42.60668" lon="1.68464">
        <ele>2143.6000976562</ele>
        <time>2023-07-20T14:07:39.000Z</time>
      </trkpt>
      <trkpt lat="42.60668" lon="1.68463">
        <ele>2144</ele>
        <time>2023-07-20T14:07:41.000Z</time>
      </trkpt>
      <trkpt lat="42.60668" lon="1.68461">
        <ele>2144.6000976562</ele>
        <time>2023-07-20T14:07:48.000Z</time>
      </trkpt>
      <trkpt lat="42.60668" lon="1.6846">
        <ele>2145</ele>
        <time>2023-07-20T14:07:50.000Z</time>
      </trkpt>
      <trkpt lat="42.60668" lon="1.68458">
        <ele>2145.8000488281</ele>
        <time>2023-07-20T14:07:55.000Z</time>
      </trkpt>
      <trkpt lat="42.60666" lon="1.68455">
        <ele>2146</ele>
        <time>2023-07-20T14:07:58.000Z</time>
      </trkpt>
      <trkpt lat="42.60665" lon="1.68448">
        <ele>2146.8000488281</ele>
        <time>2023-07-20T14:08:06.000Z</time>
      </trkpt>
      <trkpt lat="42.60665" lon="1.68447">
        <ele>2147</ele>
        <time>2023-07-20T14:08:08.000Z</time>
      </trkpt>
      <trkpt lat="42.60666" lon="1.68446">
        <ele>2147.8000488281</ele>
        <time>2023-07-20T14:08:12.000Z</time>
      </trkpt>
      <trkpt lat="42.60667" lon="1.68443">
        <ele>2149</ele>
        <time>2023-07-20T14:08:19.000Z</time>
      </trkpt>
      <trkpt lat="42.60666" lon="1.6844">
        <ele>2150</ele>
        <time>2023-07-20T14:08:26.000Z</time>
      </trkpt>
      <trkpt lat="42.60665" lon="1.68436">
        <ele>2151.6000976562</ele>
        <time>2023-07-20T14:08:33.000Z</time>
      </trkpt>
      <trkpt lat="42.60665" lon="1.68435">
        <ele>2152.1999511719</ele>
        <time>2023-07-20T14:08:35.000Z</time>
      </trkpt>
      <trkpt lat="42.60666" lon="1.68433">
        <ele>2152.8000488281</ele>
        <time>2023-07-20T14:08:38.000Z</time>
      </trkpt>
      <trkpt lat="42.60666" lon="1.68429">
        <ele>2153.1999511719</ele>
        <time>2023-07-20T14:08:44.000Z</time>
      </trkpt>
      <trkpt lat="42.60665" lon="1.68425">
        <ele>2153.8000488281</ele>
        <time>2023-07-20T14:08:51.000Z</time>
      </trkpt>
      <trkpt lat="42.60665" lon="1.68424">
        <ele>2154</ele>
        <time>2023-07-20T14:08:56.000Z</time>
      </trkpt>
      <trkpt lat="42.60664" lon="1.68423">
        <ele>2154</ele>
        <time>2023-07-20T14:08:57.000Z</time>
      </trkpt>
      <trkpt lat="42.60665" lon="1.68424">
        <ele>2154.8000488281</ele>
        <time>2023-07-20T14:09:05.000Z</time>
      </trkpt>
      <trkpt lat="42.60664" lon="1.68421">
        <ele>2154.6000976562</ele>
        <time>2023-07-20T14:09:14.000Z</time>
      </trkpt>
      <trkpt lat="42.60665" lon="1.68417">
        <ele>2154.8000488281</ele>
        <time>2023-07-20T14:09:21.000Z</time>
      </trkpt>
      <trkpt lat="42.60665" lon="1.68417">
        <ele>2155</ele>
        <time>2023-07-20T14:09:22.000Z</time>
      </trkpt>
      <trkpt lat="42.60664" lon="1.68413">
        <ele>2155.6000976562</ele>
        <time>2023-07-20T14:09:30.000Z</time>
      </trkpt>
      <trkpt lat="42.60659" lon="1.68408">
        <ele>2155.8000488281</ele>
        <time>2023-07-20T14:09:37.000Z</time>
      </trkpt>
      <trkpt lat="42.60656" lon="1.68406">
        <ele>2155.8000488281</ele>
        <time>2023-07-20T14:09:44.000Z</time>
      </trkpt>
      <trkpt lat="42.60654" lon="1.68405">
        <ele>2156.1999511719</ele>
        <time>2023-07-20T14:09:48.000Z</time>
      </trkpt>
      <trkpt lat="42.60653" lon="1.68403">
        <ele>2156.3999023438</ele>
        <time>2023-07-20T14:09:51.000Z</time>
      </trkpt>
      <trkpt lat="42.60651" lon="1.68398">
        <ele>2157.3999023438</ele>
        <time>2023-07-20T14:09:58.000Z</time>
      </trkpt>
      <trkpt lat="42.60651" lon="1.68397">
        <ele>2157.6000976562</ele>
        <time>2023-07-20T14:09:59.000Z</time>
      </trkpt>
      <trkpt lat="42.60648" lon="1.68391">
        <ele>2158</ele>
        <time>2023-07-20T14:10:08.000Z</time>
      </trkpt>
      <trkpt lat="42.60647" lon="1.6839">
        <ele>2158.6000976562</ele>
        <time>2023-07-20T14:10:10.000Z</time>
      </trkpt>
      <trkpt lat="42.60646" lon="1.68384">
        <ele>2159.3999023438</ele>
        <time>2023-07-20T14:10:16.000Z</time>
      </trkpt>
      <trkpt lat="42.60646" lon="1.68381">
        <ele>2159.1999511719</ele>
        <time>2023-07-20T14:10:19.000Z</time>
      </trkpt>
      <trkpt lat="42.60647" lon="1.68379">
        <ele>2158.6000976562</ele>
        <time>2023-07-20T14:10:23.000Z</time>
      </trkpt>
      <trkpt lat="42.60647" lon="1.6838">
        <ele>2158.6000976562</ele>
        <time>2023-07-20T14:10:32.000Z</time>
      </trkpt>
      <trkpt lat="42.60645" lon="1.68378">
        <ele>2159.1999511719</ele>
        <time>2023-07-20T14:10:39.000Z</time>
      </trkpt>
      <trkpt lat="42.60649" lon="1.68372">
        <ele>2159.3999023438</ele>
        <time>2023-07-20T14:10:46.000Z</time>
      </trkpt>
      <trkpt lat="42.6065" lon="1.68367">
        <ele>2159.6000976562</ele>
        <time>2023-07-20T14:10:52.000Z</time>
      </trkpt>
      <trkpt lat="42.6065" lon="1.68365">
        <ele>2159.6000976562</ele>
        <time>2023-07-20T14:10:54.000Z</time>
      </trkpt>
      <trkpt lat="42.60651" lon="1.68356">
        <ele>2159.6000976562</ele>
        <time>2023-07-20T14:11:03.000Z</time>
      </trkpt>
      <trkpt lat="42.60653" lon="1.6835">
        <ele>2160.1999511719</ele>
        <time>2023-07-20T14:11:11.000Z</time>
      </trkpt>
      <trkpt lat="42.60654" lon="1.68349">
        <ele>2160.6000976562</ele>
        <time>2023-07-20T14:11:13.000Z</time>
      </trkpt>
      <trkpt lat="42.60654" lon="1.6835">
        <ele>2161.1999511719</ele>
        <time>2023-07-20T14:11:19.000Z</time>
      </trkpt>
      <trkpt lat="42.60654" lon="1.68344">
        <ele>2161</ele>
        <time>2023-07-20T14:11:25.000Z</time>
      </trkpt>
      <trkpt lat="42.60654" lon="1.68343">
        <ele>2160.3999023438</ele>
        <time>2023-07-20T14:11:32.000Z</time>
      </trkpt>
      <trkpt lat="42.60654" lon="1.6834">
        <ele>2159.6000976562</ele>
        <time>2023-07-20T14:11:35.000Z</time>
      </trkpt>
      <trkpt lat="42.60653" lon="1.68337">
        <ele>2158</ele>
        <time>2023-07-20T14:11:38.000Z</time>
      </trkpt>
      <trkpt lat="42.60653" lon="1.68337">
        <ele>2157.8000488281</ele>
        <time>2023-07-20T14:11:39.000Z</time>
      </trkpt>
      <trkpt lat="42.60652" lon="1.6833">
        <ele>2157.3999023438</ele>
        <time>2023-07-20T14:11:45.000Z</time>
      </trkpt>
      <trkpt lat="42.60652" lon="1.68321">
        <ele>2158.1999511719</ele>
        <time>2023-07-20T14:11:53.000Z</time>
      </trkpt>
      <trkpt lat="42.60653" lon="1.68311">
        <ele>2158.8000488281</ele>
        <time>2023-07-20T14:12:02.000Z</time>
      </trkpt>
      <trkpt lat="42.60653" lon="1.68305">
        <ele>2158.6000976562</ele>
        <time>2023-07-20T14:12:10.000Z</time>
      </trkpt>
      <trkpt lat="42.60655" lon="1.68299">
        <ele>2159</ele>
        <time>2023-07-20T14:12:17.000Z</time>
      </trkpt>
      <trkpt lat="42.60657" lon="1.68297">
        <ele>2159</ele>
        <time>2023-07-20T14:12:21.000Z</time>
      </trkpt>
      <trkpt lat="42.60658" lon="1.68294">
        <ele>2159.1999511719</ele>
        <time>2023-07-20T14:12:24.000Z</time>
      </trkpt>
      <trkpt lat="42.60658" lon="1.68291">
        <ele>2159.8000488281</ele>
        <time>2023-07-20T14:12:31.000Z</time>
      </trkpt>
      <trkpt lat="42.60657" lon="1.68282">
        <ele>2159</ele>
        <time>2023-07-20T14:12:39.000Z</time>
      </trkpt>
      <trkpt lat="42.60656" lon="1.68274">
        <ele>2159.3999023438</ele>
        <time>2023-07-20T14:12:46.000Z</time>
      </trkpt>
      <trkpt lat="42.60655" lon="1.68269">
        <ele>2160</ele>
        <time>2023-07-20T14:12:50.000Z</time>
      </trkpt>
      <trkpt lat="42.60655" lon="1.68266">
        <ele>2160.8000488281</ele>
        <time>2023-07-20T14:12:53.000Z</time>
      </trkpt>
      <trkpt lat="42.60654" lon="1.68264">
        <ele>2161.3999023438</ele>
        <time>2023-07-20T14:12:59.000Z</time>
      </trkpt>
      <trkpt lat="42.60654" lon="1.68263">
        <ele>2161.8000488281</ele>
        <time>2023-07-20T14:13:00.000Z</time>
      </trkpt>
      <trkpt lat="42.60652" lon="1.68254">
        <ele>2162</ele>
        <time>2023-07-20T14:13:07.000Z</time>
      </trkpt>
      <trkpt lat="42.60652" lon="1.68251">
        <ele>2162.6000976562</ele>
        <time>2023-07-20T14:13:10.000Z</time>
      </trkpt>
      <trkpt lat="42.60653" lon="1.68249">
        <ele>2162.8000488281</ele>
        <time>2023-07-20T14:13:13.000Z</time>
      </trkpt>
      <trkpt lat="42.60653" lon="1.68244">
        <ele>2163.1999511719</ele>
        <time>2023-07-20T14:13:20.000Z</time>
      </trkpt>
      <trkpt lat="42.60654" lon="1.6824">
        <ele>2163.6000976562</ele>
        <time>2023-07-20T14:13:25.000Z</time>
      </trkpt>
      <trkpt lat="42.60653" lon="1.68235">
        <ele>2163.8000488281</ele>
        <time>2023-07-20T14:13:28.000Z</time>
      </trkpt>
      <trkpt lat="42.60651" lon="1.68227">
        <ele>2163.6000976562</ele>
        <time>2023-07-20T14:13:36.000Z</time>
      </trkpt>
      <trkpt lat="42.6065" lon="1.6822">
        <ele>2164.3999023438</ele>
        <time>2023-07-20T14:13:43.000Z</time>
      </trkpt>
      <trkpt lat="42.60649" lon="1.68213">
        <ele>2164.6000976562</ele>
        <time>2023-07-20T14:13:48.000Z</time>
      </trkpt>
      <trkpt lat="42.60648" lon="1.68211">
        <ele>2164.8000488281</ele>
        <time>2023-07-20T14:13:51.000Z</time>
      </trkpt>
      <trkpt lat="42.60647" lon="1.68205">
        <ele>2165.6000976562</ele>
        <time>2023-07-20T14:13:58.000Z</time>
      </trkpt>
      <trkpt lat="42.60646" lon="1.68202">
        <ele>2165.8000488281</ele>
        <time>2023-07-20T14:14:01.000Z</time>
      </trkpt>
      <trkpt lat="42.60644" lon="1.68197">
        <ele>2166.3999023438</ele>
        <time>2023-07-20T14:14:09.000Z</time>
      </trkpt>
      <trkpt lat="42.60644" lon="1.68195">
        <ele>2166.6000976562</ele>
        <time>2023-07-20T14:14:13.000Z</time>
      </trkpt>
      <trkpt lat="42.60644" lon="1.68193">
        <ele>2166.8000488281</ele>
        <time>2023-07-20T14:14:16.000Z</time>
      </trkpt>
      <trkpt lat="42.60644" lon="1.68184">
        <ele>2167.8000488281</ele>
        <time>2023-07-20T14:14:23.000Z</time>
      </trkpt>
      <trkpt lat="42.60644" lon="1.68184">
        <ele>2168</ele>
        <time>2023-07-20T14:14:24.000Z</time>
      </trkpt>
      <trkpt lat="42.60645" lon="1.68176">
        <ele>2168.8000488281</ele>
        <time>2023-07-20T14:14:32.000Z</time>
      </trkpt>
      <trkpt lat="42.60645" lon="1.68175">
        <ele>2169</ele>
        <time>2023-07-20T14:14:33.000Z</time>
      </trkpt>
      <trkpt lat="42.60646" lon="1.68171">
        <ele>2169.8000488281</ele>
        <time>2023-07-20T14:14:39.000Z</time>
      </trkpt>
      <trkpt lat="42.60646" lon="1.6817">
        <ele>2169.8000488281</ele>
        <time>2023-07-20T14:14:40.000Z</time>
      </trkpt>
      <trkpt lat="42.60648" lon="1.68166">
        <ele>2170.6000976562</ele>
        <time>2023-07-20T14:14:49.000Z</time>
      </trkpt>
      <trkpt lat="42.60648" lon="1.68164">
        <ele>2170.8000488281</ele>
        <time>2023-07-20T14:14:52.000Z</time>
      </trkpt>
      <trkpt lat="42.60648" lon="1.68161">
        <ele>2171.1999511719</ele>
        <time>2023-07-20T14:14:57.000Z</time>
      </trkpt>
      <trkpt lat="42.60649" lon="1.68154">
        <ele>2171.8000488281</ele>
        <time>2023-07-20T14:15:05.000Z</time>
      </trkpt>
      <trkpt lat="42.60649" lon="1.68154">
        <ele>2172</ele>
        <time>2023-07-20T14:15:06.000Z</time>
      </trkpt>
      <trkpt lat="42.60651" lon="1.6815">
        <ele>2173.1999511719</ele>
        <time>2023-07-20T14:15:10.000Z</time>
      </trkpt>
      <trkpt lat="42.60652" lon="1.68146">
        <ele>2173.3999023438</ele>
        <time>2023-07-20T14:15:14.000Z</time>
      </trkpt>
      <trkpt lat="42.60653" lon="1.6814">
        <ele>2173.1999511719</ele>
        <time>2023-07-20T14:15:21.000Z</time>
      </trkpt>
      <trkpt lat="42.60655" lon="1.68133">
        <ele>2173.1999511719</ele>
        <time>2023-07-20T14:15:27.000Z</time>
      </trkpt>
      <trkpt lat="42.60659" lon="1.68126">
        <ele>2172.8000488281</ele>
        <time>2023-07-20T14:15:35.000Z</time>
      </trkpt>
      <trkpt lat="42.60662" lon="1.68117">
        <ele>2172.3999023438</ele>
        <time>2023-07-20T14:15:41.000Z</time>
      </trkpt>
      <trkpt lat="42.60664" lon="1.68114">
        <ele>2172.1999511719</ele>
        <time>2023-07-20T14:15:45.000Z</time>
      </trkpt>
      <trkpt lat="42.60664" lon="1.68111">
        <ele>2172</ele>
        <time>2023-07-20T14:15:48.000Z</time>
      </trkpt>
      <trkpt lat="42.60665" lon="1.681">
        <ele>2172.1999511719</ele>
        <time>2023-07-20T14:15:56.000Z</time>
      </trkpt>
      <trkpt lat="42.60664" lon="1.6809">
        <ele>2172.3999023438</ele>
        <time>2023-07-20T14:16:04.000Z</time>
      </trkpt>
      <trkpt lat="42.60666" lon="1.68084">
        <ele>2172.6000976562</ele>
        <time>2023-07-20T14:16:10.000Z</time>
      </trkpt>
      <trkpt lat="42.60668" lon="1.68076">
        <ele>2172.1999511719</ele>
        <time>2023-07-20T14:16:17.000Z</time>
      </trkpt>
      <trkpt lat="42.60672" lon="1.6807">
        <ele>2171.6000976562</ele>
        <time>2023-07-20T14:16:26.000Z</time>
      </trkpt>
      <trkpt lat="42.60675" lon="1.68064">
        <ele>2171.1999511719</ele>
        <time>2023-07-20T14:16:31.000Z</time>
      </trkpt>
      <trkpt lat="42.60677" lon="1.68059">
        <ele>2169.8000488281</ele>
        <time>2023-07-20T14:16:35.000Z</time>
      </trkpt>
      <trkpt lat="42.60679" lon="1.68045">
        <ele>2169.1999511719</ele>
        <time>2023-07-20T14:16:45.000Z</time>
      </trkpt>
      <trkpt lat="42.60681" lon="1.68034">
        <ele>2169.6000976562</ele>
        <time>2023-07-20T14:16:53.000Z</time>
      </trkpt>
      <trkpt lat="42.60682" lon="1.68027">
        <ele>2169.8000488281</ele>
        <time>2023-07-20T14:17:01.000Z</time>
      </trkpt>
      <trkpt lat="42.60683" lon="1.68026">
        <ele>2170</ele>
        <time>2023-07-20T14:17:08.000Z</time>
      </trkpt>
      <trkpt lat="42.60683" lon="1.68026">
        <ele>2169.8000488281</ele>
        <time>2023-07-20T14:17:09.000Z</time>
      </trkpt>
      <trkpt lat="42.60681" lon="1.68025">
        <ele>2169.8000488281</ele>
        <time>2023-07-20T14:17:16.000Z</time>
      </trkpt>
      <trkpt lat="42.60682" lon="1.68026">
        <ele>2168.8000488281</ele>
        <time>2023-07-20T14:17:20.000Z</time>
      </trkpt>
      <trkpt lat="42.60681" lon="1.68025">
        <ele>2168.8000488281</ele>
        <time>2023-07-20T14:17:24.000Z</time>
      </trkpt>
      <trkpt lat="42.60682" lon="1.68026">
        <ele>2168.8000488281</ele>
        <time>2023-07-20T14:17:33.000Z</time>
      </trkpt>
      <trkpt lat="42.60684" lon="1.68025">
        <ele>2168.1999511719</ele>
        <time>2023-07-20T14:17:42.000Z</time>
      </trkpt>
      <trkpt lat="42.60683" lon="1.68028">
        <ele>2168</ele>
        <time>2023-07-20T14:17:52.000Z</time>
      </trkpt>
      <trkpt lat="42.60682" lon="1.68028">
        <ele>2167.8000488281</ele>
        <time>2023-07-20T14:17:54.000Z</time>
      </trkpt>
      <trkpt lat="42.60684" lon="1.68022">
        <ele>2167.8000488281</ele>
        <time>2023-07-20T14:17:59.000Z</time>
      </trkpt>
      <trkpt lat="42.60685" lon="1.68014">
        <ele>2167.6000976562</ele>
        <time>2023-07-20T14:18:08.000Z</time>
      </trkpt>
      <trkpt lat="42.60686" lon="1.68009">
        <ele>2166.3999023438</ele>
        <time>2023-07-20T14:18:15.000Z</time>
      </trkpt>
      <trkpt lat="42.60687" lon="1.68007">
        <ele>2165.3999023438</ele>
        <time>2023-07-20T14:18:17.000Z</time>
      </trkpt>
      <trkpt lat="42.60687" lon="1.68007">
        <ele>2165.1999511719</ele>
        <time>2023-07-20T14:18:18.000Z</time>
      </trkpt>
      <trkpt lat="42.60687" lon="1.68006">
        <ele>2164</ele>
        <time>2023-07-20T14:18:22.000Z</time>
      </trkpt>
      <trkpt lat="42.60688" lon="1.68005">
        <ele>2163.8000488281</ele>
        <time>2023-07-20T14:18:24.000Z</time>
      </trkpt>
      <trkpt lat="42.60692" lon="1.68001">
        <ele>2163.6000976562</ele>
        <time>2023-07-20T14:18:30.000Z</time>
      </trkpt>
      <trkpt lat="42.60698" lon="1.67997">
        <ele>2163.1999511719</ele>
        <time>2023-07-20T14:18:37.000Z</time>
      </trkpt>
      <trkpt lat="42.60698" lon="1.67996">
        <ele>2162.8000488281</ele>
        <time>2023-07-20T14:18:38.000Z</time>
      </trkpt>
      <trkpt lat="42.607" lon="1.67988">
        <ele>2161.8000488281</ele>
        <time>2023-07-20T14:18:44.000Z</time>
      </trkpt>
      <trkpt lat="42.607" lon="1.67983">
        <ele>2161.8000488281</ele>
        <time>2023-07-20T14:18:47.000Z</time>
      </trkpt>
      <trkpt lat="42.60701" lon="1.67976">
        <ele>2161.3999023438</ele>
        <time>2023-07-20T14:18:52.000Z</time>
      </trkpt>
      <trkpt lat="42.60702" lon="1.67967">
        <ele>2160.3999023438</ele>
        <time>2023-07-20T14:18:58.000Z</time>
      </trkpt>
      <trkpt lat="42.60703" lon="1.67966">
        <ele>2160</ele>
        <time>2023-07-20T14:18:59.000Z</time>
      </trkpt>
      <trkpt lat="42.60705" lon="1.67957">
        <ele>2159.8000488281</ele>
        <time>2023-07-20T14:19:07.000Z</time>
      </trkpt>
      <trkpt lat="42.60708" lon="1.67948">
        <ele>2159.3999023438</ele>
        <time>2023-07-20T14:19:14.000Z</time>
      </trkpt>
      <trkpt lat="42.60708" lon="1.67947">
        <ele>2159.3999023438</ele>
        <time>2023-07-20T14:19:15.000Z</time>
      </trkpt>
      <trkpt lat="42.6071" lon="1.67939">
        <ele>2159.3999023438</ele>
        <time>2023-07-20T14:19:22.000Z</time>
      </trkpt>
      <trkpt lat="42.6071" lon="1.67931">
        <ele>2159.8000488281</ele>
        <time>2023-07-20T14:19:29.000Z</time>
      </trkpt>
      <trkpt lat="42.60708" lon="1.67924">
        <ele>2160.3999023438</ele>
        <time>2023-07-20T14:19:34.000Z</time>
      </trkpt>
      <trkpt lat="42.60708" lon="1.6792">
        <ele>2161</ele>
        <time>2023-07-20T14:19:38.000Z</time>
      </trkpt>
      <trkpt lat="42.6071" lon="1.67914">
        <ele>2161.3999023438</ele>
        <time>2023-07-20T14:19:44.000Z</time>
      </trkpt>
      <trkpt lat="42.60711" lon="1.67912">
        <ele>2161.6000976562</ele>
        <time>2023-07-20T14:19:46.000Z</time>
      </trkpt>
      <trkpt lat="42.60714" lon="1.67903">
        <ele>2162.3999023438</ele>
        <time>2023-07-20T14:19:54.000Z</time>
      </trkpt>
      <trkpt lat="42.60714" lon="1.67902">
        <ele>2162.3999023438</ele>
        <time>2023-07-20T14:19:55.000Z</time>
      </trkpt>
      <trkpt lat="42.60715" lon="1.67899">
        <ele>2163.1999511719</ele>
        <time>2023-07-20T14:20:01.000Z</time>
      </trkpt>
      <trkpt lat="42.60716" lon="1.67893">
        <ele>2163.6000976562</ele>
        <time>2023-07-20T14:20:09.000Z</time>
      </trkpt>
      <trkpt lat="42.60717" lon="1.67893">
        <ele>2163.8000488281</ele>
        <time>2023-07-20T14:20:10.000Z</time>
      </trkpt>
      <trkpt lat="42.60718" lon="1.6789">
        <ele>2164.6000976562</ele>
        <time>2023-07-20T14:20:15.000Z</time>
      </trkpt>
      <trkpt lat="42.60719" lon="1.67888">
        <ele>2164.8000488281</ele>
        <time>2023-07-20T14:20:18.000Z</time>
      </trkpt>
      <trkpt lat="42.6072" lon="1.67886">
        <ele>2165.1999511719</ele>
        <time>2023-07-20T14:20:25.000Z</time>
      </trkpt>
      <trkpt lat="42.6072" lon="1.67882">
        <ele>2165.8000488281</ele>
        <time>2023-07-20T14:20:31.000Z</time>
      </trkpt>
      <trkpt lat="42.60721" lon="1.6788">
        <ele>2166.1999511719</ele>
        <time>2023-07-20T14:20:33.000Z</time>
      </trkpt>
      <trkpt lat="42.60724" lon="1.67874">
        <ele>2166.3999023438</ele>
        <time>2023-07-20T14:20:41.000Z</time>
      </trkpt>
      <trkpt lat="42.60726" lon="1.67871">
        <ele>2166.8000488281</ele>
        <time>2023-07-20T14:20:45.000Z</time>
      </trkpt>
      <trkpt lat="42.60728" lon="1.67871">
        <ele>2167.8000488281</ele>
        <time>2023-07-20T14:20:50.000Z</time>
      </trkpt>
      <trkpt lat="42.60731" lon="1.67868">
        <ele>2168.3999023438</ele>
        <time>2023-07-20T14:20:56.000Z</time>
      </trkpt>
      <trkpt lat="42.60732" lon="1.67866">
        <ele>2169</ele>
        <time>2023-07-20T14:21:01.000Z</time>
      </trkpt>
      <trkpt lat="42.60732" lon="1.67864">
        <ele>2170.1999511719</ele>
        <time>2023-07-20T14:21:07.000Z</time>
      </trkpt>
      <trkpt lat="42.60732" lon="1.67863">
        <ele>2170.3999023438</ele>
        <time>2023-07-20T14:21:09.000Z</time>
      </trkpt>
      <trkpt lat="42.60732" lon="1.67861">
        <ele>2171.1999511719</ele>
        <time>2023-07-20T14:21:13.000Z</time>
      </trkpt>
      <trkpt lat="42.60733" lon="1.67859">
        <ele>2171.8000488281</ele>
        <time>2023-07-20T14:21:18.000Z</time>
      </trkpt>
      <trkpt lat="42.60736" lon="1.67856">
        <ele>2172</ele>
        <time>2023-07-20T14:21:26.000Z</time>
      </trkpt>
      <trkpt lat="42.60737" lon="1.67854">
        <ele>2172.1999511719</ele>
        <time>2023-07-20T14:21:31.000Z</time>
      </trkpt>
      <trkpt lat="42.60739" lon="1.67853">
        <ele>2172.8000488281</ele>
        <time>2023-07-20T14:21:35.000Z</time>
      </trkpt>
      <trkpt lat="42.6074" lon="1.67852">
        <ele>2173.3999023438</ele>
        <time>2023-07-20T14:21:39.000Z</time>
      </trkpt>
      <trkpt lat="42.6074" lon="1.67852">
        <ele>2173.6000976562</ele>
        <time>2023-07-20T14:21:44.000Z</time>
      </trkpt>
      <trkpt lat="42.60739" lon="1.67848">
        <ele>2173.3999023438</ele>
        <time>2023-07-20T14:21:53.000Z</time>
      </trkpt>
      <trkpt lat="42.6074" lon="1.67845">
        <ele>2174.3999023438</ele>
        <time>2023-07-20T14:21:58.000Z</time>
      </trkpt>
      <trkpt lat="42.6074" lon="1.67843">
        <ele>2175.3999023438</ele>
        <time>2023-07-20T14:22:01.000Z</time>
      </trkpt>
      <trkpt lat="42.6074" lon="1.67842">
        <ele>2175.6000976562</ele>
        <time>2023-07-20T14:22:02.000Z</time>
      </trkpt>
      <trkpt lat="42.60741" lon="1.67838">
        <ele>2176.3999023438</ele>
        <time>2023-07-20T14:22:08.000Z</time>
      </trkpt>
      <trkpt lat="42.60741" lon="1.67837">
        <ele>2176.6000976562</ele>
        <time>2023-07-20T14:22:09.000Z</time>
      </trkpt>
      <trkpt lat="42.60743" lon="1.67835">
        <ele>2177.8000488281</ele>
        <time>2023-07-20T14:22:14.000Z</time>
      </trkpt>
      <trkpt lat="42.60745" lon="1.67832">
        <ele>2178.8000488281</ele>
        <time>2023-07-20T14:22:19.000Z</time>
      </trkpt>
      <trkpt lat="42.60745" lon="1.67831">
        <ele>2179.1999511719</ele>
        <time>2023-07-20T14:22:21.000Z</time>
      </trkpt>
      <trkpt lat="42.60745" lon="1.67831">
        <ele>2179.6000976562</ele>
        <time>2023-07-20T14:22:30.000Z</time>
      </trkpt>
      <trkpt lat="42.60745" lon="1.67831">
        <ele>2179.3999023438</ele>
        <time>2023-07-20T14:22:39.000Z</time>
      </trkpt>
      <trkpt lat="42.60747" lon="1.67827">
        <ele>2179.6000976562</ele>
        <time>2023-07-20T14:22:46.000Z</time>
      </trkpt>
      <trkpt lat="42.60747" lon="1.67827">
        <ele>2180</ele>
        <time>2023-07-20T14:22:47.000Z</time>
      </trkpt>
      <trkpt lat="42.60747" lon="1.67825">
        <ele>2181</ele>
        <time>2023-07-20T14:22:52.000Z</time>
      </trkpt>
      <trkpt lat="42.60747" lon="1.67825">
        <ele>2181.1999511719</ele>
        <time>2023-07-20T14:22:53.000Z</time>
      </trkpt>
      <trkpt lat="42.60747" lon="1.67822">
        <ele>2182</ele>
        <time>2023-07-20T14:22:57.000Z</time>
      </trkpt>
      <trkpt lat="42.60749" lon="1.67817">
        <ele>2182.8000488281</ele>
        <time>2023-07-20T14:23:02.000Z</time>
      </trkpt>
      <trkpt lat="42.60753" lon="1.67811">
        <ele>2183</ele>
        <time>2023-07-20T14:23:11.000Z</time>
      </trkpt>
      <trkpt lat="42.60753" lon="1.67811">
        <ele>2183.3999023438</ele>
        <time>2023-07-20T14:23:13.000Z</time>
      </trkpt>
      <trkpt lat="42.60754" lon="1.6781">
        <ele>2184</ele>
        <time>2023-07-20T14:23:17.000Z</time>
      </trkpt>
      <trkpt lat="42.60755" lon="1.67808">
        <ele>2184.8000488281</ele>
        <time>2023-07-20T14:23:22.000Z</time>
      </trkpt>
      <trkpt lat="42.60756" lon="1.67807">
        <ele>2185.1999511719</ele>
        <time>2023-07-20T14:23:23.000Z</time>
      </trkpt>
      <trkpt lat="42.60759" lon="1.678">
        <ele>2185.8000488281</ele>
        <time>2023-07-20T14:23:32.000Z</time>
      </trkpt>
      <trkpt lat="42.60757" lon="1.67799">
        <ele>2186.1999511719</ele>
        <time>2023-07-20T14:23:37.000Z</time>
      </trkpt>
      <trkpt lat="42.60756" lon="1.67799">
        <ele>2186.8000488281</ele>
        <time>2023-07-20T14:23:41.000Z</time>
      </trkpt>
      <trkpt lat="42.60758" lon="1.678">
        <ele>2187.1999511719</ele>
        <time>2023-07-20T14:23:46.000Z</time>
      </trkpt>
      <trkpt lat="42.60758" lon="1.678">
        <ele>2187.1999511719</ele>
        <time>2023-07-20T14:23:49.000Z</time>
      </trkpt>
      <trkpt lat="42.6076" lon="1.67794">
        <ele>2188.1999511719</ele>
        <time>2023-07-20T14:23:56.000Z</time>
      </trkpt>
      <trkpt lat="42.6076" lon="1.67793">
        <ele>2188.3999023438</ele>
        <time>2023-07-20T14:23:57.000Z</time>
      </trkpt>
      <trkpt lat="42.60761" lon="1.67785">
        <ele>2189.3999023438</ele>
        <time>2023-07-20T14:24:07.000Z</time>
      </trkpt>
      <trkpt lat="42.60764" lon="1.67781">
        <ele>2190.3999023438</ele>
        <time>2023-07-20T14:24:14.000Z</time>
      </trkpt>
      <trkpt lat="42.60764" lon="1.6778">
        <ele>2190.6000976562</ele>
        <time>2023-07-20T14:24:15.000Z</time>
      </trkpt>
      <trkpt lat="42.60766" lon="1.67774">
        <ele>2191.6000976562</ele>
        <time>2023-07-20T14:24:22.000Z</time>
      </trkpt>
      <trkpt lat="42.60767" lon="1.6777">
        <ele>2192.1999511719</ele>
        <time>2023-07-20T14:24:27.000Z</time>
      </trkpt>
      <trkpt lat="42.60768" lon="1.67769">
        <ele>2192.6000976562</ele>
        <time>2023-07-20T14:24:29.000Z</time>
      </trkpt>
      <trkpt lat="42.60771" lon="1.67767">
        <ele>2193.3999023438</ele>
        <time>2023-07-20T14:24:35.000Z</time>
      </trkpt>
      <trkpt lat="42.60772" lon="1.67767">
        <ele>2193.6000976562</ele>
        <time>2023-07-20T14:24:36.000Z</time>
      </trkpt>
      <trkpt lat="42.60774" lon="1.67763">
        <ele>2193.6000976562</ele>
        <time>2023-07-20T14:24:42.000Z</time>
      </trkpt>
      <trkpt lat="42.60775" lon="1.67756">
        <ele>2194</ele>
        <time>2023-07-20T14:24:51.000Z</time>
      </trkpt>
      <trkpt lat="42.60777" lon="1.67754">
        <ele>2193.8000488281</ele>
        <time>2023-07-20T14:24:58.000Z</time>
      </trkpt>
      <trkpt lat="42.60781" lon="1.67749">
        <ele>2194.6000976562</ele>
        <time>2023-07-20T14:25:07.000Z</time>
      </trkpt>
      <trkpt lat="42.60782" lon="1.67744">
        <ele>2195.6000976562</ele>
        <time>2023-07-20T14:25:14.000Z</time>
      </trkpt>
      <trkpt lat="42.60781" lon="1.67741">
        <ele>2196.8000488281</ele>
        <time>2023-07-20T14:25:22.000Z</time>
      </trkpt>
      <trkpt lat="42.60782" lon="1.67741">
        <ele>2197</ele>
        <time>2023-07-20T14:25:23.000Z</time>
      </trkpt>
      <trkpt lat="42.60785" lon="1.67739">
        <ele>2198</ele>
        <time>2023-07-20T14:25:31.000Z</time>
      </trkpt>
      <trkpt lat="42.60786" lon="1.67738">
        <ele>2198.3999023438</ele>
        <time>2023-07-20T14:25:33.000Z</time>
      </trkpt>
      <trkpt lat="42.60788" lon="1.67737">
        <ele>2199</ele>
        <time>2023-07-20T14:25:37.000Z</time>
      </trkpt>
      <trkpt lat="42.60789" lon="1.67737">
        <ele>2199.8000488281</ele>
        <time>2023-07-20T14:25:41.000Z</time>
      </trkpt>
      <trkpt lat="42.60789" lon="1.67736">
        <ele>2200</ele>
        <time>2023-07-20T14:25:43.000Z</time>
      </trkpt>
      <trkpt lat="42.60787" lon="1.67735">
        <ele>2200.8000488281</ele>
        <time>2023-07-20T14:25:50.000Z</time>
      </trkpt>
      <trkpt lat="42.60787" lon="1.67734">
        <ele>2201</ele>
        <time>2023-07-20T14:25:53.000Z</time>
      </trkpt>
      <trkpt lat="42.60789" lon="1.67733">
        <ele>2202.1999511719</ele>
        <time>2023-07-20T14:25:58.000Z</time>
      </trkpt>
      <trkpt lat="42.60789" lon="1.67733">
        <ele>2202.3999023438</ele>
        <time>2023-07-20T14:25:59.000Z</time>
      </trkpt>
      <trkpt lat="42.6079" lon="1.6773">
        <ele>2203.1999511719</ele>
        <time>2023-07-20T14:26:05.000Z</time>
      </trkpt>
      <trkpt lat="42.60791" lon="1.67731">
        <ele>2203.3999023438</ele>
        <time>2023-07-20T14:26:06.000Z</time>
      </trkpt>
      <trkpt lat="42.60792" lon="1.6773">
        <ele>2204</ele>
        <time>2023-07-20T14:26:12.000Z</time>
      </trkpt>
      <trkpt lat="42.60793" lon="1.67728">
        <ele>2204.3999023438</ele>
        <time>2023-07-20T14:26:15.000Z</time>
      </trkpt>
      <trkpt lat="42.60794" lon="1.67727">
        <ele>2205</ele>
        <time>2023-07-20T14:26:20.000Z</time>
      </trkpt>
      <trkpt lat="42.60795" lon="1.67727">
        <ele>2205.6000976562</ele>
        <time>2023-07-20T14:26:24.000Z</time>
      </trkpt>
      <trkpt lat="42.60795" lon="1.67726">
        <ele>2206</ele>
        <time>2023-07-20T14:26:26.000Z</time>
      </trkpt>
      <trkpt lat="42.60796" lon="1.67724">
        <ele>2206.8000488281</ele>
        <time>2023-07-20T14:26:33.000Z</time>
      </trkpt>
      <trkpt lat="42.60796" lon="1.67724">
        <ele>2206.8000488281</ele>
        <time>2023-07-20T14:26:35.000Z</time>
      </trkpt>
      <trkpt lat="42.60798" lon="1.67721">
        <ele>2207.6000976562</ele>
        <time>2023-07-20T14:26:43.000Z</time>
      </trkpt>
      <trkpt lat="42.60798" lon="1.6772">
        <ele>2207.8000488281</ele>
        <time>2023-07-20T14:26:44.000Z</time>
      </trkpt>
      <trkpt lat="42.60799" lon="1.67718">
        <ele>2209</ele>
        <time>2023-07-20T14:26:49.000Z</time>
      </trkpt>
      <trkpt lat="42.608" lon="1.67718">
        <ele>2209.3999023438</ele>
        <time>2023-07-20T14:26:52.000Z</time>
      </trkpt>
      <trkpt lat="42.60801" lon="1.67717">
        <ele>2210</ele>
        <time>2023-07-20T14:26:55.000Z</time>
      </trkpt>
      <trkpt lat="42.60803" lon="1.67717">
        <ele>2211.1999511719</ele>
        <time>2023-07-20T14:26:59.000Z</time>
      </trkpt>
      <trkpt lat="42.60803" lon="1.67717">
        <ele>2211.1999511719</ele>
        <time>2023-07-20T14:27:00.000Z</time>
      </trkpt>
      <trkpt lat="42.60803" lon="1.67718">
        <ele>2211.3999023438</ele>
        <time>2023-07-20T14:27:08.000Z</time>
      </trkpt>
      <trkpt lat="42.60803" lon="1.67719">
        <ele>2212.1999511719</ele>
        <time>2023-07-20T14:27:14.000Z</time>
      </trkpt>
      <trkpt lat="42.60804" lon="1.67719">
        <ele>2213</ele>
        <time>2023-07-20T14:27:18.000Z</time>
      </trkpt>
      <trkpt lat="42.60804" lon="1.67719">
        <ele>2213.1999511719</ele>
        <time>2023-07-20T14:27:20.000Z</time>
      </trkpt>
      <trkpt lat="42.60806" lon="1.67719">
        <ele>2214</ele>
        <time>2023-07-20T14:27:25.000Z</time>
      </trkpt>
      <trkpt lat="42.60807" lon="1.67721">
        <ele>2214.1999511719</ele>
        <time>2023-07-20T14:27:30.000Z</time>
      </trkpt>
      <trkpt lat="42.60807" lon="1.67718">
        <ele>2214.6000976562</ele>
        <time>2023-07-20T14:27:33.000Z</time>
      </trkpt>
      <trkpt lat="42.60806" lon="1.67718">
        <ele>2215.1999511719</ele>
        <time>2023-07-20T14:27:37.000Z</time>
      </trkpt>
      <trkpt lat="42.60806" lon="1.67718">
        <ele>2215.3999023438</ele>
        <time>2023-07-20T14:27:42.000Z</time>
      </trkpt>
      <trkpt lat="42.60807" lon="1.67718">
        <ele>2215.3999023438</ele>
        <time>2023-07-20T14:27:50.000Z</time>
      </trkpt>
      <trkpt lat="42.60807" lon="1.67722">
        <ele>2215.3999023438</ele>
        <time>2023-07-20T14:27:59.000Z</time>
      </trkpt>
      <trkpt lat="42.60809" lon="1.67724">
        <ele>2216.3999023438</ele>
        <time>2023-07-20T14:28:04.000Z</time>
      </trkpt>
      <trkpt lat="42.6081" lon="1.67722">
        <ele>2217</ele>
        <time>2023-07-20T14:28:07.000Z</time>
      </trkpt>
      <trkpt lat="42.6081" lon="1.6772">
        <ele>2217.6000976562</ele>
        <time>2023-07-20T14:28:09.000Z</time>
      </trkpt>
      <trkpt lat="42.60811" lon="1.67719">
        <ele>2218.1999511719</ele>
        <time>2023-07-20T14:28:14.000Z</time>
      </trkpt>
      <trkpt lat="42.60811" lon="1.67718">
        <ele>2218.6000976562</ele>
        <time>2023-07-20T14:28:16.000Z</time>
      </trkpt>
      <trkpt lat="42.60811" lon="1.67716">
        <ele>2218.6000976562</ele>
        <time>2023-07-20T14:28:21.000Z</time>
      </trkpt>
      <trkpt lat="42.6081" lon="1.67712">
        <ele>2218.8000488281</ele>
        <time>2023-07-20T14:28:27.000Z</time>
      </trkpt>
      <trkpt lat="42.60809" lon="1.67704">
        <ele>2219.1999511719</ele>
        <time>2023-07-20T14:28:34.000Z</time>
      </trkpt>
      <trkpt lat="42.60807" lon="1.67702">
        <ele>2219.6000976562</ele>
        <time>2023-07-20T14:28:37.000Z</time>
      </trkpt>
      <trkpt lat="42.60808" lon="1.67698">
        <ele>2220</ele>
        <time>2023-07-20T14:28:42.000Z</time>
      </trkpt>
      <trkpt lat="42.60809" lon="1.67695">
        <ele>2221</ele>
        <time>2023-07-20T14:28:47.000Z</time>
      </trkpt>
      <trkpt lat="42.60809" lon="1.67694">
        <ele>2221.8000488281</ele>
        <time>2023-07-20T14:28:51.000Z</time>
      </trkpt>
      <trkpt lat="42.60809" lon="1.67694">
        <ele>2222</ele>
        <time>2023-07-20T14:28:53.000Z</time>
      </trkpt>
      <trkpt lat="42.60807" lon="1.67691">
        <ele>2222.1999511719</ele>
        <time>2023-07-20T14:28:58.000Z</time>
      </trkpt>
      <trkpt lat="42.60805" lon="1.67684">
        <ele>2222.1999511719</ele>
        <time>2023-07-20T14:29:05.000Z</time>
      </trkpt>
      <trkpt lat="42.60804" lon="1.67682">
        <ele>2222.1999511719</ele>
        <time>2023-07-20T14:29:10.000Z</time>
      </trkpt>
      <trkpt lat="42.60804" lon="1.67679">
        <ele>2221.8000488281</ele>
        <time>2023-07-20T14:29:19.000Z</time>
      </trkpt>
      <trkpt lat="42.60804" lon="1.67676">
        <ele>2223.1999511719</ele>
        <time>2023-07-20T14:29:23.000Z</time>
      </trkpt>
      <trkpt lat="42.60803" lon="1.67674">
        <ele>2224</ele>
        <time>2023-07-20T14:29:27.000Z</time>
      </trkpt>
      <trkpt lat="42.60801" lon="1.67667">
        <ele>2224.3999023438</ele>
        <time>2023-07-20T14:29:35.000Z</time>
      </trkpt>
      <trkpt lat="42.60801" lon="1.67663">
        <ele>2224.8000488281</ele>
        <time>2023-07-20T14:29:42.000Z</time>
      </trkpt>
      <trkpt lat="42.60803" lon="1.67661">
        <ele>2225.3999023438</ele>
        <time>2023-07-20T14:29:48.000Z</time>
      </trkpt>
      <trkpt lat="42.60804" lon="1.67659">
        <ele>2226.1999511719</ele>
        <time>2023-07-20T14:29:50.000Z</time>
      </trkpt>
      <trkpt lat="42.60804" lon="1.67657">
        <ele>2226.6000976562</ele>
        <time>2023-07-20T14:29:51.000Z</time>
      </trkpt>
      <trkpt lat="42.60804" lon="1.67656">
        <ele>2227</ele>
        <time>2023-07-20T14:29:59.000Z</time>
      </trkpt>
      <trkpt lat="42.60803" lon="1.67657">
        <ele>2227.6000976562</ele>
        <time>2023-07-20T14:30:08.000Z</time>
      </trkpt>
      <trkpt lat="42.60801" lon="1.67653">
        <ele>2227.8000488281</ele>
        <time>2023-07-20T14:30:15.000Z</time>
      </trkpt>
      <trkpt lat="42.608" lon="1.67646">
        <ele>2228.1999511719</ele>
        <time>2023-07-20T14:30:23.000Z</time>
      </trkpt>
      <trkpt lat="42.60796" lon="1.67643">
        <ele>2227.8000488281</ele>
        <time>2023-07-20T14:30:31.000Z</time>
      </trkpt>
      <trkpt lat="42.60795" lon="1.67634">
        <ele>2228.1999511719</ele>
        <time>2023-07-20T14:30:38.000Z</time>
      </trkpt>
      <trkpt lat="42.60795" lon="1.67627">
        <ele>2228.3999023438</ele>
        <time>2023-07-20T14:30:44.000Z</time>
      </trkpt>
      <trkpt lat="42.60795" lon="1.67625">
        <ele>2228.6000976562</ele>
        <time>2023-07-20T14:30:45.000Z</time>
      </trkpt>
      <trkpt lat="42.60795" lon="1.67618">
        <ele>2229.6000976562</ele>
        <time>2023-07-20T14:30:52.000Z</time>
      </trkpt>
      <trkpt lat="42.60796" lon="1.67616">
        <ele>2229.6000976562</ele>
        <time>2023-07-20T14:30:54.000Z</time>
      </trkpt>
      <trkpt lat="42.60796" lon="1.6761">
        <ele>2230.8000488281</ele>
        <time>2023-07-20T14:31:00.000Z</time>
      </trkpt>
      <trkpt lat="42.60796" lon="1.676">
        <ele>2231.3999023438</ele>
        <time>2023-07-20T14:31:08.000Z</time>
      </trkpt>
      <trkpt lat="42.60794" lon="1.67594">
        <ele>2231</ele>
        <time>2023-07-20T14:31:14.000Z</time>
      </trkpt>
      <trkpt lat="42.60794" lon="1.67586">
        <ele>2231.3999023438</ele>
        <time>2023-07-20T14:31:22.000Z</time>
      </trkpt>
      <trkpt lat="42.60794" lon="1.6758">
        <ele>2231.8000488281</ele>
        <time>2023-07-20T14:31:27.000Z</time>
      </trkpt>
      <trkpt lat="42.60795" lon="1.67576">
        <ele>2232.1999511719</ele>
        <time>2023-07-20T14:31:31.000Z</time>
      </trkpt>
      <trkpt lat="42.60798" lon="1.67568">
        <ele>2232.6000976562</ele>
        <time>2023-07-20T14:31:40.000Z</time>
      </trkpt>
      <trkpt lat="42.60801" lon="1.67562">
        <ele>2232.6000976562</ele>
        <time>2023-07-20T14:31:46.000Z</time>
      </trkpt>
      <trkpt lat="42.60802" lon="1.67561">
        <ele>2233</ele>
        <time>2023-07-20T14:31:48.000Z</time>
      </trkpt>
      <trkpt lat="42.60803" lon="1.67556">
        <ele>2234</ele>
        <time>2023-07-20T14:31:53.000Z</time>
      </trkpt>
      <trkpt lat="42.60805" lon="1.67551">
        <ele>2234.6000976562</ele>
        <time>2023-07-20T14:32:00.000Z</time>
      </trkpt>
      <trkpt lat="42.60808" lon="1.67546">
        <ele>2234.8000488281</ele>
        <time>2023-07-20T14:32:08.000Z</time>
      </trkpt>
      <trkpt lat="42.60809" lon="1.67545">
        <ele>2235.3999023438</ele>
        <time>2023-07-20T14:32:09.000Z</time>
      </trkpt>
      <trkpt lat="42.60811" lon="1.67541">
        <ele>2236.3999023438</ele>
        <time>2023-07-20T14:32:15.000Z</time>
      </trkpt>
      <trkpt lat="42.60811" lon="1.67541">
        <ele>2236.6000976562</ele>
        <time>2023-07-20T14:32:16.000Z</time>
      </trkpt>
      <trkpt lat="42.60814" lon="1.67534">
        <ele>2237.3999023438</ele>
        <time>2023-07-20T14:32:24.000Z</time>
      </trkpt>
      <trkpt lat="42.60814" lon="1.67533">
        <ele>2237.8000488281</ele>
        <time>2023-07-20T14:32:25.000Z</time>
      </trkpt>
      <trkpt lat="42.60815" lon="1.67527">
        <ele>2238.3999023438</ele>
        <time>2023-07-20T14:32:33.000Z</time>
      </trkpt>
      <trkpt lat="42.60815" lon="1.67527">
        <ele>2238.6000976562</ele>
        <time>2023-07-20T14:32:34.000Z</time>
      </trkpt>
      <trkpt lat="42.60817" lon="1.67523">
        <ele>2238.1999511719</ele>
        <time>2023-07-20T14:32:43.000Z</time>
      </trkpt>
      <trkpt lat="42.60819" lon="1.67518">
        <ele>2240</ele>
        <time>2023-07-20T14:32:49.000Z</time>
      </trkpt>
      <trkpt lat="42.60819" lon="1.67517">
        <ele>2240</ele>
        <time>2023-07-20T14:32:50.000Z</time>
      </trkpt>
      <trkpt lat="42.60821" lon="1.67506">
        <ele>2240</ele>
        <time>2023-07-20T14:33:00.000Z</time>
      </trkpt>
      <trkpt lat="42.60825" lon="1.675">
        <ele>2239.8000488281</ele>
        <time>2023-07-20T14:33:07.000Z</time>
      </trkpt>
      <trkpt lat="42.60826" lon="1.67494">
        <ele>2239.8000488281</ele>
        <time>2023-07-20T14:33:16.000Z</time>
      </trkpt>
      <trkpt lat="42.60829" lon="1.67486">
        <ele>2240.8000488281</ele>
        <time>2023-07-20T14:33:24.000Z</time>
      </trkpt>
      <trkpt lat="42.60831" lon="1.67476">
        <ele>2239.8000488281</ele>
        <time>2023-07-20T14:33:31.000Z</time>
      </trkpt>
      <trkpt lat="42.60834" lon="1.67464">
        <ele>2239.6000976562</ele>
        <time>2023-07-20T14:33:39.000Z</time>
      </trkpt>
      <trkpt lat="42.60836" lon="1.67457">
        <ele>2239</ele>
        <time>2023-07-20T14:33:44.000Z</time>
      </trkpt>
      <trkpt lat="42.60837" lon="1.67456">
        <ele>2239</ele>
        <time>2023-07-20T14:33:45.000Z</time>
      </trkpt>
      <trkpt lat="42.6084" lon="1.67448">
        <ele>2239.1999511719</ele>
        <time>2023-07-20T14:33:54.000Z</time>
      </trkpt>
      <trkpt lat="42.60844" lon="1.6744">
        <ele>2240</ele>
        <time>2023-07-20T14:34:01.000Z</time>
      </trkpt>
      <trkpt lat="42.60845" lon="1.67438">
        <ele>2240.3999023438</ele>
        <time>2023-07-20T14:34:04.000Z</time>
      </trkpt>
      <trkpt lat="42.6085" lon="1.67432">
        <ele>2240.6000976562</ele>
        <time>2023-07-20T14:34:11.000Z</time>
      </trkpt>
      <trkpt lat="42.60854" lon="1.67419">
        <ele>2240.6000976562</ele>
        <time>2023-07-20T14:34:19.000Z</time>
      </trkpt>
      <trkpt lat="42.60858" lon="1.67413">
        <ele>2240.8000488281</ele>
        <time>2023-07-20T14:34:27.000Z</time>
      </trkpt>
      <trkpt lat="42.6086" lon="1.67409">
        <ele>2241.1999511719</ele>
        <time>2023-07-20T14:34:34.000Z</time>
      </trkpt>
      <trkpt lat="42.6086" lon="1.67408">
        <ele>2241.8000488281</ele>
        <time>2023-07-20T14:34:35.000Z</time>
      </trkpt>
      <trkpt lat="42.60861" lon="1.67407">
        <ele>2242.1999511719</ele>
        <time>2023-07-20T14:34:36.000Z</time>
      </trkpt>
      <trkpt lat="42.60861" lon="1.67402">
        <ele>2243</ele>
        <time>2023-07-20T14:34:42.000Z</time>
      </trkpt>
      <trkpt lat="42.60861" lon="1.67402">
        <ele>2243.1999511719</ele>
        <time>2023-07-20T14:34:43.000Z</time>
      </trkpt>
      <trkpt lat="42.60865" lon="1.67396">
        <ele>2244.1999511719</ele>
        <time>2023-07-20T14:34:51.000Z</time>
      </trkpt>
      <trkpt lat="42.60866" lon="1.67394">
        <ele>2244.3999023438</ele>
        <time>2023-07-20T14:34:52.000Z</time>
      </trkpt>
      <trkpt lat="42.60869" lon="1.67389">
        <ele>2245.3999023438</ele>
        <time>2023-07-20T14:34:59.000Z</time>
      </trkpt>
      <trkpt lat="42.60869" lon="1.67389">
        <ele>2245.3999023438</ele>
        <time>2023-07-20T14:35:00.000Z</time>
      </trkpt>
      <trkpt lat="42.60867" lon="1.67392">
        <ele>2245.6000976562</ele>
        <time>2023-07-20T14:35:09.000Z</time>
      </trkpt>
      <trkpt lat="42.60868" lon="1.67392">
        <ele>2244.6000976562</ele>
        <time>2023-07-20T14:35:18.000Z</time>
      </trkpt>
      <trkpt lat="42.60871" lon="1.67382">
        <ele>2244.3999023438</ele>
        <time>2023-07-20T14:35:25.000Z</time>
      </trkpt>
      <trkpt lat="42.60872" lon="1.6738">
        <ele>2244.1999511719</ele>
        <time>2023-07-20T14:35:26.000Z</time>
      </trkpt>
      <trkpt lat="42.60875" lon="1.67374">
        <ele>2244</ele>
        <time>2023-07-20T14:35:32.000Z</time>
      </trkpt>
      <trkpt lat="42.60878" lon="1.67367">
        <ele>2244.1999511719</ele>
        <time>2023-07-20T14:35:39.000Z</time>
      </trkpt>
      <trkpt lat="42.60881" lon="1.67357">
        <ele>2244.3999023438</ele>
        <time>2023-07-20T14:35:47.000Z</time>
      </trkpt>
      <trkpt lat="42.60885" lon="1.6735">
        <ele>2244.8000488281</ele>
        <time>2023-07-20T14:35:56.000Z</time>
      </trkpt>
      <trkpt lat="42.60888" lon="1.67343">
        <ele>2245</ele>
        <time>2023-07-20T14:36:03.000Z</time>
      </trkpt>
      <trkpt lat="42.60889" lon="1.6734">
        <ele>2245.3999023438</ele>
        <time>2023-07-20T14:36:07.000Z</time>
      </trkpt>
      <trkpt lat="42.6089" lon="1.67338">
        <ele>2245.8000488281</ele>
        <time>2023-07-20T14:36:10.000Z</time>
      </trkpt>
      <trkpt lat="42.60894" lon="1.67336">
        <ele>2246.3999023438</ele>
        <time>2023-07-20T14:36:15.000Z</time>
      </trkpt>
      <trkpt lat="42.60895" lon="1.67336">
        <ele>2246.6000976562</ele>
        <time>2023-07-20T14:36:16.000Z</time>
      </trkpt>
      <trkpt lat="42.60898" lon="1.67331">
        <ele>2247</ele>
        <time>2023-07-20T14:36:23.000Z</time>
      </trkpt>
      <trkpt lat="42.60899" lon="1.67327">
        <ele>2247.3999023438</ele>
        <time>2023-07-20T14:36:27.000Z</time>
      </trkpt>
      <trkpt lat="42.609" lon="1.67324">
        <ele>2247.6000976562</ele>
        <time>2023-07-20T14:36:30.000Z</time>
      </trkpt>
      <trkpt lat="42.60902" lon="1.67321">
        <ele>2248.6000976562</ele>
        <time>2023-07-20T14:36:36.000Z</time>
      </trkpt>
      <trkpt lat="42.60902" lon="1.6732">
        <ele>2249</ele>
        <time>2023-07-20T14:36:38.000Z</time>
      </trkpt>
      <trkpt lat="42.60903" lon="1.67317">
        <ele>2249.8000488281</ele>
        <time>2023-07-20T14:36:41.000Z</time>
      </trkpt>
      <trkpt lat="42.60901" lon="1.67318">
        <ele>2250</ele>
        <time>2023-07-20T14:36:48.000Z</time>
      </trkpt>
      <trkpt lat="42.60901" lon="1.67313">
        <ele>2249.6000976562</ele>
        <time>2023-07-20T14:36:56.000Z</time>
      </trkpt>
      <trkpt lat="42.60903" lon="1.67309">
        <ele>2250.8000488281</ele>
        <time>2023-07-20T14:37:01.000Z</time>
      </trkpt>
      <trkpt lat="42.60904" lon="1.67309">
        <ele>2251.6000976562</ele>
        <time>2023-07-20T14:37:03.000Z</time>
      </trkpt>
      <trkpt lat="42.60904" lon="1.67308">
        <ele>2251.8000488281</ele>
        <time>2023-07-20T14:37:12.000Z</time>
      </trkpt>
      <trkpt lat="42.60905" lon="1.67307">
        <ele>2252</ele>
        <time>2023-07-20T14:37:15.000Z</time>
      </trkpt>
      <trkpt lat="42.60908" lon="1.67304">
        <ele>2253</ele>
        <time>2023-07-20T14:37:21.000Z</time>
      </trkpt>
      <trkpt lat="42.60912" lon="1.67305">
        <ele>2254</ele>
        <time>2023-07-20T14:37:29.000Z</time>
      </trkpt>
      <trkpt lat="42.60913" lon="1.67305">
        <ele>2254.1999511719</ele>
        <time>2023-07-20T14:37:30.000Z</time>
      </trkpt>
      <trkpt lat="42.60913" lon="1.67303">
        <ele>2255.1999511719</ele>
        <time>2023-07-20T14:37:35.000Z</time>
      </trkpt>
      <trkpt lat="42.60913" lon="1.673">
        <ele>2256.1999511719</ele>
        <time>2023-07-20T14:37:39.000Z</time>
      </trkpt>
      <trkpt lat="42.60914" lon="1.67299">
        <ele>2256.3999023438</ele>
        <time>2023-07-20T14:37:40.000Z</time>
      </trkpt>
      <trkpt lat="42.60915" lon="1.67297">
        <ele>2257.8000488281</ele>
        <time>2023-07-20T14:37:43.000Z</time>
      </trkpt>
      <trkpt lat="42.60916" lon="1.67298">
        <ele>2258.6000976562</ele>
        <time>2023-07-20T14:37:46.000Z</time>
      </trkpt>
      <trkpt lat="42.60916" lon="1.67298">
        <ele>2259</ele>
        <time>2023-07-20T14:37:47.000Z</time>
      </trkpt>
      <trkpt lat="42.6092" lon="1.67294">
        <ele>2258.8000488281</ele>
        <time>2023-07-20T14:37:53.000Z</time>
      </trkpt>
      <trkpt lat="42.60925" lon="1.6729">
        <ele>2258.1999511719</ele>
        <time>2023-07-20T14:38:01.000Z</time>
      </trkpt>
      <trkpt lat="42.60925" lon="1.6729">
        <ele>2258.1999511719</ele>
        <time>2023-07-20T14:38:02.000Z</time>
      </trkpt>
      <trkpt lat="42.60924" lon="1.6729">
        <ele>2258.6000976562</ele>
        <time>2023-07-20T14:38:10.000Z</time>
      </trkpt>
      <trkpt lat="42.60923" lon="1.67291">
        <ele>2258.1999511719</ele>
        <time>2023-07-20T14:38:20.000Z</time>
      </trkpt>
      <trkpt lat="42.60923" lon="1.67298">
        <ele>2258.3999023438</ele>
        <time>2023-07-20T14:38:28.000Z</time>
      </trkpt>
      <trkpt lat="42.60922" lon="1.67302">
        <ele>2258.3999023438</ele>
        <time>2023-07-20T14:38:35.000Z</time>
      </trkpt>
      <trkpt lat="42.6092" lon="1.67309">
        <ele>2259.6000976562</ele>
        <time>2023-07-20T14:38:43.000Z</time>
      </trkpt>
      <trkpt lat="42.6092" lon="1.67312">
        <ele>2257.6000976562</ele>
        <time>2023-07-20T14:38:47.000Z</time>
      </trkpt>
      <trkpt lat="42.6092" lon="1.67315">
        <ele>2257.6000976562</ele>
        <time>2023-07-20T14:38:50.000Z</time>
      </trkpt>
      <trkpt lat="42.60922" lon="1.67318">
        <ele>2258.1999511719</ele>
        <time>2023-07-20T14:38:56.000Z</time>
      </trkpt>
      <trkpt lat="42.60923" lon="1.67319">
        <ele>2259</ele>
        <time>2023-07-20T14:38:58.000Z</time>
      </trkpt>
      <trkpt lat="42.60927" lon="1.67319">
        <ele>2259.8000488281</ele>
        <time>2023-07-20T14:39:03.000Z</time>
      </trkpt>
      <trkpt lat="42.60928" lon="1.67321">
        <ele>2260</ele>
        <time>2023-07-20T14:39:07.000Z</time>
      </trkpt>
      <trkpt lat="42.60929" lon="1.67321">
        <ele>2260.8000488281</ele>
        <time>2023-07-20T14:39:10.000Z</time>
      </trkpt>
      <trkpt lat="42.60929" lon="1.67322">
        <ele>2261.3999023438</ele>
        <time>2023-07-20T14:39:11.000Z</time>
      </trkpt>
      <trkpt lat="42.6093" lon="1.67326">
        <ele>2262.3999023438</ele>
        <time>2023-07-20T14:39:19.000Z</time>
      </trkpt>
      <trkpt lat="42.6093" lon="1.67326">
        <ele>2262.6000976562</ele>
        <time>2023-07-20T14:39:20.000Z</time>
      </trkpt>
      <trkpt lat="42.60928" lon="1.67326">
        <ele>2262.6000976562</ele>
        <time>2023-07-20T14:39:30.000Z</time>
      </trkpt>
      <trkpt lat="42.60932" lon="1.67325">
        <ele>2262.8000488281</ele>
        <time>2023-07-20T14:39:36.000Z</time>
      </trkpt>
      <trkpt lat="42.60933" lon="1.67325">
        <ele>2263</ele>
        <time>2023-07-20T14:39:42.000Z</time>
      </trkpt>
      <trkpt lat="42.60939" lon="1.67325">
        <ele>2263.3999023438</ele>
        <time>2023-07-20T14:39:47.000Z</time>
      </trkpt>
      <trkpt lat="42.60939" lon="1.67324">
        <ele>2263.8000488281</ele>
        <time>2023-07-20T14:39:48.000Z</time>
      </trkpt>
      <trkpt lat="42.60941" lon="1.67324">
        <ele>2264.3999023438</ele>
        <time>2023-07-20T14:39:54.000Z</time>
      </trkpt>
      <trkpt lat="42.60946" lon="1.67323">
        <ele>2264.3999023438</ele>
        <time>2023-07-20T14:39:59.000Z</time>
      </trkpt>
      <trkpt lat="42.60946" lon="1.67322">
        <ele>2264.3999023438</ele>
        <time>2023-07-20T14:40:00.000Z</time>
      </trkpt>
      <trkpt lat="42.60948" lon="1.67319">
        <ele>2264.3999023438</ele>
        <time>2023-07-20T14:40:06.000Z</time>
      </trkpt>
      <trkpt lat="42.60952" lon="1.67317">
        <ele>2264</ele>
        <time>2023-07-20T14:40:12.000Z</time>
      </trkpt>
      <trkpt lat="42.60958" lon="1.67311">
        <ele>2264.1999511719</ele>
        <time>2023-07-20T14:40:21.000Z</time>
      </trkpt>
      <trkpt lat="42.60959" lon="1.67306">
        <ele>2265</ele>
        <time>2023-07-20T14:40:28.000Z</time>
      </trkpt>
      <trkpt lat="42.60959" lon="1.67306">
        <ele>2265.3999023438</ele>
        <time>2023-07-20T14:40:31.000Z</time>
      </trkpt>
      <trkpt lat="42.6096" lon="1.67305">
        <ele>2266.6000976562</ele>
        <time>2023-07-20T14:40:37.000Z</time>
      </trkpt>
      <trkpt lat="42.60963" lon="1.67304">
        <ele>2267.6000976562</ele>
        <time>2023-07-20T14:40:43.000Z</time>
      </trkpt>
      <trkpt lat="42.60965" lon="1.67303">
        <ele>2267.8000488281</ele>
        <time>2023-07-20T14:40:45.000Z</time>
      </trkpt>
      <trkpt lat="42.60966" lon="1.67303">
        <ele>2268.8000488281</ele>
        <time>2023-07-20T14:40:50.000Z</time>
      </trkpt>
      <trkpt lat="42.60968" lon="1.67303">
        <ele>2269.3999023438</ele>
        <time>2023-07-20T14:40:53.000Z</time>
      </trkpt>
      <trkpt lat="42.60969" lon="1.67304">
        <ele>2269.8000488281</ele>
        <time>2023-07-20T14:40:56.000Z</time>
      </trkpt>
      <trkpt lat="42.60969" lon="1.67304">
        <ele>2269.8000488281</ele>
        <time>2023-07-20T14:41:01.000Z</time>
      </trkpt>
      <trkpt lat="42.60973" lon="1.67309">
        <ele>2269.3999023438</ele>
        <time>2023-07-20T14:41:09.000Z</time>
      </trkpt>
      <trkpt lat="42.60973" lon="1.67314">
        <ele>2270.1999511719</ele>
        <time>2023-07-20T14:41:18.000Z</time>
      </trkpt>
      <trkpt lat="42.60975" lon="1.67317">
        <ele>2270.3999023438</ele>
        <time>2023-07-20T14:41:24.000Z</time>
      </trkpt>
      <trkpt lat="42.60983" lon="1.67314">
        <ele>2270.8000488281</ele>
        <time>2023-07-20T14:41:30.000Z</time>
      </trkpt>
      <trkpt lat="42.60984" lon="1.67313">
        <ele>2271</ele>
        <time>2023-07-20T14:41:31.000Z</time>
      </trkpt>
      <trkpt lat="42.60987" lon="1.67308">
        <ele>2271.3999023438</ele>
        <time>2023-07-20T14:41:38.000Z</time>
      </trkpt>
      <trkpt lat="42.60994" lon="1.67302">
        <ele>2271.6000976562</ele>
        <time>2023-07-20T14:41:47.000Z</time>
      </trkpt>
      <trkpt lat="42.60998" lon="1.673">
        <ele>2272.3999023438</ele>
        <time>2023-07-20T14:41:52.000Z</time>
      </trkpt>
      <trkpt lat="42.61001" lon="1.67298">
        <ele>2273</ele>
        <time>2023-07-20T14:41:55.000Z</time>
      </trkpt>
      <trkpt lat="42.61008" lon="1.67293">
        <ele>2272</ele>
        <time>2023-07-20T14:42:04.000Z</time>
      </trkpt>
      <trkpt lat="42.61012" lon="1.6729">
        <ele>2273.3999023438</ele>
        <time>2023-07-20T14:42:11.000Z</time>
      </trkpt>
      <trkpt lat="42.61014" lon="1.67288">
        <ele>2274.3999023438</ele>
        <time>2023-07-20T14:42:18.000Z</time>
      </trkpt>
      <trkpt lat="42.61014" lon="1.67288">
        <ele>2274.3999023438</ele>
        <time>2023-07-20T14:42:19.000Z</time>
      </trkpt>
      <trkpt lat="42.61018" lon="1.67285">
        <ele>2275.8000488281</ele>
        <time>2023-07-20T14:42:25.000Z</time>
      </trkpt>
      <trkpt lat="42.61018" lon="1.67285">
        <ele>2276.3999023438</ele>
        <time>2023-07-20T14:42:26.000Z</time>
      </trkpt>
      <trkpt lat="42.61018" lon="1.67284">
        <ele>2277</ele>
        <time>2023-07-20T14:42:27.000Z</time>
      </trkpt>
      <trkpt lat="42.61022" lon="1.67279">
        <ele>2278</ele>
        <time>2023-07-20T14:42:33.000Z</time>
      </trkpt>
      <trkpt lat="42.61023" lon="1.67278">
        <ele>2278</ele>
        <time>2023-07-20T14:42:34.000Z</time>
      </trkpt>
      <trkpt lat="42.61025" lon="1.67276">
        <ele>2279.1999511719</ele>
        <time>2023-07-20T14:42:39.000Z</time>
      </trkpt>
      <trkpt lat="42.61026" lon="1.67275">
        <ele>2279.6000976562</ele>
        <time>2023-07-20T14:42:43.000Z</time>
      </trkpt>
      <trkpt lat="42.61028" lon="1.67275">
        <ele>2280.1999511719</ele>
        <time>2023-07-20T14:42:47.000Z</time>
      </trkpt>
      <trkpt lat="42.61031" lon="1.67275">
        <ele>2280.6000976562</ele>
        <time>2023-07-20T14:42:51.000Z</time>
      </trkpt>
      <trkpt lat="42.61036" lon="1.6727">
        <ele>2280.6000976562</ele>
        <time>2023-07-20T14:42:59.000Z</time>
      </trkpt>
      <trkpt lat="42.61038" lon="1.67269">
        <ele>2281.3999023438</ele>
        <time>2023-07-20T14:43:03.000Z</time>
      </trkpt>
      <trkpt lat="42.6104" lon="1.67268">
        <ele>2282.8000488281</ele>
        <time>2023-07-20T14:43:06.000Z</time>
      </trkpt>
      <trkpt lat="42.61043" lon="1.67267">
        <ele>2283.3999023438</ele>
        <time>2023-07-20T14:43:09.000Z</time>
      </trkpt>
      <trkpt lat="42.61044" lon="1.67264">
        <ele>2284.3999023438</ele>
        <time>2023-07-20T14:43:13.000Z</time>
      </trkpt>
      <trkpt lat="42.61047" lon="1.67262">
        <ele>2284.6000976562</ele>
        <time>2023-07-20T14:43:17.000Z</time>
      </trkpt>
      <trkpt lat="42.6105" lon="1.67259">
        <ele>2284.6000976562</ele>
        <time>2023-07-20T14:43:24.000Z</time>
      </trkpt>
      <trkpt lat="42.61056" lon="1.67252">
        <ele>2284.1999511719</ele>
        <time>2023-07-20T14:43:32.000Z</time>
      </trkpt>
      <trkpt lat="42.6106" lon="1.67248">
        <ele>2284.6000976562</ele>
        <time>2023-07-20T14:43:39.000Z</time>
      </trkpt>
      <trkpt lat="42.61071" lon="1.67245">
        <ele>2285.1999511719</ele>
        <time>2023-07-20T14:43:47.000Z</time>
      </trkpt>
      <trkpt lat="42.61073" lon="1.67244">
        <ele>2285.3999023438</ele>
        <time>2023-07-20T14:43:49.000Z</time>
      </trkpt>
      <trkpt lat="42.61076" lon="1.67244">
        <ele>2286.3999023438</ele>
        <time>2023-07-20T14:43:54.000Z</time>
      </trkpt>
      <trkpt lat="42.61076" lon="1.67244">
        <ele>2286.3999023438</ele>
        <time>2023-07-20T14:43:55.000Z</time>
      </trkpt>
      <trkpt lat="42.61078" lon="1.67243">
        <ele>2287.3999023438</ele>
        <time>2023-07-20T14:43:58.000Z</time>
      </trkpt>
      <trkpt lat="42.61082" lon="1.67243">
        <ele>2287.6000976562</ele>
        <time>2023-07-20T14:44:02.000Z</time>
      </trkpt>
      <trkpt lat="42.61083" lon="1.67243">
        <ele>2286.3999023438</ele>
        <time>2023-07-20T14:44:06.000Z</time>
      </trkpt>
      <trkpt lat="42.61085" lon="1.67242">
        <ele>2286.3999023438</ele>
        <time>2023-07-20T14:44:10.000Z</time>
      </trkpt>
      <trkpt lat="42.61092" lon="1.6724">
        <ele>2287.1999511719</ele>
        <time>2023-07-20T14:44:19.000Z</time>
      </trkpt>
      <trkpt lat="42.61092" lon="1.6724">
        <ele>2287.3999023438</ele>
        <time>2023-07-20T14:44:20.000Z</time>
      </trkpt>
      <trkpt lat="42.611" lon="1.67238">
        <ele>2288.1999511719</ele>
        <time>2023-07-20T14:44:26.000Z</time>
      </trkpt>
      <trkpt lat="42.61107" lon="1.67236">
        <ele>2287.8000488281</ele>
        <time>2023-07-20T14:44:35.000Z</time>
      </trkpt>
      <trkpt lat="42.61111" lon="1.67236">
        <ele>2288.1999511719</ele>
        <time>2023-07-20T14:44:41.000Z</time>
      </trkpt>
      <trkpt lat="42.61118" lon="1.67239">
        <ele>2288.1999511719</ele>
        <time>2023-07-20T14:44:48.000Z</time>
      </trkpt>
      <trkpt lat="42.61121" lon="1.67239">
        <ele>2288.3999023438</ele>
        <time>2023-07-20T14:44:52.000Z</time>
      </trkpt>
      <trkpt lat="42.61122" lon="1.67239">
        <ele>2289</ele>
        <time>2023-07-20T14:44:55.000Z</time>
      </trkpt>
      <trkpt lat="42.61126" lon="1.6724">
        <ele>2289.3999023438</ele>
        <time>2023-07-20T14:45:00.000Z</time>
      </trkpt>
      <trkpt lat="42.6113" lon="1.67241">
        <ele>2289.6000976562</ele>
        <time>2023-07-20T14:45:03.000Z</time>
      </trkpt>
      <trkpt lat="42.61137" lon="1.6724">
        <ele>2289.6000976562</ele>
        <time>2023-07-20T14:45:11.000Z</time>
      </trkpt>
      <trkpt lat="42.61144" lon="1.67236">
        <ele>2289.1999511719</ele>
        <time>2023-07-20T14:45:18.000Z</time>
      </trkpt>
      <trkpt lat="42.61146" lon="1.67241">
        <ele>2291.8000488281</ele>
        <time>2023-07-20T14:45:41.000Z</time>
      </trkpt>
      <trkpt lat="42.61146" lon="1.6724">
        <ele>2292.6000976562</ele>
        <time>2023-07-20T14:45:47.000Z</time>
      </trkpt>
      <trkpt lat="42.61145" lon="1.67239">
        <ele>2292.6000976562</ele>
        <time>2023-07-20T14:45:49.000Z</time>
      </trkpt>
      <trkpt lat="42.61146" lon="1.67238">
        <ele>2292.6000976562</ele>
        <time>2023-07-20T14:45:54.000Z</time>
      </trkpt>
      <trkpt lat="42.61153" lon="1.67237">
        <ele>2292.3999023438</ele>
        <time>2023-07-20T14:46:04.000Z</time>
      </trkpt>
      <trkpt lat="42.61153" lon="1.67236">
        <ele>2291.8000488281</ele>
        <time>2023-07-20T14:46:13.000Z</time>
      </trkpt>
      <trkpt lat="42.61154" lon="1.67237">
        <ele>2292.1999511719</ele>
        <time>2023-07-20T14:46:21.000Z</time>
      </trkpt>
      <trkpt lat="42.61153" lon="1.67238">
        <ele>2291.3999023438</ele>
        <time>2023-07-20T14:46:25.000Z</time>
      </trkpt>
      <trkpt lat="42.61152" lon="1.67237">
        <ele>2291.3999023438</ele>
        <time>2023-07-20T14:46:28.000Z</time>
      </trkpt>
      <trkpt lat="42.61148" lon="1.67238">
        <ele>2293</ele>
        <time>2023-07-20T14:46:53.000Z</time>
      </trkpt>
      <trkpt lat="42.61151" lon="1.67237">
        <ele>2293</ele>
        <time>2023-07-20T14:47:02.000Z</time>
      </trkpt>
      <trkpt lat="42.61152" lon="1.67238">
        <ele>2292.3999023438</ele>
        <time>2023-07-20T14:47:07.000Z</time>
      </trkpt>
      <trkpt lat="42.6115" lon="1.67234">
        <ele>2292.6000976562</ele>
        <time>2023-07-20T14:47:16.000Z</time>
      </trkpt>
      <trkpt lat="42.61149" lon="1.67231">
        <ele>2292</ele>
        <time>2023-07-20T14:47:27.000Z</time>
      </trkpt>
    </trkseg>
  </trk>
</gpx>